<?xml version="1.0" encoding="UTF-8"?>
<gpx version="1.0" creator="GPSBabel - http://www.gpsbabel.org" xmlns="http://www.topografix.com/GPX/1/0">
  <time>2015-08-09T12:40:38.120Z</time>
  <bounds minlat="46.013769836" minlon="7.187602672" maxlat="46.079143903" maxlon="7.244216477"/>
  <trk>
    <trkseg>
      <trkpt lat="46.076898391" lon="7.207974134">
        <ele>880.000000</ele>
        <time>2015-08-05T09:00:41Z</time>
        <speed>2.513000</speed>
      </trkpt>
      <trkpt lat="46.076909539" lon="7.207951670">
        <ele>880.000000</ele>
        <time>2015-08-05T09:00:42Z</time>
        <speed>2.487000</speed>
      </trkpt>
      <trkpt lat="46.076941474" lon="7.207883609">
        <ele>880.800000</ele>
        <time>2015-08-05T09:00:43Z</time>
        <speed>2.403000</speed>
      </trkpt>
      <trkpt lat="46.076979947" lon="7.207768358">
        <ele>880.800000</ele>
        <time>2015-08-05T09:00:49Z</time>
        <speed>2.417000</speed>
      </trkpt>
      <trkpt lat="46.076988664" lon="7.207535425">
        <ele>880.800000</ele>
        <time>2015-08-05T09:00:56Z</time>
        <speed>2.627000</speed>
      </trkpt>
      <trkpt lat="46.077002998" lon="7.207328643">
        <ele>880.800000</ele>
        <time>2015-08-05T09:01:02Z</time>
        <speed>2.660000</speed>
      </trkpt>
      <trkpt lat="46.077071478" lon="7.207118593">
        <ele>881.200000</ele>
        <time>2015-08-05T09:01:09Z</time>
        <speed>2.731000</speed>
      </trkpt>
      <trkpt lat="46.077083212" lon="7.207094453">
        <ele>881.600000</ele>
        <time>2015-08-05T09:01:10Z</time>
        <speed>2.534000</speed>
      </trkpt>
      <trkpt lat="46.077093354" lon="7.207069223">
        <ele>881.800000</ele>
        <time>2015-08-05T09:01:11Z</time>
        <speed>2.540000</speed>
      </trkpt>
      <trkpt lat="46.077107855" lon="7.207045838">
        <ele>882.200000</ele>
        <time>2015-08-05T09:01:12Z</time>
        <speed>2.379000</speed>
      </trkpt>
      <trkpt lat="46.077122021" lon="7.207021698">
        <ele>882.600000</ele>
        <time>2015-08-05T09:01:13Z</time>
        <speed>2.372000</speed>
      </trkpt>
      <trkpt lat="46.077154878" lon="7.206966377">
        <ele>882.600000</ele>
        <time>2015-08-05T09:01:16Z</time>
        <speed>2.166000</speed>
      </trkpt>
      <trkpt lat="46.077200727" lon="7.206856742">
        <ele>883.000000</ele>
        <time>2015-08-05T09:01:21Z</time>
        <speed>2.066000</speed>
      </trkpt>
      <trkpt lat="46.077208689" lon="7.206832518">
        <ele>883.400000</ele>
        <time>2015-08-05T09:01:22Z</time>
        <speed>2.074000</speed>
      </trkpt>
      <trkpt lat="46.077217993" lon="7.206809636">
        <ele>884.000000</ele>
        <time>2015-08-05T09:01:23Z</time>
        <speed>2.157000</speed>
      </trkpt>
      <trkpt lat="46.077226878" lon="7.206783652">
        <ele>884.400000</ele>
        <time>2015-08-05T09:01:24Z</time>
        <speed>2.092000</speed>
      </trkpt>
      <trkpt lat="46.077234422" lon="7.206759596">
        <ele>884.800000</ele>
        <time>2015-08-05T09:01:25Z</time>
        <speed>2.010000</speed>
      </trkpt>
      <trkpt lat="46.077274404" lon="7.206630431">
        <ele>885.400000</ele>
        <time>2015-08-05T09:01:31Z</time>
        <speed>1.987000</speed>
      </trkpt>
      <trkpt lat="46.077283205" lon="7.206605285">
        <ele>885.800000</ele>
        <time>2015-08-05T09:01:32Z</time>
        <speed>2.012000</speed>
      </trkpt>
      <trkpt lat="46.077289156" lon="7.206579636">
        <ele>886.200000</ele>
        <time>2015-08-05T09:01:33Z</time>
        <speed>2.008000</speed>
      </trkpt>
      <trkpt lat="46.077292173" lon="7.206551138">
        <ele>886.600000</ele>
        <time>2015-08-05T09:01:34Z</time>
        <speed>1.997000</speed>
      </trkpt>
      <trkpt lat="46.077296951" lon="7.206523561">
        <ele>887.000000</ele>
        <time>2015-08-05T09:01:35Z</time>
        <speed>2.013000</speed>
      </trkpt>
      <trkpt lat="46.077314721" lon="7.206454998">
        <ele>887.000000</ele>
        <time>2015-08-05T09:01:38Z</time>
        <speed>2.136000</speed>
      </trkpt>
      <trkpt lat="46.077335256" lon="7.206271853">
        <ele>887.400000</ele>
        <time>2015-08-05T09:01:45Z</time>
        <speed>2.144000</speed>
      </trkpt>
      <trkpt lat="46.077338777" lon="7.206247713">
        <ele>887.800000</ele>
        <time>2015-08-05T09:01:46Z</time>
        <speed>2.082000</speed>
      </trkpt>
      <trkpt lat="46.077342297" lon="7.206223322">
        <ele>888.200000</ele>
        <time>2015-08-05T09:01:47Z</time>
        <speed>2.086000</speed>
      </trkpt>
      <trkpt lat="46.077348248" lon="7.206202535">
        <ele>888.600000</ele>
        <time>2015-08-05T09:01:48Z</time>
        <speed>2.082000</speed>
      </trkpt>
      <trkpt lat="46.077354702" lon="7.206182167">
        <ele>889.000000</ele>
        <time>2015-08-05T09:01:49Z</time>
        <speed>2.084000</speed>
      </trkpt>
      <trkpt lat="46.077370041" lon="7.206112681">
        <ele>889.000000</ele>
        <time>2015-08-05T09:01:52Z</time>
        <speed>2.084000</speed>
      </trkpt>
      <trkpt lat="46.077379764" lon="7.206066999">
        <ele>889.000000</ele>
        <time>2015-08-05T09:01:54Z</time>
        <speed>1.918000</speed>
      </trkpt>
      <trkpt lat="46.077395187" lon="7.206000950">
        <ele>889.400000</ele>
        <time>2015-08-05T09:01:57Z</time>
        <speed>1.847000</speed>
      </trkpt>
      <trkpt lat="46.077402060" lon="7.205975804">
        <ele>889.800000</ele>
        <time>2015-08-05T09:01:58Z</time>
        <speed>1.878000</speed>
      </trkpt>
      <trkpt lat="46.077408430" lon="7.205954849">
        <ele>890.200000</ele>
        <time>2015-08-05T09:01:59Z</time>
        <speed>1.845000</speed>
      </trkpt>
      <trkpt lat="46.077415806" lon="7.205939008">
        <ele>890.600000</ele>
        <time>2015-08-05T09:02:00Z</time>
        <speed>1.928000</speed>
      </trkpt>
      <trkpt lat="46.077419159" lon="7.205917885">
        <ele>891.000000</ele>
        <time>2015-08-05T09:02:01Z</time>
        <speed>1.891000</speed>
      </trkpt>
      <trkpt lat="46.077441203" lon="7.205864828">
        <ele>891.000000</ele>
        <time>2015-08-05T09:02:04Z</time>
        <speed>1.744000</speed>
      </trkpt>
      <trkpt lat="46.077479928" lon="7.205766508">
        <ele>891.400000</ele>
        <time>2015-08-05T09:02:09Z</time>
        <speed>1.728000</speed>
      </trkpt>
      <trkpt lat="46.077490573" lon="7.205752510">
        <ele>892.200000</ele>
        <time>2015-08-05T09:02:10Z</time>
        <speed>1.811000</speed>
      </trkpt>
      <trkpt lat="46.077501050" lon="7.205738932">
        <ele>892.600000</ele>
        <time>2015-08-05T09:02:11Z</time>
        <speed>1.827000</speed>
      </trkpt>
      <trkpt lat="46.077513623" lon="7.205724515">
        <ele>893.000000</ele>
        <time>2015-08-05T09:02:12Z</time>
        <speed>1.827000</speed>
      </trkpt>
      <trkpt lat="46.077574392" lon="7.205644216">
        <ele>893.000000</ele>
        <time>2015-08-05T09:02:18Z</time>
        <speed>1.814000</speed>
      </trkpt>
      <trkpt lat="46.077581014" lon="7.205628626">
        <ele>893.400000</ele>
        <time>2015-08-05T09:02:19Z</time>
        <speed>1.728000</speed>
      </trkpt>
      <trkpt lat="46.077587468" lon="7.205601217">
        <ele>893.800000</ele>
        <time>2015-08-05T09:02:20Z</time>
        <speed>1.701000</speed>
      </trkpt>
      <trkpt lat="46.077588473" lon="7.205579005">
        <ele>894.400000</ele>
        <time>2015-08-05T09:02:21Z</time>
        <speed>1.739000</speed>
      </trkpt>
      <trkpt lat="46.077584785" lon="7.205559894">
        <ele>894.800000</ele>
        <time>2015-08-05T09:02:22Z</time>
        <speed>1.702000</speed>
      </trkpt>
      <trkpt lat="46.077574140" lon="7.205539694">
        <ele>895.200000</ele>
        <time>2015-08-05T09:02:23Z</time>
        <speed>1.702000</speed>
      </trkpt>
      <trkpt lat="46.077495853" lon="7.205521002">
        <ele>895.200000</ele>
        <time>2015-08-05T09:02:28Z</time>
        <speed>1.799000</speed>
      </trkpt>
      <trkpt lat="46.077466349" lon="7.205541789">
        <ele>895.200000</ele>
        <time>2015-08-05T09:02:30Z</time>
        <speed>1.857000</speed>
      </trkpt>
      <trkpt lat="46.077403569" lon="7.205610940">
        <ele>895.200000</ele>
        <time>2015-08-05T09:02:35Z</time>
        <speed>1.989000</speed>
      </trkpt>
      <trkpt lat="46.077372807" lon="7.205664584">
        <ele>895.600000</ele>
        <time>2015-08-05T09:02:38Z</time>
        <speed>1.899000</speed>
      </trkpt>
      <trkpt lat="46.077361659" lon="7.205682773">
        <ele>896.000000</ele>
        <time>2015-08-05T09:02:39Z</time>
        <speed>1.899000</speed>
      </trkpt>
      <trkpt lat="46.077348500" lon="7.205699117">
        <ele>896.400000</ele>
        <time>2015-08-05T09:02:40Z</time>
        <speed>1.904000</speed>
      </trkpt>
      <trkpt lat="46.077337938" lon="7.205719402">
        <ele>896.800000</ele>
        <time>2015-08-05T09:02:41Z</time>
        <speed>1.817000</speed>
      </trkpt>
      <trkpt lat="46.077328048" lon="7.205737004">
        <ele>897.200000</ele>
        <time>2015-08-05T09:02:42Z</time>
        <speed>1.822000</speed>
      </trkpt>
      <trkpt lat="46.077245402" lon="7.205874970">
        <ele>897.200000</ele>
        <time>2015-08-05T09:02:50Z</time>
        <speed>1.786000</speed>
      </trkpt>
      <trkpt lat="46.077223023" lon="7.205913024">
        <ele>897.600000</ele>
        <time>2015-08-05T09:02:52Z</time>
        <speed>1.765000</speed>
      </trkpt>
      <trkpt lat="46.077212713" lon="7.205928698">
        <ele>898.000000</ele>
        <time>2015-08-05T09:02:53Z</time>
        <speed>1.790000</speed>
      </trkpt>
      <trkpt lat="46.077203744" lon="7.205946551">
        <ele>898.400000</ele>
        <time>2015-08-05T09:02:54Z</time>
        <speed>1.790000</speed>
      </trkpt>
      <trkpt lat="46.077195530" lon="7.205961723">
        <ele>898.800000</ele>
        <time>2015-08-05T09:02:55Z</time>
        <speed>1.816000</speed>
      </trkpt>
      <trkpt lat="46.077183376" lon="7.205979576">
        <ele>899.200000</ele>
        <time>2015-08-05T09:02:56Z</time>
        <speed>1.746000</speed>
      </trkpt>
      <trkpt lat="46.077162254" lon="7.206020061">
        <ele>899.200000</ele>
        <time>2015-08-05T09:02:58Z</time>
        <speed>1.808000</speed>
      </trkpt>
      <trkpt lat="46.077086984" lon="7.206132630">
        <ele>899.200000</ele>
        <time>2015-08-05T09:03:05Z</time>
        <speed>1.679000</speed>
      </trkpt>
      <trkpt lat="46.077077680" lon="7.206148304">
        <ele>899.600000</ele>
        <time>2015-08-05T09:03:06Z</time>
        <speed>1.632000</speed>
      </trkpt>
      <trkpt lat="46.077069298" lon="7.206163559">
        <ele>900.000000</ele>
        <time>2015-08-05T09:03:07Z</time>
        <speed>1.632000</speed>
      </trkpt>
      <trkpt lat="46.077058150" lon="7.206179652">
        <ele>900.600000</ele>
        <time>2015-08-05T09:03:08Z</time>
        <speed>1.679000</speed>
      </trkpt>
      <trkpt lat="46.077049182" lon="7.206191722">
        <ele>901.000000</ele>
        <time>2015-08-05T09:03:09Z</time>
        <speed>1.755000</speed>
      </trkpt>
      <trkpt lat="46.077038872" lon="7.206204882">
        <ele>901.400000</ele>
        <time>2015-08-05T09:03:10Z</time>
        <speed>5.785000</speed>
      </trkpt>
      <trkpt lat="46.077018672" lon="7.206236733">
        <ele>901.400000</ele>
        <time>2015-08-05T09:03:12Z</time>
        <speed>5.785000</speed>
      </trkpt>
      <trkpt lat="46.077013056" lon="7.206243941">
        <ele>901.400000</ele>
        <time>2015-08-05T09:03:13Z</time>
        <speed>0.000000</speed>
      </trkpt>
      <trkpt lat="46.076957232" lon="7.206317283">
        <ele>901.800000</ele>
        <time>2015-08-05T09:03:18Z</time>
        <speed>1.596000</speed>
      </trkpt>
      <trkpt lat="46.076946336" lon="7.206326838">
        <ele>902.200000</ele>
        <time>2015-08-05T09:03:19Z</time>
        <speed>1.596000</speed>
      </trkpt>
      <trkpt lat="46.076933931" lon="7.206338908">
        <ele>902.600000</ele>
        <time>2015-08-05T09:03:20Z</time>
        <speed>1.576000</speed>
      </trkpt>
      <trkpt lat="46.076920855" lon="7.206352487">
        <ele>903.000000</ele>
        <time>2015-08-05T09:03:21Z</time>
        <speed>1.550000</speed>
      </trkpt>
      <trkpt lat="46.076907192" lon="7.206361791">
        <ele>903.400000</ele>
        <time>2015-08-05T09:03:22Z</time>
        <speed>1.515000</speed>
      </trkpt>
      <trkpt lat="46.076877185" lon="7.206397665">
        <ele>903.400000</ele>
        <time>2015-08-05T09:03:25Z</time>
        <speed>1.580000</speed>
      </trkpt>
      <trkpt lat="46.076858494" lon="7.206418285">
        <ele>903.400000</ele>
        <time>2015-08-05T09:03:27Z</time>
        <speed>1.567000</speed>
      </trkpt>
      <trkpt lat="46.076841814" lon="7.206443263">
        <ele>903.800000</ele>
        <time>2015-08-05T09:03:29Z</time>
        <speed>1.547000</speed>
      </trkpt>
      <trkpt lat="46.076830666" lon="7.206454662">
        <ele>904.200000</ele>
        <time>2015-08-05T09:03:30Z</time>
        <speed>1.590000</speed>
      </trkpt>
      <trkpt lat="46.076819685" lon="7.206465391">
        <ele>904.600000</ele>
        <time>2015-08-05T09:03:31Z</time>
        <speed>1.590000</speed>
      </trkpt>
      <trkpt lat="46.076807615" lon="7.206481903">
        <ele>905.200000</ele>
        <time>2015-08-05T09:03:32Z</time>
        <speed>1.552000</speed>
      </trkpt>
      <trkpt lat="46.076794791" lon="7.206493554">
        <ele>905.600000</ele>
        <time>2015-08-05T09:03:33Z</time>
        <speed>1.607000</speed>
      </trkpt>
      <trkpt lat="46.076782302" lon="7.206500763">
        <ele>905.600000</ele>
        <time>2015-08-05T09:03:34Z</time>
        <speed>1.626000</speed>
      </trkpt>
      <trkpt lat="46.076713487" lon="7.206549378">
        <ele>905.600000</ele>
        <time>2015-08-05T09:03:40Z</time>
        <speed>1.614000</speed>
      </trkpt>
      <trkpt lat="46.076701584" lon="7.206553988">
        <ele>905.600000</ele>
        <time>2015-08-05T09:03:41Z</time>
        <speed>1.596000</speed>
      </trkpt>
      <trkpt lat="46.076674427" lon="7.206572763">
        <ele>906.000000</ele>
        <time>2015-08-05T09:03:43Z</time>
        <speed>1.536000</speed>
      </trkpt>
      <trkpt lat="46.076662692" lon="7.206583995">
        <ele>906.400000</ele>
        <time>2015-08-05T09:03:44Z</time>
        <speed>1.621000</speed>
      </trkpt>
      <trkpt lat="46.076649030" lon="7.206591706">
        <ele>906.800000</ele>
        <time>2015-08-05T09:03:45Z</time>
        <speed>1.566000</speed>
      </trkpt>
      <trkpt lat="46.076636122" lon="7.206598747">
        <ele>907.200000</ele>
        <time>2015-08-05T09:03:46Z</time>
        <speed>1.554000</speed>
      </trkpt>
      <trkpt lat="46.076625812" lon="7.206602435">
        <ele>907.600000</ele>
        <time>2015-08-05T09:03:47Z</time>
        <speed>1.636000</speed>
      </trkpt>
      <trkpt lat="46.076599577" lon="7.206617858">
        <ele>907.600000</ele>
        <time>2015-08-05T09:03:49Z</time>
        <speed>1.560000</speed>
      </trkpt>
      <trkpt lat="46.076507711" lon="7.206659348">
        <ele>907.600000</ele>
        <time>2015-08-05T09:03:56Z</time>
        <speed>1.614000</speed>
      </trkpt>
      <trkpt lat="46.076493965" lon="7.206659935">
        <ele>908.000000</ele>
        <time>2015-08-05T09:03:57Z</time>
        <speed>1.547000</speed>
      </trkpt>
      <trkpt lat="46.076481895" lon="7.206664964">
        <ele>908.400000</ele>
        <time>2015-08-05T09:03:58Z</time>
        <speed>1.575000</speed>
      </trkpt>
      <trkpt lat="46.076470579" lon="7.206670077">
        <ele>908.800000</ele>
        <time>2015-08-05T09:03:59Z</time>
        <speed>1.602000</speed>
      </trkpt>
      <trkpt lat="46.076457587" lon="7.206676950">
        <ele>909.400000</ele>
        <time>2015-08-05T09:04:00Z</time>
        <speed>1.602000</speed>
      </trkpt>
      <trkpt lat="46.076442248" lon="7.206682818">
        <ele>909.800000</ele>
        <time>2015-08-05T09:04:01Z</time>
        <speed>1.566000</speed>
      </trkpt>
      <trkpt lat="46.076427161" lon="7.206684494">
        <ele>909.800000</ele>
        <time>2015-08-05T09:04:02Z</time>
        <speed>1.638000</speed>
      </trkpt>
      <trkpt lat="46.076345689" lon="7.206768816">
        <ele>909.800000</ele>
        <time>2015-08-05T09:04:09Z</time>
        <speed>1.604000</speed>
      </trkpt>
      <trkpt lat="46.076301013" lon="7.206848696">
        <ele>910.600000</ele>
        <time>2015-08-05T09:04:14Z</time>
        <speed>1.547000</speed>
      </trkpt>
      <trkpt lat="46.076294475" lon="7.206864537">
        <ele>911.000000</ele>
        <time>2015-08-05T09:04:15Z</time>
        <speed>1.569000</speed>
      </trkpt>
      <trkpt lat="46.076286932" lon="7.206878535">
        <ele>911.400000</ele>
        <time>2015-08-05T09:04:16Z</time>
        <speed>1.521000</speed>
      </trkpt>
      <trkpt lat="46.076280310" lon="7.206892952">
        <ele>912.000000</ele>
        <time>2015-08-05T09:04:17Z</time>
        <speed>1.651000</speed>
      </trkpt>
      <trkpt lat="46.076241083" lon="7.206990014">
        <ele>912.000000</ele>
        <time>2015-08-05T09:04:23Z</time>
        <speed>1.508000</speed>
      </trkpt>
      <trkpt lat="46.076233204" lon="7.207003090">
        <ele>912.000000</ele>
        <time>2015-08-05T09:04:24Z</time>
        <speed>1.532000</speed>
      </trkpt>
      <trkpt lat="46.076222559" lon="7.207015747">
        <ele>912.400000</ele>
        <time>2015-08-05T09:04:25Z</time>
        <speed>1.532000</speed>
      </trkpt>
      <trkpt lat="46.076214596" lon="7.207030164">
        <ele>912.800000</ele>
        <time>2015-08-05T09:04:26Z</time>
        <speed>1.547000</speed>
      </trkpt>
      <trkpt lat="46.076206884" lon="7.207042820">
        <ele>913.200000</ele>
        <time>2015-08-05T09:04:27Z</time>
        <speed>1.592000</speed>
      </trkpt>
      <trkpt lat="46.076198586" lon="7.207059081">
        <ele>913.600000</ele>
        <time>2015-08-05T09:04:28Z</time>
        <speed>1.626000</speed>
      </trkpt>
      <trkpt lat="46.076189199" lon="7.207077521">
        <ele>914.000000</ele>
        <time>2015-08-05T09:04:29Z</time>
        <speed>1.626000</speed>
      </trkpt>
      <trkpt lat="46.076178889" lon="7.207091938">
        <ele>914.000000</ele>
        <time>2015-08-05T09:04:30Z</time>
        <speed>1.527000</speed>
      </trkpt>
      <trkpt lat="46.076083670" lon="7.207176763">
        <ele>914.000000</ele>
        <time>2015-08-05T09:04:38Z</time>
        <speed>1.596000</speed>
      </trkpt>
      <trkpt lat="46.076060117" lon="7.207196293">
        <ele>914.400000</ele>
        <time>2015-08-05T09:04:40Z</time>
        <speed>1.603000</speed>
      </trkpt>
      <trkpt lat="46.076047377" lon="7.207202747">
        <ele>914.800000</ele>
        <time>2015-08-05T09:04:41Z</time>
        <speed>1.603000</speed>
      </trkpt>
      <trkpt lat="46.076035055" lon="7.207209034">
        <ele>915.200000</ele>
        <time>2015-08-05T09:04:42Z</time>
        <speed>1.584000</speed>
      </trkpt>
      <trkpt lat="46.076019968" lon="7.207213979">
        <ele>915.600000</ele>
        <time>2015-08-05T09:04:43Z</time>
        <speed>1.595000</speed>
      </trkpt>
      <trkpt lat="46.076006808" lon="7.207221606">
        <ele>916.000000</ele>
        <time>2015-08-05T09:04:44Z</time>
        <speed>1.489000</speed>
      </trkpt>
      <trkpt lat="46.075970515" lon="7.207240047">
        <ele>916.000000</ele>
        <time>2015-08-05T09:04:47Z</time>
        <speed>1.596000</speed>
      </trkpt>
      <trkpt lat="46.075867753" lon="7.207285141">
        <ele>916.400000</ele>
        <time>2015-08-05T09:04:55Z</time>
        <speed>1.566000</speed>
      </trkpt>
      <trkpt lat="46.075852833" lon="7.207289835">
        <ele>916.800000</ele>
        <time>2015-08-05T09:04:56Z</time>
        <speed>1.598000</speed>
      </trkpt>
      <trkpt lat="46.075839170" lon="7.207298971">
        <ele>917.400000</ele>
        <time>2015-08-05T09:04:57Z</time>
        <speed>1.598000</speed>
      </trkpt>
      <trkpt lat="46.075827100" lon="7.207305006">
        <ele>917.800000</ele>
        <time>2015-08-05T09:04:58Z</time>
        <speed>1.591000</speed>
      </trkpt>
      <trkpt lat="46.075816372" lon="7.207312466">
        <ele>918.200000</ele>
        <time>2015-08-05T09:04:59Z</time>
        <speed>1.607000</speed>
      </trkpt>
      <trkpt lat="46.075751076" lon="7.207372648">
        <ele>918.200000</ele>
        <time>2015-08-05T09:05:05Z</time>
        <speed>1.543000</speed>
      </trkpt>
      <trkpt lat="46.075715621" lon="7.207402572">
        <ele>918.600000</ele>
        <time>2015-08-05T09:05:08Z</time>
        <speed>1.504000</speed>
      </trkpt>
      <trkpt lat="46.075703467" lon="7.207413049">
        <ele>919.000000</ele>
        <time>2015-08-05T09:05:09Z</time>
        <speed>1.500000</speed>
      </trkpt>
      <trkpt lat="46.075692990" lon="7.207421766">
        <ele>919.400000</ele>
        <time>2015-08-05T09:05:10Z</time>
        <speed>1.540000</speed>
      </trkpt>
      <trkpt lat="46.075685530" lon="7.207433752">
        <ele>919.800000</ele>
        <time>2015-08-05T09:05:11Z</time>
        <speed>1.540000</speed>
      </trkpt>
      <trkpt lat="46.075675975" lon="7.207441883">
        <ele>920.200000</ele>
        <time>2015-08-05T09:05:12Z</time>
        <speed>1.519000</speed>
      </trkpt>
      <trkpt lat="46.075587294" lon="7.207487313">
        <ele>920.600000</ele>
        <time>2015-08-05T09:05:20Z</time>
        <speed>1.505000</speed>
      </trkpt>
      <trkpt lat="46.075574302" lon="7.207488402">
        <ele>921.000000</ele>
        <time>2015-08-05T09:05:21Z</time>
        <speed>1.505000</speed>
      </trkpt>
      <trkpt lat="46.075563825" lon="7.207492761">
        <ele>921.600000</ele>
        <time>2015-08-05T09:05:22Z</time>
        <speed>1.396000</speed>
      </trkpt>
      <trkpt lat="46.075554353" lon="7.207496700">
        <ele>922.000000</ele>
        <time>2015-08-05T09:05:23Z</time>
        <speed>1.499000</speed>
      </trkpt>
      <trkpt lat="46.075543541" lon="7.207495862">
        <ele>922.400000</ele>
        <time>2015-08-05T09:05:24Z</time>
        <speed>1.545000</speed>
      </trkpt>
      <trkpt lat="46.075492159" lon="7.207505418">
        <ele>922.400000</ele>
        <time>2015-08-05T09:05:28Z</time>
        <speed>1.533000</speed>
      </trkpt>
      <trkpt lat="46.075413956" lon="7.207478009">
        <ele>922.800000</ele>
        <time>2015-08-05T09:05:35Z</time>
        <speed>1.574000</speed>
      </trkpt>
      <trkpt lat="46.075398953" lon="7.207469375">
        <ele>923.200000</ele>
        <time>2015-08-05T09:05:36Z</time>
        <speed>1.560000</speed>
      </trkpt>
      <trkpt lat="46.075395013" lon="7.207467531">
        <ele>923.600000</ele>
        <time>2015-08-05T09:05:37Z</time>
        <speed>1.578000</speed>
      </trkpt>
      <trkpt lat="46.075388056" lon="7.207466693">
        <ele>924.000000</ele>
        <time>2015-08-05T09:05:38Z</time>
        <speed>1.646000</speed>
      </trkpt>
      <trkpt lat="46.075374394" lon="7.207467029">
        <ele>924.400000</ele>
        <time>2015-08-05T09:05:39Z</time>
        <speed>1.646000</speed>
      </trkpt>
      <trkpt lat="46.075363246" lon="7.207468873">
        <ele>924.400000</ele>
        <time>2015-08-05T09:05:40Z</time>
        <speed>1.646000</speed>
      </trkpt>
      <trkpt lat="46.075346063" lon="7.207483038">
        <ele>924.400000</ele>
        <time>2015-08-05T09:05:42Z</time>
        <speed>1.754000</speed>
      </trkpt>
      <trkpt lat="46.075317397" lon="7.207529306">
        <ele>924.400000</ele>
        <time>2015-08-05T09:05:46Z</time>
        <speed>1.510000</speed>
      </trkpt>
      <trkpt lat="46.075295101" lon="7.207569120">
        <ele>924.800000</ele>
        <time>2015-08-05T09:05:49Z</time>
        <speed>1.521000</speed>
      </trkpt>
      <trkpt lat="46.075288395" lon="7.207580603">
        <ele>925.200000</ele>
        <time>2015-08-05T09:05:50Z</time>
        <speed>1.499000</speed>
      </trkpt>
      <trkpt lat="46.075283282" lon="7.207592757">
        <ele>925.600000</ele>
        <time>2015-08-05T09:05:51Z</time>
        <speed>1.499000</speed>
      </trkpt>
      <trkpt lat="46.075275487" lon="7.207606084">
        <ele>926.400000</ele>
        <time>2015-08-05T09:05:52Z</time>
        <speed>1.528000</speed>
      </trkpt>
      <trkpt lat="46.075251850" lon="7.207681102">
        <ele>926.400000</ele>
        <time>2015-08-05T09:05:57Z</time>
        <speed>1.522000</speed>
      </trkpt>
      <trkpt lat="46.075251515" lon="7.207695100">
        <ele>926.400000</ele>
        <time>2015-08-05T09:05:58Z</time>
        <speed>1.522000</speed>
      </trkpt>
      <trkpt lat="46.075226286" lon="7.207746146">
        <ele>927.000000</ele>
        <time>2015-08-05T09:06:01Z</time>
        <speed>1.483000</speed>
      </trkpt>
      <trkpt lat="46.075218490" lon="7.207760227">
        <ele>927.400000</ele>
        <time>2015-08-05T09:06:02Z</time>
        <speed>1.483000</speed>
      </trkpt>
      <trkpt lat="46.075204576" lon="7.207778081">
        <ele>927.800000</ele>
        <time>2015-08-05T09:06:03Z</time>
        <speed>1.499000</speed>
      </trkpt>
      <trkpt lat="46.075186304" lon="7.207795264">
        <ele>928.200000</ele>
        <time>2015-08-05T09:06:04Z</time>
        <speed>1.422000</speed>
      </trkpt>
      <trkpt lat="46.075175072" lon="7.207814375">
        <ele>928.600000</ele>
        <time>2015-08-05T09:06:05Z</time>
        <speed>1.422000</speed>
      </trkpt>
      <trkpt lat="46.075139952" lon="7.207865420">
        <ele>928.600000</ele>
        <time>2015-08-05T09:06:08Z</time>
        <speed>1.457000</speed>
      </trkpt>
      <trkpt lat="46.075079686" lon="7.207964914">
        <ele>929.000000</ele>
        <time>2015-08-05T09:06:14Z</time>
        <speed>1.551000</speed>
      </trkpt>
      <trkpt lat="46.075070466" lon="7.207973044">
        <ele>929.400000</ele>
        <time>2015-08-05T09:06:15Z</time>
        <speed>1.475000</speed>
      </trkpt>
      <trkpt lat="46.075061413" lon="7.207984862">
        <ele>929.800000</ele>
        <time>2015-08-05T09:06:16Z</time>
        <speed>1.475000</speed>
      </trkpt>
      <trkpt lat="46.075052277" lon="7.207991317">
        <ele>930.800000</ele>
        <time>2015-08-05T09:06:17Z</time>
        <speed>1.399000</speed>
      </trkpt>
      <trkpt lat="46.075021767" lon="7.208023419">
        <ele>930.800000</ele>
        <time>2015-08-05T09:06:20Z</time>
        <speed>1.484000</speed>
      </trkpt>
      <trkpt lat="46.075009865" lon="7.208036160">
        <ele>930.800000</ele>
        <time>2015-08-05T09:06:21Z</time>
        <speed>1.455000</speed>
      </trkpt>
      <trkpt lat="46.074995783" lon="7.208047894">
        <ele>930.800000</ele>
        <time>2015-08-05T09:06:23Z</time>
        <speed>1.530000</speed>
      </trkpt>
      <trkpt lat="46.074956472" lon="7.208057869">
        <ele>931.200000</ele>
        <time>2015-08-05T09:06:27Z</time>
        <speed>1.527000</speed>
      </trkpt>
      <trkpt lat="46.074943983" lon="7.208057198">
        <ele>931.600000</ele>
        <time>2015-08-05T09:06:28Z</time>
        <speed>1.530000</speed>
      </trkpt>
      <trkpt lat="46.074935517" lon="7.208059713">
        <ele>932.000000</ele>
        <time>2015-08-05T09:06:29Z</time>
        <speed>1.530000</speed>
      </trkpt>
      <trkpt lat="46.074920849" lon="7.208063820">
        <ele>932.400000</ele>
        <time>2015-08-05T09:06:30Z</time>
        <speed>1.492000</speed>
      </trkpt>
      <trkpt lat="46.074914646" lon="7.208067257">
        <ele>932.800000</ele>
        <time>2015-08-05T09:06:31Z</time>
        <speed>1.522000</speed>
      </trkpt>
      <trkpt lat="46.074906516" lon="7.208074884">
        <ele>932.800000</ele>
        <time>2015-08-05T09:06:32Z</time>
        <speed>1.506000</speed>
      </trkpt>
      <trkpt lat="46.074850860" lon="7.208099611">
        <ele>932.800000</ele>
        <time>2015-08-05T09:06:36Z</time>
        <speed>1.506000</speed>
      </trkpt>
      <trkpt lat="46.074838790" lon="7.208105310">
        <ele>932.800000</ele>
        <time>2015-08-05T09:06:37Z</time>
        <speed>1.506000</speed>
      </trkpt>
      <trkpt lat="46.074831582" lon="7.208104305">
        <ele>932.800000</ele>
        <time>2015-08-05T09:06:38Z</time>
        <speed>1.543000</speed>
      </trkpt>
      <trkpt lat="46.074781542" lon="7.208107741">
        <ele>933.200000</ele>
        <time>2015-08-05T09:06:42Z</time>
        <speed>1.599000</speed>
      </trkpt>
      <trkpt lat="46.074765784" lon="7.208114950">
        <ele>933.600000</ele>
        <time>2015-08-05T09:06:43Z</time>
        <speed>1.608000</speed>
      </trkpt>
      <trkpt lat="46.074751786" lon="7.208120817">
        <ele>934.000000</ele>
        <time>2015-08-05T09:06:44Z</time>
        <speed>1.497000</speed>
      </trkpt>
      <trkpt lat="46.074736866" lon="7.208128193">
        <ele>934.600000</ele>
        <time>2015-08-05T09:06:45Z</time>
        <speed>1.497000</speed>
      </trkpt>
      <trkpt lat="46.074721695" lon="7.208134312">
        <ele>935.000000</ele>
        <time>2015-08-05T09:06:46Z</time>
        <speed>1.553000</speed>
      </trkpt>
      <trkpt lat="46.074672409" lon="7.208146717">
        <ele>935.000000</ele>
        <time>2015-08-05T09:06:49Z</time>
        <speed>1.476000</speed>
      </trkpt>
      <trkpt lat="46.074622705" lon="7.208163565">
        <ele>935.000000</ele>
        <time>2015-08-05T09:06:52Z</time>
        <speed>1.497000</speed>
      </trkpt>
      <trkpt lat="46.074611557" lon="7.208171863">
        <ele>935.000000</ele>
        <time>2015-08-05T09:06:53Z</time>
        <speed>1.508000</speed>
      </trkpt>
      <trkpt lat="46.074573838" lon="7.208193740">
        <ele>935.400000</ele>
        <time>2015-08-05T09:06:56Z</time>
        <speed>1.506000</speed>
      </trkpt>
      <trkpt lat="46.074560930" lon="7.208198517">
        <ele>935.800000</ele>
        <time>2015-08-05T09:06:57Z</time>
        <speed>1.468000</speed>
      </trkpt>
      <trkpt lat="46.074549614" lon="7.208201451">
        <ele>936.200000</ele>
        <time>2015-08-05T09:06:58Z</time>
        <speed>1.480000</speed>
      </trkpt>
      <trkpt lat="46.074537293" lon="7.208209581">
        <ele>936.600000</ele>
        <time>2015-08-05T09:06:59Z</time>
        <speed>1.480000</speed>
      </trkpt>
      <trkpt lat="46.074521451" lon="7.208216622">
        <ele>937.000000</ele>
        <time>2015-08-05T09:07:00Z</time>
        <speed>1.477000</speed>
      </trkpt>
      <trkpt lat="46.074470573" lon="7.208260376">
        <ele>937.000000</ele>
        <time>2015-08-05T09:07:04Z</time>
        <speed>1.533000</speed>
      </trkpt>
      <trkpt lat="46.074444254" lon="7.208280073">
        <ele>937.000000</ele>
        <time>2015-08-05T09:07:06Z</time>
        <speed>1.525000</speed>
      </trkpt>
      <trkpt lat="46.074398573" lon="7.208318043">
        <ele>937.400000</ele>
        <time>2015-08-05T09:07:10Z</time>
        <speed>1.544000</speed>
      </trkpt>
      <trkpt lat="46.074387006" lon="7.208328269">
        <ele>937.800000</ele>
        <time>2015-08-05T09:07:11Z</time>
        <speed>1.418000</speed>
      </trkpt>
      <trkpt lat="46.074376277" lon="7.208341093">
        <ele>938.200000</ele>
        <time>2015-08-05T09:07:12Z</time>
        <speed>1.541000</speed>
      </trkpt>
      <trkpt lat="46.074365883" lon="7.208349978">
        <ele>938.600000</ele>
        <time>2015-08-05T09:07:13Z</time>
        <speed>1.567000</speed>
      </trkpt>
      <trkpt lat="46.074354065" lon="7.208359366">
        <ele>939.200000</ele>
        <time>2015-08-05T09:07:14Z</time>
        <speed>1.567000</speed>
      </trkpt>
      <trkpt lat="46.074312323" lon="7.208398090">
        <ele>939.200000</ele>
        <time>2015-08-05T09:07:18Z</time>
        <speed>1.531000</speed>
      </trkpt>
      <trkpt lat="46.074293212" lon="7.208416447">
        <ele>939.200000</ele>
        <time>2015-08-05T09:07:20Z</time>
        <speed>1.551000</speed>
      </trkpt>
      <trkpt lat="46.074271084" lon="7.208445113">
        <ele>939.200000</ele>
        <time>2015-08-05T09:07:23Z</time>
        <speed>1.498000</speed>
      </trkpt>
      <trkpt lat="46.074254404" lon="7.208461038">
        <ele>939.200000</ele>
        <time>2015-08-05T09:07:25Z</time>
        <speed>1.468000</speed>
      </trkpt>
      <trkpt lat="46.074247615" lon="7.208468163">
        <ele>939.600000</ele>
        <time>2015-08-05T09:07:26Z</time>
        <speed>1.518000</speed>
      </trkpt>
      <trkpt lat="46.074241831" lon="7.208474449">
        <ele>940.000000</ele>
        <time>2015-08-05T09:07:27Z</time>
        <speed>1.518000</speed>
      </trkpt>
      <trkpt lat="46.074232527" lon="7.208479395">
        <ele>940.400000</ele>
        <time>2015-08-05T09:07:28Z</time>
        <speed>1.463000</speed>
      </trkpt>
      <trkpt lat="46.074223139" lon="7.208491800">
        <ele>940.800000</ele>
        <time>2015-08-05T09:07:29Z</time>
        <speed>1.505000</speed>
      </trkpt>
      <trkpt lat="46.074212662" lon="7.208498925">
        <ele>941.200000</ele>
        <time>2015-08-05T09:07:30Z</time>
        <speed>1.422000</speed>
      </trkpt>
      <trkpt lat="46.074200592" lon="7.208506636">
        <ele>941.200000</ele>
        <time>2015-08-05T09:07:32Z</time>
        <speed>1.455000</speed>
      </trkpt>
      <trkpt lat="46.074165975" lon="7.208517952">
        <ele>941.200000</ele>
        <time>2015-08-05T09:07:35Z</time>
        <speed>1.529000</speed>
      </trkpt>
      <trkpt lat="46.074140075" lon="7.208525244">
        <ele>941.200000</ele>
        <time>2015-08-05T09:07:37Z</time>
        <speed>1.483000</speed>
      </trkpt>
      <trkpt lat="46.074114426" lon="7.208524909">
        <ele>941.600000</ele>
        <time>2015-08-05T09:07:39Z</time>
        <speed>1.484000</speed>
      </trkpt>
      <trkpt lat="46.074104033" lon="7.208525831">
        <ele>942.000000</ele>
        <time>2015-08-05T09:07:40Z</time>
        <speed>1.480000</speed>
      </trkpt>
      <trkpt lat="46.074096740" lon="7.208527675">
        <ele>942.400000</ele>
        <time>2015-08-05T09:07:41Z</time>
        <speed>1.480000</speed>
      </trkpt>
      <trkpt lat="46.074085844" lon="7.208530776">
        <ele>942.800000</ele>
        <time>2015-08-05T09:07:42Z</time>
        <speed>1.530000</speed>
      </trkpt>
      <trkpt lat="46.074073103" lon="7.208538487">
        <ele>943.200000</ele>
        <time>2015-08-05T09:07:43Z</time>
        <speed>1.550000</speed>
      </trkpt>
      <trkpt lat="46.074028344" lon="7.208592550">
        <ele>943.200000</ele>
        <time>2015-08-05T09:07:47Z</time>
        <speed>1.569000</speed>
      </trkpt>
      <trkpt lat="46.074010071" lon="7.208625743">
        <ele>943.200000</ele>
        <time>2015-08-05T09:07:49Z</time>
        <speed>1.465000</speed>
      </trkpt>
      <trkpt lat="46.074007389" lon="7.208641836">
        <ele>943.200000</ele>
        <time>2015-08-05T09:07:50Z</time>
        <speed>1.541000</speed>
      </trkpt>
      <trkpt lat="46.074005210" lon="7.208658851">
        <ele>943.200000</ele>
        <time>2015-08-05T09:07:51Z</time>
        <speed>1.494000</speed>
      </trkpt>
      <trkpt lat="46.073997499" lon="7.208711573">
        <ele>943.600000</ele>
        <time>2015-08-05T09:07:53Z</time>
        <speed>1.560000</speed>
      </trkpt>
      <trkpt lat="46.073997331" lon="7.208733953">
        <ele>944.000000</ele>
        <time>2015-08-05T09:07:54Z</time>
        <speed>1.440000</speed>
      </trkpt>
      <trkpt lat="46.073996157" lon="7.208757758">
        <ele>944.600000</ele>
        <time>2015-08-05T09:07:55Z</time>
        <speed>1.378000</speed>
      </trkpt>
      <trkpt lat="46.073991547" lon="7.208781227">
        <ele>945.400000</ele>
        <time>2015-08-05T09:07:56Z</time>
        <speed>1.378000</speed>
      </trkpt>
      <trkpt lat="46.073987608" lon="7.208799500">
        <ele>945.400000</ele>
        <time>2015-08-05T09:07:57Z</time>
        <speed>1.510000</speed>
      </trkpt>
      <trkpt lat="46.073980651" lon="7.208841996">
        <ele>945.400000</ele>
        <time>2015-08-05T09:07:59Z</time>
        <speed>1.478000</speed>
      </trkpt>
      <trkpt lat="46.073979058" lon="7.208906788">
        <ele>945.400000</ele>
        <time>2015-08-05T09:08:02Z</time>
        <speed>1.518000</speed>
      </trkpt>
      <trkpt lat="46.073968246" lon="7.208932688">
        <ele>945.800000</ele>
        <time>2015-08-05T09:08:03Z</time>
        <speed>1.518000</speed>
      </trkpt>
      <trkpt lat="46.073965731" lon="7.208958001">
        <ele>946.200000</ele>
        <time>2015-08-05T09:08:04Z</time>
        <speed>1.503000</speed>
      </trkpt>
      <trkpt lat="46.073965899" lon="7.208981555">
        <ele>946.600000</ele>
        <time>2015-08-05T09:08:05Z</time>
        <speed>1.556000</speed>
      </trkpt>
      <trkpt lat="46.073966653" lon="7.209000330">
        <ele>947.000000</ele>
        <time>2015-08-05T09:08:06Z</time>
        <speed>1.556000</speed>
      </trkpt>
      <trkpt lat="46.073965061" lon="7.209019608">
        <ele>947.400000</ele>
        <time>2015-08-05T09:08:07Z</time>
        <speed>1.569000</speed>
      </trkpt>
      <trkpt lat="46.073962043" lon="7.209062943">
        <ele>947.400000</ele>
        <time>2015-08-05T09:08:09Z</time>
        <speed>1.445000</speed>
      </trkpt>
      <trkpt lat="46.073912422" lon="7.209196550">
        <ele>947.400000</ele>
        <time>2015-08-05T09:08:16Z</time>
        <speed>1.553000</speed>
      </trkpt>
      <trkpt lat="46.073903705" lon="7.209211051">
        <ele>947.800000</ele>
        <time>2015-08-05T09:08:17Z</time>
        <speed>1.553000</speed>
      </trkpt>
      <trkpt lat="46.073898508" lon="7.209228569">
        <ele>948.200000</ele>
        <time>2015-08-05T09:08:18Z</time>
        <speed>1.633000</speed>
      </trkpt>
      <trkpt lat="46.073893311" lon="7.209242232">
        <ele>948.600000</ele>
        <time>2015-08-05T09:08:19Z</time>
        <speed>1.498000</speed>
      </trkpt>
      <trkpt lat="46.073884175" lon="7.209251536">
        <ele>949.000000</ele>
        <time>2015-08-05T09:08:20Z</time>
        <speed>1.520000</speed>
      </trkpt>
      <trkpt lat="46.073873949" lon="7.209260923">
        <ele>949.400000</ele>
        <time>2015-08-05T09:08:21Z</time>
        <speed>1.520000</speed>
      </trkpt>
      <trkpt lat="46.073860874" lon="7.209268299">
        <ele>949.400000</ele>
        <time>2015-08-05T09:08:22Z</time>
        <speed>1.449000</speed>
      </trkpt>
      <trkpt lat="46.073784766" lon="7.209331331">
        <ele>949.800000</ele>
        <time>2015-08-05T09:08:29Z</time>
        <speed>1.459000</speed>
      </trkpt>
      <trkpt lat="46.073774037" lon="7.209338121">
        <ele>950.200000</ele>
        <time>2015-08-05T09:08:30Z</time>
        <speed>1.503000</speed>
      </trkpt>
      <trkpt lat="46.073762638" lon="7.209345078">
        <ele>950.600000</ele>
        <time>2015-08-05T09:08:31Z</time>
        <speed>1.503000</speed>
      </trkpt>
      <trkpt lat="46.073750735" lon="7.209351532">
        <ele>951.000000</ele>
        <time>2015-08-05T09:08:32Z</time>
        <speed>1.420000</speed>
      </trkpt>
      <trkpt lat="46.073738079" lon="7.209351448">
        <ele>951.400000</ele>
        <time>2015-08-05T09:08:33Z</time>
        <speed>1.427000</speed>
      </trkpt>
      <trkpt lat="46.073687620" lon="7.209375085">
        <ele>951.400000</ele>
        <time>2015-08-05T09:08:37Z</time>
        <speed>1.554000</speed>
      </trkpt>
      <trkpt lat="46.073597598" lon="7.209387071">
        <ele>951.400000</ele>
        <time>2015-08-05T09:08:44Z</time>
        <speed>1.554000</speed>
      </trkpt>
      <trkpt lat="46.073574799" lon="7.209389167">
        <ele>952.000000</ele>
        <time>2015-08-05T09:08:46Z</time>
        <speed>1.554000</speed>
      </trkpt>
      <trkpt lat="46.073563484" lon="7.209389921">
        <ele>952.400000</ele>
        <time>2015-08-05T09:08:47Z</time>
        <speed>1.571000</speed>
      </trkpt>
      <trkpt lat="46.073551497" lon="7.209390759">
        <ele>952.800000</ele>
        <time>2015-08-05T09:08:48Z</time>
        <speed>1.555000</speed>
      </trkpt>
      <trkpt lat="46.073537164" lon="7.209390927">
        <ele>953.200000</ele>
        <time>2015-08-05T09:08:49Z</time>
        <speed>1.555000</speed>
      </trkpt>
      <trkpt lat="46.073524424" lon="7.209391178">
        <ele>953.600000</ele>
        <time>2015-08-05T09:08:50Z</time>
        <speed>1.494000</speed>
      </trkpt>
      <trkpt lat="46.073497602" lon="7.209396710">
        <ele>953.600000</ele>
        <time>2015-08-05T09:08:52Z</time>
        <speed>1.487000</speed>
      </trkpt>
      <trkpt lat="46.073413783" lon="7.209413893">
        <ele>953.600000</ele>
        <time>2015-08-05T09:08:59Z</time>
        <speed>1.515000</speed>
      </trkpt>
      <trkpt lat="46.073392241" lon="7.209435267">
        <ele>954.000000</ele>
        <time>2015-08-05T09:09:01Z</time>
        <speed>1.453000</speed>
      </trkpt>
      <trkpt lat="46.073380926" lon="7.209448427">
        <ele>954.400000</ele>
        <time>2015-08-05T09:09:02Z</time>
        <speed>1.605000</speed>
      </trkpt>
      <trkpt lat="46.073372544" lon="7.209458066">
        <ele>954.800000</ele>
        <time>2015-08-05T09:09:03Z</time>
        <speed>1.605000</speed>
      </trkpt>
      <trkpt lat="46.073364581" lon="7.209471477">
        <ele>955.200000</ele>
        <time>2015-08-05T09:09:04Z</time>
        <speed>1.579000</speed>
      </trkpt>
      <trkpt lat="46.073356534" lon="7.209485810">
        <ele>955.600000</ele>
        <time>2015-08-05T09:09:05Z</time>
        <speed>1.572000</speed>
      </trkpt>
      <trkpt lat="46.073338765" lon="7.209516907">
        <ele>955.600000</ele>
        <time>2015-08-05T09:09:07Z</time>
        <speed>1.510000</speed>
      </trkpt>
      <trkpt lat="46.073303561" lon="7.209623441">
        <ele>956.000000</ele>
        <time>2015-08-05T09:09:13Z</time>
        <speed>1.505000</speed>
      </trkpt>
      <trkpt lat="46.073296771" lon="7.209638025">
        <ele>956.400000</ele>
        <time>2015-08-05T09:09:14Z</time>
        <speed>1.528000</speed>
      </trkpt>
      <trkpt lat="46.073297358" lon="7.209654957">
        <ele>956.800000</ele>
        <time>2015-08-05T09:09:15Z</time>
        <speed>1.528000</speed>
      </trkpt>
      <trkpt lat="46.073300292" lon="7.209668116">
        <ele>957.200000</ele>
        <time>2015-08-05T09:09:16Z</time>
        <speed>1.470000</speed>
      </trkpt>
      <trkpt lat="46.073307584" lon="7.209688149">
        <ele>957.600000</ele>
        <time>2015-08-05T09:09:17Z</time>
        <speed>1.463000</speed>
      </trkpt>
      <trkpt lat="46.073303728" lon="7.209722682">
        <ele>957.600000</ele>
        <time>2015-08-05T09:09:19Z</time>
        <speed>1.483000</speed>
      </trkpt>
      <trkpt lat="46.073276152" lon="7.209797952">
        <ele>957.600000</ele>
        <time>2015-08-05T09:09:24Z</time>
        <speed>1.495000</speed>
      </trkpt>
      <trkpt lat="46.073270620" lon="7.209824523">
        <ele>957.600000</ele>
        <time>2015-08-05T09:09:26Z</time>
        <speed>1.448000</speed>
      </trkpt>
      <trkpt lat="46.073266932" lon="7.209836593">
        <ele>958.000000</ele>
        <time>2015-08-05T09:09:27Z</time>
        <speed>1.490000</speed>
      </trkpt>
      <trkpt lat="46.073264753" lon="7.209854027">
        <ele>958.600000</ele>
        <time>2015-08-05T09:09:28Z</time>
        <speed>1.490000</speed>
      </trkpt>
      <trkpt lat="46.073262238" lon="7.209869450">
        <ele>959.000000</ele>
        <time>2015-08-05T09:09:29Z</time>
        <speed>1.470000</speed>
      </trkpt>
      <trkpt lat="46.073258215" lon="7.209886465">
        <ele>959.400000</ele>
        <time>2015-08-05T09:09:30Z</time>
        <speed>1.400000</speed>
      </trkpt>
      <trkpt lat="46.073259975" lon="7.209898283">
        <ele>959.800000</ele>
        <time>2015-08-05T09:09:31Z</time>
        <speed>1.400000</speed>
      </trkpt>
      <trkpt lat="46.073250503" lon="7.209934912">
        <ele>959.800000</ele>
        <time>2015-08-05T09:09:33Z</time>
        <speed>1.516000</speed>
      </trkpt>
      <trkpt lat="46.073229716" lon="7.210011439">
        <ele>959.800000</ele>
        <time>2015-08-05T09:09:39Z</time>
        <speed>1.567000</speed>
      </trkpt>
      <trkpt lat="46.073222927" lon="7.210025521">
        <ele>960.200000</ele>
        <time>2015-08-05T09:09:40Z</time>
        <speed>1.482000</speed>
      </trkpt>
      <trkpt lat="46.073214461" lon="7.210038680">
        <ele>960.600000</ele>
        <time>2015-08-05T09:09:41Z</time>
        <speed>1.493000</speed>
      </trkpt>
      <trkpt lat="46.073209264" lon="7.210056785">
        <ele>961.000000</ele>
        <time>2015-08-05T09:09:42Z</time>
        <speed>1.493000</speed>
      </trkpt>
      <trkpt lat="46.073202894" lon="7.210070196">
        <ele>961.400000</ele>
        <time>2015-08-05T09:09:43Z</time>
        <speed>1.607000</speed>
      </trkpt>
      <trkpt lat="46.073193590" lon="7.210082769">
        <ele>961.800000</ele>
        <time>2015-08-05T09:09:44Z</time>
        <speed>1.621000</speed>
      </trkpt>
      <trkpt lat="46.073180431" lon="7.210114788">
        <ele>961.800000</ele>
        <time>2015-08-05T09:09:46Z</time>
        <speed>1.841000</speed>
      </trkpt>
      <trkpt lat="46.073110274" lon="7.210214281">
        <ele>961.800000</ele>
        <time>2015-08-05T09:09:52Z</time>
        <speed>1.721000</speed>
      </trkpt>
      <trkpt lat="46.073081943" lon="7.210278738">
        <ele>962.200000</ele>
        <time>2015-08-05T09:09:56Z</time>
        <speed>1.732000</speed>
      </trkpt>
      <trkpt lat="46.073077333" lon="7.210296172">
        <ele>962.600000</ele>
        <time>2015-08-05T09:09:57Z</time>
        <speed>1.654000</speed>
      </trkpt>
      <trkpt lat="46.073070628" lon="7.210323330">
        <ele>963.200000</ele>
        <time>2015-08-05T09:09:58Z</time>
        <speed>1.654000</speed>
      </trkpt>
      <trkpt lat="46.073067275" lon="7.210346380">
        <ele>963.600000</ele>
        <time>2015-08-05T09:09:59Z</time>
        <speed>1.596000</speed>
      </trkpt>
      <trkpt lat="46.073056881" lon="7.210375717">
        <ele>964.000000</ele>
        <time>2015-08-05T09:10:00Z</time>
        <speed>1.614000</speed>
      </trkpt>
      <trkpt lat="46.073048080" lon="7.210445454">
        <ele>964.000000</ele>
        <time>2015-08-05T09:10:03Z</time>
        <speed>1.562000</speed>
      </trkpt>
      <trkpt lat="46.073058139" lon="7.210465151">
        <ele>964.000000</ele>
        <time>2015-08-05T09:10:04Z</time>
        <speed>1.595000</speed>
      </trkpt>
      <trkpt lat="46.073041626" lon="7.210526004">
        <ele>964.000000</ele>
        <time>2015-08-05T09:10:08Z</time>
        <speed>1.598000</speed>
      </trkpt>
      <trkpt lat="46.073031987" lon="7.210563806">
        <ele>964.400000</ele>
        <time>2015-08-05T09:10:10Z</time>
        <speed>1.599000</speed>
      </trkpt>
      <trkpt lat="46.073021510" lon="7.210579648">
        <ele>964.800000</ele>
        <time>2015-08-05T09:10:11Z</time>
        <speed>1.568000</speed>
      </trkpt>
      <trkpt lat="46.073015056" lon="7.210600100">
        <ele>965.200000</ele>
        <time>2015-08-05T09:10:12Z</time>
        <speed>1.599000</speed>
      </trkpt>
      <trkpt lat="46.073001728" lon="7.210619211">
        <ele>965.600000</ele>
        <time>2015-08-05T09:10:13Z</time>
        <speed>1.569000</speed>
      </trkpt>
      <trkpt lat="46.072994604" lon="7.210632790">
        <ele>966.000000</ele>
        <time>2015-08-05T09:10:14Z</time>
        <speed>1.569000</speed>
      </trkpt>
      <trkpt lat="46.072963004" lon="7.210693810">
        <ele>966.000000</ele>
        <time>2015-08-05T09:10:18Z</time>
        <speed>1.683000</speed>
      </trkpt>
      <trkpt lat="46.072895446" lon="7.210756423">
        <ele>966.400000</ele>
        <time>2015-08-05T09:10:24Z</time>
        <speed>1.586000</speed>
      </trkpt>
      <trkpt lat="46.072884130" lon="7.210766146">
        <ele>966.800000</ele>
        <time>2015-08-05T09:10:25Z</time>
        <speed>1.601000</speed>
      </trkpt>
      <trkpt lat="46.072869881" lon="7.210778802">
        <ele>967.200000</ele>
        <time>2015-08-05T09:10:26Z</time>
        <speed>1.598000</speed>
      </trkpt>
      <trkpt lat="46.072858985" lon="7.210787017">
        <ele>967.600000</ele>
        <time>2015-08-05T09:10:27Z</time>
        <speed>1.598000</speed>
      </trkpt>
      <trkpt lat="46.072852950" lon="7.210795901">
        <ele>968.200000</ele>
        <time>2015-08-05T09:10:28Z</time>
        <speed>1.585000</speed>
      </trkpt>
      <trkpt lat="46.072833587" lon="7.210815766">
        <ele>968.200000</ele>
        <time>2015-08-05T09:10:30Z</time>
        <speed>1.561000</speed>
      </trkpt>
      <trkpt lat="46.072777093" lon="7.210905704">
        <ele>968.200000</ele>
        <time>2015-08-05T09:10:36Z</time>
        <speed>1.522000</speed>
      </trkpt>
      <trkpt lat="46.072757647" lon="7.210963372">
        <ele>968.600000</ele>
        <time>2015-08-05T09:10:39Z</time>
        <speed>1.542000</speed>
      </trkpt>
      <trkpt lat="46.072747170" lon="7.210988015">
        <ele>969.000000</ele>
        <time>2015-08-05T09:10:40Z</time>
        <speed>1.539000</speed>
      </trkpt>
      <trkpt lat="46.072729233" lon="7.211012490">
        <ele>969.400000</ele>
        <time>2015-08-05T09:10:41Z</time>
        <speed>1.630000</speed>
      </trkpt>
      <trkpt lat="46.072729568" lon="7.211036378">
        <ele>969.800000</ele>
        <time>2015-08-05T09:10:42Z</time>
        <speed>1.457000</speed>
      </trkpt>
      <trkpt lat="46.072732921" lon="7.211062194">
        <ele>970.200000</ele>
        <time>2015-08-05T09:10:43Z</time>
        <speed>1.457000</speed>
      </trkpt>
      <trkpt lat="46.072723785" lon="7.211144589">
        <ele>970.200000</ele>
        <time>2015-08-05T09:10:47Z</time>
        <speed>1.551000</speed>
      </trkpt>
      <trkpt lat="46.072712637" lon="7.211188342">
        <ele>970.200000</ele>
        <time>2015-08-05T09:10:50Z</time>
        <speed>1.497000</speed>
      </trkpt>
      <trkpt lat="46.072703249" lon="7.211205441">
        <ele>970.600000</ele>
        <time>2015-08-05T09:10:51Z</time>
        <speed>1.519000</speed>
      </trkpt>
      <trkpt lat="46.072695118" lon="7.211222708">
        <ele>971.000000</ele>
        <time>2015-08-05T09:10:52Z</time>
        <speed>1.523000</speed>
      </trkpt>
      <trkpt lat="46.072685982" lon="7.211235448">
        <ele>971.400000</ele>
        <time>2015-08-05T09:10:53Z</time>
        <speed>1.523000</speed>
      </trkpt>
      <trkpt lat="46.072676427" lon="7.211252799">
        <ele>971.800000</ele>
        <time>2015-08-05T09:10:54Z</time>
        <speed>1.561000</speed>
      </trkpt>
      <trkpt lat="46.072667458" lon="7.211269311">
        <ele>972.200000</ele>
        <time>2015-08-05T09:10:55Z</time>
        <speed>1.588000</speed>
      </trkpt>
      <trkpt lat="46.072643821" lon="7.211299067">
        <ele>972.200000</ele>
        <time>2015-08-05T09:10:57Z</time>
        <speed>1.508000</speed>
      </trkpt>
      <trkpt lat="46.072543741" lon="7.211402081">
        <ele>972.200000</ele>
        <time>2015-08-05T09:11:04Z</time>
        <speed>1.613000</speed>
      </trkpt>
      <trkpt lat="46.072514656" lon="7.211423706">
        <ele>972.600000</ele>
        <time>2015-08-05T09:11:06Z</time>
        <speed>1.584000</speed>
      </trkpt>
      <trkpt lat="46.072503005" lon="7.211439045">
        <ele>973.000000</ele>
        <time>2015-08-05T09:11:07Z</time>
        <speed>1.518000</speed>
      </trkpt>
      <trkpt lat="46.072491438" lon="7.211452791">
        <ele>973.400000</ele>
        <time>2015-08-05T09:11:08Z</time>
        <speed>1.540000</speed>
      </trkpt>
      <trkpt lat="46.072477692" lon="7.211464945">
        <ele>973.800000</ele>
        <time>2015-08-05T09:11:09Z</time>
        <speed>1.540000</speed>
      </trkpt>
      <trkpt lat="46.072464281" lon="7.211475925">
        <ele>974.200000</ele>
        <time>2015-08-05T09:11:10Z</time>
        <speed>1.450000</speed>
      </trkpt>
      <trkpt lat="46.072449277" lon="7.211485732">
        <ele>974.200000</ele>
        <time>2015-08-05T09:11:11Z</time>
        <speed>1.534000</speed>
      </trkpt>
      <trkpt lat="46.072392196" lon="7.211562426">
        <ele>974.200000</ele>
        <time>2015-08-05T09:11:17Z</time>
        <speed>1.553000</speed>
      </trkpt>
      <trkpt lat="46.072380881" lon="7.211572149">
        <ele>974.600000</ele>
        <time>2015-08-05T09:11:18Z</time>
        <speed>1.503000</speed>
      </trkpt>
      <trkpt lat="46.072374343" lon="7.211583214">
        <ele>975.000000</ele>
        <time>2015-08-05T09:11:19Z</time>
        <speed>1.632000</speed>
      </trkpt>
      <trkpt lat="46.072366548" lon="7.211601402">
        <ele>975.400000</ele>
        <time>2015-08-05T09:11:20Z</time>
        <speed>1.578000</speed>
      </trkpt>
      <trkpt lat="46.072360094" lon="7.211618418">
        <ele>976.000000</ele>
        <time>2015-08-05T09:11:21Z</time>
        <speed>1.578000</speed>
      </trkpt>
      <trkpt lat="46.072351293" lon="7.211633589">
        <ele>976.400000</ele>
        <time>2015-08-05T09:11:22Z</time>
        <speed>1.500000</speed>
      </trkpt>
      <trkpt lat="46.072340983" lon="7.211638199">
        <ele>976.400000</ele>
        <time>2015-08-05T09:11:23Z</time>
        <speed>1.505000</speed>
      </trkpt>
      <trkpt lat="46.072303516" lon="7.211670721">
        <ele>976.800000</ele>
        <time>2015-08-05T09:11:27Z</time>
        <speed>1.461000</speed>
      </trkpt>
      <trkpt lat="46.072289267" lon="7.211672816">
        <ele>977.200000</ele>
        <time>2015-08-05T09:11:28Z</time>
        <speed>1.426000</speed>
      </trkpt>
      <trkpt lat="46.072278789" lon="7.211674744">
        <ele>977.600000</ele>
        <time>2015-08-05T09:11:29Z</time>
        <speed>1.514000</speed>
      </trkpt>
      <trkpt lat="46.072268899" lon="7.211674409">
        <ele>978.000000</ele>
        <time>2015-08-05T09:11:30Z</time>
        <speed>1.564000</speed>
      </trkpt>
      <trkpt lat="46.072261187" lon="7.211669463">
        <ele>978.400000</ele>
        <time>2015-08-05T09:11:31Z</time>
        <speed>1.564000</speed>
      </trkpt>
      <trkpt lat="46.072239143" lon="7.211629817">
        <ele>978.400000</ele>
        <time>2015-08-05T09:11:34Z</time>
        <speed>1.531000</speed>
      </trkpt>
      <trkpt lat="46.072257248" lon="7.211542058">
        <ele>978.400000</ele>
        <time>2015-08-05T09:11:39Z</time>
        <speed>1.568000</speed>
      </trkpt>
      <trkpt lat="46.072301504" lon="7.211410965">
        <ele>978.400000</ele>
        <time>2015-08-05T09:11:46Z</time>
        <speed>1.627000</speed>
      </trkpt>
      <trkpt lat="46.072358166" lon="7.211349861">
        <ele>978.800000</ele>
        <time>2015-08-05T09:11:51Z</time>
        <speed>1.745000</speed>
      </trkpt>
      <trkpt lat="46.072370655" lon="7.211339552">
        <ele>979.200000</ele>
        <time>2015-08-05T09:11:52Z</time>
        <speed>1.583000</speed>
      </trkpt>
      <trkpt lat="46.072380462" lon="7.211331337">
        <ele>979.600000</ele>
        <time>2015-08-05T09:11:53Z</time>
        <speed>1.583000</speed>
      </trkpt>
      <trkpt lat="46.072391107" lon="7.211315747">
        <ele>980.000000</ele>
        <time>2015-08-05T09:11:54Z</time>
        <speed>1.499000</speed>
      </trkpt>
      <trkpt lat="46.072401919" lon="7.211303342">
        <ele>980.600000</ele>
        <time>2015-08-05T09:11:55Z</time>
        <speed>1.499000</speed>
      </trkpt>
      <trkpt lat="46.072438045" lon="7.211250787">
        <ele>980.600000</ele>
        <time>2015-08-05T09:12:00Z</time>
        <speed>1.502000</speed>
      </trkpt>
      <trkpt lat="46.072470232" lon="7.211194712">
        <ele>981.000000</ele>
        <time>2015-08-05T09:12:04Z</time>
        <speed>1.537000</speed>
      </trkpt>
      <trkpt lat="46.072472076" lon="7.211177613">
        <ele>981.400000</ele>
        <time>2015-08-05T09:12:05Z</time>
        <speed>1.679000</speed>
      </trkpt>
      <trkpt lat="46.072479620" lon="7.211169902">
        <ele>981.800000</ele>
        <time>2015-08-05T09:12:06Z</time>
        <speed>1.679000</speed>
      </trkpt>
      <trkpt lat="46.072486744" lon="7.211154479">
        <ele>982.200000</ele>
        <time>2015-08-05T09:12:07Z</time>
        <speed>1.617000</speed>
      </trkpt>
      <trkpt lat="46.072494120" lon="7.211140817">
        <ele>982.600000</ele>
        <time>2015-08-05T09:12:08Z</time>
        <speed>1.683000</speed>
      </trkpt>
      <trkpt lat="46.072494037" lon="7.211119443">
        <ele>982.600000</ele>
        <time>2015-08-05T09:12:10Z</time>
        <speed>1.672000</speed>
      </trkpt>
      <trkpt lat="46.072502838" lon="7.211075270">
        <ele>982.600000</ele>
        <time>2015-08-05T09:12:12Z</time>
        <speed>1.710000</speed>
      </trkpt>
      <trkpt lat="46.072508873" lon="7.211024643">
        <ele>982.600000</ele>
        <time>2015-08-05T09:12:14Z</time>
        <speed>1.713000</speed>
      </trkpt>
      <trkpt lat="46.072533096" lon="7.210945015">
        <ele>982.600000</ele>
        <time>2015-08-05T09:12:18Z</time>
        <speed>1.556000</speed>
      </trkpt>
      <trkpt lat="46.072545753" lon="7.210895646">
        <ele>982.600000</ele>
        <time>2015-08-05T09:12:20Z</time>
        <speed>1.506000</speed>
      </trkpt>
      <trkpt lat="46.072545166" lon="7.210878463">
        <ele>982.600000</ele>
        <time>2015-08-05T09:12:21Z</time>
        <speed>1.506000</speed>
      </trkpt>
      <trkpt lat="46.072545669" lon="7.210864549">
        <ele>983.000000</ele>
        <time>2015-08-05T09:12:22Z</time>
        <speed>1.533000</speed>
      </trkpt>
      <trkpt lat="46.072548603" lon="7.210844852">
        <ele>983.400000</ele>
        <time>2015-08-05T09:12:23Z</time>
        <speed>1.505000</speed>
      </trkpt>
      <trkpt lat="46.072551285" lon="7.210822975">
        <ele>983.800000</ele>
        <time>2015-08-05T09:12:24Z</time>
        <speed>1.505000</speed>
      </trkpt>
      <trkpt lat="46.072556063" lon="7.210806546">
        <ele>984.400000</ele>
        <time>2015-08-05T09:12:25Z</time>
        <speed>1.531000</speed>
      </trkpt>
      <trkpt lat="46.072560924" lon="7.210790705">
        <ele>984.800000</ele>
        <time>2015-08-05T09:12:26Z</time>
        <speed>1.479000</speed>
      </trkpt>
      <trkpt lat="46.072569055" lon="7.210737899">
        <ele>984.800000</ele>
        <time>2015-08-05T09:12:29Z</time>
        <speed>1.518000</speed>
      </trkpt>
      <trkpt lat="46.072593194" lon="7.210651481">
        <ele>984.800000</ele>
        <time>2015-08-05T09:12:34Z</time>
        <speed>1.568000</speed>
      </trkpt>
      <trkpt lat="46.072608030" lon="7.210635723">
        <ele>984.800000</ele>
        <time>2015-08-05T09:12:35Z</time>
        <speed>1.640000</speed>
      </trkpt>
      <trkpt lat="46.072609455" lon="7.210628934">
        <ele>985.200000</ele>
        <time>2015-08-05T09:12:36Z</time>
        <speed>1.640000</speed>
      </trkpt>
      <trkpt lat="46.072613982" lon="7.210617367">
        <ele>985.600000</ele>
        <time>2015-08-05T09:12:37Z</time>
        <speed>1.678000</speed>
      </trkpt>
      <trkpt lat="46.072620352" lon="7.210621222">
        <ele>986.000000</ele>
        <time>2015-08-05T09:12:38Z</time>
        <speed>1.652000</speed>
      </trkpt>
      <trkpt lat="46.072627979" lon="7.210607979">
        <ele>986.400000</ele>
        <time>2015-08-05T09:12:39Z</time>
        <speed>1.540000</speed>
      </trkpt>
      <trkpt lat="46.072632589" lon="7.210590377">
        <ele>986.800000</ele>
        <time>2015-08-05T09:12:40Z</time>
        <speed>1.598000</speed>
      </trkpt>
      <trkpt lat="46.072645162" lon="7.210493734">
        <ele>986.800000</ele>
        <time>2015-08-05T09:12:44Z</time>
        <speed>1.631000</speed>
      </trkpt>
      <trkpt lat="46.072641390" lon="7.210412597">
        <ele>986.800000</ele>
        <time>2015-08-05T09:12:47Z</time>
        <speed>1.713000</speed>
      </trkpt>
      <trkpt lat="46.072639546" lon="7.210255855">
        <ele>987.200000</ele>
        <time>2015-08-05T09:12:52Z</time>
        <speed>1.626000</speed>
      </trkpt>
      <trkpt lat="46.072634266" lon="7.210234146">
        <ele>987.600000</ele>
        <time>2015-08-05T09:12:54Z</time>
        <speed>1.585000</speed>
      </trkpt>
      <trkpt lat="46.072632170" lon="7.210211767">
        <ele>988.000000</ele>
        <time>2015-08-05T09:12:55Z</time>
        <speed>1.585000</speed>
      </trkpt>
      <trkpt lat="46.072627812" lon="7.210187794">
        <ele>988.600000</ele>
        <time>2015-08-05T09:12:56Z</time>
        <speed>1.580000</speed>
      </trkpt>
      <trkpt lat="46.072629488" lon="7.210162062">
        <ele>989.000000</ele>
        <time>2015-08-05T09:12:57Z</time>
        <speed>1.636000</speed>
      </trkpt>
      <trkpt lat="46.072627812" lon="7.210070783">
        <ele>989.000000</ele>
        <time>2015-08-05T09:13:01Z</time>
        <speed>1.636000</speed>
      </trkpt>
      <trkpt lat="46.072605851" lon="7.209948239">
        <ele>989.000000</ele>
        <time>2015-08-05T09:13:06Z</time>
        <speed>2.113000</speed>
      </trkpt>
      <trkpt lat="46.072600990" lon="7.209872802">
        <ele>989.400000</ele>
        <time>2015-08-05T09:13:09Z</time>
        <speed>2.054000</speed>
      </trkpt>
      <trkpt lat="46.072592775" lon="7.209848160">
        <ele>989.800000</ele>
        <time>2015-08-05T09:13:10Z</time>
        <speed>2.088000</speed>
      </trkpt>
      <trkpt lat="46.072588668" lon="7.209826283">
        <ele>990.200000</ele>
        <time>2015-08-05T09:13:11Z</time>
        <speed>2.074000</speed>
      </trkpt>
      <trkpt lat="46.072583723" lon="7.209805244">
        <ele>990.800000</ele>
        <time>2015-08-05T09:13:12Z</time>
        <speed>2.076000</speed>
      </trkpt>
      <trkpt lat="46.072578945" lon="7.209782948">
        <ele>991.200000</ele>
        <time>2015-08-05T09:13:13Z</time>
        <speed>2.006000</speed>
      </trkpt>
      <trkpt lat="46.072574419" lon="7.209661075">
        <ele>991.200000</ele>
        <time>2015-08-05T09:13:19Z</time>
        <speed>2.090000</speed>
      </trkpt>
      <trkpt lat="46.072584896" lon="7.209647832">
        <ele>991.200000</ele>
        <time>2015-08-05T09:13:20Z</time>
        <speed>2.102000</speed>
      </trkpt>
      <trkpt lat="46.072584561" lon="7.209584297">
        <ele>991.200000</ele>
        <time>2015-08-05T09:13:23Z</time>
        <speed>2.088000</speed>
      </trkpt>
      <trkpt lat="46.072588417" lon="7.209561331">
        <ele>991.600000</ele>
        <time>2015-08-05T09:13:24Z</time>
        <speed>2.027000</speed>
      </trkpt>
      <trkpt lat="46.072591267" lon="7.209528893">
        <ele>992.000000</ele>
        <time>2015-08-05T09:13:25Z</time>
        <speed>2.084000</speed>
      </trkpt>
      <trkpt lat="46.072593362" lon="7.209505424">
        <ele>992.400000</ele>
        <time>2015-08-05T09:13:26Z</time>
        <speed>2.058000</speed>
      </trkpt>
      <trkpt lat="46.072599062" lon="7.209484972">
        <ele>992.800000</ele>
        <time>2015-08-05T09:13:27Z</time>
        <speed>2.080000</speed>
      </trkpt>
      <trkpt lat="46.072604510" lon="7.209457563">
        <ele>993.200000</ele>
        <time>2015-08-05T09:13:28Z</time>
        <speed>2.034000</speed>
      </trkpt>
      <trkpt lat="46.072615826" lon="7.209423532">
        <ele>993.200000</ele>
        <time>2015-08-05T09:13:29Z</time>
        <speed>2.131000</speed>
      </trkpt>
      <trkpt lat="46.072637535" lon="7.209237538">
        <ele>993.200000</ele>
        <time>2015-08-05T09:13:36Z</time>
        <speed>1.813000</speed>
      </trkpt>
      <trkpt lat="46.072640804" lon="7.209213566">
        <ele>993.800000</ele>
        <time>2015-08-05T09:13:37Z</time>
        <speed>1.772000</speed>
      </trkpt>
      <trkpt lat="46.072641642" lon="7.209188839">
        <ele>994.200000</ele>
        <time>2015-08-05T09:13:38Z</time>
        <speed>1.755000</speed>
      </trkpt>
      <trkpt lat="46.072647090" lon="7.209159335">
        <ele>994.600000</ele>
        <time>2015-08-05T09:13:39Z</time>
        <speed>1.780000</speed>
      </trkpt>
      <trkpt lat="46.072653712" lon="7.209134860">
        <ele>995.000000</ele>
        <time>2015-08-05T09:13:40Z</time>
        <speed>1.884000</speed>
      </trkpt>
      <trkpt lat="46.072660250" lon="7.209120443">
        <ele>995.400000</ele>
        <time>2015-08-05T09:13:41Z</time>
        <speed>1.884000</speed>
      </trkpt>
      <trkpt lat="46.072664189" lon="7.209094459">
        <ele>995.400000</ele>
        <time>2015-08-05T09:13:42Z</time>
        <speed>1.844000</speed>
      </trkpt>
      <trkpt lat="46.072664357" lon="7.209075767">
        <ele>995.400000</ele>
        <time>2015-08-05T09:13:43Z</time>
        <speed>1.886000</speed>
      </trkpt>
      <trkpt lat="46.072684222" lon="7.208950542">
        <ele>995.400000</ele>
        <time>2015-08-05T09:13:49Z</time>
        <speed>1.842000</speed>
      </trkpt>
      <trkpt lat="46.072691514" lon="7.208872338">
        <ele>995.800000</ele>
        <time>2015-08-05T09:13:53Z</time>
        <speed>1.822000</speed>
      </trkpt>
      <trkpt lat="46.072699477" lon="7.208853144">
        <ele>996.200000</ele>
        <time>2015-08-05T09:13:54Z</time>
        <speed>1.850000</speed>
      </trkpt>
      <trkpt lat="46.072704087" lon="7.208824394">
        <ele>996.600000</ele>
        <time>2015-08-05T09:13:55Z</time>
        <speed>1.870000</speed>
      </trkpt>
      <trkpt lat="46.072707188" lon="7.208804613">
        <ele>997.200000</ele>
        <time>2015-08-05T09:13:56Z</time>
        <speed>1.836000</speed>
      </trkpt>
      <trkpt lat="46.072712385" lon="7.208784580">
        <ele>997.600000</ele>
        <time>2015-08-05T09:13:57Z</time>
        <speed>1.889000</speed>
      </trkpt>
      <trkpt lat="46.072746499" lon="7.208689194">
        <ele>997.600000</ele>
        <time>2015-08-05T09:14:02Z</time>
        <speed>1.798000</speed>
      </trkpt>
      <trkpt lat="46.072802658" lon="7.208587102">
        <ele>997.600000</ele>
        <time>2015-08-05T09:14:08Z</time>
        <speed>1.784000</speed>
      </trkpt>
      <trkpt lat="46.072830319" lon="7.208528513">
        <ele>998.000000</ele>
        <time>2015-08-05T09:14:11Z</time>
        <speed>1.893000</speed>
      </trkpt>
      <trkpt lat="46.072834761" lon="7.208501691">
        <ele>998.400000</ele>
        <time>2015-08-05T09:14:12Z</time>
        <speed>1.844000</speed>
      </trkpt>
      <trkpt lat="46.072836605" lon="7.208476796">
        <ele>998.800000</ele>
        <time>2015-08-05T09:14:13Z</time>
        <speed>1.786000</speed>
      </trkpt>
      <trkpt lat="46.072845406" lon="7.208454752">
        <ele>999.200000</ele>
        <time>2015-08-05T09:14:14Z</time>
        <speed>1.786000</speed>
      </trkpt>
      <trkpt lat="46.072851357" lon="7.208439581">
        <ele>999.800000</ele>
        <time>2015-08-05T09:14:15Z</time>
        <speed>1.807000</speed>
      </trkpt>
      <trkpt lat="46.072853872" lon="7.208359366">
        <ele>999.800000</ele>
        <time>2015-08-05T09:14:19Z</time>
        <speed>1.807000</speed>
      </trkpt>
      <trkpt lat="46.072852111" lon="7.208277726">
        <ele>999.800000</ele>
        <time>2015-08-05T09:14:24Z</time>
        <speed>1.866000</speed>
      </trkpt>
      <trkpt lat="46.072854626" lon="7.208262052">
        <ele>1000.200000</ele>
        <time>2015-08-05T09:14:25Z</time>
        <speed>1.799000</speed>
      </trkpt>
      <trkpt lat="46.072856219" lon="7.208248138">
        <ele>1000.600000</ele>
        <time>2015-08-05T09:14:26Z</time>
        <speed>1.808000</speed>
      </trkpt>
      <trkpt lat="46.072860493" lon="7.208235230">
        <ele>1001.000000</ele>
        <time>2015-08-05T09:14:27Z</time>
        <speed>1.768000</speed>
      </trkpt>
      <trkpt lat="46.072862002" lon="7.208216790">
        <ele>1001.400000</ele>
        <time>2015-08-05T09:14:28Z</time>
        <speed>1.745000</speed>
      </trkpt>
      <trkpt lat="46.072861332" lon="7.208211342">
        <ele>1002.000000</ele>
        <time>2015-08-05T09:14:29Z</time>
        <speed>1.745000</speed>
      </trkpt>
      <trkpt lat="46.072868289" lon="7.208177143">
        <ele>1002.000000</ele>
        <time>2015-08-05T09:14:31Z</time>
        <speed>1.683000</speed>
      </trkpt>
      <trkpt lat="46.072871306" lon="7.208154345">
        <ele>1002.000000</ele>
        <time>2015-08-05T09:14:32Z</time>
        <speed>1.742000</speed>
      </trkpt>
      <trkpt lat="46.072898212" lon="7.208028616">
        <ele>1002.000000</ele>
        <time>2015-08-05T09:14:38Z</time>
        <speed>1.721000</speed>
      </trkpt>
      <trkpt lat="46.072916568" lon="7.207969188">
        <ele>1002.400000</ele>
        <time>2015-08-05T09:14:41Z</time>
        <speed>1.807000</speed>
      </trkpt>
      <trkpt lat="46.072922100" lon="7.207962231">
        <ele>1002.800000</ele>
        <time>2015-08-05T09:14:42Z</time>
        <speed>1.827000</speed>
      </trkpt>
      <trkpt lat="46.072930566" lon="7.207940355">
        <ele>1003.200000</ele>
        <time>2015-08-05T09:14:43Z</time>
        <speed>1.838000</speed>
      </trkpt>
      <trkpt lat="46.072935847" lon="7.207924178">
        <ele>1003.600000</ele>
        <time>2015-08-05T09:14:44Z</time>
        <speed>1.798000</speed>
      </trkpt>
      <trkpt lat="46.072941379" lon="7.207903307">
        <ele>1004.000000</ele>
        <time>2015-08-05T09:14:45Z</time>
        <speed>1.820000</speed>
      </trkpt>
      <trkpt lat="46.072945737" lon="7.207724185">
        <ele>1004.000000</ele>
        <time>2015-08-05T09:14:51Z</time>
        <speed>1.795000</speed>
      </trkpt>
      <trkpt lat="46.072944815" lon="7.207681605">
        <ele>1004.000000</ele>
        <time>2015-08-05T09:14:52Z</time>
        <speed>1.777000</speed>
      </trkpt>
      <trkpt lat="46.072939870" lon="7.207614550">
        <ele>1004.000000</ele>
        <time>2015-08-05T09:14:54Z</time>
        <speed>1.878000</speed>
      </trkpt>
      <trkpt lat="46.072943809" lon="7.207543974">
        <ele>1004.000000</ele>
        <time>2015-08-05T09:14:57Z</time>
        <speed>1.948000</speed>
      </trkpt>
      <trkpt lat="46.072956969" lon="7.207522098">
        <ele>1004.400000</ele>
        <time>2015-08-05T09:14:58Z</time>
        <speed>1.849000</speed>
      </trkpt>
      <trkpt lat="46.072978846" lon="7.207512291">
        <ele>1004.800000</ele>
        <time>2015-08-05T09:14:59Z</time>
        <speed>1.878000</speed>
      </trkpt>
      <trkpt lat="46.072998124" lon="7.207504412">
        <ele>1005.200000</ele>
        <time>2015-08-05T09:15:00Z</time>
        <speed>1.825000</speed>
      </trkpt>
      <trkpt lat="46.073010027" lon="7.207501730">
        <ele>1005.600000</ele>
        <time>2015-08-05T09:15:01Z</time>
        <speed>1.774000</speed>
      </trkpt>
      <trkpt lat="46.073026455" lon="7.207502484">
        <ele>1006.000000</ele>
        <time>2015-08-05T09:15:02Z</time>
        <speed>1.804000</speed>
      </trkpt>
      <trkpt lat="46.073046153" lon="7.207497036">
        <ele>1006.000000</ele>
        <time>2015-08-05T09:15:03Z</time>
        <speed>1.687000</speed>
      </trkpt>
      <trkpt lat="46.073140700" lon="7.207487145">
        <ele>1006.600000</ele>
        <time>2015-08-05T09:15:09Z</time>
        <speed>1.746000</speed>
      </trkpt>
      <trkpt lat="46.073155872" lon="7.207481194">
        <ele>1007.000000</ele>
        <time>2015-08-05T09:15:10Z</time>
        <speed>1.746000</speed>
      </trkpt>
      <trkpt lat="46.073173809" lon="7.207476835">
        <ele>1007.400000</ele>
        <time>2015-08-05T09:15:11Z</time>
        <speed>1.701000</speed>
      </trkpt>
      <trkpt lat="46.073184873" lon="7.207469543">
        <ele>1007.800000</ele>
        <time>2015-08-05T09:15:12Z</time>
        <speed>1.736000</speed>
      </trkpt>
      <trkpt lat="46.073199122" lon="7.207456216">
        <ele>1008.200000</ele>
        <time>2015-08-05T09:15:13Z</time>
        <speed>1.783000</speed>
      </trkpt>
      <trkpt lat="46.073230806" lon="7.207442134">
        <ele>1008.200000</ele>
        <time>2015-08-05T09:15:15Z</time>
        <speed>1.738000</speed>
      </trkpt>
      <trkpt lat="46.073344884" lon="7.207354124">
        <ele>1008.800000</ele>
        <time>2015-08-05T09:15:23Z</time>
        <speed>1.759000</speed>
      </trkpt>
      <trkpt lat="46.073356451" lon="7.207349682">
        <ele>1009.200000</ele>
        <time>2015-08-05T09:15:24Z</time>
        <speed>1.772000</speed>
      </trkpt>
      <trkpt lat="46.073367682" lon="7.207341551">
        <ele>1009.600000</ele>
        <time>2015-08-05T09:15:25Z</time>
        <speed>1.738000</speed>
      </trkpt>
      <trkpt lat="46.073380926" lon="7.207333840">
        <ele>1010.000000</ele>
        <time>2015-08-05T09:15:26Z</time>
        <speed>1.751000</speed>
      </trkpt>
      <trkpt lat="46.073392996" lon="7.207322860">
        <ele>1010.600000</ele>
        <time>2015-08-05T09:15:27Z</time>
        <speed>1.721000</speed>
      </trkpt>
      <trkpt lat="46.073437671" lon="7.207304000">
        <ele>1010.600000</ele>
        <time>2015-08-05T09:15:30Z</time>
        <speed>1.796000</speed>
      </trkpt>
      <trkpt lat="46.073511432" lon="7.207266617">
        <ele>1011.000000</ele>
        <time>2015-08-05T09:15:35Z</time>
        <speed>1.695000</speed>
      </trkpt>
      <trkpt lat="46.073524256" lon="7.207263348">
        <ele>1011.400000</ele>
        <time>2015-08-05T09:15:36Z</time>
        <speed>1.668000</speed>
      </trkpt>
      <trkpt lat="46.073537500" lon="7.207262510">
        <ele>1011.800000</ele>
        <time>2015-08-05T09:15:37Z</time>
        <speed>1.661000</speed>
      </trkpt>
      <trkpt lat="46.073551581" lon="7.207259073">
        <ele>1012.200000</ele>
        <time>2015-08-05T09:15:38Z</time>
        <speed>1.703000</speed>
      </trkpt>
      <trkpt lat="46.073566501" lon="7.207246417">
        <ele>1012.600000</ele>
        <time>2015-08-05T09:15:39Z</time>
        <speed>1.703000</speed>
      </trkpt>
      <trkpt lat="46.073609333" lon="7.207222528">
        <ele>1012.600000</ele>
        <time>2015-08-05T09:15:42Z</time>
        <speed>1.705000</speed>
      </trkpt>
      <trkpt lat="46.073675633" lon="7.207138039">
        <ele>1013.000000</ele>
        <time>2015-08-05T09:15:48Z</time>
        <speed>1.759000</speed>
      </trkpt>
      <trkpt lat="46.073685943" lon="7.207127478">
        <ele>1013.400000</ele>
        <time>2015-08-05T09:15:49Z</time>
        <speed>1.732000</speed>
      </trkpt>
      <trkpt lat="46.073697594" lon="7.207113145">
        <ele>1013.800000</ele>
        <time>2015-08-05T09:15:50Z</time>
        <speed>1.668000</speed>
      </trkpt>
      <trkpt lat="46.073708407" lon="7.207091352">
        <ele>1014.200000</ele>
        <time>2015-08-05T09:15:51Z</time>
        <speed>1.668000</speed>
      </trkpt>
      <trkpt lat="46.073721985" lon="7.207080287">
        <ele>1014.600000</ele>
        <time>2015-08-05T09:15:52Z</time>
        <speed>1.681000</speed>
      </trkpt>
      <trkpt lat="46.073749897" lon="7.207039468">
        <ele>1014.600000</ele>
        <time>2015-08-05T09:15:55Z</time>
        <speed>1.698000</speed>
      </trkpt>
      <trkpt lat="46.073832291" lon="7.206932179">
        <ele>1015.200000</ele>
        <time>2015-08-05T09:16:03Z</time>
        <speed>1.541000</speed>
      </trkpt>
      <trkpt lat="46.073847295" lon="7.206924133">
        <ele>1015.600000</ele>
        <time>2015-08-05T09:16:04Z</time>
        <speed>1.541000</speed>
      </trkpt>
      <trkpt lat="46.073854000" lon="7.206911560">
        <ele>1016.000000</ele>
        <time>2015-08-05T09:16:05Z</time>
        <speed>1.593000</speed>
      </trkpt>
      <trkpt lat="46.073860454" lon="7.206900328">
        <ele>1016.400000</ele>
        <time>2015-08-05T09:16:06Z</time>
        <speed>1.601000</speed>
      </trkpt>
      <trkpt lat="46.073868752" lon="7.206885324">
        <ele>1016.800000</ele>
        <time>2015-08-05T09:16:07Z</time>
        <speed>1.574000</speed>
      </trkpt>
      <trkpt lat="46.073879900" lon="7.206855904">
        <ele>1016.800000</ele>
        <time>2015-08-05T09:16:09Z</time>
        <speed>1.469000</speed>
      </trkpt>
      <trkpt lat="46.073886354" lon="7.206803433">
        <ele>1016.800000</ele>
        <time>2015-08-05T09:16:12Z</time>
        <speed>1.724000</speed>
      </trkpt>
      <trkpt lat="46.073885432" lon="7.206764206">
        <ele>1016.800000</ele>
        <time>2015-08-05T09:16:14Z</time>
        <speed>1.572000</speed>
      </trkpt>
      <trkpt lat="46.073885432" lon="7.206740317">
        <ele>1017.200000</ele>
        <time>2015-08-05T09:16:15Z</time>
        <speed>1.515000</speed>
      </trkpt>
      <trkpt lat="46.073883924" lon="7.206721626">
        <ele>1017.600000</ele>
        <time>2015-08-05T09:16:16Z</time>
        <speed>1.515000</speed>
      </trkpt>
      <trkpt lat="46.073881074" lon="7.206703018">
        <ele>1018.000000</ele>
        <time>2015-08-05T09:16:17Z</time>
        <speed>1.463000</speed>
      </trkpt>
      <trkpt lat="46.073874285" lon="7.206685919">
        <ele>1018.400000</ele>
        <time>2015-08-05T09:16:18Z</time>
        <speed>1.551000</speed>
      </trkpt>
      <trkpt lat="46.073872189" lon="7.206668233">
        <ele>1018.800000</ele>
        <time>2015-08-05T09:16:19Z</time>
        <speed>1.551000</speed>
      </trkpt>
      <trkpt lat="46.073865400" lon="7.206651888">
        <ele>1018.800000</ele>
        <time>2015-08-05T09:16:20Z</time>
        <speed>1.470000</speed>
      </trkpt>
      <trkpt lat="46.073849139" lon="7.206545187">
        <ele>1018.800000</ele>
        <time>2015-08-05T09:16:26Z</time>
        <speed>1.555000</speed>
      </trkpt>
      <trkpt lat="46.073845954" lon="7.206525992">
        <ele>1019.400000</ele>
        <time>2015-08-05T09:16:27Z</time>
        <speed>1.555000</speed>
      </trkpt>
      <trkpt lat="46.073849139" lon="7.206508055">
        <ele>1019.800000</ele>
        <time>2015-08-05T09:16:28Z</time>
        <speed>1.462000</speed>
      </trkpt>
      <trkpt lat="46.073854922" lon="7.206489866">
        <ele>1020.200000</ele>
        <time>2015-08-05T09:16:29Z</time>
        <speed>1.591000</speed>
      </trkpt>
      <trkpt lat="46.073861879" lon="7.206476204">
        <ele>1020.600000</ele>
        <time>2015-08-05T09:16:30Z</time>
        <speed>1.591000</speed>
      </trkpt>
      <trkpt lat="46.073868752" lon="7.206463296">
        <ele>1021.000000</ele>
        <time>2015-08-05T09:16:31Z</time>
        <speed>1.529000</speed>
      </trkpt>
      <trkpt lat="46.073878978" lon="7.206435132">
        <ele>1021.000000</ele>
        <time>2015-08-05T09:16:33Z</time>
        <speed>1.498000</speed>
      </trkpt>
      <trkpt lat="46.073916529" lon="7.206375453">
        <ele>1021.400000</ele>
        <time>2015-08-05T09:16:38Z</time>
        <speed>1.457000</speed>
      </trkpt>
      <trkpt lat="46.073923570" lon="7.206366736">
        <ele>1021.800000</ele>
        <time>2015-08-05T09:16:39Z</time>
        <speed>1.407000</speed>
      </trkpt>
      <trkpt lat="46.073932706" lon="7.206359192">
        <ele>1022.200000</ele>
        <time>2015-08-05T09:16:40Z</time>
        <speed>1.419000</speed>
      </trkpt>
      <trkpt lat="46.073942262" lon="7.206352738">
        <ele>1022.600000</ele>
        <time>2015-08-05T09:16:41Z</time>
        <speed>1.419000</speed>
      </trkpt>
      <trkpt lat="46.073955421" lon="7.206342009">
        <ele>1023.000000</ele>
        <time>2015-08-05T09:16:42Z</time>
        <speed>1.420000</speed>
      </trkpt>
      <trkpt lat="46.073992218" lon="7.206287779">
        <ele>1023.000000</ele>
        <time>2015-08-05T09:16:47Z</time>
        <speed>1.444000</speed>
      </trkpt>
      <trkpt lat="46.074001606" lon="7.206275457">
        <ele>1023.600000</ele>
        <time>2015-08-05T09:16:48Z</time>
        <speed>1.444000</speed>
      </trkpt>
      <trkpt lat="46.074015268" lon="7.206263303">
        <ele>1024.000000</ele>
        <time>2015-08-05T09:16:49Z</time>
        <speed>1.412000</speed>
      </trkpt>
      <trkpt lat="46.074024824" lon="7.206244779">
        <ele>1024.400000</ele>
        <time>2015-08-05T09:16:50Z</time>
        <speed>1.447000</speed>
      </trkpt>
      <trkpt lat="46.074032786" lon="7.206236565">
        <ele>1024.800000</ele>
        <time>2015-08-05T09:16:51Z</time>
        <speed>1.447000</speed>
      </trkpt>
      <trkpt lat="46.074040749" lon="7.206226423">
        <ele>1025.200000</ele>
        <time>2015-08-05T09:16:52Z</time>
        <speed>1.487000</speed>
      </trkpt>
      <trkpt lat="46.074050640" lon="7.206206809">
        <ele>1025.200000</ele>
        <time>2015-08-05T09:16:53Z</time>
        <speed>1.482000</speed>
      </trkpt>
      <trkpt lat="46.074118952" lon="7.206104718">
        <ele>1025.200000</ele>
        <time>2015-08-05T09:17:00Z</time>
        <speed>1.527000</speed>
      </trkpt>
      <trkpt lat="46.074141835" lon="7.206078650">
        <ele>1025.600000</ele>
        <time>2015-08-05T09:17:03Z</time>
        <speed>1.567000</speed>
      </trkpt>
      <trkpt lat="46.074151474" lon="7.206063563">
        <ele>1026.000000</ele>
        <time>2015-08-05T09:17:04Z</time>
        <speed>1.517000</speed>
      </trkpt>
      <trkpt lat="46.074160778" lon="7.206045709">
        <ele>1026.400000</ele>
        <time>2015-08-05T09:17:05Z</time>
        <speed>1.517000</speed>
      </trkpt>
      <trkpt lat="46.074168992" lon="7.206029197">
        <ele>1026.800000</ele>
        <time>2015-08-05T09:17:06Z</time>
        <speed>1.486000</speed>
      </trkpt>
      <trkpt lat="46.074181900" lon="7.206021821">
        <ele>1027.400000</ele>
        <time>2015-08-05T09:17:07Z</time>
        <speed>1.547000</speed>
      </trkpt>
      <trkpt lat="46.074221212" lon="7.205967338">
        <ele>1027.400000</ele>
        <time>2015-08-05T09:17:11Z</time>
        <speed>1.621000</speed>
      </trkpt>
      <trkpt lat="46.074241160" lon="7.205916041">
        <ele>1027.400000</ele>
        <time>2015-08-05T09:17:14Z</time>
        <speed>1.686000</speed>
      </trkpt>
      <trkpt lat="46.074246106" lon="7.205898020">
        <ele>1027.800000</ele>
        <time>2015-08-05T09:17:15Z</time>
        <speed>1.656000</speed>
      </trkpt>
      <trkpt lat="46.074239484" lon="7.205880586">
        <ele>1028.200000</ele>
        <time>2015-08-05T09:17:16Z</time>
        <speed>1.610000</speed>
      </trkpt>
      <trkpt lat="46.074233868" lon="7.205859715">
        <ele>1028.600000</ele>
        <time>2015-08-05T09:17:17Z</time>
        <speed>1.610000</speed>
      </trkpt>
      <trkpt lat="46.074227498" lon="7.205840185">
        <ele>1029.000000</ele>
        <time>2015-08-05T09:17:18Z</time>
        <speed>1.510000</speed>
      </trkpt>
      <trkpt lat="46.074217691" lon="7.205833982">
        <ele>1029.400000</ele>
        <time>2015-08-05T09:17:19Z</time>
        <speed>1.422000</speed>
      </trkpt>
      <trkpt lat="46.074204532" lon="7.205824008">
        <ele>1029.400000</ele>
        <time>2015-08-05T09:17:20Z</time>
        <speed>1.422000</speed>
      </trkpt>
      <trkpt lat="46.074183744" lon="7.205822248">
        <ele>1029.400000</ele>
        <time>2015-08-05T09:17:22Z</time>
        <speed>1.436000</speed>
      </trkpt>
      <trkpt lat="46.074161532" lon="7.205828199">
        <ele>1029.800000</ele>
        <time>2015-08-05T09:17:24Z</time>
        <speed>1.404000</speed>
      </trkpt>
      <trkpt lat="46.074150636" lon="7.205834569">
        <ele>1030.200000</ele>
        <time>2015-08-05T09:17:25Z</time>
        <speed>1.409000</speed>
      </trkpt>
      <trkpt lat="46.074140410" lon="7.205845466">
        <ele>1030.600000</ele>
        <time>2015-08-05T09:17:26Z</time>
        <speed>1.461000</speed>
      </trkpt>
      <trkpt lat="46.074134040" lon="7.205849573">
        <ele>1031.000000</ele>
        <time>2015-08-05T09:17:27Z</time>
        <speed>1.461000</speed>
      </trkpt>
      <trkpt lat="46.074131358" lon="7.205869689">
        <ele>1031.400000</ele>
        <time>2015-08-05T09:17:28Z</time>
        <speed>1.360000</speed>
      </trkpt>
      <trkpt lat="46.074124149" lon="7.205884525">
        <ele>1031.400000</ele>
        <time>2015-08-05T09:17:29Z</time>
        <speed>1.360000</speed>
      </trkpt>
      <trkpt lat="46.074110235" lon="7.205890393">
        <ele>1031.400000</ele>
        <time>2015-08-05T09:17:30Z</time>
        <speed>1.302000</speed>
      </trkpt>
      <trkpt lat="46.074041923" lon="7.205940432">
        <ele>1031.800000</ele>
        <time>2015-08-05T09:17:36Z</time>
        <speed>1.420000</speed>
      </trkpt>
      <trkpt lat="46.074030439" lon="7.205948814">
        <ele>1032.200000</ele>
        <time>2015-08-05T09:17:37Z</time>
        <speed>1.443000</speed>
      </trkpt>
      <trkpt lat="46.074020046" lon="7.205953005">
        <ele>1032.600000</ele>
        <time>2015-08-05T09:17:38Z</time>
        <speed>1.469000</speed>
      </trkpt>
      <trkpt lat="46.074007305" lon="7.205962477">
        <ele>1033.000000</ele>
        <time>2015-08-05T09:17:39Z</time>
        <speed>1.458000</speed>
      </trkpt>
      <trkpt lat="46.073996409" lon="7.205968596">
        <ele>1033.400000</ele>
        <time>2015-08-05T09:17:40Z</time>
        <speed>1.458000</speed>
      </trkpt>
      <trkpt lat="46.073949973" lon="7.205997094">
        <ele>1033.400000</ele>
        <time>2015-08-05T09:17:44Z</time>
        <speed>1.475000</speed>
      </trkpt>
      <trkpt lat="46.073893479" lon="7.206021988">
        <ele>1033.800000</ele>
        <time>2015-08-05T09:17:49Z</time>
        <speed>1.490000</speed>
      </trkpt>
      <trkpt lat="46.073881996" lon="7.206027185">
        <ele>1034.200000</ele>
        <time>2015-08-05T09:17:50Z</time>
        <speed>1.481000</speed>
      </trkpt>
      <trkpt lat="46.073866908" lon="7.206028862">
        <ele>1034.600000</ele>
        <time>2015-08-05T09:17:51Z</time>
        <speed>1.463000</speed>
      </trkpt>
      <trkpt lat="46.073855258" lon="7.206030454">
        <ele>1035.200000</ele>
        <time>2015-08-05T09:17:52Z</time>
        <speed>1.530000</speed>
      </trkpt>
      <trkpt lat="46.073842014" lon="7.206026179">
        <ele>1035.600000</ele>
        <time>2015-08-05T09:17:53Z</time>
        <speed>1.530000</speed>
      </trkpt>
      <trkpt lat="46.073784263" lon="7.206017295">
        <ele>1035.600000</ele>
        <time>2015-08-05T09:17:58Z</time>
        <speed>1.582000</speed>
      </trkpt>
      <trkpt lat="46.073741934" lon="7.206028778">
        <ele>1035.600000</ele>
        <time>2015-08-05T09:18:03Z</time>
        <speed>1.641000</speed>
      </trkpt>
      <trkpt lat="46.073740761" lon="7.206030286">
        <ele>1035.600000</ele>
        <time>2015-08-05T09:18:04Z</time>
        <speed>1.641000</speed>
      </trkpt>
      <trkpt lat="46.073740258" lon="7.206028275">
        <ele>1035.600000</ele>
        <time>2015-08-05T09:18:15Z</time>
        <speed>0.000000</speed>
      </trkpt>
      <trkpt lat="46.073712011" lon="7.206044871">
        <ele>1036.000000</ele>
        <time>2015-08-05T09:18:23Z</time>
        <speed>0.000000</speed>
      </trkpt>
      <trkpt lat="46.073685273" lon="7.206041854">
        <ele>1036.400000</ele>
        <time>2015-08-05T09:18:24Z</time>
        <speed>1.294000</speed>
      </trkpt>
      <trkpt lat="46.073658702" lon="7.206042776">
        <ele>1036.800000</ele>
        <time>2015-08-05T09:18:25Z</time>
        <speed>1.633000</speed>
      </trkpt>
      <trkpt lat="46.073641938" lon="7.206052079">
        <ele>1037.200000</ele>
        <time>2015-08-05T09:18:26Z</time>
        <speed>1.598000</speed>
      </trkpt>
      <trkpt lat="46.073627018" lon="7.206058282">
        <ele>1037.600000</ele>
        <time>2015-08-05T09:18:27Z</time>
        <speed>1.598000</speed>
      </trkpt>
      <trkpt lat="46.073567423" lon="7.206070939">
        <ele>1037.600000</ele>
        <time>2015-08-05T09:18:32Z</time>
        <speed>1.499000</speed>
      </trkpt>
      <trkpt lat="46.073543451" lon="7.206081668">
        <ele>1037.600000</ele>
        <time>2015-08-05T09:18:34Z</time>
        <speed>1.541000</speed>
      </trkpt>
      <trkpt lat="46.073486454" lon="7.206120643">
        <ele>1038.400000</ele>
        <time>2015-08-05T09:18:38Z</time>
        <speed>1.507000</speed>
      </trkpt>
      <trkpt lat="46.073473630" lon="7.206128858">
        <ele>1038.800000</ele>
        <time>2015-08-05T09:18:39Z</time>
        <speed>1.507000</speed>
      </trkpt>
      <trkpt lat="46.073465248" lon="7.206137910">
        <ele>1039.200000</ele>
        <time>2015-08-05T09:18:40Z</time>
        <speed>1.489000</speed>
      </trkpt>
      <trkpt lat="46.073455525" lon="7.206151489">
        <ele>1039.600000</ele>
        <time>2015-08-05T09:18:41Z</time>
        <speed>1.550000</speed>
      </trkpt>
      <trkpt lat="46.073378327" lon="7.206225417">
        <ele>1039.600000</ele>
        <time>2015-08-05T09:18:48Z</time>
        <speed>1.445000</speed>
      </trkpt>
      <trkpt lat="46.073365000" lon="7.206230949">
        <ele>1040.000000</ele>
        <time>2015-08-05T09:18:49Z</time>
        <speed>1.445000</speed>
      </trkpt>
      <trkpt lat="46.073356115" lon="7.206237487">
        <ele>1040.400000</ele>
        <time>2015-08-05T09:18:50Z</time>
        <speed>1.468000</speed>
      </trkpt>
      <trkpt lat="46.073347901" lon="7.206247210">
        <ele>1040.800000</ele>
        <time>2015-08-05T09:18:51Z</time>
        <speed>1.468000</speed>
      </trkpt>
      <trkpt lat="46.073339184" lon="7.206264058">
        <ele>1041.200000</ele>
        <time>2015-08-05T09:18:52Z</time>
        <speed>1.468000</speed>
      </trkpt>
      <trkpt lat="46.073330467" lon="7.206280905">
        <ele>1041.600000</ele>
        <time>2015-08-05T09:18:53Z</time>
        <speed>1.425000</speed>
      </trkpt>
      <trkpt lat="46.073317559" lon="7.206289287">
        <ele>1041.600000</ele>
        <time>2015-08-05T09:18:54Z</time>
        <speed>1.469000</speed>
      </trkpt>
      <trkpt lat="46.073277744" lon="7.206321893">
        <ele>1041.600000</ele>
        <time>2015-08-05T09:18:57Z</time>
        <speed>1.530000</speed>
      </trkpt>
      <trkpt lat="46.073237260" lon="7.206344775">
        <ele>1041.600000</ele>
        <time>2015-08-05T09:19:00Z</time>
        <speed>1.614000</speed>
      </trkpt>
      <trkpt lat="46.073189986" lon="7.206355421">
        <ele>1042.000000</ele>
        <time>2015-08-05T09:19:03Z</time>
        <speed>1.694000</speed>
      </trkpt>
      <trkpt lat="46.073171797" lon="7.206357516">
        <ele>1042.400000</ele>
        <time>2015-08-05T09:19:04Z</time>
        <speed>1.783000</speed>
      </trkpt>
      <trkpt lat="46.073157045" lon="7.206355672">
        <ele>1042.800000</ele>
        <time>2015-08-05T09:19:05Z</time>
        <speed>1.888000</speed>
      </trkpt>
      <trkpt lat="46.073138605" lon="7.206353576">
        <ele>1043.200000</ele>
        <time>2015-08-05T09:19:06Z</time>
        <speed>2.027000</speed>
      </trkpt>
      <trkpt lat="46.073118488" lon="7.206351230">
        <ele>1043.600000</ele>
        <time>2015-08-05T09:19:07Z</time>
        <speed>2.027000</speed>
      </trkpt>
      <trkpt lat="46.073011284" lon="7.206317450">
        <ele>1043.600000</ele>
        <time>2015-08-05T09:19:12Z</time>
        <speed>2.387000</speed>
      </trkpt>
      <trkpt lat="46.072981025" lon="7.206319211">
        <ele>1043.600000</ele>
        <time>2015-08-05T09:19:13Z</time>
        <speed>2.528000</speed>
      </trkpt>
      <trkpt lat="46.072898044" lon="7.206356594">
        <ele>1043.600000</ele>
        <time>2015-08-05T09:19:16Z</time>
        <speed>3.385000</speed>
      </trkpt>
      <trkpt lat="46.072843478" lon="7.206404203">
        <ele>1043.600000</ele>
        <time>2015-08-05T09:19:18Z</time>
        <speed>3.909000</speed>
      </trkpt>
      <trkpt lat="46.072720013" lon="7.206587683">
        <ele>1043.600000</ele>
        <time>2015-08-05T09:19:22Z</time>
        <speed>4.834000</speed>
      </trkpt>
      <trkpt lat="46.072645665" lon="7.206727745">
        <ele>1043.600000</ele>
        <time>2015-08-05T09:19:25Z</time>
        <speed>5.098000</speed>
      </trkpt>
      <trkpt lat="46.072598224" lon="7.206802511">
        <ele>1043.600000</ele>
        <time>2015-08-05T09:19:27Z</time>
        <speed>4.686000</speed>
      </trkpt>
      <trkpt lat="46.072493198" lon="7.207112390">
        <ele>1043.600000</ele>
        <time>2015-08-05T09:19:33Z</time>
        <speed>4.380000</speed>
      </trkpt>
      <trkpt lat="46.072442488" lon="7.207243064">
        <ele>1043.600000</ele>
        <time>2015-08-05T09:19:36Z</time>
        <speed>4.301000</speed>
      </trkpt>
      <trkpt lat="46.072420695" lon="7.207280280">
        <ele>1043.600000</ele>
        <time>2015-08-05T09:19:37Z</time>
        <speed>4.192000</speed>
      </trkpt>
      <trkpt lat="46.072316256" lon="7.207484714">
        <ele>1043.600000</ele>
        <time>2015-08-05T09:19:44Z</time>
        <speed>3.184000</speed>
      </trkpt>
      <trkpt lat="46.072259930" lon="7.207610108">
        <ele>1043.600000</ele>
        <time>2015-08-05T09:19:50Z</time>
        <speed>2.496000</speed>
      </trkpt>
      <trkpt lat="46.072249201" lon="7.207635253">
        <ele>1044.000000</ele>
        <time>2015-08-05T09:19:51Z</time>
        <speed>2.409000</speed>
      </trkpt>
      <trkpt lat="46.072240735" lon="7.207660315">
        <ele>1044.600000</ele>
        <time>2015-08-05T09:19:52Z</time>
        <speed>2.308000</speed>
      </trkpt>
      <trkpt lat="46.072225564" lon="7.207694765">
        <ele>1045.400000</ele>
        <time>2015-08-05T09:19:53Z</time>
        <speed>2.177000</speed>
      </trkpt>
      <trkpt lat="46.072218356" lon="7.207715636">
        <ele>1045.800000</ele>
        <time>2015-08-05T09:19:54Z</time>
        <speed>2.177000</speed>
      </trkpt>
      <trkpt lat="46.072212824" lon="7.207739357">
        <ele>1045.800000</ele>
        <time>2015-08-05T09:19:56Z</time>
        <speed>1.903000</speed>
      </trkpt>
      <trkpt lat="46.072211231" lon="7.207868186">
        <ele>1045.800000</ele>
        <time>2015-08-05T09:20:02Z</time>
        <speed>1.670000</speed>
      </trkpt>
      <trkpt lat="46.072211818" lon="7.207889057">
        <ele>1046.200000</ele>
        <time>2015-08-05T09:20:03Z</time>
        <speed>1.605000</speed>
      </trkpt>
      <trkpt lat="46.072211818" lon="7.207910934">
        <ele>1046.600000</ele>
        <time>2015-08-05T09:20:04Z</time>
        <speed>1.663000</speed>
      </trkpt>
      <trkpt lat="46.072211650" lon="7.207939349">
        <ele>1047.000000</ele>
        <time>2015-08-05T09:20:05Z</time>
        <speed>1.663000</speed>
      </trkpt>
      <trkpt lat="46.072209806" lon="7.207961812">
        <ele>1047.400000</ele>
        <time>2015-08-05T09:20:06Z</time>
        <speed>1.609000</speed>
      </trkpt>
      <trkpt lat="46.072202430" lon="7.207985030">
        <ele>1048.000000</ele>
        <time>2015-08-05T09:20:07Z</time>
        <speed>1.756000</speed>
      </trkpt>
      <trkpt lat="46.072171752" lon="7.208028365">
        <ele>1048.000000</ele>
        <time>2015-08-05T09:20:09Z</time>
        <speed>1.787000</speed>
      </trkpt>
      <trkpt lat="46.072060944" lon="7.208100952">
        <ele>1048.400000</ele>
        <time>2015-08-05T09:20:14Z</time>
        <speed>1.807000</speed>
      </trkpt>
      <trkpt lat="46.072043677" lon="7.208111262">
        <ele>1048.800000</ele>
        <time>2015-08-05T09:20:15Z</time>
        <speed>1.827000</speed>
      </trkpt>
      <trkpt lat="46.072024650" lon="7.208120565">
        <ele>1049.200000</ele>
        <time>2015-08-05T09:20:16Z</time>
        <speed>1.772000</speed>
      </trkpt>
      <trkpt lat="46.072009395" lon="7.208137497">
        <ele>1049.600000</ele>
        <time>2015-08-05T09:20:17Z</time>
        <speed>1.772000</speed>
      </trkpt>
      <trkpt lat="46.071993553" lon="7.208148142">
        <ele>1050.000000</ele>
        <time>2015-08-05T09:20:18Z</time>
        <speed>1.767000</speed>
      </trkpt>
      <trkpt lat="46.071937897" lon="7.208162056">
        <ele>1050.000000</ele>
        <time>2015-08-05T09:20:21Z</time>
        <speed>1.847000</speed>
      </trkpt>
      <trkpt lat="46.071844607" lon="7.208211844">
        <ele>1050.400000</ele>
        <time>2015-08-05T09:20:27Z</time>
        <speed>1.728000</speed>
      </trkpt>
      <trkpt lat="46.071831615" lon="7.208225591">
        <ele>1050.800000</ele>
        <time>2015-08-05T09:20:28Z</time>
        <speed>1.784000</speed>
      </trkpt>
      <trkpt lat="46.071819712" lon="7.208242019">
        <ele>1051.200000</ele>
        <time>2015-08-05T09:20:29Z</time>
        <speed>1.850000</speed>
      </trkpt>
      <trkpt lat="46.071810576" lon="7.208254424">
        <ele>1051.600000</ele>
        <time>2015-08-05T09:20:30Z</time>
        <speed>1.819000</speed>
      </trkpt>
      <trkpt lat="46.071796243" lon="7.208265153">
        <ele>1052.000000</ele>
        <time>2015-08-05T09:20:31Z</time>
        <speed>1.819000</speed>
      </trkpt>
      <trkpt lat="46.071751400" lon="7.208322486">
        <ele>1052.000000</ele>
        <time>2015-08-05T09:20:35Z</time>
        <speed>1.657000</speed>
      </trkpt>
      <trkpt lat="46.071684345" lon="7.208424326">
        <ele>1052.400000</ele>
        <time>2015-08-05T09:20:41Z</time>
        <speed>1.752000</speed>
      </trkpt>
      <trkpt lat="46.071676047" lon="7.208437150">
        <ele>1053.400000</ele>
        <time>2015-08-05T09:20:42Z</time>
        <speed>1.777000</speed>
      </trkpt>
      <trkpt lat="46.071671269" lon="7.208455925">
        <ele>1053.800000</ele>
        <time>2015-08-05T09:20:43Z</time>
        <speed>1.957000</speed>
      </trkpt>
      <trkpt lat="46.071664312" lon="7.208470678">
        <ele>1054.200000</ele>
        <time>2015-08-05T09:20:44Z</time>
        <speed>1.860000</speed>
      </trkpt>
      <trkpt lat="46.071589713" lon="7.208568662">
        <ele>1054.200000</ele>
        <time>2015-08-05T09:20:51Z</time>
        <speed>1.621000</speed>
      </trkpt>
      <trkpt lat="46.071544954" lon="7.208608979">
        <ele>1054.600000</ele>
        <time>2015-08-05T09:20:55Z</time>
        <speed>1.637000</speed>
      </trkpt>
      <trkpt lat="46.071530621" lon="7.208613840">
        <ele>1055.000000</ele>
        <time>2015-08-05T09:20:56Z</time>
        <speed>1.661000</speed>
      </trkpt>
      <trkpt lat="46.071518970" lon="7.208627587">
        <ele>1055.400000</ele>
        <time>2015-08-05T09:20:57Z</time>
        <speed>1.643000</speed>
      </trkpt>
      <trkpt lat="46.071502709" lon="7.208627419">
        <ele>1055.800000</ele>
        <time>2015-08-05T09:20:58Z</time>
        <speed>1.693000</speed>
      </trkpt>
      <trkpt lat="46.071487957" lon="7.208635466">
        <ele>1056.400000</ele>
        <time>2015-08-05T09:20:59Z</time>
        <speed>1.693000</speed>
      </trkpt>
      <trkpt lat="46.071384859" lon="7.208677543">
        <ele>1056.400000</ele>
        <time>2015-08-05T09:21:06Z</time>
        <speed>1.666000</speed>
      </trkpt>
      <trkpt lat="46.071368263" lon="7.208669413">
        <ele>1056.800000</ele>
        <time>2015-08-05T09:21:07Z</time>
        <speed>1.691000</speed>
      </trkpt>
      <trkpt lat="46.071353846" lon="7.208679303">
        <ele>1057.200000</ele>
        <time>2015-08-05T09:21:08Z</time>
        <speed>1.735000</speed>
      </trkpt>
      <trkpt lat="46.071338926" lon="7.208685170">
        <ele>1057.600000</ele>
        <time>2015-08-05T09:21:09Z</time>
        <speed>1.748000</speed>
      </trkpt>
      <trkpt lat="46.071322917" lon="7.208682656">
        <ele>1058.000000</ele>
        <time>2015-08-05T09:21:10Z</time>
        <speed>1.816000</speed>
      </trkpt>
      <trkpt lat="46.071308333" lon="7.208683997">
        <ele>1058.400000</ele>
        <time>2015-08-05T09:21:11Z</time>
        <speed>1.816000</speed>
      </trkpt>
      <trkpt lat="46.071175647" lon="7.208726158">
        <ele>1058.800000</ele>
        <time>2015-08-05T09:21:20Z</time>
        <speed>1.744000</speed>
      </trkpt>
      <trkpt lat="46.071162487" lon="7.208737641">
        <ele>1059.200000</ele>
        <time>2015-08-05T09:21:21Z</time>
        <speed>1.752000</speed>
      </trkpt>
      <trkpt lat="46.071144885" lon="7.208746694">
        <ele>1059.600000</ele>
        <time>2015-08-05T09:21:22Z</time>
        <speed>1.720000</speed>
      </trkpt>
      <trkpt lat="46.071133486" lon="7.208756249">
        <ele>1060.000000</ele>
        <time>2015-08-05T09:21:23Z</time>
        <speed>1.720000</speed>
      </trkpt>
      <trkpt lat="46.071122170" lon="7.208769073">
        <ele>1060.400000</ele>
        <time>2015-08-05T09:21:24Z</time>
        <speed>1.745000</speed>
      </trkpt>
      <trkpt lat="46.071070286" lon="7.208862448">
        <ele>1060.800000</ele>
        <time>2015-08-05T09:21:30Z</time>
        <speed>1.754000</speed>
      </trkpt>
      <trkpt lat="46.071061318" lon="7.208880972">
        <ele>1061.200000</ele>
        <time>2015-08-05T09:21:31Z</time>
        <speed>1.727000</speed>
      </trkpt>
      <trkpt lat="46.071052349" lon="7.208894970">
        <ele>1061.600000</ele>
        <time>2015-08-05T09:21:32Z</time>
        <speed>1.727000</speed>
      </trkpt>
      <trkpt lat="46.071048577" lon="7.208914751">
        <ele>1062.000000</ele>
        <time>2015-08-05T09:21:33Z</time>
        <speed>1.727000</speed>
      </trkpt>
      <trkpt lat="46.071041956" lon="7.208934364">
        <ele>1062.400000</ele>
        <time>2015-08-05T09:21:34Z</time>
        <speed>1.613000</speed>
      </trkpt>
      <trkpt lat="46.071022510" lon="7.209011478">
        <ele>1062.400000</ele>
        <time>2015-08-05T09:21:38Z</time>
        <speed>1.694000</speed>
      </trkpt>
      <trkpt lat="46.071017313" lon="7.209032600">
        <ele>1062.800000</ele>
        <time>2015-08-05T09:21:39Z</time>
        <speed>1.530000</speed>
      </trkpt>
      <trkpt lat="46.071011613" lon="7.209051460">
        <ele>1063.200000</ele>
        <time>2015-08-05T09:21:40Z</time>
        <speed>1.659000</speed>
      </trkpt>
      <trkpt lat="46.071003231" lon="7.209065541">
        <ele>1063.600000</ele>
        <time>2015-08-05T09:21:41Z</time>
        <speed>1.638000</speed>
      </trkpt>
      <trkpt lat="46.070990491" lon="7.209074426">
        <ele>1064.000000</ele>
        <time>2015-08-05T09:21:42Z</time>
        <speed>1.638000</speed>
      </trkpt>
      <trkpt lat="46.070968865" lon="7.209072414">
        <ele>1064.400000</ele>
        <time>2015-08-05T09:21:43Z</time>
        <speed>1.685000</speed>
      </trkpt>
      <trkpt lat="46.070955622" lon="7.209051208">
        <ele>1064.400000</ele>
        <time>2015-08-05T09:21:44Z</time>
        <speed>1.627000</speed>
      </trkpt>
      <trkpt lat="46.070963166" lon="7.208941657">
        <ele>1064.400000</ele>
        <time>2015-08-05T09:21:48Z</time>
        <speed>1.787000</speed>
      </trkpt>
      <trkpt lat="46.071002980" lon="7.208771001">
        <ele>1064.400000</ele>
        <time>2015-08-05T09:21:53Z</time>
        <speed>2.806000</speed>
      </trkpt>
      <trkpt lat="46.071063916" lon="7.208532452">
        <ele>1064.400000</ele>
        <time>2015-08-05T09:21:59Z</time>
        <speed>3.589000</speed>
      </trkpt>
      <trkpt lat="46.071105490" lon="7.208414184">
        <ele>1064.400000</ele>
        <time>2015-08-05T09:22:02Z</time>
        <speed>3.752000</speed>
      </trkpt>
      <trkpt lat="46.071125942" lon="7.208384260">
        <ele>1064.400000</ele>
        <time>2015-08-05T09:22:03Z</time>
        <speed>3.752000</speed>
      </trkpt>
      <trkpt lat="46.071268099" lon="7.208319133">
        <ele>1064.400000</ele>
        <time>2015-08-05T09:22:08Z</time>
        <speed>3.115000</speed>
      </trkpt>
      <trkpt lat="46.071318391" lon="7.208306728">
        <ele>1065.000000</ele>
        <time>2015-08-05T09:22:10Z</time>
        <speed>2.858000</speed>
      </trkpt>
      <trkpt lat="46.071344710" lon="7.208299938">
        <ele>1065.400000</ele>
        <time>2015-08-05T09:22:11Z</time>
        <speed>2.912000</speed>
      </trkpt>
      <trkpt lat="46.071371784" lon="7.208293903">
        <ele>1065.800000</ele>
        <time>2015-08-05T09:22:12Z</time>
        <speed>2.877000</speed>
      </trkpt>
      <trkpt lat="46.071399863" lon="7.208287533">
        <ele>1066.200000</ele>
        <time>2015-08-05T09:22:13Z</time>
        <speed>2.862000</speed>
      </trkpt>
      <trkpt lat="46.071424087" lon="7.208284348">
        <ele>1066.600000</ele>
        <time>2015-08-05T09:22:14Z</time>
        <speed>2.862000</speed>
      </trkpt>
      <trkpt lat="46.071476557" lon="7.208254927">
        <ele>1066.600000</ele>
        <time>2015-08-05T09:22:16Z</time>
        <speed>2.944000</speed>
      </trkpt>
      <trkpt lat="46.071554677" lon="7.208126684">
        <ele>1066.600000</ele>
        <time>2015-08-05T09:22:21Z</time>
        <speed>2.989000</speed>
      </trkpt>
      <trkpt lat="46.071585187" lon="7.207967596">
        <ele>1067.000000</ele>
        <time>2015-08-05T09:22:26Z</time>
        <speed>2.598000</speed>
      </trkpt>
      <trkpt lat="46.071596167" lon="7.207940690">
        <ele>1067.400000</ele>
        <time>2015-08-05T09:22:27Z</time>
        <speed>2.832000</speed>
      </trkpt>
      <trkpt lat="46.071609494" lon="7.207913197">
        <ele>1067.800000</ele>
        <time>2015-08-05T09:22:28Z</time>
        <speed>2.769000</speed>
      </trkpt>
      <trkpt lat="46.071621145" lon="7.207888974">
        <ele>1068.200000</ele>
        <time>2015-08-05T09:22:29Z</time>
        <speed>2.676000</speed>
      </trkpt>
      <trkpt lat="46.071632545" lon="7.207869025">
        <ele>1068.800000</ele>
        <time>2015-08-05T09:22:30Z</time>
        <speed>2.676000</speed>
      </trkpt>
      <trkpt lat="46.071713095" lon="7.207769028">
        <ele>1068.800000</ele>
        <time>2015-08-05T09:22:35Z</time>
        <speed>2.366000</speed>
      </trkpt>
      <trkpt lat="46.071756010" lon="7.207728209">
        <ele>1069.200000</ele>
        <time>2015-08-05T09:22:38Z</time>
        <speed>2.088000</speed>
      </trkpt>
      <trkpt lat="46.071769421" lon="7.207711780">
        <ele>1069.600000</ele>
        <time>2015-08-05T09:22:39Z</time>
        <speed>1.920000</speed>
      </trkpt>
      <trkpt lat="46.071780234" lon="7.207701973">
        <ele>1070.000000</ele>
        <time>2015-08-05T09:22:40Z</time>
        <speed>1.894000</speed>
      </trkpt>
      <trkpt lat="46.071792052" lon="7.207695687">
        <ele>1070.400000</ele>
        <time>2015-08-05T09:22:41Z</time>
        <speed>1.807000</speed>
      </trkpt>
      <trkpt lat="46.071803284" lon="7.207689736">
        <ele>1070.800000</ele>
        <time>2015-08-05T09:22:42Z</time>
        <speed>1.736000</speed>
      </trkpt>
      <trkpt lat="46.071813929" lon="7.207681605">
        <ele>1070.800000</ele>
        <time>2015-08-05T09:22:43Z</time>
        <speed>1.686000</speed>
      </trkpt>
      <trkpt lat="46.071871932" lon="7.207625195">
        <ele>1070.800000</ele>
        <time>2015-08-05T09:22:48Z</time>
        <speed>1.675000</speed>
      </trkpt>
      <trkpt lat="46.071881655" lon="7.207611197">
        <ele>1071.200000</ele>
        <time>2015-08-05T09:22:49Z</time>
        <speed>1.663000</speed>
      </trkpt>
      <trkpt lat="46.071891713" lon="7.207598205">
        <ele>1071.600000</ele>
        <time>2015-08-05T09:22:50Z</time>
        <speed>1.731000</speed>
      </trkpt>
      <trkpt lat="46.071900095" lon="7.207582950">
        <ele>1072.200000</ele>
        <time>2015-08-05T09:22:51Z</time>
        <speed>1.717000</speed>
      </trkpt>
      <trkpt lat="46.071906298" lon="7.207564426">
        <ele>1072.600000</ele>
        <time>2015-08-05T09:22:52Z</time>
        <speed>1.725000</speed>
      </trkpt>
      <trkpt lat="46.071907136" lon="7.207543052">
        <ele>1073.000000</ele>
        <time>2015-08-05T09:22:53Z</time>
        <speed>1.745000</speed>
      </trkpt>
      <trkpt lat="46.071907387" lon="7.207524109">
        <ele>1073.000000</ele>
        <time>2015-08-05T09:22:54Z</time>
        <speed>1.745000</speed>
      </trkpt>
      <trkpt lat="46.071916104" lon="7.207460910">
        <ele>1073.000000</ele>
        <time>2015-08-05T09:22:57Z</time>
        <speed>1.716000</speed>
      </trkpt>
      <trkpt lat="46.071920211" lon="7.207380611">
        <ele>1073.400000</ele>
        <time>2015-08-05T09:23:01Z</time>
        <speed>1.790000</speed>
      </trkpt>
      <trkpt lat="46.071919541" lon="7.207362925">
        <ele>1073.800000</ele>
        <time>2015-08-05T09:23:02Z</time>
        <speed>1.850000</speed>
      </trkpt>
      <trkpt lat="46.071921469" lon="7.207344904">
        <ele>1074.200000</ele>
        <time>2015-08-05T09:23:03Z</time>
        <speed>1.865000</speed>
      </trkpt>
      <trkpt lat="46.071922726" lon="7.207322357">
        <ele>1074.600000</ele>
        <time>2015-08-05T09:23:04Z</time>
        <speed>1.925000</speed>
      </trkpt>
      <trkpt lat="46.071923648" lon="7.207302324">
        <ele>1075.000000</ele>
        <time>2015-08-05T09:23:05Z</time>
        <speed>2.006000</speed>
      </trkpt>
      <trkpt lat="46.071925241" lon="7.207260163">
        <ele>1075.000000</ele>
        <time>2015-08-05T09:23:07Z</time>
        <speed>2.164000</speed>
      </trkpt>
      <trkpt lat="46.071925827" lon="7.207231748">
        <ele>1075.000000</ele>
        <time>2015-08-05T09:23:08Z</time>
        <speed>2.255000</speed>
      </trkpt>
      <trkpt lat="46.071927420" lon="7.207131669">
        <ele>1075.000000</ele>
        <time>2015-08-05T09:23:11Z</time>
        <speed>2.484000</speed>
      </trkpt>
      <trkpt lat="46.071964803" lon="7.206986997">
        <ele>1075.000000</ele>
        <time>2015-08-05T09:23:16Z</time>
        <speed>2.592000</speed>
      </trkpt>
      <trkpt lat="46.071982154" lon="7.206904603">
        <ele>1075.000000</ele>
        <time>2015-08-05T09:23:19Z</time>
        <speed>2.478000</speed>
      </trkpt>
      <trkpt lat="46.072028422" lon="7.206811312">
        <ele>1075.000000</ele>
        <time>2015-08-05T09:23:22Z</time>
        <speed>2.414000</speed>
      </trkpt>
      <trkpt lat="46.072056082" lon="7.206774097">
        <ele>1075.400000</ele>
        <time>2015-08-05T09:23:24Z</time>
        <speed>2.513000</speed>
      </trkpt>
      <trkpt lat="46.072070918" lon="7.206753729">
        <ele>1075.800000</ele>
        <time>2015-08-05T09:23:25Z</time>
        <speed>2.513000</speed>
      </trkpt>
      <trkpt lat="46.072078378" lon="7.206745011">
        <ele>1076.200000</ele>
        <time>2015-08-05T09:23:26Z</time>
        <speed>2.151000</speed>
      </trkpt>
      <trkpt lat="46.072083659" lon="7.206728248">
        <ele>1076.600000</ele>
        <time>2015-08-05T09:23:27Z</time>
        <speed>1.824000</speed>
      </trkpt>
      <trkpt lat="46.072087933" lon="7.206712154">
        <ele>1077.200000</ele>
        <time>2015-08-05T09:23:28Z</time>
        <speed>1.875000</speed>
      </trkpt>
      <trkpt lat="46.072113414" lon="7.206645267">
        <ele>1077.200000</ele>
        <time>2015-08-05T09:23:31Z</time>
        <speed>1.793000</speed>
      </trkpt>
      <trkpt lat="46.072122215" lon="7.206621797">
        <ele>1077.200000</ele>
        <time>2015-08-05T09:23:32Z</time>
        <speed>1.793000</speed>
      </trkpt>
      <trkpt lat="46.072131771" lon="7.206596903">
        <ele>1077.200000</ele>
        <time>2015-08-05T09:23:33Z</time>
        <speed>1.816000</speed>
      </trkpt>
      <trkpt lat="46.072152725" lon="7.206547031">
        <ele>1077.600000</ele>
        <time>2015-08-05T09:23:35Z</time>
        <speed>1.813000</speed>
      </trkpt>
      <trkpt lat="46.072163287" lon="7.206521382">
        <ele>1078.000000</ele>
        <time>2015-08-05T09:23:36Z</time>
        <speed>1.798000</speed>
      </trkpt>
      <trkpt lat="46.072171082" lon="7.206493722">
        <ele>1078.400000</ele>
        <time>2015-08-05T09:23:37Z</time>
        <speed>1.838000</speed>
      </trkpt>
      <trkpt lat="46.072183236" lon="7.206480730">
        <ele>1078.800000</ele>
        <time>2015-08-05T09:23:38Z</time>
        <speed>1.718000</speed>
      </trkpt>
      <trkpt lat="46.072194719" lon="7.206457931">
        <ele>1079.200000</ele>
        <time>2015-08-05T09:23:39Z</time>
        <speed>1.761000</speed>
      </trkpt>
      <trkpt lat="46.072211231" lon="7.206414597">
        <ele>1079.200000</ele>
        <time>2015-08-05T09:23:41Z</time>
        <speed>1.749000</speed>
      </trkpt>
      <trkpt lat="46.072217769" lon="7.206395151">
        <ele>1079.200000</ele>
        <time>2015-08-05T09:23:42Z</time>
        <speed>1.765000</speed>
      </trkpt>
      <trkpt lat="46.072237550" lon="7.206310577">
        <ele>1079.600000</ele>
        <time>2015-08-05T09:23:46Z</time>
        <speed>1.816000</speed>
      </trkpt>
      <trkpt lat="46.072242999" lon="7.206294233">
        <ele>1080.000000</ele>
        <time>2015-08-05T09:23:47Z</time>
        <speed>1.796000</speed>
      </trkpt>
      <trkpt lat="46.072248279" lon="7.206273110">
        <ele>1080.400000</ele>
        <time>2015-08-05T09:23:48Z</time>
        <speed>1.739000</speed>
      </trkpt>
      <trkpt lat="46.072255907" lon="7.206255089">
        <ele>1080.800000</ele>
        <time>2015-08-05T09:23:49Z</time>
        <speed>1.768000</speed>
      </trkpt>
      <trkpt lat="46.072263367" lon="7.206226423">
        <ele>1081.200000</ele>
        <time>2015-08-05T09:23:50Z</time>
        <speed>1.777000</speed>
      </trkpt>
      <trkpt lat="46.072277951" lon="7.206167414">
        <ele>1081.200000</ele>
        <time>2015-08-05T09:23:53Z</time>
        <speed>1.820000</speed>
      </trkpt>
      <trkpt lat="46.072277867" lon="7.206149310">
        <ele>1081.200000</ele>
        <time>2015-08-05T09:23:54Z</time>
        <speed>1.761000</speed>
      </trkpt>
      <trkpt lat="46.072304438" lon="7.206051241">
        <ele>1082.000000</ele>
        <time>2015-08-05T09:23:59Z</time>
        <speed>1.746000</speed>
      </trkpt>
      <trkpt lat="46.072310976" lon="7.206029951">
        <ele>1082.600000</ele>
        <time>2015-08-05T09:24:00Z</time>
        <speed>1.765000</speed>
      </trkpt>
      <trkpt lat="46.072321202" lon="7.206018217">
        <ele>1083.000000</ele>
        <time>2015-08-05T09:24:01Z</time>
        <speed>1.781000</speed>
      </trkpt>
      <trkpt lat="46.072331009" lon="7.206003045">
        <ele>1083.400000</ele>
        <time>2015-08-05T09:24:02Z</time>
        <speed>1.783000</speed>
      </trkpt>
      <trkpt lat="46.072365626" lon="7.205938672">
        <ele>1083.400000</ele>
        <time>2015-08-05T09:24:05Z</time>
        <speed>3.418000</speed>
      </trkpt>
      <trkpt lat="46.072412229" lon="7.205821829">
        <ele>1083.400000</ele>
        <time>2015-08-05T09:24:11Z</time>
        <speed>1.646000</speed>
      </trkpt>
      <trkpt lat="46.072417342" lon="7.205802550">
        <ele>1083.800000</ele>
        <time>2015-08-05T09:24:12Z</time>
        <speed>1.751000</speed>
      </trkpt>
      <trkpt lat="46.072426814" lon="7.205784110">
        <ele>1084.200000</ele>
        <time>2015-08-05T09:24:13Z</time>
        <speed>1.654000</speed>
      </trkpt>
      <trkpt lat="46.072435950" lon="7.205767681">
        <ele>1084.600000</ele>
        <time>2015-08-05T09:24:14Z</time>
        <speed>1.591000</speed>
      </trkpt>
      <trkpt lat="46.072442404" lon="7.205749744">
        <ele>1085.200000</ele>
        <time>2015-08-05T09:24:15Z</time>
        <speed>1.591000</speed>
      </trkpt>
      <trkpt lat="46.072447098" lon="7.205730969">
        <ele>1085.600000</ele>
        <time>2015-08-05T09:24:16Z</time>
        <speed>1.562000</speed>
      </trkpt>
      <trkpt lat="46.072451456" lon="7.205712696">
        <ele>1085.600000</ele>
        <time>2015-08-05T09:24:17Z</time>
        <speed>1.580000</speed>
      </trkpt>
      <trkpt lat="46.072468304" lon="7.205683276">
        <ele>1085.600000</ele>
        <time>2015-08-05T09:24:19Z</time>
        <speed>1.619000</speed>
      </trkpt>
      <trkpt lat="46.072470483" lon="7.205671290">
        <ele>1085.600000</ele>
        <time>2015-08-05T09:24:20Z</time>
        <speed>1.624000</speed>
      </trkpt>
      <trkpt lat="46.072478614" lon="7.205639438">
        <ele>1085.600000</ele>
        <time>2015-08-05T09:24:22Z</time>
        <speed>1.611000</speed>
      </trkpt>
      <trkpt lat="46.072497054" lon="7.205598283">
        <ele>1086.000000</ele>
        <time>2015-08-05T09:24:24Z</time>
        <speed>1.577000</speed>
      </trkpt>
      <trkpt lat="46.072503927" lon="7.205578670">
        <ele>1086.400000</ele>
        <time>2015-08-05T09:24:25Z</time>
        <speed>1.659000</speed>
      </trkpt>
      <trkpt lat="46.072510717" lon="7.205560062">
        <ele>1086.800000</ele>
        <time>2015-08-05T09:24:26Z</time>
        <speed>1.609000</speed>
      </trkpt>
      <trkpt lat="46.072519182" lon="7.205542376">
        <ele>1087.200000</ele>
        <time>2015-08-05T09:24:27Z</time>
        <speed>1.683000</speed>
      </trkpt>
      <trkpt lat="46.072528905" lon="7.205526199">
        <ele>1087.600000</ele>
        <time>2015-08-05T09:24:28Z</time>
        <speed>1.683000</speed>
      </trkpt>
      <trkpt lat="46.072538544" lon="7.205512285">
        <ele>1087.600000</ele>
        <time>2015-08-05T09:24:29Z</time>
        <speed>1.659000</speed>
      </trkpt>
      <trkpt lat="46.072588165" lon="7.205432657">
        <ele>1087.600000</ele>
        <time>2015-08-05T09:24:35Z</time>
        <speed>1.666000</speed>
      </trkpt>
      <trkpt lat="46.072647425" lon="7.205349844">
        <ele>1088.000000</ele>
        <time>2015-08-05T09:24:41Z</time>
        <speed>1.613000</speed>
      </trkpt>
      <trkpt lat="46.072652874" lon="7.205332912">
        <ele>1088.400000</ele>
        <time>2015-08-05T09:24:42Z</time>
        <speed>1.551000</speed>
      </trkpt>
      <trkpt lat="46.072664441" lon="7.205316148">
        <ele>1088.800000</ele>
        <time>2015-08-05T09:24:43Z</time>
        <speed>1.592000</speed>
      </trkpt>
      <trkpt lat="46.072670392" lon="7.205298463">
        <ele>1089.200000</ele>
        <time>2015-08-05T09:24:44Z</time>
        <speed>1.579000</speed>
      </trkpt>
      <trkpt lat="46.072679193" lon="7.205279939">
        <ele>1089.600000</ele>
        <time>2015-08-05T09:24:45Z</time>
        <speed>1.579000</speed>
      </trkpt>
      <trkpt lat="46.072698304" lon="7.205244902">
        <ele>1089.600000</ele>
        <time>2015-08-05T09:24:47Z</time>
        <speed>1.552000</speed>
      </trkpt>
      <trkpt lat="46.072730741" lon="7.205168962">
        <ele>1089.600000</ele>
        <time>2015-08-05T09:24:51Z</time>
        <speed>1.673000</speed>
      </trkpt>
      <trkpt lat="46.072744404" lon="7.205135015">
        <ele>1089.600000</ele>
        <time>2015-08-05T09:24:53Z</time>
        <speed>1.665000</speed>
      </trkpt>
      <trkpt lat="46.072750020" lon="7.205110456">
        <ele>1090.000000</ele>
        <time>2015-08-05T09:24:54Z</time>
        <speed>1.699000</speed>
      </trkpt>
      <trkpt lat="46.072752702" lon="7.205087825">
        <ele>1090.400000</ele>
        <time>2015-08-05T09:24:55Z</time>
        <speed>1.991000</speed>
      </trkpt>
      <trkpt lat="46.072757564" lon="7.205068379">
        <ele>1090.800000</ele>
        <time>2015-08-05T09:24:56Z</time>
        <speed>1.834000</speed>
      </trkpt>
      <trkpt lat="46.072764521" lon="7.205050693">
        <ele>1091.200000</ele>
        <time>2015-08-05T09:24:57Z</time>
        <speed>1.801000</speed>
      </trkpt>
      <trkpt lat="46.072771226" lon="7.205033343">
        <ele>1091.600000</ele>
        <time>2015-08-05T09:24:58Z</time>
        <speed>1.764000</speed>
      </trkpt>
      <trkpt lat="46.072778267" lon="7.204998055">
        <ele>1091.600000</ele>
        <time>2015-08-05T09:25:00Z</time>
        <speed>0.000000</speed>
      </trkpt>
      <trkpt lat="46.072802491" lon="7.204908788">
        <ele>1091.600000</ele>
        <time>2015-08-05T09:25:06Z</time>
        <speed>1.550000</speed>
      </trkpt>
      <trkpt lat="46.072821518" lon="7.204883474">
        <ele>1092.000000</ele>
        <time>2015-08-05T09:25:08Z</time>
        <speed>1.555000</speed>
      </trkpt>
      <trkpt lat="46.072835599" lon="7.204866962">
        <ele>1092.600000</ele>
        <time>2015-08-05T09:25:09Z</time>
        <speed>1.591000</speed>
      </trkpt>
      <trkpt lat="46.072855380" lon="7.204853383">
        <ele>1093.000000</ele>
        <time>2015-08-05T09:25:10Z</time>
        <speed>1.590000</speed>
      </trkpt>
      <trkpt lat="46.072875665" lon="7.204838967">
        <ele>1093.400000</ele>
        <time>2015-08-05T09:25:11Z</time>
        <speed>1.656000</speed>
      </trkpt>
      <trkpt lat="46.072894189" lon="7.204828824">
        <ele>1093.800000</ele>
        <time>2015-08-05T09:25:12Z</time>
        <speed>1.656000</speed>
      </trkpt>
      <trkpt lat="46.072909695" lon="7.204822957">
        <ele>1093.800000</ele>
        <time>2015-08-05T09:25:13Z</time>
        <speed>1.599000</speed>
      </trkpt>
      <trkpt lat="46.072921095" lon="7.204814575">
        <ele>1093.800000</ele>
        <time>2015-08-05T09:25:14Z</time>
        <speed>1.641000</speed>
      </trkpt>
      <trkpt lat="46.072969877" lon="7.204808205">
        <ele>1093.800000</ele>
        <time>2015-08-05T09:25:18Z</time>
        <speed>1.529000</speed>
      </trkpt>
      <trkpt lat="46.072985551" lon="7.204809378">
        <ele>1094.200000</ele>
        <time>2015-08-05T09:25:19Z</time>
        <speed>1.522000</speed>
      </trkpt>
      <trkpt lat="46.072999130" lon="7.204808624">
        <ele>1094.600000</ele>
        <time>2015-08-05T09:25:20Z</time>
        <speed>1.516000</speed>
      </trkpt>
      <trkpt lat="46.073012960" lon="7.204806110">
        <ele>1095.000000</ele>
        <time>2015-08-05T09:25:21Z</time>
        <speed>1.516000</speed>
      </trkpt>
      <trkpt lat="46.073027964" lon="7.204803343">
        <ele>1095.400000</ele>
        <time>2015-08-05T09:25:22Z</time>
        <speed>1.576000</speed>
      </trkpt>
      <trkpt lat="46.073042548" lon="7.204803763">
        <ele>1095.800000</ele>
        <time>2015-08-05T09:25:23Z</time>
        <speed>1.556000</speed>
      </trkpt>
      <trkpt lat="46.073070292" lon="7.204796051">
        <ele>1095.800000</ele>
        <time>2015-08-05T09:25:25Z</time>
        <speed>1.439000</speed>
      </trkpt>
      <trkpt lat="46.073114214" lon="7.204787586">
        <ele>1095.800000</ele>
        <time>2015-08-05T09:25:28Z</time>
        <speed>1.577000</speed>
      </trkpt>
      <trkpt lat="46.073155955" lon="7.204768559">
        <ele>1095.800000</ele>
        <time>2015-08-05T09:25:31Z</time>
        <speed>1.506000</speed>
      </trkpt>
      <trkpt lat="46.073184705" lon="7.204753387">
        <ele>1096.200000</ele>
        <time>2015-08-05T09:25:33Z</time>
        <speed>1.504000</speed>
      </trkpt>
      <trkpt lat="46.073200296" lon="7.204745844">
        <ele>1096.600000</ele>
        <time>2015-08-05T09:25:34Z</time>
        <speed>1.504000</speed>
      </trkpt>
      <trkpt lat="46.073213958" lon="7.204736121">
        <ele>1097.200000</ele>
        <time>2015-08-05T09:25:35Z</time>
        <speed>1.604000</speed>
      </trkpt>
      <trkpt lat="46.073226866" lon="7.204725224">
        <ele>1097.600000</ele>
        <time>2015-08-05T09:25:36Z</time>
        <speed>1.604000</speed>
      </trkpt>
      <trkpt lat="46.073237511" lon="7.204717094">
        <ele>1098.000000</ele>
        <time>2015-08-05T09:25:37Z</time>
        <speed>1.544000</speed>
      </trkpt>
      <trkpt lat="46.073256706" lon="7.204699240">
        <ele>1098.000000</ele>
        <time>2015-08-05T09:25:39Z</time>
        <speed>1.543000</speed>
      </trkpt>
      <trkpt lat="46.073337172" lon="7.204592874">
        <ele>1098.400000</ele>
        <time>2015-08-05T09:25:47Z</time>
        <speed>1.513000</speed>
      </trkpt>
      <trkpt lat="46.073344632" lon="7.204574937">
        <ele>1098.800000</ele>
        <time>2015-08-05T09:25:48Z</time>
        <speed>1.532000</speed>
      </trkpt>
      <trkpt lat="46.073350416" lon="7.204556748">
        <ele>1099.400000</ele>
        <time>2015-08-05T09:25:49Z</time>
        <speed>1.588000</speed>
      </trkpt>
      <trkpt lat="46.073355612" lon="7.204538475">
        <ele>1099.800000</ele>
        <time>2015-08-05T09:25:50Z</time>
        <speed>1.588000</speed>
      </trkpt>
      <trkpt lat="46.073358714" lon="7.204521376">
        <ele>1100.200000</ele>
        <time>2015-08-05T09:25:51Z</time>
        <speed>1.566000</speed>
      </trkpt>
      <trkpt lat="46.073386123" lon="7.204456333">
        <ele>1100.200000</ele>
        <time>2015-08-05T09:25:55Z</time>
        <speed>1.624000</speed>
      </trkpt>
      <trkpt lat="46.073431804" lon="7.204356504">
        <ele>1100.600000</ele>
        <time>2015-08-05T09:26:01Z</time>
        <speed>1.585000</speed>
      </trkpt>
      <trkpt lat="46.073440689" lon="7.204340662">
        <ele>1101.400000</ele>
        <time>2015-08-05T09:26:02Z</time>
        <speed>1.585000</speed>
      </trkpt>
      <trkpt lat="46.073449071" lon="7.204326078">
        <ele>1101.800000</ele>
        <time>2015-08-05T09:26:03Z</time>
        <speed>1.547000</speed>
      </trkpt>
      <trkpt lat="46.073457620" lon="7.204311661">
        <ele>1102.200000</ele>
        <time>2015-08-05T09:26:04Z</time>
        <speed>1.510000</speed>
      </trkpt>
      <trkpt lat="46.073520820" lon="7.204192135">
        <ele>1102.200000</ele>
        <time>2015-08-05T09:26:11Z</time>
        <speed>1.602000</speed>
      </trkpt>
      <trkpt lat="46.073555772" lon="7.204113764">
        <ele>1102.800000</ele>
        <time>2015-08-05T09:26:16Z</time>
        <speed>1.569000</speed>
      </trkpt>
      <trkpt lat="46.073564657" lon="7.204100353">
        <ele>1103.200000</ele>
        <time>2015-08-05T09:26:17Z</time>
        <speed>1.681000</speed>
      </trkpt>
      <trkpt lat="46.073572871" lon="7.204082248">
        <ele>1103.600000</ele>
        <time>2015-08-05T09:26:18Z</time>
        <speed>1.681000</speed>
      </trkpt>
      <trkpt lat="46.073579912" lon="7.204066323">
        <ele>1104.000000</ele>
        <time>2015-08-05T09:26:19Z</time>
        <speed>1.624000</speed>
      </trkpt>
      <trkpt lat="46.073586031" lon="7.204048888">
        <ele>1104.400000</ele>
        <time>2015-08-05T09:26:20Z</time>
        <speed>1.590000</speed>
      </trkpt>
      <trkpt lat="46.073619307" lon="7.203975966">
        <ele>1104.400000</ele>
        <time>2015-08-05T09:26:25Z</time>
        <speed>1.579000</speed>
      </trkpt>
      <trkpt lat="46.073644034" lon="7.203939169">
        <ele>1104.800000</ele>
        <time>2015-08-05T09:26:28Z</time>
        <speed>1.534000</speed>
      </trkpt>
      <trkpt lat="46.073654595" lon="7.203925004">
        <ele>1105.200000</ele>
        <time>2015-08-05T09:26:29Z</time>
        <speed>1.472000</speed>
      </trkpt>
      <trkpt lat="46.073664569" lon="7.203911425">
        <ele>1105.600000</ele>
        <time>2015-08-05T09:26:30Z</time>
        <speed>1.492000</speed>
      </trkpt>
      <trkpt lat="46.073674292" lon="7.203896589">
        <ele>1106.000000</ele>
        <time>2015-08-05T09:26:31Z</time>
        <speed>1.546000</speed>
      </trkpt>
      <trkpt lat="46.073683177" lon="7.203880915">
        <ele>1106.400000</ele>
        <time>2015-08-05T09:26:32Z</time>
        <speed>1.531000</speed>
      </trkpt>
      <trkpt lat="46.073691978" lon="7.203867336">
        <ele>1106.400000</ele>
        <time>2015-08-05T09:26:33Z</time>
        <speed>1.531000</speed>
      </trkpt>
      <trkpt lat="46.073740593" lon="7.203767508">
        <ele>1106.400000</ele>
        <time>2015-08-05T09:26:40Z</time>
        <speed>1.545000</speed>
      </trkpt>
      <trkpt lat="46.073762386" lon="7.203714618">
        <ele>1106.800000</ele>
        <time>2015-08-05T09:26:43Z</time>
        <speed>1.492000</speed>
      </trkpt>
      <trkpt lat="46.073770181" lon="7.203698776">
        <ele>1107.200000</ele>
        <time>2015-08-05T09:26:44Z</time>
        <speed>1.492000</speed>
      </trkpt>
      <trkpt lat="46.073774540" lon="7.203680923">
        <ele>1107.600000</ele>
        <time>2015-08-05T09:26:45Z</time>
        <speed>1.511000</speed>
      </trkpt>
      <trkpt lat="46.073780575" lon="7.203665081">
        <ele>1108.000000</ele>
        <time>2015-08-05T09:26:46Z</time>
        <speed>1.466000</speed>
      </trkpt>
      <trkpt lat="46.073785939" lon="7.203645886">
        <ele>1108.400000</ele>
        <time>2015-08-05T09:26:47Z</time>
        <speed>1.466000</speed>
      </trkpt>
      <trkpt lat="46.073801446" lon="7.203592242">
        <ele>1108.400000</ele>
        <time>2015-08-05T09:26:50Z</time>
        <speed>1.535000</speed>
      </trkpt>
      <trkpt lat="46.073819718" lon="7.203539688">
        <ele>1108.400000</ele>
        <time>2015-08-05T09:26:53Z</time>
        <speed>1.476000</speed>
      </trkpt>
      <trkpt lat="46.073827346" lon="7.203520242">
        <ele>1109.000000</ele>
        <time>2015-08-05T09:26:54Z</time>
        <speed>1.556000</speed>
      </trkpt>
      <trkpt lat="46.073833046" lon="7.203505322">
        <ele>1109.400000</ele>
        <time>2015-08-05T09:26:55Z</time>
        <speed>1.556000</speed>
      </trkpt>
      <trkpt lat="46.073839332" lon="7.203489815">
        <ele>1109.800000</ele>
        <time>2015-08-05T09:26:56Z</time>
        <speed>1.553000</speed>
      </trkpt>
      <trkpt lat="46.073844026" lon="7.203472800">
        <ele>1110.200000</ele>
        <time>2015-08-05T09:26:57Z</time>
        <speed>1.510000</speed>
      </trkpt>
      <trkpt lat="46.073848804" lon="7.203454611">
        <ele>1110.600000</ele>
        <time>2015-08-05T09:26:58Z</time>
        <speed>1.510000</speed>
      </trkpt>
      <trkpt lat="46.073857102" lon="7.203438853">
        <ele>1110.600000</ele>
        <time>2015-08-05T09:26:59Z</time>
        <speed>1.503000</speed>
      </trkpt>
      <trkpt lat="46.073861041" lon="7.203423934">
        <ele>1110.600000</ele>
        <time>2015-08-05T09:27:00Z</time>
        <speed>1.597000</speed>
      </trkpt>
      <trkpt lat="46.073880571" lon="7.203366015">
        <ele>1110.600000</ele>
        <time>2015-08-05T09:27:04Z</time>
        <speed>1.552000</speed>
      </trkpt>
      <trkpt lat="46.073901190" lon="7.203345311">
        <ele>1110.600000</ele>
        <time>2015-08-05T09:27:06Z</time>
        <speed>1.521000</speed>
      </trkpt>
      <trkpt lat="46.073951566" lon="7.203304072">
        <ele>1111.000000</ele>
        <time>2015-08-05T09:27:10Z</time>
        <speed>1.619000</speed>
      </trkpt>
      <trkpt lat="46.073958355" lon="7.203290913">
        <ele>1111.400000</ele>
        <time>2015-08-05T09:27:11Z</time>
        <speed>1.430000</speed>
      </trkpt>
      <trkpt lat="46.073962295" lon="7.203279430">
        <ele>1111.800000</ele>
        <time>2015-08-05T09:27:12Z</time>
        <speed>1.561000</speed>
      </trkpt>
      <trkpt lat="46.073972437" lon="7.203271970">
        <ele>1112.200000</ele>
        <time>2015-08-05T09:27:13Z</time>
        <speed>1.561000</speed>
      </trkpt>
      <trkpt lat="46.073985177" lon="7.203262079">
        <ele>1112.600000</ele>
        <time>2015-08-05T09:27:14Z</time>
        <speed>1.506000</speed>
      </trkpt>
      <trkpt lat="46.073997499" lon="7.203251266">
        <ele>1112.600000</ele>
        <time>2015-08-05T09:27:15Z</time>
        <speed>1.485000</speed>
      </trkpt>
      <trkpt lat="46.074019794" lon="7.203208100">
        <ele>1112.600000</ele>
        <time>2015-08-05T09:27:18Z</time>
        <speed>1.468000</speed>
      </trkpt>
      <trkpt lat="46.074026835" lon="7.203194270">
        <ele>1113.000000</ele>
        <time>2015-08-05T09:27:19Z</time>
        <speed>1.499000</speed>
      </trkpt>
      <trkpt lat="46.074036139" lon="7.203179350">
        <ele>1113.400000</ele>
        <time>2015-08-05T09:27:20Z</time>
        <speed>1.499000</speed>
      </trkpt>
      <trkpt lat="46.074043850" lon="7.203168621">
        <ele>1113.800000</ele>
        <time>2015-08-05T09:27:21Z</time>
        <speed>1.497000</speed>
      </trkpt>
      <trkpt lat="46.074049718" lon="7.203151773">
        <ele>1114.200000</ele>
        <time>2015-08-05T09:27:22Z</time>
        <speed>1.487000</speed>
      </trkpt>
      <trkpt lat="46.074059106" lon="7.203135680">
        <ele>1114.600000</ele>
        <time>2015-08-05T09:27:23Z</time>
        <speed>1.487000</speed>
      </trkpt>
      <trkpt lat="46.074092968" lon="7.203077258">
        <ele>1114.600000</ele>
        <time>2015-08-05T09:27:27Z</time>
        <speed>1.536000</speed>
      </trkpt>
      <trkpt lat="46.074137560" lon="7.203001234">
        <ele>1114.600000</ele>
        <time>2015-08-05T09:27:32Z</time>
        <speed>1.672000</speed>
      </trkpt>
      <trkpt lat="46.074155078" lon="7.202968629">
        <ele>1115.000000</ele>
        <time>2015-08-05T09:27:34Z</time>
        <speed>1.572000</speed>
      </trkpt>
      <trkpt lat="46.074161784" lon="7.202955553">
        <ele>1115.400000</ele>
        <time>2015-08-05T09:27:35Z</time>
        <speed>1.572000</speed>
      </trkpt>
      <trkpt lat="46.074168908" lon="7.202942980">
        <ele>1115.800000</ele>
        <time>2015-08-05T09:27:36Z</time>
        <speed>1.641000</speed>
      </trkpt>
      <trkpt lat="46.074179051" lon="7.202930240">
        <ele>1116.200000</ele>
        <time>2015-08-05T09:27:37Z</time>
        <speed>1.578000</speed>
      </trkpt>
      <trkpt lat="46.074188941" lon="7.202914817">
        <ele>1116.600000</ele>
        <time>2015-08-05T09:27:38Z</time>
        <speed>1.525000</speed>
      </trkpt>
      <trkpt lat="46.074204699" lon="7.202882379">
        <ele>1116.600000</ele>
        <time>2015-08-05T09:27:40Z</time>
        <speed>1.654000</speed>
      </trkpt>
      <trkpt lat="46.074219954" lon="7.202781628">
        <ele>1116.600000</ele>
        <time>2015-08-05T09:27:45Z</time>
        <speed>1.549000</speed>
      </trkpt>
      <trkpt lat="46.074202688" lon="7.202735947">
        <ele>1117.000000</ele>
        <time>2015-08-05T09:27:48Z</time>
        <speed>1.607000</speed>
      </trkpt>
      <trkpt lat="46.074194641" lon="7.202724045">
        <ele>1117.600000</ele>
        <time>2015-08-05T09:27:49Z</time>
        <speed>1.595000</speed>
      </trkpt>
      <trkpt lat="46.074182822" lon="7.202720608">
        <ele>1118.000000</ele>
        <time>2015-08-05T09:27:50Z</time>
        <speed>1.525000</speed>
      </trkpt>
      <trkpt lat="46.074171674" lon="7.202724548">
        <ele>1118.400000</ele>
        <time>2015-08-05T09:27:51Z</time>
        <speed>1.525000</speed>
      </trkpt>
      <trkpt lat="46.074161365" lon="7.202731840">
        <ele>1118.800000</ele>
        <time>2015-08-05T09:27:52Z</time>
        <speed>1.501000</speed>
      </trkpt>
      <trkpt lat="46.074152061" lon="7.202742820">
        <ele>1118.800000</ele>
        <time>2015-08-05T09:27:53Z</time>
        <speed>1.575000</speed>
      </trkpt>
      <trkpt lat="46.074109900" lon="7.202784311">
        <ele>1118.800000</ele>
        <time>2015-08-05T09:27:57Z</time>
        <speed>1.514000</speed>
      </trkpt>
      <trkpt lat="46.074080731" lon="7.202817838">
        <ele>1119.200000</ele>
        <time>2015-08-05T09:28:00Z</time>
        <speed>1.564000</speed>
      </trkpt>
      <trkpt lat="46.074072684" lon="7.202830160">
        <ele>1119.600000</ele>
        <time>2015-08-05T09:28:01Z</time>
        <speed>1.542000</speed>
      </trkpt>
      <trkpt lat="46.074065979" lon="7.202840721">
        <ele>1120.000000</ele>
        <time>2015-08-05T09:28:02Z</time>
        <speed>1.542000</speed>
      </trkpt>
      <trkpt lat="46.074057429" lon="7.202847929">
        <ele>1120.400000</ele>
        <time>2015-08-05T09:28:03Z</time>
        <speed>1.485000</speed>
      </trkpt>
      <trkpt lat="46.074047203" lon="7.202855389">
        <ele>1120.800000</ele>
        <time>2015-08-05T09:28:04Z</time>
        <speed>1.448000</speed>
      </trkpt>
      <trkpt lat="46.074022477" lon="7.202872824">
        <ele>1120.800000</ele>
        <time>2015-08-05T09:28:06Z</time>
        <speed>1.505000</speed>
      </trkpt>
      <trkpt lat="46.073979310" lon="7.202888246">
        <ele>1120.800000</ele>
        <time>2015-08-05T09:28:09Z</time>
        <speed>1.556000</speed>
      </trkpt>
      <trkpt lat="46.073931701" lon="7.202915907">
        <ele>1121.200000</ele>
        <time>2015-08-05T09:28:13Z</time>
        <speed>1.542000</speed>
      </trkpt>
      <trkpt lat="46.073916948" lon="7.202927474">
        <ele>1121.600000</ele>
        <time>2015-08-05T09:28:14Z</time>
        <speed>1.541000</speed>
      </trkpt>
      <trkpt lat="46.073902029" lon="7.202937448">
        <ele>1122.000000</ele>
        <time>2015-08-05T09:28:15Z</time>
        <speed>1.516000</speed>
      </trkpt>
      <trkpt lat="46.073888199" lon="7.202946249">
        <ele>1122.400000</ele>
        <time>2015-08-05T09:28:16Z</time>
        <speed>1.545000</speed>
      </trkpt>
      <trkpt lat="46.073874033" lon="7.202951027">
        <ele>1122.800000</ele>
        <time>2015-08-05T09:28:17Z</time>
        <speed>1.545000</speed>
      </trkpt>
      <trkpt lat="46.073818713" lon="7.202987153">
        <ele>1122.800000</ele>
        <time>2015-08-05T09:28:22Z</time>
        <speed>1.519000</speed>
      </trkpt>
      <trkpt lat="46.073769595" lon="7.203024787">
        <ele>1123.200000</ele>
        <time>2015-08-05T09:28:26Z</time>
        <speed>1.592000</speed>
      </trkpt>
      <trkpt lat="46.073756603" lon="7.203036187">
        <ele>1123.600000</ele>
        <time>2015-08-05T09:28:27Z</time>
        <speed>1.551000</speed>
      </trkpt>
      <trkpt lat="46.073741850" lon="7.203045323">
        <ele>1124.200000</ele>
        <time>2015-08-05T09:28:28Z</time>
        <speed>1.551000</speed>
      </trkpt>
      <trkpt lat="46.073729194" lon="7.203053034">
        <ele>1125.000000</ele>
        <time>2015-08-05T09:28:29Z</time>
        <speed>1.563000</speed>
      </trkpt>
      <trkpt lat="46.073665072" lon="7.203087652">
        <ele>1125.000000</ele>
        <time>2015-08-05T09:28:34Z</time>
        <speed>1.661000</speed>
      </trkpt>
      <trkpt lat="46.073585109" lon="7.203172560">
        <ele>1125.000000</ele>
        <time>2015-08-05T09:28:42Z</time>
        <speed>1.624000</speed>
      </trkpt>
      <trkpt lat="46.073577314" lon="7.203193180">
        <ele>1125.400000</ele>
        <time>2015-08-05T09:28:43Z</time>
        <speed>1.523000</speed>
      </trkpt>
      <trkpt lat="46.073569686" lon="7.203212039">
        <ele>1125.800000</ele>
        <time>2015-08-05T09:28:44Z</time>
        <speed>1.525000</speed>
      </trkpt>
      <trkpt lat="46.073557113" lon="7.203231150">
        <ele>1126.200000</ele>
        <time>2015-08-05T09:28:45Z</time>
        <speed>1.510000</speed>
      </trkpt>
      <trkpt lat="46.073544960" lon="7.203242717">
        <ele>1126.600000</ele>
        <time>2015-08-05T09:28:46Z</time>
        <speed>1.510000</speed>
      </trkpt>
      <trkpt lat="46.073533728" lon="7.203259397">
        <ele>1127.000000</ele>
        <time>2015-08-05T09:28:47Z</time>
        <speed>1.537000</speed>
      </trkpt>
      <trkpt lat="46.073522748" lon="7.203276580">
        <ele>1127.000000</ele>
        <time>2015-08-05T09:28:48Z</time>
        <speed>1.509000</speed>
      </trkpt>
      <trkpt lat="46.073491902" lon="7.203312706">
        <ele>1127.000000</ele>
        <time>2015-08-05T09:28:51Z</time>
        <speed>1.502000</speed>
      </trkpt>
      <trkpt lat="46.073452842" lon="7.203333493">
        <ele>1127.400000</ele>
        <time>2015-08-05T09:28:54Z</time>
        <speed>1.647000</speed>
      </trkpt>
      <trkpt lat="46.073438845" lon="7.203337852">
        <ele>1127.800000</ele>
        <time>2015-08-05T09:28:55Z</time>
        <speed>1.537000</speed>
      </trkpt>
      <trkpt lat="46.073424679" lon="7.203345311">
        <ele>1128.200000</ele>
        <time>2015-08-05T09:28:56Z</time>
        <speed>1.569000</speed>
      </trkpt>
      <trkpt lat="46.073411436" lon="7.203351095">
        <ele>1128.600000</ele>
        <time>2015-08-05T09:28:57Z</time>
        <speed>1.569000</speed>
      </trkpt>
      <trkpt lat="46.073397773" lon="7.203354532">
        <ele>1129.200000</ele>
        <time>2015-08-05T09:28:58Z</time>
        <speed>1.564000</speed>
      </trkpt>
      <trkpt lat="46.073345303" lon="7.203357130">
        <ele>1129.200000</ele>
        <time>2015-08-05T09:29:02Z</time>
        <speed>1.516000</speed>
      </trkpt>
      <trkpt lat="46.073298113" lon="7.203369703">
        <ele>1129.200000</ele>
        <time>2015-08-05T09:29:06Z</time>
        <speed>1.545000</speed>
      </trkpt>
      <trkpt lat="46.073251761" lon="7.203386131">
        <ele>1129.200000</ele>
        <time>2015-08-05T09:29:09Z</time>
        <speed>1.697000</speed>
      </trkpt>
      <trkpt lat="46.073238517" lon="7.203396776">
        <ele>1129.600000</ele>
        <time>2015-08-05T09:29:10Z</time>
        <speed>1.697000</speed>
      </trkpt>
      <trkpt lat="46.073226866" lon="7.203407673">
        <ele>1130.000000</ele>
        <time>2015-08-05T09:29:11Z</time>
        <speed>1.613000</speed>
      </trkpt>
      <trkpt lat="46.073216892" lon="7.203414127">
        <ele>1130.400000</ele>
        <time>2015-08-05T09:29:12Z</time>
        <speed>1.566000</speed>
      </trkpt>
      <trkpt lat="46.073205073" lon="7.203425442">
        <ele>1130.800000</ele>
        <time>2015-08-05T09:29:13Z</time>
        <speed>1.541000</speed>
      </trkpt>
      <trkpt lat="46.073194847" lon="7.203433573">
        <ele>1131.200000</ele>
        <time>2015-08-05T09:29:14Z</time>
        <speed>1.541000</speed>
      </trkpt>
      <trkpt lat="46.073183532" lon="7.203441033">
        <ele>1131.200000</ele>
        <time>2015-08-05T09:29:15Z</time>
        <speed>1.523000</speed>
      </trkpt>
      <trkpt lat="46.073097366" lon="7.203480092">
        <ele>1131.200000</ele>
        <time>2015-08-05T09:29:22Z</time>
        <speed>1.550000</speed>
      </trkpt>
      <trkpt lat="46.073084542" lon="7.203484451">
        <ele>1131.600000</ele>
        <time>2015-08-05T09:29:23Z</time>
        <speed>1.580000</speed>
      </trkpt>
      <trkpt lat="46.073071885" lon="7.203486798">
        <ele>1132.000000</ele>
        <time>2015-08-05T09:29:24Z</time>
        <speed>1.486000</speed>
      </trkpt>
      <trkpt lat="46.073058055" lon="7.203487049">
        <ele>1132.400000</ele>
        <time>2015-08-05T09:29:25Z</time>
        <speed>1.486000</speed>
      </trkpt>
      <trkpt lat="46.073044225" lon="7.203485373">
        <ele>1132.800000</ele>
        <time>2015-08-05T09:29:26Z</time>
        <speed>1.574000</speed>
      </trkpt>
      <trkpt lat="46.073031484" lon="7.203485289">
        <ele>1133.200000</ele>
        <time>2015-08-05T09:29:27Z</time>
        <speed>1.627000</speed>
      </trkpt>
      <trkpt lat="46.073005668" lon="7.203483697">
        <ele>1133.200000</ele>
        <time>2015-08-05T09:29:29Z</time>
        <speed>1.602000</speed>
      </trkpt>
      <trkpt lat="46.072942636" lon="7.203443631">
        <ele>1133.200000</ele>
        <time>2015-08-05T09:29:34Z</time>
        <speed>1.604000</speed>
      </trkpt>
      <trkpt lat="46.072930398" lon="7.203433154">
        <ele>1133.200000</ele>
        <time>2015-08-05T09:29:35Z</time>
        <speed>1.554000</speed>
      </trkpt>
      <trkpt lat="46.072882035" lon="7.203377917">
        <ele>1133.600000</ele>
        <time>2015-08-05T09:29:40Z</time>
        <speed>1.492000</speed>
      </trkpt>
      <trkpt lat="46.072878431" lon="7.203362494">
        <ele>1134.000000</ele>
        <time>2015-08-05T09:29:41Z</time>
        <speed>1.496000</speed>
      </trkpt>
      <trkpt lat="46.072869965" lon="7.203351514">
        <ele>1134.800000</ele>
        <time>2015-08-05T09:29:42Z</time>
        <speed>1.455000</speed>
      </trkpt>
      <trkpt lat="46.072859068" lon="7.203341288">
        <ele>1135.200000</ele>
        <time>2015-08-05T09:29:43Z</time>
        <speed>1.501000</speed>
      </trkpt>
      <trkpt lat="46.072828307" lon="7.203326368">
        <ele>1135.200000</ele>
        <time>2015-08-05T09:29:46Z</time>
        <speed>1.504000</speed>
      </trkpt>
      <trkpt lat="46.072781955" lon="7.203327039">
        <ele>1135.200000</ele>
        <time>2015-08-05T09:29:50Z</time>
        <speed>1.440000</speed>
      </trkpt>
      <trkpt lat="46.072771226" lon="7.203333912">
        <ele>1135.200000</ele>
        <time>2015-08-05T09:29:51Z</time>
        <speed>1.440000</speed>
      </trkpt>
      <trkpt lat="46.072764772" lon="7.203339193">
        <ele>1135.800000</ele>
        <time>2015-08-05T09:29:52Z</time>
        <speed>1.511000</speed>
      </trkpt>
      <trkpt lat="46.072761503" lon="7.203344306">
        <ele>1136.200000</ele>
        <time>2015-08-05T09:29:53Z</time>
        <speed>1.496000</speed>
      </trkpt>
      <trkpt lat="46.072761335" lon="7.203353442">
        <ele>1136.600000</ele>
        <time>2015-08-05T09:29:54Z</time>
        <speed>1.559000</speed>
      </trkpt>
      <trkpt lat="46.072749266" lon="7.203367691">
        <ele>1137.000000</ele>
        <time>2015-08-05T09:29:55Z</time>
        <speed>1.559000</speed>
      </trkpt>
      <trkpt lat="46.072740716" lon="7.203381605">
        <ele>1137.400000</ele>
        <time>2015-08-05T09:29:56Z</time>
        <speed>1.467000</speed>
      </trkpt>
      <trkpt lat="46.072733843" lon="7.203401303">
        <ele>1137.400000</ele>
        <time>2015-08-05T09:29:57Z</time>
        <speed>1.451000</speed>
      </trkpt>
      <trkpt lat="46.072701992" lon="7.203492917">
        <ele>1137.400000</ele>
        <time>2015-08-05T09:30:02Z</time>
        <speed>1.501000</speed>
      </trkpt>
      <trkpt lat="46.072667039" lon="7.203586794">
        <ele>1138.000000</ele>
        <time>2015-08-05T09:30:07Z</time>
        <speed>1.537000</speed>
      </trkpt>
      <trkpt lat="46.072654718" lon="7.203598948">
        <ele>1138.400000</ele>
        <time>2015-08-05T09:30:08Z</time>
        <speed>1.537000</speed>
      </trkpt>
      <trkpt lat="46.072637619" lon="7.203611102">
        <ele>1138.800000</ele>
        <time>2015-08-05T09:30:09Z</time>
        <speed>1.541000</speed>
      </trkpt>
      <trkpt lat="46.072622112" lon="7.203618226">
        <ele>1139.200000</ele>
        <time>2015-08-05T09:30:10Z</time>
        <speed>1.566000</speed>
      </trkpt>
      <trkpt lat="46.072608952" lon="7.203624848">
        <ele>1139.800000</ele>
        <time>2015-08-05T09:30:11Z</time>
        <speed>1.533000</speed>
      </trkpt>
      <trkpt lat="46.072569474" lon="7.203652089">
        <ele>1139.800000</ele>
        <time>2015-08-05T09:30:14Z</time>
        <speed>1.497000</speed>
      </trkpt>
      <trkpt lat="46.072490432" lon="7.203654520">
        <ele>1139.800000</ele>
        <time>2015-08-05T09:30:20Z</time>
        <speed>1.721000</speed>
      </trkpt>
      <trkpt lat="46.072473501" lon="7.203656448">
        <ele>1140.200000</ele>
        <time>2015-08-05T09:30:21Z</time>
        <speed>1.721000</speed>
      </trkpt>
      <trkpt lat="46.072458078" lon="7.203658962">
        <ele>1140.600000</ele>
        <time>2015-08-05T09:30:22Z</time>
        <speed>1.596000</speed>
      </trkpt>
      <trkpt lat="46.072445757" lon="7.203662147">
        <ele>1141.000000</ele>
        <time>2015-08-05T09:30:23Z</time>
        <speed>1.712000</speed>
      </trkpt>
      <trkpt lat="46.072433352" lon="7.203667344">
        <ele>1141.400000</ele>
        <time>2015-08-05T09:30:24Z</time>
        <speed>1.604000</speed>
      </trkpt>
      <trkpt lat="46.072421617" lon="7.203673463">
        <ele>1141.800000</ele>
        <time>2015-08-05T09:30:25Z</time>
        <speed>1.604000</speed>
      </trkpt>
      <trkpt lat="46.072387503" lon="7.203695843">
        <ele>1141.800000</ele>
        <time>2015-08-05T09:30:28Z</time>
        <speed>1.441000</speed>
      </trkpt>
      <trkpt lat="46.072325979" lon="7.203721659">
        <ele>1142.400000</ele>
        <time>2015-08-05T09:30:32Z</time>
        <speed>1.479000</speed>
      </trkpt>
      <trkpt lat="46.072312401" lon="7.203728448">
        <ele>1142.800000</ele>
        <time>2015-08-05T09:30:33Z</time>
        <speed>1.499000</speed>
      </trkpt>
      <trkpt lat="46.072302091" lon="7.203739512">
        <ele>1143.200000</ele>
        <time>2015-08-05T09:30:34Z</time>
        <speed>1.437000</speed>
      </trkpt>
      <trkpt lat="46.072294631" lon="7.203743284">
        <ele>1143.600000</ele>
        <time>2015-08-05T09:30:35Z</time>
        <speed>1.437000</speed>
      </trkpt>
      <trkpt lat="46.072286836" lon="7.203747643">
        <ele>1144.000000</ele>
        <time>2015-08-05T09:30:36Z</time>
        <speed>1.412000</speed>
      </trkpt>
      <trkpt lat="46.072235874" lon="7.203776141">
        <ele>1144.000000</ele>
        <time>2015-08-05T09:30:40Z</time>
        <speed>1.492000</speed>
      </trkpt>
      <trkpt lat="46.072221038" lon="7.203778237">
        <ele>1144.000000</ele>
        <time>2015-08-05T09:30:41Z</time>
        <speed>1.492000</speed>
      </trkpt>
      <trkpt lat="46.072209303" lon="7.203785864">
        <ele>1144.000000</ele>
        <time>2015-08-05T09:30:42Z</time>
        <speed>1.433000</speed>
      </trkpt>
      <trkpt lat="46.072186924" lon="7.203778991">
        <ele>1144.400000</ele>
        <time>2015-08-05T09:30:45Z</time>
        <speed>1.503000</speed>
      </trkpt>
      <trkpt lat="46.072179296" lon="7.203787457">
        <ele>1144.800000</ele>
        <time>2015-08-05T09:30:46Z</time>
        <speed>1.447000</speed>
      </trkpt>
      <trkpt lat="46.072172004" lon="7.203798186">
        <ele>1145.200000</ele>
        <time>2015-08-05T09:30:47Z</time>
        <speed>1.474000</speed>
      </trkpt>
      <trkpt lat="46.072163706" lon="7.203804807">
        <ele>1145.600000</ele>
        <time>2015-08-05T09:30:48Z</time>
        <speed>1.474000</speed>
      </trkpt>
      <trkpt lat="46.072159599" lon="7.203808747">
        <ele>1146.000000</ele>
        <time>2015-08-05T09:30:49Z</time>
        <speed>1.420000</speed>
      </trkpt>
      <trkpt lat="46.072130346" lon="7.203847974">
        <ele>1146.000000</ele>
        <time>2015-08-05T09:30:52Z</time>
        <speed>1.470000</speed>
      </trkpt>
      <trkpt lat="46.072079635" lon="7.203906061">
        <ele>1146.000000</ele>
        <time>2015-08-05T09:30:57Z</time>
        <speed>1.473000</speed>
      </trkpt>
      <trkpt lat="46.072071505" lon="7.203920478">
        <ele>1146.000000</ele>
        <time>2015-08-05T09:30:58Z</time>
        <speed>1.473000</speed>
      </trkpt>
      <trkpt lat="46.072055076" lon="7.203946126">
        <ele>1146.400000</ele>
        <time>2015-08-05T09:31:00Z</time>
        <speed>1.488000</speed>
      </trkpt>
      <trkpt lat="46.072045437" lon="7.203962220">
        <ele>1146.800000</ele>
        <time>2015-08-05T09:31:01Z</time>
        <speed>1.488000</speed>
      </trkpt>
      <trkpt lat="46.072034624" lon="7.203979151">
        <ele>1147.400000</ele>
        <time>2015-08-05T09:31:02Z</time>
        <speed>1.496000</speed>
      </trkpt>
      <trkpt lat="46.072024566" lon="7.203994825">
        <ele>1147.800000</ele>
        <time>2015-08-05T09:31:03Z</time>
        <speed>1.477000</speed>
      </trkpt>
      <trkpt lat="46.072015514" lon="7.204011337">
        <ele>1148.200000</ele>
        <time>2015-08-05T09:31:04Z</time>
        <speed>1.446000</speed>
      </trkpt>
      <trkpt lat="46.072008473" lon="7.204024832">
        <ele>1148.200000</ele>
        <time>2015-08-05T09:31:05Z</time>
        <speed>1.446000</speed>
      </trkpt>
      <trkpt lat="46.071970084" lon="7.204110579">
        <ele>1148.600000</ele>
        <time>2015-08-05T09:31:11Z</time>
        <speed>1.511000</speed>
      </trkpt>
      <trkpt lat="46.071959606" lon="7.204130193">
        <ele>1149.000000</ele>
        <time>2015-08-05T09:31:12Z</time>
        <speed>1.453000</speed>
      </trkpt>
      <trkpt lat="46.071948961" lon="7.204152070">
        <ele>1149.400000</ele>
        <time>2015-08-05T09:31:13Z</time>
        <speed>1.463000</speed>
      </trkpt>
      <trkpt lat="46.071934964" lon="7.204168666">
        <ele>1149.800000</ele>
        <time>2015-08-05T09:31:14Z</time>
        <speed>1.485000</speed>
      </trkpt>
      <trkpt lat="46.071918451" lon="7.204181155">
        <ele>1150.200000</ele>
        <time>2015-08-05T09:31:15Z</time>
        <speed>1.485000</speed>
      </trkpt>
      <trkpt lat="46.071868160" lon="7.204226920">
        <ele>1150.200000</ele>
        <time>2015-08-05T09:31:19Z</time>
        <speed>1.544000</speed>
      </trkpt>
      <trkpt lat="46.071794734" lon="7.204293640">
        <ele>1150.200000</ele>
        <time>2015-08-05T09:31:24Z</time>
        <speed>1.855000</speed>
      </trkpt>
      <trkpt lat="46.071759949" lon="7.204319875">
        <ele>1150.600000</ele>
        <time>2015-08-05T09:31:26Z</time>
        <speed>1.875000</speed>
      </trkpt>
      <trkpt lat="46.071743186" lon="7.204330604">
        <ele>1151.000000</ele>
        <time>2015-08-05T09:31:27Z</time>
        <speed>1.967000</speed>
      </trkpt>
      <trkpt lat="46.071725667" lon="7.204344350">
        <ele>1151.400000</ele>
        <time>2015-08-05T09:31:28Z</time>
        <speed>2.192000</speed>
      </trkpt>
      <trkpt lat="46.071707646" lon="7.204357678">
        <ele>1151.800000</ele>
        <time>2015-08-05T09:31:29Z</time>
        <speed>2.157000</speed>
      </trkpt>
      <trkpt lat="46.071691888" lon="7.204370502">
        <ele>1152.200000</ele>
        <time>2015-08-05T09:31:30Z</time>
        <speed>2.528000</speed>
      </trkpt>
      <trkpt lat="46.071677388" lon="7.204386511">
        <ele>1152.200000</ele>
        <time>2015-08-05T09:31:31Z</time>
        <speed>2.549000</speed>
      </trkpt>
      <trkpt lat="46.071585857" lon="7.204509977">
        <ele>1152.200000</ele>
        <time>2015-08-05T09:31:37Z</time>
        <speed>2.693000</speed>
      </trkpt>
      <trkpt lat="46.071509163" lon="7.204641070">
        <ele>1152.200000</ele>
        <time>2015-08-05T09:31:43Z</time>
        <speed>2.470000</speed>
      </trkpt>
      <trkpt lat="46.071407993" lon="7.204770319">
        <ele>1152.200000</ele>
        <time>2015-08-05T09:31:49Z</time>
        <speed>2.439000</speed>
      </trkpt>
      <trkpt lat="46.071382512" lon="7.204804685">
        <ele>1152.600000</ele>
        <time>2015-08-05T09:31:51Z</time>
        <speed>2.305000</speed>
      </trkpt>
      <trkpt lat="46.071375304" lon="7.204829998">
        <ele>1153.200000</ele>
        <time>2015-08-05T09:31:52Z</time>
        <speed>2.281000</speed>
      </trkpt>
      <trkpt lat="46.071370275" lon="7.204856652">
        <ele>1153.600000</ele>
        <time>2015-08-05T09:31:53Z</time>
        <speed>2.283000</speed>
      </trkpt>
      <trkpt lat="46.071362396" lon="7.204881379">
        <ele>1154.000000</ele>
        <time>2015-08-05T09:31:54Z</time>
        <speed>2.250000</speed>
      </trkpt>
      <trkpt lat="46.071354936" lon="7.204909291">
        <ele>1154.400000</ele>
        <time>2015-08-05T09:31:55Z</time>
        <speed>2.303000</speed>
      </trkpt>
      <trkpt lat="46.071315457" lon="7.205028314">
        <ele>1154.400000</ele>
        <time>2015-08-05T09:31:59Z</time>
        <speed>2.278000</speed>
      </trkpt>
      <trkpt lat="46.071246139" lon="7.205238029">
        <ele>1154.400000</ele>
        <time>2015-08-05T09:32:06Z</time>
        <speed>2.525000</speed>
      </trkpt>
      <trkpt lat="46.071138850" lon="7.205329978">
        <ele>1154.400000</ele>
        <time>2015-08-05T09:32:11Z</time>
        <speed>2.960000</speed>
      </trkpt>
      <trkpt lat="46.071025527" lon="7.205405835">
        <ele>1154.400000</ele>
        <time>2015-08-05T09:32:16Z</time>
        <speed>2.660000</speed>
      </trkpt>
      <trkpt lat="46.071004321" lon="7.205426287">
        <ele>1154.400000</ele>
        <time>2015-08-05T09:32:17Z</time>
        <speed>2.611000</speed>
      </trkpt>
      <trkpt lat="46.070922765" lon="7.205462748">
        <ele>1154.400000</ele>
        <time>2015-08-05T09:32:20Z</time>
        <speed>2.850000</speed>
      </trkpt>
      <trkpt lat="46.070892339" lon="7.205475656">
        <ele>1154.400000</ele>
        <time>2015-08-05T09:32:21Z</time>
        <speed>3.161000</speed>
      </trkpt>
      <trkpt lat="46.070862834" lon="7.205488480">
        <ele>1154.400000</ele>
        <time>2015-08-05T09:32:22Z</time>
        <speed>3.223000</speed>
      </trkpt>
      <trkpt lat="46.070654209" lon="7.205587303">
        <ele>1154.400000</ele>
        <time>2015-08-05T09:32:29Z</time>
        <speed>3.720000</speed>
      </trkpt>
      <trkpt lat="46.070526133" lon="7.205661818">
        <ele>1154.400000</ele>
        <time>2015-08-05T09:32:33Z</time>
        <speed>3.917000</speed>
      </trkpt>
      <trkpt lat="46.070392861" lon="7.205764664">
        <ele>1154.400000</ele>
        <time>2015-08-05T09:32:37Z</time>
        <speed>4.233000</speed>
      </trkpt>
      <trkpt lat="46.070231677" lon="7.205960884">
        <ele>1154.400000</ele>
        <time>2015-08-05T09:32:43Z</time>
        <speed>4.128000</speed>
      </trkpt>
      <trkpt lat="46.070168980" lon="7.206152830">
        <ele>1154.400000</ele>
        <time>2015-08-05T09:32:48Z</time>
        <speed>3.507000</speed>
      </trkpt>
      <trkpt lat="46.070141655" lon="7.206264477">
        <ele>1154.800000</ele>
        <time>2015-08-05T09:32:51Z</time>
        <speed>3.097000</speed>
      </trkpt>
      <trkpt lat="46.070134782" lon="7.206299010">
        <ele>1155.200000</ele>
        <time>2015-08-05T09:32:52Z</time>
        <speed>2.952000</speed>
      </trkpt>
      <trkpt lat="46.070127825" lon="7.206329604">
        <ele>1155.600000</ele>
        <time>2015-08-05T09:32:53Z</time>
        <speed>2.920000</speed>
      </trkpt>
      <trkpt lat="46.070120868" lon="7.206360031">
        <ele>1156.000000</ele>
        <time>2015-08-05T09:32:54Z</time>
        <speed>2.835000</speed>
      </trkpt>
      <trkpt lat="46.070116007" lon="7.206391714">
        <ele>1156.400000</ele>
        <time>2015-08-05T09:32:55Z</time>
        <speed>2.650000</speed>
      </trkpt>
      <trkpt lat="46.070072086" lon="7.206539068">
        <ele>1156.400000</ele>
        <time>2015-08-05T09:33:00Z</time>
        <speed>2.567000</speed>
      </trkpt>
      <trkpt lat="46.070017268" lon="7.206629928">
        <ele>1157.000000</ele>
        <time>2015-08-05T09:33:05Z</time>
        <speed>1.942000</speed>
      </trkpt>
      <trkpt lat="46.070001761" lon="7.206642417">
        <ele>1157.400000</ele>
        <time>2015-08-05T09:33:06Z</time>
        <speed>1.944000</speed>
      </trkpt>
      <trkpt lat="46.069985584" lon="7.206652559">
        <ele>1157.800000</ele>
        <time>2015-08-05T09:33:07Z</time>
        <speed>1.944000</speed>
      </trkpt>
      <trkpt lat="46.069970832" lon="7.206662617">
        <ele>1158.200000</ele>
        <time>2015-08-05T09:33:08Z</time>
        <speed>1.967000</speed>
      </trkpt>
      <trkpt lat="46.069957337" lon="7.206675525">
        <ele>1158.600000</ele>
        <time>2015-08-05T09:33:09Z</time>
        <speed>1.930000</speed>
      </trkpt>
      <trkpt lat="46.069898999" lon="7.206706958">
        <ele>1158.600000</ele>
        <time>2015-08-05T09:33:13Z</time>
        <speed>1.978000</speed>
      </trkpt>
      <trkpt lat="46.069825490" lon="7.206752220">
        <ele>1158.600000</ele>
        <time>2015-08-05T09:33:18Z</time>
        <speed>1.889000</speed>
      </trkpt>
      <trkpt lat="46.069814258" lon="7.206764122">
        <ele>1159.200000</ele>
        <time>2015-08-05T09:33:19Z</time>
        <speed>1.817000</speed>
      </trkpt>
      <trkpt lat="46.069801518" lon="7.206776611">
        <ele>1159.600000</ele>
        <time>2015-08-05T09:33:20Z</time>
        <speed>1.836000</speed>
      </trkpt>
      <trkpt lat="46.069787436" lon="7.206790357">
        <ele>1160.000000</ele>
        <time>2015-08-05T09:33:21Z</time>
        <speed>1.824000</speed>
      </trkpt>
      <trkpt lat="46.069774277" lon="7.206802679">
        <ele>1160.400000</ele>
        <time>2015-08-05T09:33:22Z</time>
        <speed>1.831000</speed>
      </trkpt>
      <trkpt lat="46.069762123" lon="7.206817599">
        <ele>1160.800000</ele>
        <time>2015-08-05T09:33:23Z</time>
        <speed>1.691000</speed>
      </trkpt>
      <trkpt lat="46.069704707" lon="7.206875434">
        <ele>1160.800000</ele>
        <time>2015-08-05T09:33:28Z</time>
        <speed>1.705000</speed>
      </trkpt>
      <trkpt lat="46.069668413" lon="7.206905525">
        <ele>1161.200000</ele>
        <time>2015-08-05T09:33:31Z</time>
        <speed>1.771000</speed>
      </trkpt>
      <trkpt lat="46.069656343" lon="7.206912649">
        <ele>1161.600000</ele>
        <time>2015-08-05T09:33:32Z</time>
        <speed>1.734000</speed>
      </trkpt>
      <trkpt lat="46.069644022" lon="7.206921450">
        <ele>1162.000000</ele>
        <time>2015-08-05T09:33:33Z</time>
        <speed>1.584000</speed>
      </trkpt>
      <trkpt lat="46.069631449" lon="7.206931341">
        <ele>1162.400000</ele>
        <time>2015-08-05T09:33:34Z</time>
        <speed>1.614000</speed>
      </trkpt>
      <trkpt lat="46.069619463" lon="7.206941483">
        <ele>1162.800000</ele>
        <time>2015-08-05T09:33:35Z</time>
        <speed>1.614000</speed>
      </trkpt>
      <trkpt lat="46.069529190" lon="7.206981297">
        <ele>1162.800000</ele>
        <time>2015-08-05T09:33:42Z</time>
        <speed>1.596000</speed>
      </trkpt>
      <trkpt lat="46.069492058" lon="7.206997223">
        <ele>1163.200000</ele>
        <time>2015-08-05T09:33:45Z</time>
        <speed>1.568000</speed>
      </trkpt>
      <trkpt lat="46.069479485" lon="7.206998229">
        <ele>1163.600000</ele>
        <time>2015-08-05T09:33:46Z</time>
        <speed>1.609000</speed>
      </trkpt>
      <trkpt lat="46.069467415" lon="7.207004012">
        <ele>1164.000000</ele>
        <time>2015-08-05T09:33:47Z</time>
        <speed>1.592000</speed>
      </trkpt>
      <trkpt lat="46.069453501" lon="7.207015160">
        <ele>1164.400000</ele>
        <time>2015-08-05T09:33:48Z</time>
        <speed>1.592000</speed>
      </trkpt>
      <trkpt lat="46.069444533" lon="7.207024045">
        <ele>1164.800000</ele>
        <time>2015-08-05T09:33:49Z</time>
        <speed>1.546000</speed>
      </trkpt>
      <trkpt lat="46.069367251" lon="7.207078443">
        <ele>1164.800000</ele>
        <time>2015-08-05T09:33:55Z</time>
        <speed>1.578000</speed>
      </trkpt>
      <trkpt lat="46.069355014" lon="7.207083808">
        <ele>1164.800000</ele>
        <time>2015-08-05T09:33:56Z</time>
        <speed>1.578000</speed>
      </trkpt>
      <trkpt lat="46.069341854" lon="7.207084562">
        <ele>1165.200000</ele>
        <time>2015-08-05T09:33:57Z</time>
        <speed>1.624000</speed>
      </trkpt>
      <trkpt lat="46.069326096" lon="7.207086825">
        <ele>1165.600000</ele>
        <time>2015-08-05T09:33:58Z</time>
        <speed>1.695000</speed>
      </trkpt>
      <trkpt lat="46.069312685" lon="7.207088921">
        <ele>1166.000000</ele>
        <time>2015-08-05T09:33:59Z</time>
        <speed>1.590000</speed>
      </trkpt>
      <trkpt lat="46.069298939" lon="7.207091855">
        <ele>1166.400000</ele>
        <time>2015-08-05T09:34:00Z</time>
        <speed>1.664000</speed>
      </trkpt>
      <trkpt lat="46.069288210" lon="7.207101242">
        <ele>1166.800000</ele>
        <time>2015-08-05T09:34:01Z</time>
        <speed>1.664000</speed>
      </trkpt>
      <trkpt lat="46.069194836" lon="7.207163687">
        <ele>1166.800000</ele>
        <time>2015-08-05T09:34:09Z</time>
        <speed>1.561000</speed>
      </trkpt>
      <trkpt lat="46.069150412" lon="7.207208279">
        <ele>1167.200000</ele>
        <time>2015-08-05T09:34:13Z</time>
        <speed>1.547000</speed>
      </trkpt>
      <trkpt lat="46.069137671" lon="7.207221020">
        <ele>1168.200000</ele>
        <time>2015-08-05T09:34:14Z</time>
        <speed>1.530000</speed>
      </trkpt>
      <trkpt lat="46.069127361" lon="7.207234682">
        <ele>1168.600000</ele>
        <time>2015-08-05T09:34:15Z</time>
        <speed>1.523000</speed>
      </trkpt>
      <trkpt lat="46.069119231" lon="7.207249099">
        <ele>1169.000000</ele>
        <time>2015-08-05T09:34:16Z</time>
        <speed>1.523000</speed>
      </trkpt>
      <trkpt lat="46.069100455" lon="7.207268377">
        <ele>1169.000000</ele>
        <time>2015-08-05T09:34:18Z</time>
        <speed>1.544000</speed>
      </trkpt>
      <trkpt lat="46.069067598" lon="7.207293775">
        <ele>1169.000000</ele>
        <time>2015-08-05T09:34:21Z</time>
        <speed>1.713000</speed>
      </trkpt>
      <trkpt lat="46.069025521" lon="7.207308024">
        <ele>1169.400000</ele>
        <time>2015-08-05T09:34:24Z</time>
        <speed>1.631000</speed>
      </trkpt>
      <trkpt lat="46.069011104" lon="7.207313221">
        <ele>1169.800000</ele>
        <time>2015-08-05T09:34:25Z</time>
        <speed>1.570000</speed>
      </trkpt>
      <trkpt lat="46.068996268" lon="7.207316573">
        <ele>1170.200000</ele>
        <time>2015-08-05T09:34:26Z</time>
        <speed>1.574000</speed>
      </trkpt>
      <trkpt lat="46.068982857" lon="7.207320261">
        <ele>1170.800000</ele>
        <time>2015-08-05T09:34:27Z</time>
        <speed>1.578000</speed>
      </trkpt>
      <trkpt lat="46.068968524" lon="7.207324871">
        <ele>1171.200000</ele>
        <time>2015-08-05T09:34:28Z</time>
        <speed>1.652000</speed>
      </trkpt>
      <trkpt lat="46.068888645" lon="7.207338785">
        <ele>1171.200000</ele>
        <time>2015-08-05T09:34:33Z</time>
        <speed>1.759000</speed>
      </trkpt>
      <trkpt lat="46.068778674" lon="7.207375582">
        <ele>1171.600000</ele>
        <time>2015-08-05T09:34:40Z</time>
        <speed>1.817000</speed>
      </trkpt>
      <trkpt lat="46.068764509" lon="7.207381617">
        <ele>1172.000000</ele>
        <time>2015-08-05T09:34:41Z</time>
        <speed>1.831000</speed>
      </trkpt>
      <trkpt lat="46.068750343" lon="7.207391005">
        <ele>1172.400000</ele>
        <time>2015-08-05T09:34:42Z</time>
        <speed>1.754000</speed>
      </trkpt>
      <trkpt lat="46.068737854" lon="7.207396537">
        <ele>1172.800000</ele>
        <time>2015-08-05T09:34:43Z</time>
        <speed>1.754000</speed>
      </trkpt>
      <trkpt lat="46.068722683" lon="7.207403494">
        <ele>1173.200000</ele>
        <time>2015-08-05T09:34:44Z</time>
        <speed>1.838000</speed>
      </trkpt>
      <trkpt lat="46.068678846" lon="7.207438446">
        <ele>1173.200000</ele>
        <time>2015-08-05T09:34:48Z</time>
        <speed>1.650000</speed>
      </trkpt>
      <trkpt lat="46.068615227" lon="7.207491587">
        <ele>1173.600000</ele>
        <time>2015-08-05T09:34:54Z</time>
        <speed>1.593000</speed>
      </trkpt>
      <trkpt lat="46.068608186" lon="7.207504915">
        <ele>1174.000000</ele>
        <time>2015-08-05T09:34:55Z</time>
        <speed>1.593000</speed>
      </trkpt>
      <trkpt lat="46.068600307" lon="7.207516230">
        <ele>1174.400000</ele>
        <time>2015-08-05T09:34:56Z</time>
        <speed>1.586000</speed>
      </trkpt>
      <trkpt lat="46.068590333" lon="7.207529557">
        <ele>1174.800000</ele>
        <time>2015-08-05T09:34:57Z</time>
        <speed>1.586000</speed>
      </trkpt>
      <trkpt lat="46.068579185" lon="7.207546154">
        <ele>1175.200000</ele>
        <time>2015-08-05T09:34:58Z</time>
        <speed>1.550000</speed>
      </trkpt>
      <trkpt lat="46.068534845" lon="7.207612957">
        <ele>1175.200000</ele>
        <time>2015-08-05T09:35:02Z</time>
        <speed>1.521000</speed>
      </trkpt>
      <trkpt lat="46.068511124" lon="7.207665177">
        <ele>1175.600000</ele>
        <time>2015-08-05T09:35:05Z</time>
        <speed>1.577000</speed>
      </trkpt>
      <trkpt lat="46.068500814" lon="7.207678085">
        <ele>1176.000000</ele>
        <time>2015-08-05T09:35:06Z</time>
        <speed>1.578000</speed>
      </trkpt>
      <trkpt lat="46.068490923" lon="7.207696860">
        <ele>1176.600000</ele>
        <time>2015-08-05T09:35:07Z</time>
        <speed>1.579000</speed>
      </trkpt>
      <trkpt lat="46.068478015" lon="7.207709852">
        <ele>1177.000000</ele>
        <time>2015-08-05T09:35:08Z</time>
        <speed>1.592000</speed>
      </trkpt>
      <trkpt lat="46.068465275" lon="7.207718821">
        <ele>1177.400000</ele>
        <time>2015-08-05T09:35:09Z</time>
        <speed>1.592000</speed>
      </trkpt>
      <trkpt lat="46.068452702" lon="7.207732735">
        <ele>1177.400000</ele>
        <time>2015-08-05T09:35:10Z</time>
        <speed>1.616000</speed>
      </trkpt>
      <trkpt lat="46.068355388" lon="7.207800880">
        <ele>1177.800000</ele>
        <time>2015-08-05T09:35:18Z</time>
        <speed>1.547000</speed>
      </trkpt>
      <trkpt lat="46.068340049" lon="7.207805154">
        <ele>1178.200000</ele>
        <time>2015-08-05T09:35:19Z</time>
        <speed>1.689000</speed>
      </trkpt>
      <trkpt lat="46.068325297" lon="7.207812195">
        <ele>1178.600000</ele>
        <time>2015-08-05T09:35:20Z</time>
        <speed>1.670000</speed>
      </trkpt>
      <trkpt lat="46.068310377" lon="7.207820074">
        <ele>1179.000000</ele>
        <time>2015-08-05T09:35:21Z</time>
        <speed>1.679000</speed>
      </trkpt>
      <trkpt lat="46.068295877" lon="7.207823678">
        <ele>1179.400000</ele>
        <time>2015-08-05T09:35:22Z</time>
        <speed>1.679000</speed>
      </trkpt>
      <trkpt lat="46.068235108" lon="7.207860475">
        <ele>1179.400000</ele>
        <time>2015-08-05T09:35:27Z</time>
        <speed>1.674000</speed>
      </trkpt>
      <trkpt lat="46.068145002" lon="7.207907581">
        <ele>1179.800000</ele>
        <time>2015-08-05T09:35:33Z</time>
        <speed>1.717000</speed>
      </trkpt>
      <trkpt lat="46.068132262" lon="7.207909928">
        <ele>1180.200000</ele>
        <time>2015-08-05T09:35:34Z</time>
        <speed>1.701000</speed>
      </trkpt>
      <trkpt lat="46.068118683" lon="7.207918645">
        <ele>1180.600000</ele>
        <time>2015-08-05T09:35:35Z</time>
        <speed>1.860000</speed>
      </trkpt>
      <trkpt lat="46.068106278" lon="7.207919903">
        <ele>1181.000000</ele>
        <time>2015-08-05T09:35:36Z</time>
        <speed>1.783000</speed>
      </trkpt>
      <trkpt lat="46.068091526" lon="7.207920573">
        <ele>1181.400000</ele>
        <time>2015-08-05T09:35:37Z</time>
        <speed>1.768000</speed>
      </trkpt>
      <trkpt lat="46.068026063" lon="7.207927446">
        <ele>1181.400000</ele>
        <time>2015-08-05T09:35:41Z</time>
        <speed>1.920000</speed>
      </trkpt>
      <trkpt lat="46.067921876" lon="7.207956783">
        <ele>1181.400000</ele>
        <time>2015-08-05T09:35:48Z</time>
        <speed>1.827000</speed>
      </trkpt>
      <trkpt lat="46.067892456" lon="7.207976648">
        <ele>1181.800000</ele>
        <time>2015-08-05T09:35:50Z</time>
        <speed>1.771000</speed>
      </trkpt>
      <trkpt lat="46.067877117" lon="7.207984443">
        <ele>1182.200000</ele>
        <time>2015-08-05T09:35:51Z</time>
        <speed>1.710000</speed>
      </trkpt>
      <trkpt lat="46.067864460" lon="7.207996765">
        <ele>1182.600000</ele>
        <time>2015-08-05T09:35:52Z</time>
        <speed>1.768000</speed>
      </trkpt>
      <trkpt lat="46.067853061" lon="7.208003806">
        <ele>1183.400000</ele>
        <time>2015-08-05T09:35:53Z</time>
        <speed>1.768000</speed>
      </trkpt>
      <trkpt lat="46.067830597" lon="7.208017971">
        <ele>1183.400000</ele>
        <time>2015-08-05T09:35:55Z</time>
        <speed>1.643000</speed>
      </trkpt>
      <trkpt lat="46.067777456" lon="7.208101119">
        <ele>1183.800000</ele>
        <time>2015-08-05T09:36:01Z</time>
        <speed>1.531000</speed>
      </trkpt>
      <trkpt lat="46.067765302" lon="7.208112938">
        <ele>1184.200000</ele>
        <time>2015-08-05T09:36:02Z</time>
        <speed>1.575000</speed>
      </trkpt>
      <trkpt lat="46.067754657" lon="7.208127606">
        <ele>1184.800000</ele>
        <time>2015-08-05T09:36:03Z</time>
        <speed>1.492000</speed>
      </trkpt>
      <trkpt lat="46.067743006" lon="7.208142526">
        <ele>1185.200000</ele>
        <time>2015-08-05T09:36:04Z</time>
        <speed>1.492000</speed>
      </trkpt>
      <trkpt lat="46.067732613" lon="7.208155853">
        <ele>1185.600000</ele>
        <time>2015-08-05T09:36:05Z</time>
        <speed>1.478000</speed>
      </trkpt>
      <trkpt lat="46.067694056" lon="7.208166331">
        <ele>1185.600000</ele>
        <time>2015-08-05T09:36:08Z</time>
        <speed>1.614000</speed>
      </trkpt>
      <trkpt lat="46.067670838" lon="7.208149735">
        <ele>1185.600000</ele>
        <time>2015-08-05T09:36:10Z</time>
        <speed>1.474000</speed>
      </trkpt>
      <trkpt lat="46.067669665" lon="7.208092654">
        <ele>1185.600000</ele>
        <time>2015-08-05T09:36:13Z</time>
        <speed>1.492000</speed>
      </trkpt>
      <trkpt lat="46.067673520" lon="7.208076896">
        <ele>1185.600000</ele>
        <time>2015-08-05T09:36:14Z</time>
        <speed>1.496000</speed>
      </trkpt>
      <trkpt lat="46.067680561" lon="7.208060467">
        <ele>1186.000000</ele>
        <time>2015-08-05T09:36:15Z</time>
        <speed>1.496000</speed>
      </trkpt>
      <trkpt lat="46.067688356" lon="7.208045464">
        <ele>1186.400000</ele>
        <time>2015-08-05T09:36:16Z</time>
        <speed>1.503000</speed>
      </trkpt>
      <trkpt lat="46.067698247" lon="7.208032975">
        <ele>1186.800000</ele>
        <time>2015-08-05T09:36:17Z</time>
        <speed>1.590000</speed>
      </trkpt>
      <trkpt lat="46.067707132" lon="7.208020653">
        <ele>1187.600000</ele>
        <time>2015-08-05T09:36:18Z</time>
        <speed>1.589000</speed>
      </trkpt>
      <trkpt lat="46.067722638" lon="7.207995591">
        <ele>1187.600000</ele>
        <time>2015-08-05T09:36:20Z</time>
        <speed>1.586000</speed>
      </trkpt>
      <trkpt lat="46.067788604" lon="7.207890818">
        <ele>1187.600000</ele>
        <time>2015-08-05T09:36:27Z</time>
        <speed>1.652000</speed>
      </trkpt>
      <trkpt lat="46.067795225" lon="7.207873216">
        <ele>1187.600000</ele>
        <time>2015-08-05T09:36:28Z</time>
        <speed>1.652000</speed>
      </trkpt>
      <trkpt lat="46.067809139" lon="7.207841951">
        <ele>1188.000000</ele>
        <time>2015-08-05T09:36:30Z</time>
        <speed>1.697000</speed>
      </trkpt>
      <trkpt lat="46.067817521" lon="7.207825606">
        <ele>1188.600000</ele>
        <time>2015-08-05T09:36:31Z</time>
        <speed>1.661000</speed>
      </trkpt>
      <trkpt lat="46.067827161" lon="7.207811609">
        <ele>1189.000000</ele>
        <time>2015-08-05T09:36:32Z</time>
        <speed>1.661000</speed>
      </trkpt>
      <trkpt lat="46.067837470" lon="7.207798365">
        <ele>1189.400000</ele>
        <time>2015-08-05T09:36:33Z</time>
        <speed>1.620000</speed>
      </trkpt>
      <trkpt lat="46.067847948" lon="7.207786128">
        <ele>1189.800000</ele>
        <time>2015-08-05T09:36:34Z</time>
        <speed>1.569000</speed>
      </trkpt>
      <trkpt lat="46.067857503" lon="7.207772214">
        <ele>1189.800000</ele>
        <time>2015-08-05T09:36:35Z</time>
        <speed>1.534000</speed>
      </trkpt>
      <trkpt lat="46.067936461" lon="7.207683785">
        <ele>1189.800000</ele>
        <time>2015-08-05T09:36:43Z</time>
        <speed>1.474000</speed>
      </trkpt>
      <trkpt lat="46.067978705" lon="7.207632823">
        <ele>1190.200000</ele>
        <time>2015-08-05T09:36:47Z</time>
        <speed>1.584000</speed>
      </trkpt>
      <trkpt lat="46.067990440" lon="7.207620920">
        <ele>1190.600000</ele>
        <time>2015-08-05T09:36:48Z</time>
        <speed>1.497000</speed>
      </trkpt>
      <trkpt lat="46.068001420" lon="7.207608096">
        <ele>1191.000000</ele>
        <time>2015-08-05T09:36:49Z</time>
        <speed>1.497000</speed>
      </trkpt>
      <trkpt lat="46.068012484" lon="7.207594266">
        <ele>1191.600000</ele>
        <time>2015-08-05T09:36:50Z</time>
        <speed>1.519000</speed>
      </trkpt>
      <trkpt lat="46.068022207" lon="7.207582363">
        <ele>1192.000000</ele>
        <time>2015-08-05T09:36:51Z</time>
        <speed>1.562000</speed>
      </trkpt>
      <trkpt lat="46.068100662" lon="7.207509189">
        <ele>1192.000000</ele>
        <time>2015-08-05T09:36:58Z</time>
        <speed>1.562000</speed>
      </trkpt>
      <trkpt lat="46.068143577" lon="7.207460491">
        <ele>1192.400000</ele>
        <time>2015-08-05T09:37:02Z</time>
        <speed>1.576000</speed>
      </trkpt>
      <trkpt lat="46.068153300" lon="7.207449007">
        <ele>1192.800000</ele>
        <time>2015-08-05T09:37:03Z</time>
        <speed>1.551000</speed>
      </trkpt>
      <trkpt lat="46.068167466" lon="7.207440123">
        <ele>1193.200000</ele>
        <time>2015-08-05T09:37:04Z</time>
        <speed>1.515000</speed>
      </trkpt>
      <trkpt lat="46.068180374" lon="7.207429394">
        <ele>1193.600000</ele>
        <time>2015-08-05T09:37:05Z</time>
        <speed>1.577000</speed>
      </trkpt>
      <trkpt lat="46.068190013" lon="7.207416821">
        <ele>1194.200000</ele>
        <time>2015-08-05T09:37:06Z</time>
        <speed>1.577000</speed>
      </trkpt>
      <trkpt lat="46.068257990" lon="7.207332750">
        <ele>1194.200000</ele>
        <time>2015-08-05T09:37:12Z</time>
        <speed>1.657000</speed>
      </trkpt>
      <trkpt lat="46.068298894" lon="7.207271395">
        <ele>1194.600000</ele>
        <time>2015-08-05T09:37:16Z</time>
        <speed>1.691000</speed>
      </trkpt>
      <trkpt lat="46.068313311" lon="7.207256056">
        <ele>1195.000000</ele>
        <time>2015-08-05T09:37:17Z</time>
        <speed>1.745000</speed>
      </trkpt>
      <trkpt lat="46.068319178" lon="7.207235604">
        <ele>1195.400000</ele>
        <time>2015-08-05T09:37:18Z</time>
        <speed>1.824000</speed>
      </trkpt>
      <trkpt lat="46.068323453" lon="7.207219511">
        <ele>1195.800000</ele>
        <time>2015-08-05T09:37:19Z</time>
        <speed>1.871000</speed>
      </trkpt>
      <trkpt lat="46.068330075" lon="7.207200233">
        <ele>1196.200000</ele>
        <time>2015-08-05T09:37:20Z</time>
        <speed>1.845000</speed>
      </trkpt>
      <trkpt lat="46.068349521" lon="7.207169136">
        <ele>1196.200000</ele>
        <time>2015-08-05T09:37:22Z</time>
        <speed>1.822000</speed>
      </trkpt>
      <trkpt lat="46.068372739" lon="7.207134267">
        <ele>1196.200000</ele>
        <time>2015-08-05T09:37:24Z</time>
        <speed>1.796000</speed>
      </trkpt>
      <trkpt lat="46.068397046" lon="7.207070313">
        <ele>1196.200000</ele>
        <time>2015-08-05T09:37:28Z</time>
        <speed>1.601000</speed>
      </trkpt>
      <trkpt lat="46.068410876" lon="7.207041395">
        <ele>1196.200000</ele>
        <time>2015-08-05T09:37:30Z</time>
        <speed>1.610000</speed>
      </trkpt>
      <trkpt lat="46.068418839" lon="7.207023710">
        <ele>1196.600000</ele>
        <time>2015-08-05T09:37:31Z</time>
        <speed>1.556000</speed>
      </trkpt>
      <trkpt lat="46.068430071" lon="7.207007449">
        <ele>1197.600000</ele>
        <time>2015-08-05T09:37:32Z</time>
        <speed>1.570000</speed>
      </trkpt>
      <trkpt lat="46.068440967" lon="7.206991775">
        <ele>1198.000000</ele>
        <time>2015-08-05T09:37:33Z</time>
        <speed>1.570000</speed>
      </trkpt>
      <trkpt lat="46.068449768" lon="7.206978950">
        <ele>1198.400000</ele>
        <time>2015-08-05T09:37:34Z</time>
        <speed>1.495000</speed>
      </trkpt>
      <trkpt lat="46.068466951" lon="7.206949027">
        <ele>1198.400000</ele>
        <time>2015-08-05T09:37:36Z</time>
        <speed>1.500000</speed>
      </trkpt>
      <trkpt lat="46.068489163" lon="7.206902759">
        <ele>1198.800000</ele>
        <time>2015-08-05T09:37:39Z</time>
        <speed>1.521000</speed>
      </trkpt>
      <trkpt lat="46.068493354" lon="7.206883229">
        <ele>1199.200000</ele>
        <time>2015-08-05T09:37:40Z</time>
        <speed>1.521000</speed>
      </trkpt>
      <trkpt lat="46.068500395" lon="7.206864202">
        <ele>1199.600000</ele>
        <time>2015-08-05T09:37:41Z</time>
        <speed>1.496000</speed>
      </trkpt>
      <trkpt lat="46.068510789" lon="7.206848528">
        <ele>1200.000000</ele>
        <time>2015-08-05T09:37:42Z</time>
        <speed>1.499000</speed>
      </trkpt>
      <trkpt lat="46.068519925" lon="7.206836542">
        <ele>1200.400000</ele>
        <time>2015-08-05T09:37:43Z</time>
        <speed>1.500000</speed>
      </trkpt>
      <trkpt lat="46.068566277" lon="7.206710143">
        <ele>1200.400000</ele>
        <time>2015-08-05T09:37:50Z</time>
        <speed>1.627000</speed>
      </trkpt>
      <trkpt lat="46.068578682" lon="7.206676364">
        <ele>1200.800000</ele>
        <time>2015-08-05T09:37:53Z</time>
        <speed>1.611000</speed>
      </trkpt>
      <trkpt lat="46.068581867" lon="7.206660522">
        <ele>1201.200000</ele>
        <time>2015-08-05T09:37:54Z</time>
        <speed>1.499000</speed>
      </trkpt>
      <trkpt lat="46.068585723" lon="7.206641327">
        <ele>1201.600000</ele>
        <time>2015-08-05T09:37:55Z</time>
        <speed>1.529000</speed>
      </trkpt>
      <trkpt lat="46.068588656" lon="7.206626575">
        <ele>1202.000000</ele>
        <time>2015-08-05T09:37:56Z</time>
        <speed>1.529000</speed>
      </trkpt>
      <trkpt lat="46.068595530" lon="7.206611069">
        <ele>1202.400000</ele>
        <time>2015-08-05T09:37:57Z</time>
        <speed>1.543000</speed>
      </trkpt>
      <trkpt lat="46.068632829" lon="7.206521969">
        <ele>1202.400000</ele>
        <time>2015-08-05T09:38:02Z</time>
        <speed>1.728000</speed>
      </trkpt>
      <trkpt lat="46.068656466" lon="7.206435719">
        <ele>1203.000000</ele>
        <time>2015-08-05T09:38:07Z</time>
        <speed>1.678000</speed>
      </trkpt>
      <trkpt lat="46.068661244" lon="7.206416608">
        <ele>1203.400000</ele>
        <time>2015-08-05T09:38:08Z</time>
        <speed>1.668000</speed>
      </trkpt>
      <trkpt lat="46.068668787" lon="7.206401018">
        <ele>1203.800000</ele>
        <time>2015-08-05T09:38:09Z</time>
        <speed>1.668000</speed>
      </trkpt>
      <trkpt lat="46.068675241" lon="7.206391882">
        <ele>1204.200000</ele>
        <time>2015-08-05T09:38:10Z</time>
        <speed>1.664000</speed>
      </trkpt>
      <trkpt lat="46.068679935" lon="7.206375956">
        <ele>1204.600000</ele>
        <time>2015-08-05T09:38:11Z</time>
        <speed>1.657000</speed>
      </trkpt>
      <trkpt lat="46.068687731" lon="7.206343015">
        <ele>1204.600000</ele>
        <time>2015-08-05T09:38:13Z</time>
        <speed>1.632000</speed>
      </trkpt>
      <trkpt lat="46.068691419" lon="7.206289203">
        <ele>1204.600000</ele>
        <time>2015-08-05T09:38:16Z</time>
        <speed>1.693000</speed>
      </trkpt>
      <trkpt lat="46.068724443" lon="7.206180071">
        <ele>1205.400000</ele>
        <time>2015-08-05T09:38:21Z</time>
        <speed>1.666000</speed>
      </trkpt>
      <trkpt lat="46.068726958" lon="7.206154674">
        <ele>1205.800000</ele>
        <time>2015-08-05T09:38:22Z</time>
        <speed>1.720000</speed>
      </trkpt>
      <trkpt lat="46.068732322" lon="7.206132462">
        <ele>1206.200000</ele>
        <time>2015-08-05T09:38:23Z</time>
        <speed>1.720000</speed>
      </trkpt>
      <trkpt lat="46.068740872" lon="7.206110501">
        <ele>1206.600000</ele>
        <time>2015-08-05T09:38:24Z</time>
        <speed>1.652000</speed>
      </trkpt>
      <trkpt lat="46.068772472" lon="7.206037998">
        <ele>1206.600000</ele>
        <time>2015-08-05T09:38:28Z</time>
        <speed>1.580000</speed>
      </trkpt>
      <trkpt lat="46.068788062" lon="7.205999106">
        <ele>1206.600000</ele>
        <time>2015-08-05T09:38:30Z</time>
        <speed>1.687000</speed>
      </trkpt>
      <trkpt lat="46.068823517" lon="7.205962561">
        <ele>1207.000000</ele>
        <time>2015-08-05T09:38:33Z</time>
        <speed>1.645000</speed>
      </trkpt>
      <trkpt lat="46.068833324" lon="7.205944623">
        <ele>1207.600000</ele>
        <time>2015-08-05T09:38:34Z</time>
        <speed>1.686000</speed>
      </trkpt>
      <trkpt lat="46.068839527" lon="7.205926770">
        <ele>1208.000000</ele>
        <time>2015-08-05T09:38:35Z</time>
        <speed>1.734000</speed>
      </trkpt>
      <trkpt lat="46.068842712" lon="7.205903301">
        <ele>1208.400000</ele>
        <time>2015-08-05T09:38:36Z</time>
        <speed>1.713000</speed>
      </trkpt>
      <trkpt lat="46.068848579" lon="7.205881508">
        <ele>1208.800000</ele>
        <time>2015-08-05T09:38:37Z</time>
        <speed>1.709000</speed>
      </trkpt>
      <trkpt lat="46.068863248" lon="7.205840855">
        <ele>1208.800000</ele>
        <time>2015-08-05T09:38:39Z</time>
        <speed>1.729000</speed>
      </trkpt>
      <trkpt lat="46.068889315" lon="7.205807663">
        <ele>1208.800000</ele>
        <time>2015-08-05T09:38:41Z</time>
        <speed>1.813000</speed>
      </trkpt>
      <trkpt lat="46.068929213" lon="7.205764245">
        <ele>1208.800000</ele>
        <time>2015-08-05T09:38:44Z</time>
        <speed>1.768000</speed>
      </trkpt>
      <trkpt lat="46.068956203" lon="7.205736668">
        <ele>1209.200000</ele>
        <time>2015-08-05T09:38:46Z</time>
        <speed>1.731000</speed>
      </trkpt>
      <trkpt lat="46.068970033" lon="7.205720994">
        <ele>1209.600000</ele>
        <time>2015-08-05T09:38:47Z</time>
        <speed>1.672000</speed>
      </trkpt>
      <trkpt lat="46.068982354" lon="7.205706577">
        <ele>1210.000000</ele>
        <time>2015-08-05T09:38:48Z</time>
        <speed>1.685000</speed>
      </trkpt>
      <trkpt lat="46.068994676" lon="7.205691155">
        <ele>1210.400000</ele>
        <time>2015-08-05T09:38:49Z</time>
        <speed>1.685000</speed>
      </trkpt>
      <trkpt lat="46.069004902" lon="7.205678330">
        <ele>1210.800000</ele>
        <time>2015-08-05T09:38:50Z</time>
        <speed>1.622000</speed>
      </trkpt>
      <trkpt lat="46.069046979" lon="7.205616053">
        <ele>1210.800000</ele>
        <time>2015-08-05T09:38:54Z</time>
        <speed>1.775000</speed>
      </trkpt>
      <trkpt lat="46.069093834" lon="7.205505412">
        <ele>1211.200000</ele>
        <time>2015-08-05T09:39:00Z</time>
        <speed>1.691000</speed>
      </trkpt>
      <trkpt lat="46.069098276" lon="7.205486636">
        <ele>1211.600000</ele>
        <time>2015-08-05T09:39:01Z</time>
        <speed>1.682000</speed>
      </trkpt>
      <trkpt lat="46.069103724" lon="7.205468196">
        <ele>1212.000000</ele>
        <time>2015-08-05T09:39:02Z</time>
        <speed>1.553000</speed>
      </trkpt>
      <trkpt lat="46.069110598" lon="7.205451348">
        <ele>1212.400000</ele>
        <time>2015-08-05T09:39:03Z</time>
        <speed>1.580000</speed>
      </trkpt>
      <trkpt lat="46.069114286" lon="7.205432489">
        <ele>1212.800000</ele>
        <time>2015-08-05T09:39:04Z</time>
        <speed>1.580000</speed>
      </trkpt>
      <trkpt lat="46.069128702" lon="7.205363674">
        <ele>1212.800000</ele>
        <time>2015-08-05T09:39:08Z</time>
        <speed>1.601000</speed>
      </trkpt>
      <trkpt lat="46.069144712" lon="7.205301564">
        <ele>1213.200000</ele>
        <time>2015-08-05T09:39:12Z</time>
        <speed>1.464000</speed>
      </trkpt>
      <trkpt lat="46.069147394" lon="7.205282788">
        <ele>1213.600000</ele>
        <time>2015-08-05T09:39:13Z</time>
        <speed>1.574000</speed>
      </trkpt>
      <trkpt lat="46.069148903" lon="7.205267198">
        <ele>1214.000000</ele>
        <time>2015-08-05T09:39:14Z</time>
        <speed>1.558000</speed>
      </trkpt>
      <trkpt lat="46.069151920" lon="7.205250769">
        <ele>1214.600000</ele>
        <time>2015-08-05T09:39:15Z</time>
        <speed>1.577000</speed>
      </trkpt>
      <trkpt lat="46.069155525" lon="7.205232162">
        <ele>1215.000000</ele>
        <time>2015-08-05T09:39:16Z</time>
        <speed>1.577000</speed>
      </trkpt>
      <trkpt lat="46.069193411" lon="7.205108109">
        <ele>1215.000000</ele>
        <time>2015-08-05T09:39:23Z</time>
        <speed>1.570000</speed>
      </trkpt>
      <trkpt lat="46.069221658" lon="7.205042228">
        <ele>1215.400000</ele>
        <time>2015-08-05T09:39:27Z</time>
        <speed>1.558000</speed>
      </trkpt>
      <trkpt lat="46.069231967" lon="7.205024961">
        <ele>1215.800000</ele>
        <time>2015-08-05T09:39:28Z</time>
        <speed>1.535000</speed>
      </trkpt>
      <trkpt lat="46.069240266" lon="7.205006940">
        <ele>1216.200000</ele>
        <time>2015-08-05T09:39:29Z</time>
        <speed>1.556000</speed>
      </trkpt>
      <trkpt lat="46.069251497" lon="7.204991769">
        <ele>1216.600000</ele>
        <time>2015-08-05T09:39:30Z</time>
        <speed>1.564000</speed>
      </trkpt>
      <trkpt lat="46.069262394" lon="7.204980956">
        <ele>1217.000000</ele>
        <time>2015-08-05T09:39:31Z</time>
        <speed>1.564000</speed>
      </trkpt>
      <trkpt lat="46.069345039" lon="7.204884732">
        <ele>1217.000000</ele>
        <time>2015-08-05T09:39:39Z</time>
        <speed>1.614000</speed>
      </trkpt>
      <trkpt lat="46.069401198" lon="7.204839302">
        <ele>1217.400000</ele>
        <time>2015-08-05T09:39:44Z</time>
        <speed>1.563000</speed>
      </trkpt>
      <trkpt lat="46.069412597" lon="7.204829746">
        <ele>1217.800000</ele>
        <time>2015-08-05T09:39:45Z</time>
        <speed>1.480000</speed>
      </trkpt>
      <trkpt lat="46.069425925" lon="7.204822873">
        <ele>1218.200000</ele>
        <time>2015-08-05T09:39:46Z</time>
        <speed>1.480000</speed>
      </trkpt>
      <trkpt lat="46.069439922" lon="7.204819688">
        <ele>1218.600000</ele>
        <time>2015-08-05T09:39:47Z</time>
        <speed>1.496000</speed>
      </trkpt>
      <trkpt lat="46.069452244" lon="7.204815162">
        <ele>1219.000000</ele>
        <time>2015-08-05T09:39:48Z</time>
        <speed>1.568000</speed>
      </trkpt>
      <trkpt lat="46.069465068" lon="7.204803260">
        <ele>1219.000000</ele>
        <time>2015-08-05T09:39:49Z</time>
        <speed>1.535000</speed>
      </trkpt>
      <trkpt lat="46.069522736" lon="7.204784568">
        <ele>1219.000000</ele>
        <time>2015-08-05T09:39:53Z</time>
        <speed>1.569000</speed>
      </trkpt>
      <trkpt lat="46.069573530" lon="7.204765122">
        <ele>1219.400000</ele>
        <time>2015-08-05T09:39:57Z</time>
        <speed>1.558000</speed>
      </trkpt>
      <trkpt lat="46.069587528" lon="7.204760093">
        <ele>1219.800000</ele>
        <time>2015-08-05T09:39:58Z</time>
        <speed>1.558000</speed>
      </trkpt>
      <trkpt lat="46.069601777" lon="7.204753974">
        <ele>1220.400000</ele>
        <time>2015-08-05T09:39:59Z</time>
        <speed>1.609000</speed>
      </trkpt>
      <trkpt lat="46.069619379" lon="7.204746598">
        <ele>1221.200000</ele>
        <time>2015-08-05T09:40:00Z</time>
        <speed>1.636000</speed>
      </trkpt>
      <trkpt lat="46.069693727" lon="7.204737462">
        <ele>1221.200000</ele>
        <time>2015-08-05T09:40:05Z</time>
        <speed>1.604000</speed>
      </trkpt>
      <trkpt lat="46.069789113" lon="7.204705024">
        <ele>1221.600000</ele>
        <time>2015-08-05T09:40:12Z</time>
        <speed>1.456000</speed>
      </trkpt>
      <trkpt lat="46.069799590" lon="7.204693960">
        <ele>1222.000000</ele>
        <time>2015-08-05T09:40:13Z</time>
        <speed>1.510000</speed>
      </trkpt>
      <trkpt lat="46.069809397" lon="7.204680884">
        <ele>1222.400000</ele>
        <time>2015-08-05T09:40:14Z</time>
        <speed>1.577000</speed>
      </trkpt>
      <trkpt lat="46.069818868" lon="7.204664874">
        <ele>1222.800000</ele>
        <time>2015-08-05T09:40:15Z</time>
        <speed>1.577000</speed>
      </trkpt>
      <trkpt lat="46.069830100" lon="7.204654397">
        <ele>1223.400000</ele>
        <time>2015-08-05T09:40:16Z</time>
        <speed>1.642000</speed>
      </trkpt>
      <trkpt lat="46.069845104" lon="7.204602010">
        <ele>1223.400000</ele>
        <time>2015-08-05T09:40:19Z</time>
        <speed>1.866000</speed>
      </trkpt>
      <trkpt lat="46.069798165" lon="7.204537972">
        <ele>1223.400000</ele>
        <time>2015-08-05T09:40:23Z</time>
        <speed>1.967000</speed>
      </trkpt>
      <trkpt lat="46.069742593" lon="7.204562615">
        <ele>1223.800000</ele>
        <time>2015-08-05T09:40:27Z</time>
        <speed>1.997000</speed>
      </trkpt>
      <trkpt lat="46.069728595" lon="7.204566471">
        <ele>1224.200000</ele>
        <time>2015-08-05T09:40:28Z</time>
        <speed>1.729000</speed>
      </trkpt>
      <trkpt lat="46.069713340" lon="7.204572003">
        <ele>1224.600000</ele>
        <time>2015-08-05T09:40:29Z</time>
        <speed>1.744000</speed>
      </trkpt>
      <trkpt lat="46.069697415" lon="7.204576529">
        <ele>1225.000000</ele>
        <time>2015-08-05T09:40:30Z</time>
        <speed>1.713000</speed>
      </trkpt>
      <trkpt lat="46.069682998" lon="7.204580972">
        <ele>1225.400000</ele>
        <time>2015-08-05T09:40:31Z</time>
        <speed>1.712000</speed>
      </trkpt>
      <trkpt lat="46.069580655" lon="7.204607123">
        <ele>1225.400000</ele>
        <time>2015-08-05T09:40:38Z</time>
        <speed>1.681000</speed>
      </trkpt>
      <trkpt lat="46.069564645" lon="7.204605782">
        <ele>1225.800000</ele>
        <time>2015-08-05T09:40:39Z</time>
        <speed>1.690000</speed>
      </trkpt>
      <trkpt lat="46.069546624" lon="7.204604273">
        <ele>1226.200000</ele>
        <time>2015-08-05T09:40:40Z</time>
        <speed>1.690000</speed>
      </trkpt>
      <trkpt lat="46.069530447" lon="7.204602262">
        <ele>1226.600000</ele>
        <time>2015-08-05T09:40:41Z</time>
        <speed>1.724000</speed>
      </trkpt>
      <trkpt lat="46.069516617" lon="7.204595808">
        <ele>1227.000000</ele>
        <time>2015-08-05T09:40:42Z</time>
        <speed>1.724000</speed>
      </trkpt>
      <trkpt lat="46.069499518" lon="7.204588012">
        <ele>1227.400000</ele>
        <time>2015-08-05T09:40:43Z</time>
        <speed>1.755000</speed>
      </trkpt>
      <trkpt lat="46.069473199" lon="7.204575607">
        <ele>1227.400000</ele>
        <time>2015-08-05T09:40:45Z</time>
        <speed>1.705000</speed>
      </trkpt>
      <trkpt lat="46.069377729" lon="7.204545097">
        <ele>1228.000000</ele>
        <time>2015-08-05T09:40:52Z</time>
        <speed>1.816000</speed>
      </trkpt>
      <trkpt lat="46.069359372" lon="7.204547276">
        <ele>1228.400000</ele>
        <time>2015-08-05T09:40:53Z</time>
        <speed>1.729000</speed>
      </trkpt>
      <trkpt lat="46.069339759" lon="7.204549791">
        <ele>1228.800000</ele>
        <time>2015-08-05T09:40:54Z</time>
        <speed>1.729000</speed>
      </trkpt>
      <trkpt lat="46.069323665" lon="7.204550126">
        <ele>1229.200000</ele>
        <time>2015-08-05T09:40:55Z</time>
        <speed>1.795000</speed>
      </trkpt>
      <trkpt lat="46.069310003" lon="7.204551467">
        <ele>1229.600000</ele>
        <time>2015-08-05T09:40:56Z</time>
        <speed>1.767000</speed>
      </trkpt>
      <trkpt lat="46.069296592" lon="7.204553479">
        <ele>1229.600000</ele>
        <time>2015-08-05T09:40:57Z</time>
        <speed>1.731000</speed>
      </trkpt>
      <trkpt lat="46.069261556" lon="7.204574182">
        <ele>1229.600000</ele>
        <time>2015-08-05T09:41:00Z</time>
        <speed>1.693000</speed>
      </trkpt>
      <trkpt lat="46.069257113" lon="7.204575859">
        <ele>1229.600000</ele>
        <time>2015-08-05T09:41:03Z</time>
        <speed>0.000000</speed>
      </trkpt>
      <trkpt lat="46.069257113" lon="7.204575859">
        <ele>1229.600000</ele>
        <time>2015-08-05T09:41:15Z</time>
        <speed>0.000000</speed>
      </trkpt>
      <trkpt lat="46.069257113" lon="7.204575859">
        <ele>1229.600000</ele>
        <time>2015-08-05T09:41:21Z</time>
        <speed>0.000000</speed>
      </trkpt>
      <trkpt lat="46.069257113" lon="7.204575859">
        <ele>1229.600000</ele>
        <time>2015-08-05T09:41:26Z</time>
        <speed>0.000000</speed>
      </trkpt>
      <trkpt lat="46.069257113" lon="7.204575859">
        <ele>1229.600000</ele>
        <time>2015-08-05T09:41:28Z</time>
        <speed>0.000000</speed>
      </trkpt>
      <trkpt lat="46.069257113" lon="7.204575859">
        <ele>1229.600000</ele>
        <time>2015-08-05T09:41:33Z</time>
        <speed>0.000000</speed>
      </trkpt>
      <trkpt lat="46.069257113" lon="7.204575859">
        <ele>1229.600000</ele>
        <time>2015-08-05T09:41:36Z</time>
        <speed>0.000000</speed>
      </trkpt>
      <trkpt lat="46.069257113" lon="7.204575859">
        <ele>1229.600000</ele>
        <time>2015-08-05T09:41:39Z</time>
        <speed>0.000000</speed>
      </trkpt>
      <trkpt lat="46.069251497" lon="7.204579128">
        <ele>1229.600000</ele>
        <time>2015-08-05T09:41:48Z</time>
        <speed>0.000000</speed>
      </trkpt>
      <trkpt lat="46.069251497" lon="7.204579128">
        <ele>1229.600000</ele>
        <time>2015-08-05T09:41:51Z</time>
        <speed>0.000000</speed>
      </trkpt>
      <trkpt lat="46.069251497" lon="7.204579128">
        <ele>1229.600000</ele>
        <time>2015-08-05T09:41:56Z</time>
        <speed>0.000000</speed>
      </trkpt>
      <trkpt lat="46.069251497" lon="7.204579128">
        <ele>1229.600000</ele>
        <time>2015-08-05T09:42:02Z</time>
        <speed>0.000000</speed>
      </trkpt>
      <trkpt lat="46.069251497" lon="7.204579128">
        <ele>1230.400000</ele>
        <time>2015-08-05T09:42:04Z</time>
        <speed>0.000000</speed>
      </trkpt>
      <trkpt lat="46.069251497" lon="7.204579128">
        <ele>1230.800000</ele>
        <time>2015-08-05T09:42:05Z</time>
        <speed>0.000000</speed>
      </trkpt>
      <trkpt lat="46.069251497" lon="7.204579128">
        <ele>1231.200000</ele>
        <time>2015-08-05T09:42:06Z</time>
        <speed>0.000000</speed>
      </trkpt>
      <trkpt lat="46.069251497" lon="7.204579128">
        <ele>1231.600000</ele>
        <time>2015-08-05T09:42:07Z</time>
        <speed>0.000000</speed>
      </trkpt>
      <trkpt lat="46.069251497" lon="7.204579128">
        <ele>1231.600000</ele>
        <time>2015-08-05T09:42:10Z</time>
        <speed>0.000000</speed>
      </trkpt>
      <trkpt lat="46.069251497" lon="7.204579128">
        <ele>1231.600000</ele>
        <time>2015-08-05T09:42:14Z</time>
        <speed>0.000000</speed>
      </trkpt>
      <trkpt lat="46.069252335" lon="7.204582816">
        <ele>1231.600000</ele>
        <time>2015-08-05T09:42:23Z</time>
        <speed>0.000000</speed>
      </trkpt>
      <trkpt lat="46.069252335" lon="7.204582816">
        <ele>1231.600000</ele>
        <time>2015-08-05T09:42:27Z</time>
        <speed>0.000000</speed>
      </trkpt>
      <trkpt lat="46.069252335" lon="7.204582816">
        <ele>1231.600000</ele>
        <time>2015-08-05T09:42:39Z</time>
        <speed>0.000000</speed>
      </trkpt>
      <trkpt lat="46.069252335" lon="7.204582816">
        <ele>1231.600000</ele>
        <time>2015-08-05T09:42:50Z</time>
        <speed>0.000000</speed>
      </trkpt>
      <trkpt lat="46.069252335" lon="7.204582816">
        <ele>1231.600000</ele>
        <time>2015-08-05T09:43:01Z</time>
        <speed>0.000000</speed>
      </trkpt>
      <trkpt lat="46.069254347" lon="7.204580469">
        <ele>1231.600000</ele>
        <time>2015-08-05T09:43:13Z</time>
        <speed>0.000000</speed>
      </trkpt>
      <trkpt lat="46.069254347" lon="7.204580469">
        <ele>1231.600000</ele>
        <time>2015-08-05T09:43:14Z</time>
        <speed>0.000000</speed>
      </trkpt>
      <trkpt lat="46.069254347" lon="7.204580469">
        <ele>1231.600000</ele>
        <time>2015-08-05T09:43:22Z</time>
        <speed>0.000000</speed>
      </trkpt>
      <trkpt lat="46.069254347" lon="7.204580469">
        <ele>1231.600000</ele>
        <time>2015-08-05T09:43:24Z</time>
        <speed>0.000000</speed>
      </trkpt>
      <trkpt lat="46.069254347" lon="7.204580469">
        <ele>1231.600000</ele>
        <time>2015-08-05T09:43:27Z</time>
        <speed>0.000000</speed>
      </trkpt>
      <trkpt lat="46.069254347" lon="7.204580469">
        <ele>1231.600000</ele>
        <time>2015-08-05T09:43:36Z</time>
        <speed>0.000000</speed>
      </trkpt>
      <trkpt lat="46.069254850" lon="7.204583738">
        <ele>1231.600000</ele>
        <time>2015-08-05T09:43:42Z</time>
        <speed>0.000000</speed>
      </trkpt>
      <trkpt lat="46.069254850" lon="7.204583738">
        <ele>1231.600000</ele>
        <time>2015-08-05T09:43:47Z</time>
        <speed>0.000000</speed>
      </trkpt>
      <trkpt lat="46.069234566" lon="7.204575356">
        <ele>1231.600000</ele>
        <time>2015-08-05T09:43:50Z</time>
        <speed>0.000000</speed>
      </trkpt>
      <trkpt lat="46.069223502" lon="7.204575942">
        <ele>1231.600000</ele>
        <time>2015-08-05T09:43:51Z</time>
        <speed>0.000000</speed>
      </trkpt>
      <trkpt lat="46.069203553" lon="7.204584241">
        <ele>1231.600000</ele>
        <time>2015-08-05T09:43:52Z</time>
        <speed>1.210000</speed>
      </trkpt>
      <trkpt lat="46.069141611" lon="7.204635119">
        <ele>1231.600000</ele>
        <time>2015-08-05T09:43:57Z</time>
        <speed>1.632000</speed>
      </trkpt>
      <trkpt lat="46.069127278" lon="7.204642998">
        <ele>1231.600000</ele>
        <time>2015-08-05T09:43:58Z</time>
        <speed>1.650000</speed>
      </trkpt>
      <trkpt lat="46.069113531" lon="7.204651296">
        <ele>1232.000000</ele>
        <time>2015-08-05T09:43:59Z</time>
        <speed>1.625000</speed>
      </trkpt>
      <trkpt lat="46.069101377" lon="7.204662360">
        <ele>1232.400000</ele>
        <time>2015-08-05T09:44:00Z</time>
        <speed>1.625000</speed>
      </trkpt>
      <trkpt lat="46.069086793" lon="7.204675352">
        <ele>1232.800000</ele>
        <time>2015-08-05T09:44:01Z</time>
        <speed>1.648000</speed>
      </trkpt>
      <trkpt lat="46.069073550" lon="7.204685494">
        <ele>1233.400000</ele>
        <time>2015-08-05T09:44:02Z</time>
        <speed>1.627000</speed>
      </trkpt>
      <trkpt lat="46.069061731" lon="7.204693960">
        <ele>1233.800000</ele>
        <time>2015-08-05T09:44:03Z</time>
        <speed>1.681000</speed>
      </trkpt>
      <trkpt lat="46.069026862" lon="7.204717848">
        <ele>1233.800000</ele>
        <time>2015-08-05T09:44:06Z</time>
        <speed>1.710000</speed>
      </trkpt>
      <trkpt lat="46.069017726" lon="7.204735115">
        <ele>1233.800000</ele>
        <time>2015-08-05T09:44:07Z</time>
        <speed>1.661000</speed>
      </trkpt>
      <trkpt lat="46.068975230" lon="7.204791609">
        <ele>1233.800000</ele>
        <time>2015-08-05T09:44:11Z</time>
        <speed>1.654000</speed>
      </trkpt>
      <trkpt lat="46.068963830" lon="7.204802338">
        <ele>1233.800000</ele>
        <time>2015-08-05T09:44:12Z</time>
        <speed>1.706000</speed>
      </trkpt>
      <trkpt lat="46.068914796" lon="7.204854473">
        <ele>1234.200000</ele>
        <time>2015-08-05T09:44:16Z</time>
        <speed>1.705000</speed>
      </trkpt>
      <trkpt lat="46.068903732" lon="7.204870231">
        <ele>1234.800000</ele>
        <time>2015-08-05T09:44:17Z</time>
        <speed>1.731000</speed>
      </trkpt>
      <trkpt lat="46.068894177" lon="7.204878445">
        <ele>1235.200000</ele>
        <time>2015-08-05T09:44:18Z</time>
        <speed>1.738000</speed>
      </trkpt>
      <trkpt lat="46.068881688" lon="7.204888839">
        <ele>1235.600000</ele>
        <time>2015-08-05T09:44:19Z</time>
        <speed>1.690000</speed>
      </trkpt>
      <trkpt lat="46.068869953" lon="7.204897388">
        <ele>1236.000000</ele>
        <time>2015-08-05T09:44:20Z</time>
        <speed>1.690000</speed>
      </trkpt>
      <trkpt lat="46.068823098" lon="7.204927144">
        <ele>1236.000000</ele>
        <time>2015-08-05T09:44:23Z</time>
        <speed>1.836000</speed>
      </trkpt>
      <trkpt lat="46.068768364" lon="7.204978274">
        <ele>1236.000000</ele>
        <time>2015-08-05T09:44:28Z</time>
        <speed>1.762000</speed>
      </trkpt>
      <trkpt lat="46.068687814" lon="7.205048514">
        <ele>1236.000000</ele>
        <time>2015-08-05T09:44:34Z</time>
        <speed>1.775000</speed>
      </trkpt>
      <trkpt lat="46.068663004" lon="7.205087406">
        <ele>1236.600000</ele>
        <time>2015-08-05T09:44:37Z</time>
        <speed>1.778000</speed>
      </trkpt>
      <trkpt lat="46.068663088" lon="7.205088580">
        <ele>1237.000000</ele>
        <time>2015-08-05T09:44:38Z</time>
        <speed>1.741000</speed>
      </trkpt>
      <trkpt lat="46.068657220" lon="7.205094782">
        <ele>1237.400000</ele>
        <time>2015-08-05T09:44:39Z</time>
        <speed>1.725000</speed>
      </trkpt>
      <trkpt lat="46.068644983" lon="7.205112552">
        <ele>1237.800000</ele>
        <time>2015-08-05T09:44:40Z</time>
        <speed>1.725000</speed>
      </trkpt>
      <trkpt lat="46.068633751" lon="7.205128142">
        <ele>1238.200000</ele>
        <time>2015-08-05T09:44:41Z</time>
        <speed>1.758000</speed>
      </trkpt>
      <trkpt lat="46.068591674" lon="7.205188408">
        <ele>1238.200000</ele>
        <time>2015-08-05T09:44:45Z</time>
        <speed>1.694000</speed>
      </trkpt>
      <trkpt lat="46.068556386" lon="7.205233838">
        <ele>1238.600000</ele>
        <time>2015-08-05T09:44:48Z</time>
        <speed>1.723000</speed>
      </trkpt>
      <trkpt lat="46.068543813" lon="7.205251524">
        <ele>1239.000000</ele>
        <time>2015-08-05T09:44:49Z</time>
        <speed>1.761000</speed>
      </trkpt>
      <trkpt lat="46.068532498" lon="7.205266192">
        <ele>1239.400000</ele>
        <time>2015-08-05T09:44:50Z</time>
        <speed>1.768000</speed>
      </trkpt>
      <trkpt lat="46.068523026" lon="7.205280777">
        <ele>1239.800000</ele>
        <time>2015-08-05T09:44:51Z</time>
        <speed>1.712000</speed>
      </trkpt>
      <trkpt lat="46.068509867" lon="7.205296954">
        <ele>1240.200000</ele>
        <time>2015-08-05T09:44:52Z</time>
        <speed>1.691000</speed>
      </trkpt>
      <trkpt lat="46.068443649" lon="7.205373648">
        <ele>1240.200000</ele>
        <time>2015-08-05T09:44:57Z</time>
        <speed>1.735000</speed>
      </trkpt>
      <trkpt lat="46.068381372" lon="7.205450091">
        <ele>1240.800000</ele>
        <time>2015-08-05T09:45:02Z</time>
        <speed>1.720000</speed>
      </trkpt>
      <trkpt lat="46.068370308" lon="7.205463921">
        <ele>1241.200000</ele>
        <time>2015-08-05T09:45:03Z</time>
        <speed>1.713000</speed>
      </trkpt>
      <trkpt lat="46.068359076" lon="7.205470292">
        <ele>1241.600000</ele>
        <time>2015-08-05T09:45:04Z</time>
        <speed>1.713000</speed>
      </trkpt>
      <trkpt lat="46.068346503" lon="7.205481188">
        <ele>1242.000000</ele>
        <time>2015-08-05T09:45:05Z</time>
        <speed>1.751000</speed>
      </trkpt>
      <trkpt lat="46.068334349" lon="7.205492168">
        <ele>1242.400000</ele>
        <time>2015-08-05T09:45:06Z</time>
        <speed>1.689000</speed>
      </trkpt>
      <trkpt lat="46.068273329" lon="7.205559894">
        <ele>1242.400000</ele>
        <time>2015-08-05T09:45:11Z</time>
        <speed>1.673000</speed>
      </trkpt>
      <trkpt lat="46.068213566" lon="7.205628290">
        <ele>1242.800000</ele>
        <time>2015-08-05T09:45:16Z</time>
        <speed>1.811000</speed>
      </trkpt>
      <trkpt lat="46.068202502" lon="7.205641031">
        <ele>1243.200000</ele>
        <time>2015-08-05T09:45:17Z</time>
        <speed>1.689000</speed>
      </trkpt>
      <trkpt lat="46.068191103" lon="7.205654442">
        <ele>1243.800000</ele>
        <time>2015-08-05T09:45:18Z</time>
        <speed>1.686000</speed>
      </trkpt>
      <trkpt lat="46.068177524" lon="7.205663746">
        <ele>1244.200000</ele>
        <time>2015-08-05T09:45:19Z</time>
        <speed>1.769000</speed>
      </trkpt>
      <trkpt lat="46.068163107" lon="7.205670368">
        <ele>1244.600000</ele>
        <time>2015-08-05T09:45:20Z</time>
        <speed>1.781000</speed>
      </trkpt>
      <trkpt lat="46.068095549" lon="7.205723174">
        <ele>1244.600000</ele>
        <time>2015-08-05T09:45:25Z</time>
        <speed>1.714000</speed>
      </trkpt>
      <trkpt lat="46.068062021" lon="7.205746894">
        <ele>1245.000000</ele>
        <time>2015-08-05T09:45:28Z</time>
        <speed>1.691000</speed>
      </trkpt>
      <trkpt lat="46.068049616" lon="7.205753516">
        <ele>1245.400000</ele>
        <time>2015-08-05T09:45:29Z</time>
        <speed>1.724000</speed>
      </trkpt>
      <trkpt lat="46.068035618" lon="7.205762568">
        <ele>1246.000000</ele>
        <time>2015-08-05T09:45:30Z</time>
        <speed>1.685000</speed>
      </trkpt>
      <trkpt lat="46.068022543" lon="7.205773633">
        <ele>1246.400000</ele>
        <time>2015-08-05T09:45:31Z</time>
        <speed>1.796000</speed>
      </trkpt>
      <trkpt lat="46.068010724" lon="7.205784194">
        <ele>1246.800000</ele>
        <time>2015-08-05T09:45:32Z</time>
        <speed>1.796000</speed>
      </trkpt>
      <trkpt lat="46.067966887" lon="7.205830210">
        <ele>1246.800000</ele>
        <time>2015-08-05T09:45:36Z</time>
        <speed>1.752000</speed>
      </trkpt>
      <trkpt lat="46.067921038" lon="7.205866756">
        <ele>1246.800000</ele>
        <time>2015-08-05T09:45:40Z</time>
        <speed>1.703000</speed>
      </trkpt>
      <trkpt lat="46.067908800" lon="7.205877149">
        <ele>1247.200000</ele>
        <time>2015-08-05T09:45:41Z</time>
        <speed>1.674000</speed>
      </trkpt>
      <trkpt lat="46.067896814" lon="7.205892991">
        <ele>1247.600000</ele>
        <time>2015-08-05T09:45:42Z</time>
        <speed>1.720000</speed>
      </trkpt>
      <trkpt lat="46.067885163" lon="7.205905731">
        <ele>1248.000000</ele>
        <time>2015-08-05T09:45:43Z</time>
        <speed>1.738000</speed>
      </trkpt>
      <trkpt lat="46.067876362" lon="7.205919645">
        <ele>1248.600000</ele>
        <time>2015-08-05T09:45:44Z</time>
        <speed>1.738000</speed>
      </trkpt>
      <trkpt lat="46.067862616" lon="7.205935822">
        <ele>1249.000000</ele>
        <time>2015-08-05T09:45:45Z</time>
        <speed>1.749000</speed>
      </trkpt>
      <trkpt lat="46.067835878" lon="7.205973792">
        <ele>1249.000000</ele>
        <time>2015-08-05T09:45:47Z</time>
        <speed>1.775000</speed>
      </trkpt>
      <trkpt lat="46.067744934" lon="7.206029197">
        <ele>1249.400000</ele>
        <time>2015-08-05T09:45:53Z</time>
        <speed>1.774000</speed>
      </trkpt>
      <trkpt lat="46.067730852" lon="7.206034645">
        <ele>1249.800000</ele>
        <time>2015-08-05T09:45:54Z</time>
        <speed>1.738000</speed>
      </trkpt>
      <trkpt lat="46.067718782" lon="7.206042356">
        <ele>1250.200000</ele>
        <time>2015-08-05T09:45:55Z</time>
        <speed>1.686000</speed>
      </trkpt>
      <trkpt lat="46.067702354" lon="7.206051409">
        <ele>1250.600000</ele>
        <time>2015-08-05T09:45:56Z</time>
        <speed>1.686000</speed>
      </trkpt>
      <trkpt lat="46.067684584" lon="7.206054510">
        <ele>1251.000000</ele>
        <time>2015-08-05T09:45:57Z</time>
        <speed>1.670000</speed>
      </trkpt>
      <trkpt lat="46.067636472" lon="7.206061886">
        <ele>1251.000000</ele>
        <time>2015-08-05T09:46:00Z</time>
        <speed>1.850000</speed>
      </trkpt>
      <trkpt lat="46.067512755" lon="7.206044787">
        <ele>1251.400000</ele>
        <time>2015-08-05T09:46:08Z</time>
        <speed>1.798000</speed>
      </trkpt>
      <trkpt lat="46.067497165" lon="7.206040848">
        <ele>1251.800000</ele>
        <time>2015-08-05T09:46:09Z</time>
        <speed>1.798000</speed>
      </trkpt>
      <trkpt lat="46.067480150" lon="7.206036154">
        <ele>1252.400000</ele>
        <time>2015-08-05T09:46:10Z</time>
        <speed>1.842000</speed>
      </trkpt>
      <trkpt lat="46.067462799" lon="7.206030706">
        <ele>1252.800000</ele>
        <time>2015-08-05T09:46:11Z</time>
        <speed>1.833000</speed>
      </trkpt>
      <trkpt lat="46.067449388" lon="7.206024000">
        <ele>1253.200000</ele>
        <time>2015-08-05T09:46:12Z</time>
        <speed>1.780000</speed>
      </trkpt>
      <trkpt lat="46.067383423" lon="7.206019893">
        <ele>1253.200000</ele>
        <time>2015-08-05T09:46:16Z</time>
        <speed>1.741000</speed>
      </trkpt>
      <trkpt lat="46.067286947" lon="7.206032382">
        <ele>1253.600000</ele>
        <time>2015-08-05T09:46:22Z</time>
        <speed>1.771000</speed>
      </trkpt>
      <trkpt lat="46.067272362" lon="7.206038920">
        <ele>1254.000000</ele>
        <time>2015-08-05T09:46:23Z</time>
        <speed>1.771000</speed>
      </trkpt>
      <trkpt lat="46.067256521" lon="7.206044620">
        <ele>1254.400000</ele>
        <time>2015-08-05T09:46:24Z</time>
        <speed>1.792000</speed>
      </trkpt>
      <trkpt lat="46.067243612" lon="7.206051912">
        <ele>1254.800000</ele>
        <time>2015-08-05T09:46:25Z</time>
        <speed>1.748000</speed>
      </trkpt>
      <trkpt lat="46.067227938" lon="7.206065239">
        <ele>1255.200000</ele>
        <time>2015-08-05T09:46:26Z</time>
        <speed>1.822000</speed>
      </trkpt>
      <trkpt lat="46.067182676" lon="7.206091223">
        <ele>1255.200000</ele>
        <time>2015-08-05T09:46:29Z</time>
        <speed>1.868000</speed>
      </trkpt>
      <trkpt lat="46.067114196" lon="7.206170348">
        <ele>1255.200000</ele>
        <time>2015-08-05T09:46:35Z</time>
        <speed>1.891000</speed>
      </trkpt>
      <trkpt lat="46.067089218" lon="7.206198679">
        <ele>1255.600000</ele>
        <time>2015-08-05T09:46:37Z</time>
        <speed>1.923000</speed>
      </trkpt>
      <trkpt lat="46.067075136" lon="7.206212677">
        <ele>1256.000000</ele>
        <time>2015-08-05T09:46:38Z</time>
        <speed>1.916000</speed>
      </trkpt>
      <trkpt lat="46.067063150" lon="7.206227094">
        <ele>1256.400000</ele>
        <time>2015-08-05T09:46:39Z</time>
        <speed>1.991000</speed>
      </trkpt>
      <trkpt lat="46.067051164" lon="7.206235559">
        <ele>1256.800000</ele>
        <time>2015-08-05T09:46:40Z</time>
        <speed>1.941000</speed>
      </trkpt>
      <trkpt lat="46.067033813" lon="7.206245618">
        <ele>1257.200000</ele>
        <time>2015-08-05T09:46:41Z</time>
        <speed>1.941000</speed>
      </trkpt>
      <trkpt lat="46.066999699" lon="7.206266321">
        <ele>1257.200000</ele>
        <time>2015-08-05T09:46:43Z</time>
        <speed>1.913000</speed>
      </trkpt>
      <trkpt lat="46.066922166" lon="7.206232542">
        <ele>1257.200000</ele>
        <time>2015-08-05T09:46:48Z</time>
        <speed>1.904000</speed>
      </trkpt>
      <trkpt lat="46.066912527" lon="7.206209659">
        <ele>1257.200000</ele>
        <time>2015-08-05T09:46:49Z</time>
        <speed>1.904000</speed>
      </trkpt>
      <trkpt lat="46.066938092" lon="7.206135312">
        <ele>1257.200000</ele>
        <time>2015-08-05T09:46:52Z</time>
        <speed>2.006000</speed>
      </trkpt>
      <trkpt lat="46.066993413" lon="7.206075716">
        <ele>1257.600000</ele>
        <time>2015-08-05T09:46:56Z</time>
        <speed>2.106000</speed>
      </trkpt>
      <trkpt lat="46.067004980" lon="7.206063060">
        <ele>1258.000000</ele>
        <time>2015-08-05T09:46:57Z</time>
        <speed>1.941000</speed>
      </trkpt>
      <trkpt lat="46.067019480" lon="7.206051996">
        <ele>1258.400000</ele>
        <time>2015-08-05T09:46:58Z</time>
        <speed>1.941000</speed>
      </trkpt>
      <trkpt lat="46.067031969" lon="7.206040429">
        <ele>1258.800000</ele>
        <time>2015-08-05T09:46:59Z</time>
        <speed>1.796000</speed>
      </trkpt>
      <trkpt lat="46.067044458" lon="7.206030119">
        <ele>1259.200000</ele>
        <time>2015-08-05T09:47:00Z</time>
        <speed>1.795000</speed>
      </trkpt>
      <trkpt lat="46.067131379" lon="7.205951832">
        <ele>1259.200000</ele>
        <time>2015-08-05T09:47:06Z</time>
        <speed>1.798000</speed>
      </trkpt>
      <trkpt lat="46.067177647" lon="7.205915538">
        <ele>1259.600000</ele>
        <time>2015-08-05T09:47:09Z</time>
        <speed>1.941000</speed>
      </trkpt>
      <trkpt lat="46.067191728" lon="7.205902965">
        <ele>1260.000000</ele>
        <time>2015-08-05T09:47:10Z</time>
        <speed>1.976000</speed>
      </trkpt>
      <trkpt lat="46.067205642" lon="7.205891482">
        <ele>1260.400000</ele>
        <time>2015-08-05T09:47:11Z</time>
        <speed>1.901000</speed>
      </trkpt>
      <trkpt lat="46.067221736" lon="7.205879412">
        <ele>1260.800000</ele>
        <time>2015-08-05T09:47:12Z</time>
        <speed>1.949000</speed>
      </trkpt>
      <trkpt lat="46.067235985" lon="7.205866420">
        <ele>1261.200000</ele>
        <time>2015-08-05T09:47:13Z</time>
        <speed>2.029000</speed>
      </trkpt>
      <trkpt lat="46.067277727" lon="7.205832557">
        <ele>1261.200000</ele>
        <time>2015-08-05T09:47:16Z</time>
        <speed>1.944000</speed>
      </trkpt>
      <trkpt lat="46.067390128" lon="7.205798192">
        <ele>1261.200000</ele>
        <time>2015-08-05T09:47:23Z</time>
        <speed>2.008000</speed>
      </trkpt>
      <trkpt lat="46.067423320" lon="7.205792240">
        <ele>1261.600000</ele>
        <time>2015-08-05T09:47:25Z</time>
        <speed>1.942000</speed>
      </trkpt>
      <trkpt lat="46.067440755" lon="7.205790229">
        <ele>1262.400000</ele>
        <time>2015-08-05T09:47:26Z</time>
        <speed>1.920000</speed>
      </trkpt>
      <trkpt lat="46.067454836" lon="7.205786876">
        <ele>1262.800000</ele>
        <time>2015-08-05T09:47:27Z</time>
        <speed>1.927000</speed>
      </trkpt>
      <trkpt lat="46.067470511" lon="7.205776231">
        <ele>1263.200000</ele>
        <time>2015-08-05T09:47:28Z</time>
        <speed>1.910000</speed>
      </trkpt>
      <trkpt lat="46.067487442" lon="7.205772878">
        <ele>1263.200000</ele>
        <time>2015-08-05T09:47:29Z</time>
        <speed>1.839000</speed>
      </trkpt>
      <trkpt lat="46.067591042" lon="7.205705152">
        <ele>1263.600000</ele>
        <time>2015-08-05T09:47:36Z</time>
        <speed>1.868000</speed>
      </trkpt>
      <trkpt lat="46.067602190" lon="7.205685706">
        <ele>1264.000000</ele>
        <time>2015-08-05T09:47:37Z</time>
        <speed>1.876000</speed>
      </trkpt>
      <trkpt lat="46.067609482" lon="7.205666763">
        <ele>1264.400000</ele>
        <time>2015-08-05T09:47:38Z</time>
        <speed>1.911000</speed>
      </trkpt>
      <trkpt lat="46.067620463" lon="7.205645054">
        <ele>1264.800000</ele>
        <time>2015-08-05T09:47:39Z</time>
        <speed>1.911000</speed>
      </trkpt>
      <trkpt lat="46.067630689" lon="7.205628207">
        <ele>1265.400000</ele>
        <time>2015-08-05T09:47:40Z</time>
        <speed>1.876000</speed>
      </trkpt>
      <trkpt lat="46.067672933" lon="7.205549584">
        <ele>1265.400000</ele>
        <time>2015-08-05T09:47:44Z</time>
        <speed>1.939000</speed>
      </trkpt>
      <trkpt lat="46.067718112" lon="7.205455204">
        <ele>1265.800000</ele>
        <time>2015-08-05T09:47:49Z</time>
        <speed>1.920000</speed>
      </trkpt>
      <trkpt lat="46.067728841" lon="7.205438273">
        <ele>1266.200000</ele>
        <time>2015-08-05T09:47:50Z</time>
        <speed>1.857000</speed>
      </trkpt>
      <trkpt lat="46.067743006" lon="7.205421676">
        <ele>1267.000000</ele>
        <time>2015-08-05T09:47:51Z</time>
        <speed>1.852000</speed>
      </trkpt>
      <trkpt lat="46.067755160" lon="7.205403823">
        <ele>1267.400000</ele>
        <time>2015-08-05T09:47:52Z</time>
        <speed>1.852000</speed>
      </trkpt>
      <trkpt lat="46.067851971" lon="7.205260912">
        <ele>1267.400000</ele>
        <time>2015-08-05T09:48:01Z</time>
        <speed>1.889000</speed>
      </trkpt>
      <trkpt lat="46.067876278" lon="7.205216739">
        <ele>1267.800000</ele>
        <time>2015-08-05T09:48:04Z</time>
        <speed>1.849000</speed>
      </trkpt>
      <trkpt lat="46.067889270" lon="7.205206262">
        <ele>1268.200000</ele>
        <time>2015-08-05T09:48:05Z</time>
        <speed>1.792000</speed>
      </trkpt>
      <trkpt lat="46.067906705" lon="7.205199975">
        <ele>1268.600000</ele>
        <time>2015-08-05T09:48:06Z</time>
        <speed>1.817000</speed>
      </trkpt>
      <trkpt lat="46.067921625" lon="7.205190755">
        <ele>1269.000000</ele>
        <time>2015-08-05T09:48:07Z</time>
        <speed>1.830000</speed>
      </trkpt>
      <trkpt lat="46.067933359" lon="7.205177847">
        <ele>1269.400000</ele>
        <time>2015-08-05T09:48:08Z</time>
        <speed>1.842000</speed>
      </trkpt>
      <trkpt lat="46.067987842" lon="7.205110708">
        <ele>1269.400000</ele>
        <time>2015-08-05T09:48:13Z</time>
        <speed>1.799000</speed>
      </trkpt>
      <trkpt lat="46.067996810" lon="7.205093190">
        <ele>1269.800000</ele>
        <time>2015-08-05T09:48:14Z</time>
        <speed>1.799000</speed>
      </trkpt>
      <trkpt lat="46.068004019" lon="7.205071816">
        <ele>1270.600000</ele>
        <time>2015-08-05T09:48:15Z</time>
        <speed>1.831000</speed>
      </trkpt>
      <trkpt lat="46.068012317" lon="7.205054381">
        <ele>1271.000000</ele>
        <time>2015-08-05T09:48:16Z</time>
        <speed>1.758000</speed>
      </trkpt>
      <trkpt lat="46.068019274" lon="7.205035774">
        <ele>1271.400000</ele>
        <time>2015-08-05T09:48:17Z</time>
        <speed>1.831000</speed>
      </trkpt>
      <trkpt lat="46.068031679" lon="7.204958660">
        <ele>1271.400000</ele>
        <time>2015-08-05T09:48:21Z</time>
        <speed>1.796000</speed>
      </trkpt>
      <trkpt lat="46.068034613" lon="7.204911554">
        <ele>1271.400000</ele>
        <time>2015-08-05T09:48:23Z</time>
        <speed>1.761000</speed>
      </trkpt>
      <trkpt lat="46.068040061" lon="7.204820610">
        <ele>1271.400000</ele>
        <time>2015-08-05T09:48:27Z</time>
        <speed>1.845000</speed>
      </trkpt>
      <trkpt lat="46.068041318" lon="7.204796219">
        <ele>1271.800000</ele>
        <time>2015-08-05T09:48:28Z</time>
        <speed>1.868000</speed>
      </trkpt>
      <trkpt lat="46.068038720" lon="7.204774761">
        <ele>1272.200000</ele>
        <time>2015-08-05T09:48:29Z</time>
        <speed>1.989000</speed>
      </trkpt>
      <trkpt lat="46.068044671" lon="7.204757578">
        <ele>1272.600000</ele>
        <time>2015-08-05T09:48:30Z</time>
        <speed>1.884000</speed>
      </trkpt>
      <trkpt lat="46.068046850" lon="7.204733522">
        <ele>1273.000000</ele>
        <time>2015-08-05T09:48:31Z</time>
        <speed>1.861000</speed>
      </trkpt>
      <trkpt lat="46.068049616" lon="7.204713070">
        <ele>1273.400000</ele>
        <time>2015-08-05T09:48:32Z</time>
        <speed>1.839000</speed>
      </trkpt>
      <trkpt lat="46.068050203" lon="7.204704940">
        <ele>1273.400000</ele>
        <time>2015-08-05T09:48:33Z</time>
        <speed>1.863000</speed>
      </trkpt>
      <trkpt lat="46.068087083" lon="7.204511989">
        <ele>1273.400000</ele>
        <time>2015-08-05T09:48:40Z</time>
        <speed>1.889000</speed>
      </trkpt>
      <trkpt lat="46.068082725" lon="7.204493884">
        <ele>1273.400000</ele>
        <time>2015-08-05T09:48:41Z</time>
        <speed>1.893000</speed>
      </trkpt>
      <trkpt lat="46.068090101" lon="7.204431606">
        <ele>1274.000000</ele>
        <time>2015-08-05T09:48:44Z</time>
        <speed>1.830000</speed>
      </trkpt>
      <trkpt lat="46.068096555" lon="7.204406041">
        <ele>1274.400000</ele>
        <time>2015-08-05T09:48:45Z</time>
        <speed>1.789000</speed>
      </trkpt>
      <trkpt lat="46.068099824" lon="7.204383997">
        <ele>1274.800000</ele>
        <time>2015-08-05T09:48:46Z</time>
        <speed>1.934000</speed>
      </trkpt>
      <trkpt lat="46.068098734" lon="7.204370502">
        <ele>1275.200000</ele>
        <time>2015-08-05T09:48:47Z</time>
        <speed>1.871000</speed>
      </trkpt>
      <trkpt lat="46.068102171" lon="7.204351056">
        <ele>1275.600000</ele>
        <time>2015-08-05T09:48:48Z</time>
        <speed>1.958000</speed>
      </trkpt>
      <trkpt lat="46.068105440" lon="7.204332281">
        <ele>1275.600000</ele>
        <time>2015-08-05T09:48:49Z</time>
        <speed>1.894000</speed>
      </trkpt>
      <trkpt lat="46.068108206" lon="7.204314762">
        <ele>1275.600000</ele>
        <time>2015-08-05T09:48:50Z</time>
        <speed>1.866000</speed>
      </trkpt>
      <trkpt lat="46.068131675" lon="7.204194734">
        <ele>1275.600000</ele>
        <time>2015-08-05T09:48:56Z</time>
        <speed>2.036000</speed>
      </trkpt>
      <trkpt lat="46.068144918" lon="7.204128097">
        <ele>1276.000000</ele>
        <time>2015-08-05T09:48:59Z</time>
        <speed>2.031000</speed>
      </trkpt>
      <trkpt lat="46.068153636" lon="7.204108316">
        <ele>1276.400000</ele>
        <time>2015-08-05T09:49:00Z</time>
        <speed>2.048000</speed>
      </trkpt>
      <trkpt lat="46.068160509" lon="7.204081997">
        <ele>1276.800000</ele>
        <time>2015-08-05T09:49:01Z</time>
        <speed>2.058000</speed>
      </trkpt>
      <trkpt lat="46.068165622" lon="7.204051822">
        <ele>1277.200000</ele>
        <time>2015-08-05T09:49:02Z</time>
        <speed>2.006000</speed>
      </trkpt>
      <trkpt lat="46.068169477" lon="7.204029778">
        <ele>1277.600000</ele>
        <time>2015-08-05T09:49:03Z</time>
        <speed>2.082000</speed>
      </trkpt>
      <trkpt lat="46.068191438" lon="7.203988120">
        <ele>1277.600000</ele>
        <time>2015-08-05T09:49:05Z</time>
        <speed>2.060000</speed>
      </trkpt>
      <trkpt lat="46.068201748" lon="7.203942019">
        <ele>1277.600000</ele>
        <time>2015-08-05T09:49:07Z</time>
        <speed>2.106000</speed>
      </trkpt>
      <trkpt lat="46.068209124" lon="7.203917879">
        <ele>1278.000000</ele>
        <time>2015-08-05T09:49:08Z</time>
        <speed>2.060000</speed>
      </trkpt>
      <trkpt lat="46.068214069" lon="7.203895416">
        <ele>1278.400000</ele>
        <time>2015-08-05T09:49:09Z</time>
        <speed>2.104000</speed>
      </trkpt>
      <trkpt lat="46.068214907" lon="7.203869935">
        <ele>1278.800000</ele>
        <time>2015-08-05T09:49:10Z</time>
        <speed>2.121000</speed>
      </trkpt>
      <trkpt lat="46.068224798" lon="7.203844538">
        <ele>1279.200000</ele>
        <time>2015-08-05T09:49:11Z</time>
        <speed>2.121000</speed>
      </trkpt>
      <trkpt lat="46.068237119" lon="7.203826684">
        <ele>1279.600000</ele>
        <time>2015-08-05T09:49:12Z</time>
        <speed>2.179000</speed>
      </trkpt>
      <trkpt lat="46.068240053" lon="7.203798437">
        <ele>1279.600000</ele>
        <time>2015-08-05T09:49:13Z</time>
        <speed>2.148000</speed>
      </trkpt>
      <trkpt lat="46.068280202" lon="7.203718558">
        <ele>1279.600000</ele>
        <time>2015-08-05T09:49:17Z</time>
        <speed>2.144000</speed>
      </trkpt>
      <trkpt lat="46.068385311" lon="7.203564079">
        <ele>1280.000000</ele>
        <time>2015-08-05T09:49:24Z</time>
        <speed>2.170000</speed>
      </trkpt>
      <trkpt lat="46.068402997" lon="7.203540023">
        <ele>1280.400000</ele>
        <time>2015-08-05T09:49:25Z</time>
        <speed>2.084000</speed>
      </trkpt>
      <trkpt lat="46.068418420" lon="7.203511608">
        <ele>1281.000000</ele>
        <time>2015-08-05T09:49:26Z</time>
        <speed>2.199000</speed>
      </trkpt>
      <trkpt lat="46.068436022" lon="7.203485708">
        <ele>1281.400000</ele>
        <time>2015-08-05T09:49:27Z</time>
        <speed>2.192000</speed>
      </trkpt>
      <trkpt lat="46.068453708" lon="7.203465676">
        <ele>1281.800000</ele>
        <time>2015-08-05T09:49:28Z</time>
        <speed>2.144000</speed>
      </trkpt>
      <trkpt lat="46.068529564" lon="7.203360734">
        <ele>1281.800000</ele>
        <time>2015-08-05T09:49:33Z</time>
        <speed>2.172000</speed>
      </trkpt>
      <trkpt lat="46.068607180" lon="7.203232240">
        <ele>1282.200000</ele>
        <time>2015-08-05T09:49:39Z</time>
        <speed>2.080000</speed>
      </trkpt>
      <trkpt lat="46.068619167" lon="7.203215643">
        <ele>1282.600000</ele>
        <time>2015-08-05T09:49:40Z</time>
        <speed>2.046000</speed>
      </trkpt>
      <trkpt lat="46.068629728" lon="7.203192677">
        <ele>1283.000000</ele>
        <time>2015-08-05T09:49:41Z</time>
        <speed>2.090000</speed>
      </trkpt>
      <trkpt lat="46.068641043" lon="7.203170716">
        <ele>1283.400000</ele>
        <time>2015-08-05T09:49:42Z</time>
        <speed>2.068000</speed>
      </trkpt>
      <trkpt lat="46.068649090" lon="7.203149678">
        <ele>1283.800000</ele>
        <time>2015-08-05T09:49:43Z</time>
        <speed>2.068000</speed>
      </trkpt>
      <trkpt lat="46.068692508" lon="7.203050268">
        <ele>1283.800000</ele>
        <time>2015-08-05T09:49:48Z</time>
        <speed>1.725000</speed>
      </trkpt>
      <trkpt lat="46.068715726" lon="7.202994277">
        <ele>1284.200000</ele>
        <time>2015-08-05T09:49:51Z</time>
        <speed>1.774000</speed>
      </trkpt>
      <trkpt lat="46.068721090" lon="7.202978184">
        <ele>1284.600000</ele>
        <time>2015-08-05T09:49:52Z</time>
        <speed>1.789000</speed>
      </trkpt>
      <trkpt lat="46.068727712" lon="7.202963767">
        <ele>1285.000000</ele>
        <time>2015-08-05T09:49:53Z</time>
        <speed>1.756000</speed>
      </trkpt>
      <trkpt lat="46.068739195" lon="7.202945495">
        <ele>1285.400000</ele>
        <time>2015-08-05T09:49:54Z</time>
        <speed>1.701000</speed>
      </trkpt>
      <trkpt lat="46.068748248" lon="7.202925378">
        <ele>1285.800000</ele>
        <time>2015-08-05T09:49:55Z</time>
        <speed>1.701000</speed>
      </trkpt>
      <trkpt lat="46.068753528" lon="7.202904340">
        <ele>1285.800000</ele>
        <time>2015-08-05T09:49:56Z</time>
        <speed>1.742000</speed>
      </trkpt>
      <trkpt lat="46.068817566" lon="7.202784059">
        <ele>1286.200000</ele>
        <time>2015-08-05T09:50:03Z</time>
        <speed>1.813000</speed>
      </trkpt>
      <trkpt lat="46.068827624" lon="7.202767631">
        <ele>1286.600000</ele>
        <time>2015-08-05T09:50:04Z</time>
        <speed>1.744000</speed>
      </trkpt>
      <trkpt lat="46.068839108" lon="7.202751286">
        <ele>1287.000000</ele>
        <time>2015-08-05T09:50:05Z</time>
        <speed>1.780000</speed>
      </trkpt>
      <trkpt lat="46.068849669" lon="7.202732259">
        <ele>1287.400000</ele>
        <time>2015-08-05T09:50:06Z</time>
        <speed>1.798000</speed>
      </trkpt>
      <trkpt lat="46.068857632" lon="7.202711220">
        <ele>1287.800000</ele>
        <time>2015-08-05T09:50:07Z</time>
        <speed>1.842000</speed>
      </trkpt>
      <trkpt lat="46.068915802" lon="7.202597143">
        <ele>1287.800000</ele>
        <time>2015-08-05T09:50:12Z</time>
        <speed>1.866000</speed>
      </trkpt>
      <trkpt lat="46.068968692" lon="7.202540481">
        <ele>1288.400000</ele>
        <time>2015-08-05T09:50:16Z</time>
        <speed>1.819000</speed>
      </trkpt>
      <trkpt lat="46.068982103" lon="7.202528579">
        <ele>1288.800000</ele>
        <time>2015-08-05T09:50:17Z</time>
        <speed>1.827000</speed>
      </trkpt>
      <trkpt lat="46.068996520" lon="7.202516509">
        <ele>1289.200000</ele>
        <time>2015-08-05T09:50:18Z</time>
        <speed>1.802000</speed>
      </trkpt>
      <trkpt lat="46.069009009" lon="7.202503098">
        <ele>1289.600000</ele>
        <time>2015-08-05T09:50:19Z</time>
        <speed>1.793000</speed>
      </trkpt>
      <trkpt lat="46.069024515" lon="7.202490273">
        <ele>1290.000000</ele>
        <time>2015-08-05T09:50:20Z</time>
        <speed>1.796000</speed>
      </trkpt>
      <trkpt lat="46.069131133" lon="7.202410226">
        <ele>1290.000000</ele>
        <time>2015-08-05T09:50:27Z</time>
        <speed>1.965000</speed>
      </trkpt>
      <trkpt lat="46.069164996" lon="7.202381979">
        <ele>1290.400000</ele>
        <time>2015-08-05T09:50:30Z</time>
        <speed>1.847000</speed>
      </trkpt>
      <trkpt lat="46.069169019" lon="7.202382650">
        <ele>1290.800000</ele>
        <time>2015-08-05T09:50:31Z</time>
        <speed>1.841000</speed>
      </trkpt>
      <trkpt lat="46.069180586" lon="7.202372256">
        <ele>1291.200000</ele>
        <time>2015-08-05T09:50:32Z</time>
        <speed>1.830000</speed>
      </trkpt>
      <trkpt lat="46.069192070" lon="7.202360857">
        <ele>1291.600000</ele>
        <time>2015-08-05T09:50:33Z</time>
        <speed>1.894000</speed>
      </trkpt>
      <trkpt lat="46.069203888" lon="7.202346105">
        <ele>1292.000000</ele>
        <time>2015-08-05T09:50:34Z</time>
        <speed>2.002000</speed>
      </trkpt>
      <trkpt lat="46.069228112" lon="7.202328419">
        <ele>1292.000000</ele>
        <time>2015-08-05T09:50:36Z</time>
        <speed>1.973000</speed>
      </trkpt>
      <trkpt lat="46.069270189" lon="7.202305872">
        <ele>1292.000000</ele>
        <time>2015-08-05T09:50:39Z</time>
        <speed>1.928000</speed>
      </trkpt>
      <trkpt lat="46.069363228" lon="7.202235799">
        <ele>1292.000000</ele>
        <time>2015-08-05T09:50:45Z</time>
        <speed>1.985000</speed>
      </trkpt>
      <trkpt lat="46.069381501" lon="7.202221214">
        <ele>1292.400000</ele>
        <time>2015-08-05T09:50:46Z</time>
        <speed>1.984000</speed>
      </trkpt>
      <trkpt lat="46.069393654" lon="7.202201517">
        <ele>1292.800000</ele>
        <time>2015-08-05T09:50:47Z</time>
        <speed>1.958000</speed>
      </trkpt>
      <trkpt lat="46.069414274" lon="7.202181819">
        <ele>1293.200000</ele>
        <time>2015-08-05T09:50:48Z</time>
        <speed>1.865000</speed>
      </trkpt>
      <trkpt lat="46.069432211" lon="7.202168325">
        <ele>1293.600000</ele>
        <time>2015-08-05T09:50:49Z</time>
        <speed>1.865000</speed>
      </trkpt>
      <trkpt lat="46.069448640" lon="7.202153656">
        <ele>1294.000000</ele>
        <time>2015-08-05T09:50:50Z</time>
        <speed>1.916000</speed>
      </trkpt>
      <trkpt lat="46.069524580" lon="7.202088445">
        <ele>1294.000000</ele>
        <time>2015-08-05T09:50:54Z</time>
        <speed>1.958000</speed>
      </trkpt>
      <trkpt lat="46.069555844" lon="7.202064557">
        <ele>1294.000000</ele>
        <time>2015-08-05T09:50:56Z</time>
        <speed>2.054000</speed>
      </trkpt>
      <trkpt lat="46.069606387" lon="7.202028012">
        <ele>1294.400000</ele>
        <time>2015-08-05T09:50:59Z</time>
        <speed>1.873000</speed>
      </trkpt>
      <trkpt lat="46.069626587" lon="7.202014768">
        <ele>1294.800000</ele>
        <time>2015-08-05T09:51:00Z</time>
        <speed>1.930000</speed>
      </trkpt>
      <trkpt lat="46.069637987" lon="7.201998423">
        <ele>1295.200000</ele>
        <time>2015-08-05T09:51:01Z</time>
        <speed>1.920000</speed>
      </trkpt>
      <trkpt lat="46.069653577" lon="7.201979564">
        <ele>1295.800000</ele>
        <time>2015-08-05T09:51:02Z</time>
        <speed>1.920000</speed>
      </trkpt>
      <trkpt lat="46.069664725" lon="7.201962717">
        <ele>1296.200000</ele>
        <time>2015-08-05T09:51:03Z</time>
        <speed>1.865000</speed>
      </trkpt>
      <trkpt lat="46.069677130" lon="7.201948551">
        <ele>1296.200000</ele>
        <time>2015-08-05T09:51:04Z</time>
        <speed>2.042000</speed>
      </trkpt>
      <trkpt lat="46.069750472" lon="7.201843610">
        <ele>1296.600000</ele>
        <time>2015-08-05T09:51:10Z</time>
        <speed>1.889000</speed>
      </trkpt>
      <trkpt lat="46.069762039" lon="7.201826091">
        <ele>1297.000000</ele>
        <time>2015-08-05T09:51:11Z</time>
        <speed>1.808000</speed>
      </trkpt>
      <trkpt lat="46.069771175" lon="7.201807232">
        <ele>1297.400000</ele>
        <time>2015-08-05T09:51:12Z</time>
        <speed>1.808000</speed>
      </trkpt>
      <trkpt lat="46.069777629" lon="7.201790636">
        <ele>1297.800000</ele>
        <time>2015-08-05T09:51:13Z</time>
        <speed>1.855000</speed>
      </trkpt>
      <trkpt lat="46.069785005" lon="7.201774208">
        <ele>1298.200000</ele>
        <time>2015-08-05T09:51:14Z</time>
        <speed>1.899000</speed>
      </trkpt>
      <trkpt lat="46.069821886" lon="7.201700279">
        <ele>1298.200000</ele>
        <time>2015-08-05T09:51:18Z</time>
        <speed>1.884000</speed>
      </trkpt>
      <trkpt lat="46.069896569" lon="7.201600032">
        <ele>1298.200000</ele>
        <time>2015-08-05T09:51:24Z</time>
        <speed>1.828000</speed>
      </trkpt>
      <trkpt lat="46.069909728" lon="7.201585363">
        <ele>1298.800000</ele>
        <time>2015-08-05T09:51:25Z</time>
        <speed>1.866000</speed>
      </trkpt>
      <trkpt lat="46.069920960" lon="7.201569354">
        <ele>1299.200000</ele>
        <time>2015-08-05T09:51:26Z</time>
        <speed>1.953000</speed>
      </trkpt>
      <trkpt lat="46.069933197" lon="7.201556110">
        <ele>1299.600000</ele>
        <time>2015-08-05T09:51:27Z</time>
        <speed>1.930000</speed>
      </trkpt>
      <trkpt lat="46.069947866" lon="7.201538089">
        <ele>1300.000000</ele>
        <time>2015-08-05T09:51:28Z</time>
        <speed>1.910000</speed>
      </trkpt>
      <trkpt lat="46.069960522" lon="7.201522834">
        <ele>1300.400000</ele>
        <time>2015-08-05T09:51:29Z</time>
        <speed>2.023000</speed>
      </trkpt>
      <trkpt lat="46.069992541" lon="7.201492073">
        <ele>1300.400000</ele>
        <time>2015-08-05T09:51:31Z</time>
        <speed>2.072000</speed>
      </trkpt>
      <trkpt lat="46.070096309" lon="7.201387131">
        <ele>1300.400000</ele>
        <time>2015-08-05T09:51:38Z</time>
        <speed>2.100000</speed>
      </trkpt>
      <trkpt lat="46.070115672" lon="7.201377073">
        <ele>1300.800000</ele>
        <time>2015-08-05T09:51:39Z</time>
        <speed>2.106000</speed>
      </trkpt>
      <trkpt lat="46.070132352" lon="7.201365925">
        <ele>1301.200000</ele>
        <time>2015-08-05T09:51:40Z</time>
        <speed>2.106000</speed>
      </trkpt>
      <trkpt lat="46.070148612" lon="7.201348826">
        <ele>1301.600000</ele>
        <time>2015-08-05T09:51:41Z</time>
        <speed>2.144000</speed>
      </trkpt>
      <trkpt lat="46.070165376" lon="7.201339354">
        <ele>1302.000000</ele>
        <time>2015-08-05T09:51:42Z</time>
        <speed>2.231000</speed>
      </trkpt>
      <trkpt lat="46.070178955" lon="7.201325357">
        <ele>1302.400000</ele>
        <time>2015-08-05T09:51:43Z</time>
        <speed>2.208000</speed>
      </trkpt>
      <trkpt lat="46.070197227" lon="7.201308844">
        <ele>1302.400000</ele>
        <time>2015-08-05T09:51:44Z</time>
        <speed>2.172000</speed>
      </trkpt>
      <trkpt lat="46.070307952" lon="7.201168280">
        <ele>1302.400000</ele>
        <time>2015-08-05T09:51:52Z</time>
        <speed>2.351000</speed>
      </trkpt>
      <trkpt lat="46.070427981" lon="7.201038360">
        <ele>1302.400000</ele>
        <time>2015-08-05T09:51:59Z</time>
        <speed>2.335000</speed>
      </trkpt>
      <trkpt lat="46.070442901" lon="7.201021261">
        <ele>1302.800000</ele>
        <time>2015-08-05T09:52:00Z</time>
        <speed>2.335000</speed>
      </trkpt>
      <trkpt lat="46.070457234" lon="7.201000977">
        <ele>1303.400000</ele>
        <time>2015-08-05T09:52:01Z</time>
        <speed>2.266000</speed>
      </trkpt>
      <trkpt lat="46.070471064" lon="7.200980106">
        <ele>1303.800000</ele>
        <time>2015-08-05T09:52:02Z</time>
        <speed>2.298000</speed>
      </trkpt>
      <trkpt lat="46.070480452" lon="7.200951188">
        <ele>1304.200000</ele>
        <time>2015-08-05T09:52:03Z</time>
        <speed>2.377000</speed>
      </trkpt>
      <trkpt lat="46.070489840" lon="7.200924702">
        <ele>1304.600000</ele>
        <time>2015-08-05T09:52:04Z</time>
        <speed>2.461000</speed>
      </trkpt>
      <trkpt lat="46.070497132" lon="7.200899807">
        <ele>1304.600000</ele>
        <time>2015-08-05T09:52:05Z</time>
        <speed>2.374000</speed>
      </trkpt>
      <trkpt lat="46.070487828" lon="7.200841050">
        <ele>1304.600000</ele>
        <time>2015-08-05T09:52:07Z</time>
        <speed>2.385000</speed>
      </trkpt>
      <trkpt lat="46.070450696" lon="7.200817162">
        <ele>1304.600000</ele>
        <time>2015-08-05T09:52:09Z</time>
        <speed>2.323000</speed>
      </trkpt>
      <trkpt lat="46.070372828" lon="7.200882289">
        <ele>1304.600000</ele>
        <time>2015-08-05T09:52:14Z</time>
        <speed>2.199000</speed>
      </trkpt>
      <trkpt lat="46.070353131" lon="7.200917242">
        <ele>1305.000000</ele>
        <time>2015-08-05T09:52:16Z</time>
        <speed>2.038000</speed>
      </trkpt>
      <trkpt lat="46.070343827" lon="7.200934508">
        <ele>1305.400000</ele>
        <time>2015-08-05T09:52:17Z</time>
        <speed>1.948000</speed>
      </trkpt>
      <trkpt lat="46.070336702" lon="7.200949428">
        <ele>1305.800000</ele>
        <time>2015-08-05T09:52:18Z</time>
        <speed>1.783000</speed>
      </trkpt>
      <trkpt lat="46.070322034" lon="7.200963845">
        <ele>1306.200000</ele>
        <time>2015-08-05T09:52:19Z</time>
        <speed>1.638000</speed>
      </trkpt>
      <trkpt lat="46.070310048" lon="7.200978430">
        <ele>1306.800000</ele>
        <time>2015-08-05T09:52:20Z</time>
        <speed>1.638000</speed>
      </trkpt>
      <trkpt lat="46.070295882" lon="7.201004162">
        <ele>1306.800000</ele>
        <time>2015-08-05T09:52:22Z</time>
        <speed>1.608000</speed>
      </trkpt>
      <trkpt lat="46.070251458" lon="7.201042635">
        <ele>1307.200000</ele>
        <time>2015-08-05T09:52:26Z</time>
        <speed>1.511000</speed>
      </trkpt>
      <trkpt lat="46.070243496" lon="7.201056633">
        <ele>1307.600000</ele>
        <time>2015-08-05T09:52:27Z</time>
        <speed>1.560000</speed>
      </trkpt>
      <trkpt lat="46.070230755" lon="7.201066859">
        <ele>1308.000000</ele>
        <time>2015-08-05T09:52:28Z</time>
        <speed>1.560000</speed>
      </trkpt>
      <trkpt lat="46.070219942" lon="7.201075408">
        <ele>1308.400000</ele>
        <time>2015-08-05T09:52:29Z</time>
        <speed>1.572000</speed>
      </trkpt>
      <trkpt lat="46.070207453" lon="7.201091753">
        <ele>1308.800000</ele>
        <time>2015-08-05T09:52:30Z</time>
        <speed>1.626000</speed>
      </trkpt>
      <trkpt lat="46.070187588" lon="7.201114552">
        <ele>1308.800000</ele>
        <time>2015-08-05T09:52:32Z</time>
        <speed>1.564000</speed>
      </trkpt>
      <trkpt lat="46.070113073" lon="7.201162412">
        <ele>1309.200000</ele>
        <time>2015-08-05T09:52:38Z</time>
        <speed>1.610000</speed>
      </trkpt>
      <trkpt lat="46.070101087" lon="7.201168783">
        <ele>1309.600000</ele>
        <time>2015-08-05T09:52:39Z</time>
        <speed>1.693000</speed>
      </trkpt>
      <trkpt lat="46.070086419" lon="7.201172806">
        <ele>1310.000000</ele>
        <time>2015-08-05T09:52:40Z</time>
        <speed>1.648000</speed>
      </trkpt>
      <trkpt lat="46.070072505" lon="7.201173979">
        <ele>1310.400000</ele>
        <time>2015-08-05T09:52:41Z</time>
        <speed>1.648000</speed>
      </trkpt>
      <trkpt lat="46.070060686" lon="7.201181523">
        <ele>1310.800000</ele>
        <time>2015-08-05T09:52:42Z</time>
        <speed>1.701000</speed>
      </trkpt>
      <trkpt lat="46.070019447" lon="7.201195521">
        <ele>1310.800000</ele>
        <time>2015-08-05T09:52:45Z</time>
        <speed>1.621000</speed>
      </trkpt>
      <trkpt lat="46.069920625" lon="7.201220750">
        <ele>1311.200000</ele>
        <time>2015-08-05T09:52:52Z</time>
        <speed>1.610000</speed>
      </trkpt>
      <trkpt lat="46.069907297" lon="7.201221840">
        <ele>1311.800000</ele>
        <time>2015-08-05T09:52:53Z</time>
        <speed>1.610000</speed>
      </trkpt>
      <trkpt lat="46.069891120" lon="7.201224019">
        <ele>1312.200000</ele>
        <time>2015-08-05T09:52:54Z</time>
        <speed>1.613000</speed>
      </trkpt>
      <trkpt lat="46.069877458" lon="7.201224271">
        <ele>1312.600000</ele>
        <time>2015-08-05T09:52:55Z</time>
        <speed>1.595000</speed>
      </trkpt>
      <trkpt lat="46.069861867" lon="7.201219242">
        <ele>1313.000000</ele>
        <time>2015-08-05T09:52:56Z</time>
        <speed>1.659000</speed>
      </trkpt>
      <trkpt lat="46.069807888" lon="7.201228378">
        <ele>1313.000000</ele>
        <time>2015-08-05T09:53:00Z</time>
        <speed>1.610000</speed>
      </trkpt>
      <trkpt lat="46.069721638" lon="7.201265761">
        <ele>1313.400000</ele>
        <time>2015-08-05T09:53:06Z</time>
        <speed>1.755000</speed>
      </trkpt>
      <trkpt lat="46.069706216" lon="7.201273976">
        <ele>1313.800000</ele>
        <time>2015-08-05T09:53:07Z</time>
        <speed>1.771000</speed>
      </trkpt>
      <trkpt lat="46.069691380" lon="7.201282609">
        <ele>1314.200000</ele>
        <time>2015-08-05T09:53:08Z</time>
        <speed>1.771000</speed>
      </trkpt>
      <trkpt lat="46.069673358" lon="7.201290153">
        <ele>1314.600000</ele>
        <time>2015-08-05T09:53:09Z</time>
        <speed>1.833000</speed>
      </trkpt>
      <trkpt lat="46.069661875" lon="7.201290739">
        <ele>1315.000000</ele>
        <time>2015-08-05T09:53:10Z</time>
        <speed>1.863000</speed>
      </trkpt>
      <trkpt lat="46.069640418" lon="7.201311778">
        <ele>1315.000000</ele>
        <time>2015-08-05T09:53:12Z</time>
        <speed>1.827000</speed>
      </trkpt>
      <trkpt lat="46.069566154" lon="7.201344551">
        <ele>1315.000000</ele>
        <time>2015-08-05T09:53:18Z</time>
        <speed>1.857000</speed>
      </trkpt>
      <trkpt lat="46.069543774" lon="7.201363243">
        <ele>1315.400000</ele>
        <time>2015-08-05T09:53:21Z</time>
        <speed>1.875000</speed>
      </trkpt>
      <trkpt lat="46.069531872" lon="7.201369948">
        <ele>1315.800000</ele>
        <time>2015-08-05T09:53:22Z</time>
        <speed>1.863000</speed>
      </trkpt>
      <trkpt lat="46.069518880" lon="7.201381599">
        <ele>1316.200000</ele>
        <time>2015-08-05T09:53:23Z</time>
        <speed>1.883000</speed>
      </trkpt>
      <trkpt lat="46.069509911" lon="7.201387634">
        <ele>1316.600000</ele>
        <time>2015-08-05T09:53:24Z</time>
        <speed>1.918000</speed>
      </trkpt>
      <trkpt lat="46.069496333" lon="7.201394843">
        <ele>1317.200000</ele>
        <time>2015-08-05T09:53:25Z</time>
        <speed>1.866000</speed>
      </trkpt>
      <trkpt lat="46.069465487" lon="7.201430382">
        <ele>1317.200000</ele>
        <time>2015-08-05T09:53:28Z</time>
        <speed>1.839000</speed>
      </trkpt>
      <trkpt lat="46.069384099" lon="7.201500371">
        <ele>1317.200000</ele>
        <time>2015-08-05T09:53:33Z</time>
        <speed>1.863000</speed>
      </trkpt>
      <trkpt lat="46.069389883" lon="7.201513446">
        <ele>1317.600000</ele>
        <time>2015-08-05T09:53:36Z</time>
        <speed>1.901000</speed>
      </trkpt>
      <trkpt lat="46.069383596" lon="7.201519146">
        <ele>1318.000000</ele>
        <time>2015-08-05T09:53:37Z</time>
        <speed>1.937000</speed>
      </trkpt>
      <trkpt lat="46.069386027" lon="7.201524762">
        <ele>1318.400000</ele>
        <time>2015-08-05T09:53:38Z</time>
        <speed>1.937000</speed>
      </trkpt>
      <trkpt lat="46.069371778" lon="7.201536664">
        <ele>1318.800000</ele>
        <time>2015-08-05T09:53:39Z</time>
        <speed>1.888000</speed>
      </trkpt>
      <trkpt lat="46.069364066" lon="7.201532557">
        <ele>1319.200000</ele>
        <time>2015-08-05T09:53:40Z</time>
        <speed>1.891000</speed>
      </trkpt>
      <trkpt lat="46.069350320" lon="7.201539766">
        <ele>1319.200000</ele>
        <time>2015-08-05T09:53:41Z</time>
        <speed>1.898000</speed>
      </trkpt>
      <trkpt lat="46.069281505" lon="7.201570527">
        <ele>1319.200000</ele>
        <time>2015-08-05T09:53:46Z</time>
        <speed>1.847000</speed>
      </trkpt>
      <trkpt lat="46.069255018" lon="7.201567510">
        <ele>1319.200000</ele>
        <time>2015-08-05T09:53:48Z</time>
        <speed>1.930000</speed>
      </trkpt>
      <trkpt lat="46.069212941" lon="7.201569689">
        <ele>1319.600000</ele>
        <time>2015-08-05T09:53:50Z</time>
        <speed>1.860000</speed>
      </trkpt>
      <trkpt lat="46.069185699" lon="7.201572539">
        <ele>1320.000000</ele>
        <time>2015-08-05T09:53:51Z</time>
        <speed>1.847000</speed>
      </trkpt>
      <trkpt lat="46.069170025" lon="7.201570779">
        <ele>1320.400000</ele>
        <time>2015-08-05T09:53:52Z</time>
        <speed>1.860000</speed>
      </trkpt>
      <trkpt lat="46.069151920" lon="7.201569438">
        <ele>1320.800000</ele>
        <time>2015-08-05T09:53:53Z</time>
        <speed>1.957000</speed>
      </trkpt>
      <trkpt lat="46.069123338" lon="7.201572874">
        <ele>1321.200000</ele>
        <time>2015-08-05T09:53:54Z</time>
        <speed>1.886000</speed>
      </trkpt>
      <trkpt lat="46.069103976" lon="7.201569605">
        <ele>1321.200000</ele>
        <time>2015-08-05T09:53:55Z</time>
        <speed>1.930000</speed>
      </trkpt>
      <trkpt lat="46.069029125" lon="7.201551500">
        <ele>1321.200000</ele>
        <time>2015-08-05T09:54:00Z</time>
        <speed>1.820000</speed>
      </trkpt>
      <trkpt lat="46.069002136" lon="7.201543118">
        <ele>1321.200000</ele>
        <time>2015-08-05T09:54:02Z</time>
        <speed>1.881000</speed>
      </trkpt>
      <trkpt lat="46.068957460" lon="7.201541777">
        <ele>1321.600000</ele>
        <time>2015-08-05T09:54:05Z</time>
        <speed>1.915000</speed>
      </trkpt>
      <trkpt lat="46.068939523" lon="7.201545046">
        <ele>1322.000000</ele>
        <time>2015-08-05T09:54:06Z</time>
        <speed>1.915000</speed>
      </trkpt>
      <trkpt lat="46.068922005" lon="7.201544376">
        <ele>1322.400000</ele>
        <time>2015-08-05T09:54:07Z</time>
        <speed>1.847000</speed>
      </trkpt>
      <trkpt lat="46.068908342" lon="7.201544292">
        <ele>1322.800000</ele>
        <time>2015-08-05T09:54:08Z</time>
        <speed>1.889000</speed>
      </trkpt>
      <trkpt lat="46.068888226" lon="7.201547896">
        <ele>1323.400000</ele>
        <time>2015-08-05T09:54:09Z</time>
        <speed>1.871000</speed>
      </trkpt>
      <trkpt lat="46.068832737" lon="7.201563906">
        <ele>1323.400000</ele>
        <time>2015-08-05T09:54:13Z</time>
        <speed>1.927000</speed>
      </trkpt>
      <trkpt lat="46.068745649" lon="7.201636158">
        <ele>1323.400000</ele>
        <time>2015-08-05T09:54:19Z</time>
        <speed>1.879000</speed>
      </trkpt>
      <trkpt lat="46.068727209" lon="7.201649233">
        <ele>1323.800000</ele>
        <time>2015-08-05T09:54:21Z</time>
        <speed>1.899000</speed>
      </trkpt>
      <trkpt lat="46.068719414" lon="7.201652418">
        <ele>1324.200000</ele>
        <time>2015-08-05T09:54:22Z</time>
        <speed>1.844000</speed>
      </trkpt>
      <trkpt lat="46.068717570" lon="7.201657867">
        <ele>1324.600000</ele>
        <time>2015-08-05T09:54:23Z</time>
        <speed>1.894000</speed>
      </trkpt>
      <trkpt lat="46.068708937" lon="7.201664237">
        <ele>1325.000000</ele>
        <time>2015-08-05T09:54:24Z</time>
        <speed>1.849000</speed>
      </trkpt>
      <trkpt lat="46.068698459" lon="7.201670607">
        <ele>1325.400000</ele>
        <time>2015-08-05T09:54:25Z</time>
        <speed>1.898000</speed>
      </trkpt>
      <trkpt lat="46.068623022" lon="7.201743781">
        <ele>1325.400000</ele>
        <time>2015-08-05T09:54:30Z</time>
        <speed>1.805000</speed>
      </trkpt>
      <trkpt lat="46.068616652" lon="7.201743865">
        <ele>1325.400000</ele>
        <time>2015-08-05T09:54:31Z</time>
        <speed>1.810000</speed>
      </trkpt>
      <trkpt lat="46.068571809" lon="7.201811172">
        <ele>1325.400000</ele>
        <time>2015-08-05T09:54:34Z</time>
        <speed>1.819000</speed>
      </trkpt>
      <trkpt lat="46.068530486" lon="7.201857607">
        <ele>1325.800000</ele>
        <time>2015-08-05T09:54:36Z</time>
        <speed>1.894000</speed>
      </trkpt>
      <trkpt lat="46.068518751" lon="7.201875126">
        <ele>1326.200000</ele>
        <time>2015-08-05T09:54:37Z</time>
        <speed>1.894000</speed>
      </trkpt>
      <trkpt lat="46.068504502" lon="7.201895242">
        <ele>1326.600000</ele>
        <time>2015-08-05T09:54:38Z</time>
        <speed>1.908000</speed>
      </trkpt>
      <trkpt lat="46.068492684" lon="7.201906474">
        <ele>1327.200000</ele>
        <time>2015-08-05T09:54:39Z</time>
        <speed>1.921000</speed>
      </trkpt>
      <trkpt lat="46.068473070" lon="7.201925668">
        <ele>1327.600000</ele>
        <time>2015-08-05T09:54:40Z</time>
        <speed>1.903000</speed>
      </trkpt>
      <trkpt lat="46.068432921" lon="7.201963890">
        <ele>1327.600000</ele>
        <time>2015-08-05T09:54:43Z</time>
        <speed>1.873000</speed>
      </trkpt>
      <trkpt lat="46.068366955" lon="7.202050559">
        <ele>1327.600000</ele>
        <time>2015-08-05T09:54:48Z</time>
        <speed>1.836000</speed>
      </trkpt>
      <trkpt lat="46.068326890" lon="7.202103868">
        <ele>1328.000000</ele>
        <time>2015-08-05T09:54:51Z</time>
        <speed>1.953000</speed>
      </trkpt>
      <trkpt lat="46.068323788" lon="7.202110154">
        <ele>1328.400000</ele>
        <time>2015-08-05T09:54:52Z</time>
        <speed>1.965000</speed>
      </trkpt>
      <trkpt lat="46.068322615" lon="7.202116776">
        <ele>1328.800000</ele>
        <time>2015-08-05T09:54:53Z</time>
        <speed>1.932000</speed>
      </trkpt>
      <trkpt lat="46.068310880" lon="7.202121637">
        <ele>1329.200000</ele>
        <time>2015-08-05T09:54:54Z</time>
        <speed>1.906000</speed>
      </trkpt>
      <trkpt lat="46.068297637" lon="7.202129852">
        <ele>1329.600000</ele>
        <time>2015-08-05T09:54:55Z</time>
        <speed>1.878000</speed>
      </trkpt>
      <trkpt lat="46.068280621" lon="7.202151393">
        <ele>1329.600000</ele>
        <time>2015-08-05T09:54:58Z</time>
        <speed>1.830000</speed>
      </trkpt>
      <trkpt lat="46.068249357" lon="7.202210150">
        <ele>1329.600000</ele>
        <time>2015-08-05T09:55:00Z</time>
        <speed>1.941000</speed>
      </trkpt>
      <trkpt lat="46.068200658" lon="7.202273853">
        <ele>1329.600000</ele>
        <time>2015-08-05T09:55:04Z</time>
        <speed>1.955000</speed>
      </trkpt>
      <trkpt lat="46.068163862" lon="7.202307129">
        <ele>1329.600000</ele>
        <time>2015-08-05T09:55:06Z</time>
        <speed>1.918000</speed>
      </trkpt>
      <trkpt lat="46.068115498" lon="7.202351553">
        <ele>1330.000000</ele>
        <time>2015-08-05T09:55:10Z</time>
        <speed>1.891000</speed>
      </trkpt>
      <trkpt lat="46.068100830" lon="7.202370496">
        <ele>1330.400000</ele>
        <time>2015-08-05T09:55:11Z</time>
        <speed>1.831000</speed>
      </trkpt>
      <trkpt lat="46.068089346" lon="7.202375022">
        <ele>1330.800000</ele>
        <time>2015-08-05T09:55:12Z</time>
        <speed>1.845000</speed>
      </trkpt>
      <trkpt lat="46.068068559" lon="7.202391451">
        <ele>1331.200000</ele>
        <time>2015-08-05T09:55:13Z</time>
        <speed>1.811000</speed>
      </trkpt>
      <trkpt lat="46.068051460" lon="7.202402431">
        <ele>1331.800000</ele>
        <time>2015-08-05T09:55:14Z</time>
        <speed>1.855000</speed>
      </trkpt>
      <trkpt lat="46.068037043" lon="7.202416680">
        <ele>1331.800000</ele>
        <time>2015-08-05T09:55:15Z</time>
        <speed>1.898000</speed>
      </trkpt>
      <trkpt lat="46.067916428" lon="7.202518018">
        <ele>1331.800000</ele>
        <time>2015-08-05T09:55:22Z</time>
        <speed>1.876000</speed>
      </trkpt>
      <trkpt lat="46.067900670" lon="7.202536625">
        <ele>1332.200000</ele>
        <time>2015-08-05T09:55:23Z</time>
        <speed>1.876000</speed>
      </trkpt>
      <trkpt lat="46.067886421" lon="7.202548444">
        <ele>1332.600000</ele>
        <time>2015-08-05T09:55:24Z</time>
        <speed>1.888000</speed>
      </trkpt>
      <trkpt lat="46.067873261" lon="7.202562023">
        <ele>1333.000000</ele>
        <time>2015-08-05T09:55:25Z</time>
        <speed>1.944000</speed>
      </trkpt>
      <trkpt lat="46.067855910" lon="7.202570991">
        <ele>1333.400000</ele>
        <time>2015-08-05T09:55:26Z</time>
        <speed>1.913000</speed>
      </trkpt>
      <trkpt lat="46.067838308" lon="7.202581888">
        <ele>1333.800000</ele>
        <time>2015-08-05T09:55:27Z</time>
        <speed>1.855000</speed>
      </trkpt>
      <trkpt lat="46.067794220" lon="7.202620444">
        <ele>1333.800000</ele>
        <time>2015-08-05T09:55:29Z</time>
        <speed>1.891000</speed>
      </trkpt>
      <trkpt lat="46.067738983" lon="7.202690936">
        <ele>1333.800000</ele>
        <time>2015-08-05T09:55:34Z</time>
        <speed>1.849000</speed>
      </trkpt>
      <trkpt lat="46.067680729" lon="7.202736701">
        <ele>1333.800000</ele>
        <time>2015-08-05T09:55:40Z</time>
        <speed>1.819000</speed>
      </trkpt>
      <trkpt lat="46.067667988" lon="7.202745335">
        <ele>1334.600000</ele>
        <time>2015-08-05T09:55:41Z</time>
        <speed>1.827000</speed>
      </trkpt>
      <trkpt lat="46.067651560" lon="7.202765284">
        <ele>1335.000000</ele>
        <time>2015-08-05T09:55:42Z</time>
        <speed>1.841000</speed>
      </trkpt>
      <trkpt lat="46.067634963" lon="7.202771403">
        <ele>1335.400000</ele>
        <time>2015-08-05T09:55:43Z</time>
        <speed>1.850000</speed>
      </trkpt>
      <trkpt lat="46.067621972" lon="7.202780036">
        <ele>1335.800000</ele>
        <time>2015-08-05T09:55:44Z</time>
        <speed>1.863000</speed>
      </trkpt>
      <trkpt lat="46.067609399" lon="7.202786406">
        <ele>1335.800000</ele>
        <time>2015-08-05T09:55:45Z</time>
        <speed>1.866000</speed>
      </trkpt>
      <trkpt lat="46.067494483" lon="7.202786238">
        <ele>1335.800000</ele>
        <time>2015-08-05T09:55:51Z</time>
        <speed>1.819000</speed>
      </trkpt>
      <trkpt lat="46.067466320" lon="7.202768636">
        <ele>1336.200000</ele>
        <time>2015-08-05T09:55:53Z</time>
        <speed>1.827000</speed>
      </trkpt>
      <trkpt lat="46.067450729" lon="7.202762853">
        <ele>1336.600000</ele>
        <time>2015-08-05T09:55:54Z</time>
        <speed>1.828000</speed>
      </trkpt>
      <trkpt lat="46.067435642" lon="7.202760338">
        <ele>1337.000000</ele>
        <time>2015-08-05T09:55:55Z</time>
        <speed>1.828000</speed>
      </trkpt>
      <trkpt lat="46.067422817" lon="7.202754723">
        <ele>1337.400000</ele>
        <time>2015-08-05T09:55:56Z</time>
        <speed>1.858000</speed>
      </trkpt>
      <trkpt lat="46.067400857" lon="7.202753465">
        <ele>1337.800000</ele>
        <time>2015-08-05T09:55:57Z</time>
        <speed>1.865000</speed>
      </trkpt>
      <trkpt lat="46.067301280" lon="7.202705521">
        <ele>1337.800000</ele>
        <time>2015-08-05T09:56:03Z</time>
        <speed>1.871000</speed>
      </trkpt>
      <trkpt lat="46.067219473" lon="7.202664952">
        <ele>1337.800000</ele>
        <time>2015-08-05T09:56:08Z</time>
        <speed>1.928000</speed>
      </trkpt>
      <trkpt lat="46.067182173" lon="7.202660426">
        <ele>1338.400000</ele>
        <time>2015-08-05T09:56:10Z</time>
        <speed>1.951000</speed>
      </trkpt>
      <trkpt lat="46.067161386" lon="7.202658331">
        <ele>1338.800000</ele>
        <time>2015-08-05T09:56:11Z</time>
        <speed>1.834000</speed>
      </trkpt>
      <trkpt lat="46.067146550" lon="7.202647099">
        <ele>1339.200000</ele>
        <time>2015-08-05T09:56:12Z</time>
        <speed>1.855000</speed>
      </trkpt>
      <trkpt lat="46.067125092" lon="7.202644165">
        <ele>1339.600000</ele>
        <time>2015-08-05T09:56:13Z</time>
        <speed>1.828000</speed>
      </trkpt>
      <trkpt lat="46.067105982" lon="7.202637124">
        <ele>1340.000000</ele>
        <time>2015-08-05T09:56:14Z</time>
        <speed>1.899000</speed>
      </trkpt>
      <trkpt lat="46.067062060" lon="7.202625390">
        <ele>1340.000000</ele>
        <time>2015-08-05T09:56:17Z</time>
        <speed>1.804000</speed>
      </trkpt>
      <trkpt lat="46.067001543" lon="7.202637292">
        <ele>1340.000000</ele>
        <time>2015-08-05T09:56:21Z</time>
        <speed>1.868000</speed>
      </trkpt>
      <trkpt lat="46.066906995" lon="7.202679956">
        <ele>1340.400000</ele>
        <time>2015-08-05T09:56:26Z</time>
        <speed>1.881000</speed>
      </trkpt>
      <trkpt lat="46.066888806" lon="7.202694038">
        <ele>1341.000000</ele>
        <time>2015-08-05T09:56:27Z</time>
        <speed>1.903000</speed>
      </trkpt>
      <trkpt lat="46.066874222" lon="7.202707532">
        <ele>1341.400000</ele>
        <time>2015-08-05T09:56:28Z</time>
        <speed>1.802000</speed>
      </trkpt>
      <trkpt lat="46.066865086" lon="7.202721195">
        <ele>1341.800000</ele>
        <time>2015-08-05T09:56:29Z</time>
        <speed>1.781000</speed>
      </trkpt>
      <trkpt lat="46.066857961" lon="7.202733013">
        <ele>1342.200000</ele>
        <time>2015-08-05T09:56:30Z</time>
        <speed>1.871000</speed>
      </trkpt>
      <trkpt lat="46.066827283" lon="7.202800069">
        <ele>1342.200000</ele>
        <time>2015-08-05T09:56:33Z</time>
        <speed>1.778000</speed>
      </trkpt>
      <trkpt lat="46.066746146" lon="7.202965863">
        <ele>1342.600000</ele>
        <time>2015-08-05T09:56:40Z</time>
        <speed>1.771000</speed>
      </trkpt>
      <trkpt lat="46.066732149" lon="7.202991847">
        <ele>1343.000000</ele>
        <time>2015-08-05T09:56:41Z</time>
        <speed>1.822000</speed>
      </trkpt>
      <trkpt lat="46.066717648" lon="7.203011879">
        <ele>1343.400000</ele>
        <time>2015-08-05T09:56:42Z</time>
        <speed>1.838000</speed>
      </trkpt>
      <trkpt lat="46.066702561" lon="7.203030739">
        <ele>1343.800000</ele>
        <time>2015-08-05T09:56:43Z</time>
        <speed>1.893000</speed>
      </trkpt>
      <trkpt lat="46.066687389" lon="7.203049263">
        <ele>1344.200000</ele>
        <time>2015-08-05T09:56:44Z</time>
        <speed>1.828000</speed>
      </trkpt>
      <trkpt lat="46.066628632" lon="7.203109528">
        <ele>1344.200000</ele>
        <time>2015-08-05T09:56:48Z</time>
        <speed>1.866000</speed>
      </trkpt>
      <trkpt lat="46.066525451" lon="7.203195359">
        <ele>1344.200000</ele>
        <time>2015-08-05T09:56:54Z</time>
        <speed>1.953000</speed>
      </trkpt>
      <trkpt lat="46.066507765" lon="7.203200724">
        <ele>1345.000000</ele>
        <time>2015-08-05T09:56:55Z</time>
        <speed>2.050000</speed>
      </trkpt>
      <trkpt lat="46.066486307" lon="7.203208435">
        <ele>1345.400000</ele>
        <time>2015-08-05T09:56:56Z</time>
        <speed>2.084000</speed>
      </trkpt>
      <trkpt lat="46.066461329" lon="7.203224277">
        <ele>1345.800000</ele>
        <time>2015-08-05T09:56:57Z</time>
        <speed>2.019000</speed>
      </trkpt>
      <trkpt lat="46.066449008" lon="7.203235257">
        <ele>1346.200000</ele>
        <time>2015-08-05T09:56:58Z</time>
        <speed>2.195000</speed>
      </trkpt>
      <trkpt lat="46.066340211" lon="7.203317651">
        <ele>1346.200000</ele>
        <time>2015-08-05T09:57:04Z</time>
        <speed>2.136000</speed>
      </trkpt>
      <trkpt lat="46.066261170" lon="7.203381186">
        <ele>1346.600000</ele>
        <time>2015-08-05T09:57:09Z</time>
        <speed>2.050000</speed>
      </trkpt>
      <trkpt lat="46.066246753" lon="7.203394178">
        <ele>1347.000000</ele>
        <time>2015-08-05T09:57:10Z</time>
        <speed>1.937000</speed>
      </trkpt>
      <trkpt lat="46.066234096" lon="7.203404991">
        <ele>1347.400000</ele>
        <time>2015-08-05T09:57:11Z</time>
        <speed>1.814000</speed>
      </trkpt>
      <trkpt lat="46.066223786" lon="7.203422844">
        <ele>1348.000000</ele>
        <time>2015-08-05T09:57:12Z</time>
        <speed>1.868000</speed>
      </trkpt>
      <trkpt lat="46.066209956" lon="7.203430974">
        <ele>1348.400000</ele>
        <time>2015-08-05T09:57:13Z</time>
        <speed>1.799000</speed>
      </trkpt>
      <trkpt lat="46.066174668" lon="7.203461652">
        <ele>1348.400000</ele>
        <time>2015-08-05T09:57:16Z</time>
        <speed>1.825000</speed>
      </trkpt>
      <trkpt lat="46.066102835" lon="7.203512614">
        <ele>1348.800000</ele>
        <time>2015-08-05T09:57:21Z</time>
        <speed>1.679000</speed>
      </trkpt>
      <trkpt lat="46.066092442" lon="7.203524433">
        <ele>1349.200000</ele>
        <time>2015-08-05T09:57:22Z</time>
        <speed>1.690000</speed>
      </trkpt>
      <trkpt lat="46.066078109" lon="7.203538430">
        <ele>1349.600000</ele>
        <time>2015-08-05T09:57:23Z</time>
        <speed>1.731000</speed>
      </trkpt>
      <trkpt lat="46.066066123" lon="7.203552596">
        <ele>1350.000000</ele>
        <time>2015-08-05T09:57:24Z</time>
        <speed>1.685000</speed>
      </trkpt>
      <trkpt lat="46.066052879" lon="7.203561648">
        <ele>1350.400000</ele>
        <time>2015-08-05T09:57:25Z</time>
        <speed>1.762000</speed>
      </trkpt>
      <trkpt lat="46.065969479" lon="7.203635828">
        <ele>1350.400000</ele>
        <time>2015-08-05T09:57:31Z</time>
        <speed>1.798000</speed>
      </trkpt>
      <trkpt lat="46.065850205" lon="7.203722916">
        <ele>1351.200000</ele>
        <time>2015-08-05T09:57:39Z</time>
        <speed>1.822000</speed>
      </trkpt>
      <trkpt lat="46.065839225" lon="7.203734902">
        <ele>1351.200000</ele>
        <time>2015-08-05T09:57:40Z</time>
        <speed>1.801000</speed>
      </trkpt>
      <trkpt lat="46.065827406" lon="7.203736243">
        <ele>1351.200000</ele>
        <time>2015-08-05T09:57:41Z</time>
        <speed>1.828000</speed>
      </trkpt>
      <trkpt lat="46.065809636" lon="7.203748565">
        <ele>1351.200000</ele>
        <time>2015-08-05T09:57:42Z</time>
        <speed>1.834000</speed>
      </trkpt>
      <trkpt lat="46.065791615" lon="7.203755857">
        <ele>1351.800000</ele>
        <time>2015-08-05T09:57:43Z</time>
        <speed>1.834000</speed>
      </trkpt>
      <trkpt lat="46.065777198" lon="7.203762646">
        <ele>1353.000000</ele>
        <time>2015-08-05T09:57:44Z</time>
        <speed>1.780000</speed>
      </trkpt>
      <trkpt lat="46.065761608" lon="7.203771028">
        <ele>1353.800000</ele>
        <time>2015-08-05T09:57:45Z</time>
        <speed>1.834000</speed>
      </trkpt>
      <trkpt lat="46.065744928" lon="7.203779494">
        <ele>1354.400000</ele>
        <time>2015-08-05T09:57:46Z</time>
        <speed>1.886000</speed>
      </trkpt>
      <trkpt lat="46.065686506" lon="7.203822242">
        <ele>1354.400000</ele>
        <time>2015-08-05T09:57:50Z</time>
        <speed>1.790000</speed>
      </trkpt>
      <trkpt lat="46.065603022" lon="7.203885609">
        <ele>1354.400000</ele>
        <time>2015-08-05T09:57:56Z</time>
        <speed>1.762000</speed>
      </trkpt>
      <trkpt lat="46.065524400" lon="7.204007482">
        <ele>1354.400000</ele>
        <time>2015-08-05T09:58:03Z</time>
        <speed>1.796000</speed>
      </trkpt>
      <trkpt lat="46.065504284" lon="7.204049894">
        <ele>1354.800000</ele>
        <time>2015-08-05T09:58:05Z</time>
        <speed>1.734000</speed>
      </trkpt>
      <trkpt lat="46.065495650" lon="7.204066574">
        <ele>1355.200000</ele>
        <time>2015-08-05T09:58:06Z</time>
        <speed>1.784000</speed>
      </trkpt>
      <trkpt lat="46.065491040" lon="7.204086942">
        <ele>1355.600000</ele>
        <time>2015-08-05T09:58:07Z</time>
        <speed>1.756000</speed>
      </trkpt>
      <trkpt lat="46.065487436" lon="7.204102030">
        <ele>1356.000000</ele>
        <time>2015-08-05T09:58:08Z</time>
        <speed>1.778000</speed>
      </trkpt>
      <trkpt lat="46.065486682" lon="7.204119296">
        <ele>1356.600000</ele>
        <time>2015-08-05T09:58:09Z</time>
        <speed>1.792000</speed>
      </trkpt>
      <trkpt lat="46.065483413" lon="7.204151986">
        <ele>1356.600000</ele>
        <time>2015-08-05T09:58:11Z</time>
        <speed>1.824000</speed>
      </trkpt>
      <trkpt lat="46.065450807" lon="7.204300681">
        <ele>1357.000000</ele>
        <time>2015-08-05T09:58:18Z</time>
        <speed>1.915000</speed>
      </trkpt>
      <trkpt lat="46.065447371" lon="7.204319791">
        <ele>1357.400000</ele>
        <time>2015-08-05T09:58:19Z</time>
        <speed>1.915000</speed>
      </trkpt>
      <trkpt lat="46.065436055" lon="7.204340998">
        <ele>1357.800000</ele>
        <time>2015-08-05T09:58:20Z</time>
        <speed>1.908000</speed>
      </trkpt>
      <trkpt lat="46.065430020" lon="7.204363880">
        <ele>1358.200000</ele>
        <time>2015-08-05T09:58:21Z</time>
        <speed>1.844000</speed>
      </trkpt>
      <trkpt lat="46.065426751" lon="7.204378549">
        <ele>1358.600000</ele>
        <time>2015-08-05T09:58:22Z</time>
        <speed>1.871000</speed>
      </trkpt>
      <trkpt lat="46.065417615" lon="7.204416267">
        <ele>1358.600000</ele>
        <time>2015-08-05T09:58:24Z</time>
        <speed>1.802000</speed>
      </trkpt>
      <trkpt lat="46.065398588" lon="7.204559514">
        <ele>1359.000000</ele>
        <time>2015-08-05T09:58:31Z</time>
        <speed>1.819000</speed>
      </trkpt>
      <trkpt lat="46.065395822" lon="7.204578038">
        <ele>1359.400000</ele>
        <time>2015-08-05T09:58:32Z</time>
        <speed>1.819000</speed>
      </trkpt>
      <trkpt lat="46.065392888" lon="7.204600250">
        <ele>1359.800000</ele>
        <time>2015-08-05T09:58:33Z</time>
        <speed>1.793000</speed>
      </trkpt>
      <trkpt lat="46.065384087" lon="7.204617349">
        <ele>1360.600000</ele>
        <time>2015-08-05T09:58:34Z</time>
        <speed>1.789000</speed>
      </trkpt>
      <trkpt lat="46.065364390" lon="7.204694546">
        <ele>1360.600000</ele>
        <time>2015-08-05T09:58:38Z</time>
        <speed>1.772000</speed>
      </trkpt>
      <trkpt lat="46.065351649" lon="7.204715585">
        <ele>1360.600000</ele>
        <time>2015-08-05T09:58:39Z</time>
        <speed>1.783000</speed>
      </trkpt>
      <trkpt lat="46.065332287" lon="7.204781467">
        <ele>1360.600000</ele>
        <time>2015-08-05T09:58:42Z</time>
        <speed>1.865000</speed>
      </trkpt>
      <trkpt lat="46.065326336" lon="7.204803260">
        <ele>1360.600000</ele>
        <time>2015-08-05T09:58:43Z</time>
        <speed>1.850000</speed>
      </trkpt>
      <trkpt lat="46.065318625" lon="7.204863777">
        <ele>1361.000000</ele>
        <time>2015-08-05T09:58:46Z</time>
        <speed>1.930000</speed>
      </trkpt>
      <trkpt lat="46.065317451" lon="7.204886324">
        <ele>1361.400000</ele>
        <time>2015-08-05T09:58:47Z</time>
        <speed>1.949000</speed>
      </trkpt>
      <trkpt lat="46.065317703" lon="7.204910297">
        <ele>1362.000000</ele>
        <time>2015-08-05T09:58:48Z</time>
        <speed>1.875000</speed>
      </trkpt>
      <trkpt lat="46.065316948" lon="7.204936448">
        <ele>1362.400000</ele>
        <time>2015-08-05T09:58:49Z</time>
        <speed>1.875000</speed>
      </trkpt>
      <trkpt lat="46.065317535" lon="7.204961761">
        <ele>1362.800000</ele>
        <time>2015-08-05T09:58:50Z</time>
        <speed>1.939000</speed>
      </trkpt>
      <trkpt lat="46.065324827" lon="7.205132333">
        <ele>1362.800000</ele>
        <time>2015-08-05T09:58:57Z</time>
        <speed>1.834000</speed>
      </trkpt>
      <trkpt lat="46.065332203" lon="7.205224786">
        <ele>1363.200000</ele>
        <time>2015-08-05T09:59:01Z</time>
        <speed>1.852000</speed>
      </trkpt>
      <trkpt lat="46.065331868" lon="7.205242471">
        <ele>1363.600000</ele>
        <time>2015-08-05T09:59:02Z</time>
        <speed>1.916000</speed>
      </trkpt>
      <trkpt lat="46.065327761" lon="7.205267114">
        <ele>1364.000000</ele>
        <time>2015-08-05T09:59:03Z</time>
        <speed>1.969000</speed>
      </trkpt>
      <trkpt lat="46.065322061" lon="7.205287147">
        <ele>1364.400000</ele>
        <time>2015-08-05T09:59:04Z</time>
        <speed>1.908000</speed>
      </trkpt>
      <trkpt lat="46.065316361" lon="7.205313131">
        <ele>1364.800000</ele>
        <time>2015-08-05T09:59:05Z</time>
        <speed>1.948000</speed>
      </trkpt>
      <trkpt lat="46.065291383" lon="7.205390915">
        <ele>1364.800000</ele>
        <time>2015-08-05T09:59:09Z</time>
        <speed>1.989000</speed>
      </trkpt>
      <trkpt lat="46.065263388" lon="7.205470543">
        <ele>1364.800000</ele>
        <time>2015-08-05T09:59:13Z</time>
        <speed>1.873000</speed>
      </trkpt>
      <trkpt lat="46.065251318" lon="7.205482529">
        <ele>1364.800000</ele>
        <time>2015-08-05T09:59:14Z</time>
        <speed>1.958000</speed>
      </trkpt>
      <trkpt lat="46.065235141" lon="7.205511698">
        <ele>1365.200000</ele>
        <time>2015-08-05T09:59:17Z</time>
        <speed>1.886000</speed>
      </trkpt>
      <trkpt lat="46.065222819" lon="7.205530222">
        <ele>1365.600000</ele>
        <time>2015-08-05T09:59:18Z</time>
        <speed>1.871000</speed>
      </trkpt>
      <trkpt lat="46.065210330" lon="7.205548495">
        <ele>1366.000000</ele>
        <time>2015-08-05T09:59:19Z</time>
        <speed>1.863000</speed>
      </trkpt>
      <trkpt lat="46.065197841" lon="7.205564253">
        <ele>1366.400000</ele>
        <time>2015-08-05T09:59:20Z</time>
        <speed>1.759000</speed>
      </trkpt>
      <trkpt lat="46.065185268" lon="7.205582190">
        <ele>1366.800000</ele>
        <time>2015-08-05T09:59:21Z</time>
        <speed>1.759000</speed>
      </trkpt>
      <trkpt lat="46.065093570" lon="7.205672798">
        <ele>1367.200000</ele>
        <time>2015-08-05T09:59:27Z</time>
        <speed>1.777000</speed>
      </trkpt>
      <trkpt lat="46.065083261" lon="7.205684114">
        <ele>1367.600000</ele>
        <time>2015-08-05T09:59:28Z</time>
        <speed>1.813000</speed>
      </trkpt>
      <trkpt lat="46.065064401" lon="7.205698195">
        <ele>1368.000000</ele>
        <time>2015-08-05T09:59:29Z</time>
        <speed>1.886000</speed>
      </trkpt>
      <trkpt lat="46.065049901" lon="7.205709679">
        <ele>1368.400000</ele>
        <time>2015-08-05T09:59:30Z</time>
        <speed>1.824000</speed>
      </trkpt>
      <trkpt lat="46.065035149" lon="7.205725269">
        <ele>1368.800000</ele>
        <time>2015-08-05T09:59:31Z</time>
        <speed>1.827000</speed>
      </trkpt>
      <trkpt lat="46.064969183" lon="7.205776315">
        <ele>1368.800000</ele>
        <time>2015-08-05T09:59:35Z</time>
        <speed>1.819000</speed>
      </trkpt>
      <trkpt lat="46.064861308" lon="7.205886872">
        <ele>1368.800000</ele>
        <time>2015-08-05T09:59:43Z</time>
        <speed>1.903000</speed>
      </trkpt>
      <trkpt lat="46.064849573" lon="7.205899445">
        <ele>1369.200000</ele>
        <time>2015-08-05T09:59:44Z</time>
        <speed>1.896000</speed>
      </trkpt>
      <trkpt lat="46.064834486" lon="7.205911012">
        <ele>1369.600000</ele>
        <time>2015-08-05T09:59:45Z</time>
        <speed>1.896000</speed>
      </trkpt>
      <trkpt lat="46.064822081" lon="7.205928027">
        <ele>1370.200000</ele>
        <time>2015-08-05T09:59:46Z</time>
        <speed>1.941000</speed>
      </trkpt>
      <trkpt lat="46.064811436" lon="7.205938588">
        <ele>1370.600000</ele>
        <time>2015-08-05T09:59:47Z</time>
        <speed>1.883000</speed>
      </trkpt>
      <trkpt lat="46.064798527" lon="7.205946803">
        <ele>1371.000000</ele>
        <time>2015-08-05T09:59:48Z</time>
        <speed>1.834000</speed>
      </trkpt>
      <trkpt lat="46.064769610" lon="7.205971948">
        <ele>1371.000000</ele>
        <time>2015-08-05T09:59:50Z</time>
        <speed>1.844000</speed>
      </trkpt>
      <trkpt lat="46.064693167" lon="7.206053421">
        <ele>1371.000000</ele>
        <time>2015-08-05T09:59:56Z</time>
        <speed>1.825000</speed>
      </trkpt>
      <trkpt lat="46.064681684" lon="7.206067334">
        <ele>1371.400000</ele>
        <time>2015-08-05T09:59:57Z</time>
        <speed>1.838000</speed>
      </trkpt>
      <trkpt lat="46.064663076" lon="7.206082338">
        <ele>1371.800000</ele>
        <time>2015-08-05T09:59:58Z</time>
        <speed>1.865000</speed>
      </trkpt>
      <trkpt lat="46.064653604" lon="7.206094576">
        <ele>1372.200000</ele>
        <time>2015-08-05T09:59:59Z</time>
        <speed>1.808000</speed>
      </trkpt>
      <trkpt lat="46.064642456" lon="7.206111256">
        <ele>1372.600000</ele>
        <time>2015-08-05T10:00:00Z</time>
        <speed>1.850000</speed>
      </trkpt>
      <trkpt lat="46.064628626" lon="7.206127433">
        <ele>1373.000000</ele>
        <time>2015-08-05T10:00:01Z</time>
        <speed>1.850000</speed>
      </trkpt>
      <trkpt lat="46.064615634" lon="7.206145202">
        <ele>1373.000000</ele>
        <time>2015-08-05T10:00:02Z</time>
        <speed>1.798000</speed>
      </trkpt>
      <trkpt lat="46.064539862" lon="7.206229692">
        <ele>1373.000000</ele>
        <time>2015-08-05T10:00:08Z</time>
        <speed>1.876000</speed>
      </trkpt>
      <trkpt lat="46.064497785" lon="7.206272775">
        <ele>1373.400000</ele>
        <time>2015-08-05T10:00:11Z</time>
        <speed>1.896000</speed>
      </trkpt>
      <trkpt lat="46.064473812" lon="7.206286605">
        <ele>1374.200000</ele>
        <time>2015-08-05T10:00:12Z</time>
        <speed>1.894000</speed>
      </trkpt>
      <trkpt lat="46.064452690" lon="7.206294316">
        <ele>1374.600000</ele>
        <time>2015-08-05T10:00:13Z</time>
        <speed>1.889000</speed>
      </trkpt>
      <trkpt lat="46.064433831" lon="7.206303453">
        <ele>1375.000000</ele>
        <time>2015-08-05T10:00:14Z</time>
        <speed>2.006000</speed>
      </trkpt>
      <trkpt lat="46.064415642" lon="7.206309069">
        <ele>1375.000000</ele>
        <time>2015-08-05T10:00:16Z</time>
        <speed>1.918000</speed>
      </trkpt>
      <trkpt lat="46.064375577" lon="7.206302950">
        <ele>1375.000000</ele>
        <time>2015-08-05T10:00:19Z</time>
        <speed>1.855000</speed>
      </trkpt>
      <trkpt lat="46.064292093" lon="7.206301022">
        <ele>1375.000000</ele>
        <time>2015-08-05T10:00:24Z</time>
        <speed>1.870000</speed>
      </trkpt>
      <trkpt lat="46.064245154" lon="7.206297334">
        <ele>1375.400000</ele>
        <time>2015-08-05T10:00:27Z</time>
        <speed>1.870000</speed>
      </trkpt>
      <trkpt lat="46.064230067" lon="7.206294652">
        <ele>1375.800000</ele>
        <time>2015-08-05T10:00:28Z</time>
        <speed>1.855000</speed>
      </trkpt>
      <trkpt lat="46.064215566" lon="7.206299932">
        <ele>1376.400000</ele>
        <time>2015-08-05T10:00:29Z</time>
        <speed>1.855000</speed>
      </trkpt>
      <trkpt lat="46.064201987" lon="7.206297669">
        <ele>1376.800000</ele>
        <time>2015-08-05T10:00:30Z</time>
        <speed>1.898000</speed>
      </trkpt>
      <trkpt lat="46.064190756" lon="7.206295825">
        <ele>1377.200000</ele>
        <time>2015-08-05T10:00:31Z</time>
        <speed>1.883000</speed>
      </trkpt>
      <trkpt lat="46.064147589" lon="7.206304878">
        <ele>1377.200000</ele>
        <time>2015-08-05T10:00:34Z</time>
        <speed>1.884000</speed>
      </trkpt>
      <trkpt lat="46.064101488" lon="7.206293814">
        <ele>1377.200000</ele>
        <time>2015-08-05T10:00:36Z</time>
        <speed>2.372000</speed>
      </trkpt>
      <trkpt lat="46.064026554" lon="7.206294652">
        <ele>1377.600000</ele>
        <time>2015-08-05T10:00:41Z</time>
        <speed>1.850000</speed>
      </trkpt>
      <trkpt lat="46.064009539" lon="7.206291886">
        <ele>1378.000000</ele>
        <time>2015-08-05T10:00:42Z</time>
        <speed>1.850000</speed>
      </trkpt>
      <trkpt lat="46.063996044" lon="7.206285935">
        <ele>1378.400000</ele>
        <time>2015-08-05T10:00:43Z</time>
        <speed>1.850000</speed>
      </trkpt>
      <trkpt lat="46.063975760" lon="7.206280905">
        <ele>1378.800000</ele>
        <time>2015-08-05T10:00:44Z</time>
        <speed>1.789000</speed>
      </trkpt>
      <trkpt lat="46.063961762" lon="7.206270260">
        <ele>1379.200000</ele>
        <time>2015-08-05T10:00:45Z</time>
        <speed>1.706000</speed>
      </trkpt>
      <trkpt lat="46.063915159" lon="7.206245366">
        <ele>1379.200000</ele>
        <time>2015-08-05T10:00:48Z</time>
        <speed>1.881000</speed>
      </trkpt>
      <trkpt lat="46.063811475" lon="7.206172611">
        <ele>1379.200000</ele>
        <time>2015-08-05T10:00:55Z</time>
        <speed>2.038000</speed>
      </trkpt>
      <trkpt lat="46.063698989" lon="7.206103880">
        <ele>1379.600000</ele>
        <time>2015-08-05T10:01:01Z</time>
        <speed>2.136000</speed>
      </trkpt>
      <trkpt lat="46.063668312" lon="7.206111675">
        <ele>1380.600000</ele>
        <time>2015-08-05T10:01:02Z</time>
        <speed>2.142000</speed>
      </trkpt>
      <trkpt lat="46.063656074" lon="7.206094324">
        <ele>1381.000000</ele>
        <time>2015-08-05T10:01:03Z</time>
        <speed>2.131000</speed>
      </trkpt>
      <trkpt lat="46.063640484" lon="7.206087619">
        <ele>1381.400000</ele>
        <time>2015-08-05T10:01:04Z</time>
        <speed>2.006000</speed>
      </trkpt>
      <trkpt lat="46.063584744" lon="7.206092564">
        <ele>1381.400000</ele>
        <time>2015-08-05T10:01:06Z</time>
        <speed>2.144000</speed>
      </trkpt>
      <trkpt lat="46.063514671" lon="7.206062473">
        <ele>1381.400000</ele>
        <time>2015-08-05T10:01:10Z</time>
        <speed>2.113000</speed>
      </trkpt>
      <trkpt lat="46.063430601" lon="7.206036405">
        <ele>1381.400000</ele>
        <time>2015-08-05T10:01:15Z</time>
        <speed>2.058000</speed>
      </trkpt>
      <trkpt lat="46.063388021" lon="7.206046631">
        <ele>1381.800000</ele>
        <time>2015-08-05T10:01:17Z</time>
        <speed>1.847000</speed>
      </trkpt>
      <trkpt lat="46.063378633" lon="7.206039590">
        <ele>1382.200000</ele>
        <time>2015-08-05T10:01:18Z</time>
        <speed>1.886000</speed>
      </trkpt>
      <trkpt lat="46.063367988" lon="7.206032130">
        <ele>1382.600000</ele>
        <time>2015-08-05T10:01:19Z</time>
        <speed>1.865000</speed>
      </trkpt>
      <trkpt lat="46.063358684" lon="7.206023246">
        <ele>1383.000000</ele>
        <time>2015-08-05T10:01:20Z</time>
        <speed>1.579000</speed>
      </trkpt>
      <trkpt lat="46.063348542" lon="7.206019055">
        <ele>1383.400000</ele>
        <time>2015-08-05T10:01:21Z</time>
        <speed>1.571000</speed>
      </trkpt>
      <trkpt lat="46.063275117" lon="7.206030538">
        <ele>1383.400000</ele>
        <time>2015-08-05T10:01:26Z</time>
        <speed>1.532000</speed>
      </trkpt>
      <trkpt lat="46.063249216" lon="7.206037663">
        <ele>1383.800000</ele>
        <time>2015-08-05T10:01:28Z</time>
        <speed>1.532000</speed>
      </trkpt>
      <trkpt lat="46.063227256" lon="7.206037663">
        <ele>1384.400000</ele>
        <time>2015-08-05T10:01:29Z</time>
        <speed>1.632000</speed>
      </trkpt>
      <trkpt lat="46.063210073" lon="7.206047050">
        <ele>1384.800000</ele>
        <time>2015-08-05T10:01:30Z</time>
        <speed>1.636000</speed>
      </trkpt>
      <trkpt lat="46.063190795" lon="7.206056438">
        <ele>1385.200000</ele>
        <time>2015-08-05T10:01:31Z</time>
        <speed>1.683000</speed>
      </trkpt>
      <trkpt lat="46.063182580" lon="7.206050571">
        <ele>1385.600000</ele>
        <time>2015-08-05T10:01:32Z</time>
        <speed>1.605000</speed>
      </trkpt>
      <trkpt lat="46.063108568" lon="7.206031460">
        <ele>1385.600000</ele>
        <time>2015-08-05T10:01:39Z</time>
        <speed>1.685000</speed>
      </trkpt>
      <trkpt lat="46.063038998" lon="7.206002794">
        <ele>1386.000000</ele>
        <time>2015-08-05T10:01:44Z</time>
        <speed>1.621000</speed>
      </trkpt>
      <trkpt lat="46.063027012" lon="7.205993490">
        <ele>1386.400000</ele>
        <time>2015-08-05T10:01:45Z</time>
        <speed>1.621000</speed>
      </trkpt>
      <trkpt lat="46.063020977" lon="7.205977229">
        <ele>1386.800000</ele>
        <time>2015-08-05T10:01:46Z</time>
        <speed>1.621000</speed>
      </trkpt>
      <trkpt lat="46.063004968" lon="7.205973960">
        <ele>1387.200000</ele>
        <time>2015-08-05T10:01:47Z</time>
        <speed>1.591000</speed>
      </trkpt>
      <trkpt lat="46.062993820" lon="7.205967422">
        <ele>1387.600000</ele>
        <time>2015-08-05T10:01:48Z</time>
        <speed>1.607000</speed>
      </trkpt>
      <trkpt lat="46.062970518" lon="7.205951329">
        <ele>1387.600000</ele>
        <time>2015-08-05T10:01:50Z</time>
        <speed>1.678000</speed>
      </trkpt>
      <trkpt lat="46.062921735" lon="7.205905899">
        <ele>1387.600000</ele>
        <time>2015-08-05T10:01:54Z</time>
        <speed>1.707000</speed>
      </trkpt>
      <trkpt lat="46.062886867" lon="7.205865750">
        <ele>1387.600000</ele>
        <time>2015-08-05T10:01:57Z</time>
        <speed>1.775000</speed>
      </trkpt>
      <trkpt lat="46.062856608" lon="7.205829372">
        <ele>1388.200000</ele>
        <time>2015-08-05T10:02:00Z</time>
        <speed>1.654000</speed>
      </trkpt>
      <trkpt lat="46.062846801" lon="7.205813111">
        <ele>1388.600000</ele>
        <time>2015-08-05T10:02:01Z</time>
        <speed>1.654000</speed>
      </trkpt>
      <trkpt lat="46.062836492" lon="7.205796515">
        <ele>1389.000000</ele>
        <time>2015-08-05T10:02:02Z</time>
        <speed>1.654000</speed>
      </trkpt>
      <trkpt lat="46.062822242" lon="7.205785870">
        <ele>1389.400000</ele>
        <time>2015-08-05T10:02:03Z</time>
        <speed>1.731000</speed>
      </trkpt>
      <trkpt lat="46.062812938" lon="7.205765418">
        <ele>1389.800000</ele>
        <time>2015-08-05T10:02:04Z</time>
        <speed>1.762000</speed>
      </trkpt>
      <trkpt lat="46.062799779" lon="7.205745721">
        <ele>1389.800000</ele>
        <time>2015-08-05T10:02:05Z</time>
        <speed>1.876000</speed>
      </trkpt>
      <trkpt lat="46.062696681" lon="7.205633571">
        <ele>1389.800000</ele>
        <time>2015-08-05T10:02:13Z</time>
        <speed>1.833000</speed>
      </trkpt>
      <trkpt lat="46.062675643" lon="7.205598367">
        <ele>1390.200000</ele>
        <time>2015-08-05T10:02:15Z</time>
        <speed>1.866000</speed>
      </trkpt>
      <trkpt lat="46.062670111" lon="7.205581016">
        <ele>1390.600000</ele>
        <time>2015-08-05T10:02:16Z</time>
        <speed>1.866000</speed>
      </trkpt>
      <trkpt lat="46.062657454" lon="7.205565175">
        <ele>1391.000000</ele>
        <time>2015-08-05T10:02:17Z</time>
        <speed>1.866000</speed>
      </trkpt>
      <trkpt lat="46.062642450" lon="7.205552434">
        <ele>1391.400000</ele>
        <time>2015-08-05T10:02:18Z</time>
        <speed>1.825000</speed>
      </trkpt>
      <trkpt lat="46.062624346" lon="7.205539526">
        <ele>1391.800000</ele>
        <time>2015-08-05T10:02:19Z</time>
        <speed>1.783000</speed>
      </trkpt>
      <trkpt lat="46.062526361" lon="7.205427460">
        <ele>1391.800000</ele>
        <time>2015-08-05T10:02:26Z</time>
        <speed>2.080000</speed>
      </trkpt>
      <trkpt lat="46.062466933" lon="7.205362584">
        <ele>1392.200000</ele>
        <time>2015-08-05T10:02:30Z</time>
        <speed>2.072000</speed>
      </trkpt>
      <trkpt lat="46.062455115" lon="7.205349005">
        <ele>1392.600000</ele>
        <time>2015-08-05T10:02:31Z</time>
        <speed>2.044000</speed>
      </trkpt>
      <trkpt lat="46.062442542" lon="7.205336433">
        <ele>1393.000000</ele>
        <time>2015-08-05T10:02:32Z</time>
        <speed>2.044000</speed>
      </trkpt>
      <trkpt lat="46.062431562" lon="7.205322770">
        <ele>1393.400000</ele>
        <time>2015-08-05T10:02:33Z</time>
        <speed>2.044000</speed>
      </trkpt>
      <trkpt lat="46.062418905" lon="7.205311538">
        <ele>1393.800000</ele>
        <time>2015-08-05T10:02:34Z</time>
        <speed>1.836000</speed>
      </trkpt>
      <trkpt lat="46.062328297" lon="7.205221433">
        <ele>1393.800000</ele>
        <time>2015-08-05T10:02:41Z</time>
        <speed>1.792000</speed>
      </trkpt>
      <trkpt lat="46.062281023" lon="7.205179859">
        <ele>1394.400000</ele>
        <time>2015-08-05T10:02:45Z</time>
        <speed>1.748000</speed>
      </trkpt>
      <trkpt lat="46.062266271" lon="7.205166112">
        <ele>1394.800000</ele>
        <time>2015-08-05T10:02:46Z</time>
        <speed>1.810000</speed>
      </trkpt>
      <trkpt lat="46.062252105" lon="7.205153539">
        <ele>1395.200000</ele>
        <time>2015-08-05T10:02:47Z</time>
        <speed>1.810000</speed>
      </trkpt>
      <trkpt lat="46.062240371" lon="7.205140967">
        <ele>1395.600000</ele>
        <time>2015-08-05T10:02:48Z</time>
        <speed>1.827000</speed>
      </trkpt>
      <trkpt lat="46.062228301" lon="7.205130741">
        <ele>1396.000000</ele>
        <time>2015-08-05T10:02:49Z</time>
        <speed>1.827000</speed>
      </trkpt>
      <trkpt lat="46.062128472" lon="7.205061087">
        <ele>1396.000000</ele>
        <time>2015-08-05T10:02:56Z</time>
        <speed>1.870000</speed>
      </trkpt>
      <trkpt lat="46.062050185" lon="7.205006772">
        <ele>1396.400000</ele>
        <time>2015-08-05T10:03:01Z</time>
        <speed>1.915000</speed>
      </trkpt>
      <trkpt lat="46.062035685" lon="7.204993864">
        <ele>1396.800000</ele>
        <time>2015-08-05T10:03:02Z</time>
        <speed>1.838000</speed>
      </trkpt>
      <trkpt lat="46.062020513" lon="7.204981040">
        <ele>1397.400000</ele>
        <time>2015-08-05T10:03:03Z</time>
        <speed>1.838000</speed>
      </trkpt>
      <trkpt lat="46.062007186" lon="7.204971820">
        <ele>1397.800000</ele>
        <time>2015-08-05T10:03:04Z</time>
        <speed>1.822000</speed>
      </trkpt>
      <trkpt lat="46.061993440" lon="7.204964025">
        <ele>1398.200000</ele>
        <time>2015-08-05T10:03:05Z</time>
        <speed>1.860000</speed>
      </trkpt>
      <trkpt lat="46.061933761" lon="7.204913146">
        <ele>1398.200000</ele>
        <time>2015-08-05T10:03:09Z</time>
        <speed>2.100000</speed>
      </trkpt>
      <trkpt lat="46.061837033" lon="7.204847097">
        <ele>1398.200000</ele>
        <time>2015-08-05T10:03:15Z</time>
        <speed>1.901000</speed>
      </trkpt>
      <trkpt lat="46.061804512" lon="7.204832848">
        <ele>1398.600000</ele>
        <time>2015-08-05T10:03:17Z</time>
        <speed>1.928000</speed>
      </trkpt>
      <trkpt lat="46.061789340" lon="7.204823628">
        <ele>1399.000000</ele>
        <time>2015-08-05T10:03:18Z</time>
        <speed>1.915000</speed>
      </trkpt>
      <trkpt lat="46.061773499" lon="7.204816000">
        <ele>1399.600000</ele>
        <time>2015-08-05T10:03:19Z</time>
        <speed>1.866000</speed>
      </trkpt>
      <trkpt lat="46.061757573" lon="7.204810133">
        <ele>1400.000000</ele>
        <time>2015-08-05T10:03:20Z</time>
        <speed>1.949000</speed>
      </trkpt>
      <trkpt lat="46.061740725" lon="7.204802002">
        <ele>1400.400000</ele>
        <time>2015-08-05T10:03:21Z</time>
        <speed>1.894000</speed>
      </trkpt>
      <trkpt lat="46.061712143" lon="7.204787334">
        <ele>1400.400000</ele>
        <time>2015-08-05T10:03:23Z</time>
        <speed>1.841000</speed>
      </trkpt>
      <trkpt lat="46.061607872" lon="7.204771660">
        <ele>1400.400000</ele>
        <time>2015-08-05T10:03:30Z</time>
        <speed>1.896000</speed>
      </trkpt>
      <trkpt lat="46.061577362" lon="7.204762356">
        <ele>1400.800000</ele>
        <time>2015-08-05T10:03:32Z</time>
        <speed>1.852000</speed>
      </trkpt>
      <trkpt lat="46.061557162" lon="7.204762691">
        <ele>1401.200000</ele>
        <time>2015-08-05T10:03:33Z</time>
        <speed>1.836000</speed>
      </trkpt>
      <trkpt lat="46.061538219" lon="7.204765373">
        <ele>1401.600000</ele>
        <time>2015-08-05T10:03:34Z</time>
        <speed>2.040000</speed>
      </trkpt>
      <trkpt lat="46.061518102" lon="7.204765541">
        <ele>1402.000000</ele>
        <time>2015-08-05T10:03:35Z</time>
        <speed>2.040000</speed>
      </trkpt>
      <trkpt lat="46.061500835" lon="7.204764116">
        <ele>1402.400000</ele>
        <time>2015-08-05T10:03:36Z</time>
        <speed>1.989000</speed>
      </trkpt>
      <trkpt lat="46.061483988" lon="7.204764032">
        <ele>1402.400000</ele>
        <time>2015-08-05T10:03:37Z</time>
        <speed>2.025000</speed>
      </trkpt>
      <trkpt lat="46.061424728" lon="7.204734696">
        <ele>1402.400000</ele>
        <time>2015-08-05T10:03:42Z</time>
        <speed>1.852000</speed>
      </trkpt>
      <trkpt lat="46.061344597" lon="7.204687338">
        <ele>1402.800000</ele>
        <time>2015-08-05T10:03:47Z</time>
        <speed>2.255000</speed>
      </trkpt>
      <trkpt lat="46.061326659" lon="7.204678537">
        <ele>1403.400000</ele>
        <time>2015-08-05T10:03:48Z</time>
        <speed>2.153000</speed>
      </trkpt>
      <trkpt lat="46.061308303" lon="7.204670909">
        <ele>1403.800000</ele>
        <time>2015-08-05T10:03:49Z</time>
        <speed>2.146000</speed>
      </trkpt>
      <trkpt lat="46.061294054" lon="7.204665880">
        <ele>1404.200000</ele>
        <time>2015-08-05T10:03:50Z</time>
        <speed>2.074000</speed>
      </trkpt>
      <trkpt lat="46.061278799" lon="7.204657163">
        <ele>1404.600000</ele>
        <time>2015-08-05T10:03:51Z</time>
        <speed>2.019000</speed>
      </trkpt>
      <trkpt lat="46.061246277" lon="7.204637633">
        <ele>1404.600000</ele>
        <time>2015-08-05T10:03:53Z</time>
        <speed>2.050000</speed>
      </trkpt>
      <trkpt lat="46.061165894" lon="7.204597903">
        <ele>1404.600000</ele>
        <time>2015-08-05T10:03:58Z</time>
        <speed>1.822000</speed>
      </trkpt>
      <trkpt lat="46.061147873" lon="7.204592036">
        <ele>1405.000000</ele>
        <time>2015-08-05T10:03:59Z</time>
        <speed>1.772000</speed>
      </trkpt>
      <trkpt lat="46.061130774" lon="7.204589856">
        <ele>1405.400000</ele>
        <time>2015-08-05T10:04:00Z</time>
        <speed>1.783000</speed>
      </trkpt>
      <trkpt lat="46.061117028" lon="7.204585833">
        <ele>1405.800000</ele>
        <time>2015-08-05T10:04:01Z</time>
        <speed>1.805000</speed>
      </trkpt>
      <trkpt lat="46.061101102" lon="7.204581223">
        <ele>1406.200000</ele>
        <time>2015-08-05T10:04:02Z</time>
        <speed>1.805000</speed>
      </trkpt>
      <trkpt lat="46.061084674" lon="7.204575104">
        <ele>1406.600000</ele>
        <time>2015-08-05T10:04:03Z</time>
        <speed>1.793000</speed>
      </trkpt>
      <trkpt lat="46.060974284" lon="7.204558005">
        <ele>1406.600000</ele>
        <time>2015-08-05T10:04:09Z</time>
        <speed>1.833000</speed>
      </trkpt>
      <trkpt lat="46.060906055" lon="7.204545181">
        <ele>1407.000000</ele>
        <time>2015-08-05T10:04:14Z</time>
        <speed>1.687000</speed>
      </trkpt>
      <trkpt lat="46.060891303" lon="7.204541828">
        <ele>1407.400000</ele>
        <time>2015-08-05T10:04:15Z</time>
        <speed>1.687000</speed>
      </trkpt>
      <trkpt lat="46.060876216" lon="7.204535961">
        <ele>1407.800000</ele>
        <time>2015-08-05T10:04:16Z</time>
        <speed>1.698000</speed>
      </trkpt>
      <trkpt lat="46.060858698" lon="7.204527579">
        <ele>1408.200000</ele>
        <time>2015-08-05T10:04:17Z</time>
        <speed>1.774000</speed>
      </trkpt>
      <trkpt lat="46.060840593" lon="7.204518443">
        <ele>1408.600000</ele>
        <time>2015-08-05T10:04:18Z</time>
        <speed>1.816000</speed>
      </trkpt>
      <trkpt lat="46.060811843" lon="7.204500338">
        <ele>1408.600000</ele>
        <time>2015-08-05T10:04:20Z</time>
        <speed>1.793000</speed>
      </trkpt>
      <trkpt lat="46.060797342" lon="7.204490615">
        <ele>1408.600000</ele>
        <time>2015-08-05T10:04:21Z</time>
        <speed>1.808000</speed>
      </trkpt>
      <trkpt lat="46.060730706" lon="7.204475695">
        <ele>1408.600000</ele>
        <time>2015-08-05T10:04:25Z</time>
        <speed>1.934000</speed>
      </trkpt>
      <trkpt lat="46.060694077" lon="7.204471085">
        <ele>1409.000000</ele>
        <time>2015-08-05T10:04:27Z</time>
        <speed>1.951000</speed>
      </trkpt>
      <trkpt lat="46.060676894" lon="7.204466475">
        <ele>1409.400000</ele>
        <time>2015-08-05T10:04:28Z</time>
        <speed>1.884000</speed>
      </trkpt>
      <trkpt lat="46.060663315" lon="7.204461697">
        <ele>1409.800000</ele>
        <time>2015-08-05T10:04:29Z</time>
        <speed>1.891000</speed>
      </trkpt>
      <trkpt lat="46.060650407" lon="7.204457171">
        <ele>1410.200000</ele>
        <time>2015-08-05T10:04:30Z</time>
        <speed>1.863000</speed>
      </trkpt>
      <trkpt lat="46.060637415" lon="7.204450465">
        <ele>1410.600000</ele>
        <time>2015-08-05T10:04:31Z</time>
        <speed>1.879000</speed>
      </trkpt>
      <trkpt lat="46.060623250" lon="7.204445017">
        <ele>1410.600000</ele>
        <time>2015-08-05T10:04:32Z</time>
        <speed>1.879000</speed>
      </trkpt>
      <trkpt lat="46.060508921" lon="7.204445269">
        <ele>1410.600000</ele>
        <time>2015-08-05T10:04:39Z</time>
        <speed>1.816000</speed>
      </trkpt>
      <trkpt lat="46.060496599" lon="7.204446777">
        <ele>1410.600000</ele>
        <time>2015-08-05T10:04:40Z</time>
        <speed>1.904000</speed>
      </trkpt>
      <trkpt lat="46.060449493" lon="7.204442000">
        <ele>1411.000000</ele>
        <time>2015-08-05T10:04:43Z</time>
        <speed>1.884000</speed>
      </trkpt>
      <trkpt lat="46.060431556" lon="7.204443760">
        <ele>1411.800000</ele>
        <time>2015-08-05T10:04:44Z</time>
        <speed>1.884000</speed>
      </trkpt>
      <trkpt lat="46.060412361" lon="7.204445772">
        <ele>1412.200000</ele>
        <time>2015-08-05T10:04:45Z</time>
        <speed>1.894000</speed>
      </trkpt>
      <trkpt lat="46.060392329" lon="7.204451052">
        <ele>1412.600000</ele>
        <time>2015-08-05T10:04:46Z</time>
        <speed>1.839000</speed>
      </trkpt>
      <trkpt lat="46.060374643" lon="7.204453818">
        <ele>1412.600000</ele>
        <time>2015-08-05T10:04:47Z</time>
        <speed>1.941000</speed>
      </trkpt>
      <trkpt lat="46.060329464" lon="7.204456081">
        <ele>1412.600000</ele>
        <time>2015-08-05T10:04:50Z</time>
        <speed>1.921000</speed>
      </trkpt>
      <trkpt lat="46.060246735" lon="7.204442167">
        <ele>1412.600000</ele>
        <time>2015-08-05T10:04:56Z</time>
        <speed>1.908000</speed>
      </trkpt>
      <trkpt lat="46.060200215" lon="7.204427750">
        <ele>1413.000000</ele>
        <time>2015-08-05T10:04:59Z</time>
        <speed>1.850000</speed>
      </trkpt>
      <trkpt lat="46.060183032" lon="7.204425403">
        <ele>1413.400000</ele>
        <time>2015-08-05T10:05:00Z</time>
        <speed>1.896000</speed>
      </trkpt>
      <trkpt lat="46.060164341" lon="7.204426828">
        <ele>1413.800000</ele>
        <time>2015-08-05T10:05:01Z</time>
        <speed>1.879000</speed>
      </trkpt>
      <trkpt lat="46.060146655" lon="7.204425068">
        <ele>1414.400000</ele>
        <time>2015-08-05T10:05:02Z</time>
        <speed>1.875000</speed>
      </trkpt>
      <trkpt lat="46.060132154" lon="7.204424733">
        <ele>1414.800000</ele>
        <time>2015-08-05T10:05:03Z</time>
        <speed>1.878000</speed>
      </trkpt>
      <trkpt lat="46.060052694" lon="7.204418027">
        <ele>1414.800000</ele>
        <time>2015-08-05T10:05:08Z</time>
        <speed>1.910000</speed>
      </trkpt>
      <trkpt lat="46.059964768" lon="7.204427583">
        <ele>1415.200000</ele>
        <time>2015-08-05T10:05:13Z</time>
        <speed>1.868000</speed>
      </trkpt>
      <trkpt lat="46.059947166" lon="7.204427499">
        <ele>1415.600000</ele>
        <time>2015-08-05T10:05:14Z</time>
        <speed>1.834000</speed>
      </trkpt>
      <trkpt lat="46.059932078" lon="7.204430684">
        <ele>1416.000000</ele>
        <time>2015-08-05T10:05:15Z</time>
        <speed>1.838000</speed>
      </trkpt>
      <trkpt lat="46.059914895" lon="7.204431690">
        <ele>1416.400000</ele>
        <time>2015-08-05T10:05:16Z</time>
        <speed>1.858000</speed>
      </trkpt>
      <trkpt lat="46.059898551" lon="7.204428086">
        <ele>1416.800000</ele>
        <time>2015-08-05T10:05:17Z</time>
        <speed>1.850000</speed>
      </trkpt>
      <trkpt lat="46.059864855" lon="7.204425487">
        <ele>1416.800000</ele>
        <time>2015-08-05T10:05:19Z</time>
        <speed>1.842000</speed>
      </trkpt>
      <trkpt lat="46.059753292" lon="7.204453650">
        <ele>1416.800000</ele>
        <time>2015-08-05T10:05:25Z</time>
        <speed>1.871000</speed>
      </trkpt>
      <trkpt lat="46.059733846" lon="7.204447616">
        <ele>1417.200000</ele>
        <time>2015-08-05T10:05:26Z</time>
        <speed>1.852000</speed>
      </trkpt>
      <trkpt lat="46.059713814" lon="7.204439737">
        <ele>1417.600000</ele>
        <time>2015-08-05T10:05:27Z</time>
        <speed>1.844000</speed>
      </trkpt>
      <trkpt lat="46.059698642" lon="7.204432277">
        <ele>1418.000000</ele>
        <time>2015-08-05T10:05:28Z</time>
        <speed>1.881000</speed>
      </trkpt>
      <trkpt lat="46.059684393" lon="7.204422973">
        <ele>1418.400000</ele>
        <time>2015-08-05T10:05:29Z</time>
        <speed>1.861000</speed>
      </trkpt>
      <trkpt lat="46.059673245" lon="7.204406879">
        <ele>1418.800000</ele>
        <time>2015-08-05T10:05:30Z</time>
        <speed>1.861000</speed>
      </trkpt>
      <trkpt lat="46.059705180" lon="7.204315265">
        <ele>1418.800000</ele>
        <time>2015-08-05T10:05:35Z</time>
        <speed>1.962000</speed>
      </trkpt>
      <trkpt lat="46.059738624" lon="7.204303112">
        <ele>1418.800000</ele>
        <time>2015-08-05T10:05:37Z</time>
        <speed>1.847000</speed>
      </trkpt>
      <trkpt lat="46.059784305" lon="7.204305961">
        <ele>1418.800000</ele>
        <time>2015-08-05T10:05:40Z</time>
        <speed>1.827000</speed>
      </trkpt>
      <trkpt lat="46.059798303" lon="7.204308392">
        <ele>1419.200000</ele>
        <time>2015-08-05T10:05:41Z</time>
        <speed>1.951000</speed>
      </trkpt>
      <trkpt lat="46.059810960" lon="7.204309817">
        <ele>1419.600000</ele>
        <time>2015-08-05T10:05:42Z</time>
        <speed>2.038000</speed>
      </trkpt>
      <trkpt lat="46.059830573" lon="7.204307973">
        <ele>1420.200000</ele>
        <time>2015-08-05T10:05:43Z</time>
        <speed>2.092000</speed>
      </trkpt>
      <trkpt lat="46.059852785" lon="7.204304704">
        <ele>1420.600000</ele>
        <time>2015-08-05T10:05:44Z</time>
        <speed>2.106000</speed>
      </trkpt>
      <trkpt lat="46.059873489" lon="7.204306297">
        <ele>1421.000000</ele>
        <time>2015-08-05T10:05:45Z</time>
        <speed>2.155000</speed>
      </trkpt>
      <trkpt lat="46.059891677" lon="7.204305542">
        <ele>1421.000000</ele>
        <time>2015-08-05T10:05:46Z</time>
        <speed>2.179000</speed>
      </trkpt>
      <trkpt lat="46.060020256" lon="7.204282157">
        <ele>1421.000000</ele>
        <time>2015-08-05T10:05:53Z</time>
        <speed>2.136000</speed>
      </trkpt>
      <trkpt lat="46.060123856" lon="7.204228764">
        <ele>1421.400000</ele>
        <time>2015-08-05T10:05:59Z</time>
        <speed>2.115000</speed>
      </trkpt>
      <trkpt lat="46.060136261" lon="7.204220382">
        <ele>1421.800000</ele>
        <time>2015-08-05T10:06:00Z</time>
        <speed>2.088000</speed>
      </trkpt>
      <trkpt lat="46.060148918" lon="7.204210324">
        <ele>1422.400000</ele>
        <time>2015-08-05T10:06:01Z</time>
        <speed>1.915000</speed>
      </trkpt>
      <trkpt lat="46.060161994" lon="7.204204289">
        <ele>1422.800000</ele>
        <time>2015-08-05T10:06:02Z</time>
        <speed>1.915000</speed>
      </trkpt>
      <trkpt lat="46.060174651" lon="7.204196242">
        <ele>1423.200000</ele>
        <time>2015-08-05T10:06:03Z</time>
        <speed>1.903000</speed>
      </trkpt>
      <trkpt lat="46.060210441" lon="7.204162044">
        <ele>1423.200000</ele>
        <time>2015-08-05T10:06:06Z</time>
        <speed>1.906000</speed>
      </trkpt>
      <trkpt lat="46.060300295" lon="7.204095073">
        <ele>1423.600000</ele>
        <time>2015-08-05T10:06:12Z</time>
        <speed>1.980000</speed>
      </trkpt>
      <trkpt lat="46.060314377" lon="7.204089122">
        <ele>1424.000000</ele>
        <time>2015-08-05T10:06:13Z</time>
        <speed>1.847000</speed>
      </trkpt>
      <trkpt lat="46.060327117" lon="7.204076381">
        <ele>1424.400000</ele>
        <time>2015-08-05T10:06:14Z</time>
        <speed>1.836000</speed>
      </trkpt>
      <trkpt lat="46.060340193" lon="7.204063221">
        <ele>1424.800000</ele>
        <time>2015-08-05T10:06:15Z</time>
        <speed>1.814000</speed>
      </trkpt>
      <trkpt lat="46.060351173" lon="7.204048972">
        <ele>1425.400000</ele>
        <time>2015-08-05T10:06:16Z</time>
        <speed>1.805000</speed>
      </trkpt>
      <trkpt lat="46.060395765" lon="7.204016786">
        <ele>1425.400000</ele>
        <time>2015-08-05T10:06:19Z</time>
        <speed>1.827000</speed>
      </trkpt>
      <trkpt lat="46.060489642" lon="7.203954508">
        <ele>1425.400000</ele>
        <time>2015-08-05T10:06:26Z</time>
        <speed>1.828000</speed>
      </trkpt>
      <trkpt lat="46.060503137" lon="7.203943025">
        <ele>1425.800000</ele>
        <time>2015-08-05T10:06:27Z</time>
        <speed>1.828000</speed>
      </trkpt>
      <trkpt lat="46.060517554" lon="7.203929446">
        <ele>1426.200000</ele>
        <time>2015-08-05T10:06:28Z</time>
        <speed>1.828000</speed>
      </trkpt>
      <trkpt lat="46.060533480" lon="7.203920059">
        <ele>1426.600000</ele>
        <time>2015-08-05T10:06:29Z</time>
        <speed>1.850000</speed>
      </trkpt>
      <trkpt lat="46.060546723" lon="7.203908743">
        <ele>1427.000000</ele>
        <time>2015-08-05T10:06:30Z</time>
        <speed>1.884000</speed>
      </trkpt>
      <trkpt lat="46.060560134" lon="7.203898182">
        <ele>1427.400000</ele>
        <time>2015-08-05T10:06:31Z</time>
        <speed>1.868000</speed>
      </trkpt>
      <trkpt lat="46.060576647" lon="7.203887369">
        <ele>1427.400000</ele>
        <time>2015-08-05T10:06:32Z</time>
        <speed>1.883000</speed>
      </trkpt>
      <trkpt lat="46.060664573" lon="7.203821739">
        <ele>1427.400000</ele>
        <time>2015-08-05T10:06:39Z</time>
        <speed>1.844000</speed>
      </trkpt>
      <trkpt lat="46.060717043" lon="7.203797934">
        <ele>1427.400000</ele>
        <time>2015-08-05T10:06:42Z</time>
        <speed>1.820000</speed>
      </trkpt>
      <trkpt lat="46.060735148" lon="7.203792402">
        <ele>1427.800000</ele>
        <time>2015-08-05T10:06:43Z</time>
        <speed>1.839000</speed>
      </trkpt>
      <trkpt lat="46.060752164" lon="7.203789385">
        <ele>1428.200000</ele>
        <time>2015-08-05T10:06:44Z</time>
        <speed>1.839000</speed>
      </trkpt>
      <trkpt lat="46.060766161" lon="7.203786535">
        <ele>1428.800000</ele>
        <time>2015-08-05T10:06:45Z</time>
        <speed>1.813000</speed>
      </trkpt>
      <trkpt lat="46.060779405" lon="7.203784607">
        <ele>1429.200000</ele>
        <time>2015-08-05T10:06:46Z</time>
        <speed>1.894000</speed>
      </trkpt>
      <trkpt lat="46.060793235" lon="7.203783182">
        <ele>1429.600000</ele>
        <time>2015-08-05T10:06:47Z</time>
        <speed>1.881000</speed>
      </trkpt>
      <trkpt lat="46.060890717" lon="7.203797599">
        <ele>1429.600000</ele>
        <time>2015-08-05T10:06:53Z</time>
        <speed>1.901000</speed>
      </trkpt>
      <trkpt lat="46.060942433" lon="7.203798689">
        <ele>1430.000000</ele>
        <time>2015-08-05T10:06:56Z</time>
        <speed>1.852000</speed>
      </trkpt>
      <trkpt lat="46.060955760" lon="7.203804388">
        <ele>1430.400000</ele>
        <time>2015-08-05T10:06:57Z</time>
        <speed>1.850000</speed>
      </trkpt>
      <trkpt lat="46.060968249" lon="7.203807573">
        <ele>1430.800000</ele>
        <time>2015-08-05T10:06:58Z</time>
        <speed>1.858000</speed>
      </trkpt>
      <trkpt lat="46.060983504" lon="7.203808663">
        <ele>1431.200000</ele>
        <time>2015-08-05T10:06:59Z</time>
        <speed>1.839000</speed>
      </trkpt>
      <trkpt lat="46.060998508" lon="7.203809334">
        <ele>1431.600000</ele>
        <time>2015-08-05T10:07:00Z</time>
        <speed>1.852000</speed>
      </trkpt>
      <trkpt lat="46.061089619" lon="7.203823499">
        <ele>1431.600000</ele>
        <time>2015-08-05T10:07:05Z</time>
        <speed>1.849000</speed>
      </trkpt>
      <trkpt lat="46.061220377" lon="7.203818638">
        <ele>1432.400000</ele>
        <time>2015-08-05T10:07:13Z</time>
        <speed>1.817000</speed>
      </trkpt>
      <trkpt lat="46.061237476" lon="7.203812603">
        <ele>1432.800000</ele>
        <time>2015-08-05T10:07:14Z</time>
        <speed>1.860000</speed>
      </trkpt>
      <trkpt lat="46.061252396" lon="7.203809920">
        <ele>1433.200000</ele>
        <time>2015-08-05T10:07:15Z</time>
        <speed>1.845000</speed>
      </trkpt>
      <trkpt lat="46.061270584" lon="7.203806065">
        <ele>1433.600000</ele>
        <time>2015-08-05T10:07:16Z</time>
        <speed>1.833000</speed>
      </trkpt>
      <trkpt lat="46.061333700" lon="7.203795755">
        <ele>1433.600000</ele>
        <time>2015-08-05T10:07:20Z</time>
        <speed>1.758000</speed>
      </trkpt>
      <trkpt lat="46.061413412" lon="7.203777399">
        <ele>1434.000000</ele>
        <time>2015-08-05T10:07:25Z</time>
        <speed>1.752000</speed>
      </trkpt>
      <trkpt lat="46.061429757" lon="7.203772118">
        <ele>1434.400000</ele>
        <time>2015-08-05T10:07:26Z</time>
        <speed>1.799000</speed>
      </trkpt>
      <trkpt lat="46.061444677" lon="7.203766670">
        <ele>1434.800000</ele>
        <time>2015-08-05T10:07:27Z</time>
        <speed>1.801000</speed>
      </trkpt>
      <trkpt lat="46.061462195" lon="7.203761724">
        <ele>1435.400000</ele>
        <time>2015-08-05T10:07:28Z</time>
        <speed>1.804000</speed>
      </trkpt>
      <trkpt lat="46.061479210" lon="7.203755773">
        <ele>1435.800000</ele>
        <time>2015-08-05T10:07:29Z</time>
        <speed>1.752000</speed>
      </trkpt>
      <trkpt lat="46.061595886" lon="7.203750409">
        <ele>1435.800000</ele>
        <time>2015-08-05T10:07:36Z</time>
        <speed>1.833000</speed>
      </trkpt>
      <trkpt lat="46.061628156" lon="7.203753426">
        <ele>1436.200000</ele>
        <time>2015-08-05T10:07:38Z</time>
        <speed>1.876000</speed>
      </trkpt>
      <trkpt lat="46.061645591" lon="7.203756863">
        <ele>1436.600000</ele>
        <time>2015-08-05T10:07:39Z</time>
        <speed>1.876000</speed>
      </trkpt>
      <trkpt lat="46.061661516" lon="7.203757869">
        <ele>1437.000000</ele>
        <time>2015-08-05T10:07:40Z</time>
        <speed>1.828000</speed>
      </trkpt>
      <trkpt lat="46.061675766" lon="7.203756528">
        <ele>1437.400000</ele>
        <time>2015-08-05T10:07:41Z</time>
        <speed>1.804000</speed>
      </trkpt>
      <trkpt lat="46.061690434" lon="7.203754348">
        <ele>1437.800000</ele>
        <time>2015-08-05T10:07:42Z</time>
        <speed>1.767000</speed>
      </trkpt>
      <trkpt lat="46.061705438" lon="7.203756611">
        <ele>1437.800000</ele>
        <time>2015-08-05T10:07:43Z</time>
        <speed>1.759000</speed>
      </trkpt>
      <trkpt lat="46.061818090" lon="7.203765915">
        <ele>1438.200000</ele>
        <time>2015-08-05T10:07:50Z</time>
        <speed>1.825000</speed>
      </trkpt>
      <trkpt lat="46.061836698" lon="7.203764490">
        <ele>1438.600000</ele>
        <time>2015-08-05T10:07:51Z</time>
        <speed>1.804000</speed>
      </trkpt>
      <trkpt lat="46.061851702" lon="7.203759964">
        <ele>1439.000000</ele>
        <time>2015-08-05T10:07:52Z</time>
        <speed>1.795000</speed>
      </trkpt>
      <trkpt lat="46.061868717" lon="7.203753762">
        <ele>1439.400000</ele>
        <time>2015-08-05T10:07:53Z</time>
        <speed>1.825000</speed>
      </trkpt>
      <trkpt lat="46.061884559" lon="7.203749654">
        <ele>1439.800000</ele>
        <time>2015-08-05T10:07:54Z</time>
        <speed>1.825000</speed>
      </trkpt>
      <trkpt lat="46.061927642" lon="7.203745547">
        <ele>1439.800000</ele>
        <time>2015-08-05T10:07:57Z</time>
        <speed>1.811000</speed>
      </trkpt>
      <trkpt lat="46.062005174" lon="7.203732555">
        <ele>1440.200000</ele>
        <time>2015-08-05T10:08:02Z</time>
        <speed>1.727000</speed>
      </trkpt>
      <trkpt lat="46.062018585" lon="7.203723587">
        <ele>1440.600000</ele>
        <time>2015-08-05T10:08:03Z</time>
        <speed>1.824000</speed>
      </trkpt>
      <trkpt lat="46.062032918" lon="7.203716378">
        <ele>1441.000000</ele>
        <time>2015-08-05T10:08:04Z</time>
        <speed>1.775000</speed>
      </trkpt>
      <trkpt lat="46.062048006" lon="7.203708080">
        <ele>1441.400000</ele>
        <time>2015-08-05T10:08:05Z</time>
        <speed>1.845000</speed>
      </trkpt>
      <trkpt lat="46.062060663" lon="7.203697100">
        <ele>1441.800000</ele>
        <time>2015-08-05T10:08:06Z</time>
        <speed>1.836000</speed>
      </trkpt>
      <trkpt lat="46.062115815" lon="7.203674217">
        <ele>1441.800000</ele>
        <time>2015-08-05T10:08:10Z</time>
        <speed>1.861000</speed>
      </trkpt>
      <trkpt lat="46.062241041" lon="7.203638343">
        <ele>1442.200000</ele>
        <time>2015-08-05T10:08:17Z</time>
        <speed>1.875000</speed>
      </trkpt>
      <trkpt lat="46.062257218" lon="7.203635577">
        <ele>1442.600000</ele>
        <time>2015-08-05T10:08:18Z</time>
        <speed>1.820000</speed>
      </trkpt>
      <trkpt lat="46.062270881" lon="7.203632895">
        <ele>1443.000000</ele>
        <time>2015-08-05T10:08:19Z</time>
        <speed>1.860000</speed>
      </trkpt>
      <trkpt lat="46.062285214" lon="7.203630380">
        <ele>1443.600000</ele>
        <time>2015-08-05T10:08:20Z</time>
        <speed>1.759000</speed>
      </trkpt>
      <trkpt lat="46.062300217" lon="7.203629793">
        <ele>1444.000000</ele>
        <time>2015-08-05T10:08:21Z</time>
        <speed>1.805000</speed>
      </trkpt>
      <trkpt lat="46.062361321" lon="7.203620154">
        <ele>1444.000000</ele>
        <time>2015-08-05T10:08:25Z</time>
        <speed>1.801000</speed>
      </trkpt>
      <trkpt lat="46.062423348" lon="7.203604228">
        <ele>1444.400000</ele>
        <time>2015-08-05T10:08:29Z</time>
        <speed>1.804000</speed>
      </trkpt>
      <trkpt lat="46.062435837" lon="7.203606072">
        <ele>1444.800000</ele>
        <time>2015-08-05T10:08:30Z</time>
        <speed>1.830000</speed>
      </trkpt>
      <trkpt lat="46.062451175" lon="7.203612024">
        <ele>1445.200000</ele>
        <time>2015-08-05T10:08:31Z</time>
        <speed>1.858000</speed>
      </trkpt>
      <trkpt lat="46.062466011" lon="7.203616801">
        <ele>1445.600000</ele>
        <time>2015-08-05T10:08:32Z</time>
        <speed>1.858000</speed>
      </trkpt>
      <trkpt lat="46.062483530" lon="7.203616550">
        <ele>1446.000000</ele>
        <time>2015-08-05T10:08:33Z</time>
        <speed>1.903000</speed>
      </trkpt>
      <trkpt lat="46.062563158" lon="7.203573718">
        <ele>1446.000000</ele>
        <time>2015-08-05T10:08:38Z</time>
        <speed>1.883000</speed>
      </trkpt>
      <trkpt lat="46.062650413" lon="7.203515129">
        <ele>1446.400000</ele>
        <time>2015-08-05T10:08:44Z</time>
        <speed>1.948000</speed>
      </trkpt>
      <trkpt lat="46.062665417" lon="7.203507082">
        <ele>1446.800000</ele>
        <time>2015-08-05T10:08:45Z</time>
        <speed>1.845000</speed>
      </trkpt>
      <trkpt lat="46.062681091" lon="7.203501215">
        <ele>1447.200000</ele>
        <time>2015-08-05T10:08:46Z</time>
        <speed>1.868000</speed>
      </trkpt>
      <trkpt lat="46.062697771" lon="7.203498449">
        <ele>1447.600000</ele>
        <time>2015-08-05T10:08:47Z</time>
        <speed>1.841000</speed>
      </trkpt>
      <trkpt lat="46.062715038" lon="7.203495180">
        <ele>1448.200000</ele>
        <time>2015-08-05T10:08:48Z</time>
        <speed>1.863000</speed>
      </trkpt>
      <trkpt lat="46.062797683" lon="7.203471794">
        <ele>1448.200000</ele>
        <time>2015-08-05T10:08:53Z</time>
        <speed>1.830000</speed>
      </trkpt>
      <trkpt lat="46.062867756" lon="7.203464251">
        <ele>1448.600000</ele>
        <time>2015-08-05T10:08:57Z</time>
        <speed>1.836000</speed>
      </trkpt>
      <trkpt lat="46.062884352" lon="7.203461652">
        <ele>1449.000000</ele>
        <time>2015-08-05T10:08:58Z</time>
        <speed>1.816000</speed>
      </trkpt>
      <trkpt lat="46.062902960" lon="7.203460479">
        <ele>1449.400000</ele>
        <time>2015-08-05T10:08:59Z</time>
        <speed>1.816000</speed>
      </trkpt>
      <trkpt lat="46.062919389" lon="7.203455785">
        <ele>1449.800000</ele>
        <time>2015-08-05T10:09:00Z</time>
        <speed>1.786000</speed>
      </trkpt>
      <trkpt lat="46.062934308" lon="7.203450672">
        <ele>1450.200000</ele>
        <time>2015-08-05T10:09:01Z</time>
        <speed>1.889000</speed>
      </trkpt>
      <trkpt lat="46.063024665" lon="7.203431310">
        <ele>1450.200000</ele>
        <time>2015-08-05T10:09:07Z</time>
        <speed>1.852000</speed>
      </trkpt>
      <trkpt lat="46.063090631" lon="7.203423682">
        <ele>1450.600000</ele>
        <time>2015-08-05T10:09:11Z</time>
        <speed>1.853000</speed>
      </trkpt>
      <trkpt lat="46.063107981" lon="7.203420665">
        <ele>1451.000000</ele>
        <time>2015-08-05T10:09:12Z</time>
        <speed>1.833000</speed>
      </trkpt>
      <trkpt lat="46.063123153" lon="7.203418150">
        <ele>1451.400000</ele>
        <time>2015-08-05T10:09:13Z</time>
        <speed>1.810000</speed>
      </trkpt>
      <trkpt lat="46.063140168" lon="7.203417480">
        <ele>1451.800000</ele>
        <time>2015-08-05T10:09:14Z</time>
        <speed>1.780000</speed>
      </trkpt>
      <trkpt lat="46.063154920" lon="7.203415049">
        <ele>1452.200000</ele>
        <time>2015-08-05T10:09:15Z</time>
        <speed>1.780000</speed>
      </trkpt>
      <trkpt lat="46.063249887" lon="7.203402644">
        <ele>1452.200000</ele>
        <time>2015-08-05T10:09:21Z</time>
        <speed>1.842000</speed>
      </trkpt>
      <trkpt lat="46.063284588" lon="7.203402476">
        <ele>1452.600000</ele>
        <time>2015-08-05T10:09:23Z</time>
        <speed>1.775000</speed>
      </trkpt>
      <trkpt lat="46.063301184" lon="7.203402811">
        <ele>1453.200000</ele>
        <time>2015-08-05T10:09:24Z</time>
        <speed>1.783000</speed>
      </trkpt>
      <trkpt lat="46.063317697" lon="7.203402560">
        <ele>1453.600000</ele>
        <time>2015-08-05T10:09:25Z</time>
        <speed>1.828000</speed>
      </trkpt>
      <trkpt lat="46.063333706" lon="7.203402308">
        <ele>1454.000000</ele>
        <time>2015-08-05T10:09:26Z</time>
        <speed>1.822000</speed>
      </trkpt>
      <trkpt lat="46.063349715" lon="7.203404320">
        <ele>1454.400000</ele>
        <time>2015-08-05T10:09:27Z</time>
        <speed>1.820000</speed>
      </trkpt>
      <trkpt lat="46.063380058" lon="7.203398620">
        <ele>1454.400000</ele>
        <time>2015-08-05T10:09:29Z</time>
        <speed>1.834000</speed>
      </trkpt>
      <trkpt lat="46.063485083" lon="7.203425526">
        <ele>1454.400000</ele>
        <time>2015-08-05T10:09:36Z</time>
        <speed>7.949000</speed>
      </trkpt>
      <trkpt lat="46.063499752" lon="7.203428879">
        <ele>1454.800000</ele>
        <time>2015-08-05T10:09:37Z</time>
        <speed>0.000000</speed>
      </trkpt>
      <trkpt lat="46.063516096" lon="7.203439105">
        <ele>1455.200000</ele>
        <time>2015-08-05T10:09:38Z</time>
        <speed>1.850000</speed>
      </trkpt>
      <trkpt lat="46.063526825" lon="7.203452935">
        <ele>1455.600000</ele>
        <time>2015-08-05T10:09:39Z</time>
        <speed>1.780000</speed>
      </trkpt>
      <trkpt lat="46.063535207" lon="7.203473471">
        <ele>1456.000000</ele>
        <time>2015-08-05T10:09:40Z</time>
        <speed>1.918000</speed>
      </trkpt>
      <trkpt lat="46.063544679" lon="7.203490905">
        <ele>1456.600000</ele>
        <time>2015-08-05T10:09:41Z</time>
        <speed>1.987000</speed>
      </trkpt>
      <trkpt lat="46.063557168" lon="7.203507669">
        <ele>1456.600000</ele>
        <time>2015-08-05T10:09:42Z</time>
        <speed>2.255000</speed>
      </trkpt>
      <trkpt lat="46.063641238" lon="7.203570366">
        <ele>1456.600000</ele>
        <time>2015-08-05T10:09:47Z</time>
        <speed>1.893000</speed>
      </trkpt>
      <trkpt lat="46.063657834" lon="7.203581933">
        <ele>1457.000000</ele>
        <time>2015-08-05T10:09:48Z</time>
        <speed>2.046000</speed>
      </trkpt>
      <trkpt lat="46.063672083" lon="7.203590817">
        <ele>1457.400000</ele>
        <time>2015-08-05T10:09:49Z</time>
        <speed>1.962000</speed>
      </trkpt>
      <trkpt lat="46.063687590" lon="7.203599115">
        <ele>1457.800000</ele>
        <time>2015-08-05T10:09:50Z</time>
        <speed>1.925000</speed>
      </trkpt>
      <trkpt lat="46.063704186" lon="7.203606240">
        <ele>1458.200000</ele>
        <time>2015-08-05T10:09:51Z</time>
        <speed>1.925000</speed>
      </trkpt>
      <trkpt lat="46.063720112" lon="7.203611102">
        <ele>1458.600000</ele>
        <time>2015-08-05T10:09:52Z</time>
        <speed>1.984000</speed>
      </trkpt>
      <trkpt lat="46.063753388" lon="7.203595008">
        <ele>1458.600000</ele>
        <time>2015-08-05T10:09:54Z</time>
        <speed>1.998000</speed>
      </trkpt>
      <trkpt lat="46.063793370" lon="7.203544717">
        <ele>1458.600000</ele>
        <time>2015-08-05T10:09:57Z</time>
        <speed>2.115000</speed>
      </trkpt>
      <trkpt lat="46.063808625" lon="7.203497192">
        <ele>1458.600000</ele>
        <time>2015-08-05T10:09:59Z</time>
        <speed>2.108000</speed>
      </trkpt>
      <trkpt lat="46.063809211" lon="7.203468525">
        <ele>1458.600000</ele>
        <time>2015-08-05T10:10:00Z</time>
        <speed>2.072000</speed>
      </trkpt>
      <trkpt lat="46.063795717" lon="7.203366266">
        <ele>1458.600000</ele>
        <time>2015-08-05T10:10:04Z</time>
        <speed>2.121000</speed>
      </trkpt>
      <trkpt lat="46.063774929" lon="7.203327542">
        <ele>1459.000000</ele>
        <time>2015-08-05T10:10:06Z</time>
        <speed>2.025000</speed>
      </trkpt>
      <trkpt lat="46.063761267" lon="7.203313628">
        <ele>1459.400000</ele>
        <time>2015-08-05T10:10:07Z</time>
        <speed>1.997000</speed>
      </trkpt>
      <trkpt lat="46.063747521" lon="7.203296529">
        <ele>1459.800000</ele>
        <time>2015-08-05T10:10:08Z</time>
        <speed>2.056000</speed>
      </trkpt>
      <trkpt lat="46.063736037" lon="7.203281860">
        <ele>1460.200000</ele>
        <time>2015-08-05T10:10:09Z</time>
        <speed>2.050000</speed>
      </trkpt>
      <trkpt lat="46.063722291" lon="7.203270042">
        <ele>1460.600000</ele>
        <time>2015-08-05T10:10:10Z</time>
        <speed>1.987000</speed>
      </trkpt>
      <trkpt lat="46.063666635" lon="7.203219415">
        <ele>1460.600000</ele>
        <time>2015-08-05T10:10:14Z</time>
        <speed>2.004000</speed>
      </trkpt>
      <trkpt lat="46.063608884" lon="7.203176081">
        <ele>1461.200000</ele>
        <time>2015-08-05T10:10:18Z</time>
        <speed>1.787000</speed>
      </trkpt>
      <trkpt lat="46.063596311" lon="7.203161999">
        <ele>1461.600000</ele>
        <time>2015-08-05T10:10:19Z</time>
        <speed>1.724000</speed>
      </trkpt>
      <trkpt lat="46.063586337" lon="7.203148001">
        <ele>1462.000000</ele>
        <time>2015-08-05T10:10:20Z</time>
        <speed>1.665000</speed>
      </trkpt>
      <trkpt lat="46.063577033" lon="7.203133668">
        <ele>1462.400000</ele>
        <time>2015-08-05T10:10:21Z</time>
        <speed>1.647000</speed>
      </trkpt>
      <trkpt lat="46.063567393" lon="7.203120844">
        <ele>1462.800000</ele>
        <time>2015-08-05T10:10:22Z</time>
        <speed>1.645000</speed>
      </trkpt>
      <trkpt lat="46.063465972" lon="7.203026799">
        <ele>1462.800000</ele>
        <time>2015-08-05T10:10:30Z</time>
        <speed>1.756000</speed>
      </trkpt>
      <trkpt lat="46.063455411" lon="7.203011460">
        <ele>1463.200000</ele>
        <time>2015-08-05T10:10:31Z</time>
        <speed>1.781000</speed>
      </trkpt>
      <trkpt lat="46.063444012" lon="7.202995116">
        <ele>1463.600000</ele>
        <time>2015-08-05T10:10:32Z</time>
        <speed>1.819000</speed>
      </trkpt>
      <trkpt lat="46.063430685" lon="7.202979274">
        <ele>1464.000000</ele>
        <time>2015-08-05T10:10:33Z</time>
        <speed>1.801000</speed>
      </trkpt>
      <trkpt lat="46.063417777" lon="7.202966114">
        <ele>1464.400000</ele>
        <time>2015-08-05T10:10:34Z</time>
        <speed>1.801000</speed>
      </trkpt>
      <trkpt lat="46.063403443" lon="7.202955385">
        <ele>1464.800000</ele>
        <time>2015-08-05T10:10:35Z</time>
        <speed>1.824000</speed>
      </trkpt>
      <trkpt lat="46.063345860" lon="7.202920014">
        <ele>1464.800000</ele>
        <time>2015-08-05T10:10:39Z</time>
        <speed>1.768000</speed>
      </trkpt>
      <trkpt lat="46.063250977" lon="7.202856730">
        <ele>1465.200000</ele>
        <time>2015-08-05T10:10:46Z</time>
        <speed>1.793000</speed>
      </trkpt>
      <trkpt lat="46.063236811" lon="7.202843403">
        <ele>1465.600000</ele>
        <time>2015-08-05T10:10:47Z</time>
        <speed>1.793000</speed>
      </trkpt>
      <trkpt lat="46.063221808" lon="7.202829657">
        <ele>1466.000000</ele>
        <time>2015-08-05T10:10:48Z</time>
        <speed>1.729000</speed>
      </trkpt>
      <trkpt lat="46.063206553" lon="7.202817671">
        <ele>1466.600000</ele>
        <time>2015-08-05T10:10:49Z</time>
        <speed>1.850000</speed>
      </trkpt>
      <trkpt lat="46.063195069" lon="7.202810211">
        <ele>1467.000000</ele>
        <time>2015-08-05T10:10:50Z</time>
        <speed>1.845000</speed>
      </trkpt>
      <trkpt lat="46.063153495" lon="7.202789424">
        <ele>1467.000000</ele>
        <time>2015-08-05T10:10:53Z</time>
        <speed>1.774000</speed>
      </trkpt>
      <trkpt lat="46.063069257" lon="7.202768972">
        <ele>1467.400000</ele>
        <time>2015-08-05T10:10:58Z</time>
        <speed>1.804000</speed>
      </trkpt>
      <trkpt lat="46.063052493" lon="7.202765535">
        <ele>1467.800000</ele>
        <time>2015-08-05T10:10:59Z</time>
        <speed>1.831000</speed>
      </trkpt>
      <trkpt lat="46.063036987" lon="7.202761680">
        <ele>1468.200000</ele>
        <time>2015-08-05T10:11:00Z</time>
        <speed>1.819000</speed>
      </trkpt>
      <trkpt lat="46.063021648" lon="7.202756902">
        <ele>1468.600000</ele>
        <time>2015-08-05T10:11:01Z</time>
        <speed>1.827000</speed>
      </trkpt>
      <trkpt lat="46.063007231" lon="7.202752040">
        <ele>1469.000000</ele>
        <time>2015-08-05T10:11:02Z</time>
        <speed>1.827000</speed>
      </trkpt>
      <trkpt lat="46.062897763" lon="7.202717591">
        <ele>1469.000000</ele>
        <time>2015-08-05T10:11:09Z</time>
        <speed>1.783000</speed>
      </trkpt>
      <trkpt lat="46.062836827" lon="7.202717758">
        <ele>1469.400000</ele>
        <time>2015-08-05T10:11:13Z</time>
        <speed>1.792000</speed>
      </trkpt>
      <trkpt lat="46.062822326" lon="7.202714154">
        <ele>1469.800000</ele>
        <time>2015-08-05T10:11:14Z</time>
        <speed>1.792000</speed>
      </trkpt>
      <trkpt lat="46.062806400" lon="7.202708622">
        <ele>1470.400000</ele>
        <time>2015-08-05T10:11:15Z</time>
        <speed>1.817000</speed>
      </trkpt>
      <trkpt lat="46.062790307" lon="7.202702587">
        <ele>1470.800000</ele>
        <time>2015-08-05T10:11:16Z</time>
        <speed>1.817000</speed>
      </trkpt>
      <trkpt lat="46.062773543" lon="7.202696133">
        <ele>1471.200000</ele>
        <time>2015-08-05T10:11:17Z</time>
        <speed>1.838000</speed>
      </trkpt>
      <trkpt lat="46.062666507" lon="7.202670820">
        <ele>1471.600000</ele>
        <time>2015-08-05T10:11:24Z</time>
        <speed>1.807000</speed>
      </trkpt>
      <trkpt lat="46.062652509" lon="7.202664701">
        <ele>1472.000000</ele>
        <time>2015-08-05T10:11:25Z</time>
        <speed>1.838000</speed>
      </trkpt>
      <trkpt lat="46.062638343" lon="7.202657660">
        <ele>1472.400000</ele>
        <time>2015-08-05T10:11:26Z</time>
        <speed>1.793000</speed>
      </trkpt>
      <trkpt lat="46.062625854" lon="7.202647183">
        <ele>1472.800000</ele>
        <time>2015-08-05T10:11:27Z</time>
        <speed>1.813000</speed>
      </trkpt>
      <trkpt lat="46.062613784" lon="7.202635532">
        <ele>1473.200000</ele>
        <time>2015-08-05T10:11:28Z</time>
        <speed>1.870000</speed>
      </trkpt>
      <trkpt lat="46.062557709" lon="7.202581804">
        <ele>1473.200000</ele>
        <time>2015-08-05T10:11:32Z</time>
        <speed>1.836000</speed>
      </trkpt>
      <trkpt lat="46.062435082" lon="7.202475186">
        <ele>1473.600000</ele>
        <time>2015-08-05T10:11:40Z</time>
        <speed>2.015000</speed>
      </trkpt>
      <trkpt lat="46.062419157" lon="7.202459680">
        <ele>1474.000000</ele>
        <time>2015-08-05T10:11:41Z</time>
        <speed>2.052000</speed>
      </trkpt>
      <trkpt lat="46.062401974" lon="7.202448364">
        <ele>1474.400000</ele>
        <time>2015-08-05T10:11:42Z</time>
        <speed>2.002000</speed>
      </trkpt>
      <trkpt lat="46.062382695" lon="7.202437216">
        <ele>1475.200000</ele>
        <time>2015-08-05T10:11:43Z</time>
        <speed>2.040000</speed>
      </trkpt>
      <trkpt lat="46.062320502" lon="7.202402599">
        <ele>1475.200000</ele>
        <time>2015-08-05T10:11:47Z</time>
        <speed>2.002000</speed>
      </trkpt>
      <trkpt lat="46.062222769" lon="7.202380303">
        <ele>1475.600000</ele>
        <time>2015-08-05T10:11:53Z</time>
        <speed>1.824000</speed>
      </trkpt>
      <trkpt lat="46.062204580" lon="7.202374771">
        <ele>1476.000000</ele>
        <time>2015-08-05T10:11:54Z</time>
        <speed>1.748000</speed>
      </trkpt>
      <trkpt lat="46.062188570" lon="7.202369993">
        <ele>1476.400000</ele>
        <time>2015-08-05T10:11:55Z</time>
        <speed>1.746000</speed>
      </trkpt>
      <trkpt lat="46.062172645" lon="7.202366221">
        <ele>1476.800000</ele>
        <time>2015-08-05T10:11:56Z</time>
        <speed>1.707000</speed>
      </trkpt>
      <trkpt lat="46.062157725" lon="7.202363958">
        <ele>1477.200000</ele>
        <time>2015-08-05T10:11:57Z</time>
        <speed>1.679000</speed>
      </trkpt>
      <trkpt lat="46.062067200" lon="7.202361108">
        <ele>1477.200000</ele>
        <time>2015-08-05T10:12:03Z</time>
        <speed>1.792000</speed>
      </trkpt>
      <trkpt lat="46.061975000" lon="7.202347111">
        <ele>1477.600000</ele>
        <time>2015-08-05T10:12:09Z</time>
        <speed>1.828000</speed>
      </trkpt>
      <trkpt lat="46.061957900" lon="7.202342920">
        <ele>1478.000000</ele>
        <time>2015-08-05T10:12:10Z</time>
        <speed>1.911000</speed>
      </trkpt>
      <trkpt lat="46.061942478" lon="7.202333113">
        <ele>1478.600000</ele>
        <time>2015-08-05T10:12:11Z</time>
        <speed>1.980000</speed>
      </trkpt>
      <trkpt lat="46.061928229" lon="7.202323641">
        <ele>1479.000000</ele>
        <time>2015-08-05T10:12:12Z</time>
        <speed>2.008000</speed>
      </trkpt>
      <trkpt lat="46.061914315" lon="7.202317858">
        <ele>1479.400000</ele>
        <time>2015-08-05T10:12:13Z</time>
        <speed>2.054000</speed>
      </trkpt>
      <trkpt lat="46.061879613" lon="7.202305369">
        <ele>1479.400000</ele>
        <time>2015-08-05T10:12:15Z</time>
        <speed>2.098000</speed>
      </trkpt>
      <trkpt lat="46.061765200" lon="7.202243846">
        <ele>1479.400000</ele>
        <time>2015-08-05T10:12:22Z</time>
        <speed>1.993000</speed>
      </trkpt>
      <trkpt lat="46.061720776" lon="7.202217275">
        <ele>1479.800000</ele>
        <time>2015-08-05T10:12:25Z</time>
        <speed>1.995000</speed>
      </trkpt>
      <trkpt lat="46.061705018" lon="7.202206714">
        <ele>1480.200000</ele>
        <time>2015-08-05T10:12:26Z</time>
        <speed>2.000000</speed>
      </trkpt>
      <trkpt lat="46.061689428" lon="7.202192884">
        <ele>1480.600000</ele>
        <time>2015-08-05T10:12:27Z</time>
        <speed>2.008000</speed>
      </trkpt>
      <trkpt lat="46.061675849" lon="7.202178634">
        <ele>1481.000000</ele>
        <time>2015-08-05T10:12:28Z</time>
        <speed>1.953000</speed>
      </trkpt>
      <trkpt lat="46.061663612" lon="7.202161032">
        <ele>1481.400000</ele>
        <time>2015-08-05T10:12:29Z</time>
        <speed>1.908000</speed>
      </trkpt>
      <trkpt lat="46.061573255" lon="7.202103784">
        <ele>1481.400000</ele>
        <time>2015-08-05T10:12:36Z</time>
        <speed>1.742000</speed>
      </trkpt>
      <trkpt lat="46.061546936" lon="7.202082242">
        <ele>1481.800000</ele>
        <time>2015-08-05T10:12:38Z</time>
        <speed>1.774000</speed>
      </trkpt>
      <trkpt lat="46.061532770" lon="7.202070927">
        <ele>1482.200000</ele>
        <time>2015-08-05T10:12:39Z</time>
        <speed>1.717000</speed>
      </trkpt>
      <trkpt lat="46.061517431" lon="7.202061707">
        <ele>1482.800000</ele>
        <time>2015-08-05T10:12:40Z</time>
        <speed>1.718000</speed>
      </trkpt>
      <trkpt lat="46.061501590" lon="7.202053828">
        <ele>1483.200000</ele>
        <time>2015-08-05T10:12:41Z</time>
        <speed>1.714000</speed>
      </trkpt>
      <trkpt lat="46.061485496" lon="7.202048547">
        <ele>1483.600000</ele>
        <time>2015-08-05T10:12:42Z</time>
        <speed>1.772000</speed>
      </trkpt>
      <trkpt lat="46.061471918" lon="7.202043350">
        <ele>1483.600000</ele>
        <time>2015-08-05T10:12:43Z</time>
        <speed>1.772000</speed>
      </trkpt>
      <trkpt lat="46.061383405" lon="7.202004039">
        <ele>1484.000000</ele>
        <time>2015-08-05T10:12:49Z</time>
        <speed>1.732000</speed>
      </trkpt>
      <trkpt lat="46.061365970" lon="7.201997082">
        <ele>1484.400000</ele>
        <time>2015-08-05T10:12:50Z</time>
        <speed>1.732000</speed>
      </trkpt>
      <trkpt lat="46.061351134" lon="7.201990880">
        <ele>1484.800000</ele>
        <time>2015-08-05T10:12:51Z</time>
        <speed>1.755000</speed>
      </trkpt>
      <trkpt lat="46.061333030" lon="7.201982330">
        <ele>1485.200000</ele>
        <time>2015-08-05T10:12:52Z</time>
        <speed>1.786000</speed>
      </trkpt>
      <trkpt lat="46.061317272" lon="7.201977385">
        <ele>1485.800000</ele>
        <time>2015-08-05T10:12:53Z</time>
        <speed>1.732000</speed>
      </trkpt>
      <trkpt lat="46.061301095" lon="7.201973529">
        <ele>1485.800000</ele>
        <time>2015-08-05T10:12:54Z</time>
        <speed>1.732000</speed>
      </trkpt>
      <trkpt lat="46.061271590" lon="7.201972188">
        <ele>1485.800000</ele>
        <time>2015-08-05T10:12:56Z</time>
        <speed>1.769000</speed>
      </trkpt>
      <trkpt lat="46.061211324" lon="7.201955760">
        <ele>1486.200000</ele>
        <time>2015-08-05T10:13:00Z</time>
        <speed>1.699000</speed>
      </trkpt>
      <trkpt lat="46.061197159" lon="7.201952155">
        <ele>1486.600000</ele>
        <time>2015-08-05T10:13:01Z</time>
        <speed>1.691000</speed>
      </trkpt>
      <trkpt lat="46.061183832" lon="7.201942935">
        <ele>1487.000000</ele>
        <time>2015-08-05T10:13:02Z</time>
        <speed>1.687000</speed>
      </trkpt>
      <trkpt lat="46.061168493" lon="7.201931368">
        <ele>1487.400000</ele>
        <time>2015-08-05T10:13:03Z</time>
        <speed>1.707000</speed>
      </trkpt>
      <trkpt lat="46.061154663" lon="7.201924746">
        <ele>1487.800000</ele>
        <time>2015-08-05T10:13:04Z</time>
        <speed>1.765000</speed>
      </trkpt>
      <trkpt lat="46.061103785" lon="7.201911084">
        <ele>1487.800000</ele>
        <time>2015-08-05T10:13:08Z</time>
        <speed>1.710000</speed>
      </trkpt>
      <trkpt lat="46.061023486" lon="7.201900690">
        <ele>1488.200000</ele>
        <time>2015-08-05T10:13:13Z</time>
        <speed>1.795000</speed>
      </trkpt>
      <trkpt lat="46.061006471" lon="7.201902786">
        <ele>1488.600000</ele>
        <time>2015-08-05T10:13:14Z</time>
        <speed>1.734000</speed>
      </trkpt>
      <trkpt lat="46.060991048" lon="7.201904714">
        <ele>1489.000000</ele>
        <time>2015-08-05T10:13:15Z</time>
        <speed>1.729000</speed>
      </trkpt>
      <trkpt lat="46.060978643" lon="7.201906893">
        <ele>1489.400000</ele>
        <time>2015-08-05T10:13:16Z</time>
        <speed>1.736000</speed>
      </trkpt>
      <trkpt lat="46.060966154" lon="7.201910330">
        <ele>1489.800000</ele>
        <time>2015-08-05T10:13:17Z</time>
        <speed>1.745000</speed>
      </trkpt>
      <trkpt lat="46.060921310" lon="7.201901864">
        <ele>1489.800000</ele>
        <time>2015-08-05T10:13:20Z</time>
        <speed>1.752000</speed>
      </trkpt>
      <trkpt lat="46.060854004" lon="7.201863642">
        <ele>1489.800000</ele>
        <time>2015-08-05T10:13:24Z</time>
        <speed>2.002000</speed>
      </trkpt>
      <trkpt lat="46.060833720" lon="7.201857775">
        <ele>1489.800000</ele>
        <time>2015-08-05T10:13:25Z</time>
        <speed>2.023000</speed>
      </trkpt>
      <trkpt lat="46.060736490" lon="7.201808992">
        <ele>1489.800000</ele>
        <time>2015-08-05T10:13:30Z</time>
        <speed>2.159000</speed>
      </trkpt>
      <trkpt lat="46.060696927" lon="7.201760796">
        <ele>1490.400000</ele>
        <time>2015-08-05T10:13:33Z</time>
        <speed>2.210000</speed>
      </trkpt>
      <trkpt lat="46.060681672" lon="7.201745290">
        <ele>1490.800000</ele>
        <time>2015-08-05T10:13:34Z</time>
        <speed>2.325000</speed>
      </trkpt>
      <trkpt lat="46.060663735" lon="7.201728275">
        <ele>1491.200000</ele>
        <time>2015-08-05T10:13:35Z</time>
        <speed>2.293000</speed>
      </trkpt>
      <trkpt lat="46.060644121" lon="7.201714947">
        <ele>1491.600000</ele>
        <time>2015-08-05T10:13:36Z</time>
        <speed>2.283000</speed>
      </trkpt>
      <trkpt lat="46.060625010" lon="7.201701285">
        <ele>1492.000000</ele>
        <time>2015-08-05T10:13:37Z</time>
        <speed>2.236000</speed>
      </trkpt>
      <trkpt lat="46.060547645" lon="7.201649736">
        <ele>1492.000000</ele>
        <time>2015-08-05T10:13:42Z</time>
        <speed>2.382000</speed>
      </trkpt>
      <trkpt lat="46.060454606" lon="7.201644875">
        <ele>1492.000000</ele>
        <time>2015-08-05T10:13:47Z</time>
        <speed>2.224000</speed>
      </trkpt>
      <trkpt lat="46.060414038" lon="7.201642779">
        <ele>1492.400000</ele>
        <time>2015-08-05T10:13:49Z</time>
        <speed>2.502000</speed>
      </trkpt>
      <trkpt lat="46.060398196" lon="7.201644539">
        <ele>1492.800000</ele>
        <time>2015-08-05T10:13:50Z</time>
        <speed>2.291000</speed>
      </trkpt>
      <trkpt lat="46.060382354" lon="7.201650239">
        <ele>1493.200000</ele>
        <time>2015-08-05T10:13:51Z</time>
        <speed>2.172000</speed>
      </trkpt>
      <trkpt lat="46.060367686" lon="7.201659040">
        <ele>1493.800000</ele>
        <time>2015-08-05T10:13:52Z</time>
        <speed>2.333000</speed>
      </trkpt>
      <trkpt lat="46.060351006" lon="7.201669350">
        <ele>1494.200000</ele>
        <time>2015-08-05T10:13:53Z</time>
        <speed>2.233000</speed>
      </trkpt>
      <trkpt lat="46.060328291" lon="7.201674547">
        <ele>1494.200000</ele>
        <time>2015-08-05T10:13:54Z</time>
        <speed>1.925000</speed>
      </trkpt>
      <trkpt lat="46.060197533" lon="7.201704135">
        <ele>1494.600000</ele>
        <time>2015-08-05T10:14:01Z</time>
        <speed>1.718000</speed>
      </trkpt>
      <trkpt lat="46.060183787" lon="7.201706230">
        <ele>1495.000000</ele>
        <time>2015-08-05T10:14:02Z</time>
        <speed>1.690000</speed>
      </trkpt>
      <trkpt lat="46.060168699" lon="7.201707823">
        <ele>1495.400000</ele>
        <time>2015-08-05T10:14:03Z</time>
        <speed>1.709000</speed>
      </trkpt>
      <trkpt lat="46.060153780" lon="7.201706063">
        <ele>1495.800000</ele>
        <time>2015-08-05T10:14:04Z</time>
        <speed>1.709000</speed>
      </trkpt>
      <trkpt lat="46.060136178" lon="7.201700028">
        <ele>1496.200000</ele>
        <time>2015-08-05T10:14:05Z</time>
        <speed>1.723000</speed>
      </trkpt>
      <trkpt lat="46.060072559" lon="7.201668512">
        <ele>1496.200000</ele>
        <time>2015-08-05T10:14:09Z</time>
        <speed>1.767000</speed>
      </trkpt>
      <trkpt lat="46.060008521" lon="7.201610928">
        <ele>1496.200000</ele>
        <time>2015-08-05T10:14:14Z</time>
        <speed>1.893000</speed>
      </trkpt>
      <trkpt lat="46.059995697" lon="7.201600032">
        <ele>1496.200000</ele>
        <time>2015-08-05T10:14:15Z</time>
        <speed>1.930000</speed>
      </trkpt>
      <trkpt lat="46.059964768" lon="7.201570024">
        <ele>1496.600000</ele>
        <time>2015-08-05T10:14:17Z</time>
        <speed>2.010000</speed>
      </trkpt>
      <trkpt lat="46.059947585" lon="7.201552087">
        <ele>1497.000000</ele>
        <time>2015-08-05T10:14:18Z</time>
        <speed>2.019000</speed>
      </trkpt>
      <trkpt lat="46.059931575" lon="7.201538592">
        <ele>1497.400000</ele>
        <time>2015-08-05T10:14:19Z</time>
        <speed>2.094000</speed>
      </trkpt>
      <trkpt lat="46.059915985" lon="7.201526774">
        <ele>1497.800000</ele>
        <time>2015-08-05T10:14:20Z</time>
        <speed>2.144000</speed>
      </trkpt>
      <trkpt lat="46.059904586" lon="7.201503807">
        <ele>1498.200000</ele>
        <time>2015-08-05T10:14:21Z</time>
        <speed>2.078000</speed>
      </trkpt>
      <trkpt lat="46.059898551" lon="7.201480757">
        <ele>1498.200000</ele>
        <time>2015-08-05T10:14:22Z</time>
        <speed>1.997000</speed>
      </trkpt>
      <trkpt lat="46.059874075" lon="7.201437926">
        <ele>1498.200000</ele>
        <time>2015-08-05T10:14:27Z</time>
        <speed>1.937000</speed>
      </trkpt>
      <trkpt lat="46.059873824" lon="7.201437506">
        <ele>1498.200000</ele>
        <time>2015-08-05T10:14:36Z</time>
        <speed>0.000000</speed>
      </trkpt>
      <trkpt lat="46.059873824" lon="7.201437506">
        <ele>1498.200000</ele>
        <time>2015-08-05T10:14:37Z</time>
        <speed>0.000000</speed>
      </trkpt>
      <trkpt lat="46.059873824" lon="7.201437506">
        <ele>1498.200000</ele>
        <time>2015-08-05T10:14:42Z</time>
        <speed>0.000000</speed>
      </trkpt>
      <trkpt lat="46.059873824" lon="7.201437506">
        <ele>1498.200000</ele>
        <time>2015-08-05T10:14:47Z</time>
        <speed>0.000000</speed>
      </trkpt>
      <trkpt lat="46.059873824" lon="7.201437506">
        <ele>1498.200000</ele>
        <time>2015-08-05T10:14:49Z</time>
        <speed>0.000000</speed>
      </trkpt>
      <trkpt lat="46.059873824" lon="7.201437506">
        <ele>1498.200000</ele>
        <time>2015-08-05T10:14:53Z</time>
        <speed>0.000000</speed>
      </trkpt>
      <trkpt lat="46.059873824" lon="7.201437506">
        <ele>1498.200000</ele>
        <time>2015-08-05T10:14:58Z</time>
        <speed>0.000000</speed>
      </trkpt>
      <trkpt lat="46.059814145" lon="7.201436501">
        <ele>1498.200000</ele>
        <time>2015-08-05T10:15:02Z</time>
        <speed>1.217000</speed>
      </trkpt>
      <trkpt lat="46.059724291" lon="7.201417725">
        <ele>1498.200000</ele>
        <time>2015-08-05T10:15:07Z</time>
        <speed>2.062000</speed>
      </trkpt>
      <trkpt lat="46.059709036" lon="7.201422922">
        <ele>1498.600000</ele>
        <time>2015-08-05T10:15:08Z</time>
        <speed>2.062000</speed>
      </trkpt>
      <trkpt lat="46.059697217" lon="7.201426359">
        <ele>1499.000000</ele>
        <time>2015-08-05T10:15:09Z</time>
        <speed>1.861000</speed>
      </trkpt>
      <trkpt lat="46.059682633" lon="7.201430969">
        <ele>1499.400000</ele>
        <time>2015-08-05T10:15:10Z</time>
        <speed>1.844000</speed>
      </trkpt>
      <trkpt lat="46.059670060" lon="7.201435327">
        <ele>1499.800000</ele>
        <time>2015-08-05T10:15:11Z</time>
        <speed>1.855000</speed>
      </trkpt>
      <trkpt lat="46.059654470" lon="7.201435411">
        <ele>1500.200000</ele>
        <time>2015-08-05T10:15:12Z</time>
        <speed>1.855000</speed>
      </trkpt>
      <trkpt lat="46.059609375" lon="7.201440608">
        <ele>1500.200000</ele>
        <time>2015-08-05T10:15:15Z</time>
        <speed>1.755000</speed>
      </trkpt>
      <trkpt lat="46.059527987" lon="7.201482350">
        <ele>1500.800000</ele>
        <time>2015-08-05T10:15:21Z</time>
        <speed>1.723000</speed>
      </trkpt>
      <trkpt lat="46.059511977" lon="7.201488133">
        <ele>1501.200000</ele>
        <time>2015-08-05T10:15:22Z</time>
        <speed>1.723000</speed>
      </trkpt>
      <trkpt lat="46.059496722" lon="7.201492492">
        <ele>1501.600000</ele>
        <time>2015-08-05T10:15:23Z</time>
        <speed>1.772000</speed>
      </trkpt>
      <trkpt lat="46.059480545" lon="7.201496850">
        <ele>1502.000000</ele>
        <time>2015-08-05T10:15:24Z</time>
        <speed>1.764000</speed>
      </trkpt>
      <trkpt lat="46.059466715" lon="7.201497437">
        <ele>1502.400000</ele>
        <time>2015-08-05T10:15:25Z</time>
        <speed>1.687000</speed>
      </trkpt>
      <trkpt lat="46.059385830" lon="7.201494000">
        <ele>1502.400000</ele>
        <time>2015-08-05T10:15:30Z</time>
        <speed>1.769000</speed>
      </trkpt>
      <trkpt lat="46.059373676" lon="7.201492911">
        <ele>1502.800000</ele>
        <time>2015-08-05T10:15:31Z</time>
        <speed>1.771000</speed>
      </trkpt>
      <trkpt lat="46.059358840" lon="7.201492492">
        <ele>1503.200000</ele>
        <time>2015-08-05T10:15:32Z</time>
        <speed>1.769000</speed>
      </trkpt>
      <trkpt lat="46.059344926" lon="7.201490983">
        <ele>1503.600000</ele>
        <time>2015-08-05T10:15:33Z</time>
        <speed>1.813000</speed>
      </trkpt>
      <trkpt lat="46.059331431" lon="7.201485032">
        <ele>1504.200000</ele>
        <time>2015-08-05T10:15:34Z</time>
        <speed>1.804000</speed>
      </trkpt>
      <trkpt lat="46.059318774" lon="7.201479248">
        <ele>1504.600000</ele>
        <time>2015-08-05T10:15:35Z</time>
        <speed>1.804000</speed>
      </trkpt>
      <trkpt lat="46.059292874" lon="7.201460473">
        <ele>1504.600000</ele>
        <time>2015-08-05T10:15:37Z</time>
        <speed>1.724000</speed>
      </trkpt>
      <trkpt lat="46.059270746" lon="7.201442116">
        <ele>1504.600000</ele>
        <time>2015-08-05T10:15:39Z</time>
        <speed>1.799000</speed>
      </trkpt>
      <trkpt lat="46.059237805" lon="7.201377157">
        <ele>1504.600000</ele>
        <time>2015-08-05T10:15:43Z</time>
        <speed>1.792000</speed>
      </trkpt>
      <trkpt lat="46.059266388" lon="7.201299457">
        <ele>1505.000000</ele>
        <time>2015-08-05T10:15:47Z</time>
        <speed>1.729000</speed>
      </trkpt>
      <trkpt lat="46.059274686" lon="7.201281016">
        <ele>1505.400000</ele>
        <time>2015-08-05T10:15:48Z</time>
        <speed>1.673000</speed>
      </trkpt>
      <trkpt lat="46.059281559" lon="7.201266348">
        <ele>1506.000000</ele>
        <time>2015-08-05T10:15:49Z</time>
        <speed>1.703000</speed>
      </trkpt>
      <trkpt lat="46.059291449" lon="7.201259307">
        <ele>1506.800000</ele>
        <time>2015-08-05T10:15:50Z</time>
        <speed>1.738000</speed>
      </trkpt>
      <trkpt lat="46.059329084" lon="7.201232485">
        <ele>1506.800000</ele>
        <time>2015-08-05T10:15:53Z</time>
        <speed>1.693000</speed>
      </trkpt>
      <trkpt lat="46.059375604" lon="7.201182864">
        <ele>1506.800000</ele>
        <time>2015-08-05T10:15:57Z</time>
        <speed>1.752000</speed>
      </trkpt>
      <trkpt lat="46.059387255" lon="7.201171046">
        <ele>1507.200000</ele>
        <time>2015-08-05T10:15:58Z</time>
        <speed>1.767000</speed>
      </trkpt>
      <trkpt lat="46.059398151" lon="7.201156880">
        <ele>1507.600000</ele>
        <time>2015-08-05T10:15:59Z</time>
        <speed>1.767000</speed>
      </trkpt>
      <trkpt lat="46.059409970" lon="7.201139362">
        <ele>1508.000000</ele>
        <time>2015-08-05T10:16:00Z</time>
        <speed>1.783000</speed>
      </trkpt>
      <trkpt lat="46.059417597" lon="7.201124191">
        <ele>1508.400000</ele>
        <time>2015-08-05T10:16:01Z</time>
        <speed>1.751000</speed>
      </trkpt>
      <trkpt lat="46.059423632" lon="7.201113127">
        <ele>1508.800000</ele>
        <time>2015-08-05T10:16:02Z</time>
        <speed>1.738000</speed>
      </trkpt>
      <trkpt lat="46.059473504" lon="7.201043138">
        <ele>1508.800000</ele>
        <time>2015-08-05T10:16:07Z</time>
        <speed>1.745000</speed>
      </trkpt>
      <trkpt lat="46.059512899" lon="7.200961079">
        <ele>1509.200000</ele>
        <time>2015-08-05T10:16:12Z</time>
        <speed>1.707000</speed>
      </trkpt>
      <trkpt lat="46.059524215" lon="7.200950434">
        <ele>1509.600000</ele>
        <time>2015-08-05T10:16:13Z</time>
        <speed>1.741000</speed>
      </trkpt>
      <trkpt lat="46.059535447" lon="7.200937945">
        <ele>1510.600000</ele>
        <time>2015-08-05T10:16:14Z</time>
        <speed>1.850000</speed>
      </trkpt>
      <trkpt lat="46.059546511" lon="7.200925205">
        <ele>1511.000000</ele>
        <time>2015-08-05T10:16:15Z</time>
        <speed>1.849000</speed>
      </trkpt>
      <trkpt lat="46.059649105" lon="7.200822275">
        <ele>1511.000000</ele>
        <time>2015-08-05T10:16:23Z</time>
        <speed>1.817000</speed>
      </trkpt>
      <trkpt lat="46.059662600" lon="7.200790172">
        <ele>1511.400000</ele>
        <time>2015-08-05T10:16:25Z</time>
        <speed>1.751000</speed>
      </trkpt>
      <trkpt lat="46.059669557" lon="7.200772235">
        <ele>1511.800000</ele>
        <time>2015-08-05T10:16:26Z</time>
        <speed>1.777000</speed>
      </trkpt>
      <trkpt lat="46.059677436" lon="7.200752286">
        <ele>1512.200000</ele>
        <time>2015-08-05T10:16:27Z</time>
        <speed>1.796000</speed>
      </trkpt>
      <trkpt lat="46.059687578" lon="7.200730074">
        <ele>1512.600000</ele>
        <time>2015-08-05T10:16:28Z</time>
        <speed>1.796000</speed>
      </trkpt>
      <trkpt lat="46.059698139" lon="7.200709706">
        <ele>1513.000000</ele>
        <time>2015-08-05T10:16:29Z</time>
        <speed>1.796000</speed>
      </trkpt>
      <trkpt lat="46.059783635" lon="7.200552713">
        <ele>1513.000000</ele>
        <time>2015-08-05T10:16:37Z</time>
        <speed>2.021000</speed>
      </trkpt>
      <trkpt lat="46.059811295" lon="7.200523879">
        <ele>1513.000000</ele>
        <time>2015-08-05T10:16:39Z</time>
        <speed>2.036000</speed>
      </trkpt>
      <trkpt lat="46.059857563" lon="7.200471911">
        <ele>1513.400000</ele>
        <time>2015-08-05T10:16:42Z</time>
        <speed>2.108000</speed>
      </trkpt>
      <trkpt lat="46.059871729" lon="7.200457662">
        <ele>1513.800000</ele>
        <time>2015-08-05T10:16:43Z</time>
        <speed>2.106000</speed>
      </trkpt>
      <trkpt lat="46.059888073" lon="7.200444502">
        <ele>1514.200000</ele>
        <time>2015-08-05T10:16:44Z</time>
        <speed>2.088000</speed>
      </trkpt>
      <trkpt lat="46.059901987" lon="7.200431259">
        <ele>1514.600000</ele>
        <time>2015-08-05T10:16:45Z</time>
        <speed>2.023000</speed>
      </trkpt>
      <trkpt lat="46.059914812" lon="7.200422374">
        <ele>1515.000000</ele>
        <time>2015-08-05T10:16:46Z</time>
        <speed>2.023000</speed>
      </trkpt>
      <trkpt lat="46.059943226" lon="7.200410388">
        <ele>1515.000000</ele>
        <time>2015-08-05T10:16:48Z</time>
        <speed>2.015000</speed>
      </trkpt>
      <trkpt lat="46.060015981" lon="7.200373424">
        <ele>1515.000000</ele>
        <time>2015-08-05T10:16:52Z</time>
        <speed>1.860000</speed>
      </trkpt>
      <trkpt lat="46.060097788" lon="7.200296813">
        <ele>1515.000000</ele>
        <time>2015-08-05T10:16:57Z</time>
        <speed>2.025000</speed>
      </trkpt>
      <trkpt lat="46.060110278" lon="7.200278876">
        <ele>1515.400000</ele>
        <time>2015-08-05T10:16:58Z</time>
        <speed>1.960000</speed>
      </trkpt>
      <trkpt lat="46.060119665" lon="7.200264375">
        <ele>1516.000000</ele>
        <time>2015-08-05T10:16:59Z</time>
        <speed>1.901000</speed>
      </trkpt>
      <trkpt lat="46.060125197" lon="7.200246941">
        <ele>1516.400000</ele>
        <time>2015-08-05T10:17:00Z</time>
        <speed>1.946000</speed>
      </trkpt>
      <trkpt lat="46.060128215" lon="7.200226489">
        <ele>1516.800000</ele>
        <time>2015-08-05T10:17:01Z</time>
        <speed>1.889000</speed>
      </trkpt>
      <trkpt lat="46.060132657" lon="7.200206373">
        <ele>1517.200000</ele>
        <time>2015-08-05T10:17:02Z</time>
        <speed>1.769000</speed>
      </trkpt>
      <trkpt lat="46.060138944" lon="7.200186926">
        <ele>1517.200000</ele>
        <time>2015-08-05T10:17:03Z</time>
        <speed>1.769000</speed>
      </trkpt>
      <trkpt lat="46.060227289" lon="7.200075280">
        <ele>1517.200000</ele>
        <time>2015-08-05T10:17:10Z</time>
        <speed>2.142000</speed>
      </trkpt>
      <trkpt lat="46.060313958" lon="7.200043344">
        <ele>1517.600000</ele>
        <time>2015-08-05T10:17:15Z</time>
        <speed>2.074000</speed>
      </trkpt>
      <trkpt lat="46.060333655" lon="7.200050385">
        <ele>1518.000000</ele>
        <time>2015-08-05T10:17:16Z</time>
        <speed>2.038000</speed>
      </trkpt>
      <trkpt lat="46.060354442" lon="7.200056756">
        <ele>1518.400000</ele>
        <time>2015-08-05T10:17:17Z</time>
        <speed>2.074000</speed>
      </trkpt>
      <trkpt lat="46.060374307" lon="7.200061030">
        <ele>1518.800000</ele>
        <time>2015-08-05T10:17:18Z</time>
        <speed>2.027000</speed>
      </trkpt>
      <trkpt lat="46.060394424" lon="7.200065305">
        <ele>1519.200000</ele>
        <time>2015-08-05T10:17:19Z</time>
        <speed>2.034000</speed>
      </trkpt>
      <trkpt lat="46.060476567" lon="7.200100844">
        <ele>1519.200000</ele>
        <time>2015-08-05T10:17:24Z</time>
        <speed>1.804000</speed>
      </trkpt>
      <trkpt lat="46.060538677" lon="7.200092546">
        <ele>1519.200000</ele>
        <time>2015-08-05T10:17:28Z</time>
        <speed>1.833000</speed>
      </trkpt>
      <trkpt lat="46.060554937" lon="7.200084332">
        <ele>1519.600000</ele>
        <time>2015-08-05T10:17:29Z</time>
        <speed>1.845000</speed>
      </trkpt>
      <trkpt lat="46.060571785" lon="7.200078968">
        <ele>1520.200000</ele>
        <time>2015-08-05T10:17:30Z</time>
        <speed>1.866000</speed>
      </trkpt>
      <trkpt lat="46.060588214" lon="7.200069328">
        <ele>1520.600000</ele>
        <time>2015-08-05T10:17:31Z</time>
        <speed>1.904000</speed>
      </trkpt>
      <trkpt lat="46.060605983" lon="7.200059438">
        <ele>1521.000000</ele>
        <time>2015-08-05T10:17:32Z</time>
        <speed>2.019000</speed>
      </trkpt>
      <trkpt lat="46.060622077" lon="7.200051894">
        <ele>1521.600000</ele>
        <time>2015-08-05T10:17:33Z</time>
        <speed>2.027000</speed>
      </trkpt>
      <trkpt lat="46.060683097" lon="7.200015852">
        <ele>1521.600000</ele>
        <time>2015-08-05T10:17:37Z</time>
        <speed>2.040000</speed>
      </trkpt>
      <trkpt lat="46.060699358" lon="7.200015265">
        <ele>1521.600000</ele>
        <time>2015-08-05T10:17:38Z</time>
        <speed>2.064000</speed>
      </trkpt>
      <trkpt lat="46.060801617" lon="7.199994310">
        <ele>1521.600000</ele>
        <time>2015-08-05T10:17:43Z</time>
        <speed>2.054000</speed>
      </trkpt>
      <trkpt lat="46.060862302" lon="7.199984923">
        <ele>1522.000000</ele>
        <time>2015-08-05T10:17:46Z</time>
        <speed>2.121000</speed>
      </trkpt>
      <trkpt lat="46.060883005" lon="7.199981318">
        <ele>1522.400000</ele>
        <time>2015-08-05T10:17:47Z</time>
        <speed>2.058000</speed>
      </trkpt>
      <trkpt lat="46.060901026" lon="7.199980313">
        <ele>1522.800000</ele>
        <time>2015-08-05T10:17:48Z</time>
        <speed>2.100000</speed>
      </trkpt>
      <trkpt lat="46.060918964" lon="7.199979307">
        <ele>1523.200000</ele>
        <time>2015-08-05T10:17:49Z</time>
        <speed>2.121000</speed>
      </trkpt>
      <trkpt lat="46.060936398" lon="7.199974278">
        <ele>1523.600000</ele>
        <time>2015-08-05T10:17:50Z</time>
        <speed>2.121000</speed>
      </trkpt>
      <trkpt lat="46.061079058" lon="7.199956843">
        <ele>1523.600000</ele>
        <time>2015-08-05T10:17:58Z</time>
        <speed>2.032000</speed>
      </trkpt>
      <trkpt lat="46.061099594" lon="7.199961453">
        <ele>1524.000000</ele>
        <time>2015-08-05T10:17:59Z</time>
        <speed>2.044000</speed>
      </trkpt>
      <trkpt lat="46.061120548" lon="7.199964638">
        <ele>1524.400000</ele>
        <time>2015-08-05T10:18:00Z</time>
        <speed>2.062000</speed>
      </trkpt>
      <trkpt lat="46.061140330" lon="7.199967991">
        <ele>1525.000000</ele>
        <time>2015-08-05T10:18:01Z</time>
        <speed>2.096000</speed>
      </trkpt>
      <trkpt lat="46.061161955" lon="7.199971176">
        <ele>1525.400000</ele>
        <time>2015-08-05T10:18:02Z</time>
        <speed>2.104000</speed>
      </trkpt>
      <trkpt lat="46.061181569" lon="7.199970338">
        <ele>1525.800000</ele>
        <time>2015-08-05T10:18:03Z</time>
        <speed>2.127000</speed>
      </trkpt>
      <trkpt lat="46.061232028" lon="7.199959274">
        <ele>1525.800000</ele>
        <time>2015-08-05T10:18:06Z</time>
        <speed>2.098000</speed>
      </trkpt>
      <trkpt lat="46.061331772" lon="7.199958855">
        <ele>1525.800000</ele>
        <time>2015-08-05T10:18:12Z</time>
        <speed>2.170000</speed>
      </trkpt>
      <trkpt lat="46.061374352" lon="7.199963800">
        <ele>1526.400000</ele>
        <time>2015-08-05T10:18:14Z</time>
        <speed>2.096000</speed>
      </trkpt>
      <trkpt lat="46.061391368" lon="7.199965393">
        <ele>1526.800000</ele>
        <time>2015-08-05T10:18:15Z</time>
        <speed>2.080000</speed>
      </trkpt>
      <trkpt lat="46.061410562" lon="7.199963884">
        <ele>1527.200000</ele>
        <time>2015-08-05T10:18:16Z</time>
        <speed>2.113000</speed>
      </trkpt>
      <trkpt lat="46.061429170" lon="7.199961956">
        <ele>1527.600000</ele>
        <time>2015-08-05T10:18:17Z</time>
        <speed>2.129000</speed>
      </trkpt>
      <trkpt lat="46.061446101" lon="7.199959945">
        <ele>1528.000000</ele>
        <time>2015-08-05T10:18:18Z</time>
        <speed>2.113000</speed>
      </trkpt>
      <trkpt lat="46.061480467" lon="7.199963884">
        <ele>1528.000000</ele>
        <time>2015-08-05T10:18:20Z</time>
        <speed>2.082000</speed>
      </trkpt>
      <trkpt lat="46.061621618" lon="7.199989533">
        <ele>1528.000000</ele>
        <time>2015-08-05T10:18:28Z</time>
        <speed>2.064000</speed>
      </trkpt>
      <trkpt lat="46.061657409" lon="7.199987772">
        <ele>1528.400000</ele>
        <time>2015-08-05T10:18:30Z</time>
        <speed>2.025000</speed>
      </trkpt>
      <trkpt lat="46.061675346" lon="7.199992215">
        <ele>1529.000000</ele>
        <time>2015-08-05T10:18:31Z</time>
        <speed>2.015000</speed>
      </trkpt>
      <trkpt lat="46.061691188" lon="7.199999340">
        <ele>1529.400000</ele>
        <time>2015-08-05T10:18:32Z</time>
        <speed>2.015000</speed>
      </trkpt>
      <trkpt lat="46.061707701" lon="7.200003698">
        <ele>1529.800000</ele>
        <time>2015-08-05T10:18:33Z</time>
        <speed>2.066000</speed>
      </trkpt>
      <trkpt lat="46.061727147" lon="7.200009733">
        <ele>1530.400000</ele>
        <time>2015-08-05T10:18:34Z</time>
        <speed>2.046000</speed>
      </trkpt>
      <trkpt lat="46.061748437" lon="7.200016019">
        <ele>1530.400000</ele>
        <time>2015-08-05T10:18:35Z</time>
        <speed>2.012000</speed>
      </trkpt>
      <trkpt lat="46.061873998" lon="7.200010823">
        <ele>1530.400000</ele>
        <time>2015-08-05T10:18:42Z</time>
        <speed>2.064000</speed>
      </trkpt>
      <trkpt lat="46.061911884" lon="7.200023228">
        <ele>1530.800000</ele>
        <time>2015-08-05T10:18:44Z</time>
        <speed>2.058000</speed>
      </trkpt>
      <trkpt lat="46.061930492" lon="7.200025743">
        <ele>1531.200000</ele>
        <time>2015-08-05T10:18:45Z</time>
        <speed>2.072000</speed>
      </trkpt>
      <trkpt lat="46.061950105" lon="7.200027000">
        <ele>1531.600000</ele>
        <time>2015-08-05T10:18:46Z</time>
        <speed>2.074000</speed>
      </trkpt>
      <trkpt lat="46.061967121" lon="7.200029179">
        <ele>1532.200000</ele>
        <time>2015-08-05T10:18:47Z</time>
        <speed>2.096000</speed>
      </trkpt>
      <trkpt lat="46.061986567" lon="7.200029431">
        <ele>1532.600000</ele>
        <time>2015-08-05T10:18:48Z</time>
        <speed>2.080000</speed>
      </trkpt>
      <trkpt lat="46.062021351" lon="7.200032280">
        <ele>1532.600000</ele>
        <time>2015-08-05T10:18:50Z</time>
        <speed>2.074000</speed>
      </trkpt>
      <trkpt lat="46.062079187" lon="7.200025072">
        <ele>1532.600000</ele>
        <time>2015-08-05T10:18:53Z</time>
        <speed>2.144000</speed>
      </trkpt>
      <trkpt lat="46.062119671" lon="7.200037142">
        <ele>1532.600000</ele>
        <time>2015-08-05T10:18:55Z</time>
        <speed>2.236000</speed>
      </trkpt>
      <trkpt lat="46.062251686" lon="7.199998166">
        <ele>1532.600000</ele>
        <time>2015-08-05T10:19:01Z</time>
        <speed>2.459000</speed>
      </trkpt>
      <trkpt lat="46.062271384" lon="7.199990790">
        <ele>1533.000000</ele>
        <time>2015-08-05T10:19:02Z</time>
        <speed>2.453000</speed>
      </trkpt>
      <trkpt lat="46.062294769" lon="7.199984504">
        <ele>1533.400000</ele>
        <time>2015-08-05T10:19:03Z</time>
        <speed>2.431000</speed>
      </trkpt>
      <trkpt lat="46.062317903" lon="7.199974194">
        <ele>1533.800000</ele>
        <time>2015-08-05T10:19:04Z</time>
        <speed>2.398000</speed>
      </trkpt>
      <trkpt lat="46.062338271" lon="7.199963716">
        <ele>1534.200000</ele>
        <time>2015-08-05T10:19:05Z</time>
        <speed>2.409000</speed>
      </trkpt>
      <trkpt lat="46.062358891" lon="7.199957933">
        <ele>1534.600000</ele>
        <time>2015-08-05T10:19:06Z</time>
        <speed>2.412000</speed>
      </trkpt>
      <trkpt lat="46.062416977" lon="7.199932452">
        <ele>1534.600000</ele>
        <time>2015-08-05T10:19:09Z</time>
        <speed>2.325000</speed>
      </trkpt>
      <trkpt lat="46.062523260" lon="7.199826253">
        <ele>1534.600000</ele>
        <time>2015-08-05T10:19:15Z</time>
        <speed>2.537000</speed>
      </trkpt>
      <trkpt lat="46.062537509" lon="7.199768250">
        <ele>1534.600000</ele>
        <time>2015-08-05T10:19:18Z</time>
        <speed>2.264000</speed>
      </trkpt>
      <trkpt lat="46.062517309" lon="7.199754923">
        <ele>1534.600000</ele>
        <time>2015-08-05T10:19:19Z</time>
        <speed>2.406000</speed>
      </trkpt>
      <trkpt lat="46.062393340" lon="7.199762718">
        <ele>1534.600000</ele>
        <time>2015-08-05T10:19:24Z</time>
        <speed>2.956000</speed>
      </trkpt>
      <trkpt lat="46.062372553" lon="7.199765820">
        <ele>1535.000000</ele>
        <time>2015-08-05T10:19:25Z</time>
        <speed>2.908000</speed>
      </trkpt>
      <trkpt lat="46.062347324" lon="7.199769675">
        <ele>1535.600000</ele>
        <time>2015-08-05T10:19:26Z</time>
        <speed>2.820000</speed>
      </trkpt>
      <trkpt lat="46.062325447" lon="7.199773280">
        <ele>1536.000000</ele>
        <time>2015-08-05T10:19:27Z</time>
        <speed>2.858000</speed>
      </trkpt>
      <trkpt lat="46.062303570" lon="7.199775710">
        <ele>1536.400000</ele>
        <time>2015-08-05T10:19:28Z</time>
        <speed>2.780000</speed>
      </trkpt>
      <trkpt lat="46.062283537" lon="7.199775794">
        <ele>1536.800000</ele>
        <time>2015-08-05T10:19:29Z</time>
        <speed>2.627000</speed>
      </trkpt>
      <trkpt lat="46.062183290" lon="7.199778141">
        <ele>1536.800000</ele>
        <time>2015-08-05T10:19:33Z</time>
        <speed>2.734000</speed>
      </trkpt>
      <trkpt lat="46.062131657" lon="7.199754923">
        <ele>1536.800000</ele>
        <time>2015-08-05T10:19:35Z</time>
        <speed>2.676000</speed>
      </trkpt>
      <trkpt lat="46.062088658" lon="7.199731873">
        <ele>1537.400000</ele>
        <time>2015-08-05T10:19:37Z</time>
        <speed>2.696000</speed>
      </trkpt>
      <trkpt lat="46.062066614" lon="7.199724497">
        <ele>1538.000000</ele>
        <time>2015-08-05T10:19:38Z</time>
        <speed>2.734000</speed>
      </trkpt>
      <trkpt lat="46.062046078" lon="7.199713098">
        <ele>1538.600000</ele>
        <time>2015-08-05T10:19:39Z</time>
        <speed>2.798000</speed>
      </trkpt>
      <trkpt lat="46.062022525" lon="7.199702117">
        <ele>1539.000000</ele>
        <time>2015-08-05T10:19:40Z</time>
        <speed>2.820000</speed>
      </trkpt>
      <trkpt lat="46.061999978" lon="7.199693149">
        <ele>1539.600000</ele>
        <time>2015-08-05T10:19:41Z</time>
        <speed>2.956000</speed>
      </trkpt>
      <trkpt lat="46.061977849" lon="7.199687197">
        <ele>1539.600000</ele>
        <time>2015-08-05T10:19:42Z</time>
        <speed>2.940000</speed>
      </trkpt>
      <trkpt lat="46.061838626" lon="7.199607821">
        <ele>1539.600000</ele>
        <time>2015-08-05T10:19:48Z</time>
        <speed>2.835000</speed>
      </trkpt>
      <trkpt lat="46.061743994" lon="7.199502460">
        <ele>1539.600000</ele>
        <time>2015-08-05T10:19:54Z</time>
        <speed>2.516000</speed>
      </trkpt>
      <trkpt lat="46.061638131" lon="7.199349826">
        <ele>1539.600000</ele>
        <time>2015-08-05T10:20:01Z</time>
        <speed>2.513000</speed>
      </trkpt>
      <trkpt lat="46.061606028" lon="7.199308838">
        <ele>1540.000000</ele>
        <time>2015-08-05T10:20:03Z</time>
        <speed>2.543000</speed>
      </trkpt>
      <trkpt lat="46.061586414" lon="7.199286626">
        <ele>1540.400000</ele>
        <time>2015-08-05T10:20:04Z</time>
        <speed>2.558000</speed>
      </trkpt>
      <trkpt lat="46.061566214" lon="7.199261061">
        <ele>1541.000000</ele>
        <time>2015-08-05T10:20:05Z</time>
        <speed>2.589000</speed>
      </trkpt>
      <trkpt lat="46.061548109" lon="7.199236251">
        <ele>1541.400000</ele>
        <time>2015-08-05T10:20:06Z</time>
        <speed>2.640000</speed>
      </trkpt>
      <trkpt lat="46.061527909" lon="7.199214290">
        <ele>1541.800000</ele>
        <time>2015-08-05T10:20:07Z</time>
        <speed>2.630000</speed>
      </trkpt>
      <trkpt lat="46.061510726" lon="7.199193336">
        <ele>1541.800000</ele>
        <time>2015-08-05T10:20:08Z</time>
        <speed>2.608000</speed>
      </trkpt>
      <trkpt lat="46.061396648" lon="7.199102392">
        <ele>1541.800000</ele>
        <time>2015-08-05T10:20:14Z</time>
        <speed>2.567000</speed>
      </trkpt>
      <trkpt lat="46.061271003" lon="7.199055034">
        <ele>1542.200000</ele>
        <time>2015-08-05T10:20:19Z</time>
        <speed>2.528000</speed>
      </trkpt>
      <trkpt lat="46.061249043" lon="7.199048832">
        <ele>1542.600000</ele>
        <time>2015-08-05T10:20:20Z</time>
        <speed>2.589000</speed>
      </trkpt>
      <trkpt lat="46.061225741" lon="7.199046317">
        <ele>1543.000000</ele>
        <time>2015-08-05T10:20:21Z</time>
        <speed>2.496000</speed>
      </trkpt>
      <trkpt lat="46.061202020" lon="7.199044054">
        <ele>1543.800000</ele>
        <time>2015-08-05T10:20:22Z</time>
        <speed>2.522000</speed>
      </trkpt>
      <trkpt lat="46.061115435" lon="7.199050592">
        <ele>1543.800000</ele>
        <time>2015-08-05T10:20:26Z</time>
        <speed>2.461000</speed>
      </trkpt>
      <trkpt lat="46.060958694" lon="7.199043467">
        <ele>1543.800000</ele>
        <time>2015-08-05T10:20:33Z</time>
        <speed>2.525000</speed>
      </trkpt>
      <trkpt lat="46.060935811" lon="7.199037516">
        <ele>1544.200000</ele>
        <time>2015-08-05T10:20:34Z</time>
        <speed>2.502000</speed>
      </trkpt>
      <trkpt lat="46.060914186" lon="7.199029637">
        <ele>1544.600000</ele>
        <time>2015-08-05T10:20:35Z</time>
        <speed>2.417000</speed>
      </trkpt>
      <trkpt lat="46.060891722" lon="7.199025279">
        <ele>1545.000000</ele>
        <time>2015-08-05T10:20:36Z</time>
        <speed>2.558000</speed>
      </trkpt>
      <trkpt lat="46.060866660" lon="7.199018573">
        <ele>1545.400000</ele>
        <time>2015-08-05T10:20:37Z</time>
        <speed>2.577000</speed>
      </trkpt>
      <trkpt lat="46.060838581" lon="7.199010610">
        <ele>1546.000000</ele>
        <time>2015-08-05T10:20:38Z</time>
        <speed>2.602000</speed>
      </trkpt>
      <trkpt lat="46.060811508" lon="7.199001809">
        <ele>1546.000000</ele>
        <time>2015-08-05T10:20:39Z</time>
        <speed>2.640000</speed>
      </trkpt>
      <trkpt lat="46.060712517" lon="7.198985297">
        <ele>1546.000000</ele>
        <time>2015-08-05T10:20:44Z</time>
        <speed>2.425000</speed>
      </trkpt>
      <trkpt lat="46.060582011" lon="7.198998373">
        <ele>1546.000000</ele>
        <time>2015-08-05T10:20:50Z</time>
        <speed>2.516000</speed>
      </trkpt>
      <trkpt lat="46.060560972" lon="7.198999462">
        <ele>1546.400000</ele>
        <time>2015-08-05T10:20:51Z</time>
        <speed>2.401000</speed>
      </trkpt>
      <trkpt lat="46.060542197" lon="7.199002731">
        <ele>1546.800000</ele>
        <time>2015-08-05T10:20:52Z</time>
        <speed>2.422000</speed>
      </trkpt>
      <trkpt lat="46.060523086" lon="7.199008096">
        <ele>1547.200000</ele>
        <time>2015-08-05T10:20:53Z</time>
        <speed>2.425000</speed>
      </trkpt>
      <trkpt lat="46.060502802" lon="7.199017651">
        <ele>1547.600000</ele>
        <time>2015-08-05T10:20:54Z</time>
        <speed>2.456000</speed>
      </trkpt>
      <trkpt lat="46.060483356" lon="7.199026620">
        <ele>1548.000000</ele>
        <time>2015-08-05T10:20:55Z</time>
        <speed>2.543000</speed>
      </trkpt>
      <trkpt lat="46.060459719" lon="7.199032236">
        <ele>1548.000000</ele>
        <time>2015-08-05T10:20:56Z</time>
        <speed>2.570000</speed>
      </trkpt>
      <trkpt lat="46.060356119" lon="7.199121754">
        <ele>1548.000000</ele>
        <time>2015-08-05T10:21:02Z</time>
        <speed>2.470000</speed>
      </trkpt>
      <trkpt lat="46.060287890" lon="7.199192330">
        <ele>1548.000000</ele>
        <time>2015-08-05T10:21:07Z</time>
        <speed>2.341000</speed>
      </trkpt>
      <trkpt lat="46.060264169" lon="7.199223511">
        <ele>1548.400000</ele>
        <time>2015-08-05T10:21:09Z</time>
        <speed>2.341000</speed>
      </trkpt>
      <trkpt lat="46.060255117" lon="7.199240107">
        <ele>1548.800000</ele>
        <time>2015-08-05T10:21:10Z</time>
        <speed>2.159000</speed>
      </trkpt>
      <trkpt lat="46.060242795" lon="7.199257541">
        <ele>1549.200000</ele>
        <time>2015-08-05T10:21:11Z</time>
        <speed>2.136000</speed>
      </trkpt>
      <trkpt lat="46.060237599" lon="7.199262486">
        <ele>1550.200000</ele>
        <time>2015-08-05T10:21:12Z</time>
        <speed>2.190000</speed>
      </trkpt>
      <trkpt lat="46.060175321" lon="7.199330631">
        <ele>1550.200000</ele>
        <time>2015-08-05T10:21:17Z</time>
        <speed>2.153000</speed>
      </trkpt>
      <trkpt lat="46.060066356" lon="7.199434399">
        <ele>1550.600000</ele>
        <time>2015-08-05T10:21:24Z</time>
        <speed>2.215000</speed>
      </trkpt>
      <trkpt lat="46.060050012" lon="7.199442530">
        <ele>1551.000000</ele>
        <time>2015-08-05T10:21:25Z</time>
        <speed>2.204000</speed>
      </trkpt>
      <trkpt lat="46.060026458" lon="7.199450744">
        <ele>1551.400000</ele>
        <time>2015-08-05T10:21:26Z</time>
        <speed>2.188000</speed>
      </trkpt>
      <trkpt lat="46.060002570" lon="7.199457449">
        <ele>1551.800000</ele>
        <time>2015-08-05T10:21:27Z</time>
        <speed>2.206000</speed>
      </trkpt>
      <trkpt lat="46.059980693" lon="7.199464155">
        <ele>1552.200000</ele>
        <time>2015-08-05T10:21:28Z</time>
        <speed>2.315000</speed>
      </trkpt>
      <trkpt lat="46.059958314" lon="7.199473207">
        <ele>1552.200000</ele>
        <time>2015-08-05T10:21:29Z</time>
        <speed>2.425000</speed>
      </trkpt>
      <trkpt lat="46.059815737" lon="7.199502376">
        <ele>1552.200000</ele>
        <time>2015-08-05T10:21:35Z</time>
        <speed>2.291000</speed>
      </trkpt>
      <trkpt lat="46.059758154" lon="7.199517045">
        <ele>1552.600000</ele>
        <time>2015-08-05T10:21:38Z</time>
        <speed>2.338000</speed>
      </trkpt>
      <trkpt lat="46.059737534" lon="7.199519224">
        <ele>1553.000000</ele>
        <time>2015-08-05T10:21:39Z</time>
        <speed>2.323000</speed>
      </trkpt>
      <trkpt lat="46.059714233" lon="7.199525511">
        <ele>1553.400000</ele>
        <time>2015-08-05T10:21:40Z</time>
        <speed>2.315000</speed>
      </trkpt>
      <trkpt lat="46.059690596" lon="7.199525008">
        <ele>1553.800000</ele>
        <time>2015-08-05T10:21:41Z</time>
        <speed>2.310000</speed>
      </trkpt>
      <trkpt lat="46.059669389" lon="7.199534312">
        <ele>1554.200000</ele>
        <time>2015-08-05T10:21:42Z</time>
        <speed>2.278000</speed>
      </trkpt>
      <trkpt lat="46.059565119" lon="7.199563481">
        <ele>1554.200000</ele>
        <time>2015-08-05T10:21:47Z</time>
        <speed>2.481000</speed>
      </trkpt>
      <trkpt lat="46.059483060" lon="7.199602708">
        <ele>1554.200000</ele>
        <time>2015-08-05T10:21:52Z</time>
        <speed>2.487000</speed>
      </trkpt>
      <trkpt lat="46.059432265" lon="7.199612012">
        <ele>1554.600000</ele>
        <time>2015-08-05T10:21:55Z</time>
        <speed>2.428000</speed>
      </trkpt>
      <trkpt lat="46.059419357" lon="7.199613269">
        <ele>1555.000000</ele>
        <time>2015-08-05T10:21:56Z</time>
        <speed>2.445000</speed>
      </trkpt>
      <trkpt lat="46.059410053" lon="7.199617209">
        <ele>1555.400000</ele>
        <time>2015-08-05T10:21:57Z</time>
        <speed>2.476000</speed>
      </trkpt>
      <trkpt lat="46.059402007" lon="7.199616119">
        <ele>1555.800000</ele>
        <time>2015-08-05T10:21:58Z</time>
        <speed>2.537000</speed>
      </trkpt>
      <trkpt lat="46.059384824" lon="7.199618717">
        <ele>1556.200000</ele>
        <time>2015-08-05T10:21:59Z</time>
        <speed>2.531000</speed>
      </trkpt>
      <trkpt lat="46.059357247" lon="7.199620394">
        <ele>1556.200000</ele>
        <time>2015-08-05T10:22:01Z</time>
        <speed>2.522000</speed>
      </trkpt>
      <trkpt lat="46.059330844" lon="7.199617209">
        <ele>1556.200000</ele>
        <time>2015-08-05T10:22:03Z</time>
        <speed>2.504000</speed>
      </trkpt>
      <trkpt lat="46.059262783" lon="7.199628105">
        <ele>1556.200000</ele>
        <time>2015-08-05T10:22:06Z</time>
        <speed>2.580000</speed>
      </trkpt>
      <trkpt lat="46.059158932" lon="7.199633553">
        <ele>1556.200000</ele>
        <time>2015-08-05T10:22:10Z</time>
        <speed>2.484000</speed>
      </trkpt>
      <trkpt lat="46.059128589" lon="7.199640175">
        <ele>1556.600000</ele>
        <time>2015-08-05T10:22:11Z</time>
        <speed>2.502000</speed>
      </trkpt>
      <trkpt lat="46.059107970" lon="7.199639337">
        <ele>1557.000000</ele>
        <time>2015-08-05T10:22:12Z</time>
        <speed>2.537000</speed>
      </trkpt>
      <trkpt lat="46.059076034" lon="7.199643444">
        <ele>1557.400000</ele>
        <time>2015-08-05T10:22:13Z</time>
        <speed>2.540000</speed>
      </trkpt>
      <trkpt lat="46.059045441" lon="7.199644450">
        <ele>1558.000000</ele>
        <time>2015-08-05T10:22:14Z</time>
        <speed>2.534000</speed>
      </trkpt>
      <trkpt lat="46.059006297" lon="7.199642941">
        <ele>1558.400000</ele>
        <time>2015-08-05T10:22:16Z</time>
        <speed>2.540000</speed>
      </trkpt>
      <trkpt lat="46.058942008" lon="7.199632464">
        <ele>1558.400000</ele>
        <time>2015-08-05T10:22:19Z</time>
        <speed>2.561000</speed>
      </trkpt>
      <trkpt lat="46.058823739" lon="7.199612096">
        <ele>1558.400000</ele>
        <time>2015-08-05T10:22:23Z</time>
        <speed>2.646000</speed>
      </trkpt>
      <trkpt lat="46.058816279" lon="7.199615951">
        <ele>1558.400000</ele>
        <time>2015-08-05T10:22:24Z</time>
        <speed>2.663000</speed>
      </trkpt>
      <trkpt lat="46.058806472" lon="7.199628273">
        <ele>1558.400000</ele>
        <time>2015-08-05T10:22:26Z</time>
        <speed>3.006000</speed>
      </trkpt>
      <trkpt lat="46.058772777" lon="7.199606312">
        <ele>1558.400000</ele>
        <time>2015-08-05T10:22:30Z</time>
        <speed>3.297000</speed>
      </trkpt>
      <trkpt lat="46.058745536" lon="7.199622405">
        <ele>1558.800000</ele>
        <time>2015-08-05T10:22:32Z</time>
        <speed>3.079000</speed>
      </trkpt>
      <trkpt lat="46.058723743" lon="7.199635649">
        <ele>1559.200000</ele>
        <time>2015-08-05T10:22:33Z</time>
        <speed>2.866000</speed>
      </trkpt>
      <trkpt lat="46.058697256" lon="7.199645456">
        <ele>1559.600000</ele>
        <time>2015-08-05T10:22:34Z</time>
        <speed>2.680000</speed>
      </trkpt>
      <trkpt lat="46.058681331" lon="7.199658615">
        <ele>1560.000000</ele>
        <time>2015-08-05T10:22:35Z</time>
        <speed>2.589000</speed>
      </trkpt>
      <trkpt lat="46.058664148" lon="7.199666159">
        <ele>1560.400000</ele>
        <time>2015-08-05T10:22:36Z</time>
        <speed>2.431000</speed>
      </trkpt>
      <trkpt lat="46.058611258" lon="7.199679486">
        <ele>1560.400000</ele>
        <time>2015-08-05T10:22:39Z</time>
        <speed>2.499000</speed>
      </trkpt>
      <trkpt lat="46.058501371" lon="7.199696418">
        <ele>1560.800000</ele>
        <time>2015-08-05T10:22:44Z</time>
        <speed>2.461000</speed>
      </trkpt>
      <trkpt lat="46.058479997" lon="7.199698848">
        <ele>1561.400000</ele>
        <time>2015-08-05T10:22:45Z</time>
        <speed>2.442000</speed>
      </trkpt>
      <trkpt lat="46.058456696" lon="7.199699854">
        <ele>1561.800000</ele>
        <time>2015-08-05T10:22:46Z</time>
        <speed>2.387000</speed>
      </trkpt>
      <trkpt lat="46.058437166" lon="7.199704045">
        <ele>1562.200000</ele>
        <time>2015-08-05T10:22:47Z</time>
        <speed>2.351000</speed>
      </trkpt>
      <trkpt lat="46.058418139" lon="7.199708320">
        <ele>1562.600000</ele>
        <time>2015-08-05T10:22:48Z</time>
        <speed>2.382000</speed>
      </trkpt>
      <trkpt lat="46.058329375" lon="7.199740925">
        <ele>1562.600000</ele>
        <time>2015-08-05T10:22:52Z</time>
        <speed>2.621000</speed>
      </trkpt>
      <trkpt lat="46.058020753" lon="7.199851650">
        <ele>1562.600000</ele>
        <time>2015-08-05T10:22:58Z</time>
        <speed>2.341000</speed>
      </trkpt>
      <trkpt lat="46.057929977" lon="7.199887273">
        <ele>1563.000000</ele>
        <time>2015-08-05T10:23:01Z</time>
        <speed>2.262000</speed>
      </trkpt>
      <trkpt lat="46.057909441" lon="7.199896996">
        <ele>1563.400000</ele>
        <time>2015-08-05T10:23:02Z</time>
        <speed>2.325000</speed>
      </trkpt>
      <trkpt lat="46.057885553" lon="7.199909234">
        <ele>1563.800000</ele>
        <time>2015-08-05T10:23:03Z</time>
        <speed>2.393000</speed>
      </trkpt>
      <trkpt lat="46.057866107" lon="7.199919041">
        <ele>1564.200000</ele>
        <time>2015-08-05T10:23:04Z</time>
        <speed>2.366000</speed>
      </trkpt>
      <trkpt lat="46.057842554" lon="7.199927255">
        <ele>1564.600000</ele>
        <time>2015-08-05T10:23:05Z</time>
        <speed>2.393000</speed>
      </trkpt>
      <trkpt lat="46.057710622" lon="7.199993975">
        <ele>1564.600000</ele>
        <time>2015-08-05T10:23:11Z</time>
        <speed>2.611000</speed>
      </trkpt>
      <trkpt lat="46.057604005" lon="7.200042422">
        <ele>1565.000000</ele>
        <time>2015-08-05T10:23:16Z</time>
        <speed>2.439000</speed>
      </trkpt>
      <trkpt lat="46.057583385" lon="7.200051643">
        <ele>1565.400000</ele>
        <time>2015-08-05T10:23:17Z</time>
        <speed>2.436000</speed>
      </trkpt>
      <trkpt lat="46.057563855" lon="7.200061198">
        <ele>1565.800000</ele>
        <time>2015-08-05T10:23:18Z</time>
        <speed>2.414000</speed>
      </trkpt>
      <trkpt lat="46.057545834" lon="7.200068239">
        <ele>1566.200000</ele>
        <time>2015-08-05T10:23:19Z</time>
        <speed>2.420000</speed>
      </trkpt>
      <trkpt lat="46.057522700" lon="7.200081985">
        <ele>1566.600000</ele>
        <time>2015-08-05T10:23:20Z</time>
        <speed>2.445000</speed>
      </trkpt>
      <trkpt lat="46.057446425" lon="7.200134623">
        <ele>1566.600000</ele>
        <time>2015-08-05T10:23:24Z</time>
        <speed>2.493000</speed>
      </trkpt>
      <trkpt lat="46.057366378" lon="7.200205618">
        <ele>1566.600000</ele>
        <time>2015-08-05T10:23:28Z</time>
        <speed>2.598000</speed>
      </trkpt>
      <trkpt lat="46.057310722" lon="7.200276697">
        <ele>1566.600000</ele>
        <time>2015-08-05T10:23:31Z</time>
        <speed>2.731000</speed>
      </trkpt>
      <trkpt lat="46.057259844" lon="7.200401671">
        <ele>1567.000000</ele>
        <time>2015-08-05T10:23:35Z</time>
        <speed>2.759000</speed>
      </trkpt>
      <trkpt lat="46.057250288" lon="7.200430672">
        <ele>1567.400000</ele>
        <time>2015-08-05T10:23:36Z</time>
        <speed>2.809000</speed>
      </trkpt>
      <trkpt lat="46.057241320" lon="7.200465290">
        <ele>1567.800000</ele>
        <time>2015-08-05T10:23:37Z</time>
        <speed>2.820000</speed>
      </trkpt>
      <trkpt lat="46.057231932" lon="7.200494710">
        <ele>1568.200000</ele>
        <time>2015-08-05T10:23:38Z</time>
        <speed>2.558000</speed>
      </trkpt>
      <trkpt lat="46.057219024" lon="7.200523628">
        <ele>1568.600000</ele>
        <time>2015-08-05T10:23:39Z</time>
        <speed>2.759000</speed>
      </trkpt>
      <trkpt lat="46.057170912" lon="7.200661175">
        <ele>1568.600000</ele>
        <time>2015-08-05T10:23:44Z</time>
        <speed>2.720000</speed>
      </trkpt>
      <trkpt lat="46.057091870" lon="7.200714483">
        <ele>1569.000000</ele>
        <time>2015-08-05T10:23:48Z</time>
        <speed>2.570000</speed>
      </trkpt>
      <trkpt lat="46.057072341" lon="7.200717501">
        <ele>1569.400000</ele>
        <time>2015-08-05T10:23:49Z</time>
        <speed>2.374000</speed>
      </trkpt>
      <trkpt lat="46.057053062" lon="7.200716411">
        <ele>1570.000000</ele>
        <time>2015-08-05T10:23:50Z</time>
        <speed>2.348000</speed>
      </trkpt>
      <trkpt lat="46.057030096" lon="7.200713310">
        <ele>1570.400000</ele>
        <time>2015-08-05T10:23:51Z</time>
        <speed>2.252000</speed>
      </trkpt>
      <trkpt lat="46.057008638" lon="7.200713142">
        <ele>1570.800000</ele>
        <time>2015-08-05T10:23:52Z</time>
        <speed>2.351000</speed>
      </trkpt>
      <trkpt lat="46.056940242" lon="7.200703503">
        <ele>1570.800000</ele>
        <time>2015-08-05T10:23:55Z</time>
        <speed>2.598000</speed>
      </trkpt>
      <trkpt lat="46.056828762" lon="7.200740551">
        <ele>1570.800000</ele>
        <time>2015-08-05T10:24:00Z</time>
        <speed>2.608000</speed>
      </trkpt>
      <trkpt lat="46.056742848" lon="7.200769050">
        <ele>1571.200000</ele>
        <time>2015-08-05T10:24:04Z</time>
        <speed>2.586000</speed>
      </trkpt>
      <trkpt lat="46.056720217" lon="7.200775001">
        <ele>1571.600000</ele>
        <time>2015-08-05T10:24:05Z</time>
        <speed>2.546000</speed>
      </trkpt>
      <trkpt lat="46.056697669" lon="7.200781539">
        <ele>1572.600000</ele>
        <time>2015-08-05T10:24:06Z</time>
        <speed>2.546000</speed>
      </trkpt>
      <trkpt lat="46.056676044" lon="7.200785311">
        <ele>1573.000000</ele>
        <time>2015-08-05T10:24:07Z</time>
        <speed>2.525000</speed>
      </trkpt>
      <trkpt lat="46.056654503" lon="7.200789669">
        <ele>1573.000000</ele>
        <time>2015-08-05T10:24:08Z</time>
        <speed>2.493000</speed>
      </trkpt>
      <trkpt lat="46.056531875" lon="7.200779611">
        <ele>1573.000000</ele>
        <time>2015-08-05T10:24:14Z</time>
        <speed>2.481000</speed>
      </trkpt>
      <trkpt lat="46.056447470" lon="7.200764943">
        <ele>1573.400000</ele>
        <time>2015-08-05T10:24:18Z</time>
        <speed>2.473000</speed>
      </trkpt>
      <trkpt lat="46.056424503" lon="7.200762428">
        <ele>1573.800000</ele>
        <time>2015-08-05T10:24:19Z</time>
        <speed>2.513000</speed>
      </trkpt>
      <trkpt lat="46.056402543" lon="7.200756728">
        <ele>1574.200000</ele>
        <time>2015-08-05T10:24:20Z</time>
        <speed>2.484000</speed>
      </trkpt>
      <trkpt lat="46.056377648" lon="7.200749855">
        <ele>1574.600000</ele>
        <time>2015-08-05T10:24:21Z</time>
        <speed>2.513000</speed>
      </trkpt>
      <trkpt lat="46.056356694" lon="7.200740048">
        <ele>1575.000000</ele>
        <time>2015-08-05T10:24:22Z</time>
        <speed>2.496000</speed>
      </trkpt>
      <trkpt lat="46.056227864" lon="7.200725631">
        <ele>1575.000000</ele>
        <time>2015-08-05T10:24:28Z</time>
        <speed>2.504000</speed>
      </trkpt>
      <trkpt lat="46.056080091" lon="7.200772319">
        <ele>1575.000000</ele>
        <time>2015-08-05T10:24:34Z</time>
        <speed>3.093000</speed>
      </trkpt>
      <trkpt lat="46.056063998" lon="7.200783886">
        <ele>1575.400000</ele>
        <time>2015-08-05T10:24:35Z</time>
        <speed>3.066000</speed>
      </trkpt>
      <trkpt lat="46.056046731" lon="7.200798135">
        <ele>1575.800000</ele>
        <time>2015-08-05T10:24:36Z</time>
        <speed>3.066000</speed>
      </trkpt>
      <trkpt lat="46.056032146" lon="7.200814899">
        <ele>1576.200000</ele>
        <time>2015-08-05T10:24:37Z</time>
        <speed>2.589000</speed>
      </trkpt>
      <trkpt lat="46.056015802" lon="7.200833507">
        <ele>1576.600000</ele>
        <time>2015-08-05T10:24:38Z</time>
        <speed>2.549000</speed>
      </trkpt>
      <trkpt lat="46.056002391" lon="7.200849851">
        <ele>1577.000000</ele>
        <time>2015-08-05T10:24:39Z</time>
        <speed>2.516000</speed>
      </trkpt>
      <trkpt lat="46.055994344" lon="7.200871477">
        <ele>1577.000000</ele>
        <time>2015-08-05T10:24:40Z</time>
        <speed>2.534000</speed>
      </trkpt>
      <trkpt lat="46.055963331" lon="7.200934508">
        <ele>1577.000000</ele>
        <time>2015-08-05T10:24:43Z</time>
        <speed>2.490000</speed>
      </trkpt>
      <trkpt lat="46.055949501" lon="7.200982621">
        <ele>1577.400000</ele>
        <time>2015-08-05T10:24:46Z</time>
        <speed>2.428000</speed>
      </trkpt>
      <trkpt lat="46.055933910" lon="7.200999133">
        <ele>1577.800000</ele>
        <time>2015-08-05T10:24:47Z</time>
        <speed>2.461000</speed>
      </trkpt>
      <trkpt lat="46.055922176" lon="7.201013215">
        <ele>1578.200000</ele>
        <time>2015-08-05T10:24:48Z</time>
        <speed>2.555000</speed>
      </trkpt>
      <trkpt lat="46.055906083" lon="7.201024362">
        <ele>1578.600000</ele>
        <time>2015-08-05T10:24:49Z</time>
        <speed>2.499000</speed>
      </trkpt>
      <trkpt lat="46.055885044" lon="7.201042467">
        <ele>1579.000000</ele>
        <time>2015-08-05T10:24:50Z</time>
        <speed>2.461000</speed>
      </trkpt>
      <trkpt lat="46.055779767" lon="7.201099967">
        <ele>1579.000000</ele>
        <time>2015-08-05T10:24:54Z</time>
        <speed>2.487000</speed>
      </trkpt>
      <trkpt lat="46.055730985" lon="7.201113881">
        <ele>1579.000000</ele>
        <time>2015-08-05T10:24:56Z</time>
        <speed>2.496000</speed>
      </trkpt>
      <trkpt lat="46.055637610" lon="7.201120168">
        <ele>1579.400000</ele>
        <time>2015-08-05T10:25:00Z</time>
        <speed>2.504000</speed>
      </trkpt>
      <trkpt lat="46.055614057" lon="7.201118407">
        <ele>1579.800000</ele>
        <time>2015-08-05T10:25:01Z</time>
        <speed>2.478000</speed>
      </trkpt>
      <trkpt lat="46.055586983" lon="7.201112205">
        <ele>1580.200000</ele>
        <time>2015-08-05T10:25:02Z</time>
        <speed>2.537000</speed>
      </trkpt>
      <trkpt lat="46.055554713" lon="7.201108601">
        <ele>1580.600000</ele>
        <time>2015-08-05T10:25:03Z</time>
        <speed>2.567000</speed>
      </trkpt>
      <trkpt lat="46.055528645" lon="7.201105248">
        <ele>1581.000000</ele>
        <time>2015-08-05T10:25:04Z</time>
        <speed>2.564000</speed>
      </trkpt>
      <trkpt lat="46.055462261" lon="7.201086808">
        <ele>1581.000000</ele>
        <time>2015-08-05T10:25:07Z</time>
        <speed>2.552000</speed>
      </trkpt>
      <trkpt lat="46.055340891" lon="7.200954206">
        <ele>1581.000000</ele>
        <time>2015-08-05T10:25:14Z</time>
        <speed>2.580000</speed>
      </trkpt>
      <trkpt lat="46.055311303" lon="7.200910452">
        <ele>1581.600000</ele>
        <time>2015-08-05T10:25:16Z</time>
        <speed>2.583000</speed>
      </trkpt>
      <trkpt lat="46.055299400" lon="7.200888073">
        <ele>1582.000000</ele>
        <time>2015-08-05T10:25:17Z</time>
        <speed>2.522000</speed>
      </trkpt>
      <trkpt lat="46.055286073" lon="7.200866364">
        <ele>1582.400000</ele>
        <time>2015-08-05T10:25:18Z</time>
        <speed>2.592000</speed>
      </trkpt>
      <trkpt lat="46.055273584" lon="7.200846079">
        <ele>1582.800000</ele>
        <time>2015-08-05T10:25:19Z</time>
        <speed>2.586000</speed>
      </trkpt>
      <trkpt lat="46.055260508" lon="7.200827304">
        <ele>1583.200000</ele>
        <time>2015-08-05T10:25:20Z</time>
        <speed>2.528000</speed>
      </trkpt>
      <trkpt lat="46.055230333" lon="7.200790424">
        <ele>1583.200000</ele>
        <time>2015-08-05T10:25:22Z</time>
        <speed>2.513000</speed>
      </trkpt>
      <trkpt lat="46.055124973" lon="7.200715489">
        <ele>1583.200000</ele>
        <time>2015-08-05T10:25:27Z</time>
        <speed>2.605000</speed>
      </trkpt>
      <trkpt lat="46.054982062" lon="7.200744994">
        <ele>1583.200000</ele>
        <time>2015-08-05T10:25:33Z</time>
        <speed>2.519000</speed>
      </trkpt>
      <trkpt lat="46.054956748" lon="7.200762512">
        <ele>1583.600000</ele>
        <time>2015-08-05T10:25:34Z</time>
        <speed>2.490000</speed>
      </trkpt>
      <trkpt lat="46.054932189" lon="7.200775420">
        <ele>1584.000000</ele>
        <time>2015-08-05T10:25:35Z</time>
        <speed>2.513000</speed>
      </trkpt>
      <trkpt lat="46.054910229" lon="7.200786568">
        <ele>1584.400000</ele>
        <time>2015-08-05T10:25:36Z</time>
        <speed>2.528000</speed>
      </trkpt>
      <trkpt lat="46.054892040" lon="7.200803583">
        <ele>1584.800000</ele>
        <time>2015-08-05T10:25:37Z</time>
        <speed>2.555000</speed>
      </trkpt>
      <trkpt lat="46.054871169" lon="7.200814647">
        <ele>1585.200000</ele>
        <time>2015-08-05T10:25:38Z</time>
        <speed>2.583000</speed>
      </trkpt>
      <trkpt lat="46.054850633" lon="7.200837278">
        <ele>1585.200000</ele>
        <time>2015-08-05T10:25:39Z</time>
        <speed>2.522000</speed>
      </trkpt>
      <trkpt lat="46.054800342" lon="7.200910117">
        <ele>1585.200000</ele>
        <time>2015-08-05T10:25:42Z</time>
        <speed>2.555000</speed>
      </trkpt>
      <trkpt lat="46.054750470" lon="7.200984968">
        <ele>1585.200000</ele>
        <time>2015-08-05T10:25:45Z</time>
        <speed>2.847000</speed>
      </trkpt>
      <trkpt lat="46.054664220" lon="7.201154366">
        <ele>1585.600000</ele>
        <time>2015-08-05T10:25:51Z</time>
        <speed>2.908000</speed>
      </trkpt>
      <trkpt lat="46.054655251" lon="7.201188312">
        <ele>1586.000000</ele>
        <time>2015-08-05T10:25:52Z</time>
        <speed>2.873000</speed>
      </trkpt>
      <trkpt lat="46.054645025" lon="7.201224355">
        <ele>1586.400000</ele>
        <time>2015-08-05T10:25:53Z</time>
        <speed>2.904000</speed>
      </trkpt>
      <trkpt lat="46.054630441" lon="7.201254278">
        <ele>1586.800000</ele>
        <time>2015-08-05T10:25:54Z</time>
        <speed>2.912000</speed>
      </trkpt>
      <trkpt lat="46.054615940" lon="7.201289063">
        <ele>1587.200000</ele>
        <time>2015-08-05T10:25:55Z</time>
        <speed>2.885000</speed>
      </trkpt>
      <trkpt lat="46.054578054" lon="7.201384533">
        <ele>1587.200000</ele>
        <time>2015-08-05T10:25:59Z</time>
        <speed>2.693000</speed>
      </trkpt>
      <trkpt lat="46.054562715" lon="7.201397776">
        <ele>1587.200000</ele>
        <time>2015-08-05T10:26:00Z</time>
        <speed>2.637000</speed>
      </trkpt>
      <trkpt lat="46.054549304" lon="7.201404482">
        <ele>1588.000000</ele>
        <time>2015-08-05T10:26:01Z</time>
        <speed>2.540000</speed>
      </trkpt>
      <trkpt lat="46.054533211" lon="7.201402638">
        <ele>1588.200000</ele>
        <time>2015-08-05T10:26:02Z</time>
        <speed>2.540000</speed>
      </trkpt>
      <trkpt lat="46.054519800" lon="7.201414205">
        <ele>1588.400000</ele>
        <time>2015-08-05T10:26:03Z</time>
        <speed>2.192000</speed>
      </trkpt>
      <trkpt lat="46.054507562" lon="7.201421162">
        <ele>1588.600000</ele>
        <time>2015-08-05T10:26:04Z</time>
        <speed>2.192000</speed>
      </trkpt>
      <trkpt lat="46.054493899" lon="7.201414372">
        <ele>1588.600000</ele>
        <time>2015-08-05T10:26:05Z</time>
        <speed>1.647000</speed>
      </trkpt>
      <trkpt lat="46.054480488" lon="7.201390065">
        <ele>1588.800000</ele>
        <time>2015-08-05T10:26:06Z</time>
        <speed>1.654000</speed>
      </trkpt>
      <trkpt lat="46.054478896" lon="7.201362321">
        <ele>1588.800000</ele>
        <time>2015-08-05T10:26:07Z</time>
        <speed>1.677000</speed>
      </trkpt>
      <trkpt lat="46.054492726" lon="7.201272215">
        <ele>1588.800000</ele>
        <time>2015-08-05T10:26:11Z</time>
        <speed>2.315000</speed>
      </trkpt>
      <trkpt lat="46.054504125" lon="7.201260564">
        <ele>1588.800000</ele>
        <time>2015-08-05T10:26:12Z</time>
        <speed>1.910000</speed>
      </trkpt>
      <trkpt lat="46.054509071" lon="7.201240448">
        <ele>1588.800000</ele>
        <time>2015-08-05T10:26:13Z</time>
        <speed>1.886000</speed>
      </trkpt>
      <trkpt lat="46.054507646" lon="7.201180601">
        <ele>1589.200000</ele>
        <time>2015-08-05T10:26:16Z</time>
        <speed>1.960000</speed>
      </trkpt>
      <trkpt lat="46.054514938" lon="7.201158557">
        <ele>1589.600000</ele>
        <time>2015-08-05T10:26:17Z</time>
        <speed>1.957000</speed>
      </trkpt>
      <trkpt lat="46.054522901" lon="7.201141122">
        <ele>1590.000000</ele>
        <time>2015-08-05T10:26:18Z</time>
        <speed>1.962000</speed>
      </trkpt>
      <trkpt lat="46.054519967" lon="7.201124861">
        <ele>1590.400000</ele>
        <time>2015-08-05T10:26:19Z</time>
        <speed>1.958000</speed>
      </trkpt>
      <trkpt lat="46.054514016" lon="7.201102314">
        <ele>1590.800000</ele>
        <time>2015-08-05T10:26:20Z</time>
        <speed>1.965000</speed>
      </trkpt>
      <trkpt lat="46.054508987" lon="7.201024949">
        <ele>1590.800000</ele>
        <time>2015-08-05T10:26:23Z</time>
        <speed>1.904000</speed>
      </trkpt>
      <trkpt lat="46.054499851" lon="7.200981950">
        <ele>1590.800000</ele>
        <time>2015-08-05T10:26:25Z</time>
        <speed>2.013000</speed>
      </trkpt>
      <trkpt lat="46.054493899" lon="7.200937610">
        <ele>1591.200000</ele>
        <time>2015-08-05T10:26:27Z</time>
        <speed>1.998000</speed>
      </trkpt>
      <trkpt lat="46.054495827" lon="7.200915901">
        <ele>1591.600000</ele>
        <time>2015-08-05T10:26:28Z</time>
        <speed>2.021000</speed>
      </trkpt>
      <trkpt lat="46.054497671" lon="7.200893605">
        <ele>1592.000000</ele>
        <time>2015-08-05T10:26:29Z</time>
        <speed>2.054000</speed>
      </trkpt>
      <trkpt lat="46.054499767" lon="7.200870303">
        <ele>1592.400000</ele>
        <time>2015-08-05T10:26:30Z</time>
        <speed>1.991000</speed>
      </trkpt>
      <trkpt lat="46.054500773" lon="7.200846247">
        <ele>1592.800000</ele>
        <time>2015-08-05T10:26:31Z</time>
        <speed>1.904000</speed>
      </trkpt>
      <trkpt lat="46.054482752" lon="7.200741389">
        <ele>1592.800000</ele>
        <time>2015-08-05T10:26:35Z</time>
        <speed>1.949000</speed>
      </trkpt>
      <trkpt lat="46.054461378" lon="7.200636364">
        <ele>1593.400000</ele>
        <time>2015-08-05T10:26:40Z</time>
        <speed>2.153000</speed>
      </trkpt>
      <trkpt lat="46.054472107" lon="7.200623121">
        <ele>1593.800000</ele>
        <time>2015-08-05T10:26:41Z</time>
        <speed>1.868000</speed>
      </trkpt>
      <trkpt lat="46.054483422" lon="7.200613565">
        <ele>1594.200000</ele>
        <time>2015-08-05T10:26:42Z</time>
        <speed>2.086000</speed>
      </trkpt>
      <trkpt lat="46.054494319" lon="7.200605435">
        <ele>1594.600000</ele>
        <time>2015-08-05T10:26:43Z</time>
        <speed>2.140000</speed>
      </trkpt>
      <trkpt lat="46.054486440" lon="7.200576014">
        <ele>1595.000000</ele>
        <time>2015-08-05T10:26:44Z</time>
        <speed>2.183000</speed>
      </trkpt>
      <trkpt lat="46.054481075" lon="7.200547600">
        <ele>1595.000000</ele>
        <time>2015-08-05T10:26:45Z</time>
        <speed>2.183000</speed>
      </trkpt>
      <trkpt lat="46.054490966" lon="7.200401000">
        <ele>1595.000000</ele>
        <time>2015-08-05T10:26:50Z</time>
        <speed>2.072000</speed>
      </trkpt>
      <trkpt lat="46.054489792" lon="7.200336879">
        <ele>1595.600000</ele>
        <time>2015-08-05T10:26:52Z</time>
        <speed>1.928000</speed>
      </trkpt>
      <trkpt lat="46.054490463" lon="7.200306788">
        <ele>1596.000000</ele>
        <time>2015-08-05T10:26:53Z</time>
        <speed>1.962000</speed>
      </trkpt>
      <trkpt lat="46.054493983" lon="7.200276194">
        <ele>1596.400000</ele>
        <time>2015-08-05T10:26:54Z</time>
        <speed>1.921000</speed>
      </trkpt>
      <trkpt lat="46.054506891" lon="7.200247779">
        <ele>1596.800000</ele>
        <time>2015-08-05T10:26:55Z</time>
        <speed>1.965000</speed>
      </trkpt>
      <trkpt lat="46.054499934" lon="7.200214838">
        <ele>1597.200000</ele>
        <time>2015-08-05T10:26:56Z</time>
        <speed>1.985000</speed>
      </trkpt>
      <trkpt lat="46.054509741" lon="7.200083326">
        <ele>1597.200000</ele>
        <time>2015-08-05T10:27:01Z</time>
        <speed>2.064000</speed>
      </trkpt>
      <trkpt lat="46.054539162" lon="7.200022725">
        <ele>1597.200000</ele>
        <time>2015-08-05T10:27:04Z</time>
        <speed>2.074000</speed>
      </trkpt>
      <trkpt lat="46.054532875" lon="7.199956676">
        <ele>1597.600000</ele>
        <time>2015-08-05T10:27:06Z</time>
        <speed>2.146000</speed>
      </trkpt>
      <trkpt lat="46.054530277" lon="7.199925663">
        <ele>1598.000000</ele>
        <time>2015-08-05T10:27:07Z</time>
        <speed>2.222000</speed>
      </trkpt>
      <trkpt lat="46.054540000" lon="7.199899092">
        <ele>1598.400000</ele>
        <time>2015-08-05T10:27:08Z</time>
        <speed>2.140000</speed>
      </trkpt>
      <trkpt lat="46.054543604" lon="7.199875036">
        <ele>1598.800000</ele>
        <time>2015-08-05T10:27:09Z</time>
        <speed>2.092000</speed>
      </trkpt>
      <trkpt lat="46.054547795" lon="7.199849890">
        <ele>1599.200000</ele>
        <time>2015-08-05T10:27:10Z</time>
        <speed>2.164000</speed>
      </trkpt>
      <trkpt lat="46.054613593" lon="7.199774705">
        <ele>1599.200000</ele>
        <time>2015-08-05T10:27:15Z</time>
        <speed>2.233000</speed>
      </trkpt>
      <trkpt lat="46.054658101" lon="7.199769843">
        <ele>1599.800000</ele>
        <time>2015-08-05T10:27:17Z</time>
        <speed>2.127000</speed>
      </trkpt>
      <trkpt lat="46.054677128" lon="7.199770514">
        <ele>1600.200000</ele>
        <time>2015-08-05T10:27:18Z</time>
        <speed>2.134000</speed>
      </trkpt>
      <trkpt lat="46.054695149" lon="7.199778560">
        <ele>1600.600000</ele>
        <time>2015-08-05T10:27:19Z</time>
        <speed>2.271000</speed>
      </trkpt>
      <trkpt lat="46.054716271" lon="7.199781326">
        <ele>1601.000000</ele>
        <time>2015-08-05T10:27:20Z</time>
        <speed>2.029000</speed>
      </trkpt>
      <trkpt lat="46.054731107" lon="7.199782835">
        <ele>1601.400000</ele>
        <time>2015-08-05T10:27:21Z</time>
        <speed>1.953000</speed>
      </trkpt>
      <trkpt lat="46.054822219" lon="7.199796917">
        <ele>1601.400000</ele>
        <time>2015-08-05T10:27:26Z</time>
        <speed>1.716000</speed>
      </trkpt>
      <trkpt lat="46.054868319" lon="7.199804041">
        <ele>1602.000000</ele>
        <time>2015-08-05T10:27:28Z</time>
        <speed>1.735000</speed>
      </trkpt>
      <trkpt lat="46.054882987" lon="7.199803538">
        <ele>1602.400000</ele>
        <time>2015-08-05T10:27:29Z</time>
        <speed>1.746000</speed>
      </trkpt>
      <trkpt lat="46.054901595" lon="7.199805718">
        <ele>1602.800000</ele>
        <time>2015-08-05T10:27:30Z</time>
        <speed>1.813000</speed>
      </trkpt>
      <trkpt lat="46.054919616" lon="7.199811753">
        <ele>1603.200000</ele>
        <time>2015-08-05T10:27:31Z</time>
        <speed>1.741000</speed>
      </trkpt>
      <trkpt lat="46.054936967" lon="7.199820721">
        <ele>1603.600000</ele>
        <time>2015-08-05T10:27:32Z</time>
        <speed>1.744000</speed>
      </trkpt>
      <trkpt lat="46.054953815" lon="7.199824074">
        <ele>1603.600000</ele>
        <time>2015-08-05T10:27:33Z</time>
        <speed>1.744000</speed>
      </trkpt>
      <trkpt lat="46.055087590" lon="7.199835389">
        <ele>1603.600000</ele>
        <time>2015-08-05T10:27:40Z</time>
        <speed>1.798000</speed>
      </trkpt>
      <trkpt lat="46.055125727" lon="7.199835306">
        <ele>1604.000000</ele>
        <time>2015-08-05T10:27:42Z</time>
        <speed>1.825000</speed>
      </trkpt>
      <trkpt lat="46.055143497" lon="7.199832121">
        <ele>1604.400000</ele>
        <time>2015-08-05T10:27:43Z</time>
        <speed>1.792000</speed>
      </trkpt>
      <trkpt lat="46.055161350" lon="7.199834970">
        <ele>1604.800000</ele>
        <time>2015-08-05T10:27:44Z</time>
        <speed>1.767000</speed>
      </trkpt>
      <trkpt lat="46.055181048" lon="7.199836060">
        <ele>1605.400000</ele>
        <time>2015-08-05T10:27:45Z</time>
        <speed>1.798000</speed>
      </trkpt>
      <trkpt lat="46.055195800" lon="7.199836228">
        <ele>1605.800000</ele>
        <time>2015-08-05T10:27:46Z</time>
        <speed>1.798000</speed>
      </trkpt>
      <trkpt lat="46.055231256" lon="7.199831618">
        <ele>1605.800000</ele>
        <time>2015-08-05T10:27:48Z</time>
        <speed>1.852000</speed>
      </trkpt>
      <trkpt lat="46.055334604" lon="7.199835138">
        <ele>1605.800000</ele>
        <time>2015-08-05T10:27:54Z</time>
        <speed>1.672000</speed>
      </trkpt>
      <trkpt lat="46.055399732" lon="7.199836395">
        <ele>1606.200000</ele>
        <time>2015-08-05T10:27:58Z</time>
        <speed>1.847000</speed>
      </trkpt>
      <trkpt lat="46.055415406" lon="7.199834887">
        <ele>1606.600000</ele>
        <time>2015-08-05T10:27:59Z</time>
        <speed>1.847000</speed>
      </trkpt>
      <trkpt lat="46.055431667" lon="7.199831366">
        <ele>1607.000000</ele>
        <time>2015-08-05T10:28:00Z</time>
        <speed>1.811000</speed>
      </trkpt>
      <trkpt lat="46.055451029" lon="7.199830277">
        <ele>1607.400000</ele>
        <time>2015-08-05T10:28:01Z</time>
        <speed>1.857000</speed>
      </trkpt>
      <trkpt lat="46.055467122" lon="7.199832288">
        <ele>1608.000000</ele>
        <time>2015-08-05T10:28:02Z</time>
        <speed>1.777000</speed>
      </trkpt>
      <trkpt lat="46.055563682" lon="7.199831701">
        <ele>1608.000000</ele>
        <time>2015-08-05T10:28:08Z</time>
        <speed>1.828000</speed>
      </trkpt>
      <trkpt lat="46.055608776" lon="7.199819464">
        <ele>1608.400000</ele>
        <time>2015-08-05T10:28:11Z</time>
        <speed>1.768000</speed>
      </trkpt>
      <trkpt lat="46.055625624" lon="7.199815273">
        <ele>1608.800000</ele>
        <time>2015-08-05T10:28:12Z</time>
        <speed>1.768000</speed>
      </trkpt>
      <trkpt lat="46.055640879" lon="7.199811417">
        <ele>1609.600000</ele>
        <time>2015-08-05T10:28:13Z</time>
        <speed>1.802000</speed>
      </trkpt>
      <trkpt lat="46.055654206" lon="7.199803371">
        <ele>1610.000000</ele>
        <time>2015-08-05T10:28:14Z</time>
        <speed>1.802000</speed>
      </trkpt>
      <trkpt lat="46.055767613" lon="7.199744446">
        <ele>1610.000000</ele>
        <time>2015-08-05T10:28:21Z</time>
        <speed>1.768000</speed>
      </trkpt>
      <trkpt lat="46.055799046" lon="7.199709577">
        <ele>1610.600000</ele>
        <time>2015-08-05T10:28:24Z</time>
        <speed>1.865000</speed>
      </trkpt>
      <trkpt lat="46.055814385" lon="7.199700944">
        <ele>1611.000000</ele>
        <time>2015-08-05T10:28:25Z</time>
        <speed>1.795000</speed>
      </trkpt>
      <trkpt lat="46.055823018" lon="7.199690215">
        <ele>1611.400000</ele>
        <time>2015-08-05T10:28:26Z</time>
        <speed>1.853000</speed>
      </trkpt>
      <trkpt lat="46.055831819" lon="7.199676636">
        <ele>1611.800000</ele>
        <time>2015-08-05T10:28:27Z</time>
        <speed>1.910000</speed>
      </trkpt>
      <trkpt lat="46.055839195" lon="7.199662890">
        <ele>1612.200000</ele>
        <time>2015-08-05T10:28:28Z</time>
        <speed>1.820000</speed>
      </trkpt>
      <trkpt lat="46.055853444" lon="7.199652245">
        <ele>1612.200000</ele>
        <time>2015-08-05T10:28:29Z</time>
        <speed>1.728000</speed>
      </trkpt>
      <trkpt lat="46.055899209" lon="7.199636235">
        <ele>1612.200000</ele>
        <time>2015-08-05T10:28:32Z</time>
        <speed>1.831000</speed>
      </trkpt>
      <trkpt lat="46.055993506" lon="7.199610000">
        <ele>1612.600000</ele>
        <time>2015-08-05T10:28:38Z</time>
        <speed>1.783000</speed>
      </trkpt>
      <trkpt lat="46.056012700" lon="7.199602205">
        <ele>1613.000000</ele>
        <time>2015-08-05T10:28:39Z</time>
        <speed>1.754000</speed>
      </trkpt>
      <trkpt lat="46.056030554" lon="7.199588207">
        <ele>1613.400000</ele>
        <time>2015-08-05T10:28:40Z</time>
        <speed>1.744000</speed>
      </trkpt>
      <trkpt lat="46.056046228" lon="7.199581166">
        <ele>1614.000000</ele>
        <time>2015-08-05T10:28:41Z</time>
        <speed>1.744000</speed>
      </trkpt>
      <trkpt lat="46.056057376" lon="7.199577646">
        <ele>1614.400000</ele>
        <time>2015-08-05T10:28:42Z</time>
        <speed>1.712000</speed>
      </trkpt>
      <trkpt lat="46.056099034" lon="7.199565073">
        <ele>1614.400000</ele>
        <time>2015-08-05T10:28:45Z</time>
        <speed>1.720000</speed>
      </trkpt>
      <trkpt lat="46.056194252" lon="7.199515452">
        <ele>1614.800000</ele>
        <time>2015-08-05T10:28:51Z</time>
        <speed>1.807000</speed>
      </trkpt>
      <trkpt lat="46.056205903" lon="7.199505394">
        <ele>1615.200000</ele>
        <time>2015-08-05T10:28:52Z</time>
        <speed>1.749000</speed>
      </trkpt>
      <trkpt lat="46.056216213" lon="7.199496006">
        <ele>1615.600000</ele>
        <time>2015-08-05T10:28:53Z</time>
        <speed>1.816000</speed>
      </trkpt>
      <trkpt lat="46.056232390" lon="7.199489217">
        <ele>1616.000000</ele>
        <time>2015-08-05T10:28:54Z</time>
        <speed>1.858000</speed>
      </trkpt>
      <trkpt lat="46.056251165" lon="7.199483433">
        <ele>1616.400000</ele>
        <time>2015-08-05T10:28:55Z</time>
        <speed>1.858000</speed>
      </trkpt>
      <trkpt lat="46.056282598" lon="7.199471866">
        <ele>1616.400000</ele>
        <time>2015-08-05T10:28:57Z</time>
        <speed>1.842000</speed>
      </trkpt>
      <trkpt lat="46.056329955" lon="7.199381677">
        <ele>1616.800000</ele>
        <time>2015-08-05T10:29:03Z</time>
        <speed>1.838000</speed>
      </trkpt>
      <trkpt lat="46.056337164" lon="7.199367344">
        <ele>1617.200000</ele>
        <time>2015-08-05T10:29:04Z</time>
        <speed>1.798000</speed>
      </trkpt>
      <trkpt lat="46.056345294" lon="7.199352843">
        <ele>1617.600000</ele>
        <time>2015-08-05T10:29:05Z</time>
        <speed>1.746000</speed>
      </trkpt>
      <trkpt lat="46.056358873" lon="7.199348317">
        <ele>1618.000000</ele>
        <time>2015-08-05T10:29:06Z</time>
        <speed>1.777000</speed>
      </trkpt>
      <trkpt lat="46.056366836" lon="7.199331889">
        <ele>1618.400000</ele>
        <time>2015-08-05T10:29:07Z</time>
        <speed>1.838000</speed>
      </trkpt>
      <trkpt lat="46.056385444" lon="7.199281681">
        <ele>1618.400000</ele>
        <time>2015-08-05T10:29:10Z</time>
        <speed>1.668000</speed>
      </trkpt>
      <trkpt lat="46.056399274" lon="7.199265504">
        <ele>1618.400000</ele>
        <time>2015-08-05T10:29:11Z</time>
        <speed>1.752000</speed>
      </trkpt>
      <trkpt lat="46.056427605" lon="7.199202891">
        <ele>1618.400000</ele>
        <time>2015-08-05T10:29:14Z</time>
        <speed>1.758000</speed>
      </trkpt>
      <trkpt lat="46.056475381" lon="7.199139608">
        <ele>1618.400000</ele>
        <time>2015-08-05T10:29:18Z</time>
        <speed>1.751000</speed>
      </trkpt>
      <trkpt lat="46.056477561" lon="7.199122006">
        <ele>1618.800000</ele>
        <time>2015-08-05T10:29:19Z</time>
        <speed>1.807000</speed>
      </trkpt>
      <trkpt lat="46.056485943" lon="7.199099375">
        <ele>1619.400000</ele>
        <time>2015-08-05T10:29:20Z</time>
        <speed>1.839000</speed>
      </trkpt>
      <trkpt lat="46.056492732" lon="7.199080515">
        <ele>1619.800000</ele>
        <time>2015-08-05T10:29:21Z</time>
        <speed>1.827000</speed>
      </trkpt>
      <trkpt lat="46.056500024" lon="7.199061488">
        <ele>1620.200000</ele>
        <time>2015-08-05T10:29:22Z</time>
        <speed>1.827000</speed>
      </trkpt>
      <trkpt lat="46.056509580" lon="7.199037768">
        <ele>1620.600000</ele>
        <time>2015-08-05T10:29:23Z</time>
        <speed>1.769000</speed>
      </trkpt>
      <trkpt lat="46.056530870" lon="7.198958223">
        <ele>1620.600000</ele>
        <time>2015-08-05T10:29:27Z</time>
        <speed>1.811000</speed>
      </trkpt>
      <trkpt lat="46.056570767" lon="7.198881277">
        <ele>1621.000000</ele>
        <time>2015-08-05T10:29:32Z</time>
        <speed>1.714000</speed>
      </trkpt>
      <trkpt lat="46.056570516" lon="7.198858814">
        <ele>1621.400000</ele>
        <time>2015-08-05T10:29:33Z</time>
        <speed>1.690000</speed>
      </trkpt>
      <trkpt lat="46.056583927" lon="7.198841882">
        <ele>1621.800000</ele>
        <time>2015-08-05T10:29:34Z</time>
        <speed>1.690000</speed>
      </trkpt>
      <trkpt lat="46.056603122" lon="7.198821850">
        <ele>1622.200000</ele>
        <time>2015-08-05T10:29:35Z</time>
        <speed>1.741000</speed>
      </trkpt>
      <trkpt lat="46.056614270" lon="7.198801817">
        <ele>1622.600000</ele>
        <time>2015-08-05T10:29:36Z</time>
        <speed>1.762000</speed>
      </trkpt>
      <trkpt lat="46.056626675" lon="7.198782622">
        <ele>1622.600000</ele>
        <time>2015-08-05T10:29:37Z</time>
        <speed>1.714000</speed>
      </trkpt>
      <trkpt lat="46.056646372" lon="7.198758147">
        <ele>1622.600000</ele>
        <time>2015-08-05T10:29:38Z</time>
        <speed>1.735000</speed>
      </trkpt>
      <trkpt lat="46.056691467" lon="7.198669131">
        <ele>1622.600000</ele>
        <time>2015-08-05T10:29:43Z</time>
        <speed>1.876000</speed>
      </trkpt>
      <trkpt lat="46.056700184" lon="7.198648428">
        <ele>1622.600000</ele>
        <time>2015-08-05T10:29:44Z</time>
        <speed>1.833000</speed>
      </trkpt>
      <trkpt lat="46.056708901" lon="7.198628228">
        <ele>1623.000000</ele>
        <time>2015-08-05T10:29:45Z</time>
        <speed>1.799000</speed>
      </trkpt>
      <trkpt lat="46.056726336" lon="7.198612637">
        <ele>1623.400000</ele>
        <time>2015-08-05T10:29:46Z</time>
        <speed>1.841000</speed>
      </trkpt>
      <trkpt lat="46.056739663" lon="7.198600651">
        <ele>1623.800000</ele>
        <time>2015-08-05T10:29:47Z</time>
        <speed>1.836000</speed>
      </trkpt>
      <trkpt lat="46.056757684" lon="7.198583133">
        <ele>1624.200000</ele>
        <time>2015-08-05T10:29:48Z</time>
        <speed>1.836000</speed>
      </trkpt>
      <trkpt lat="46.056775454" lon="7.198565699">
        <ele>1624.600000</ele>
        <time>2015-08-05T10:29:49Z</time>
        <speed>1.751000</speed>
      </trkpt>
      <trkpt lat="46.056777130" lon="7.198547175">
        <ele>1624.600000</ele>
        <time>2015-08-05T10:29:50Z</time>
        <speed>1.787000</speed>
      </trkpt>
      <trkpt lat="46.056817782" lon="7.198474504">
        <ele>1624.600000</ele>
        <time>2015-08-05T10:29:54Z</time>
        <speed>1.789000</speed>
      </trkpt>
      <trkpt lat="46.056829098" lon="7.198455309">
        <ele>1624.600000</ele>
        <time>2015-08-05T10:29:55Z</time>
        <speed>1.822000</speed>
      </trkpt>
      <trkpt lat="46.056866565" lon="7.198368976">
        <ele>1625.000000</ele>
        <time>2015-08-05T10:29:59Z</time>
        <speed>1.745000</speed>
      </trkpt>
      <trkpt lat="46.056874611" lon="7.198348775">
        <ele>1625.400000</ele>
        <time>2015-08-05T10:30:00Z</time>
        <speed>1.714000</speed>
      </trkpt>
      <trkpt lat="46.056876539" lon="7.198331760">
        <ele>1626.000000</ele>
        <time>2015-08-05T10:30:01Z</time>
        <speed>1.714000</speed>
      </trkpt>
      <trkpt lat="46.056881233" lon="7.198313152">
        <ele>1626.400000</ele>
        <time>2015-08-05T10:30:02Z</time>
        <speed>1.725000</speed>
      </trkpt>
      <trkpt lat="46.056884586" lon="7.198295885">
        <ele>1626.800000</ele>
        <time>2015-08-05T10:30:03Z</time>
        <speed>1.691000</speed>
      </trkpt>
      <trkpt lat="46.056896488" lon="7.198211647">
        <ele>1626.800000</ele>
        <time>2015-08-05T10:30:07Z</time>
        <speed>1.721000</speed>
      </trkpt>
      <trkpt lat="46.056901853" lon="7.198166972">
        <ele>1626.800000</ele>
        <time>2015-08-05T10:30:09Z</time>
        <speed>1.790000</speed>
      </trkpt>
      <trkpt lat="46.056922891" lon="7.198075777">
        <ele>1626.800000</ele>
        <time>2015-08-05T10:30:14Z</time>
        <speed>1.780000</speed>
      </trkpt>
      <trkpt lat="46.056924987" lon="7.198055325">
        <ele>1627.600000</ele>
        <time>2015-08-05T10:30:15Z</time>
        <speed>1.695000</speed>
      </trkpt>
      <trkpt lat="46.056920880" lon="7.198034789">
        <ele>1628.000000</ele>
        <time>2015-08-05T10:30:16Z</time>
        <speed>1.742000</speed>
      </trkpt>
      <trkpt lat="46.056924987" lon="7.198012074">
        <ele>1628.600000</ele>
        <time>2015-08-05T10:30:17Z</time>
        <speed>1.742000</speed>
      </trkpt>
      <trkpt lat="46.056929010" lon="7.197993047">
        <ele>1629.000000</ele>
        <time>2015-08-05T10:30:18Z</time>
        <speed>1.694000</speed>
      </trkpt>
      <trkpt lat="46.056927753" lon="7.197970500">
        <ele>1629.000000</ele>
        <time>2015-08-05T10:30:19Z</time>
        <speed>1.652000</speed>
      </trkpt>
      <trkpt lat="46.056934039" lon="7.197883244">
        <ele>1629.000000</ele>
        <time>2015-08-05T10:30:23Z</time>
        <speed>1.701000</speed>
      </trkpt>
      <trkpt lat="46.056933704" lon="7.197833959">
        <ele>1629.000000</ele>
        <time>2015-08-05T10:30:25Z</time>
        <speed>1.775000</speed>
      </trkpt>
      <trkpt lat="46.056938901" lon="7.197814596">
        <ele>1629.400000</ele>
        <time>2015-08-05T10:30:26Z</time>
        <speed>1.751000</speed>
      </trkpt>
      <trkpt lat="46.056939990" lon="7.197793893">
        <ele>1629.800000</ele>
        <time>2015-08-05T10:30:27Z</time>
        <speed>1.802000</speed>
      </trkpt>
      <trkpt lat="46.056936051" lon="7.197767071">
        <ele>1630.200000</ele>
        <time>2015-08-05T10:30:28Z</time>
        <speed>1.759000</speed>
      </trkpt>
      <trkpt lat="46.056938649" lon="7.197743602">
        <ele>1630.600000</ele>
        <time>2015-08-05T10:30:29Z</time>
        <speed>1.777000</speed>
      </trkpt>
      <trkpt lat="46.056948791" lon="7.197722815">
        <ele>1631.000000</ele>
        <time>2015-08-05T10:30:30Z</time>
        <speed>1.777000</speed>
      </trkpt>
      <trkpt lat="46.056957173" lon="7.197676882">
        <ele>1631.000000</ele>
        <time>2015-08-05T10:30:32Z</time>
        <speed>1.777000</speed>
      </trkpt>
      <trkpt lat="46.056954491" lon="7.197624830">
        <ele>1631.000000</ele>
        <time>2015-08-05T10:30:34Z</time>
        <speed>2.010000</speed>
      </trkpt>
      <trkpt lat="46.056928926" lon="7.197543610">
        <ele>1631.400000</ele>
        <time>2015-08-05T10:30:37Z</time>
        <speed>2.010000</speed>
      </trkpt>
      <trkpt lat="46.056925825" lon="7.197511423">
        <ele>1631.800000</ele>
        <time>2015-08-05T10:30:38Z</time>
        <speed>1.920000</speed>
      </trkpt>
      <trkpt lat="46.056921885" lon="7.197483344">
        <ele>1632.200000</ele>
        <time>2015-08-05T10:30:39Z</time>
        <speed>2.153000</speed>
      </trkpt>
      <trkpt lat="46.056916437" lon="7.197453672">
        <ele>1633.200000</ele>
        <time>2015-08-05T10:30:40Z</time>
        <speed>2.510000</speed>
      </trkpt>
      <trkpt lat="46.056930351" lon="7.197353843">
        <ele>1633.200000</ele>
        <time>2015-08-05T10:30:44Z</time>
        <speed>2.066000</speed>
      </trkpt>
      <trkpt lat="46.056940661" lon="7.197335654">
        <ele>1633.200000</ele>
        <time>2015-08-05T10:30:45Z</time>
        <speed>1.984000</speed>
      </trkpt>
      <trkpt lat="46.056959688" lon="7.197320399">
        <ele>1633.200000</ele>
        <time>2015-08-05T10:30:46Z</time>
        <speed>1.998000</speed>
      </trkpt>
      <trkpt lat="46.057010063" lon="7.197282010">
        <ele>1633.600000</ele>
        <time>2015-08-05T10:30:50Z</time>
        <speed>1.756000</speed>
      </trkpt>
      <trkpt lat="46.057023893" lon="7.197276143">
        <ele>1634.000000</ele>
        <time>2015-08-05T10:30:51Z</time>
        <speed>1.664000</speed>
      </trkpt>
      <trkpt lat="46.057038310" lon="7.197268180">
        <ele>1634.400000</ele>
        <time>2015-08-05T10:30:52Z</time>
        <speed>1.647000</speed>
      </trkpt>
      <trkpt lat="46.057050631" lon="7.197255021">
        <ele>1634.800000</ele>
        <time>2015-08-05T10:30:53Z</time>
        <speed>1.656000</speed>
      </trkpt>
      <trkpt lat="46.057065635" lon="7.197244208">
        <ele>1635.200000</ele>
        <time>2015-08-05T10:30:54Z</time>
        <speed>1.735000</speed>
      </trkpt>
      <trkpt lat="46.057122045" lon="7.197204813">
        <ele>1635.200000</ele>
        <time>2015-08-05T10:30:58Z</time>
        <speed>1.769000</speed>
      </trkpt>
      <trkpt lat="46.057168397" lon="7.197161814">
        <ele>1635.200000</ele>
        <time>2015-08-05T10:31:02Z</time>
        <speed>1.724000</speed>
      </trkpt>
      <trkpt lat="46.057192872" lon="7.197135495">
        <ele>1635.600000</ele>
        <time>2015-08-05T10:31:04Z</time>
        <speed>1.585000</speed>
      </trkpt>
      <trkpt lat="46.057205697" lon="7.197120742">
        <ele>1636.600000</ele>
        <time>2015-08-05T10:31:05Z</time>
        <speed>1.729000</speed>
      </trkpt>
      <trkpt lat="46.057218353" lon="7.197102638">
        <ele>1637.000000</ele>
        <time>2015-08-05T10:31:06Z</time>
        <speed>1.771000</speed>
      </trkpt>
      <trkpt lat="46.057228160" lon="7.197082689">
        <ele>1637.400000</ele>
        <time>2015-08-05T10:31:07Z</time>
        <speed>1.771000</speed>
      </trkpt>
      <trkpt lat="46.057245762" lon="7.197004486">
        <ele>1637.400000</ele>
        <time>2015-08-05T10:31:11Z</time>
        <speed>1.691000</speed>
      </trkpt>
      <trkpt lat="46.057265208" lon="7.196901137">
        <ele>1637.400000</ele>
        <time>2015-08-05T10:31:16Z</time>
        <speed>1.682000</speed>
      </trkpt>
      <trkpt lat="46.057268645" lon="7.196881774">
        <ele>1637.800000</ele>
        <time>2015-08-05T10:31:17Z</time>
        <speed>1.682000</speed>
      </trkpt>
      <trkpt lat="46.057270153" lon="7.196857299">
        <ele>1638.200000</ele>
        <time>2015-08-05T10:31:18Z</time>
        <speed>1.683000</speed>
      </trkpt>
      <trkpt lat="46.057270489" lon="7.196840787">
        <ele>1638.600000</ele>
        <time>2015-08-05T10:31:19Z</time>
        <speed>1.734000</speed>
      </trkpt>
      <trkpt lat="46.057273506" lon="7.196817569">
        <ele>1639.200000</ele>
        <time>2015-08-05T10:31:20Z</time>
        <speed>1.824000</speed>
      </trkpt>
      <trkpt lat="46.057274093" lon="7.196800470">
        <ele>1639.600000</ele>
        <time>2015-08-05T10:31:21Z</time>
        <speed>1.524000</speed>
      </trkpt>
      <trkpt lat="46.057272836" lon="7.196782533">
        <ele>1639.600000</ele>
        <time>2015-08-05T10:31:22Z</time>
        <speed>1.530000</speed>
      </trkpt>
      <trkpt lat="46.057281720" lon="7.196644399">
        <ele>1640.000000</ele>
        <time>2015-08-05T10:31:29Z</time>
        <speed>1.617000</speed>
      </trkpt>
      <trkpt lat="46.057285576" lon="7.196625540">
        <ele>1640.400000</ele>
        <time>2015-08-05T10:31:30Z</time>
        <speed>1.617000</speed>
      </trkpt>
      <trkpt lat="46.057288007" lon="7.196605339">
        <ele>1640.800000</ele>
        <time>2015-08-05T10:31:31Z</time>
        <speed>1.591000</speed>
      </trkpt>
      <trkpt lat="46.057290521" lon="7.196583127">
        <ele>1641.200000</ele>
        <time>2015-08-05T10:31:32Z</time>
        <speed>1.570000</speed>
      </trkpt>
      <trkpt lat="46.057295634" lon="7.196563849">
        <ele>1641.600000</ele>
        <time>2015-08-05T10:31:33Z</time>
        <speed>1.648000</speed>
      </trkpt>
      <trkpt lat="46.057303933" lon="7.196529818">
        <ele>1641.600000</ele>
        <time>2015-08-05T10:31:35Z</time>
        <speed>1.622000</speed>
      </trkpt>
      <trkpt lat="46.057305860" lon="7.196490926">
        <ele>1641.600000</ele>
        <time>2015-08-05T10:31:37Z</time>
        <speed>1.586000</speed>
      </trkpt>
      <trkpt lat="46.057330587" lon="7.196358408">
        <ele>1641.600000</ele>
        <time>2015-08-05T10:31:44Z</time>
        <speed>1.486000</speed>
      </trkpt>
      <trkpt lat="46.057333185" lon="7.196343992">
        <ele>1642.000000</ele>
        <time>2015-08-05T10:31:45Z</time>
        <speed>1.532000</speed>
      </trkpt>
      <trkpt lat="46.057339137" lon="7.196327647">
        <ele>1642.400000</ele>
        <time>2015-08-05T10:31:46Z</time>
        <speed>1.532000</speed>
      </trkpt>
      <trkpt lat="46.057343663" lon="7.196309123">
        <ele>1642.800000</ele>
        <time>2015-08-05T10:31:47Z</time>
        <speed>1.540000</speed>
      </trkpt>
      <trkpt lat="46.057350117" lon="7.196291437">
        <ele>1643.200000</ele>
        <time>2015-08-05T10:31:48Z</time>
        <speed>1.547000</speed>
      </trkpt>
      <trkpt lat="46.057355230" lon="7.196273164">
        <ele>1643.600000</ele>
        <time>2015-08-05T10:31:49Z</time>
        <speed>1.571000</speed>
      </trkpt>
      <trkpt lat="46.057369563" lon="7.196214826">
        <ele>1643.600000</ele>
        <time>2015-08-05T10:31:52Z</time>
        <speed>1.514000</speed>
      </trkpt>
      <trkpt lat="46.057406862" lon="7.196109298">
        <ele>1643.600000</ele>
        <time>2015-08-05T10:31:58Z</time>
        <speed>1.571000</speed>
      </trkpt>
      <trkpt lat="46.057417507" lon="7.196092032">
        <ele>1643.600000</ele>
        <time>2015-08-05T10:31:59Z</time>
        <speed>1.597000</speed>
      </trkpt>
      <trkpt lat="46.057424548" lon="7.196075771">
        <ele>1644.000000</ele>
        <time>2015-08-05T10:32:00Z</time>
        <speed>1.596000</speed>
      </trkpt>
      <trkpt lat="46.057432846" lon="7.196062192">
        <ele>1644.400000</ele>
        <time>2015-08-05T10:32:01Z</time>
        <speed>1.593000</speed>
      </trkpt>
      <trkpt lat="46.057439552" lon="7.196044674">
        <ele>1644.800000</ele>
        <time>2015-08-05T10:32:02Z</time>
        <speed>1.593000</speed>
      </trkpt>
      <trkpt lat="46.057448101" lon="7.196031766">
        <ele>1645.400000</ele>
        <time>2015-08-05T10:32:03Z</time>
        <speed>1.539000</speed>
      </trkpt>
      <trkpt lat="46.057457573" lon="7.196016175">
        <ele>1645.800000</ele>
        <time>2015-08-05T10:32:04Z</time>
        <speed>1.551000</speed>
      </trkpt>
      <trkpt lat="46.057470649" lon="7.196004692">
        <ele>1645.800000</ele>
        <time>2015-08-05T10:32:05Z</time>
        <speed>1.544000</speed>
      </trkpt>
      <trkpt lat="46.057550360" lon="7.195932859">
        <ele>1645.800000</ele>
        <time>2015-08-05T10:32:12Z</time>
        <speed>1.827000</speed>
      </trkpt>
      <trkpt lat="46.057584726" lon="7.195904109">
        <ele>1646.200000</ele>
        <time>2015-08-05T10:32:15Z</time>
        <speed>1.820000</speed>
      </trkpt>
      <trkpt lat="46.057602328" lon="7.195897823">
        <ele>1646.600000</ele>
        <time>2015-08-05T10:32:16Z</time>
        <speed>1.811000</speed>
      </trkpt>
      <trkpt lat="46.057619427" lon="7.195894554">
        <ele>1647.400000</ele>
        <time>2015-08-05T10:32:17Z</time>
        <speed>1.784000</speed>
      </trkpt>
      <trkpt lat="46.057633174" lon="7.195891788">
        <ele>1647.800000</ele>
        <time>2015-08-05T10:32:18Z</time>
        <speed>1.799000</speed>
      </trkpt>
      <trkpt lat="46.057713724" lon="7.195889609">
        <ele>1647.800000</ele>
        <time>2015-08-05T10:32:24Z</time>
        <speed>1.873000</speed>
      </trkpt>
      <trkpt lat="46.057782204" lon="7.195910731">
        <ele>1648.200000</ele>
        <time>2015-08-05T10:32:29Z</time>
        <speed>1.605000</speed>
      </trkpt>
      <trkpt lat="46.057800728" lon="7.195913497">
        <ele>1648.600000</ele>
        <time>2015-08-05T10:32:30Z</time>
        <speed>1.605000</speed>
      </trkpt>
      <trkpt lat="46.057815564" lon="7.195920370">
        <ele>1649.000000</ele>
        <time>2015-08-05T10:32:31Z</time>
        <speed>1.571000</speed>
      </trkpt>
      <trkpt lat="46.057831154" lon="7.195926070">
        <ele>1649.400000</ele>
        <time>2015-08-05T10:32:32Z</time>
        <speed>1.596000</speed>
      </trkpt>
      <trkpt lat="46.057837944" lon="7.195936212">
        <ele>1649.800000</ele>
        <time>2015-08-05T10:32:33Z</time>
        <speed>1.619000</speed>
      </trkpt>
      <trkpt lat="46.057858395" lon="7.195950713">
        <ele>1649.800000</ele>
        <time>2015-08-05T10:32:35Z</time>
        <speed>1.568000</speed>
      </trkpt>
      <trkpt lat="46.057905334" lon="7.195968985">
        <ele>1649.800000</ele>
        <time>2015-08-05T10:32:38Z</time>
        <speed>1.632000</speed>
      </trkpt>
      <trkpt lat="46.057935760" lon="7.195977032">
        <ele>1650.200000</ele>
        <time>2015-08-05T10:32:41Z</time>
        <speed>1.589000</speed>
      </trkpt>
      <trkpt lat="46.057947411" lon="7.195983570">
        <ele>1651.200000</ele>
        <time>2015-08-05T10:32:42Z</time>
        <speed>1.585000</speed>
      </trkpt>
      <trkpt lat="46.057956380" lon="7.195986336">
        <ele>1651.600000</ele>
        <time>2015-08-05T10:32:43Z</time>
        <speed>1.585000</speed>
      </trkpt>
      <trkpt lat="46.057962834" lon="7.195986839">
        <ele>1652.000000</ele>
        <time>2015-08-05T10:32:44Z</time>
        <speed>1.561000</speed>
      </trkpt>
      <trkpt lat="46.057978508" lon="7.195987593">
        <ele>1652.000000</ele>
        <time>2015-08-05T10:32:46Z</time>
        <speed>1.545000</speed>
      </trkpt>
      <trkpt lat="46.057996278" lon="7.195993712">
        <ele>1652.000000</ele>
        <time>2015-08-05T10:32:48Z</time>
        <speed>1.516000</speed>
      </trkpt>
      <trkpt lat="46.058055538" lon="7.195997819">
        <ele>1652.000000</ele>
        <time>2015-08-05T10:32:52Z</time>
        <speed>1.636000</speed>
      </trkpt>
      <trkpt lat="46.058064423" lon="7.195997903">
        <ele>1652.400000</ele>
        <time>2015-08-05T10:32:53Z</time>
        <speed>1.683000</speed>
      </trkpt>
      <trkpt lat="46.058075151" lon="7.196000250">
        <ele>1652.800000</ele>
        <time>2015-08-05T10:32:54Z</time>
        <speed>1.769000</speed>
      </trkpt>
      <trkpt lat="46.058083869" lon="7.196003435">
        <ele>1653.200000</ele>
        <time>2015-08-05T10:32:55Z</time>
        <speed>1.709000</speed>
      </trkpt>
      <trkpt lat="46.058091999" lon="7.196014080">
        <ele>1653.600000</ele>
        <time>2015-08-05T10:32:56Z</time>
        <speed>1.709000</speed>
      </trkpt>
      <trkpt lat="46.058101890" lon="7.196029000">
        <ele>1654.000000</ele>
        <time>2015-08-05T10:32:57Z</time>
        <speed>1.675000</speed>
      </trkpt>
      <trkpt lat="46.058151678" lon="7.196038052">
        <ele>1654.000000</ele>
        <time>2015-08-05T10:33:00Z</time>
        <speed>1.678000</speed>
      </trkpt>
      <trkpt lat="46.058236503" lon="7.196063449">
        <ele>1654.400000</ele>
        <time>2015-08-05T10:33:05Z</time>
        <speed>1.545000</speed>
      </trkpt>
      <trkpt lat="46.058259721" lon="7.196059594">
        <ele>1655.000000</ele>
        <time>2015-08-05T10:33:06Z</time>
        <speed>1.563000</speed>
      </trkpt>
      <trkpt lat="46.058275898" lon="7.196069484">
        <ele>1655.800000</ele>
        <time>2015-08-05T10:33:07Z</time>
        <speed>1.679000</speed>
      </trkpt>
      <trkpt lat="46.058295176" lon="7.196076776">
        <ele>1656.200000</ele>
        <time>2015-08-05T10:33:08Z</time>
        <speed>1.886000</speed>
      </trkpt>
      <trkpt lat="46.058305151" lon="7.196075100">
        <ele>1656.200000</ele>
        <time>2015-08-05T10:33:09Z</time>
        <speed>1.735000</speed>
      </trkpt>
      <trkpt lat="46.058311018" lon="7.196080884">
        <ele>1656.200000</ele>
        <time>2015-08-05T10:33:10Z</time>
        <speed>1.735000</speed>
      </trkpt>
      <trkpt lat="46.058320657" lon="7.196073843">
        <ele>1656.200000</ele>
        <time>2015-08-05T10:33:12Z</time>
        <speed>1.817000</speed>
      </trkpt>
      <trkpt lat="46.058384108" lon="7.196100246">
        <ele>1656.600000</ele>
        <time>2015-08-05T10:33:17Z</time>
        <speed>1.570000</speed>
      </trkpt>
      <trkpt lat="46.058405398" lon="7.196102257">
        <ele>1657.000000</ele>
        <time>2015-08-05T10:33:18Z</time>
        <speed>1.610000</speed>
      </trkpt>
      <trkpt lat="46.058423671" lon="7.196108544">
        <ele>1657.400000</ele>
        <time>2015-08-05T10:33:19Z</time>
        <speed>1.610000</speed>
      </trkpt>
      <trkpt lat="46.058444961" lon="7.196114244">
        <ele>1657.800000</ele>
        <time>2015-08-05T10:33:20Z</time>
        <speed>1.679000</speed>
      </trkpt>
      <trkpt lat="46.058465748" lon="7.196120362">
        <ele>1658.200000</ele>
        <time>2015-08-05T10:33:21Z</time>
        <speed>1.691000</speed>
      </trkpt>
      <trkpt lat="46.058538419" lon="7.196149280">
        <ele>1658.200000</ele>
        <time>2015-08-05T10:33:27Z</time>
        <speed>1.604000</speed>
      </trkpt>
      <trkpt lat="46.058613773" lon="7.196167469">
        <ele>1658.200000</ele>
        <time>2015-08-05T10:33:32Z</time>
        <speed>1.663000</speed>
      </trkpt>
      <trkpt lat="46.058639589" lon="7.196182388">
        <ele>1658.800000</ele>
        <time>2015-08-05T10:33:34Z</time>
        <speed>1.694000</speed>
      </trkpt>
      <trkpt lat="46.058645121" lon="7.196185238">
        <ele>1659.200000</ele>
        <time>2015-08-05T10:33:35Z</time>
        <speed>1.769000</speed>
      </trkpt>
      <trkpt lat="46.058647384" lon="7.196193536">
        <ele>1659.600000</ele>
        <time>2015-08-05T10:33:36Z</time>
        <speed>1.647000</speed>
      </trkpt>
      <trkpt lat="46.058657694" lon="7.196199990">
        <ele>1660.000000</ele>
        <time>2015-08-05T10:33:37Z</time>
        <speed>1.678000</speed>
      </trkpt>
      <trkpt lat="46.058662220" lon="7.196202086">
        <ele>1660.600000</ele>
        <time>2015-08-05T10:33:38Z</time>
        <speed>1.678000</speed>
      </trkpt>
      <trkpt lat="46.058749308" lon="7.196214575">
        <ele>1660.600000</ele>
        <time>2015-08-05T10:33:43Z</time>
        <speed>1.735000</speed>
      </trkpt>
      <trkpt lat="46.058807227" lon="7.196242235">
        <ele>1661.000000</ele>
        <time>2015-08-05T10:33:46Z</time>
        <speed>1.646000</speed>
      </trkpt>
      <trkpt lat="46.058815693" lon="7.196238547">
        <ele>1661.400000</ele>
        <time>2015-08-05T10:33:47Z</time>
        <speed>1.646000</speed>
      </trkpt>
      <trkpt lat="46.058828265" lon="7.196241481">
        <ele>1661.800000</ele>
        <time>2015-08-05T10:33:48Z</time>
        <speed>1.679000</speed>
      </trkpt>
      <trkpt lat="46.058843353" lon="7.196243241">
        <ele>1662.200000</ele>
        <time>2015-08-05T10:33:49Z</time>
        <speed>1.734000</speed>
      </trkpt>
      <trkpt lat="46.058857686" lon="7.196246342">
        <ele>1662.600000</ele>
        <time>2015-08-05T10:33:50Z</time>
        <speed>1.754000</speed>
      </trkpt>
      <trkpt lat="46.058869001" lon="7.196243828">
        <ele>1662.600000</ele>
        <time>2015-08-05T10:33:51Z</time>
        <speed>1.723000</speed>
      </trkpt>
      <trkpt lat="46.058905966" lon="7.196257909">
        <ele>1662.600000</ele>
        <time>2015-08-05T10:33:54Z</time>
        <speed>1.790000</speed>
      </trkpt>
      <trkpt lat="46.059002190" lon="7.196286324">
        <ele>1662.600000</ele>
        <time>2015-08-05T10:34:00Z</time>
        <speed>1.738000</speed>
      </trkpt>
      <trkpt lat="46.059027839" lon="7.196282385">
        <ele>1663.000000</ele>
        <time>2015-08-05T10:34:01Z</time>
        <speed>1.738000</speed>
      </trkpt>
      <trkpt lat="46.059043429" lon="7.196281379">
        <ele>1663.400000</ele>
        <time>2015-08-05T10:34:02Z</time>
        <speed>1.758000</speed>
      </trkpt>
      <trkpt lat="46.059058432" lon="7.196270985">
        <ele>1663.800000</ele>
        <time>2015-08-05T10:34:03Z</time>
        <speed>1.833000</speed>
      </trkpt>
      <trkpt lat="46.059071424" lon="7.196259167">
        <ele>1664.200000</ele>
        <time>2015-08-05T10:34:04Z</time>
        <speed>1.889000</speed>
      </trkpt>
      <trkpt lat="46.059088524" lon="7.196244750">
        <ele>1664.600000</ele>
        <time>2015-08-05T10:34:05Z</time>
        <speed>2.054000</speed>
      </trkpt>
      <trkpt lat="46.059105958" lon="7.196211222">
        <ele>1664.600000</ele>
        <time>2015-08-05T10:34:07Z</time>
        <speed>2.238000</speed>
      </trkpt>
      <trkpt lat="46.059101935" lon="7.196190770">
        <ele>1664.600000</ele>
        <time>2015-08-05T10:34:08Z</time>
        <speed>2.188000</speed>
      </trkpt>
      <trkpt lat="46.059061785" lon="7.196183394">
        <ele>1664.600000</ele>
        <time>2015-08-05T10:34:12Z</time>
        <speed>2.159000</speed>
      </trkpt>
      <trkpt lat="46.059047117" lon="7.196185490">
        <ele>1664.600000</ele>
        <time>2015-08-05T10:34:13Z</time>
        <speed>2.129000</speed>
      </trkpt>
      <trkpt lat="46.059007554" lon="7.196186160">
        <ele>1664.600000</ele>
        <time>2015-08-05T10:34:16Z</time>
        <speed>2.172000</speed>
      </trkpt>
      <trkpt lat="46.058964555" lon="7.196193872">
        <ele>1664.600000</ele>
        <time>2015-08-05T10:34:19Z</time>
        <speed>1.967000</speed>
      </trkpt>
      <trkpt lat="46.058959694" lon="7.196197057">
        <ele>1665.000000</ele>
        <time>2015-08-05T10:34:21Z</time>
        <speed>1.635000</speed>
      </trkpt>
      <trkpt lat="46.058953826" lon="7.196199236">
        <ele>1665.800000</ele>
        <time>2015-08-05T10:34:22Z</time>
        <speed>1.253000</speed>
      </trkpt>
      <trkpt lat="46.058959777" lon="7.196202924">
        <ele>1666.200000</ele>
        <time>2015-08-05T10:34:23Z</time>
        <speed>1.253000</speed>
      </trkpt>
      <trkpt lat="46.058960280" lon="7.196202673">
        <ele>1666.600000</ele>
        <time>2015-08-05T10:34:24Z</time>
        <speed>0.000000</speed>
      </trkpt>
      <trkpt lat="46.058960280" lon="7.196202673">
        <ele>1666.600000</ele>
        <time>2015-08-05T10:34:28Z</time>
        <speed>0.000000</speed>
      </trkpt>
      <trkpt lat="46.058960280" lon="7.196202673">
        <ele>1666.600000</ele>
        <time>2015-08-05T10:34:33Z</time>
        <speed>0.000000</speed>
      </trkpt>
      <trkpt lat="46.058957933" lon="7.196194039">
        <ele>1666.600000</ele>
        <time>2015-08-05T10:34:38Z</time>
        <speed>0.000000</speed>
      </trkpt>
      <trkpt lat="46.058942930" lon="7.196165038">
        <ele>1666.600000</ele>
        <time>2015-08-05T10:34:40Z</time>
        <speed>1.105000</speed>
      </trkpt>
      <trkpt lat="46.058892471" lon="7.196128660">
        <ele>1666.600000</ele>
        <time>2015-08-05T10:34:44Z</time>
        <speed>1.572000</speed>
      </trkpt>
      <trkpt lat="46.058854417" lon="7.196074178">
        <ele>1666.600000</ele>
        <time>2015-08-05T10:34:49Z</time>
        <speed>6.257000</speed>
      </trkpt>
      <trkpt lat="46.058836144" lon="7.196057247">
        <ele>1667.000000</ele>
        <time>2015-08-05T10:34:51Z</time>
        <speed>1.916000</speed>
      </trkpt>
      <trkpt lat="46.058825248" lon="7.196051715">
        <ele>1667.400000</ele>
        <time>2015-08-05T10:34:52Z</time>
        <speed>1.916000</speed>
      </trkpt>
      <trkpt lat="46.058811083" lon="7.196037633">
        <ele>1667.800000</ele>
        <time>2015-08-05T10:34:53Z</time>
        <speed>1.523000</speed>
      </trkpt>
      <trkpt lat="46.058799767" lon="7.196025814">
        <ele>1668.200000</ele>
        <time>2015-08-05T10:34:54Z</time>
        <speed>1.523000</speed>
      </trkpt>
      <trkpt lat="46.058785937" lon="7.196016091">
        <ele>1668.600000</ele>
        <time>2015-08-05T10:34:55Z</time>
        <speed>1.560000</speed>
      </trkpt>
      <trkpt lat="46.058701363" lon="7.195949791">
        <ele>1668.600000</ele>
        <time>2015-08-05T10:35:01Z</time>
        <speed>1.567000</speed>
      </trkpt>
      <trkpt lat="46.058682001" lon="7.195930764">
        <ele>1668.600000</ele>
        <time>2015-08-05T10:35:03Z</time>
        <speed>1.625000</speed>
      </trkpt>
      <trkpt lat="46.058671775" lon="7.195924729">
        <ele>1669.200000</ele>
        <time>2015-08-05T10:35:04Z</time>
        <speed>1.530000</speed>
      </trkpt>
      <trkpt lat="46.058665489" lon="7.195914503">
        <ele>1669.600000</ele>
        <time>2015-08-05T10:35:05Z</time>
        <speed>1.530000</speed>
      </trkpt>
      <trkpt lat="46.058660124" lon="7.195906205">
        <ele>1670.000000</ele>
        <time>2015-08-05T10:35:06Z</time>
        <speed>1.633000</speed>
      </trkpt>
      <trkpt lat="46.058643864" lon="7.195889273">
        <ele>1670.400000</ele>
        <time>2015-08-05T10:35:07Z</time>
        <speed>6.707000</speed>
      </trkpt>
      <trkpt lat="46.058639589" lon="7.195888351">
        <ele>1670.800000</ele>
        <time>2015-08-05T10:35:08Z</time>
        <speed>0.000000</speed>
      </trkpt>
      <trkpt lat="46.058588459" lon="7.195840323">
        <ele>1670.800000</ele>
        <time>2015-08-05T10:35:11Z</time>
        <speed>1.579000</speed>
      </trkpt>
      <trkpt lat="46.058564822" lon="7.195816937">
        <ele>1670.800000</ele>
        <time>2015-08-05T10:35:13Z</time>
        <speed>1.622000</speed>
      </trkpt>
      <trkpt lat="46.058527523" lon="7.195781901">
        <ele>1670.800000</ele>
        <time>2015-08-05T10:35:16Z</time>
        <speed>1.724000</speed>
      </trkpt>
      <trkpt lat="46.058506484" lon="7.195749715">
        <ele>1671.400000</ele>
        <time>2015-08-05T10:35:18Z</time>
        <speed>1.752000</speed>
      </trkpt>
      <trkpt lat="46.058496174" lon="7.195736304">
        <ele>1671.800000</ele>
        <time>2015-08-05T10:35:19Z</time>
        <speed>1.725000</speed>
      </trkpt>
      <trkpt lat="46.058480081" lon="7.195718031">
        <ele>1672.200000</ele>
        <time>2015-08-05T10:35:20Z</time>
        <speed>1.725000</speed>
      </trkpt>
      <trkpt lat="46.058470861" lon="7.195697831">
        <ele>1672.600000</ele>
        <time>2015-08-05T10:35:21Z</time>
        <speed>1.742000</speed>
      </trkpt>
      <trkpt lat="46.058462647" lon="7.195686431">
        <ele>1673.000000</ele>
        <time>2015-08-05T10:35:22Z</time>
        <speed>1.772000</speed>
      </trkpt>
      <trkpt lat="46.058434400" lon="7.195648294">
        <ele>1673.000000</ele>
        <time>2015-08-05T10:35:25Z</time>
        <speed>1.734000</speed>
      </trkpt>
      <trkpt lat="46.058361477" lon="7.195582999">
        <ele>1673.000000</ele>
        <time>2015-08-05T10:35:30Z</time>
        <speed>1.691000</speed>
      </trkpt>
      <trkpt lat="46.058336415" lon="7.195553913">
        <ele>1673.400000</ele>
        <time>2015-08-05T10:35:32Z</time>
        <speed>1.697000</speed>
      </trkpt>
      <trkpt lat="46.058331554" lon="7.195543604">
        <ele>1673.800000</ele>
        <time>2015-08-05T10:35:33Z</time>
        <speed>1.792000</speed>
      </trkpt>
      <trkpt lat="46.058325603" lon="7.195530695">
        <ele>1674.400000</ele>
        <time>2015-08-05T10:35:34Z</time>
        <speed>1.745000</speed>
      </trkpt>
      <trkpt lat="46.058317640" lon="7.195520721">
        <ele>1675.200000</ele>
        <time>2015-08-05T10:35:35Z</time>
        <speed>1.739000</speed>
      </trkpt>
      <trkpt lat="46.058307246" lon="7.195506136">
        <ele>1675.200000</ele>
        <time>2015-08-05T10:35:36Z</time>
        <speed>1.707000</speed>
      </trkpt>
      <trkpt lat="46.058241700" lon="7.195406140">
        <ele>1675.200000</ele>
        <time>2015-08-05T10:35:42Z</time>
        <speed>1.744000</speed>
      </trkpt>
      <trkpt lat="46.058228037" lon="7.195369092">
        <ele>1675.600000</ele>
        <time>2015-08-05T10:35:44Z</time>
        <speed>1.742000</speed>
      </trkpt>
      <trkpt lat="46.058219069" lon="7.195357861">
        <ele>1676.000000</ele>
        <time>2015-08-05T10:35:45Z</time>
        <speed>1.734000</speed>
      </trkpt>
      <trkpt lat="46.058213956" lon="7.195350904">
        <ele>1676.400000</ele>
        <time>2015-08-05T10:35:46Z</time>
        <speed>1.789000</speed>
      </trkpt>
      <trkpt lat="46.058205071" lon="7.195342438">
        <ele>1676.800000</ele>
        <time>2015-08-05T10:35:47Z</time>
        <speed>1.716000</speed>
      </trkpt>
      <trkpt lat="46.058197192" lon="7.195328440">
        <ele>1677.200000</ele>
        <time>2015-08-05T10:35:48Z</time>
        <speed>1.751000</speed>
      </trkpt>
      <trkpt lat="46.058184535" lon="7.195307904">
        <ele>1677.200000</ele>
        <time>2015-08-05T10:35:49Z</time>
        <speed>1.729000</speed>
      </trkpt>
      <trkpt lat="46.058137680" lon="7.195240430">
        <ele>1677.200000</ele>
        <time>2015-08-05T10:35:53Z</time>
        <speed>1.765000</speed>
      </trkpt>
      <trkpt lat="46.058127706" lon="7.195225427">
        <ele>1677.200000</ele>
        <time>2015-08-05T10:35:54Z</time>
        <speed>1.805000</speed>
      </trkpt>
      <trkpt lat="46.058088060" lon="7.195164742">
        <ele>1677.600000</ele>
        <time>2015-08-05T10:35:58Z</time>
        <speed>1.731000</speed>
      </trkpt>
      <trkpt lat="46.058072218" lon="7.195145463">
        <ele>1678.600000</ele>
        <time>2015-08-05T10:35:59Z</time>
        <speed>1.694000</speed>
      </trkpt>
      <trkpt lat="46.058055035" lon="7.195131549">
        <ele>1679.000000</ele>
        <time>2015-08-05T10:36:00Z</time>
        <speed>1.746000</speed>
      </trkpt>
      <trkpt lat="46.058047072" lon="7.195117803">
        <ele>1679.400000</ele>
        <time>2015-08-05T10:36:01Z</time>
        <speed>1.746000</speed>
      </trkpt>
      <trkpt lat="46.058001558" lon="7.195050161">
        <ele>1679.400000</ele>
        <time>2015-08-05T10:36:06Z</time>
        <speed>1.746000</speed>
      </trkpt>
      <trkpt lat="46.057994266" lon="7.195048149">
        <ele>1679.400000</ele>
        <time>2015-08-05T10:36:07Z</time>
        <speed>1.746000</speed>
      </trkpt>
      <trkpt lat="46.057961325" lon="7.195035409">
        <ele>1679.800000</ele>
        <time>2015-08-05T10:36:10Z</time>
        <speed>1.702000</speed>
      </trkpt>
      <trkpt lat="46.057957721" lon="7.195029877">
        <ele>1680.200000</ele>
        <time>2015-08-05T10:36:11Z</time>
        <speed>0.000000</speed>
      </trkpt>
      <trkpt lat="46.057946741" lon="7.195018142">
        <ele>1680.600000</ele>
        <time>2015-08-05T10:36:12Z</time>
        <speed>0.000000</speed>
      </trkpt>
      <trkpt lat="46.057933497" lon="7.194995762">
        <ele>1681.000000</ele>
        <time>2015-08-05T10:36:13Z</time>
        <speed>0.000000</speed>
      </trkpt>
      <trkpt lat="46.057914470" lon="7.194973215">
        <ele>1681.400000</ele>
        <time>2015-08-05T10:36:14Z</time>
        <speed>1.536000</speed>
      </trkpt>
      <trkpt lat="46.057879853" lon="7.194915128">
        <ele>1682.000000</ele>
        <time>2015-08-05T10:36:17Z</time>
        <speed>1.549000</speed>
      </trkpt>
      <trkpt lat="46.057863592" lon="7.194904232">
        <ele>1682.400000</ele>
        <time>2015-08-05T10:36:18Z</time>
        <speed>1.502000</speed>
      </trkpt>
      <trkpt lat="46.057852193" lon="7.194905992">
        <ele>1683.000000</ele>
        <time>2015-08-05T10:36:19Z</time>
        <speed>1.502000</speed>
      </trkpt>
      <trkpt lat="46.057840961" lon="7.194903981">
        <ele>1683.400000</ele>
        <time>2015-08-05T10:36:20Z</time>
        <speed>1.483000</speed>
      </trkpt>
      <trkpt lat="46.057831741" lon="7.194899287">
        <ele>1684.000000</ele>
        <time>2015-08-05T10:36:21Z</time>
        <speed>1.495000</speed>
      </trkpt>
      <trkpt lat="46.057803242" lon="7.194842457">
        <ele>1684.000000</ele>
        <time>2015-08-05T10:36:26Z</time>
        <speed>1.637000</speed>
      </trkpt>
      <trkpt lat="46.057758483" lon="7.194785963">
        <ele>1684.000000</ele>
        <time>2015-08-05T10:36:31Z</time>
        <speed>1.564000</speed>
      </trkpt>
      <trkpt lat="46.057739540" lon="7.194770289">
        <ele>1684.000000</ele>
        <time>2015-08-05T10:36:33Z</time>
        <speed>1.552000</speed>
      </trkpt>
      <trkpt lat="46.057719256" lon="7.194740533">
        <ele>1684.000000</ele>
        <time>2015-08-05T10:36:35Z</time>
        <speed>1.553000</speed>
      </trkpt>
      <trkpt lat="46.057702408" lon="7.194718238">
        <ele>1684.000000</ele>
        <time>2015-08-05T10:36:37Z</time>
        <speed>1.554000</speed>
      </trkpt>
      <trkpt lat="46.057686985" lon="7.194687727">
        <ele>1684.400000</ele>
        <time>2015-08-05T10:36:41Z</time>
        <speed>1.485000</speed>
      </trkpt>
      <trkpt lat="46.057672569" lon="7.194686303">
        <ele>1684.800000</ele>
        <time>2015-08-05T10:36:42Z</time>
        <speed>1.556000</speed>
      </trkpt>
      <trkpt lat="46.057662091" lon="7.194684878">
        <ele>1685.200000</ele>
        <time>2015-08-05T10:36:43Z</time>
        <speed>1.556000</speed>
      </trkpt>
      <trkpt lat="46.057662007" lon="7.194685883">
        <ele>1685.600000</ele>
        <time>2015-08-05T10:36:44Z</time>
        <speed>1.499000</speed>
      </trkpt>
      <trkpt lat="46.057663097" lon="7.194685213">
        <ele>1686.200000</ele>
        <time>2015-08-05T10:36:45Z</time>
        <speed>1.520000</speed>
      </trkpt>
      <trkpt lat="46.057660499" lon="7.194685213">
        <ele>1686.200000</ele>
        <time>2015-08-05T10:36:47Z</time>
        <speed>1.527000</speed>
      </trkpt>
      <trkpt lat="46.057642394" lon="7.194688817">
        <ele>1686.200000</ele>
        <time>2015-08-05T10:36:48Z</time>
        <speed>1.515000</speed>
      </trkpt>
      <trkpt lat="46.057545667" lon="7.194704743">
        <ele>1686.200000</ele>
        <time>2015-08-05T10:36:53Z</time>
        <speed>1.627000</speed>
      </trkpt>
      <trkpt lat="46.057511971" lon="7.194723015">
        <ele>1686.200000</ele>
        <time>2015-08-05T10:36:55Z</time>
        <speed>1.599000</speed>
      </trkpt>
      <trkpt lat="46.057469559" lon="7.194732822">
        <ele>1686.600000</ele>
        <time>2015-08-05T10:36:58Z</time>
        <speed>1.690000</speed>
      </trkpt>
      <trkpt lat="46.057458243" lon="7.194741539">
        <ele>1687.000000</ele>
        <time>2015-08-05T10:36:59Z</time>
        <speed>1.690000</speed>
      </trkpt>
      <trkpt lat="46.057445754" lon="7.194748161">
        <ele>1687.400000</ele>
        <time>2015-08-05T10:37:00Z</time>
        <speed>1.632000</speed>
      </trkpt>
      <trkpt lat="46.057427482" lon="7.194753944">
        <ele>1687.800000</ele>
        <time>2015-08-05T10:37:01Z</time>
        <speed>1.674000</speed>
      </trkpt>
      <trkpt lat="46.057408706" lon="7.194757381">
        <ele>1688.200000</ele>
        <time>2015-08-05T10:37:02Z</time>
        <speed>1.665000</speed>
      </trkpt>
      <trkpt lat="46.057369563" lon="7.194769451">
        <ele>1688.200000</ele>
        <time>2015-08-05T10:37:04Z</time>
        <speed>1.697000</speed>
      </trkpt>
      <trkpt lat="46.057224556" lon="7.194795854">
        <ele>1688.200000</ele>
        <time>2015-08-05T10:37:11Z</time>
        <speed>1.637000</speed>
      </trkpt>
      <trkpt lat="46.057150879" lon="7.194838015">
        <ele>1688.200000</ele>
        <time>2015-08-05T10:37:15Z</time>
        <speed>1.637000</speed>
      </trkpt>
      <trkpt lat="46.057131936" lon="7.194843379">
        <ele>1688.600000</ele>
        <time>2015-08-05T10:37:16Z</time>
        <speed>1.713000</speed>
      </trkpt>
      <trkpt lat="46.057112406" lon="7.194853438">
        <ele>1689.000000</ele>
        <time>2015-08-05T10:37:17Z</time>
        <speed>1.687000</speed>
      </trkpt>
      <trkpt lat="46.057091367" lon="7.194857712">
        <ele>1689.400000</ele>
        <time>2015-08-05T10:37:18Z</time>
        <speed>1.687000</speed>
      </trkpt>
      <trkpt lat="46.057071754" lon="7.194857880">
        <ele>1689.800000</ele>
        <time>2015-08-05T10:37:19Z</time>
        <speed>1.624000</speed>
      </trkpt>
      <trkpt lat="46.057055912" lon="7.194859724">
        <ele>1690.400000</ele>
        <time>2015-08-05T10:37:20Z</time>
        <speed>1.617000</speed>
      </trkpt>
      <trkpt lat="46.057042585" lon="7.194859305">
        <ele>1690.400000</ele>
        <time>2015-08-05T10:37:21Z</time>
        <speed>1.666000</speed>
      </trkpt>
      <trkpt lat="46.057006040" lon="7.194852348">
        <ele>1690.400000</ele>
        <time>2015-08-05T10:37:24Z</time>
        <speed>1.775000</speed>
      </trkpt>
      <trkpt lat="46.056946780" lon="7.194827370">
        <ele>1690.800000</ele>
        <time>2015-08-05T10:37:28Z</time>
        <speed>1.717000</speed>
      </trkpt>
      <trkpt lat="46.056931608" lon="7.194823095">
        <ele>1691.200000</ele>
        <time>2015-08-05T10:37:29Z</time>
        <speed>1.765000</speed>
      </trkpt>
      <trkpt lat="46.056915180" lon="7.194814546">
        <ele>1691.600000</ele>
        <time>2015-08-05T10:37:30Z</time>
        <speed>1.765000</speed>
      </trkpt>
      <trkpt lat="46.056902691" lon="7.194804739">
        <ele>1692.000000</ele>
        <time>2015-08-05T10:37:31Z</time>
        <speed>1.648000</speed>
      </trkpt>
      <trkpt lat="46.056887855" lon="7.194792082">
        <ele>1692.400000</ele>
        <time>2015-08-05T10:37:32Z</time>
        <speed>1.650000</speed>
      </trkpt>
      <trkpt lat="46.056850807" lon="7.194766182">
        <ele>1692.400000</ele>
        <time>2015-08-05T10:37:35Z</time>
        <speed>1.663000</speed>
      </trkpt>
      <trkpt lat="46.056838318" lon="7.194755118">
        <ele>1692.400000</ele>
        <time>2015-08-05T10:37:36Z</time>
        <speed>1.601000</speed>
      </trkpt>
      <trkpt lat="46.056739244" lon="7.194689069">
        <ele>1692.400000</ele>
        <time>2015-08-05T10:37:43Z</time>
        <speed>1.619000</speed>
      </trkpt>
      <trkpt lat="46.056722564" lon="7.194684291">
        <ele>1692.800000</ele>
        <time>2015-08-05T10:37:44Z</time>
        <speed>1.691000</speed>
      </trkpt>
      <trkpt lat="46.056709823" lon="7.194681273">
        <ele>1693.200000</ele>
        <time>2015-08-05T10:37:45Z</time>
        <speed>1.665000</speed>
      </trkpt>
      <trkpt lat="46.056694568" lon="7.194677502">
        <ele>1693.600000</ele>
        <time>2015-08-05T10:37:46Z</time>
        <speed>1.681000</speed>
      </trkpt>
      <trkpt lat="46.056678475" lon="7.194671467">
        <ele>1694.000000</ele>
        <time>2015-08-05T10:37:47Z</time>
        <speed>1.673000</speed>
      </trkpt>
      <trkpt lat="46.056665232" lon="7.194670042">
        <ele>1694.600000</ele>
        <time>2015-08-05T10:37:48Z</time>
        <speed>1.673000</speed>
      </trkpt>
      <trkpt lat="46.056631955" lon="7.194655792">
        <ele>1694.600000</ele>
        <time>2015-08-05T10:37:50Z</time>
        <speed>1.674000</speed>
      </trkpt>
      <trkpt lat="46.056494157" lon="7.194597119">
        <ele>1694.600000</ele>
        <time>2015-08-05T10:37:59Z</time>
        <speed>1.827000</speed>
      </trkpt>
      <trkpt lat="46.056454930" lon="7.194583373">
        <ele>1695.000000</ele>
        <time>2015-08-05T10:38:01Z</time>
        <speed>1.850000</speed>
      </trkpt>
      <trkpt lat="46.056439926" lon="7.194567447">
        <ele>1695.400000</ele>
        <time>2015-08-05T10:38:02Z</time>
        <speed>1.850000</speed>
      </trkpt>
      <trkpt lat="46.056422072" lon="7.194557473">
        <ele>1695.800000</ele>
        <time>2015-08-05T10:38:03Z</time>
        <speed>1.870000</speed>
      </trkpt>
      <trkpt lat="46.056403716" lon="7.194552276">
        <ele>1696.200000</ele>
        <time>2015-08-05T10:38:04Z</time>
        <speed>1.870000</speed>
      </trkpt>
      <trkpt lat="46.056388293" lon="7.194544481">
        <ele>1696.600000</ele>
        <time>2015-08-05T10:38:05Z</time>
        <speed>1.789000</speed>
      </trkpt>
      <trkpt lat="46.056333811" lon="7.194508019">
        <ele>1696.600000</ele>
        <time>2015-08-05T10:38:09Z</time>
        <speed>1.941000</speed>
      </trkpt>
      <trkpt lat="46.056277652" lon="7.194459991">
        <ele>1696.600000</ele>
        <time>2015-08-05T10:38:13Z</time>
        <speed>1.849000</speed>
      </trkpt>
      <trkpt lat="46.056191654" lon="7.194432499">
        <ele>1697.000000</ele>
        <time>2015-08-05T10:38:18Z</time>
        <speed>2.031000</speed>
      </trkpt>
      <trkpt lat="46.056173130" lon="7.194429984">
        <ele>1697.400000</ele>
        <time>2015-08-05T10:38:19Z</time>
        <speed>1.896000</speed>
      </trkpt>
      <trkpt lat="46.056157540" lon="7.194433253">
        <ele>1697.800000</ele>
        <time>2015-08-05T10:38:20Z</time>
        <speed>1.820000</speed>
      </trkpt>
      <trkpt lat="46.056141195" lon="7.194437528">
        <ele>1698.200000</ele>
        <time>2015-08-05T10:38:21Z</time>
        <speed>1.727000</speed>
      </trkpt>
      <trkpt lat="46.056126359" lon="7.194438785">
        <ele>1698.600000</ele>
        <time>2015-08-05T10:38:22Z</time>
        <speed>1.807000</speed>
      </trkpt>
      <trkpt lat="46.056041534" lon="7.194481197">
        <ele>1698.600000</ele>
        <time>2015-08-05T10:38:27Z</time>
        <speed>2.027000</speed>
      </trkpt>
      <trkpt lat="46.055955368" lon="7.194562083">
        <ele>1699.000000</ele>
        <time>2015-08-05T10:38:33Z</time>
        <speed>1.870000</speed>
      </trkpt>
      <trkpt lat="46.055941370" lon="7.194576919">
        <ele>1699.400000</ele>
        <time>2015-08-05T10:38:34Z</time>
        <speed>1.866000</speed>
      </trkpt>
      <trkpt lat="46.055927121" lon="7.194593096">
        <ele>1699.800000</ele>
        <time>2015-08-05T10:38:35Z</time>
        <speed>1.842000</speed>
      </trkpt>
      <trkpt lat="46.055911447" lon="7.194607177">
        <ele>1700.200000</ele>
        <time>2015-08-05T10:38:36Z</time>
        <speed>1.817000</speed>
      </trkpt>
      <trkpt lat="46.055896443" lon="7.194618325">
        <ele>1700.600000</ele>
        <time>2015-08-05T10:38:37Z</time>
        <speed>1.911000</speed>
      </trkpt>
      <trkpt lat="46.055808852" lon="7.194698205">
        <ele>1700.600000</ele>
        <time>2015-08-05T10:38:43Z</time>
        <speed>1.828000</speed>
      </trkpt>
      <trkpt lat="46.055732409" lon="7.194745060">
        <ele>1701.000000</ele>
        <time>2015-08-05T10:38:48Z</time>
        <speed>1.891000</speed>
      </trkpt>
      <trkpt lat="46.055720423" lon="7.194758806">
        <ele>1701.400000</ele>
        <time>2015-08-05T10:38:49Z</time>
        <speed>1.725000</speed>
      </trkpt>
      <trkpt lat="46.055708437" lon="7.194773726">
        <ele>1701.800000</ele>
        <time>2015-08-05T10:38:50Z</time>
        <speed>1.725000</speed>
      </trkpt>
      <trkpt lat="46.055698630" lon="7.194786885">
        <ele>1702.200000</ele>
        <time>2015-08-05T10:38:51Z</time>
        <speed>1.790000</speed>
      </trkpt>
      <trkpt lat="46.055688991" lon="7.194797866">
        <ele>1702.600000</ele>
        <time>2015-08-05T10:38:52Z</time>
        <speed>1.831000</speed>
      </trkpt>
      <trkpt lat="46.055605675" lon="7.194875566">
        <ele>1702.600000</ele>
        <time>2015-08-05T10:38:59Z</time>
        <speed>1.868000</speed>
      </trkpt>
      <trkpt lat="46.055569717" lon="7.194925941">
        <ele>1702.600000</ele>
        <time>2015-08-05T10:39:02Z</time>
        <speed>1.772000</speed>
      </trkpt>
      <trkpt lat="46.055555468" lon="7.194954021">
        <ele>1702.600000</ele>
        <time>2015-08-05T10:39:04Z</time>
        <speed>1.292000</speed>
      </trkpt>
      <trkpt lat="46.055553288" lon="7.194972125">
        <ele>1702.600000</ele>
        <time>2015-08-05T10:39:06Z</time>
        <speed>0.975000</speed>
      </trkpt>
      <trkpt lat="46.055553037" lon="7.194972042">
        <ele>1702.600000</ele>
        <time>2015-08-05T10:39:08Z</time>
        <speed>0.975000</speed>
      </trkpt>
      <trkpt lat="46.055552785" lon="7.194972293">
        <ele>1702.600000</ele>
        <time>2015-08-05T10:39:09Z</time>
        <speed>0.975000</speed>
      </trkpt>
      <trkpt lat="46.055552785" lon="7.194971790">
        <ele>1702.600000</ele>
        <time>2015-08-05T10:39:16Z</time>
        <speed>0.000000</speed>
      </trkpt>
      <trkpt lat="46.055552785" lon="7.194971790">
        <ele>1702.600000</ele>
        <time>2015-08-05T10:39:17Z</time>
        <speed>0.000000</speed>
      </trkpt>
      <trkpt lat="46.055523365" lon="7.194981346">
        <ele>1702.600000</ele>
        <time>2015-08-05T10:39:23Z</time>
        <speed>0.000000</speed>
      </trkpt>
      <trkpt lat="46.055498722" lon="7.194998026">
        <ele>1702.600000</ele>
        <time>2015-08-05T10:39:25Z</time>
        <speed>1.018000</speed>
      </trkpt>
      <trkpt lat="46.055428901" lon="7.195024009">
        <ele>1702.600000</ele>
        <time>2015-08-05T10:39:30Z</time>
        <speed>1.702000</speed>
      </trkpt>
      <trkpt lat="46.055412472" lon="7.195045299">
        <ele>1703.000000</ele>
        <time>2015-08-05T10:39:32Z</time>
        <speed>3.338000</speed>
      </trkpt>
      <trkpt lat="46.055411131" lon="7.195046473">
        <ele>1703.600000</ele>
        <time>2015-08-05T10:39:33Z</time>
        <speed>0.000000</speed>
      </trkpt>
      <trkpt lat="46.055411886" lon="7.195047814">
        <ele>1704.000000</ele>
        <time>2015-08-05T10:39:34Z</time>
        <speed>6.650000</speed>
      </trkpt>
      <trkpt lat="46.055406521" lon="7.195056699">
        <ele>1704.400000</ele>
        <time>2015-08-05T10:39:35Z</time>
        <speed>6.650000</speed>
      </trkpt>
      <trkpt lat="46.055400486" lon="7.195061644">
        <ele>1704.800000</ele>
        <time>2015-08-05T10:39:36Z</time>
        <speed>0.000000</speed>
      </trkpt>
      <trkpt lat="46.055367629" lon="7.195088802">
        <ele>1704.800000</ele>
        <time>2015-08-05T10:39:40Z</time>
        <speed>0.941000</speed>
      </trkpt>
      <trkpt lat="46.055357906" lon="7.195092238">
        <ele>1704.800000</ele>
        <time>2015-08-05T10:39:41Z</time>
        <speed>0.951000</speed>
      </trkpt>
      <trkpt lat="46.055336029" lon="7.195096764">
        <ele>1704.800000</ele>
        <time>2015-08-05T10:39:43Z</time>
        <speed>0.951000</speed>
      </trkpt>
      <trkpt lat="46.055298478" lon="7.195110175">
        <ele>1704.800000</ele>
        <time>2015-08-05T10:39:47Z</time>
        <speed>1.105000</speed>
      </trkpt>
      <trkpt lat="46.055270734" lon="7.195118138">
        <ele>1705.200000</ele>
        <time>2015-08-05T10:39:50Z</time>
        <speed>1.409000</speed>
      </trkpt>
      <trkpt lat="46.055259419" lon="7.195118222">
        <ele>1705.600000</ele>
        <time>2015-08-05T10:39:51Z</time>
        <speed>1.409000</speed>
      </trkpt>
      <trkpt lat="46.055250534" lon="7.195118138">
        <ele>1706.000000</ele>
        <time>2015-08-05T10:39:52Z</time>
        <speed>1.147000</speed>
      </trkpt>
      <trkpt lat="46.055235530" lon="7.195115791">
        <ele>1706.400000</ele>
        <time>2015-08-05T10:39:53Z</time>
        <speed>1.147000</speed>
      </trkpt>
      <trkpt lat="46.055224299" lon="7.195111936">
        <ele>1706.800000</ele>
        <time>2015-08-05T10:39:54Z</time>
        <speed>1.190000</speed>
      </trkpt>
      <trkpt lat="46.055207199" lon="7.195115037">
        <ele>1706.800000</ele>
        <time>2015-08-05T10:39:56Z</time>
        <speed>1.173000</speed>
      </trkpt>
      <trkpt lat="46.055191777" lon="7.195107326">
        <ele>1706.800000</ele>
        <time>2015-08-05T10:39:58Z</time>
        <speed>1.234000</speed>
      </trkpt>
      <trkpt lat="46.055184149" lon="7.195110511">
        <ele>1706.800000</ele>
        <time>2015-08-05T10:40:01Z</time>
        <speed>1.128000</speed>
      </trkpt>
      <trkpt lat="46.055172163" lon="7.195112187">
        <ele>1706.800000</ele>
        <time>2015-08-05T10:40:05Z</time>
        <speed>1.163000</speed>
      </trkpt>
      <trkpt lat="46.055167469" lon="7.195113025">
        <ele>1706.800000</ele>
        <time>2015-08-05T10:40:06Z</time>
        <speed>1.163000</speed>
      </trkpt>
      <trkpt lat="46.055167469" lon="7.195113696">
        <ele>1707.200000</ele>
        <time>2015-08-05T10:40:07Z</time>
        <speed>1.128000</speed>
      </trkpt>
      <trkpt lat="46.055167553" lon="7.195111936">
        <ele>1707.600000</ele>
        <time>2015-08-05T10:40:08Z</time>
        <speed>1.128000</speed>
      </trkpt>
      <trkpt lat="46.055166212" lon="7.195103386">
        <ele>1708.000000</ele>
        <time>2015-08-05T10:40:09Z</time>
        <speed>1.088000</speed>
      </trkpt>
      <trkpt lat="46.055167804" lon="7.195106068">
        <ele>1708.600000</ele>
        <time>2015-08-05T10:40:10Z</time>
        <speed>1.088000</speed>
      </trkpt>
      <trkpt lat="46.055167134" lon="7.195106487">
        <ele>1709.000000</ele>
        <time>2015-08-05T10:40:11Z</time>
        <speed>1.098000</speed>
      </trkpt>
      <trkpt lat="46.055167637" lon="7.195109337">
        <ele>1709.000000</ele>
        <time>2015-08-05T10:40:13Z</time>
        <speed>0.861000</speed>
      </trkpt>
      <trkpt lat="46.055161518" lon="7.195115205">
        <ele>1709.000000</ele>
        <time>2015-08-05T10:40:19Z</time>
        <speed>0.769000</speed>
      </trkpt>
      <trkpt lat="46.055161518" lon="7.195115205">
        <ele>1709.000000</ele>
        <time>2015-08-05T10:40:26Z</time>
        <speed>0.000000</speed>
      </trkpt>
      <trkpt lat="46.055161518" lon="7.195115205">
        <ele>1709.000000</ele>
        <time>2015-08-05T10:40:30Z</time>
        <speed>0.000000</speed>
      </trkpt>
      <trkpt lat="46.055161518" lon="7.195115205">
        <ele>1709.000000</ele>
        <time>2015-08-05T10:40:32Z</time>
        <speed>0.000000</speed>
      </trkpt>
      <trkpt lat="46.055161518" lon="7.195115205">
        <ele>1709.400000</ele>
        <time>2015-08-05T10:40:33Z</time>
        <speed>0.000000</speed>
      </trkpt>
      <trkpt lat="46.055161518" lon="7.195115205">
        <ele>1710.000000</ele>
        <time>2015-08-05T10:40:34Z</time>
        <speed>0.000000</speed>
      </trkpt>
      <trkpt lat="46.055162272" lon="7.195117635">
        <ele>1710.600000</ele>
        <time>2015-08-05T10:40:35Z</time>
        <speed>0.000000</speed>
      </trkpt>
      <trkpt lat="46.055162272" lon="7.195117635">
        <ele>1711.200000</ele>
        <time>2015-08-05T10:40:36Z</time>
        <speed>0.000000</speed>
      </trkpt>
      <trkpt lat="46.055162272" lon="7.195117635">
        <ele>1711.600000</ele>
        <time>2015-08-05T10:40:37Z</time>
        <speed>0.000000</speed>
      </trkpt>
      <trkpt lat="46.055162272" lon="7.195117635">
        <ele>1711.600000</ele>
        <time>2015-08-05T10:40:40Z</time>
        <speed>0.000000</speed>
      </trkpt>
      <trkpt lat="46.055162272" lon="7.195117635">
        <ele>1711.600000</ele>
        <time>2015-08-05T10:40:50Z</time>
        <speed>0.000000</speed>
      </trkpt>
      <trkpt lat="46.055162272" lon="7.195117635">
        <ele>1711.600000</ele>
        <time>2015-08-05T10:40:51Z</time>
        <speed>0.000000</speed>
      </trkpt>
      <trkpt lat="46.055126398" lon="7.195120988">
        <ele>1711.600000</ele>
        <time>2015-08-05T10:40:58Z</time>
        <speed>1.001000</speed>
      </trkpt>
      <trkpt lat="46.055125308" lon="7.195119982">
        <ele>1711.600000</ele>
        <time>2015-08-05T10:40:59Z</time>
        <speed>0.769000</speed>
      </trkpt>
      <trkpt lat="46.055104018" lon="7.195135908">
        <ele>1711.600000</ele>
        <time>2015-08-05T10:41:04Z</time>
        <speed>0.000000</speed>
      </trkpt>
      <trkpt lat="46.055087674" lon="7.195144793">
        <ele>1711.600000</ele>
        <time>2015-08-05T10:41:13Z</time>
        <speed>0.000000</speed>
      </trkpt>
      <trkpt lat="46.055087674" lon="7.195144793">
        <ele>1711.600000</ele>
        <time>2015-08-05T10:41:19Z</time>
        <speed>0.000000</speed>
      </trkpt>
      <trkpt lat="46.055022378" lon="7.195111265">
        <ele>1711.600000</ele>
        <time>2015-08-05T10:41:24Z</time>
        <speed>0.000000</speed>
      </trkpt>
      <trkpt lat="46.055006201" lon="7.195101710">
        <ele>1711.600000</ele>
        <time>2015-08-05T10:41:28Z</time>
        <speed>0.000000</speed>
      </trkpt>
      <trkpt lat="46.055004190" lon="7.195100117">
        <ele>1711.600000</ele>
        <time>2015-08-05T10:41:29Z</time>
        <speed>1.215000</speed>
      </trkpt>
      <trkpt lat="46.054990695" lon="7.195089807">
        <ele>1711.600000</ele>
        <time>2015-08-05T10:41:31Z</time>
        <speed>1.096000</speed>
      </trkpt>
      <trkpt lat="46.054950294" lon="7.195047646">
        <ele>1711.600000</ele>
        <time>2015-08-05T10:41:36Z</time>
        <speed>0.800000</speed>
      </trkpt>
      <trkpt lat="46.054867816" lon="7.195020405">
        <ele>1711.600000</ele>
        <time>2015-08-05T10:41:40Z</time>
        <speed>1.346000</speed>
      </trkpt>
      <trkpt lat="46.054814926" lon="7.195028536">
        <ele>1711.600000</ele>
        <time>2015-08-05T10:41:44Z</time>
        <speed>1.262000</speed>
      </trkpt>
      <trkpt lat="46.054718283" lon="7.195005821">
        <ele>1712.200000</ele>
        <time>2015-08-05T10:41:45Z</time>
        <speed>1.262000</speed>
      </trkpt>
      <trkpt lat="46.054695484" lon="7.195009425">
        <ele>1712.600000</ele>
        <time>2015-08-05T10:41:46Z</time>
        <speed>0.991000</speed>
      </trkpt>
      <trkpt lat="46.054682911" lon="7.195014789">
        <ele>1713.000000</ele>
        <time>2015-08-05T10:41:47Z</time>
        <speed>0.991000</speed>
      </trkpt>
      <trkpt lat="46.054675871" lon="7.195018896">
        <ele>1713.400000</ele>
        <time>2015-08-05T10:41:48Z</time>
        <speed>0.924000</speed>
      </trkpt>
      <trkpt lat="46.054666818" lon="7.195020740">
        <ele>1713.800000</ele>
        <time>2015-08-05T10:41:49Z</time>
        <speed>0.924000</speed>
      </trkpt>
      <trkpt lat="46.054628094" lon="7.195055861">
        <ele>1713.800000</ele>
        <time>2015-08-05T10:41:55Z</time>
        <speed>0.941000</speed>
      </trkpt>
      <trkpt lat="46.054608899" lon="7.195084862">
        <ele>1713.800000</ele>
        <time>2015-08-05T10:42:01Z</time>
        <speed>0.000000</speed>
      </trkpt>
      <trkpt lat="46.054608899" lon="7.195084862">
        <ele>1713.800000</ele>
        <time>2015-08-05T10:42:13Z</time>
        <speed>0.000000</speed>
      </trkpt>
      <trkpt lat="46.054594901" lon="7.195095507">
        <ele>1713.800000</ele>
        <time>2015-08-05T10:42:22Z</time>
        <speed>0.000000</speed>
      </trkpt>
      <trkpt lat="46.054594901" lon="7.195095507">
        <ele>1713.800000</ele>
        <time>2015-08-05T10:42:27Z</time>
        <speed>0.000000</speed>
      </trkpt>
      <trkpt lat="46.054584759" lon="7.195111936">
        <ele>1713.800000</ele>
        <time>2015-08-05T10:42:30Z</time>
        <speed>1.127000</speed>
      </trkpt>
      <trkpt lat="46.054577970" lon="7.195125850">
        <ele>1714.200000</ele>
        <time>2015-08-05T10:42:31Z</time>
        <speed>1.127000</speed>
      </trkpt>
      <trkpt lat="46.054571013" lon="7.195133226">
        <ele>1714.600000</ele>
        <time>2015-08-05T10:42:32Z</time>
        <speed>1.298000</speed>
      </trkpt>
      <trkpt lat="46.054563637" lon="7.195148648">
        <ele>1715.000000</ele>
        <time>2015-08-05T10:42:33Z</time>
        <speed>16.768000</speed>
      </trkpt>
      <trkpt lat="46.054557853" lon="7.195158874">
        <ele>1715.400000</ele>
        <time>2015-08-05T10:42:34Z</time>
        <speed>0.000000</speed>
      </trkpt>
      <trkpt lat="46.054551316" lon="7.195180835">
        <ele>1715.800000</ele>
        <time>2015-08-05T10:42:35Z</time>
        <speed>1.396000</speed>
      </trkpt>
      <trkpt lat="46.054527008" lon="7.195262391">
        <ele>1715.800000</ele>
        <time>2015-08-05T10:42:40Z</time>
        <speed>1.511000</speed>
      </trkpt>
      <trkpt lat="46.054518710" lon="7.195278233">
        <ele>1715.800000</ele>
        <time>2015-08-05T10:42:41Z</time>
        <speed>1.418000</speed>
      </trkpt>
      <trkpt lat="46.054515944" lon="7.195292147">
        <ele>1715.800000</ele>
        <time>2015-08-05T10:42:42Z</time>
        <speed>1.418000</speed>
      </trkpt>
      <trkpt lat="46.054502114" lon="7.195363141">
        <ele>1715.800000</ele>
        <time>2015-08-05T10:42:46Z</time>
        <speed>1.419000</speed>
      </trkpt>
      <trkpt lat="46.054492307" lon="7.195378648">
        <ele>1716.200000</ele>
        <time>2015-08-05T10:42:47Z</time>
        <speed>1.297000</speed>
      </trkpt>
      <trkpt lat="46.054483925" lon="7.195402201">
        <ele>1717.200000</ele>
        <time>2015-08-05T10:42:48Z</time>
        <speed>1.297000</speed>
      </trkpt>
      <trkpt lat="46.054473029" lon="7.195418965">
        <ele>1717.600000</ele>
        <time>2015-08-05T10:42:49Z</time>
        <speed>1.226000</speed>
      </trkpt>
      <trkpt lat="46.054460456" lon="7.195436986">
        <ele>1718.000000</ele>
        <time>2015-08-05T10:42:50Z</time>
        <speed>1.428000</speed>
      </trkpt>
      <trkpt lat="46.054449643" lon="7.195461377">
        <ele>1718.000000</ele>
        <time>2015-08-05T10:42:52Z</time>
        <speed>1.262000</speed>
      </trkpt>
      <trkpt lat="46.054441429" lon="7.195487445">
        <ele>1718.000000</ele>
        <time>2015-08-05T10:42:54Z</time>
        <speed>1.318000</speed>
      </trkpt>
      <trkpt lat="46.054441345" lon="7.195502784">
        <ele>1718.000000</ele>
        <time>2015-08-05T10:42:55Z</time>
        <speed>1.340000</speed>
      </trkpt>
      <trkpt lat="46.054425922" lon="7.195532707">
        <ele>1718.000000</ele>
        <time>2015-08-05T10:42:58Z</time>
        <speed>1.294000</speed>
      </trkpt>
      <trkpt lat="46.054410667" lon="7.195565732">
        <ele>1718.400000</ele>
        <time>2015-08-05T10:43:01Z</time>
        <speed>1.267000</speed>
      </trkpt>
      <trkpt lat="46.054405889" lon="7.195576628">
        <ele>1718.800000</ele>
        <time>2015-08-05T10:43:02Z</time>
        <speed>1.318000</speed>
      </trkpt>
      <trkpt lat="46.054399603" lon="7.195589956">
        <ele>1719.200000</ele>
        <time>2015-08-05T10:43:03Z</time>
        <speed>1.350000</speed>
      </trkpt>
      <trkpt lat="46.054389796" lon="7.195601606">
        <ele>1719.600000</ele>
        <time>2015-08-05T10:43:04Z</time>
        <speed>1.350000</speed>
      </trkpt>
      <trkpt lat="46.054378229" lon="7.195616694">
        <ele>1720.000000</ele>
        <time>2015-08-05T10:43:05Z</time>
        <speed>1.434000</speed>
      </trkpt>
      <trkpt lat="46.054327267" lon="7.195664974">
        <ele>1720.000000</ele>
        <time>2015-08-05T10:43:10Z</time>
        <speed>1.401000</speed>
      </trkpt>
      <trkpt lat="46.054296254" lon="7.195672182">
        <ele>1720.000000</ele>
        <time>2015-08-05T10:43:13Z</time>
        <speed>1.388000</speed>
      </trkpt>
      <trkpt lat="46.054281167" lon="7.195681234">
        <ele>1720.400000</ele>
        <time>2015-08-05T10:43:15Z</time>
        <speed>1.434000</speed>
      </trkpt>
      <trkpt lat="46.054265241" lon="7.195682576">
        <ele>1720.800000</ele>
        <time>2015-08-05T10:43:16Z</time>
        <speed>1.434000</speed>
      </trkpt>
      <trkpt lat="46.054250154" lon="7.195687018">
        <ele>1721.400000</ele>
        <time>2015-08-05T10:43:17Z</time>
        <speed>1.434000</speed>
      </trkpt>
      <trkpt lat="46.054237665" lon="7.195692969">
        <ele>1721.800000</ele>
        <time>2015-08-05T10:43:18Z</time>
        <speed>1.428000</speed>
      </trkpt>
      <trkpt lat="46.054229618" lon="7.195694226">
        <ele>1722.200000</ele>
        <time>2015-08-05T10:43:19Z</time>
        <speed>1.435000</speed>
      </trkpt>
      <trkpt lat="46.054183518" lon="7.195697244">
        <ele>1722.200000</ele>
        <time>2015-08-05T10:43:23Z</time>
        <speed>1.450000</speed>
      </trkpt>
      <trkpt lat="46.054164575" lon="7.195697914">
        <ele>1722.600000</ele>
        <time>2015-08-05T10:43:29Z</time>
        <speed>1.459000</speed>
      </trkpt>
      <trkpt lat="46.054154181" lon="7.195696322">
        <ele>1723.000000</ele>
        <time>2015-08-05T10:43:30Z</time>
        <speed>1.459000</speed>
      </trkpt>
      <trkpt lat="46.054139848" lon="7.195698920">
        <ele>1723.400000</ele>
        <time>2015-08-05T10:43:31Z</time>
        <speed>1.476000</speed>
      </trkpt>
      <trkpt lat="46.054125012" lon="7.195706632">
        <ele>1723.800000</ele>
        <time>2015-08-05T10:43:32Z</time>
        <speed>1.504000</speed>
      </trkpt>
      <trkpt lat="46.054113529" lon="7.195712247">
        <ele>1724.200000</ele>
        <time>2015-08-05T10:43:33Z</time>
        <speed>1.504000</speed>
      </trkpt>
      <trkpt lat="46.054100621" lon="7.195720881">
        <ele>1724.200000</ele>
        <time>2015-08-05T10:43:35Z</time>
        <speed>1.447000</speed>
      </trkpt>
      <trkpt lat="46.054102129" lon="7.195729263">
        <ele>1724.200000</ele>
        <time>2015-08-05T10:43:36Z</time>
        <speed>1.447000</speed>
      </trkpt>
      <trkpt lat="46.054131717" lon="7.195760192">
        <ele>1724.200000</ele>
        <time>2015-08-05T10:43:39Z</time>
        <speed>1.442000</speed>
      </trkpt>
      <trkpt lat="46.054172202" lon="7.195798413">
        <ele>1724.600000</ele>
        <time>2015-08-05T10:43:42Z</time>
        <speed>1.492000</speed>
      </trkpt>
      <trkpt lat="46.054185362" lon="7.195815596">
        <ele>1725.000000</ele>
        <time>2015-08-05T10:43:43Z</time>
        <speed>1.492000</speed>
      </trkpt>
      <trkpt lat="46.054197851" lon="7.195832947">
        <ele>1725.600000</ele>
        <time>2015-08-05T10:43:44Z</time>
        <speed>1.427000</speed>
      </trkpt>
      <trkpt lat="46.054210340" lon="7.195853231">
        <ele>1726.000000</ele>
        <time>2015-08-05T10:43:45Z</time>
        <speed>1.438000</speed>
      </trkpt>
      <trkpt lat="46.054203969" lon="7.195866558">
        <ele>1726.400000</ele>
        <time>2015-08-05T10:43:46Z</time>
        <speed>1.438000</speed>
      </trkpt>
      <trkpt lat="46.054196342" lon="7.195875611">
        <ele>1726.400000</ele>
        <time>2015-08-05T10:43:48Z</time>
        <speed>1.520000</speed>
      </trkpt>
      <trkpt lat="46.054152085" lon="7.195882316">
        <ele>1726.400000</ele>
        <time>2015-08-05T10:43:50Z</time>
        <speed>1.527000</speed>
      </trkpt>
      <trkpt lat="46.054093496" lon="7.195901762">
        <ele>1726.400000</ele>
        <time>2015-08-05T10:43:54Z</time>
        <speed>1.477000</speed>
      </trkpt>
      <trkpt lat="46.054047563" lon="7.195906121">
        <ele>1726.800000</ele>
        <time>2015-08-05T10:43:57Z</time>
        <speed>1.571000</speed>
      </trkpt>
      <trkpt lat="46.054026022" lon="7.195910731">
        <ele>1727.200000</ele>
        <time>2015-08-05T10:43:58Z</time>
        <speed>1.509000</speed>
      </trkpt>
      <trkpt lat="46.054005486" lon="7.195913078">
        <ele>1727.600000</ele>
        <time>2015-08-05T10:43:59Z</time>
        <speed>1.589000</speed>
      </trkpt>
      <trkpt lat="46.053987633" lon="7.195918694">
        <ele>1728.000000</ele>
        <time>2015-08-05T10:44:00Z</time>
        <speed>1.626000</speed>
      </trkpt>
      <trkpt lat="46.053972210" lon="7.195923807">
        <ele>1728.400000</ele>
        <time>2015-08-05T10:44:01Z</time>
        <speed>1.621000</speed>
      </trkpt>
      <trkpt lat="46.053925439" lon="7.195942750">
        <ele>1728.400000</ele>
        <time>2015-08-05T10:44:04Z</time>
        <speed>1.585000</speed>
      </trkpt>
      <trkpt lat="46.053854779" lon="7.195965213">
        <ele>1728.400000</ele>
        <time>2015-08-05T10:44:08Z</time>
        <speed>1.558000</speed>
      </trkpt>
      <trkpt lat="46.053744306" lon="7.195989772">
        <ele>1728.800000</ele>
        <time>2015-08-05T10:44:12Z</time>
        <speed>1.475000</speed>
      </trkpt>
      <trkpt lat="46.053728213" lon="7.195991533">
        <ele>1729.200000</ele>
        <time>2015-08-05T10:44:13Z</time>
        <speed>1.527000</speed>
      </trkpt>
      <trkpt lat="46.053711784" lon="7.195998154">
        <ele>1729.600000</ele>
        <time>2015-08-05T10:44:14Z</time>
        <speed>1.488000</speed>
      </trkpt>
      <trkpt lat="46.053701223" lon="7.196009721">
        <ele>1730.000000</ele>
        <time>2015-08-05T10:44:15Z</time>
        <speed>1.547000</speed>
      </trkpt>
      <trkpt lat="46.053683789" lon="7.196015169">
        <ele>1730.400000</ele>
        <time>2015-08-05T10:44:16Z</time>
        <speed>1.547000</speed>
      </trkpt>
      <trkpt lat="46.053672976" lon="7.196034364">
        <ele>1730.400000</ele>
        <time>2015-08-05T10:44:18Z</time>
        <speed>1.608000</speed>
      </trkpt>
      <trkpt lat="46.053668617" lon="7.196058755">
        <ele>1730.400000</ele>
        <time>2015-08-05T10:44:20Z</time>
        <speed>1.622000</speed>
      </trkpt>
      <trkpt lat="46.053638945" lon="7.196094798">
        <ele>1730.400000</ele>
        <time>2015-08-05T10:44:23Z</time>
        <speed>1.595000</speed>
      </trkpt>
      <trkpt lat="46.053593013" lon="7.196116088">
        <ele>1730.400000</ele>
        <time>2015-08-05T10:44:26Z</time>
        <speed>1.645000</speed>
      </trkpt>
      <trkpt lat="46.053580691" lon="7.196126816">
        <ele>1731.400000</ele>
        <time>2015-08-05T10:44:27Z</time>
        <speed>1.679000</speed>
      </trkpt>
      <trkpt lat="46.053565939" lon="7.196127906">
        <ele>1731.800000</ele>
        <time>2015-08-05T10:44:28Z</time>
        <speed>1.668000</speed>
      </trkpt>
      <trkpt lat="46.053551774" lon="7.196134612">
        <ele>1732.200000</ele>
        <time>2015-08-05T10:44:29Z</time>
        <speed>1.668000</speed>
      </trkpt>
      <trkpt lat="46.053541129" lon="7.196134276">
        <ele>1732.600000</ele>
        <time>2015-08-05T10:44:30Z</time>
        <speed>1.609000</speed>
      </trkpt>
      <trkpt lat="46.053424620" lon="7.196161434">
        <ele>1732.600000</ele>
        <time>2015-08-05T10:44:36Z</time>
        <speed>1.586000</speed>
      </trkpt>
      <trkpt lat="46.053336862" lon="7.196197560">
        <ele>1733.200000</ele>
        <time>2015-08-05T10:44:41Z</time>
        <speed>1.586000</speed>
      </trkpt>
      <trkpt lat="46.053320014" lon="7.196202924">
        <ele>1733.600000</ele>
        <time>2015-08-05T10:44:42Z</time>
        <speed>1.586000</speed>
      </trkpt>
      <trkpt lat="46.053302999" lon="7.196208121">
        <ele>1734.000000</ele>
        <time>2015-08-05T10:44:43Z</time>
        <speed>1.616000</speed>
      </trkpt>
      <trkpt lat="46.053286738" lon="7.196214240">
        <ele>1734.400000</ele>
        <time>2015-08-05T10:44:44Z</time>
        <speed>1.613000</speed>
      </trkpt>
      <trkpt lat="46.053274165" lon="7.196213401">
        <ele>1734.800000</ele>
        <time>2015-08-05T10:44:45Z</time>
        <speed>1.580000</speed>
      </trkpt>
      <trkpt lat="46.053258575" lon="7.196220526">
        <ele>1734.800000</ele>
        <time>2015-08-05T10:44:46Z</time>
        <speed>1.735000</speed>
      </trkpt>
      <trkpt lat="46.053222029" lon="7.196263441">
        <ele>1734.800000</ele>
        <time>2015-08-05T10:44:48Z</time>
        <speed>1.845000</speed>
      </trkpt>
      <trkpt lat="46.053184143" lon="7.196340471">
        <ele>1734.800000</ele>
        <time>2015-08-05T10:44:53Z</time>
        <speed>1.687000</speed>
      </trkpt>
      <trkpt lat="46.053179701" lon="7.196381626">
        <ele>1735.600000</ele>
        <time>2015-08-05T10:44:56Z</time>
        <speed>1.638000</speed>
      </trkpt>
      <trkpt lat="46.053171235" lon="7.196400905">
        <ele>1736.400000</ele>
        <time>2015-08-05T10:44:57Z</time>
        <speed>1.640000</speed>
      </trkpt>
      <trkpt lat="46.053164027" lon="7.196418088">
        <ele>1737.200000</ele>
        <time>2015-08-05T10:44:58Z</time>
        <speed>1.672000</speed>
      </trkpt>
      <trkpt lat="46.053145754" lon="7.196428733">
        <ele>1738.000000</ele>
        <time>2015-08-05T10:44:59Z</time>
        <speed>1.608000</speed>
      </trkpt>
      <trkpt lat="46.053129074" lon="7.196443066">
        <ele>1739.000000</ele>
        <time>2015-08-05T10:45:00Z</time>
        <speed>1.615000</speed>
      </trkpt>
      <trkpt lat="46.053088003" lon="7.196468630">
        <ele>1739.000000</ele>
        <time>2015-08-05T10:45:02Z</time>
        <speed>1.640000</speed>
      </trkpt>
      <trkpt lat="46.053073251" lon="7.196479192">
        <ele>1738.600000</ele>
        <time>2015-08-05T10:45:03Z</time>
        <speed>1.552000</speed>
      </trkpt>
      <trkpt lat="46.053041735" lon="7.196480365">
        <ele>1738.200000</ele>
        <time>2015-08-05T10:45:04Z</time>
        <speed>1.552000</speed>
      </trkpt>
      <trkpt lat="46.053017511" lon="7.196489585">
        <ele>1737.800000</ele>
        <time>2015-08-05T10:45:05Z</time>
        <speed>1.481000</speed>
      </trkpt>
      <trkpt lat="46.052992701" lon="7.196499057">
        <ele>1738.000000</ele>
        <time>2015-08-05T10:45:06Z</time>
        <speed>1.564000</speed>
      </trkpt>
      <trkpt lat="46.052972752" lon="7.196516240">
        <ele>1738.400000</ele>
        <time>2015-08-05T10:45:07Z</time>
        <speed>1.467000</speed>
      </trkpt>
      <trkpt lat="46.052955485" lon="7.196526968">
        <ele>1738.800000</ele>
        <time>2015-08-05T10:45:08Z</time>
        <speed>1.467000</speed>
      </trkpt>
      <trkpt lat="46.052944924" lon="7.196547923">
        <ele>1739.200000</ele>
        <time>2015-08-05T10:45:09Z</time>
        <speed>1.506000</speed>
      </trkpt>
      <trkpt lat="46.052932183" lon="7.196565944">
        <ele>1739.600000</ele>
        <time>2015-08-05T10:45:10Z</time>
        <speed>1.487000</speed>
      </trkpt>
      <trkpt lat="46.052910139" lon="7.196581283">
        <ele>1739.600000</ele>
        <time>2015-08-05T10:45:11Z</time>
        <speed>1.487000</speed>
      </trkpt>
      <trkpt lat="46.052848113" lon="7.196646662">
        <ele>1739.600000</ele>
        <time>2015-08-05T10:45:16Z</time>
        <speed>1.578000</speed>
      </trkpt>
      <trkpt lat="46.052781812" lon="7.196721512">
        <ele>1739.600000</ele>
        <time>2015-08-05T10:45:22Z</time>
        <speed>1.550000</speed>
      </trkpt>
      <trkpt lat="46.052773095" lon="7.196734001">
        <ele>1739.600000</ele>
        <time>2015-08-05T10:45:23Z</time>
        <speed>1.585000</speed>
      </trkpt>
      <trkpt lat="46.052755493" lon="7.196774654">
        <ele>1740.000000</ele>
        <time>2015-08-05T10:45:26Z</time>
        <speed>1.610000</speed>
      </trkpt>
      <trkpt lat="46.052750464" lon="7.196787646">
        <ele>1740.400000</ele>
        <time>2015-08-05T10:45:27Z</time>
        <speed>1.574000</speed>
      </trkpt>
      <trkpt lat="46.052741076" lon="7.196791501">
        <ele>1740.800000</ele>
        <time>2015-08-05T10:45:28Z</time>
        <speed>1.572000</speed>
      </trkpt>
      <trkpt lat="46.052729677" lon="7.196793848">
        <ele>1741.200000</ele>
        <time>2015-08-05T10:45:29Z</time>
        <speed>1.537000</speed>
      </trkpt>
      <trkpt lat="46.052716852" lon="7.196799380">
        <ele>1741.600000</ele>
        <time>2015-08-05T10:45:30Z</time>
        <speed>1.537000</speed>
      </trkpt>
      <trkpt lat="46.052691790" lon="7.196812456">
        <ele>1741.600000</ele>
        <time>2015-08-05T10:45:32Z</time>
        <speed>1.530000</speed>
      </trkpt>
      <trkpt lat="46.052682151" lon="7.196820503">
        <ele>1741.600000</ele>
        <time>2015-08-05T10:45:33Z</time>
        <speed>1.511000</speed>
      </trkpt>
      <trkpt lat="46.052658682" lon="7.196831818">
        <ele>1741.600000</ele>
        <time>2015-08-05T10:45:35Z</time>
        <speed>1.510000</speed>
      </trkpt>
      <trkpt lat="46.052626495" lon="7.196842882">
        <ele>1741.600000</ele>
        <time>2015-08-05T10:45:38Z</time>
        <speed>1.569000</speed>
      </trkpt>
      <trkpt lat="46.052612917" lon="7.196842212">
        <ele>1742.000000</ele>
        <time>2015-08-05T10:45:39Z</time>
        <speed>1.517000</speed>
      </trkpt>
      <trkpt lat="46.052601266" lon="7.196850007">
        <ele>1742.400000</ele>
        <time>2015-08-05T10:45:40Z</time>
        <speed>1.536000</speed>
      </trkpt>
      <trkpt lat="46.052590956" lon="7.196852438">
        <ele>1743.200000</ele>
        <time>2015-08-05T10:45:41Z</time>
        <speed>1.536000</speed>
      </trkpt>
      <trkpt lat="46.052578802" lon="7.196856880">
        <ele>1743.600000</ele>
        <time>2015-08-05T10:45:42Z</time>
        <speed>1.585000</speed>
      </trkpt>
      <trkpt lat="46.052555584" lon="7.196846990">
        <ele>1743.600000</ele>
        <time>2015-08-05T10:45:44Z</time>
        <speed>1.584000</speed>
      </trkpt>
      <trkpt lat="46.052506131" lon="7.196848834">
        <ele>1743.600000</ele>
        <time>2015-08-05T10:45:48Z</time>
        <speed>1.654000</speed>
      </trkpt>
      <trkpt lat="46.052449553" lon="7.196863753">
        <ele>1744.000000</ele>
        <time>2015-08-05T10:45:52Z</time>
        <speed>1.725000</speed>
      </trkpt>
      <trkpt lat="46.052438489" lon="7.196865933">
        <ele>1744.400000</ele>
        <time>2015-08-05T10:45:53Z</time>
        <speed>1.745000</speed>
      </trkpt>
      <trkpt lat="46.052426587" lon="7.196864927">
        <ele>1744.800000</ele>
        <time>2015-08-05T10:45:54Z</time>
        <speed>1.787000</speed>
      </trkpt>
      <trkpt lat="46.052413595" lon="7.196867525">
        <ele>1745.200000</ele>
        <time>2015-08-05T10:45:55Z</time>
        <speed>1.707000</speed>
      </trkpt>
      <trkpt lat="46.052400352" lon="7.196867693">
        <ele>1745.600000</ele>
        <time>2015-08-05T10:45:56Z</time>
        <speed>1.707000</speed>
      </trkpt>
      <trkpt lat="46.052323238" lon="7.196876661">
        <ele>1745.600000</ele>
        <time>2015-08-05T10:46:01Z</time>
        <speed>1.648000</speed>
      </trkpt>
      <trkpt lat="46.052303205" lon="7.196875656">
        <ele>1745.600000</ele>
        <time>2015-08-05T10:46:02Z</time>
        <speed>1.720000</speed>
      </trkpt>
      <trkpt lat="46.052256518" lon="7.196873895">
        <ele>1746.200000</ele>
        <time>2015-08-05T10:46:05Z</time>
        <speed>1.660000</speed>
      </trkpt>
      <trkpt lat="46.052244113" lon="7.196873393">
        <ele>1747.000000</ele>
        <time>2015-08-05T10:46:06Z</time>
        <speed>3.723000</speed>
      </trkpt>
      <trkpt lat="46.052230367" lon="7.196875572">
        <ele>1747.400000</ele>
        <time>2015-08-05T10:46:07Z</time>
        <speed>3.723000</speed>
      </trkpt>
      <trkpt lat="46.052219051" lon="7.196877835">
        <ele>1748.000000</ele>
        <time>2015-08-05T10:46:08Z</time>
        <speed>3.723000</speed>
      </trkpt>
      <trkpt lat="46.052214273" lon="7.196881523">
        <ele>1748.000000</ele>
        <time>2015-08-05T10:46:09Z</time>
        <speed>0.000000</speed>
      </trkpt>
      <trkpt lat="46.052146212" lon="7.196878254">
        <ele>1748.000000</ele>
        <time>2015-08-05T10:46:14Z</time>
        <speed>1.647000</speed>
      </trkpt>
      <trkpt lat="46.052134142" lon="7.196873728">
        <ele>1748.000000</ele>
        <time>2015-08-05T10:46:15Z</time>
        <speed>1.654000</speed>
      </trkpt>
      <trkpt lat="46.052117127" lon="7.196875488">
        <ele>1748.400000</ele>
        <time>2015-08-05T10:46:16Z</time>
        <speed>1.627000</speed>
      </trkpt>
      <trkpt lat="46.052105225" lon="7.196882696">
        <ele>1748.800000</ele>
        <time>2015-08-05T10:46:17Z</time>
        <speed>1.613000</speed>
      </trkpt>
      <trkpt lat="46.052091059" lon="7.196889402">
        <ele>1749.200000</ele>
        <time>2015-08-05T10:46:18Z</time>
        <speed>1.586000</speed>
      </trkpt>
      <trkpt lat="46.052073457" lon="7.196889234">
        <ele>1749.600000</ele>
        <time>2015-08-05T10:46:19Z</time>
        <speed>1.586000</speed>
      </trkpt>
      <trkpt lat="46.052060046" lon="7.196890156">
        <ele>1750.000000</ele>
        <time>2015-08-05T10:46:20Z</time>
        <speed>1.506000</speed>
      </trkpt>
      <trkpt lat="46.052031129" lon="7.196891162">
        <ele>1750.000000</ele>
        <time>2015-08-05T10:46:22Z</time>
        <speed>1.547000</speed>
      </trkpt>
      <trkpt lat="46.051963654" lon="7.196901472">
        <ele>1750.000000</ele>
        <time>2015-08-05T10:46:28Z</time>
        <speed>1.441000</speed>
      </trkpt>
      <trkpt lat="46.051952255" lon="7.196903316">
        <ele>1750.000000</ele>
        <time>2015-08-05T10:46:29Z</time>
        <speed>1.441000</speed>
      </trkpt>
      <trkpt lat="46.051940604" lon="7.196902059">
        <ele>1750.400000</ele>
        <time>2015-08-05T10:46:30Z</time>
        <speed>1.478000</speed>
      </trkpt>
      <trkpt lat="46.051927612" lon="7.196904154">
        <ele>1751.200000</ele>
        <time>2015-08-05T10:46:31Z</time>
        <speed>1.457000</speed>
      </trkpt>
      <trkpt lat="46.051913950" lon="7.196901807">
        <ele>1751.600000</ele>
        <time>2015-08-05T10:46:32Z</time>
        <speed>1.457000</speed>
      </trkpt>
      <trkpt lat="46.051899449" lon="7.196895353">
        <ele>1752.000000</ele>
        <time>2015-08-05T10:46:33Z</time>
        <speed>1.537000</speed>
      </trkpt>
      <trkpt lat="46.051874219" lon="7.196895102">
        <ele>1752.000000</ele>
        <time>2015-08-05T10:46:35Z</time>
        <speed>1.556000</speed>
      </trkpt>
      <trkpt lat="46.051863742" lon="7.196891162">
        <ele>1752.000000</ele>
        <time>2015-08-05T10:46:36Z</time>
        <speed>1.569000</speed>
      </trkpt>
      <trkpt lat="46.051797357" lon="7.196867274">
        <ele>1752.000000</ele>
        <time>2015-08-05T10:46:41Z</time>
        <speed>1.578000</speed>
      </trkpt>
      <trkpt lat="46.051783108" lon="7.196853276">
        <ele>1752.400000</ele>
        <time>2015-08-05T10:46:43Z</time>
        <speed>1.648000</speed>
      </trkpt>
      <trkpt lat="46.051772128" lon="7.196849504">
        <ele>1752.800000</ele>
        <time>2015-08-05T10:46:44Z</time>
        <speed>1.633000</speed>
      </trkpt>
      <trkpt lat="46.051761902" lon="7.196850258">
        <ele>1753.200000</ele>
        <time>2015-08-05T10:46:45Z</time>
        <speed>1.633000</speed>
      </trkpt>
      <trkpt lat="46.051750000" lon="7.196848163">
        <ele>1753.600000</ele>
        <time>2015-08-05T10:46:46Z</time>
        <speed>1.622000</speed>
      </trkpt>
      <trkpt lat="46.051743797" lon="7.196847492">
        <ele>1754.000000</ele>
        <time>2015-08-05T10:46:47Z</time>
        <speed>1.628000</speed>
      </trkpt>
      <trkpt lat="46.051715969" lon="7.196850007">
        <ele>1754.000000</ele>
        <time>2015-08-05T10:46:50Z</time>
        <speed>1.637000</speed>
      </trkpt>
      <trkpt lat="46.051694931" lon="7.196838440">
        <ele>1754.000000</ele>
        <time>2015-08-05T10:46:52Z</time>
        <speed>1.654000</speed>
      </trkpt>
      <trkpt lat="46.051663834" lon="7.196841122">
        <ele>1754.000000</ele>
        <time>2015-08-05T10:46:55Z</time>
        <speed>1.614000</speed>
      </trkpt>
      <trkpt lat="46.051654614" lon="7.196849504">
        <ele>1754.400000</ele>
        <time>2015-08-05T10:46:56Z</time>
        <speed>1.549000</speed>
      </trkpt>
      <trkpt lat="46.051646986" lon="7.196855539">
        <ele>1754.800000</ele>
        <time>2015-08-05T10:46:57Z</time>
        <speed>1.556000</speed>
      </trkpt>
      <trkpt lat="46.051636090" lon="7.196862496">
        <ele>1755.200000</ele>
        <time>2015-08-05T10:46:58Z</time>
        <speed>1.556000</speed>
      </trkpt>
      <trkpt lat="46.051621673" lon="7.196861574">
        <ele>1755.600000</ele>
        <time>2015-08-05T10:46:59Z</time>
        <speed>1.630000</speed>
      </trkpt>
      <trkpt lat="46.051609938" lon="7.196859479">
        <ele>1756.000000</ele>
        <time>2015-08-05T10:47:00Z</time>
        <speed>1.571000</speed>
      </trkpt>
      <trkpt lat="46.051572974" lon="7.196890743">
        <ele>1756.000000</ele>
        <time>2015-08-05T10:47:04Z</time>
        <speed>1.530000</speed>
      </trkpt>
      <trkpt lat="46.051495860" lon="7.196918906">
        <ele>1756.400000</ele>
        <time>2015-08-05T10:47:10Z</time>
        <speed>1.511000</speed>
      </trkpt>
      <trkpt lat="46.051477839" lon="7.196922510">
        <ele>1756.800000</ele>
        <time>2015-08-05T10:47:11Z</time>
        <speed>1.511000</speed>
      </trkpt>
      <trkpt lat="46.051452861" lon="7.196926366">
        <ele>1757.200000</ele>
        <time>2015-08-05T10:47:12Z</time>
        <speed>1.474000</speed>
      </trkpt>
      <trkpt lat="46.051426626" lon="7.196927707">
        <ele>1757.600000</ele>
        <time>2015-08-05T10:47:13Z</time>
        <speed>1.513000</speed>
      </trkpt>
      <trkpt lat="46.051404833" lon="7.196930473">
        <ele>1758.000000</ele>
        <time>2015-08-05T10:47:14Z</time>
        <speed>1.678000</speed>
      </trkpt>
      <trkpt lat="46.051365186" lon="7.196926701">
        <ele>1758.000000</ele>
        <time>2015-08-05T10:47:16Z</time>
        <speed>1.568000</speed>
      </trkpt>
      <trkpt lat="46.051342472" lon="7.196934916">
        <ele>1758.000000</ele>
        <time>2015-08-05T10:47:18Z</time>
        <speed>1.582000</speed>
      </trkpt>
      <trkpt lat="46.051273069" lon="7.196940867">
        <ele>1758.000000</ele>
        <time>2015-08-05T10:47:22Z</time>
        <speed>1.543000</speed>
      </trkpt>
      <trkpt lat="46.051237949" lon="7.196941454">
        <ele>1758.400000</ele>
        <time>2015-08-05T10:47:24Z</time>
        <speed>1.633000</speed>
      </trkpt>
      <trkpt lat="46.051220180" lon="7.196943801">
        <ele>1758.800000</ele>
        <time>2015-08-05T10:47:25Z</time>
        <speed>1.633000</speed>
      </trkpt>
      <trkpt lat="46.051201823" lon="7.196943884">
        <ele>1759.400000</ele>
        <time>2015-08-05T10:47:26Z</time>
        <speed>1.685000</speed>
      </trkpt>
      <trkpt lat="46.051182461" lon="7.196945142">
        <ele>1759.800000</ele>
        <time>2015-08-05T10:47:27Z</time>
        <speed>1.693000</speed>
      </trkpt>
      <trkpt lat="46.051163434" lon="7.196942208">
        <ele>1760.200000</ele>
        <time>2015-08-05T10:47:28Z</time>
        <speed>1.636000</speed>
      </trkpt>
      <trkpt lat="46.051078358" lon="7.196944387">
        <ele>1760.200000</ele>
        <time>2015-08-05T10:47:34Z</time>
        <speed>1.654000</speed>
      </trkpt>
      <trkpt lat="46.051040891" lon="7.196945309">
        <ele>1760.600000</ele>
        <time>2015-08-05T10:47:37Z</time>
        <speed>0.000000</speed>
      </trkpt>
      <trkpt lat="46.051019433" lon="7.196945477">
        <ele>1761.000000</ele>
        <time>2015-08-05T10:47:38Z</time>
        <speed>0.000000</speed>
      </trkpt>
      <trkpt lat="46.050998059" lon="7.196949752">
        <ele>1761.400000</ele>
        <time>2015-08-05T10:47:39Z</time>
        <speed>1.583000</speed>
      </trkpt>
      <trkpt lat="46.050994706" lon="7.196956038">
        <ele>1761.800000</ele>
        <time>2015-08-05T10:47:40Z</time>
        <speed>0.000000</speed>
      </trkpt>
      <trkpt lat="46.050971069" lon="7.196961905">
        <ele>1762.200000</ele>
        <time>2015-08-05T10:47:41Z</time>
        <speed>1.571000</speed>
      </trkpt>
      <trkpt lat="46.050934692" lon="7.196981603">
        <ele>1762.200000</ele>
        <time>2015-08-05T10:47:45Z</time>
        <speed>1.484000</speed>
      </trkpt>
      <trkpt lat="46.050923963" lon="7.196993505">
        <ele>1762.200000</ele>
        <time>2015-08-05T10:47:47Z</time>
        <speed>1.492000</speed>
      </trkpt>
      <trkpt lat="46.050913653" lon="7.196993757">
        <ele>1762.200000</ele>
        <time>2015-08-05T10:47:48Z</time>
        <speed>1.420000</speed>
      </trkpt>
      <trkpt lat="46.050883730" lon="7.197012029">
        <ele>1762.600000</ele>
        <time>2015-08-05T10:47:50Z</time>
        <speed>1.489000</speed>
      </trkpt>
      <trkpt lat="46.050877360" lon="7.197018819">
        <ele>1763.000000</ele>
        <time>2015-08-05T10:47:51Z</time>
        <speed>1.489000</speed>
      </trkpt>
      <trkpt lat="46.050870487" lon="7.197031224">
        <ele>1763.400000</ele>
        <time>2015-08-05T10:47:52Z</time>
        <speed>1.448000</speed>
      </trkpt>
      <trkpt lat="46.050850286" lon="7.197034744">
        <ele>1763.800000</ele>
        <time>2015-08-05T10:47:53Z</time>
        <speed>1.432000</speed>
      </trkpt>
      <trkpt lat="46.050828577" lon="7.197040360">
        <ele>1764.200000</ele>
        <time>2015-08-05T10:47:54Z</time>
        <speed>1.432000</speed>
      </trkpt>
      <trkpt lat="46.050782225" lon="7.197060393">
        <ele>1764.200000</ele>
        <time>2015-08-05T10:47:57Z</time>
        <speed>1.522000</speed>
      </trkpt>
      <trkpt lat="46.050646187" lon="7.197111942">
        <ele>1764.600000</ele>
        <time>2015-08-05T10:48:05Z</time>
        <speed>1.533000</speed>
      </trkpt>
      <trkpt lat="46.050634201" lon="7.197119653">
        <ele>1765.200000</ele>
        <time>2015-08-05T10:48:06Z</time>
        <speed>1.567000</speed>
      </trkpt>
      <trkpt lat="46.050619029" lon="7.197125520">
        <ele>1765.600000</ele>
        <time>2015-08-05T10:48:07Z</time>
        <speed>1.552000</speed>
      </trkpt>
      <trkpt lat="46.050605618" lon="7.197132310">
        <ele>1766.000000</ele>
        <time>2015-08-05T10:48:08Z</time>
        <speed>1.552000</speed>
      </trkpt>
      <trkpt lat="46.050594135" lon="7.197148235">
        <ele>1766.400000</ele>
        <time>2015-08-05T10:48:09Z</time>
        <speed>1.478000</speed>
      </trkpt>
      <trkpt lat="46.050569828" lon="7.197168436">
        <ele>1766.400000</ele>
        <time>2015-08-05T10:48:11Z</time>
        <speed>1.535000</speed>
      </trkpt>
      <trkpt lat="46.050483326" lon="7.197226019">
        <ele>1766.800000</ele>
        <time>2015-08-05T10:48:18Z</time>
        <speed>1.498000</speed>
      </trkpt>
      <trkpt lat="46.050470837" lon="7.197233395">
        <ele>1767.200000</ele>
        <time>2015-08-05T10:48:19Z</time>
        <speed>1.520000</speed>
      </trkpt>
      <trkpt lat="46.050455415" lon="7.197238927">
        <ele>1767.600000</ele>
        <time>2015-08-05T10:48:20Z</time>
        <speed>1.520000</speed>
      </trkpt>
      <trkpt lat="46.050441082" lon="7.197245884">
        <ele>1768.000000</ele>
        <time>2015-08-05T10:48:21Z</time>
        <speed>1.509000</speed>
      </trkpt>
      <trkpt lat="46.050428090" lon="7.197247058">
        <ele>1768.400000</ele>
        <time>2015-08-05T10:48:22Z</time>
        <speed>1.620000</speed>
      </trkpt>
      <trkpt lat="46.050390958" lon="7.197262900">
        <ele>1768.400000</ele>
        <time>2015-08-05T10:48:25Z</time>
        <speed>1.576000</speed>
      </trkpt>
      <trkpt lat="46.050378134" lon="7.197264911">
        <ele>1768.400000</ele>
        <time>2015-08-05T10:48:26Z</time>
        <speed>1.571000</speed>
      </trkpt>
      <trkpt lat="46.050303116" lon="7.197285615">
        <ele>1768.800000</ele>
        <time>2015-08-05T10:48:32Z</time>
        <speed>1.586000</speed>
      </trkpt>
      <trkpt lat="46.050289369" lon="7.197292236">
        <ele>1769.400000</ele>
        <time>2015-08-05T10:48:33Z</time>
        <speed>1.556000</speed>
      </trkpt>
      <trkpt lat="46.050275036" lon="7.197294667">
        <ele>1769.800000</ele>
        <time>2015-08-05T10:48:34Z</time>
        <speed>1.552000</speed>
      </trkpt>
      <trkpt lat="46.050261038" lon="7.197295505">
        <ele>1770.600000</ele>
        <time>2015-08-05T10:48:35Z</time>
        <speed>1.597000</speed>
      </trkpt>
      <trkpt lat="46.050195408" lon="7.197315286">
        <ele>1770.600000</ele>
        <time>2015-08-05T10:48:40Z</time>
        <speed>1.620000</speed>
      </trkpt>
      <trkpt lat="46.050123324" lon="7.197328362">
        <ele>1771.000000</ele>
        <time>2015-08-05T10:48:46Z</time>
        <speed>1.524000</speed>
      </trkpt>
      <trkpt lat="46.050109577" lon="7.197335571">
        <ele>1771.400000</ele>
        <time>2015-08-05T10:48:47Z</time>
        <speed>1.501000</speed>
      </trkpt>
      <trkpt lat="46.050098262" lon="7.197338001">
        <ele>1771.800000</ele>
        <time>2015-08-05T10:48:48Z</time>
        <speed>1.501000</speed>
      </trkpt>
      <trkpt lat="46.050083258" lon="7.197340935">
        <ele>1772.200000</ele>
        <time>2015-08-05T10:48:49Z</time>
        <speed>1.507000</speed>
      </trkpt>
      <trkpt lat="46.050071607" lon="7.197340684">
        <ele>1772.600000</ele>
        <time>2015-08-05T10:48:50Z</time>
        <speed>1.516000</speed>
      </trkpt>
      <trkpt lat="46.050018801" lon="7.197358705">
        <ele>1772.600000</ele>
        <time>2015-08-05T10:48:55Z</time>
        <speed>1.496000</speed>
      </trkpt>
      <trkpt lat="46.049974964" lon="7.197362225">
        <ele>1773.000000</ele>
        <time>2015-08-05T10:48:58Z</time>
        <speed>1.530000</speed>
      </trkpt>
      <trkpt lat="46.049961888" lon="7.197361890">
        <ele>1774.000000</ele>
        <time>2015-08-05T10:48:59Z</time>
        <speed>1.562000</speed>
      </trkpt>
      <trkpt lat="46.049945711" lon="7.197366584">
        <ele>1774.400000</ele>
        <time>2015-08-05T10:49:00Z</time>
        <speed>1.450000</speed>
      </trkpt>
      <trkpt lat="46.049929450" lon="7.197368176">
        <ele>1774.800000</ele>
        <time>2015-08-05T10:49:01Z</time>
        <speed>1.450000</speed>
      </trkpt>
      <trkpt lat="46.049907322" lon="7.197373876">
        <ele>1774.800000</ele>
        <time>2015-08-05T10:49:03Z</time>
        <speed>1.507000</speed>
      </trkpt>
      <trkpt lat="46.049826940" lon="7.197379324">
        <ele>1774.800000</ele>
        <time>2015-08-05T10:49:09Z</time>
        <speed>1.552000</speed>
      </trkpt>
      <trkpt lat="46.049800453" lon="7.197383767">
        <ele>1775.200000</ele>
        <time>2015-08-05T10:49:11Z</time>
        <speed>1.559000</speed>
      </trkpt>
      <trkpt lat="46.049784695" lon="7.197378402">
        <ele>1775.600000</ele>
        <time>2015-08-05T10:49:12Z</time>
        <speed>1.471000</speed>
      </trkpt>
      <trkpt lat="46.049771116" lon="7.197373289">
        <ele>1776.000000</ele>
        <time>2015-08-05T10:49:13Z</time>
        <speed>1.471000</speed>
      </trkpt>
      <trkpt lat="46.049760890" lon="7.197367254">
        <ele>1776.400000</ele>
        <time>2015-08-05T10:49:14Z</time>
        <speed>1.396000</speed>
      </trkpt>
      <trkpt lat="46.049750832" lon="7.197361722">
        <ele>1776.800000</ele>
        <time>2015-08-05T10:49:15Z</time>
        <speed>1.374000</speed>
      </trkpt>
      <trkpt lat="46.049741696" lon="7.197357196">
        <ele>1776.800000</ele>
        <time>2015-08-05T10:49:16Z</time>
        <speed>1.374000</speed>
      </trkpt>
      <trkpt lat="46.049669527" lon="7.197313442">
        <ele>1776.800000</ele>
        <time>2015-08-05T10:49:23Z</time>
        <speed>1.385000</speed>
      </trkpt>
      <trkpt lat="46.049651506" lon="7.197302965">
        <ele>1777.200000</ele>
        <time>2015-08-05T10:49:25Z</time>
        <speed>1.582000</speed>
      </trkpt>
      <trkpt lat="46.049640778" lon="7.197297936">
        <ele>1777.600000</ele>
        <time>2015-08-05T10:49:26Z</time>
        <speed>1.582000</speed>
      </trkpt>
      <trkpt lat="46.049630468" lon="7.197296762">
        <ele>1778.000000</ele>
        <time>2015-08-05T10:49:27Z</time>
        <speed>1.551000</speed>
      </trkpt>
      <trkpt lat="46.049619739" lon="7.197292739">
        <ele>1778.400000</ele>
        <time>2015-08-05T10:49:28Z</time>
        <speed>1.518000</speed>
      </trkpt>
      <trkpt lat="46.049610267" lon="7.197287291">
        <ele>1778.800000</ele>
        <time>2015-08-05T10:49:29Z</time>
        <speed>1.518000</speed>
      </trkpt>
      <trkpt lat="46.049599874" lon="7.197276562">
        <ele>1778.800000</ele>
        <time>2015-08-05T10:49:30Z</time>
        <speed>1.456000</speed>
      </trkpt>
      <trkpt lat="46.049544218" lon="7.197225432">
        <ele>1778.800000</ele>
        <time>2015-08-05T10:49:37Z</time>
        <speed>1.562000</speed>
      </trkpt>
      <trkpt lat="46.049535585" lon="7.197221074">
        <ele>1778.800000</ele>
        <time>2015-08-05T10:49:38Z</time>
        <speed>1.529000</speed>
      </trkpt>
      <trkpt lat="46.049520497" lon="7.197203807">
        <ele>1779.400000</ele>
        <time>2015-08-05T10:49:40Z</time>
        <speed>1.509000</speed>
      </trkpt>
      <trkpt lat="46.049516306" lon="7.197194587">
        <ele>1779.800000</ele>
        <time>2015-08-05T10:49:41Z</time>
        <speed>1.502000</speed>
      </trkpt>
      <trkpt lat="46.049512032" lon="7.197185702">
        <ele>1780.200000</ele>
        <time>2015-08-05T10:49:42Z</time>
        <speed>1.493000</speed>
      </trkpt>
      <trkpt lat="46.049507841" lon="7.197178075">
        <ele>1780.600000</ele>
        <time>2015-08-05T10:49:43Z</time>
        <speed>1.493000</speed>
      </trkpt>
      <trkpt lat="46.049498034" lon="7.197168687">
        <ele>1781.000000</ele>
        <time>2015-08-05T10:49:44Z</time>
        <speed>1.531000</speed>
      </trkpt>
      <trkpt lat="46.049483030" lon="7.197144966">
        <ele>1781.000000</ele>
        <time>2015-08-05T10:49:46Z</time>
        <speed>1.597000</speed>
      </trkpt>
      <trkpt lat="46.049478085" lon="7.197134656">
        <ele>1781.000000</ele>
        <time>2015-08-05T10:49:47Z</time>
        <speed>1.597000</speed>
      </trkpt>
      <trkpt lat="46.049466183" lon="7.197120994">
        <ele>1781.000000</ele>
        <time>2015-08-05T10:49:49Z</time>
        <speed>1.533000</speed>
      </trkpt>
      <trkpt lat="46.049440031" lon="7.197100123">
        <ele>1781.000000</ele>
        <time>2015-08-05T10:49:52Z</time>
        <speed>1.516000</speed>
      </trkpt>
      <trkpt lat="46.049434750" lon="7.197082521">
        <ele>1781.400000</ele>
        <time>2015-08-05T10:49:53Z</time>
        <speed>1.506000</speed>
      </trkpt>
      <trkpt lat="46.049430476" lon="7.197072295">
        <ele>1781.800000</ele>
        <time>2015-08-05T10:49:54Z</time>
        <speed>1.506000</speed>
      </trkpt>
      <trkpt lat="46.049425782" lon="7.197065170">
        <ele>1782.200000</ele>
        <time>2015-08-05T10:49:55Z</time>
        <speed>1.517000</speed>
      </trkpt>
      <trkpt lat="46.049419411" lon="7.197057375">
        <ele>1782.600000</ele>
        <time>2015-08-05T10:49:56Z</time>
        <speed>1.497000</speed>
      </trkpt>
      <trkpt lat="46.049414885" lon="7.197055280">
        <ele>1783.000000</ele>
        <time>2015-08-05T10:49:57Z</time>
        <speed>1.537000</speed>
      </trkpt>
      <trkpt lat="46.049409102" lon="7.197052095">
        <ele>1783.000000</ele>
        <time>2015-08-05T10:49:58Z</time>
        <speed>1.537000</speed>
      </trkpt>
      <trkpt lat="46.049369288" lon="7.197033990">
        <ele>1783.000000</ele>
        <time>2015-08-05T10:50:03Z</time>
        <speed>1.515000</speed>
      </trkpt>
      <trkpt lat="46.049359313" lon="7.197036840">
        <ele>1783.000000</ele>
        <time>2015-08-05T10:50:04Z</time>
        <speed>1.509000</speed>
      </trkpt>
      <trkpt lat="46.049327127" lon="7.197059052">
        <ele>1783.000000</ele>
        <time>2015-08-05T10:50:07Z</time>
        <speed>1.597000</speed>
      </trkpt>
      <trkpt lat="46.049316733" lon="7.197065254">
        <ele>1783.400000</ele>
        <time>2015-08-05T10:50:08Z</time>
        <speed>1.617000</speed>
      </trkpt>
      <trkpt lat="46.049304160" lon="7.197073049">
        <ele>1783.800000</ele>
        <time>2015-08-05T10:50:09Z</time>
        <speed>1.617000</speed>
      </trkpt>
      <trkpt lat="46.049292426" lon="7.197081012">
        <ele>1784.200000</ele>
        <time>2015-08-05T10:50:10Z</time>
        <speed>1.570000</speed>
      </trkpt>
      <trkpt lat="46.049281026" lon="7.197089394">
        <ele>1784.800000</ele>
        <time>2015-08-05T10:50:11Z</time>
        <speed>1.584000</speed>
      </trkpt>
      <trkpt lat="46.049268789" lon="7.197101548">
        <ele>1785.200000</ele>
        <time>2015-08-05T10:50:12Z</time>
        <speed>1.613000</speed>
      </trkpt>
      <trkpt lat="46.049209026" lon="7.197133986">
        <ele>1785.200000</ele>
        <time>2015-08-05T10:50:16Z</time>
        <speed>1.631000</speed>
      </trkpt>
      <trkpt lat="46.049186814" lon="7.197168268">
        <ele>1785.200000</ele>
        <time>2015-08-05T10:50:18Z</time>
        <speed>1.628000</speed>
      </trkpt>
      <trkpt lat="46.049147670" lon="7.197238424">
        <ele>1785.200000</ele>
        <time>2015-08-05T10:50:22Z</time>
        <speed>1.636000</speed>
      </trkpt>
      <trkpt lat="46.049127135" lon="7.197331966">
        <ele>1785.600000</ele>
        <time>2015-08-05T10:50:27Z</time>
        <speed>1.665000</speed>
      </trkpt>
      <trkpt lat="46.049118250" lon="7.197349904">
        <ele>1786.000000</ele>
        <time>2015-08-05T10:50:28Z</time>
        <speed>1.665000</speed>
      </trkpt>
      <trkpt lat="46.049112299" lon="7.197371864">
        <ele>1786.600000</ele>
        <time>2015-08-05T10:50:29Z</time>
        <speed>1.609000</speed>
      </trkpt>
      <trkpt lat="46.049104420" lon="7.197391143">
        <ele>1787.000000</ele>
        <time>2015-08-05T10:50:30Z</time>
        <speed>1.576000</speed>
      </trkpt>
      <trkpt lat="46.049099055" lon="7.197415115">
        <ele>1787.400000</ele>
        <time>2015-08-05T10:50:31Z</time>
        <speed>1.580000</speed>
      </trkpt>
      <trkpt lat="46.049092601" lon="7.197475213">
        <ele>1787.400000</ele>
        <time>2015-08-05T10:50:34Z</time>
        <speed>1.589000</speed>
      </trkpt>
      <trkpt lat="46.049078017" lon="7.197543190">
        <ele>1788.200000</ele>
        <time>2015-08-05T10:50:38Z</time>
        <speed>1.532000</speed>
      </trkpt>
      <trkpt lat="46.049073155" lon="7.197562553">
        <ele>1788.600000</ele>
        <time>2015-08-05T10:50:39Z</time>
        <speed>1.553000</speed>
      </trkpt>
      <trkpt lat="46.049066701" lon="7.197580071">
        <ele>1789.000000</ele>
        <time>2015-08-05T10:50:40Z</time>
        <speed>1.553000</speed>
      </trkpt>
      <trkpt lat="46.049065192" lon="7.197598092">
        <ele>1789.600000</ele>
        <time>2015-08-05T10:50:41Z</time>
        <speed>1.539000</speed>
      </trkpt>
      <trkpt lat="46.049064438" lon="7.197618963">
        <ele>1789.600000</ele>
        <time>2015-08-05T10:50:42Z</time>
        <speed>1.511000</speed>
      </trkpt>
      <trkpt lat="46.049059912" lon="7.197639918">
        <ele>1789.600000</ele>
        <time>2015-08-05T10:50:43Z</time>
        <speed>1.511000</speed>
      </trkpt>
      <trkpt lat="46.049042477" lon="7.197694819">
        <ele>1789.600000</ele>
        <time>2015-08-05T10:50:46Z</time>
        <speed>1.483000</speed>
      </trkpt>
      <trkpt lat="46.049014146" lon="7.197763383">
        <ele>1790.000000</ele>
        <time>2015-08-05T10:50:50Z</time>
        <speed>1.476000</speed>
      </trkpt>
      <trkpt lat="46.049003166" lon="7.197782410">
        <ele>1790.400000</ele>
        <time>2015-08-05T10:50:51Z</time>
        <speed>1.444000</speed>
      </trkpt>
      <trkpt lat="46.048990342" lon="7.197801521">
        <ele>1790.800000</ele>
        <time>2015-08-05T10:50:52Z</time>
        <speed>1.496000</speed>
      </trkpt>
      <trkpt lat="46.048978775" lon="7.197818033">
        <ele>1791.200000</ele>
        <time>2015-08-05T10:50:53Z</time>
        <speed>1.480000</speed>
      </trkpt>
      <trkpt lat="46.048951953" lon="7.197829349">
        <ele>1791.600000</ele>
        <time>2015-08-05T10:50:54Z</time>
        <speed>1.480000</speed>
      </trkpt>
      <trkpt lat="46.048937368" lon="7.197861116">
        <ele>1791.600000</ele>
        <time>2015-08-05T10:50:56Z</time>
        <speed>1.501000</speed>
      </trkpt>
      <trkpt lat="46.048826559" lon="7.197924399">
        <ele>1791.600000</ele>
        <time>2015-08-05T10:51:01Z</time>
        <speed>1.508000</speed>
      </trkpt>
      <trkpt lat="46.048812562" lon="7.197964549">
        <ele>1792.000000</ele>
        <time>2015-08-05T10:51:03Z</time>
        <speed>1.529000</speed>
      </trkpt>
      <trkpt lat="46.048805437" lon="7.197982486">
        <ele>1792.400000</ele>
        <time>2015-08-05T10:51:04Z</time>
        <speed>1.476000</speed>
      </trkpt>
      <trkpt lat="46.048799905" lon="7.198000088">
        <ele>1792.800000</ele>
        <time>2015-08-05T10:51:05Z</time>
        <speed>1.476000</speed>
      </trkpt>
      <trkpt lat="46.048794624" lon="7.198018361">
        <ele>1793.200000</ele>
        <time>2015-08-05T10:51:06Z</time>
        <speed>1.496000</speed>
      </trkpt>
      <trkpt lat="46.048791020" lon="7.198032358">
        <ele>1793.600000</ele>
        <time>2015-08-05T10:51:07Z</time>
        <speed>1.522000</speed>
      </trkpt>
      <trkpt lat="46.048788841" lon="7.198048200">
        <ele>1793.600000</ele>
        <time>2015-08-05T10:51:08Z</time>
        <speed>1.522000</speed>
      </trkpt>
      <trkpt lat="46.048759169" lon="7.198199745">
        <ele>1793.600000</ele>
        <time>2015-08-05T10:51:16Z</time>
        <speed>1.508000</speed>
      </trkpt>
      <trkpt lat="46.048750536" lon="7.198227238">
        <ele>1794.000000</ele>
        <time>2015-08-05T10:51:18Z</time>
        <speed>1.470000</speed>
      </trkpt>
      <trkpt lat="46.048742154" lon="7.198245342">
        <ele>1794.400000</ele>
        <time>2015-08-05T10:51:19Z</time>
        <speed>1.470000</speed>
      </trkpt>
      <trkpt lat="46.048734945" lon="7.198261687">
        <ele>1794.800000</ele>
        <time>2015-08-05T10:51:20Z</time>
        <speed>1.451000</speed>
      </trkpt>
      <trkpt lat="46.048732934" lon="7.198282055">
        <ele>1795.200000</ele>
        <time>2015-08-05T10:51:21Z</time>
        <speed>1.508000</speed>
      </trkpt>
      <trkpt lat="46.048727402" lon="7.198303513">
        <ele>1795.600000</ele>
        <time>2015-08-05T10:51:22Z</time>
        <speed>1.507000</speed>
      </trkpt>
      <trkpt lat="46.048684067" lon="7.198415411">
        <ele>1795.600000</ele>
        <time>2015-08-05T10:51:28Z</time>
        <speed>23.893000</speed>
      </trkpt>
      <trkpt lat="46.048679038" lon="7.198431002">
        <ele>1796.000000</ele>
        <time>2015-08-05T10:51:30Z</time>
        <speed>0.000000</speed>
      </trkpt>
      <trkpt lat="46.048669483" lon="7.198457321">
        <ele>1796.400000</ele>
        <time>2015-08-05T10:51:31Z</time>
        <speed>1.472000</speed>
      </trkpt>
      <trkpt lat="46.048662023" lon="7.198466625">
        <ele>1797.000000</ele>
        <time>2015-08-05T10:51:32Z</time>
        <speed>1.497000</speed>
      </trkpt>
      <trkpt lat="46.048650875" lon="7.198478276">
        <ele>1797.400000</ele>
        <time>2015-08-05T10:51:33Z</time>
        <speed>1.497000</speed>
      </trkpt>
      <trkpt lat="46.048637631" lon="7.198485484">
        <ele>1797.800000</ele>
        <time>2015-08-05T10:51:34Z</time>
        <speed>1.481000</speed>
      </trkpt>
      <trkpt lat="46.048556746" lon="7.198510965">
        <ele>1797.800000</ele>
        <time>2015-08-05T10:51:41Z</time>
        <speed>1.556000</speed>
      </trkpt>
      <trkpt lat="46.048527409" lon="7.198494788">
        <ele>1797.800000</ele>
        <time>2015-08-05T10:51:43Z</time>
        <speed>1.457000</speed>
      </trkpt>
      <trkpt lat="46.048502767" lon="7.198487496">
        <ele>1798.200000</ele>
        <time>2015-08-05T10:51:45Z</time>
        <speed>1.472000</speed>
      </trkpt>
      <trkpt lat="46.048489523" lon="7.198482802">
        <ele>1798.600000</ele>
        <time>2015-08-05T10:51:46Z</time>
        <speed>1.542000</speed>
      </trkpt>
      <trkpt lat="46.048476364" lon="7.198474671">
        <ele>1799.000000</ele>
        <time>2015-08-05T10:51:47Z</time>
        <speed>1.495000</speed>
      </trkpt>
      <trkpt lat="46.048461528" lon="7.198468469">
        <ele>1799.400000</ele>
        <time>2015-08-05T10:51:48Z</time>
        <speed>1.495000</speed>
      </trkpt>
      <trkpt lat="46.048453816" lon="7.198462182">
        <ele>1799.800000</ele>
        <time>2015-08-05T10:51:49Z</time>
        <speed>1.444000</speed>
      </trkpt>
      <trkpt lat="46.048371674" lon="7.198419854">
        <ele>1799.800000</ele>
        <time>2015-08-05T10:51:55Z</time>
        <speed>1.489000</speed>
      </trkpt>
      <trkpt lat="46.048359017" lon="7.198421865">
        <ele>1800.200000</ele>
        <time>2015-08-05T10:51:56Z</time>
        <speed>1.482000</speed>
      </trkpt>
      <trkpt lat="46.048346696" lon="7.198423877">
        <ele>1800.600000</ele>
        <time>2015-08-05T10:51:57Z</time>
        <speed>1.482000</speed>
      </trkpt>
      <trkpt lat="46.048328674" lon="7.198427816">
        <ele>1801.000000</ele>
        <time>2015-08-05T10:51:58Z</time>
        <speed>1.465000</speed>
      </trkpt>
      <trkpt lat="46.048316772" lon="7.198430666">
        <ele>1801.600000</ele>
        <time>2015-08-05T10:51:59Z</time>
        <speed>1.510000</speed>
      </trkpt>
      <trkpt lat="46.048309061" lon="7.198435444">
        <ele>1802.000000</ele>
        <time>2015-08-05T10:52:00Z</time>
        <speed>1.514000</speed>
      </trkpt>
      <trkpt lat="46.048294309" lon="7.198443155">
        <ele>1802.000000</ele>
        <time>2015-08-05T10:52:04Z</time>
        <speed>1.396000</speed>
      </trkpt>
      <trkpt lat="46.048294309" lon="7.198447849">
        <ele>1802.000000</ele>
        <time>2015-08-05T10:52:05Z</time>
        <speed>1.396000</speed>
      </trkpt>
      <trkpt lat="46.048297913" lon="7.198449442">
        <ele>1802.000000</ele>
        <time>2015-08-05T10:52:11Z</time>
        <speed>0.000000</speed>
      </trkpt>
      <trkpt lat="46.048297913" lon="7.198449442">
        <ele>1802.000000</ele>
        <time>2015-08-05T10:52:23Z</time>
        <speed>0.000000</speed>
      </trkpt>
      <trkpt lat="46.048297913" lon="7.198449442">
        <ele>1802.000000</ele>
        <time>2015-08-05T10:52:31Z</time>
        <speed>0.000000</speed>
      </trkpt>
      <trkpt lat="46.048297913" lon="7.198449442">
        <ele>1802.000000</ele>
        <time>2015-08-05T10:52:33Z</time>
        <speed>0.000000</speed>
      </trkpt>
      <trkpt lat="46.048297913" lon="7.198449442">
        <ele>1802.000000</ele>
        <time>2015-08-05T10:52:37Z</time>
        <speed>0.000000</speed>
      </trkpt>
      <trkpt lat="46.048297913" lon="7.198449442">
        <ele>1802.000000</ele>
        <time>2015-08-05T10:52:39Z</time>
        <speed>0.000000</speed>
      </trkpt>
      <trkpt lat="46.048297913" lon="7.198449442">
        <ele>1802.000000</ele>
        <time>2015-08-05T10:52:41Z</time>
        <speed>0.000000</speed>
      </trkpt>
      <trkpt lat="46.048300092" lon="7.198444580">
        <ele>1802.000000</ele>
        <time>2015-08-05T10:52:48Z</time>
        <speed>0.000000</speed>
      </trkpt>
      <trkpt lat="46.048300092" lon="7.198444580">
        <ele>1802.000000</ele>
        <time>2015-08-05T10:52:51Z</time>
        <speed>0.000000</speed>
      </trkpt>
      <trkpt lat="46.048300092" lon="7.198444580">
        <ele>1802.000000</ele>
        <time>2015-08-05T10:53:00Z</time>
        <speed>0.000000</speed>
      </trkpt>
      <trkpt lat="46.048300092" lon="7.198444580">
        <ele>1802.000000</ele>
        <time>2015-08-05T10:53:11Z</time>
        <speed>0.000000</speed>
      </trkpt>
      <trkpt lat="46.048300092" lon="7.198444580">
        <ele>1802.000000</ele>
        <time>2015-08-05T10:53:20Z</time>
        <speed>0.000000</speed>
      </trkpt>
      <trkpt lat="46.048300092" lon="7.198444580">
        <ele>1802.000000</ele>
        <time>2015-08-05T10:53:23Z</time>
        <speed>0.000000</speed>
      </trkpt>
      <trkpt lat="46.048301769" lon="7.198445838">
        <ele>1802.400000</ele>
        <time>2015-08-05T10:53:29Z</time>
        <speed>0.000000</speed>
      </trkpt>
      <trkpt lat="46.048301769" lon="7.198445838">
        <ele>1802.800000</ele>
        <time>2015-08-05T10:53:30Z</time>
        <speed>0.000000</speed>
      </trkpt>
      <trkpt lat="46.048301769" lon="7.198445838">
        <ele>1803.600000</ele>
        <time>2015-08-05T10:53:31Z</time>
        <speed>0.000000</speed>
      </trkpt>
      <trkpt lat="46.048301769" lon="7.198445838">
        <ele>1804.000000</ele>
        <time>2015-08-05T10:53:32Z</time>
        <speed>0.000000</speed>
      </trkpt>
      <trkpt lat="46.048301769" lon="7.198445838">
        <ele>1804.000000</ele>
        <time>2015-08-05T10:53:37Z</time>
        <speed>0.000000</speed>
      </trkpt>
      <trkpt lat="46.048301769" lon="7.198445838">
        <ele>1804.000000</ele>
        <time>2015-08-05T10:53:42Z</time>
        <speed>0.000000</speed>
      </trkpt>
      <trkpt lat="46.048301769" lon="7.198445838">
        <ele>1804.000000</ele>
        <time>2015-08-05T10:53:54Z</time>
        <speed>0.000000</speed>
      </trkpt>
      <trkpt lat="46.048301769" lon="7.198445838">
        <ele>1804.000000</ele>
        <time>2015-08-05T10:54:00Z</time>
        <speed>0.000000</speed>
      </trkpt>
      <trkpt lat="46.048295314" lon="7.198439970">
        <ele>1804.000000</ele>
        <time>2015-08-05T10:54:14Z</time>
        <speed>0.000000</speed>
      </trkpt>
      <trkpt lat="46.048295314" lon="7.198439970">
        <ele>1804.000000</ele>
        <time>2015-08-05T10:54:23Z</time>
        <speed>0.000000</speed>
      </trkpt>
      <trkpt lat="46.048295314" lon="7.198439970">
        <ele>1804.000000</ele>
        <time>2015-08-05T10:54:28Z</time>
        <speed>0.000000</speed>
      </trkpt>
      <trkpt lat="46.048295314" lon="7.198439970">
        <ele>1804.000000</ele>
        <time>2015-08-05T10:54:32Z</time>
        <speed>0.000000</speed>
      </trkpt>
      <trkpt lat="46.048295314" lon="7.198439970">
        <ele>1804.000000</ele>
        <time>2015-08-05T10:54:33Z</time>
        <speed>0.000000</speed>
      </trkpt>
      <trkpt lat="46.048295314" lon="7.198439970">
        <ele>1804.000000</ele>
        <time>2015-08-05T10:54:34Z</time>
        <speed>0.000000</speed>
      </trkpt>
      <trkpt lat="46.048295314" lon="7.198439970">
        <ele>1804.000000</ele>
        <time>2015-08-05T10:54:36Z</time>
        <speed>0.000000</speed>
      </trkpt>
      <trkpt lat="46.048295314" lon="7.198439970">
        <ele>1804.000000</ele>
        <time>2015-08-05T10:54:40Z</time>
        <speed>0.000000</speed>
      </trkpt>
      <trkpt lat="46.048297829" lon="7.198441563">
        <ele>1804.000000</ele>
        <time>2015-08-05T10:54:48Z</time>
        <speed>0.000000</speed>
      </trkpt>
      <trkpt lat="46.048297829" lon="7.198441563">
        <ele>1804.000000</ele>
        <time>2015-08-05T10:54:50Z</time>
        <speed>0.000000</speed>
      </trkpt>
      <trkpt lat="46.048297829" lon="7.198441563">
        <ele>1804.000000</ele>
        <time>2015-08-05T10:54:58Z</time>
        <speed>0.000000</speed>
      </trkpt>
      <trkpt lat="46.048297829" lon="7.198441563">
        <ele>1804.000000</ele>
        <time>2015-08-05T10:55:04Z</time>
        <speed>0.000000</speed>
      </trkpt>
      <trkpt lat="46.048297829" lon="7.198441563">
        <ele>1804.000000</ele>
        <time>2015-08-05T10:55:06Z</time>
        <speed>0.000000</speed>
      </trkpt>
      <trkpt lat="46.048297829" lon="7.198441563">
        <ele>1804.000000</ele>
        <time>2015-08-05T10:55:08Z</time>
        <speed>0.000000</speed>
      </trkpt>
      <trkpt lat="46.048297829" lon="7.198441563">
        <ele>1804.000000</ele>
        <time>2015-08-05T10:55:10Z</time>
        <speed>0.000000</speed>
      </trkpt>
      <trkpt lat="46.048297829" lon="7.198441563">
        <ele>1804.000000</ele>
        <time>2015-08-05T10:55:17Z</time>
        <speed>0.000000</speed>
      </trkpt>
      <trkpt lat="46.048300008" lon="7.198438126">
        <ele>1804.000000</ele>
        <time>2015-08-05T10:55:28Z</time>
        <speed>0.000000</speed>
      </trkpt>
      <trkpt lat="46.048300008" lon="7.198438126">
        <ele>1804.000000</ele>
        <time>2015-08-05T10:55:30Z</time>
        <speed>0.000000</speed>
      </trkpt>
      <trkpt lat="46.048300008" lon="7.198438126">
        <ele>1804.000000</ele>
        <time>2015-08-05T10:55:32Z</time>
        <speed>0.000000</speed>
      </trkpt>
      <trkpt lat="46.048300008" lon="7.198438126">
        <ele>1804.000000</ele>
        <time>2015-08-05T10:55:36Z</time>
        <speed>0.000000</speed>
      </trkpt>
      <trkpt lat="46.048300008" lon="7.198438126">
        <ele>1804.000000</ele>
        <time>2015-08-05T10:55:42Z</time>
        <speed>0.000000</speed>
      </trkpt>
      <trkpt lat="46.048300008" lon="7.198438126">
        <ele>1804.000000</ele>
        <time>2015-08-05T10:55:43Z</time>
        <speed>0.000000</speed>
      </trkpt>
      <trkpt lat="46.048300008" lon="7.198438126">
        <ele>1804.000000</ele>
        <time>2015-08-05T10:55:48Z</time>
        <speed>0.000000</speed>
      </trkpt>
      <trkpt lat="46.048300008" lon="7.198438126">
        <ele>1804.000000</ele>
        <time>2015-08-05T10:55:53Z</time>
        <speed>0.000000</speed>
      </trkpt>
      <trkpt lat="46.048300008" lon="7.198438126">
        <ele>1804.000000</ele>
        <time>2015-08-05T10:55:58Z</time>
        <speed>0.000000</speed>
      </trkpt>
      <trkpt lat="46.048300008" lon="7.198438126">
        <ele>1804.000000</ele>
        <time>2015-08-05T10:56:00Z</time>
        <speed>0.000000</speed>
      </trkpt>
      <trkpt lat="46.048300008" lon="7.198438126">
        <ele>1804.000000</ele>
        <time>2015-08-05T10:56:03Z</time>
        <speed>0.000000</speed>
      </trkpt>
      <trkpt lat="46.048300008" lon="7.198438126">
        <ele>1804.000000</ele>
        <time>2015-08-05T10:56:04Z</time>
        <speed>0.000000</speed>
      </trkpt>
      <trkpt lat="46.048298751" lon="7.198438629">
        <ele>1804.000000</ele>
        <time>2015-08-05T10:56:12Z</time>
        <speed>0.000000</speed>
      </trkpt>
      <trkpt lat="46.048298751" lon="7.198438629">
        <ele>1804.000000</ele>
        <time>2015-08-05T10:56:15Z</time>
        <speed>0.000000</speed>
      </trkpt>
      <trkpt lat="46.048298751" lon="7.198438629">
        <ele>1804.000000</ele>
        <time>2015-08-05T10:56:16Z</time>
        <speed>0.000000</speed>
      </trkpt>
      <trkpt lat="46.048300176" lon="7.198445251">
        <ele>1804.000000</ele>
        <time>2015-08-05T10:56:18Z</time>
        <speed>0.000000</speed>
      </trkpt>
      <trkpt lat="46.048300930" lon="7.198445838">
        <ele>1804.000000</ele>
        <time>2015-08-05T10:56:20Z</time>
        <speed>0.000000</speed>
      </trkpt>
      <trkpt lat="46.048300930" lon="7.198445838">
        <ele>1804.000000</ele>
        <time>2015-08-05T10:56:30Z</time>
        <speed>0.000000</speed>
      </trkpt>
      <trkpt lat="46.048300930" lon="7.198445838">
        <ele>1804.000000</ele>
        <time>2015-08-05T10:56:31Z</time>
        <speed>0.000000</speed>
      </trkpt>
      <trkpt lat="46.048281400" lon="7.198486406">
        <ele>1804.000000</ele>
        <time>2015-08-05T10:56:34Z</time>
        <speed>3.418000</speed>
      </trkpt>
      <trkpt lat="46.048280646" lon="7.198511719">
        <ele>1804.000000</ele>
        <time>2015-08-05T10:56:36Z</time>
        <speed>0.000000</speed>
      </trkpt>
      <trkpt lat="46.048282071" lon="7.198545163">
        <ele>1804.000000</ele>
        <time>2015-08-05T10:56:37Z</time>
        <speed>1.258000</speed>
      </trkpt>
      <trkpt lat="46.048278718" lon="7.198581624">
        <ele>1804.400000</ele>
        <time>2015-08-05T10:56:39Z</time>
        <speed>1.420000</speed>
      </trkpt>
      <trkpt lat="46.048280227" lon="7.198602663">
        <ele>1804.800000</ele>
        <time>2015-08-05T10:56:40Z</time>
        <speed>1.416000</speed>
      </trkpt>
      <trkpt lat="46.048277964" lon="7.198620097">
        <ele>1805.200000</ele>
        <time>2015-08-05T10:56:41Z</time>
        <speed>1.377000</speed>
      </trkpt>
      <trkpt lat="46.048274863" lon="7.198644740">
        <ele>1805.600000</ele>
        <time>2015-08-05T10:56:42Z</time>
        <speed>1.377000</speed>
      </trkpt>
      <trkpt lat="46.048266145" lon="7.198660917">
        <ele>1806.000000</ele>
        <time>2015-08-05T10:56:43Z</time>
        <speed>1.466000</speed>
      </trkpt>
      <trkpt lat="46.048269247" lon="7.198730738">
        <ele>1806.000000</ele>
        <time>2015-08-05T10:56:46Z</time>
        <speed>1.507000</speed>
      </trkpt>
      <trkpt lat="46.048243766" lon="7.198833584">
        <ele>1806.400000</ele>
        <time>2015-08-05T10:56:51Z</time>
        <speed>1.518000</speed>
      </trkpt>
      <trkpt lat="46.048242676" lon="7.198850600">
        <ele>1806.800000</ele>
        <time>2015-08-05T10:56:52Z</time>
        <speed>1.518000</speed>
      </trkpt>
      <trkpt lat="46.048237312" lon="7.198869962">
        <ele>1807.200000</ele>
        <time>2015-08-05T10:56:53Z</time>
        <speed>1.524000</speed>
      </trkpt>
      <trkpt lat="46.048224236" lon="7.198879853">
        <ele>1807.600000</ele>
        <time>2015-08-05T10:56:54Z</time>
        <speed>1.522000</speed>
      </trkpt>
      <trkpt lat="46.048217195" lon="7.198898712">
        <ele>1808.000000</ele>
        <time>2015-08-05T10:56:55Z</time>
        <speed>1.522000</speed>
      </trkpt>
      <trkpt lat="46.048217866" lon="7.198927713">
        <ele>1808.000000</ele>
        <time>2015-08-05T10:56:57Z</time>
        <speed>1.488000</speed>
      </trkpt>
      <trkpt lat="46.048184338" lon="7.199024608">
        <ele>1808.000000</ele>
        <time>2015-08-05T10:57:02Z</time>
        <speed>1.631000</speed>
      </trkpt>
      <trkpt lat="46.048168077" lon="7.199105829">
        <ele>1808.400000</ele>
        <time>2015-08-05T10:57:06Z</time>
        <speed>1.624000</speed>
      </trkpt>
      <trkpt lat="46.048158773" lon="7.199126280">
        <ele>1808.800000</ele>
        <time>2015-08-05T10:57:07Z</time>
        <speed>1.598000</speed>
      </trkpt>
      <trkpt lat="46.048155337" lon="7.199146984">
        <ele>1809.200000</ele>
        <time>2015-08-05T10:57:08Z</time>
        <speed>1.598000</speed>
      </trkpt>
      <trkpt lat="46.048151230" lon="7.199167017">
        <ele>1809.600000</ele>
        <time>2015-08-05T10:57:09Z</time>
        <speed>1.608000</speed>
      </trkpt>
      <trkpt lat="46.048143602" lon="7.199186882">
        <ele>1810.000000</ele>
        <time>2015-08-05T10:57:10Z</time>
        <speed>1.602000</speed>
      </trkpt>
      <trkpt lat="46.048153828" lon="7.199253015">
        <ele>1810.000000</ele>
        <time>2015-08-05T10:57:13Z</time>
        <speed>1.604000</speed>
      </trkpt>
      <trkpt lat="46.048147793" lon="7.199292661">
        <ele>1810.000000</ele>
        <time>2015-08-05T10:57:15Z</time>
        <speed>1.630000</speed>
      </trkpt>
      <trkpt lat="46.048140836" lon="7.199353598">
        <ele>1810.000000</ele>
        <time>2015-08-05T10:57:18Z</time>
        <speed>1.635000</speed>
      </trkpt>
      <trkpt lat="46.048144608" lon="7.199372960">
        <ele>1810.400000</ele>
        <time>2015-08-05T10:57:19Z</time>
        <speed>1.560000</speed>
      </trkpt>
      <trkpt lat="46.048149134" lon="7.199387712">
        <ele>1810.800000</ele>
        <time>2015-08-05T10:57:20Z</time>
        <speed>1.560000</speed>
      </trkpt>
      <trkpt lat="46.048156259" lon="7.199407829">
        <ele>1811.200000</ele>
        <time>2015-08-05T10:57:21Z</time>
        <speed>1.554000</speed>
      </trkpt>
      <trkpt lat="46.048154666" lon="7.199425934">
        <ele>1811.600000</ele>
        <time>2015-08-05T10:57:22Z</time>
        <speed>1.610000</speed>
      </trkpt>
      <trkpt lat="46.048164557" lon="7.199441691">
        <ele>1812.000000</ele>
        <time>2015-08-05T10:57:23Z</time>
        <speed>1.541000</speed>
      </trkpt>
      <trkpt lat="46.048166568" lon="7.199500616">
        <ele>1812.000000</ele>
        <time>2015-08-05T10:57:26Z</time>
        <speed>1.535000</speed>
      </trkpt>
      <trkpt lat="46.048157767" lon="7.199585357">
        <ele>1812.000000</ele>
        <time>2015-08-05T10:57:30Z</time>
        <speed>1.616000</speed>
      </trkpt>
      <trkpt lat="46.048151397" lon="7.199668422">
        <ele>1812.600000</ele>
        <time>2015-08-05T10:57:34Z</time>
        <speed>1.679000</speed>
      </trkpt>
      <trkpt lat="46.048145027" lon="7.199688203">
        <ele>1813.000000</ele>
        <time>2015-08-05T10:57:35Z</time>
        <speed>1.727000</speed>
      </trkpt>
      <trkpt lat="46.048135220" lon="7.199707817">
        <ele>1813.400000</ele>
        <time>2015-08-05T10:57:36Z</time>
        <speed>1.619000</speed>
      </trkpt>
      <trkpt lat="46.048122228" lon="7.199725251">
        <ele>1814.000000</ele>
        <time>2015-08-05T10:57:37Z</time>
        <speed>1.585000</speed>
      </trkpt>
      <trkpt lat="46.048113846" lon="7.199744865">
        <ele>1814.400000</ele>
        <time>2015-08-05T10:57:38Z</time>
        <speed>1.585000</speed>
      </trkpt>
      <trkpt lat="46.048086437" lon="7.199818793">
        <ele>1814.400000</ele>
        <time>2015-08-05T10:57:42Z</time>
        <speed>1.624000</speed>
      </trkpt>
      <trkpt lat="46.048063722" lon="7.199883166">
        <ele>1814.400000</ele>
        <time>2015-08-05T10:57:46Z</time>
        <speed>1.624000</speed>
      </trkpt>
      <trkpt lat="46.048055257" lon="7.199897164">
        <ele>1814.800000</ele>
        <time>2015-08-05T10:57:47Z</time>
        <speed>1.608000</speed>
      </trkpt>
      <trkpt lat="46.048044193" lon="7.199910994">
        <ele>1815.200000</ele>
        <time>2015-08-05T10:57:48Z</time>
        <speed>1.590000</speed>
      </trkpt>
      <trkpt lat="46.048032207" lon="7.199925160">
        <ele>1815.600000</ele>
        <time>2015-08-05T10:57:49Z</time>
        <speed>1.632000</speed>
      </trkpt>
      <trkpt lat="46.048020807" lon="7.199935553">
        <ele>1816.000000</ele>
        <time>2015-08-05T10:57:50Z</time>
        <speed>1.608000</speed>
      </trkpt>
      <trkpt lat="46.048007061" lon="7.199943348">
        <ele>1816.400000</ele>
        <time>2015-08-05T10:57:51Z</time>
        <speed>1.608000</speed>
      </trkpt>
      <trkpt lat="46.047975126" lon="7.199927758">
        <ele>1816.400000</ele>
        <time>2015-08-05T10:57:54Z</time>
        <speed>1.665000</speed>
      </trkpt>
      <trkpt lat="46.047981328" lon="7.199876126">
        <ele>1816.400000</ele>
        <time>2015-08-05T10:57:57Z</time>
        <speed>1.654000</speed>
      </trkpt>
      <trkpt lat="46.048013682" lon="7.199838239">
        <ele>1816.800000</ele>
        <time>2015-08-05T10:58:00Z</time>
        <speed>1.842000</speed>
      </trkpt>
      <trkpt lat="46.048021478" lon="7.199825080">
        <ele>1817.200000</ele>
        <time>2015-08-05T10:58:01Z</time>
        <speed>1.729000</speed>
      </trkpt>
      <trkpt lat="46.048030446" lon="7.199810411">
        <ele>1817.600000</ele>
        <time>2015-08-05T10:58:02Z</time>
        <speed>1.563000</speed>
      </trkpt>
      <trkpt lat="46.048039666" lon="7.199794234">
        <ele>1818.000000</ele>
        <time>2015-08-05T10:58:03Z</time>
        <speed>1.626000</speed>
      </trkpt>
      <trkpt lat="46.048045450" lon="7.199779650">
        <ele>1818.400000</ele>
        <time>2015-08-05T10:58:04Z</time>
        <speed>1.590000</speed>
      </trkpt>
      <trkpt lat="46.048060286" lon="7.199741764">
        <ele>1818.400000</ele>
        <time>2015-08-05T10:58:06Z</time>
        <speed>1.631000</speed>
      </trkpt>
      <trkpt lat="46.048073781" lon="7.199686695">
        <ele>1818.400000</ele>
        <time>2015-08-05T10:58:09Z</time>
        <speed>1.647000</speed>
      </trkpt>
      <trkpt lat="46.048078894" lon="7.199666997">
        <ele>1818.400000</ele>
        <time>2015-08-05T10:58:10Z</time>
        <speed>1.647000</speed>
      </trkpt>
      <trkpt lat="46.048063974" lon="7.199559709">
        <ele>1819.000000</ele>
        <time>2015-08-05T10:58:15Z</time>
        <speed>1.647000</speed>
      </trkpt>
      <trkpt lat="46.048066405" lon="7.199538754">
        <ele>1819.400000</ele>
        <time>2015-08-05T10:58:16Z</time>
        <speed>1.636000</speed>
      </trkpt>
      <trkpt lat="46.048066991" lon="7.199518470">
        <ele>1819.800000</ele>
        <time>2015-08-05T10:58:17Z</time>
        <speed>1.648000</speed>
      </trkpt>
      <trkpt lat="46.048053161" lon="7.199499024">
        <ele>1820.200000</ele>
        <time>2015-08-05T10:58:18Z</time>
        <speed>1.751000</speed>
      </trkpt>
      <trkpt lat="46.048048803" lon="7.199485696">
        <ele>1820.600000</ele>
        <time>2015-08-05T10:58:19Z</time>
        <speed>1.718000</speed>
      </trkpt>
      <trkpt lat="46.048047126" lon="7.199472956">
        <ele>1820.600000</ele>
        <time>2015-08-05T10:58:20Z</time>
        <speed>1.718000</speed>
      </trkpt>
      <trkpt lat="46.048008318" lon="7.199397519">
        <ele>1820.600000</ele>
        <time>2015-08-05T10:58:24Z</time>
        <speed>1.641000</speed>
      </trkpt>
      <trkpt lat="46.047990046" lon="7.199348652">
        <ele>1820.600000</ele>
        <time>2015-08-05T10:58:27Z</time>
        <speed>1.579000</speed>
      </trkpt>
      <trkpt lat="46.047971941" lon="7.199291572">
        <ele>1820.600000</ele>
        <time>2015-08-05T10:58:30Z</time>
        <speed>1.545000</speed>
      </trkpt>
      <trkpt lat="46.047967833" lon="7.199274473">
        <ele>1821.000000</ele>
        <time>2015-08-05T10:58:31Z</time>
        <speed>1.582000</speed>
      </trkpt>
      <trkpt lat="46.047963307" lon="7.199249914">
        <ele>1821.400000</ele>
        <time>2015-08-05T10:58:32Z</time>
        <speed>1.585000</speed>
      </trkpt>
      <trkpt lat="46.047954590" lon="7.199230635">
        <ele>1821.800000</ele>
        <time>2015-08-05T10:58:33Z</time>
        <speed>1.585000</speed>
      </trkpt>
      <trkpt lat="46.047952327" lon="7.199216470">
        <ele>1822.200000</ele>
        <time>2015-08-05T10:58:34Z</time>
        <speed>1.584000</speed>
      </trkpt>
      <trkpt lat="46.047947717" lon="7.199202975">
        <ele>1822.800000</ele>
        <time>2015-08-05T10:58:35Z</time>
        <speed>1.571000</speed>
      </trkpt>
      <trkpt lat="46.047943777" lon="7.199181936">
        <ele>1822.800000</ele>
        <time>2015-08-05T10:58:36Z</time>
        <speed>1.648000</speed>
      </trkpt>
      <trkpt lat="46.047932629" lon="7.199167436">
        <ele>1822.800000</ele>
        <time>2015-08-05T10:58:37Z</time>
        <speed>1.648000</speed>
      </trkpt>
      <trkpt lat="46.047909747" lon="7.199053442">
        <ele>1822.800000</ele>
        <time>2015-08-05T10:58:43Z</time>
        <speed>1.545000</speed>
      </trkpt>
      <trkpt lat="46.047895917" lon="7.198966605">
        <ele>1823.200000</ele>
        <time>2015-08-05T10:58:47Z</time>
        <speed>1.560000</speed>
      </trkpt>
      <trkpt lat="46.047888122" lon="7.198945986">
        <ele>1823.600000</ele>
        <time>2015-08-05T10:58:48Z</time>
        <speed>1.663000</speed>
      </trkpt>
      <trkpt lat="46.047887116" lon="7.198927713">
        <ele>1824.000000</ele>
        <time>2015-08-05T10:58:49Z</time>
        <speed>1.663000</speed>
      </trkpt>
      <trkpt lat="46.047886110" lon="7.198909608">
        <ele>1824.400000</ele>
        <time>2015-08-05T10:58:50Z</time>
        <speed>1.577000</speed>
      </trkpt>
      <trkpt lat="46.047886194" lon="7.198889324">
        <ele>1824.800000</ele>
        <time>2015-08-05T10:58:51Z</time>
        <speed>1.598000</speed>
      </trkpt>
      <trkpt lat="46.047885775" lon="7.198811121">
        <ele>1824.800000</ele>
        <time>2015-08-05T10:58:55Z</time>
        <speed>1.590000</speed>
      </trkpt>
      <trkpt lat="46.047886361" lon="7.198712131">
        <ele>1825.200000</ele>
        <time>2015-08-05T10:59:00Z</time>
        <speed>1.567000</speed>
      </trkpt>
      <trkpt lat="46.047885104" lon="7.198693858">
        <ele>1825.600000</ele>
        <time>2015-08-05T10:59:01Z</time>
        <speed>1.642000</speed>
      </trkpt>
      <trkpt lat="46.047885272" lon="7.198675334">
        <ele>1826.000000</ele>
        <time>2015-08-05T10:59:02Z</time>
        <speed>1.642000</speed>
      </trkpt>
      <trkpt lat="46.047887116" lon="7.198654798">
        <ele>1826.400000</ele>
        <time>2015-08-05T10:59:03Z</time>
        <speed>1.635000</speed>
      </trkpt>
      <trkpt lat="46.047894995" lon="7.198640801">
        <ele>1826.800000</ele>
        <time>2015-08-05T10:59:04Z</time>
        <speed>1.590000</speed>
      </trkpt>
      <trkpt lat="46.047900192" lon="7.198570560">
        <ele>1826.800000</ele>
        <time>2015-08-05T10:59:08Z</time>
        <speed>1.478000</speed>
      </trkpt>
      <trkpt lat="46.047903293" lon="7.198523370">
        <ele>1826.800000</ele>
        <time>2015-08-05T10:59:11Z</time>
        <speed>1.471000</speed>
      </trkpt>
      <trkpt lat="46.047886026" lon="7.198464362">
        <ele>1826.800000</ele>
        <time>2015-08-05T10:59:14Z</time>
        <speed>1.524000</speed>
      </trkpt>
      <trkpt lat="46.047879740" lon="7.198449945">
        <ele>1827.200000</ele>
        <time>2015-08-05T10:59:15Z</time>
        <speed>1.541000</speed>
      </trkpt>
      <trkpt lat="46.047873956" lon="7.198427733">
        <ele>1827.800000</ele>
        <time>2015-08-05T10:59:16Z</time>
        <speed>1.541000</speed>
      </trkpt>
      <trkpt lat="46.047868256" lon="7.198408538">
        <ele>1828.200000</ele>
        <time>2015-08-05T10:59:17Z</time>
        <speed>1.536000</speed>
      </trkpt>
      <trkpt lat="46.047871358" lon="7.198394289">
        <ele>1828.600000</ele>
        <time>2015-08-05T10:59:18Z</time>
        <speed>1.461000</speed>
      </trkpt>
      <trkpt lat="46.047860294" lon="7.198377609">
        <ele>1829.000000</ele>
        <time>2015-08-05T10:59:19Z</time>
        <speed>1.520000</speed>
      </trkpt>
      <trkpt lat="46.047851409" lon="7.198361599">
        <ele>1829.000000</ele>
        <time>2015-08-05T10:59:20Z</time>
        <speed>1.520000</speed>
      </trkpt>
      <trkpt lat="46.047815618" lon="7.198341148">
        <ele>1829.000000</ele>
        <time>2015-08-05T10:59:22Z</time>
        <speed>1.457000</speed>
      </trkpt>
      <trkpt lat="46.047801453" lon="7.198332598">
        <ele>1829.000000</ele>
        <time>2015-08-05T10:59:23Z</time>
        <speed>1.457000</speed>
      </trkpt>
      <trkpt lat="46.047788461" lon="7.198316672">
        <ele>1829.000000</ele>
        <time>2015-08-05T10:59:24Z</time>
        <speed>1.524000</speed>
      </trkpt>
      <trkpt lat="46.047764405" lon="7.198243582">
        <ele>1829.000000</ele>
        <time>2015-08-05T10:59:28Z</time>
        <speed>1.511000</speed>
      </trkpt>
      <trkpt lat="46.047759962" lon="7.198225980">
        <ele>1829.600000</ele>
        <time>2015-08-05T10:59:29Z</time>
        <speed>1.506000</speed>
      </trkpt>
      <trkpt lat="46.047756526" lon="7.198206953">
        <ele>1830.000000</ele>
        <time>2015-08-05T10:59:30Z</time>
        <speed>1.479000</speed>
      </trkpt>
      <trkpt lat="46.047754766" lon="7.198192620">
        <ele>1830.400000</ele>
        <time>2015-08-05T10:59:31Z</time>
        <speed>1.479000</speed>
      </trkpt>
      <trkpt lat="46.047752921" lon="7.198171749">
        <ele>1830.800000</ele>
        <time>2015-08-05T10:59:32Z</time>
        <speed>1.474000</speed>
      </trkpt>
      <trkpt lat="46.047760214" lon="7.198148531">
        <ele>1831.200000</ele>
        <time>2015-08-05T10:59:33Z</time>
        <speed>1.475000</speed>
      </trkpt>
      <trkpt lat="46.047761220" lon="7.198104946">
        <ele>1831.200000</ele>
        <time>2015-08-05T10:59:35Z</time>
        <speed>1.463000</speed>
      </trkpt>
      <trkpt lat="46.047760381" lon="7.197990449">
        <ele>1831.200000</ele>
        <time>2015-08-05T10:59:41Z</time>
        <speed>1.698000</speed>
      </trkpt>
      <trkpt lat="46.047782258" lon="7.197950635">
        <ele>1831.600000</ele>
        <time>2015-08-05T10:59:44Z</time>
        <speed>1.636000</speed>
      </trkpt>
      <trkpt lat="46.047794412" lon="7.197941750">
        <ele>1832.000000</ele>
        <time>2015-08-05T10:59:45Z</time>
        <speed>1.664000</speed>
      </trkpt>
      <trkpt lat="46.047807572" lon="7.197926662">
        <ele>1832.400000</ele>
        <time>2015-08-05T10:59:46Z</time>
        <speed>1.588000</speed>
      </trkpt>
      <trkpt lat="46.047821905" lon="7.197911910">
        <ele>1833.000000</ele>
        <time>2015-08-05T10:59:47Z</time>
        <speed>1.588000</speed>
      </trkpt>
      <trkpt lat="46.047832969" lon="7.197895063">
        <ele>1833.400000</ele>
        <time>2015-08-05T10:59:48Z</time>
        <speed>1.563000</speed>
      </trkpt>
      <trkpt lat="46.047916452" lon="7.197821051">
        <ele>1833.400000</ele>
        <time>2015-08-05T10:59:54Z</time>
        <speed>1.558000</speed>
      </trkpt>
      <trkpt lat="46.047929780" lon="7.197802191">
        <ele>1833.400000</ele>
        <time>2015-08-05T10:59:55Z</time>
        <speed>1.507000</speed>
      </trkpt>
      <trkpt lat="46.047960625" lon="7.197764724">
        <ele>1833.800000</ele>
        <time>2015-08-05T10:59:58Z</time>
        <speed>1.523000</speed>
      </trkpt>
      <trkpt lat="46.047969594" lon="7.197750559">
        <ele>1834.200000</ele>
        <time>2015-08-05T10:59:59Z</time>
        <speed>1.523000</speed>
      </trkpt>
      <trkpt lat="46.047975796" lon="7.197735387">
        <ele>1834.600000</ele>
        <time>2015-08-05T11:00:00Z</time>
        <speed>1.532000</speed>
      </trkpt>
      <trkpt lat="46.047984765" lon="7.197722144">
        <ele>1835.000000</ele>
        <time>2015-08-05T11:00:01Z</time>
        <speed>1.533000</speed>
      </trkpt>
      <trkpt lat="46.047995745" lon="7.197703117">
        <ele>1835.400000</ele>
        <time>2015-08-05T11:00:02Z</time>
        <speed>1.530000</speed>
      </trkpt>
      <trkpt lat="46.048007228" lon="7.197682749">
        <ele>1835.400000</ele>
        <time>2015-08-05T11:00:03Z</time>
        <speed>1.530000</speed>
      </trkpt>
      <trkpt lat="46.048011336" lon="7.197661291">
        <ele>1835.400000</ele>
        <time>2015-08-05T11:00:04Z</time>
        <speed>1.568000</speed>
      </trkpt>
      <trkpt lat="46.048023657" lon="7.197577724">
        <ele>1835.400000</ele>
        <time>2015-08-05T11:00:08Z</time>
        <speed>1.582000</speed>
      </trkpt>
      <trkpt lat="46.048012677" lon="7.197556266">
        <ele>1835.400000</ele>
        <time>2015-08-05T11:00:09Z</time>
        <speed>1.558000</speed>
      </trkpt>
      <trkpt lat="46.048001026" lon="7.197504801">
        <ele>1835.800000</ele>
        <time>2015-08-05T11:00:12Z</time>
        <speed>1.654000</speed>
      </trkpt>
      <trkpt lat="46.047994069" lon="7.197488624">
        <ele>1836.400000</ele>
        <time>2015-08-05T11:00:13Z</time>
        <speed>1.593000</speed>
      </trkpt>
      <trkpt lat="46.047987028" lon="7.197472699">
        <ele>1836.800000</ele>
        <time>2015-08-05T11:00:14Z</time>
        <speed>1.535000</speed>
      </trkpt>
      <trkpt lat="46.047982502" lon="7.197458114">
        <ele>1837.200000</ele>
        <time>2015-08-05T11:00:15Z</time>
        <speed>1.535000</speed>
      </trkpt>
      <trkpt lat="46.047983089" lon="7.197439925">
        <ele>1837.600000</ele>
        <time>2015-08-05T11:00:16Z</time>
        <speed>1.505000</speed>
      </trkpt>
      <trkpt lat="46.047981412" lon="7.197385108">
        <ele>1837.600000</ele>
        <time>2015-08-05T11:00:19Z</time>
        <speed>1.474000</speed>
      </trkpt>
      <trkpt lat="46.047979233" lon="7.197310844">
        <ele>1837.600000</ele>
        <time>2015-08-05T11:00:23Z</time>
        <speed>1.554000</speed>
      </trkpt>
      <trkpt lat="46.047994572" lon="7.197265833">
        <ele>1837.600000</ele>
        <time>2015-08-05T11:00:26Z</time>
        <speed>1.592000</speed>
      </trkpt>
      <trkpt lat="46.048019047" lon="7.197215961">
        <ele>1838.000000</ele>
        <time>2015-08-05T11:00:29Z</time>
        <speed>1.568000</speed>
      </trkpt>
      <trkpt lat="46.048029943" lon="7.197201460">
        <ele>1838.400000</ele>
        <time>2015-08-05T11:00:30Z</time>
        <speed>1.568000</speed>
      </trkpt>
      <trkpt lat="46.048040169" lon="7.197185451">
        <ele>1838.800000</ele>
        <time>2015-08-05T11:00:31Z</time>
        <speed>1.576000</speed>
      </trkpt>
      <trkpt lat="46.048044193" lon="7.197169274">
        <ele>1839.200000</ele>
        <time>2015-08-05T11:00:32Z</time>
        <speed>1.590000</speed>
      </trkpt>
      <trkpt lat="46.048050898" lon="7.197149744">
        <ele>1839.600000</ele>
        <time>2015-08-05T11:00:33Z</time>
        <speed>1.603000</speed>
      </trkpt>
      <trkpt lat="46.048111332" lon="7.197040947">
        <ele>1839.600000</ele>
        <time>2015-08-05T11:00:40Z</time>
        <speed>1.571000</speed>
      </trkpt>
      <trkpt lat="46.048142680" lon="7.196962157">
        <ele>1839.600000</ele>
        <time>2015-08-05T11:00:44Z</time>
        <speed>1.604000</speed>
      </trkpt>
      <trkpt lat="46.048155420" lon="7.196925612">
        <ele>1840.000000</ele>
        <time>2015-08-05T11:00:46Z</time>
        <speed>1.633000</speed>
      </trkpt>
      <trkpt lat="46.048170592" lon="7.196912620">
        <ele>1840.400000</ele>
        <time>2015-08-05T11:00:47Z</time>
        <speed>1.604000</speed>
      </trkpt>
      <trkpt lat="46.048178303" lon="7.196902059">
        <ele>1841.000000</ele>
        <time>2015-08-05T11:00:48Z</time>
        <speed>1.622000</speed>
      </trkpt>
      <trkpt lat="46.048189702" lon="7.196883451">
        <ele>1841.400000</ele>
        <time>2015-08-05T11:00:49Z</time>
        <speed>1.574000</speed>
      </trkpt>
      <trkpt lat="46.048201605" lon="7.196865262">
        <ele>1841.800000</ele>
        <time>2015-08-05T11:00:50Z</time>
        <speed>1.664000</speed>
      </trkpt>
      <trkpt lat="46.048217363" lon="7.196782533">
        <ele>1841.800000</ele>
        <time>2015-08-05T11:00:55Z</time>
        <speed>1.540000</speed>
      </trkpt>
      <trkpt lat="46.048246280" lon="7.196678346">
        <ele>1842.200000</ele>
        <time>2015-08-05T11:01:00Z</time>
        <speed>1.669000</speed>
      </trkpt>
      <trkpt lat="46.048246951" lon="7.196658313">
        <ele>1842.600000</ele>
        <time>2015-08-05T11:01:01Z</time>
        <speed>1.640000</speed>
      </trkpt>
      <trkpt lat="46.048253405" lon="7.196638029">
        <ele>1843.000000</ele>
        <time>2015-08-05T11:01:02Z</time>
        <speed>1.640000</speed>
      </trkpt>
      <trkpt lat="46.048260194" lon="7.196619421">
        <ele>1843.400000</ele>
        <time>2015-08-05T11:01:03Z</time>
        <speed>1.620000</speed>
      </trkpt>
      <trkpt lat="46.048261703" lon="7.196595532">
        <ele>1843.800000</ele>
        <time>2015-08-05T11:01:04Z</time>
        <speed>1.682000</speed>
      </trkpt>
      <trkpt lat="46.048269247" lon="7.196547253">
        <ele>1843.800000</ele>
        <time>2015-08-05T11:01:06Z</time>
        <speed>1.664000</speed>
      </trkpt>
      <trkpt lat="46.048280814" lon="7.196499979">
        <ele>1843.800000</ele>
        <time>2015-08-05T11:01:08Z</time>
        <speed>3.726000</speed>
      </trkpt>
      <trkpt lat="46.048286178" lon="7.196435354">
        <ele>1843.800000</ele>
        <time>2015-08-05T11:01:11Z</time>
        <speed>1.789000</speed>
      </trkpt>
      <trkpt lat="46.048288525" lon="7.196411717">
        <ele>1843.800000</ele>
        <time>2015-08-05T11:01:12Z</time>
        <speed>1.822000</speed>
      </trkpt>
      <trkpt lat="46.048298248" lon="7.196317421">
        <ele>1844.200000</ele>
        <time>2015-08-05T11:01:16Z</time>
        <speed>1.801000</speed>
      </trkpt>
      <trkpt lat="46.048303864" lon="7.196296634">
        <ele>1844.600000</ele>
        <time>2015-08-05T11:01:17Z</time>
        <speed>1.807000</speed>
      </trkpt>
      <trkpt lat="46.048309228" lon="7.196272997">
        <ele>1845.000000</ele>
        <time>2015-08-05T11:01:18Z</time>
        <speed>1.768000</speed>
      </trkpt>
      <trkpt lat="46.048316185" lon="7.196250030">
        <ele>1845.400000</ele>
        <time>2015-08-05T11:01:19Z</time>
        <speed>1.780000</speed>
      </trkpt>
      <trkpt lat="46.048320125" lon="7.196226980">
        <ele>1846.000000</ele>
        <time>2015-08-05T11:01:20Z</time>
        <speed>1.781000</speed>
      </trkpt>
      <trkpt lat="46.048329094" lon="7.196210887">
        <ele>1846.000000</ele>
        <time>2015-08-05T11:01:21Z</time>
        <speed>12.722000</speed>
      </trkpt>
      <trkpt lat="46.048348204" lon="7.196185322">
        <ele>1846.000000</ele>
        <time>2015-08-05T11:01:23Z</time>
        <speed>0.000000</speed>
      </trkpt>
      <trkpt lat="46.048364800" lon="7.196143329">
        <ele>1846.000000</ele>
        <time>2015-08-05T11:01:25Z</time>
        <speed>1.549000</speed>
      </trkpt>
      <trkpt lat="46.048366896" lon="7.196096306">
        <ele>1846.000000</ele>
        <time>2015-08-05T11:01:28Z</time>
        <speed>1.584000</speed>
      </trkpt>
      <trkpt lat="46.048373015" lon="7.196082811">
        <ele>1846.400000</ele>
        <time>2015-08-05T11:01:29Z</time>
        <speed>1.533000</speed>
      </trkpt>
      <trkpt lat="46.048380475" lon="7.196068562">
        <ele>1847.200000</ele>
        <time>2015-08-05T11:01:30Z</time>
        <speed>1.533000</speed>
      </trkpt>
      <trkpt lat="46.048389695" lon="7.196055822">
        <ele>1847.600000</ele>
        <time>2015-08-05T11:01:31Z</time>
        <speed>1.484000</speed>
      </trkpt>
      <trkpt lat="46.048399921" lon="7.196043668">
        <ele>1848.000000</ele>
        <time>2015-08-05T11:01:32Z</time>
        <speed>1.654000</speed>
      </trkpt>
      <trkpt lat="46.048415846" lon="7.196017852">
        <ele>1848.000000</ele>
        <time>2015-08-05T11:01:34Z</time>
        <speed>1.404000</speed>
      </trkpt>
      <trkpt lat="46.048454152" lon="7.195958843">
        <ele>1848.000000</ele>
        <time>2015-08-05T11:01:39Z</time>
        <speed>1.534000</speed>
      </trkpt>
      <trkpt lat="46.048467646" lon="7.195935206">
        <ele>1848.400000</ele>
        <time>2015-08-05T11:01:41Z</time>
        <speed>1.532000</speed>
      </trkpt>
      <trkpt lat="46.048476196" lon="7.195925399">
        <ele>1848.800000</ele>
        <time>2015-08-05T11:01:42Z</time>
        <speed>1.586000</speed>
      </trkpt>
      <trkpt lat="46.048487511" lon="7.195914000">
        <ele>1849.200000</ele>
        <time>2015-08-05T11:01:43Z</time>
        <speed>1.613000</speed>
      </trkpt>
      <trkpt lat="46.048495055" lon="7.195898829">
        <ele>1849.600000</ele>
        <time>2015-08-05T11:01:44Z</time>
        <speed>1.553000</speed>
      </trkpt>
      <trkpt lat="46.048501761" lon="7.195885837">
        <ele>1850.200000</ele>
        <time>2015-08-05T11:01:45Z</time>
        <speed>1.686000</speed>
      </trkpt>
      <trkpt lat="46.048521710" lon="7.195845017">
        <ele>1850.200000</ele>
        <time>2015-08-05T11:01:48Z</time>
        <speed>1.731000</speed>
      </trkpt>
      <trkpt lat="46.048540904" lon="7.195819201">
        <ele>1850.200000</ele>
        <time>2015-08-05T11:01:50Z</time>
        <speed>1.652000</speed>
      </trkpt>
      <trkpt lat="46.048558841" lon="7.195804951">
        <ele>1850.200000</ele>
        <time>2015-08-05T11:01:51Z</time>
        <speed>1.652000</speed>
      </trkpt>
      <trkpt lat="46.048612234" lon="7.195772849">
        <ele>1850.200000</ele>
        <time>2015-08-05T11:01:54Z</time>
        <speed>1.605000</speed>
      </trkpt>
      <trkpt lat="46.048649701" lon="7.195733789">
        <ele>1850.600000</ele>
        <time>2015-08-05T11:01:57Z</time>
        <speed>1.523000</speed>
      </trkpt>
      <trkpt lat="46.048655233" lon="7.195722138">
        <ele>1851.000000</ele>
        <time>2015-08-05T11:01:58Z</time>
        <speed>1.523000</speed>
      </trkpt>
      <trkpt lat="46.048665627" lon="7.195711409">
        <ele>1851.400000</ele>
        <time>2015-08-05T11:01:59Z</time>
        <speed>1.506000</speed>
      </trkpt>
      <trkpt lat="46.048677026" lon="7.195696490">
        <ele>1851.800000</ele>
        <time>2015-08-05T11:02:00Z</time>
        <speed>1.542000</speed>
      </trkpt>
      <trkpt lat="46.048687504" lon="7.195686347">
        <ele>1852.200000</ele>
        <time>2015-08-05T11:02:01Z</time>
        <speed>1.564000</speed>
      </trkpt>
      <trkpt lat="46.048756990" lon="7.195610659">
        <ele>1852.200000</ele>
        <time>2015-08-05T11:02:07Z</time>
        <speed>1.599000</speed>
      </trkpt>
      <trkpt lat="46.048772496" lon="7.195584172">
        <ele>1852.200000</ele>
        <time>2015-08-05T11:02:09Z</time>
        <speed>1.603000</speed>
      </trkpt>
      <trkpt lat="46.048789092" lon="7.195515273">
        <ele>1852.600000</ele>
        <time>2015-08-05T11:02:13Z</time>
        <speed>1.571000</speed>
      </trkpt>
      <trkpt lat="46.048790350" lon="7.195506639">
        <ele>1853.000000</ele>
        <time>2015-08-05T11:02:14Z</time>
        <speed>1.571000</speed>
      </trkpt>
      <trkpt lat="46.048791104" lon="7.195495156">
        <ele>1853.400000</ele>
        <time>2015-08-05T11:02:15Z</time>
        <speed>1.554000</speed>
      </trkpt>
      <trkpt lat="46.048796971" lon="7.195480907">
        <ele>1853.800000</ele>
        <time>2015-08-05T11:02:16Z</time>
        <speed>1.576000</speed>
      </trkpt>
      <trkpt lat="46.048804347" lon="7.195470178">
        <ele>1854.200000</ele>
        <time>2015-08-05T11:02:17Z</time>
        <speed>1.556000</speed>
      </trkpt>
      <trkpt lat="46.048820608" lon="7.195442266">
        <ele>1854.200000</ele>
        <time>2015-08-05T11:02:19Z</time>
        <speed>1.589000</speed>
      </trkpt>
      <trkpt lat="46.048823793" lon="7.195429861">
        <ele>1854.200000</ele>
        <time>2015-08-05T11:02:20Z</time>
        <speed>1.630000</speed>
      </trkpt>
      <trkpt lat="46.048859081" lon="7.195382336">
        <ele>1854.200000</ele>
        <time>2015-08-05T11:02:25Z</time>
        <speed>2.106000</speed>
      </trkpt>
      <trkpt lat="46.048935440" lon="7.195338331">
        <ele>1854.200000</ele>
        <time>2015-08-05T11:02:29Z</time>
        <speed>2.110000</speed>
      </trkpt>
      <trkpt lat="46.048979697" lon="7.195304803">
        <ele>1854.200000</ele>
        <time>2015-08-05T11:02:31Z</time>
        <speed>1.636000</speed>
      </trkpt>
      <trkpt lat="46.048991599" lon="7.195289297">
        <ele>1854.600000</ele>
        <time>2015-08-05T11:02:32Z</time>
        <speed>1.576000</speed>
      </trkpt>
      <trkpt lat="46.049005010" lon="7.195271946">
        <ele>1855.200000</ele>
        <time>2015-08-05T11:02:33Z</time>
        <speed>1.631000</speed>
      </trkpt>
      <trkpt lat="46.049015823" lon="7.195259038">
        <ele>1855.600000</ele>
        <time>2015-08-05T11:02:34Z</time>
        <speed>1.631000</speed>
      </trkpt>
      <trkpt lat="46.049027725" lon="7.195240514">
        <ele>1856.000000</ele>
        <time>2015-08-05T11:02:35Z</time>
        <speed>1.756000</speed>
      </trkpt>
      <trkpt lat="46.049039711" lon="7.195222828">
        <ele>1856.400000</ele>
        <time>2015-08-05T11:02:36Z</time>
        <speed>1.635000</speed>
      </trkpt>
      <trkpt lat="46.049054799" lon="7.195188546">
        <ele>1856.400000</ele>
        <time>2015-08-05T11:02:38Z</time>
        <speed>1.685000</speed>
      </trkpt>
      <trkpt lat="46.049081034" lon="7.195136495">
        <ele>1856.400000</ele>
        <time>2015-08-05T11:02:41Z</time>
        <speed>1.640000</speed>
      </trkpt>
      <trkpt lat="46.049123111" lon="7.195075307">
        <ele>1856.400000</ele>
        <time>2015-08-05T11:02:45Z</time>
        <speed>1.578000</speed>
      </trkpt>
      <trkpt lat="46.049155214" lon="7.195052843">
        <ele>1856.800000</ele>
        <time>2015-08-05T11:02:47Z</time>
        <speed>1.572000</speed>
      </trkpt>
      <trkpt lat="46.049171978" lon="7.195041611">
        <ele>1857.200000</ele>
        <time>2015-08-05T11:02:48Z</time>
        <speed>1.591000</speed>
      </trkpt>
      <trkpt lat="46.049189328" lon="7.195029374">
        <ele>1857.600000</ele>
        <time>2015-08-05T11:02:49Z</time>
        <speed>1.487000</speed>
      </trkpt>
      <trkpt lat="46.049207685" lon="7.195017052">
        <ele>1858.000000</ele>
        <time>2015-08-05T11:02:50Z</time>
        <speed>1.511000</speed>
      </trkpt>
      <trkpt lat="46.049223694" lon="7.195004731">
        <ele>1858.600000</ele>
        <time>2015-08-05T11:02:51Z</time>
        <speed>1.511000</speed>
      </trkpt>
      <trkpt lat="46.049239536" lon="7.194995259">
        <ele>1858.600000</ele>
        <time>2015-08-05T11:02:52Z</time>
        <speed>1.599000</speed>
      </trkpt>
      <trkpt lat="46.049354536" lon="7.194934491">
        <ele>1858.600000</ele>
        <time>2015-08-05T11:02:59Z</time>
        <speed>1.619000</speed>
      </trkpt>
      <trkpt lat="46.049396613" lon="7.194905489">
        <ele>1859.000000</ele>
        <time>2015-08-05T11:03:02Z</time>
        <speed>1.564000</speed>
      </trkpt>
      <trkpt lat="46.049408599" lon="7.194893671">
        <ele>1859.400000</ele>
        <time>2015-08-05T11:03:03Z</time>
        <speed>1.564000</speed>
      </trkpt>
      <trkpt lat="46.049419328" lon="7.194880930">
        <ele>1859.800000</ele>
        <time>2015-08-05T11:03:04Z</time>
        <speed>1.571000</speed>
      </trkpt>
      <trkpt lat="46.049429470" lon="7.194870034">
        <ele>1860.200000</ele>
        <time>2015-08-05T11:03:05Z</time>
        <speed>1.605000</speed>
      </trkpt>
      <trkpt lat="46.049441791" lon="7.194858718">
        <ele>1860.600000</ele>
        <time>2015-08-05T11:03:06Z</time>
        <speed>1.589000</speed>
      </trkpt>
      <trkpt lat="46.049447575" lon="7.194845559">
        <ele>1860.600000</ele>
        <time>2015-08-05T11:03:07Z</time>
        <speed>1.589000</speed>
      </trkpt>
      <trkpt lat="46.049498956" lon="7.194778671">
        <ele>1861.000000</ele>
        <time>2015-08-05T11:03:12Z</time>
        <speed>1.473000</speed>
      </trkpt>
      <trkpt lat="46.049506248" lon="7.194759477">
        <ele>1861.400000</ele>
        <time>2015-08-05T11:03:13Z</time>
        <speed>1.486000</speed>
      </trkpt>
      <trkpt lat="46.049513373" lon="7.194737516">
        <ele>1861.800000</ele>
        <time>2015-08-05T11:03:14Z</time>
        <speed>1.486000</speed>
      </trkpt>
      <trkpt lat="46.049517480" lon="7.194714214">
        <ele>1862.200000</ele>
        <time>2015-08-05T11:03:15Z</time>
        <speed>1.483000</speed>
      </trkpt>
      <trkpt lat="46.049515468" lon="7.194691416">
        <ele>1862.600000</ele>
        <time>2015-08-05T11:03:16Z</time>
        <speed>1.500000</speed>
      </trkpt>
      <trkpt lat="46.049533154" lon="7.194616649">
        <ele>1862.600000</ele>
        <time>2015-08-05T11:03:20Z</time>
        <speed>1.508000</speed>
      </trkpt>
      <trkpt lat="46.049544218" lon="7.194515647">
        <ele>1863.000000</ele>
        <time>2015-08-05T11:03:26Z</time>
        <speed>1.407000</speed>
      </trkpt>
      <trkpt lat="46.049545894" lon="7.194498129">
        <ele>1863.400000</ele>
        <time>2015-08-05T11:03:27Z</time>
        <speed>1.515000</speed>
      </trkpt>
      <trkpt lat="46.049545308" lon="7.194476084">
        <ele>1863.800000</ele>
        <time>2015-08-05T11:03:28Z</time>
        <speed>1.515000</speed>
      </trkpt>
      <trkpt lat="46.049541368" lon="7.194455884">
        <ele>1864.200000</ele>
        <time>2015-08-05T11:03:29Z</time>
        <speed>1.444000</speed>
      </trkpt>
      <trkpt lat="46.049543799" lon="7.194436773">
        <ele>1864.800000</ele>
        <time>2015-08-05T11:03:30Z</time>
        <speed>1.519000</speed>
      </trkpt>
      <trkpt lat="46.049547822" lon="7.194400647">
        <ele>1864.800000</ele>
        <time>2015-08-05T11:03:32Z</time>
        <speed>1.506000</speed>
      </trkpt>
      <trkpt lat="46.049582523" lon="7.194269973">
        <ele>1864.800000</ele>
        <time>2015-08-05T11:03:39Z</time>
        <speed>1.569000</speed>
      </trkpt>
      <trkpt lat="46.049599287" lon="7.194234686">
        <ele>1865.200000</ele>
        <time>2015-08-05T11:03:41Z</time>
        <speed>1.567000</speed>
      </trkpt>
      <trkpt lat="46.049608423" lon="7.194220688">
        <ele>1865.600000</ele>
        <time>2015-08-05T11:03:42Z</time>
        <speed>1.615000</speed>
      </trkpt>
      <trkpt lat="46.049618230" lon="7.194209624">
        <ele>1866.000000</ele>
        <time>2015-08-05T11:03:43Z</time>
        <speed>1.578000</speed>
      </trkpt>
      <trkpt lat="46.049630468" lon="7.194202415">
        <ele>1866.400000</ele>
        <time>2015-08-05T11:03:44Z</time>
        <speed>1.578000</speed>
      </trkpt>
      <trkpt lat="46.049642119" lon="7.194193195">
        <ele>1866.800000</ele>
        <time>2015-08-05T11:03:45Z</time>
        <speed>1.588000</speed>
      </trkpt>
      <trkpt lat="46.049653434" lon="7.194183053">
        <ele>1866.800000</ele>
        <time>2015-08-05T11:03:46Z</time>
        <speed>1.553000</speed>
      </trkpt>
      <trkpt lat="46.049721747" lon="7.194122452">
        <ele>1867.200000</ele>
        <time>2015-08-05T11:03:52Z</time>
        <speed>1.534000</speed>
      </trkpt>
      <trkpt lat="46.049735158" lon="7.194112477">
        <ele>1867.600000</ele>
        <time>2015-08-05T11:03:53Z</time>
        <speed>1.498000</speed>
      </trkpt>
      <trkpt lat="46.049746809" lon="7.194106359">
        <ele>1868.000000</ele>
        <time>2015-08-05T11:03:54Z</time>
        <speed>1.558000</speed>
      </trkpt>
      <trkpt lat="46.049757537" lon="7.194102587">
        <ele>1868.400000</ele>
        <time>2015-08-05T11:03:55Z</time>
        <speed>1.558000</speed>
      </trkpt>
      <trkpt lat="46.049768266" lon="7.194099066">
        <ele>1868.800000</ele>
        <time>2015-08-05T11:03:56Z</time>
        <speed>1.591000</speed>
      </trkpt>
      <trkpt lat="46.049799363" lon="7.194096552">
        <ele>1868.800000</ele>
        <time>2015-08-05T11:03:58Z</time>
        <speed>1.515000</speed>
      </trkpt>
      <trkpt lat="46.049827275" lon="7.194084901">
        <ele>1868.800000</ele>
        <time>2015-08-05T11:04:00Z</time>
        <speed>1.543000</speed>
      </trkpt>
      <trkpt lat="46.049871112" lon="7.194066545">
        <ele>1869.200000</ele>
        <time>2015-08-05T11:04:03Z</time>
        <speed>1.509000</speed>
      </trkpt>
      <trkpt lat="46.049882344" lon="7.194059336">
        <ele>1869.800000</ele>
        <time>2015-08-05T11:04:04Z</time>
        <speed>1.524000</speed>
      </trkpt>
      <trkpt lat="46.049894162" lon="7.194058582">
        <ele>1870.200000</ele>
        <time>2015-08-05T11:04:05Z</time>
        <speed>1.558000</speed>
      </trkpt>
      <trkpt lat="46.049907574" lon="7.194053553">
        <ele>1870.600000</ele>
        <time>2015-08-05T11:04:06Z</time>
        <speed>1.520000</speed>
      </trkpt>
      <trkpt lat="46.049918051" lon="7.194045674">
        <ele>1871.000000</ele>
        <time>2015-08-05T11:04:07Z</time>
        <speed>1.520000</speed>
      </trkpt>
      <trkpt lat="46.049930205" lon="7.194038633">
        <ele>1871.000000</ele>
        <time>2015-08-05T11:04:08Z</time>
        <speed>1.521000</speed>
      </trkpt>
      <trkpt lat="46.049996254" lon="7.193988761">
        <ele>1871.000000</ele>
        <time>2015-08-05T11:04:14Z</time>
        <speed>1.463000</speed>
      </trkpt>
      <trkpt lat="46.050036906" lon="7.193959508">
        <ele>1871.400000</ele>
        <time>2015-08-05T11:04:18Z</time>
        <speed>1.553000</speed>
      </trkpt>
      <trkpt lat="46.050048641" lon="7.193953305">
        <ele>1871.800000</ele>
        <time>2015-08-05T11:04:19Z</time>
        <speed>1.517000</speed>
      </trkpt>
      <trkpt lat="46.050059873" lon="7.193948276">
        <ele>1872.200000</ele>
        <time>2015-08-05T11:04:20Z</time>
        <speed>1.528000</speed>
      </trkpt>
      <trkpt lat="46.050072446" lon="7.193944336">
        <ele>1872.600000</ele>
        <time>2015-08-05T11:04:21Z</time>
        <speed>1.528000</speed>
      </trkpt>
      <trkpt lat="46.050084515" lon="7.193936290">
        <ele>1873.000000</ele>
        <time>2015-08-05T11:04:22Z</time>
        <speed>1.540000</speed>
      </trkpt>
      <trkpt lat="46.050105806" lon="7.193917011">
        <ele>1873.000000</ele>
        <time>2015-08-05T11:04:24Z</time>
        <speed>1.531000</speed>
      </trkpt>
      <trkpt lat="46.050133382" lon="7.193905361">
        <ele>1873.000000</ele>
        <time>2015-08-05T11:04:26Z</time>
        <speed>1.521000</speed>
      </trkpt>
      <trkpt lat="46.050146961" lon="7.193903181">
        <ele>1873.000000</ele>
        <time>2015-08-05T11:04:27Z</time>
        <speed>1.540000</speed>
      </trkpt>
      <trkpt lat="46.050184763" lon="7.193887675">
        <ele>1873.000000</ele>
        <time>2015-08-05T11:04:30Z</time>
        <speed>1.555000</speed>
      </trkpt>
      <trkpt lat="46.050221392" lon="7.193872587">
        <ele>1873.400000</ele>
        <time>2015-08-05T11:04:34Z</time>
        <speed>1.607000</speed>
      </trkpt>
      <trkpt lat="46.050233043" lon="7.193869989">
        <ele>1873.800000</ele>
        <time>2015-08-05T11:04:35Z</time>
        <speed>1.625000</speed>
      </trkpt>
      <trkpt lat="46.050246119" lon="7.193867810">
        <ele>1874.200000</ele>
        <time>2015-08-05T11:04:36Z</time>
        <speed>1.560000</speed>
      </trkpt>
      <trkpt lat="46.050256847" lon="7.193859595">
        <ele>1874.600000</ele>
        <time>2015-08-05T11:04:37Z</time>
        <speed>1.560000</speed>
      </trkpt>
      <trkpt lat="46.050268750" lon="7.193853393">
        <ele>1875.200000</ele>
        <time>2015-08-05T11:04:38Z</time>
        <speed>1.570000</speed>
      </trkpt>
      <trkpt lat="46.050306468" lon="7.193841910">
        <ele>1875.200000</ele>
        <time>2015-08-05T11:04:41Z</time>
        <speed>1.535000</speed>
      </trkpt>
      <trkpt lat="46.050372602" lon="7.193813244">
        <ele>1875.200000</ele>
        <time>2015-08-05T11:04:46Z</time>
        <speed>1.534000</speed>
      </trkpt>
      <trkpt lat="46.050420881" lon="7.193779213">
        <ele>1875.600000</ele>
        <time>2015-08-05T11:04:51Z</time>
        <speed>1.572000</speed>
      </trkpt>
      <trkpt lat="46.050429263" lon="7.193771166">
        <ele>1876.000000</ele>
        <time>2015-08-05T11:04:52Z</time>
        <speed>1.566000</speed>
      </trkpt>
      <trkpt lat="46.050441082" lon="7.193766975">
        <ele>1876.400000</ele>
        <time>2015-08-05T11:04:53Z</time>
        <speed>1.566000</speed>
      </trkpt>
      <trkpt lat="46.050452062" lon="7.193761443">
        <ele>1876.800000</ele>
        <time>2015-08-05T11:04:54Z</time>
        <speed>1.620000</speed>
      </trkpt>
      <trkpt lat="46.050462539" lon="7.193757755">
        <ele>1877.200000</ele>
        <time>2015-08-05T11:04:55Z</time>
        <speed>1.541000</speed>
      </trkpt>
      <trkpt lat="46.050483578" lon="7.193738561">
        <ele>1877.200000</ele>
        <time>2015-08-05T11:04:57Z</time>
        <speed>1.591000</speed>
      </trkpt>
      <trkpt lat="46.050509059" lon="7.193720204">
        <ele>1877.200000</ele>
        <time>2015-08-05T11:04:59Z</time>
        <speed>1.571000</speed>
      </trkpt>
      <trkpt lat="46.050541916" lon="7.193690197">
        <ele>1877.200000</ele>
        <time>2015-08-05T11:05:02Z</time>
        <speed>1.635000</speed>
      </trkpt>
      <trkpt lat="46.050572342" lon="7.193650299">
        <ele>1877.200000</ele>
        <time>2015-08-05T11:05:05Z</time>
        <speed>1.596000</speed>
      </trkpt>
      <trkpt lat="46.050583490" lon="7.193635463">
        <ele>1877.600000</ele>
        <time>2015-08-05T11:05:06Z</time>
        <speed>1.596000</speed>
      </trkpt>
      <trkpt lat="46.050592207" lon="7.193624064">
        <ele>1878.000000</ele>
        <time>2015-08-05T11:05:07Z</time>
        <speed>1.626000</speed>
      </trkpt>
      <trkpt lat="46.050599248" lon="7.193613922">
        <ele>1878.400000</ele>
        <time>2015-08-05T11:05:08Z</time>
        <speed>1.599000</speed>
      </trkpt>
      <trkpt lat="46.050607630" lon="7.193601852">
        <ele>1878.800000</ele>
        <time>2015-08-05T11:05:09Z</time>
        <speed>1.591000</speed>
      </trkpt>
      <trkpt lat="46.050626406" lon="7.193585842">
        <ele>1879.200000</ele>
        <time>2015-08-05T11:05:10Z</time>
        <speed>1.591000</speed>
      </trkpt>
      <trkpt lat="46.050660688" lon="7.193562876">
        <ele>1879.200000</ele>
        <time>2015-08-05T11:05:12Z</time>
        <speed>1.604000</speed>
      </trkpt>
      <trkpt lat="46.050733191" lon="7.193459276">
        <ele>1879.200000</ele>
        <time>2015-08-05T11:05:19Z</time>
        <speed>1.536000</speed>
      </trkpt>
      <trkpt lat="46.050747356" lon="7.193445529">
        <ele>1879.600000</ele>
        <time>2015-08-05T11:05:20Z</time>
        <speed>1.534000</speed>
      </trkpt>
      <trkpt lat="46.050757918" lon="7.193430358">
        <ele>1880.000000</ele>
        <time>2015-08-05T11:05:21Z</time>
        <speed>1.588000</speed>
      </trkpt>
      <trkpt lat="46.050765042" lon="7.193415271">
        <ele>1880.600000</ele>
        <time>2015-08-05T11:05:22Z</time>
        <speed>1.588000</speed>
      </trkpt>
      <trkpt lat="46.050775855" lon="7.193402363">
        <ele>1881.000000</ele>
        <time>2015-08-05T11:05:23Z</time>
        <speed>1.578000</speed>
      </trkpt>
      <trkpt lat="46.050784656" lon="7.193387862">
        <ele>1881.400000</ele>
        <time>2015-08-05T11:05:24Z</time>
        <speed>1.555000</speed>
      </trkpt>
      <trkpt lat="46.050802174" lon="7.193350730">
        <ele>1881.400000</ele>
        <time>2015-08-05T11:05:26Z</time>
        <speed>1.520000</speed>
      </trkpt>
      <trkpt lat="46.050821033" lon="7.193205053">
        <ele>1881.400000</ele>
        <time>2015-08-05T11:05:33Z</time>
        <speed>1.627000</speed>
      </trkpt>
      <trkpt lat="46.050805275" lon="7.193150738">
        <ele>1881.800000</ele>
        <time>2015-08-05T11:05:36Z</time>
        <speed>1.490000</speed>
      </trkpt>
      <trkpt lat="46.050797396" lon="7.193135650">
        <ele>1882.600000</ele>
        <time>2015-08-05T11:05:37Z</time>
        <speed>1.490000</speed>
      </trkpt>
      <trkpt lat="46.050789685" lon="7.193121066">
        <ele>1883.000000</ele>
        <time>2015-08-05T11:05:38Z</time>
        <speed>1.516000</speed>
      </trkpt>
      <trkpt lat="46.050782644" lon="7.193106314">
        <ele>1883.600000</ele>
        <time>2015-08-05T11:05:39Z</time>
        <speed>1.498000</speed>
      </trkpt>
      <trkpt lat="46.050766300" lon="7.193077648">
        <ele>1883.600000</ele>
        <time>2015-08-05T11:05:41Z</time>
        <speed>1.541000</speed>
      </trkpt>
      <trkpt lat="46.050715170" lon="7.192994415">
        <ele>1883.600000</ele>
        <time>2015-08-05T11:05:47Z</time>
        <speed>1.524000</speed>
      </trkpt>
      <trkpt lat="46.050702848" lon="7.192964827">
        <ele>1883.600000</ele>
        <time>2015-08-05T11:05:49Z</time>
        <speed>1.515000</speed>
      </trkpt>
      <trkpt lat="46.050696562" lon="7.192950662">
        <ele>1884.000000</ele>
        <time>2015-08-05T11:05:50Z</time>
        <speed>1.495000</speed>
      </trkpt>
      <trkpt lat="46.050690192" lon="7.192934652">
        <ele>1884.400000</ele>
        <time>2015-08-05T11:05:51Z</time>
        <speed>1.495000</speed>
      </trkpt>
      <trkpt lat="46.050683402" lon="7.192920990">
        <ele>1884.800000</ele>
        <time>2015-08-05T11:05:52Z</time>
        <speed>1.494000</speed>
      </trkpt>
      <trkpt lat="46.050676026" lon="7.192907579">
        <ele>1885.200000</ele>
        <time>2015-08-05T11:05:53Z</time>
        <speed>1.506000</speed>
      </trkpt>
      <trkpt lat="46.050667561" lon="7.192893078">
        <ele>1885.600000</ele>
        <time>2015-08-05T11:05:54Z</time>
        <speed>1.531000</speed>
      </trkpt>
      <trkpt lat="46.050645852" lon="7.192853935">
        <ele>1885.600000</ele>
        <time>2015-08-05T11:05:57Z</time>
        <speed>1.513000</speed>
      </trkpt>
      <trkpt lat="46.050638475" lon="7.192829124">
        <ele>1885.600000</ele>
        <time>2015-08-05T11:05:59Z</time>
        <speed>1.439000</speed>
      </trkpt>
      <trkpt lat="46.050620035" lon="7.192752430">
        <ele>1885.600000</ele>
        <time>2015-08-05T11:06:03Z</time>
        <speed>1.572000</speed>
      </trkpt>
      <trkpt lat="46.050620873" lon="7.192736420">
        <ele>1885.600000</ele>
        <time>2015-08-05T11:06:04Z</time>
        <speed>1.553000</speed>
      </trkpt>
      <trkpt lat="46.050613833" lon="7.192702893">
        <ele>1886.000000</ele>
        <time>2015-08-05T11:06:06Z</time>
        <speed>1.392000</speed>
      </trkpt>
      <trkpt lat="46.050615593" lon="7.192685542">
        <ele>1886.400000</ele>
        <time>2015-08-05T11:06:07Z</time>
        <speed>1.419000</speed>
      </trkpt>
      <trkpt lat="46.050617102" lon="7.192667270">
        <ele>1886.800000</ele>
        <time>2015-08-05T11:06:08Z</time>
        <speed>1.419000</speed>
      </trkpt>
      <trkpt lat="46.050618191" lon="7.192647153">
        <ele>1887.200000</ele>
        <time>2015-08-05T11:06:09Z</time>
        <speed>1.384000</speed>
      </trkpt>
      <trkpt lat="46.050621879" lon="7.192631144">
        <ele>1887.800000</ele>
        <time>2015-08-05T11:06:10Z</time>
        <speed>1.513000</speed>
      </trkpt>
      <trkpt lat="46.050651970" lon="7.192544056">
        <ele>1887.800000</ele>
        <time>2015-08-05T11:06:15Z</time>
        <speed>1.510000</speed>
      </trkpt>
      <trkpt lat="46.050676781" lon="7.192498291">
        <ele>1887.800000</ele>
        <time>2015-08-05T11:06:18Z</time>
        <speed>1.509000</speed>
      </trkpt>
      <trkpt lat="46.050702262" lon="7.192462248">
        <ele>1888.200000</ele>
        <time>2015-08-05T11:06:21Z</time>
        <speed>1.488000</speed>
      </trkpt>
      <trkpt lat="46.050711230" lon="7.192450849">
        <ele>1888.600000</ele>
        <time>2015-08-05T11:06:22Z</time>
        <speed>1.458000</speed>
      </trkpt>
      <trkpt lat="46.050718104" lon="7.192437773">
        <ele>1889.000000</ele>
        <time>2015-08-05T11:06:23Z</time>
        <speed>1.384000</speed>
      </trkpt>
      <trkpt lat="46.050725647" lon="7.192428385">
        <ele>1889.600000</ele>
        <time>2015-08-05T11:06:24Z</time>
        <speed>1.384000</speed>
      </trkpt>
      <trkpt lat="46.050732940" lon="7.192417321">
        <ele>1890.000000</ele>
        <time>2015-08-05T11:06:25Z</time>
        <speed>1.438000</speed>
      </trkpt>
      <trkpt lat="46.050799995" lon="7.192340292">
        <ele>1890.000000</ele>
        <time>2015-08-05T11:06:32Z</time>
        <speed>1.433000</speed>
      </trkpt>
      <trkpt lat="46.050829751" lon="7.192307938">
        <ele>1890.000000</ele>
        <time>2015-08-05T11:06:35Z</time>
        <speed>1.433000</speed>
      </trkpt>
      <trkpt lat="46.050843413" lon="7.192291258">
        <ele>1890.400000</ele>
        <time>2015-08-05T11:06:37Z</time>
        <speed>1.482000</speed>
      </trkpt>
      <trkpt lat="46.050856154" lon="7.192285809">
        <ele>1890.800000</ele>
        <time>2015-08-05T11:06:38Z</time>
        <speed>1.482000</speed>
      </trkpt>
      <trkpt lat="46.050863865" lon="7.192275751">
        <ele>1891.400000</ele>
        <time>2015-08-05T11:06:39Z</time>
        <speed>1.416000</speed>
      </trkpt>
      <trkpt lat="46.050872498" lon="7.192264352">
        <ele>1891.800000</ele>
        <time>2015-08-05T11:06:40Z</time>
        <speed>1.442000</speed>
      </trkpt>
      <trkpt lat="46.050881132" lon="7.192254796">
        <ele>1892.200000</ele>
        <time>2015-08-05T11:06:41Z</time>
        <speed>1.442000</speed>
      </trkpt>
      <trkpt lat="46.050889094" lon="7.192245492">
        <ele>1892.200000</ele>
        <time>2015-08-05T11:06:42Z</time>
        <speed>1.525000</speed>
      </trkpt>
      <trkpt lat="46.050904852" lon="7.192224538">
        <ele>1892.200000</ele>
        <time>2015-08-05T11:06:44Z</time>
        <speed>1.516000</speed>
      </trkpt>
      <trkpt lat="46.050913150" lon="7.192219592">
        <ele>1892.200000</ele>
        <time>2015-08-05T11:06:45Z</time>
        <speed>1.516000</speed>
      </trkpt>
      <trkpt lat="46.050944080" lon="7.192198386">
        <ele>1892.200000</ele>
        <time>2015-08-05T11:06:48Z</time>
        <speed>1.602000</speed>
      </trkpt>
      <trkpt lat="46.050959251" lon="7.192187657">
        <ele>1892.600000</ele>
        <time>2015-08-05T11:06:50Z</time>
        <speed>1.546000</speed>
      </trkpt>
      <trkpt lat="46.050963945" lon="7.192177264">
        <ele>1893.000000</ele>
        <time>2015-08-05T11:06:51Z</time>
        <speed>1.524000</speed>
      </trkpt>
      <trkpt lat="46.050966292" lon="7.192174581">
        <ele>1893.400000</ele>
        <time>2015-08-05T11:06:52Z</time>
        <speed>1.524000</speed>
      </trkpt>
      <trkpt lat="46.050972411" lon="7.192169049">
        <ele>1893.800000</ele>
        <time>2015-08-05T11:06:53Z</time>
        <speed>1.552000</speed>
      </trkpt>
      <trkpt lat="46.050983475" lon="7.192159494">
        <ele>1894.200000</ele>
        <time>2015-08-05T11:06:54Z</time>
        <speed>1.534000</speed>
      </trkpt>
      <trkpt lat="46.050988588" lon="7.192163685">
        <ele>1894.200000</ele>
        <time>2015-08-05T11:06:55Z</time>
        <speed>1.475000</speed>
      </trkpt>
      <trkpt lat="46.051006525" lon="7.192145748">
        <ele>1894.200000</ele>
        <time>2015-08-05T11:06:57Z</time>
        <speed>1.500000</speed>
      </trkpt>
      <trkpt lat="46.051097804" lon="7.192089757">
        <ele>1894.200000</ele>
        <time>2015-08-05T11:07:04Z</time>
        <speed>1.575000</speed>
      </trkpt>
      <trkpt lat="46.051124710" lon="7.192072406">
        <ele>1894.600000</ele>
        <time>2015-08-05T11:07:06Z</time>
        <speed>1.546000</speed>
      </trkpt>
      <trkpt lat="46.051138875" lon="7.192063856">
        <ele>1895.000000</ele>
        <time>2015-08-05T11:07:07Z</time>
        <speed>1.546000</speed>
      </trkpt>
      <trkpt lat="46.051154046" lon="7.192060671">
        <ele>1895.600000</ele>
        <time>2015-08-05T11:07:08Z</time>
        <speed>1.558000</speed>
      </trkpt>
      <trkpt lat="46.051168547" lon="7.192055139">
        <ele>1896.000000</ele>
        <time>2015-08-05T11:07:09Z</time>
        <speed>1.575000</speed>
      </trkpt>
      <trkpt lat="46.051184305" lon="7.192050697">
        <ele>1896.400000</ele>
        <time>2015-08-05T11:07:10Z</time>
        <speed>1.666000</speed>
      </trkpt>
      <trkpt lat="46.051220347" lon="7.192041896">
        <ele>1896.400000</ele>
        <time>2015-08-05T11:07:12Z</time>
        <speed>1.607000</speed>
      </trkpt>
      <trkpt lat="46.051319170" lon="7.191972410">
        <ele>1896.400000</ele>
        <time>2015-08-05T11:07:20Z</time>
        <speed>1.525000</speed>
      </trkpt>
      <trkpt lat="46.051342472" lon="7.191936703">
        <ele>1896.800000</ele>
        <time>2015-08-05T11:07:22Z</time>
        <speed>1.452000</speed>
      </trkpt>
      <trkpt lat="46.051357643" lon="7.191918933">
        <ele>1897.200000</ele>
        <time>2015-08-05T11:07:23Z</time>
        <speed>1.511000</speed>
      </trkpt>
      <trkpt lat="46.051373233" lon="7.191900996">
        <ele>1897.600000</ele>
        <time>2015-08-05T11:07:24Z</time>
        <speed>1.616000</speed>
      </trkpt>
      <trkpt lat="46.051381783" lon="7.191879203">
        <ele>1898.000000</ele>
        <time>2015-08-05T11:07:25Z</time>
        <speed>1.615000</speed>
      </trkpt>
      <trkpt lat="46.051392763" lon="7.191862272">
        <ele>1898.400000</ele>
        <time>2015-08-05T11:07:26Z</time>
        <speed>1.604000</speed>
      </trkpt>
      <trkpt lat="46.051411455" lon="7.191820697">
        <ele>1898.400000</ele>
        <time>2015-08-05T11:07:28Z</time>
        <speed>1.540000</speed>
      </trkpt>
      <trkpt lat="46.051453532" lon="7.191655909">
        <ele>1898.800000</ele>
        <time>2015-08-05T11:07:37Z</time>
        <speed>1.578000</speed>
      </trkpt>
      <trkpt lat="46.051455962" lon="7.191636966">
        <ele>1899.200000</ele>
        <time>2015-08-05T11:07:38Z</time>
        <speed>1.578000</speed>
      </trkpt>
      <trkpt lat="46.051462249" lon="7.191615592">
        <ele>1899.600000</ele>
        <time>2015-08-05T11:07:39Z</time>
        <speed>1.489000</speed>
      </trkpt>
      <trkpt lat="46.051465266" lon="7.191588267">
        <ele>1900.000000</ele>
        <time>2015-08-05T11:07:40Z</time>
        <speed>1.514000</speed>
      </trkpt>
      <trkpt lat="46.051467949" lon="7.191570581">
        <ele>1900.400000</ele>
        <time>2015-08-05T11:07:41Z</time>
        <speed>1.514000</speed>
      </trkpt>
      <trkpt lat="46.051489490" lon="7.191506208">
        <ele>1900.400000</ele>
        <time>2015-08-05T11:07:45Z</time>
        <speed>1.535000</speed>
      </trkpt>
      <trkpt lat="46.051517067" lon="7.191408224">
        <ele>1900.800000</ele>
        <time>2015-08-05T11:07:51Z</time>
        <speed>1.469000</speed>
      </trkpt>
      <trkpt lat="46.051521006" lon="7.191390454">
        <ele>1901.400000</ele>
        <time>2015-08-05T11:07:52Z</time>
        <speed>1.469000</speed>
      </trkpt>
      <trkpt lat="46.051523772" lon="7.191371260">
        <ele>1901.800000</ele>
        <time>2015-08-05T11:07:53Z</time>
        <speed>1.510000</speed>
      </trkpt>
      <trkpt lat="46.051526622" lon="7.191350473">
        <ele>1902.200000</ele>
        <time>2015-08-05T11:07:54Z</time>
        <speed>1.474000</speed>
      </trkpt>
      <trkpt lat="46.051531986" lon="7.191333709">
        <ele>1902.600000</ele>
        <time>2015-08-05T11:07:55Z</time>
        <speed>1.488000</speed>
      </trkpt>
      <trkpt lat="46.051537351" lon="7.191218374">
        <ele>1902.600000</ele>
        <time>2015-08-05T11:08:01Z</time>
        <speed>1.568000</speed>
      </trkpt>
      <trkpt lat="46.051559311" lon="7.191083258">
        <ele>1903.000000</ele>
        <time>2015-08-05T11:08:08Z</time>
        <speed>1.580000</speed>
      </trkpt>
      <trkpt lat="46.051564676" lon="7.191066745">
        <ele>1903.400000</ele>
        <time>2015-08-05T11:08:09Z</time>
        <speed>1.568000</speed>
      </trkpt>
      <trkpt lat="46.051572303" lon="7.191050484">
        <ele>1903.800000</ele>
        <time>2015-08-05T11:08:10Z</time>
        <speed>1.510000</speed>
      </trkpt>
      <trkpt lat="46.051581607" lon="7.191036403">
        <ele>1904.200000</ele>
        <time>2015-08-05T11:08:11Z</time>
        <speed>1.510000</speed>
      </trkpt>
      <trkpt lat="46.051591330" lon="7.191025087">
        <ele>1904.600000</ele>
        <time>2015-08-05T11:08:12Z</time>
        <speed>1.558000</speed>
      </trkpt>
      <trkpt lat="46.051646902" lon="7.191004971">
        <ele>1904.600000</ele>
        <time>2015-08-05T11:08:16Z</time>
        <speed>1.530000</speed>
      </trkpt>
      <trkpt lat="46.051704821" lon="7.191001618">
        <ele>1905.000000</ele>
        <time>2015-08-05T11:08:20Z</time>
        <speed>1.620000</speed>
      </trkpt>
      <trkpt lat="46.051719741" lon="7.190997678">
        <ele>1905.600000</ele>
        <time>2015-08-05T11:08:21Z</time>
        <speed>1.591000</speed>
      </trkpt>
      <trkpt lat="46.051733906" lon="7.191000361">
        <ele>1906.000000</ele>
        <time>2015-08-05T11:08:22Z</time>
        <speed>1.608000</speed>
      </trkpt>
      <trkpt lat="46.051746144" lon="7.191004049">
        <ele>1906.400000</ele>
        <time>2015-08-05T11:08:23Z</time>
        <speed>1.608000</speed>
      </trkpt>
      <trkpt lat="46.051758633" lon="7.191009245">
        <ele>1906.800000</ele>
        <time>2015-08-05T11:08:24Z</time>
        <speed>1.578000</speed>
      </trkpt>
      <trkpt lat="46.051849325" lon="7.191000612">
        <ele>1906.800000</ele>
        <time>2015-08-05T11:08:31Z</time>
        <speed>1.555000</speed>
      </trkpt>
      <trkpt lat="46.051897018" lon="7.190994074">
        <ele>1907.200000</ele>
        <time>2015-08-05T11:08:34Z</time>
        <speed>1.553000</speed>
      </trkpt>
      <trkpt lat="46.051908501" lon="7.190991476">
        <ele>1907.600000</ele>
        <time>2015-08-05T11:08:35Z</time>
        <speed>1.553000</speed>
      </trkpt>
      <trkpt lat="46.051918644" lon="7.190985106">
        <ele>1908.000000</ele>
        <time>2015-08-05T11:08:36Z</time>
        <speed>1.648000</speed>
      </trkpt>
      <trkpt lat="46.051925684" lon="7.190973203">
        <ele>1908.400000</ele>
        <time>2015-08-05T11:08:37Z</time>
        <speed>1.562000</speed>
      </trkpt>
      <trkpt lat="46.051935156" lon="7.190963229">
        <ele>1908.800000</ele>
        <time>2015-08-05T11:08:38Z</time>
        <speed>1.527000</speed>
      </trkpt>
      <trkpt lat="46.052006654" lon="7.190878572">
        <ele>1908.800000</ele>
        <time>2015-08-05T11:08:45Z</time>
        <speed>1.637000</speed>
      </trkpt>
      <trkpt lat="46.052042528" lon="7.190829370">
        <ele>1909.600000</ele>
        <time>2015-08-05T11:08:49Z</time>
        <speed>1.575000</speed>
      </trkpt>
      <trkpt lat="46.052051078" lon="7.190816462">
        <ele>1910.000000</ele>
        <time>2015-08-05T11:08:50Z</time>
        <speed>1.577000</speed>
      </trkpt>
      <trkpt lat="46.052063483" lon="7.190801039">
        <ele>1910.400000</ele>
        <time>2015-08-05T11:08:51Z</time>
        <speed>1.577000</speed>
      </trkpt>
      <trkpt lat="46.052067925" lon="7.190781006">
        <ele>1910.800000</ele>
        <time>2015-08-05T11:08:52Z</time>
        <speed>1.513000</speed>
      </trkpt>
      <trkpt lat="46.052093490" lon="7.190732307">
        <ele>1910.800000</ele>
        <time>2015-08-05T11:08:56Z</time>
        <speed>1.531000</speed>
      </trkpt>
      <trkpt lat="46.052140513" lon="7.190670281">
        <ele>1911.200000</ele>
        <time>2015-08-05T11:09:01Z</time>
        <speed>1.544000</speed>
      </trkpt>
      <trkpt lat="46.052150236" lon="7.190654104">
        <ele>1911.600000</ele>
        <time>2015-08-05T11:09:02Z</time>
        <speed>1.544000</speed>
      </trkpt>
      <trkpt lat="46.052157109" lon="7.190641112">
        <ele>1912.000000</ele>
        <time>2015-08-05T11:09:03Z</time>
        <speed>1.495000</speed>
      </trkpt>
      <trkpt lat="46.052170268" lon="7.190624684">
        <ele>1912.400000</ele>
        <time>2015-08-05T11:09:04Z</time>
        <speed>3.230000</speed>
      </trkpt>
      <trkpt lat="46.052171442" lon="7.190620241">
        <ele>1912.800000</ele>
        <time>2015-08-05T11:09:05Z</time>
        <speed>0.000000</speed>
      </trkpt>
      <trkpt lat="46.052212932" lon="7.190573135">
        <ele>1912.800000</ele>
        <time>2015-08-05T11:09:08Z</time>
        <speed>1.697000</speed>
      </trkpt>
      <trkpt lat="46.052227433" lon="7.190569950">
        <ele>1912.800000</ele>
        <time>2015-08-05T11:09:09Z</time>
        <speed>2.025000</speed>
      </trkpt>
      <trkpt lat="46.052275964" lon="7.190529130">
        <ele>1913.200000</ele>
        <time>2015-08-05T11:09:13Z</time>
        <speed>1.507000</speed>
      </trkpt>
      <trkpt lat="46.052288285" lon="7.190513037">
        <ele>1913.800000</ele>
        <time>2015-08-05T11:09:14Z</time>
        <speed>1.534000</speed>
      </trkpt>
      <trkpt lat="46.052301110" lon="7.190503817">
        <ele>1914.200000</ele>
        <time>2015-08-05T11:09:15Z</time>
        <speed>1.504000</speed>
      </trkpt>
      <trkpt lat="46.052312509" lon="7.190493675">
        <ele>1914.600000</ele>
        <time>2015-08-05T11:09:16Z</time>
        <speed>1.504000</speed>
      </trkpt>
      <trkpt lat="46.052323238" lon="7.190481772">
        <ele>1915.000000</ele>
        <time>2015-08-05T11:09:17Z</time>
        <speed>1.433000</speed>
      </trkpt>
      <trkpt lat="46.052369841" lon="7.190450927">
        <ele>1915.000000</ele>
        <time>2015-08-05T11:09:21Z</time>
        <speed>1.509000</speed>
      </trkpt>
      <trkpt lat="46.052435220" lon="7.190414549">
        <ele>1915.400000</ele>
        <time>2015-08-05T11:09:26Z</time>
        <speed>1.478000</speed>
      </trkpt>
      <trkpt lat="46.052453074" lon="7.190407257">
        <ele>1915.800000</ele>
        <time>2015-08-05T11:09:27Z</time>
        <speed>1.509000</speed>
      </trkpt>
      <trkpt lat="46.052466317" lon="7.190401893">
        <ele>1916.200000</ele>
        <time>2015-08-05T11:09:28Z</time>
        <speed>1.555000</speed>
      </trkpt>
      <trkpt lat="46.052481069" lon="7.190398289">
        <ele>1916.600000</ele>
        <time>2015-08-05T11:09:29Z</time>
        <speed>1.543000</speed>
      </trkpt>
      <trkpt lat="46.052488864" lon="7.190395942">
        <ele>1917.000000</ele>
        <time>2015-08-05T11:09:30Z</time>
        <speed>1.543000</speed>
      </trkpt>
      <trkpt lat="46.052545358" lon="7.190368365">
        <ele>1917.000000</ele>
        <time>2015-08-05T11:09:34Z</time>
        <speed>1.522000</speed>
      </trkpt>
      <trkpt lat="46.052615012" lon="7.190317152">
        <ele>1917.400000</ele>
        <time>2015-08-05T11:09:40Z</time>
        <speed>1.576000</speed>
      </trkpt>
      <trkpt lat="46.052620125" lon="7.190302400">
        <ele>1917.800000</ele>
        <time>2015-08-05T11:09:41Z</time>
        <speed>1.576000</speed>
      </trkpt>
      <trkpt lat="46.052632949" lon="7.190287731">
        <ele>1918.200000</ele>
        <time>2015-08-05T11:09:42Z</time>
        <speed>1.621000</speed>
      </trkpt>
      <trkpt lat="46.052647785" lon="7.190274991">
        <ele>1918.600000</ele>
        <time>2015-08-05T11:09:43Z</time>
        <speed>1.555000</speed>
      </trkpt>
      <trkpt lat="46.052657760" lon="7.190266609">
        <ele>1919.200000</ele>
        <time>2015-08-05T11:09:44Z</time>
        <speed>1.555000</speed>
      </trkpt>
      <trkpt lat="46.052680559" lon="7.190234003">
        <ele>1919.200000</ele>
        <time>2015-08-05T11:09:46Z</time>
        <speed>1.613000</speed>
      </trkpt>
      <trkpt lat="46.052713248" lon="7.190193938">
        <ele>1919.200000</ele>
        <time>2015-08-05T11:09:49Z</time>
        <speed>1.599000</speed>
      </trkpt>
      <trkpt lat="46.052720121" lon="7.190177342">
        <ele>1919.200000</ele>
        <time>2015-08-05T11:09:50Z</time>
        <speed>1.476000</speed>
      </trkpt>
      <trkpt lat="46.052752224" lon="7.190086063">
        <ele>1919.200000</ele>
        <time>2015-08-05T11:09:55Z</time>
        <speed>1.570000</speed>
      </trkpt>
      <trkpt lat="46.052754068" lon="7.190062845">
        <ele>1919.200000</ele>
        <time>2015-08-05T11:09:56Z</time>
        <speed>1.575000</speed>
      </trkpt>
      <trkpt lat="46.052760522" lon="7.190044405">
        <ele>1919.600000</ele>
        <time>2015-08-05T11:09:57Z</time>
        <speed>1.575000</speed>
      </trkpt>
      <trkpt lat="46.052762114" lon="7.190016074">
        <ele>1920.000000</ele>
        <time>2015-08-05T11:09:58Z</time>
        <speed>1.610000</speed>
      </trkpt>
      <trkpt lat="46.052764378" lon="7.189995454">
        <ele>1920.400000</ele>
        <time>2015-08-05T11:09:59Z</time>
        <speed>1.628000</speed>
      </trkpt>
      <trkpt lat="46.052760019" lon="7.189968884">
        <ele>1920.800000</ele>
        <time>2015-08-05T11:10:00Z</time>
        <speed>1.655000</speed>
      </trkpt>
      <trkpt lat="46.052756666" lon="7.189945079">
        <ele>1921.200000</ele>
        <time>2015-08-05T11:10:01Z</time>
        <speed>1.632000</speed>
      </trkpt>
      <trkpt lat="46.052754738" lon="7.189924962">
        <ele>1921.200000</ele>
        <time>2015-08-05T11:10:02Z</time>
        <speed>1.632000</speed>
      </trkpt>
      <trkpt lat="46.052753649" lon="7.189907277">
        <ele>1921.200000</ele>
        <time>2015-08-05T11:10:03Z</time>
        <speed>1.615000</speed>
      </trkpt>
      <trkpt lat="46.052725150" lon="7.189816752">
        <ele>1921.200000</ele>
        <time>2015-08-05T11:10:08Z</time>
        <speed>1.622000</speed>
      </trkpt>
      <trkpt lat="46.052697071" lon="7.189727904">
        <ele>1921.600000</ele>
        <time>2015-08-05T11:10:13Z</time>
        <speed>1.576000</speed>
      </trkpt>
      <trkpt lat="46.052691120" lon="7.189710972">
        <ele>1922.200000</ele>
        <time>2015-08-05T11:10:14Z</time>
        <speed>1.576000</speed>
      </trkpt>
      <trkpt lat="46.052684079" lon="7.189693119">
        <ele>1922.600000</ele>
        <time>2015-08-05T11:10:15Z</time>
        <speed>1.514000</speed>
      </trkpt>
      <trkpt lat="46.052677793" lon="7.189678534">
        <ele>1923.000000</ele>
        <time>2015-08-05T11:10:16Z</time>
        <speed>1.517000</speed>
      </trkpt>
      <trkpt lat="46.052672763" lon="7.189662860">
        <ele>1923.400000</ele>
        <time>2015-08-05T11:10:17Z</time>
        <speed>1.598000</speed>
      </trkpt>
      <trkpt lat="46.052628423" lon="7.189610976">
        <ele>1923.400000</ele>
        <time>2015-08-05T11:10:21Z</time>
        <speed>1.607000</speed>
      </trkpt>
      <trkpt lat="46.052609815" lon="7.189585663">
        <ele>1923.800000</ele>
        <time>2015-08-05T11:10:23Z</time>
        <speed>1.560000</speed>
      </trkpt>
      <trkpt lat="46.052596907" lon="7.189573258">
        <ele>1924.200000</ele>
        <time>2015-08-05T11:10:24Z</time>
        <speed>1.591000</speed>
      </trkpt>
      <trkpt lat="46.052586681" lon="7.189567474">
        <ele>1924.600000</ele>
        <time>2015-08-05T11:10:25Z</time>
        <speed>1.660000</speed>
      </trkpt>
      <trkpt lat="46.052574863" lon="7.189550627">
        <ele>1925.000000</ele>
        <time>2015-08-05T11:10:26Z</time>
        <speed>1.647000</speed>
      </trkpt>
      <trkpt lat="46.052567319" lon="7.189540987">
        <ele>1925.400000</ele>
        <time>2015-08-05T11:10:27Z</time>
        <speed>1.647000</speed>
      </trkpt>
      <trkpt lat="46.052503449" lon="7.189433783">
        <ele>1925.400000</ele>
        <time>2015-08-05T11:10:34Z</time>
        <speed>1.516000</speed>
      </trkpt>
      <trkpt lat="46.052499342" lon="7.189354993">
        <ele>1925.400000</ele>
        <time>2015-08-05T11:10:38Z</time>
        <speed>1.530000</speed>
      </trkpt>
      <trkpt lat="46.052500599" lon="7.189322639">
        <ele>1925.800000</ele>
        <time>2015-08-05T11:10:40Z</time>
        <speed>1.504000</speed>
      </trkpt>
      <trkpt lat="46.052503952" lon="7.189304366">
        <ele>1926.400000</ele>
        <time>2015-08-05T11:10:41Z</time>
        <speed>1.520000</speed>
      </trkpt>
      <trkpt lat="46.052510825" lon="7.189286932">
        <ele>1926.800000</ele>
        <time>2015-08-05T11:10:42Z</time>
        <speed>1.524000</speed>
      </trkpt>
      <trkpt lat="46.052514932" lon="7.189268157">
        <ele>1927.200000</ele>
        <time>2015-08-05T11:10:43Z</time>
        <speed>1.524000</speed>
      </trkpt>
      <trkpt lat="46.052521721" lon="7.189248208">
        <ele>1927.600000</ele>
        <time>2015-08-05T11:10:44Z</time>
        <speed>1.511000</speed>
      </trkpt>
      <trkpt lat="46.052559021" lon="7.189166903">
        <ele>1927.600000</ele>
        <time>2015-08-05T11:10:49Z</time>
        <speed>1.559000</speed>
      </trkpt>
      <trkpt lat="46.052590202" lon="7.189077049">
        <ele>1928.000000</ele>
        <time>2015-08-05T11:10:54Z</time>
        <speed>1.592000</speed>
      </trkpt>
      <trkpt lat="46.052592046" lon="7.189057268">
        <ele>1928.400000</ele>
        <time>2015-08-05T11:10:55Z</time>
        <speed>1.636000</speed>
      </trkpt>
      <trkpt lat="46.052602607" lon="7.189041342">
        <ele>1928.800000</ele>
        <time>2015-08-05T11:10:56Z</time>
        <speed>1.537000</speed>
      </trkpt>
      <trkpt lat="46.052612749" lon="7.189028853">
        <ele>1929.200000</ele>
        <time>2015-08-05T11:10:57Z</time>
        <speed>1.537000</speed>
      </trkpt>
      <trkpt lat="46.052619790" lon="7.189013933">
        <ele>1929.600000</ele>
        <time>2015-08-05T11:10:58Z</time>
        <speed>1.585000</speed>
      </trkpt>
      <trkpt lat="46.052643091" lon="7.188966324">
        <ele>1929.600000</ele>
        <time>2015-08-05T11:11:01Z</time>
        <speed>1.580000</speed>
      </trkpt>
      <trkpt lat="46.052705956" lon="7.188836740">
        <ele>1930.000000</ele>
        <time>2015-08-05T11:11:09Z</time>
        <speed>1.564000</speed>
      </trkpt>
      <trkpt lat="46.052714421" lon="7.188823497">
        <ele>1930.400000</ele>
        <time>2015-08-05T11:11:10Z</time>
        <speed>1.564000</speed>
      </trkpt>
      <trkpt lat="46.052717355" lon="7.188801452">
        <ele>1930.800000</ele>
        <time>2015-08-05T11:11:11Z</time>
        <speed>1.664000</speed>
      </trkpt>
      <trkpt lat="46.052723558" lon="7.188781503">
        <ele>1931.200000</ele>
        <time>2015-08-05T11:11:12Z</time>
        <speed>1.580000</speed>
      </trkpt>
      <trkpt lat="46.052736298" lon="7.188764991">
        <ele>1931.800000</ele>
        <time>2015-08-05T11:11:13Z</time>
        <speed>1.569000</speed>
      </trkpt>
      <trkpt lat="46.052751386" lon="7.188728865">
        <ele>1931.800000</ele>
        <time>2015-08-05T11:11:15Z</time>
        <speed>1.549000</speed>
      </trkpt>
      <trkpt lat="46.052799246" lon="7.188618810">
        <ele>1931.800000</ele>
        <time>2015-08-05T11:11:22Z</time>
        <speed>1.584000</speed>
      </trkpt>
      <trkpt lat="46.052803521" lon="7.188600119">
        <ele>1931.800000</ele>
        <time>2015-08-05T11:11:23Z</time>
        <speed>1.584000</speed>
      </trkpt>
      <trkpt lat="46.052833444" lon="7.188551588">
        <ele>1932.200000</ele>
        <time>2015-08-05T11:11:26Z</time>
        <speed>1.564000</speed>
      </trkpt>
      <trkpt lat="46.052831098" lon="7.188527951">
        <ele>1932.600000</ele>
        <time>2015-08-05T11:11:27Z</time>
        <speed>1.564000</speed>
      </trkpt>
      <trkpt lat="46.052837552" lon="7.188507583">
        <ele>1933.000000</ele>
        <time>2015-08-05T11:11:28Z</time>
        <speed>1.655000</speed>
      </trkpt>
      <trkpt lat="46.052848280" lon="7.188494674">
        <ele>1933.400000</ele>
        <time>2015-08-05T11:11:29Z</time>
        <speed>1.620000</speed>
      </trkpt>
      <trkpt lat="46.052854315" lon="7.188472127">
        <ele>1933.800000</ele>
        <time>2015-08-05T11:11:30Z</time>
        <speed>1.620000</speed>
      </trkpt>
      <trkpt lat="46.052873678" lon="7.188416136">
        <ele>1933.800000</ele>
        <time>2015-08-05T11:11:33Z</time>
        <speed>1.710000</speed>
      </trkpt>
      <trkpt lat="46.052904691" lon="7.188367186">
        <ele>1933.800000</ele>
        <time>2015-08-05T11:11:36Z</time>
        <speed>1.652000</speed>
      </trkpt>
      <trkpt lat="46.052927825" lon="7.188314296">
        <ele>1933.800000</ele>
        <time>2015-08-05T11:11:39Z</time>
        <speed>1.693000</speed>
      </trkpt>
      <trkpt lat="46.052952803" lon="7.188267776">
        <ele>1934.200000</ele>
        <time>2015-08-05T11:11:42Z</time>
        <speed>1.621000</speed>
      </trkpt>
      <trkpt lat="46.052960430" lon="7.188254030">
        <ele>1934.600000</ele>
        <time>2015-08-05T11:11:43Z</time>
        <speed>1.647000</speed>
      </trkpt>
      <trkpt lat="46.052967639" lon="7.188236344">
        <ele>1935.000000</ele>
        <time>2015-08-05T11:11:44Z</time>
        <speed>1.663000</speed>
      </trkpt>
      <trkpt lat="46.052977194" lon="7.188222263">
        <ele>1935.400000</ele>
        <time>2015-08-05T11:11:45Z</time>
        <speed>1.663000</speed>
      </trkpt>
      <trkpt lat="46.052984319" lon="7.188199883">
        <ele>1935.800000</ele>
        <time>2015-08-05T11:11:46Z</time>
        <speed>1.584000</speed>
      </trkpt>
      <trkpt lat="46.053029749" lon="7.188104665">
        <ele>1935.800000</ele>
        <time>2015-08-05T11:11:51Z</time>
        <speed>1.638000</speed>
      </trkpt>
      <trkpt lat="46.053088003" lon="7.187967872">
        <ele>1936.400000</ele>
        <time>2015-08-05T11:11:59Z</time>
        <speed>1.679000</speed>
      </trkpt>
      <trkpt lat="46.053094122" lon="7.187947504">
        <ele>1936.800000</ele>
        <time>2015-08-05T11:12:00Z</time>
        <speed>1.652000</speed>
      </trkpt>
      <trkpt lat="46.053102252" lon="7.187923113">
        <ele>1937.200000</ele>
        <time>2015-08-05T11:12:01Z</time>
        <speed>1.652000</speed>
      </trkpt>
      <trkpt lat="46.053110718" lon="7.187905091">
        <ele>1937.600000</ele>
        <time>2015-08-05T11:12:02Z</time>
        <speed>1.678000</speed>
      </trkpt>
      <trkpt lat="46.053116418" lon="7.187885478">
        <ele>1938.000000</ele>
        <time>2015-08-05T11:12:03Z</time>
        <speed>1.857000</speed>
      </trkpt>
      <trkpt lat="46.053138127" lon="7.187850190">
        <ele>1938.000000</ele>
        <time>2015-08-05T11:12:05Z</time>
        <speed>1.728000</speed>
      </trkpt>
      <trkpt lat="46.053200907" lon="7.187726138">
        <ele>1938.000000</ele>
        <time>2015-08-05T11:12:12Z</time>
        <speed>1.712000</speed>
      </trkpt>
      <trkpt lat="46.053212306" lon="7.187682636">
        <ele>1938.000000</ele>
        <time>2015-08-05T11:12:14Z</time>
        <speed>1.751000</speed>
      </trkpt>
      <trkpt lat="46.053209457" lon="7.187641229">
        <ele>1938.400000</ele>
        <time>2015-08-05T11:12:16Z</time>
        <speed>1.802000</speed>
      </trkpt>
      <trkpt lat="46.053198895" lon="7.187619017">
        <ele>1938.800000</ele>
        <time>2015-08-05T11:12:17Z</time>
        <speed>1.824000</speed>
      </trkpt>
      <trkpt lat="46.053185903" lon="7.187605522">
        <ele>1939.200000</ele>
        <time>2015-08-05T11:12:18Z</time>
        <speed>1.734000</speed>
      </trkpt>
      <trkpt lat="46.053170648" lon="7.187602672">
        <ele>1939.600000</ele>
        <time>2015-08-05T11:12:19Z</time>
        <speed>1.734000</speed>
      </trkpt>
      <trkpt lat="46.053157070" lon="7.187616083">
        <ele>1940.000000</ele>
        <time>2015-08-05T11:12:20Z</time>
        <speed>1.765000</speed>
      </trkpt>
      <trkpt lat="46.053126476" lon="7.187664531">
        <ele>1940.000000</ele>
        <time>2015-08-05T11:12:23Z</time>
        <speed>1.657000</speed>
      </trkpt>
      <trkpt lat="46.053057744" lon="7.187767796">
        <ele>1940.000000</ele>
        <time>2015-08-05T11:12:29Z</time>
        <speed>1.751000</speed>
      </trkpt>
      <trkpt lat="46.053050703" lon="7.187783889">
        <ele>1940.000000</ele>
        <time>2015-08-05T11:12:30Z</time>
        <speed>1.751000</speed>
      </trkpt>
      <trkpt lat="46.053046848" lon="7.187793109">
        <ele>1940.800000</ele>
        <time>2015-08-05T11:12:31Z</time>
        <speed>1.720000</speed>
      </trkpt>
      <trkpt lat="46.053043914" lon="7.187792606">
        <ele>1941.200000</ele>
        <time>2015-08-05T11:12:32Z</time>
        <speed>1.570000</speed>
      </trkpt>
      <trkpt lat="46.053045255" lon="7.187789756">
        <ele>1941.600000</ele>
        <time>2015-08-05T11:12:33Z</time>
        <speed>1.570000</speed>
      </trkpt>
      <trkpt lat="46.053044668" lon="7.187790846">
        <ele>1942.000000</ele>
        <time>2015-08-05T11:12:34Z</time>
        <speed>1.273000</speed>
      </trkpt>
      <trkpt lat="46.053045088" lon="7.187789840">
        <ele>1942.000000</ele>
        <time>2015-08-05T11:12:35Z</time>
        <speed>1.273000</speed>
      </trkpt>
      <trkpt lat="46.053045171" lon="7.187790092">
        <ele>1942.000000</ele>
        <time>2015-08-05T11:12:46Z</time>
        <speed>0.000000</speed>
      </trkpt>
      <trkpt lat="46.053045171" lon="7.187790092">
        <ele>1942.000000</ele>
        <time>2015-08-05T11:12:51Z</time>
        <speed>0.000000</speed>
      </trkpt>
      <trkpt lat="46.053045171" lon="7.187790092">
        <ele>1942.000000</ele>
        <time>2015-08-05T11:12:56Z</time>
        <speed>0.000000</speed>
      </trkpt>
      <trkpt lat="46.053045171" lon="7.187790092">
        <ele>1942.000000</ele>
        <time>2015-08-05T11:12:59Z</time>
        <speed>0.000000</speed>
      </trkpt>
      <trkpt lat="46.053045171" lon="7.187790092">
        <ele>1942.000000</ele>
        <time>2015-08-05T11:13:01Z</time>
        <speed>0.000000</speed>
      </trkpt>
      <trkpt lat="46.053045171" lon="7.187790092">
        <ele>1942.000000</ele>
        <time>2015-08-05T11:13:04Z</time>
        <speed>0.000000</speed>
      </trkpt>
      <trkpt lat="46.053045171" lon="7.187790092">
        <ele>1942.000000</ele>
        <time>2015-08-05T11:13:07Z</time>
        <speed>0.000000</speed>
      </trkpt>
      <trkpt lat="46.053045423" lon="7.187795288">
        <ele>1942.000000</ele>
        <time>2015-08-05T11:13:15Z</time>
        <speed>0.000000</speed>
      </trkpt>
      <trkpt lat="46.053045423" lon="7.187795288">
        <ele>1942.000000</ele>
        <time>2015-08-05T11:13:16Z</time>
        <speed>0.000000</speed>
      </trkpt>
      <trkpt lat="46.053045423" lon="7.187795288">
        <ele>1942.000000</ele>
        <time>2015-08-05T11:13:23Z</time>
        <speed>0.000000</speed>
      </trkpt>
      <trkpt lat="46.053045423" lon="7.187795288">
        <ele>1942.000000</ele>
        <time>2015-08-05T11:13:28Z</time>
        <speed>0.000000</speed>
      </trkpt>
      <trkpt lat="46.053045423" lon="7.187795288">
        <ele>1942.000000</ele>
        <time>2015-08-05T11:13:43Z</time>
        <speed>0.000000</speed>
      </trkpt>
      <trkpt lat="46.053045423" lon="7.187795288">
        <ele>1942.000000</ele>
        <time>2015-08-05T11:13:45Z</time>
        <speed>0.000000</speed>
      </trkpt>
      <trkpt lat="46.053045423" lon="7.187795288">
        <ele>1942.000000</ele>
        <time>2015-08-05T11:13:47Z</time>
        <speed>0.000000</speed>
      </trkpt>
      <trkpt lat="46.053045423" lon="7.187795288">
        <ele>1942.000000</ele>
        <time>2015-08-05T11:13:49Z</time>
        <speed>0.000000</speed>
      </trkpt>
      <trkpt lat="46.053043411" lon="7.187798390">
        <ele>1942.000000</ele>
        <time>2015-08-05T11:13:58Z</time>
        <speed>0.000000</speed>
      </trkpt>
      <trkpt lat="46.053043411" lon="7.187798390">
        <ele>1942.000000</ele>
        <time>2015-08-05T11:14:06Z</time>
        <speed>0.000000</speed>
      </trkpt>
      <trkpt lat="46.053043411" lon="7.187798390">
        <ele>1942.000000</ele>
        <time>2015-08-05T11:14:15Z</time>
        <speed>0.000000</speed>
      </trkpt>
      <trkpt lat="46.053043411" lon="7.187798390">
        <ele>1942.000000</ele>
        <time>2015-08-05T11:14:27Z</time>
        <speed>0.000000</speed>
      </trkpt>
      <trkpt lat="46.053043411" lon="7.187798390">
        <ele>1942.000000</ele>
        <time>2015-08-05T11:14:29Z</time>
        <speed>0.000000</speed>
      </trkpt>
      <trkpt lat="46.053043411" lon="7.187798390">
        <ele>1942.000000</ele>
        <time>2015-08-05T11:14:31Z</time>
        <speed>0.000000</speed>
      </trkpt>
      <trkpt lat="46.053041232" lon="7.187798893">
        <ele>1942.800000</ele>
        <time>2015-08-05T11:14:34Z</time>
        <speed>0.000000</speed>
      </trkpt>
      <trkpt lat="46.053041232" lon="7.187798893">
        <ele>1943.200000</ele>
        <time>2015-08-05T11:14:35Z</time>
        <speed>0.000000</speed>
      </trkpt>
      <trkpt lat="46.053041232" lon="7.187798893">
        <ele>1943.600000</ele>
        <time>2015-08-05T11:14:36Z</time>
        <speed>0.000000</speed>
      </trkpt>
      <trkpt lat="46.053041232" lon="7.187798893">
        <ele>1944.000000</ele>
        <time>2015-08-05T11:14:37Z</time>
        <speed>0.000000</speed>
      </trkpt>
      <trkpt lat="46.053041232" lon="7.187798893">
        <ele>1944.000000</ele>
        <time>2015-08-05T11:14:38Z</time>
        <speed>0.000000</speed>
      </trkpt>
      <trkpt lat="46.053041232" lon="7.187798893">
        <ele>1944.000000</ele>
        <time>2015-08-05T11:14:47Z</time>
        <speed>0.000000</speed>
      </trkpt>
      <trkpt lat="46.053041232" lon="7.187798893">
        <ele>1944.000000</ele>
        <time>2015-08-05T11:14:52Z</time>
        <speed>0.000000</speed>
      </trkpt>
      <trkpt lat="46.053041232" lon="7.187798893">
        <ele>1944.000000</ele>
        <time>2015-08-05T11:14:57Z</time>
        <speed>0.000000</speed>
      </trkpt>
      <trkpt lat="46.053041232" lon="7.187798893">
        <ele>1944.000000</ele>
        <time>2015-08-05T11:15:00Z</time>
        <speed>0.000000</speed>
      </trkpt>
      <trkpt lat="46.053041232" lon="7.187798893">
        <ele>1944.000000</ele>
        <time>2015-08-05T11:15:04Z</time>
        <speed>0.000000</speed>
      </trkpt>
      <trkpt lat="46.053041232" lon="7.187798893">
        <ele>1944.000000</ele>
        <time>2015-08-05T11:15:06Z</time>
        <speed>0.000000</speed>
      </trkpt>
      <trkpt lat="46.053041232" lon="7.187798893">
        <ele>1944.000000</ele>
        <time>2015-08-05T11:15:10Z</time>
        <speed>0.000000</speed>
      </trkpt>
      <trkpt lat="46.053039807" lon="7.187797635">
        <ele>1944.000000</ele>
        <time>2015-08-05T11:15:20Z</time>
        <speed>0.000000</speed>
      </trkpt>
      <trkpt lat="46.053039807" lon="7.187797635">
        <ele>1944.000000</ele>
        <time>2015-08-05T11:15:25Z</time>
        <speed>0.000000</speed>
      </trkpt>
      <trkpt lat="46.053039807" lon="7.187797635">
        <ele>1944.000000</ele>
        <time>2015-08-05T11:15:30Z</time>
        <speed>0.000000</speed>
      </trkpt>
      <trkpt lat="46.053039807" lon="7.187797635">
        <ele>1944.000000</ele>
        <time>2015-08-05T11:15:36Z</time>
        <speed>0.000000</speed>
      </trkpt>
      <trkpt lat="46.053039807" lon="7.187797635">
        <ele>1944.000000</ele>
        <time>2015-08-05T11:15:40Z</time>
        <speed>0.000000</speed>
      </trkpt>
      <trkpt lat="46.053039807" lon="7.187797635">
        <ele>1944.000000</ele>
        <time>2015-08-05T11:15:45Z</time>
        <speed>0.000000</speed>
      </trkpt>
      <trkpt lat="46.053042405" lon="7.187807610">
        <ele>1944.000000</ele>
        <time>2015-08-05T11:15:59Z</time>
        <speed>0.000000</speed>
      </trkpt>
      <trkpt lat="46.053042405" lon="7.187807610">
        <ele>1944.000000</ele>
        <time>2015-08-05T11:16:10Z</time>
        <speed>0.000000</speed>
      </trkpt>
      <trkpt lat="46.053042405" lon="7.187807610">
        <ele>1944.000000</ele>
        <time>2015-08-05T11:16:11Z</time>
        <speed>0.000000</speed>
      </trkpt>
      <trkpt lat="46.053042405" lon="7.187807610">
        <ele>1944.000000</ele>
        <time>2015-08-05T11:16:13Z</time>
        <speed>0.000000</speed>
      </trkpt>
      <trkpt lat="46.053042405" lon="7.187807610">
        <ele>1944.000000</ele>
        <time>2015-08-05T11:16:16Z</time>
        <speed>0.000000</speed>
      </trkpt>
      <trkpt lat="46.053042405" lon="7.187807610">
        <ele>1944.000000</ele>
        <time>2015-08-05T11:16:24Z</time>
        <speed>0.000000</speed>
      </trkpt>
      <trkpt lat="46.053042405" lon="7.187807610">
        <ele>1944.000000</ele>
        <time>2015-08-05T11:16:27Z</time>
        <speed>0.000000</speed>
      </trkpt>
      <trkpt lat="46.053042405" lon="7.187807610">
        <ele>1944.000000</ele>
        <time>2015-08-05T11:16:30Z</time>
        <speed>0.000000</speed>
      </trkpt>
      <trkpt lat="46.053043579" lon="7.187807526">
        <ele>1944.000000</ele>
        <time>2015-08-05T11:16:33Z</time>
        <speed>0.000000</speed>
      </trkpt>
      <trkpt lat="46.053043579" lon="7.187807526">
        <ele>1944.000000</ele>
        <time>2015-08-05T11:16:36Z</time>
        <speed>0.000000</speed>
      </trkpt>
      <trkpt lat="46.053043579" lon="7.187807526">
        <ele>1944.000000</ele>
        <time>2015-08-05T11:16:39Z</time>
        <speed>0.000000</speed>
      </trkpt>
      <trkpt lat="46.053026899" lon="7.187830073">
        <ele>1944.000000</ele>
        <time>2015-08-05T11:16:45Z</time>
        <speed>0.000000</speed>
      </trkpt>
      <trkpt lat="46.053008878" lon="7.187850944">
        <ele>1944.000000</ele>
        <time>2015-08-05T11:16:47Z</time>
        <speed>1.296000</speed>
      </trkpt>
      <trkpt lat="46.052988258" lon="7.187874162">
        <ele>1944.400000</ele>
        <time>2015-08-05T11:16:49Z</time>
        <speed>2.259000</speed>
      </trkpt>
      <trkpt lat="46.052979038" lon="7.187887573">
        <ele>1944.800000</ele>
        <time>2015-08-05T11:16:50Z</time>
        <speed>2.259000</speed>
      </trkpt>
      <trkpt lat="46.052969483" lon="7.187901152">
        <ele>1945.200000</ele>
        <time>2015-08-05T11:16:51Z</time>
        <speed>1.498000</speed>
      </trkpt>
      <trkpt lat="46.052958502" lon="7.187912719">
        <ele>1945.600000</ele>
        <time>2015-08-05T11:16:52Z</time>
        <speed>1.498000</speed>
      </trkpt>
      <trkpt lat="46.052948444" lon="7.187924789">
        <ele>1946.000000</ele>
        <time>2015-08-05T11:16:53Z</time>
        <speed>1.546000</speed>
      </trkpt>
      <trkpt lat="46.052907624" lon="7.187963681">
        <ele>1946.000000</ele>
        <time>2015-08-05T11:16:57Z</time>
        <speed>1.469000</speed>
      </trkpt>
      <trkpt lat="46.052886250" lon="7.187983965">
        <ele>1946.000000</ele>
        <time>2015-08-05T11:16:59Z</time>
        <speed>1.530000</speed>
      </trkpt>
      <trkpt lat="46.052874348" lon="7.187992682">
        <ele>1946.000000</ele>
        <time>2015-08-05T11:17:00Z</time>
        <speed>1.520000</speed>
      </trkpt>
      <trkpt lat="46.052809556" lon="7.188046578">
        <ele>1946.600000</ele>
        <time>2015-08-05T11:17:06Z</time>
        <speed>1.572000</speed>
      </trkpt>
      <trkpt lat="46.052799917" lon="7.188056469">
        <ele>1947.000000</ele>
        <time>2015-08-05T11:17:07Z</time>
        <speed>1.505000</speed>
      </trkpt>
      <trkpt lat="46.052788517" lon="7.188064850">
        <ele>1947.400000</ele>
        <time>2015-08-05T11:17:08Z</time>
        <speed>1.542000</speed>
      </trkpt>
      <trkpt lat="46.052777370" lon="7.188071137">
        <ele>1947.800000</ele>
        <time>2015-08-05T11:17:09Z</time>
        <speed>1.551000</speed>
      </trkpt>
      <trkpt lat="46.052764378" lon="7.188077759">
        <ele>1948.200000</ele>
        <time>2015-08-05T11:17:10Z</time>
        <speed>1.551000</speed>
      </trkpt>
      <trkpt lat="46.052718780" lon="7.188129224">
        <ele>1948.200000</ele>
        <time>2015-08-05T11:17:14Z</time>
        <speed>1.482000</speed>
      </trkpt>
      <trkpt lat="46.052644600" lon="7.188198458">
        <ele>1948.600000</ele>
        <time>2015-08-05T11:17:21Z</time>
        <speed>1.553000</speed>
      </trkpt>
      <trkpt lat="46.052632111" lon="7.188210360">
        <ele>1949.000000</ele>
        <time>2015-08-05T11:17:22Z</time>
        <speed>1.553000</speed>
      </trkpt>
      <trkpt lat="46.052619371" lon="7.188217904">
        <ele>1949.400000</ele>
        <time>2015-08-05T11:17:23Z</time>
        <speed>1.541000</speed>
      </trkpt>
      <trkpt lat="46.052605708" lon="7.188226202">
        <ele>1949.800000</ele>
        <time>2015-08-05T11:17:24Z</time>
        <speed>1.613000</speed>
      </trkpt>
      <trkpt lat="46.052592046" lon="7.188237518">
        <ele>1950.200000</ele>
        <time>2015-08-05T11:17:25Z</time>
        <speed>1.613000</speed>
      </trkpt>
      <trkpt lat="46.052570253" lon="7.188263334">
        <ele>1950.200000</ele>
        <time>2015-08-05T11:17:27Z</time>
        <speed>1.687000</speed>
      </trkpt>
      <trkpt lat="46.052499509" lon="7.188345728">
        <ele>1950.200000</ele>
        <time>2015-08-05T11:17:34Z</time>
        <speed>1.544000</speed>
      </trkpt>
      <trkpt lat="46.052490122" lon="7.188360564">
        <ele>1950.600000</ele>
        <time>2015-08-05T11:17:35Z</time>
        <speed>1.529000</speed>
      </trkpt>
      <trkpt lat="46.052480734" lon="7.188374478">
        <ele>1951.000000</ele>
        <time>2015-08-05T11:17:36Z</time>
        <speed>1.609000</speed>
      </trkpt>
      <trkpt lat="46.052471346" lon="7.188386632">
        <ele>1951.400000</ele>
        <time>2015-08-05T11:17:37Z</time>
        <speed>1.561000</speed>
      </trkpt>
      <trkpt lat="46.052461707" lon="7.188398450">
        <ele>1952.000000</ele>
        <time>2015-08-05T11:17:38Z</time>
        <speed>1.561000</speed>
      </trkpt>
      <trkpt lat="46.052453493" lon="7.188407670">
        <ele>1952.400000</ele>
        <time>2015-08-05T11:17:39Z</time>
        <speed>1.568000</speed>
      </trkpt>
      <trkpt lat="46.052438070" lon="7.188428038">
        <ele>1952.400000</ele>
        <time>2015-08-05T11:17:41Z</time>
        <speed>1.572000</speed>
      </trkpt>
      <trkpt lat="46.052424743" lon="7.188442120">
        <ele>1952.400000</ele>
        <time>2015-08-05T11:17:43Z</time>
        <speed>1.571000</speed>
      </trkpt>
      <trkpt lat="46.052403453" lon="7.188472630">
        <ele>1952.400000</ele>
        <time>2015-08-05T11:17:46Z</time>
        <speed>1.216000</speed>
      </trkpt>
      <trkpt lat="46.052391215" lon="7.188492328">
        <ele>1952.400000</ele>
        <time>2015-08-05T11:17:48Z</time>
        <speed>1.216000</speed>
      </trkpt>
      <trkpt lat="46.052391383" lon="7.188492244">
        <ele>1952.400000</ele>
        <time>2015-08-05T11:17:50Z</time>
        <speed>1.187000</speed>
      </trkpt>
      <trkpt lat="46.052391467" lon="7.188492244">
        <ele>1952.400000</ele>
        <time>2015-08-05T11:18:01Z</time>
        <speed>0.000000</speed>
      </trkpt>
      <trkpt lat="46.052391467" lon="7.188492244">
        <ele>1952.800000</ele>
        <time>2015-08-05T11:18:04Z</time>
        <speed>0.000000</speed>
      </trkpt>
      <trkpt lat="46.052391467" lon="7.188492244">
        <ele>1953.200000</ele>
        <time>2015-08-05T11:18:05Z</time>
        <speed>0.000000</speed>
      </trkpt>
      <trkpt lat="46.052391467" lon="7.188492244">
        <ele>1953.600000</ele>
        <time>2015-08-05T11:18:06Z</time>
        <speed>0.000000</speed>
      </trkpt>
      <trkpt lat="46.052391467" lon="7.188492244">
        <ele>1954.000000</ele>
        <time>2015-08-05T11:18:07Z</time>
        <speed>0.000000</speed>
      </trkpt>
      <trkpt lat="46.052391467" lon="7.188492244">
        <ele>1954.400000</ele>
        <time>2015-08-05T11:18:08Z</time>
        <speed>0.000000</speed>
      </trkpt>
      <trkpt lat="46.052391467" lon="7.188492244">
        <ele>1954.400000</ele>
        <time>2015-08-05T11:18:10Z</time>
        <speed>0.000000</speed>
      </trkpt>
      <trkpt lat="46.052391467" lon="7.188492244">
        <ele>1954.400000</ele>
        <time>2015-08-05T11:18:17Z</time>
        <speed>0.000000</speed>
      </trkpt>
      <trkpt lat="46.052391467" lon="7.188492244">
        <ele>1954.400000</ele>
        <time>2015-08-05T11:18:20Z</time>
        <speed>0.000000</speed>
      </trkpt>
      <trkpt lat="46.052391467" lon="7.188492244">
        <ele>1954.400000</ele>
        <time>2015-08-05T11:18:24Z</time>
        <speed>0.000000</speed>
      </trkpt>
      <trkpt lat="46.052391634" lon="7.188492663">
        <ele>1954.400000</ele>
        <time>2015-08-05T11:18:29Z</time>
        <speed>0.000000</speed>
      </trkpt>
      <trkpt lat="46.052391634" lon="7.188492663">
        <ele>1954.400000</ele>
        <time>2015-08-05T11:18:34Z</time>
        <speed>0.000000</speed>
      </trkpt>
      <trkpt lat="46.052391634" lon="7.188492663">
        <ele>1954.400000</ele>
        <time>2015-08-05T11:18:38Z</time>
        <speed>0.000000</speed>
      </trkpt>
      <trkpt lat="46.052391634" lon="7.188492663">
        <ele>1954.400000</ele>
        <time>2015-08-05T11:18:43Z</time>
        <speed>0.000000</speed>
      </trkpt>
      <trkpt lat="46.052391634" lon="7.188492663">
        <ele>1954.400000</ele>
        <time>2015-08-05T11:18:44Z</time>
        <speed>0.000000</speed>
      </trkpt>
      <trkpt lat="46.052391634" lon="7.188492663">
        <ele>1954.400000</ele>
        <time>2015-08-05T11:18:47Z</time>
        <speed>0.000000</speed>
      </trkpt>
      <trkpt lat="46.052373781" lon="7.188512779">
        <ele>1954.400000</ele>
        <time>2015-08-05T11:18:49Z</time>
        <speed>4.208000</speed>
      </trkpt>
      <trkpt lat="46.052360873" lon="7.188525604">
        <ele>1954.400000</ele>
        <time>2015-08-05T11:18:50Z</time>
        <speed>4.208000</speed>
      </trkpt>
      <trkpt lat="46.052342097" lon="7.188551923">
        <ele>1954.400000</ele>
        <time>2015-08-05T11:18:52Z</time>
        <speed>5.575000</speed>
      </trkpt>
      <trkpt lat="46.052307731" lon="7.188586959">
        <ele>1954.400000</ele>
        <time>2015-08-05T11:18:55Z</time>
        <speed>1.523000</speed>
      </trkpt>
      <trkpt lat="46.052243861" lon="7.188654266">
        <ele>1954.800000</ele>
        <time>2015-08-05T11:19:01Z</time>
        <speed>1.572000</speed>
      </trkpt>
      <trkpt lat="46.052231456" lon="7.188664911">
        <ele>1955.200000</ele>
        <time>2015-08-05T11:19:02Z</time>
        <speed>1.561000</speed>
      </trkpt>
      <trkpt lat="46.052216620" lon="7.188669353">
        <ele>1955.600000</ele>
        <time>2015-08-05T11:19:03Z</time>
        <speed>1.585000</speed>
      </trkpt>
      <trkpt lat="46.052203544" lon="7.188674718">
        <ele>1956.000000</ele>
        <time>2015-08-05T11:19:04Z</time>
        <speed>1.585000</speed>
      </trkpt>
      <trkpt lat="46.052189463" lon="7.188682094">
        <ele>1956.400000</ele>
        <time>2015-08-05T11:19:05Z</time>
        <speed>1.611000</speed>
      </trkpt>
      <trkpt lat="46.052127269" lon="7.188700366">
        <ele>1956.400000</ele>
        <time>2015-08-05T11:19:09Z</time>
        <speed>1.775000</speed>
      </trkpt>
      <trkpt lat="46.052033392" lon="7.188737079">
        <ele>1956.800000</ele>
        <time>2015-08-05T11:19:16Z</time>
        <speed>1.598000</speed>
      </trkpt>
      <trkpt lat="46.052019143" lon="7.188742444">
        <ele>1957.200000</ele>
        <time>2015-08-05T11:19:17Z</time>
        <speed>1.615000</speed>
      </trkpt>
      <trkpt lat="46.052003217" lon="7.188749233">
        <ele>1957.600000</ele>
        <time>2015-08-05T11:19:18Z</time>
        <speed>1.615000</speed>
      </trkpt>
      <trkpt lat="46.051987962" lon="7.188752334">
        <ele>1958.000000</ele>
        <time>2015-08-05T11:19:19Z</time>
        <speed>1.622000</speed>
      </trkpt>
      <trkpt lat="46.051973545" lon="7.188756274">
        <ele>1958.400000</ele>
        <time>2015-08-05T11:19:20Z</time>
        <speed>1.578000</speed>
      </trkpt>
      <trkpt lat="46.051934066" lon="7.188780916">
        <ele>1958.400000</ele>
        <time>2015-08-05T11:19:23Z</time>
        <speed>1.593000</speed>
      </trkpt>
      <trkpt lat="46.051854606" lon="7.188853420">
        <ele>1958.800000</ele>
        <time>2015-08-05T11:19:30Z</time>
        <speed>1.678000</speed>
      </trkpt>
      <trkpt lat="46.051844883" lon="7.188872950">
        <ele>1959.600000</ele>
        <time>2015-08-05T11:19:31Z</time>
        <speed>1.739000</speed>
      </trkpt>
      <trkpt lat="46.051835495" lon="7.188888205">
        <ele>1960.000000</ele>
        <time>2015-08-05T11:19:32Z</time>
        <speed>1.739000</speed>
      </trkpt>
      <trkpt lat="46.051825604" lon="7.188903208">
        <ele>1960.400000</ele>
        <time>2015-08-05T11:19:33Z</time>
        <speed>1.675000</speed>
      </trkpt>
      <trkpt lat="46.051786377" lon="7.188987363">
        <ele>1960.400000</ele>
        <time>2015-08-05T11:19:38Z</time>
        <speed>1.590000</speed>
      </trkpt>
      <trkpt lat="46.051758717" lon="7.189058525">
        <ele>1960.800000</ele>
        <time>2015-08-05T11:19:42Z</time>
        <speed>1.577000</speed>
      </trkpt>
      <trkpt lat="46.051750083" lon="7.189080737">
        <ele>1961.200000</ele>
        <time>2015-08-05T11:19:43Z</time>
        <speed>1.642000</speed>
      </trkpt>
      <trkpt lat="46.051745893" lon="7.189100602">
        <ele>1961.600000</ele>
        <time>2015-08-05T11:19:44Z</time>
        <speed>1.495000</speed>
      </trkpt>
      <trkpt lat="46.051743629" lon="7.189119964">
        <ele>1962.000000</ele>
        <time>2015-08-05T11:19:45Z</time>
        <speed>1.495000</speed>
      </trkpt>
      <trkpt lat="46.051739271" lon="7.189136728">
        <ele>1962.400000</ele>
        <time>2015-08-05T11:19:46Z</time>
        <speed>1.690000</speed>
      </trkpt>
      <trkpt lat="46.051722507" lon="7.189203867">
        <ele>1962.400000</ele>
        <time>2015-08-05T11:19:50Z</time>
        <speed>20.059000</speed>
      </trkpt>
      <trkpt lat="46.051714125" lon="7.189234880">
        <ele>1962.400000</ele>
        <time>2015-08-05T11:19:52Z</time>
        <speed>0.000000</speed>
      </trkpt>
      <trkpt lat="46.051705492" lon="7.189254075">
        <ele>1962.400000</ele>
        <time>2015-08-05T11:19:53Z</time>
        <speed>1.358000</speed>
      </trkpt>
      <trkpt lat="46.051683783" lon="7.189290033">
        <ele>1963.000000</ele>
        <time>2015-08-05T11:19:55Z</time>
        <speed>1.758000</speed>
      </trkpt>
      <trkpt lat="46.051673054" lon="7.189304785">
        <ele>1963.800000</ele>
        <time>2015-08-05T11:19:56Z</time>
        <speed>1.761000</speed>
      </trkpt>
      <trkpt lat="46.051666097" lon="7.189318364">
        <ele>1964.200000</ele>
        <time>2015-08-05T11:19:57Z</time>
        <speed>0.000000</speed>
      </trkpt>
      <trkpt lat="46.051654027" lon="7.189331188">
        <ele>1964.600000</ele>
        <time>2015-08-05T11:19:58Z</time>
        <speed>0.000000</speed>
      </trkpt>
      <trkpt lat="46.051639778" lon="7.189338145">
        <ele>1964.600000</ele>
        <time>2015-08-05T11:19:59Z</time>
        <speed>0.000000</speed>
      </trkpt>
      <trkpt lat="46.051616811" lon="7.189349293">
        <ele>1964.600000</ele>
        <time>2015-08-05T11:20:01Z</time>
        <speed>4.485000</speed>
      </trkpt>
      <trkpt lat="46.051589905" lon="7.189370667">
        <ele>1964.600000</ele>
        <time>2015-08-05T11:20:04Z</time>
        <speed>1.288000</speed>
      </trkpt>
      <trkpt lat="46.051527376" lon="7.189415007">
        <ele>1965.000000</ele>
        <time>2015-08-05T11:20:09Z</time>
        <speed>0.000000</speed>
      </trkpt>
      <trkpt lat="46.051515558" lon="7.189422635">
        <ele>1965.400000</ele>
        <time>2015-08-05T11:20:10Z</time>
        <speed>0.000000</speed>
      </trkpt>
      <trkpt lat="46.051502231" lon="7.189427329">
        <ele>1965.800000</ele>
        <time>2015-08-05T11:20:11Z</time>
        <speed>1.531000</speed>
      </trkpt>
      <trkpt lat="46.051489322" lon="7.189434118">
        <ele>1966.200000</ele>
        <time>2015-08-05T11:20:12Z</time>
        <speed>1.584000</speed>
      </trkpt>
      <trkpt lat="46.051480019" lon="7.189436800">
        <ele>1966.600000</ele>
        <time>2015-08-05T11:20:13Z</time>
        <speed>1.578000</speed>
      </trkpt>
      <trkpt lat="46.051454705" lon="7.189457839">
        <ele>1966.600000</ele>
        <time>2015-08-05T11:20:16Z</time>
        <speed>1.590000</speed>
      </trkpt>
      <trkpt lat="46.051428470" lon="7.189471250">
        <ele>1966.600000</ele>
        <time>2015-08-05T11:20:18Z</time>
        <speed>1.630000</speed>
      </trkpt>
      <trkpt lat="46.051395194" lon="7.189509388">
        <ele>1966.600000</ele>
        <time>2015-08-05T11:20:21Z</time>
        <speed>1.672000</speed>
      </trkpt>
      <trkpt lat="46.051359487" lon="7.189554818">
        <ele>1966.600000</ele>
        <time>2015-08-05T11:20:24Z</time>
        <speed>1.666000</speed>
      </trkpt>
      <trkpt lat="46.051351189" lon="7.189570240">
        <ele>1967.000000</ele>
        <time>2015-08-05T11:20:25Z</time>
        <speed>1.626000</speed>
      </trkpt>
      <trkpt lat="46.051343980" lon="7.189583484">
        <ele>1967.600000</ele>
        <time>2015-08-05T11:20:26Z</time>
        <speed>1.619000</speed>
      </trkpt>
      <trkpt lat="46.051334928" lon="7.189599409">
        <ele>1968.000000</ele>
        <time>2015-08-05T11:20:27Z</time>
        <speed>1.619000</speed>
      </trkpt>
      <trkpt lat="46.051324450" lon="7.189611982">
        <ele>1968.400000</ele>
        <time>2015-08-05T11:20:28Z</time>
        <speed>1.588000</speed>
      </trkpt>
      <trkpt lat="46.051315482" lon="7.189621454">
        <ele>1968.800000</ele>
        <time>2015-08-05T11:20:29Z</time>
        <speed>1.571000</speed>
      </trkpt>
      <trkpt lat="46.051305675" lon="7.189631177">
        <ele>1968.800000</ele>
        <time>2015-08-05T11:20:30Z</time>
        <speed>1.654000</speed>
      </trkpt>
      <trkpt lat="46.051294862" lon="7.189641906">
        <ele>1968.800000</ele>
        <time>2015-08-05T11:20:31Z</time>
        <speed>1.578000</speed>
      </trkpt>
      <trkpt lat="46.051255467" lon="7.189707620">
        <ele>1968.800000</ele>
        <time>2015-08-05T11:20:35Z</time>
        <speed>1.636000</speed>
      </trkpt>
      <trkpt lat="46.051230070" lon="7.189767969">
        <ele>1969.200000</ele>
        <time>2015-08-05T11:20:38Z</time>
        <speed>1.635000</speed>
      </trkpt>
      <trkpt lat="46.051222862" lon="7.189784314">
        <ele>1969.600000</ele>
        <time>2015-08-05T11:20:39Z</time>
        <speed>1.627000</speed>
      </trkpt>
      <trkpt lat="46.051213390" lon="7.189798563">
        <ele>1970.000000</ele>
        <time>2015-08-05T11:20:40Z</time>
        <speed>1.627000</speed>
      </trkpt>
      <trkpt lat="46.051201907" lon="7.189811723">
        <ele>1970.400000</ele>
        <time>2015-08-05T11:20:41Z</time>
        <speed>1.613000</speed>
      </trkpt>
      <trkpt lat="46.051190172" lon="7.189825637">
        <ele>1970.800000</ele>
        <time>2015-08-05T11:20:42Z</time>
        <speed>1.665000</speed>
      </trkpt>
      <trkpt lat="46.051155052" lon="7.189878946">
        <ele>1970.800000</ele>
        <time>2015-08-05T11:20:46Z</time>
        <speed>1.677000</speed>
      </trkpt>
      <trkpt lat="46.051103084" lon="7.189953964">
        <ele>1970.800000</ele>
        <time>2015-08-05T11:20:51Z</time>
        <speed>1.592000</speed>
      </trkpt>
      <trkpt lat="46.051088667" lon="7.189963687">
        <ele>1971.200000</ele>
        <time>2015-08-05T11:20:52Z</time>
        <speed>1.654000</speed>
      </trkpt>
      <trkpt lat="46.051074586" lon="7.189969806">
        <ele>1971.800000</ele>
        <time>2015-08-05T11:20:53Z</time>
        <speed>1.586000</speed>
      </trkpt>
      <trkpt lat="46.051061426" lon="7.189977349">
        <ele>1972.200000</ele>
        <time>2015-08-05T11:20:54Z</time>
        <speed>1.586000</speed>
      </trkpt>
      <trkpt lat="46.051046339" lon="7.189982630">
        <ele>1972.600000</ele>
        <time>2015-08-05T11:20:55Z</time>
        <speed>1.589000</speed>
      </trkpt>
      <trkpt lat="46.051034520" lon="7.189991096">
        <ele>1973.000000</ele>
        <time>2015-08-05T11:20:56Z</time>
        <speed>1.610000</speed>
      </trkpt>
      <trkpt lat="46.051022199" lon="7.190000651">
        <ele>1973.000000</ele>
        <time>2015-08-05T11:20:57Z</time>
        <speed>1.610000</speed>
      </trkpt>
      <trkpt lat="46.050976685" lon="7.190019929">
        <ele>1973.000000</ele>
        <time>2015-08-05T11:21:00Z</time>
        <speed>1.669000</speed>
      </trkpt>
      <trkpt lat="46.050920778" lon="7.190036693">
        <ele>1973.000000</ele>
        <time>2015-08-05T11:21:04Z</time>
        <speed>1.613000</speed>
      </trkpt>
      <trkpt lat="46.050906613" lon="7.190039124">
        <ele>1973.400000</ele>
        <time>2015-08-05T11:21:05Z</time>
        <speed>1.584000</speed>
      </trkpt>
      <trkpt lat="46.050893202" lon="7.190039375">
        <ele>1973.800000</ele>
        <time>2015-08-05T11:21:06Z</time>
        <speed>1.706000</speed>
      </trkpt>
      <trkpt lat="46.050880712" lon="7.190040968">
        <ele>1974.200000</ele>
        <time>2015-08-05T11:21:07Z</time>
        <speed>1.631000</speed>
      </trkpt>
      <trkpt lat="46.050868643" lon="7.190043231">
        <ele>1974.600000</ele>
        <time>2015-08-05T11:21:08Z</time>
        <speed>1.631000</speed>
      </trkpt>
      <trkpt lat="46.050856237" lon="7.190049182">
        <ele>1975.000000</ele>
        <time>2015-08-05T11:21:09Z</time>
        <speed>1.598000</speed>
      </trkpt>
      <trkpt lat="46.050828912" lon="7.190048428">
        <ele>1975.000000</ele>
        <time>2015-08-05T11:21:11Z</time>
        <speed>1.741000</speed>
      </trkpt>
      <trkpt lat="46.050725061" lon="7.190026467">
        <ele>1975.400000</ele>
        <time>2015-08-05T11:21:18Z</time>
        <speed>1.742000</speed>
      </trkpt>
      <trkpt lat="46.050710476" lon="7.190026803">
        <ele>1975.800000</ele>
        <time>2015-08-05T11:21:19Z</time>
        <speed>1.742000</speed>
      </trkpt>
      <trkpt lat="46.050695472" lon="7.190026551">
        <ele>1976.200000</ele>
        <time>2015-08-05T11:21:20Z</time>
        <speed>1.724000</speed>
      </trkpt>
      <trkpt lat="46.050682480" lon="7.190025797">
        <ele>1976.600000</ele>
        <time>2015-08-05T11:21:21Z</time>
        <speed>1.746000</speed>
      </trkpt>
      <trkpt lat="46.050670075" lon="7.190024707">
        <ele>1977.200000</ele>
        <time>2015-08-05T11:21:22Z</time>
        <speed>1.748000</speed>
      </trkpt>
      <trkpt lat="46.050600589" lon="7.190013559">
        <ele>1977.200000</ele>
        <time>2015-08-05T11:21:27Z</time>
        <speed>1.596000</speed>
      </trkpt>
      <trkpt lat="46.050531439" lon="7.190002998">
        <ele>1977.600000</ele>
        <time>2015-08-05T11:21:32Z</time>
        <speed>1.650000</speed>
      </trkpt>
      <trkpt lat="46.050518614" lon="7.190005010">
        <ele>1978.000000</ele>
        <time>2015-08-05T11:21:33Z</time>
        <speed>1.650000</speed>
      </trkpt>
      <trkpt lat="46.050503694" lon="7.190008027">
        <ele>1978.400000</ele>
        <time>2015-08-05T11:21:34Z</time>
        <speed>1.648000</speed>
      </trkpt>
      <trkpt lat="46.050488942" lon="7.190011464">
        <ele>1979.400000</ele>
        <time>2015-08-05T11:21:35Z</time>
        <speed>1.664000</speed>
      </trkpt>
      <trkpt lat="46.050351731" lon="7.190059492">
        <ele>1979.400000</ele>
        <time>2015-08-05T11:21:44Z</time>
        <speed>1.728000</speed>
      </trkpt>
      <trkpt lat="46.050324489" lon="7.190072232">
        <ele>1979.800000</ele>
        <time>2015-08-05T11:21:46Z</time>
        <speed>1.746000</speed>
      </trkpt>
      <trkpt lat="46.050309821" lon="7.190080698">
        <ele>1980.200000</ele>
        <time>2015-08-05T11:21:47Z</time>
        <speed>1.736000</speed>
      </trkpt>
      <trkpt lat="46.050295991" lon="7.190086649">
        <ele>1980.600000</ele>
        <time>2015-08-05T11:21:48Z</time>
        <speed>1.755000</speed>
      </trkpt>
      <trkpt lat="46.050280568" lon="7.190090756">
        <ele>1981.000000</ele>
        <time>2015-08-05T11:21:49Z</time>
        <speed>1.751000</speed>
      </trkpt>
      <trkpt lat="46.050265313" lon="7.190097713">
        <ele>1981.400000</ele>
        <time>2015-08-05T11:21:50Z</time>
        <speed>1.751000</speed>
      </trkpt>
      <trkpt lat="46.050238156" lon="7.190112047">
        <ele>1981.400000</ele>
        <time>2015-08-05T11:21:52Z</time>
        <speed>1.784000</speed>
      </trkpt>
      <trkpt lat="46.050127012" lon="7.190145406">
        <ele>1981.800000</ele>
        <time>2015-08-05T11:21:59Z</time>
        <speed>1.751000</speed>
      </trkpt>
      <trkpt lat="46.050109074" lon="7.190150268">
        <ele>1982.600000</ele>
        <time>2015-08-05T11:22:00Z</time>
        <speed>1.827000</speed>
      </trkpt>
      <trkpt lat="46.050090970" lon="7.190153369">
        <ele>1983.000000</ele>
        <time>2015-08-05T11:22:01Z</time>
        <speed>1.727000</speed>
      </trkpt>
      <trkpt lat="46.050074541" lon="7.190154543">
        <ele>1983.400000</ele>
        <time>2015-08-05T11:22:02Z</time>
        <speed>1.839000</speed>
      </trkpt>
      <trkpt lat="46.049997595" lon="7.190167786">
        <ele>1983.400000</ele>
        <time>2015-08-05T11:22:07Z</time>
        <speed>1.898000</speed>
      </trkpt>
      <trkpt lat="46.049904640" lon="7.190195530">
        <ele>1984.000000</ele>
        <time>2015-08-05T11:22:13Z</time>
        <speed>1.771000</speed>
      </trkpt>
      <trkpt lat="46.049889972" lon="7.190202990">
        <ele>1984.400000</ele>
        <time>2015-08-05T11:22:14Z</time>
        <speed>1.793000</speed>
      </trkpt>
      <trkpt lat="46.049874297" lon="7.190210199">
        <ele>1984.800000</ele>
        <time>2015-08-05T11:22:15Z</time>
        <speed>1.793000</speed>
      </trkpt>
      <trkpt lat="46.049858875" lon="7.190212043">
        <ele>1985.400000</ele>
        <time>2015-08-05T11:22:16Z</time>
        <speed>1.804000</speed>
      </trkpt>
      <trkpt lat="46.049844709" lon="7.190217575">
        <ele>1985.800000</ele>
        <time>2015-08-05T11:22:17Z</time>
        <speed>1.798000</speed>
      </trkpt>
      <trkpt lat="46.049804728" lon="7.190232578">
        <ele>1985.800000</ele>
        <time>2015-08-05T11:22:20Z</time>
        <speed>1.858000</speed>
      </trkpt>
      <trkpt lat="46.049703893" lon="7.190278930">
        <ele>1986.200000</ele>
        <time>2015-08-05T11:22:27Z</time>
        <speed>1.784000</speed>
      </trkpt>
      <trkpt lat="46.049687632" lon="7.190284798">
        <ele>1986.600000</ele>
        <time>2015-08-05T11:22:28Z</time>
        <speed>1.736000</speed>
      </trkpt>
      <trkpt lat="46.049671791" lon="7.190290916">
        <ele>1987.000000</ele>
        <time>2015-08-05T11:22:29Z</time>
        <speed>1.705000</speed>
      </trkpt>
      <trkpt lat="46.049659637" lon="7.190290497">
        <ele>1987.400000</ele>
        <time>2015-08-05T11:22:30Z</time>
        <speed>1.689000</speed>
      </trkpt>
      <trkpt lat="46.049646896" lon="7.190291168">
        <ele>1988.000000</ele>
        <time>2015-08-05T11:22:31Z</time>
        <speed>1.689000</speed>
      </trkpt>
      <trkpt lat="46.049619320" lon="7.190293766">
        <ele>1988.000000</ele>
        <time>2015-08-05T11:22:33Z</time>
        <speed>1.648000</speed>
      </trkpt>
      <trkpt lat="46.049578751" lon="7.190299885">
        <ele>1988.000000</ele>
        <time>2015-08-05T11:22:36Z</time>
        <speed>1.699000</speed>
      </trkpt>
      <trkpt lat="46.049518402" lon="7.190307680">
        <ele>1988.000000</ele>
        <time>2015-08-05T11:22:40Z</time>
        <speed>1.755000</speed>
      </trkpt>
      <trkpt lat="46.049503901" lon="7.190307513">
        <ele>1988.400000</ele>
        <time>2015-08-05T11:22:41Z</time>
        <speed>1.755000</speed>
      </trkpt>
      <trkpt lat="46.049489484" lon="7.190305920">
        <ele>1988.800000</ele>
        <time>2015-08-05T11:22:42Z</time>
        <speed>1.725000</speed>
      </trkpt>
      <trkpt lat="46.049474900" lon="7.190310865">
        <ele>1989.200000</ele>
        <time>2015-08-05T11:22:43Z</time>
        <speed>1.716000</speed>
      </trkpt>
      <trkpt lat="46.049459477" lon="7.190315978">
        <ele>1989.600000</ele>
        <time>2015-08-05T11:22:44Z</time>
        <speed>1.685000</speed>
      </trkpt>
      <trkpt lat="46.049445563" lon="7.190321343">
        <ele>1990.000000</ele>
        <time>2015-08-05T11:22:45Z</time>
        <speed>1.685000</speed>
      </trkpt>
      <trkpt lat="46.049417065" lon="7.190327713">
        <ele>1990.000000</ele>
        <time>2015-08-05T11:22:47Z</time>
        <speed>1.664000</speed>
      </trkpt>
      <trkpt lat="46.049363839" lon="7.190351769">
        <ele>1990.600000</ele>
        <time>2015-08-05T11:22:51Z</time>
        <speed>1.643000</speed>
      </trkpt>
      <trkpt lat="46.049350009" lon="7.190360821">
        <ele>1991.000000</ele>
        <time>2015-08-05T11:22:52Z</time>
        <speed>1.685000</speed>
      </trkpt>
      <trkpt lat="46.049336766" lon="7.190369119">
        <ele>1991.400000</ele>
        <time>2015-08-05T11:22:53Z</time>
        <speed>1.678000</speed>
      </trkpt>
      <trkpt lat="46.049325283" lon="7.190381022">
        <ele>1991.800000</ele>
        <time>2015-08-05T11:22:54Z</time>
        <speed>1.702000</speed>
      </trkpt>
      <trkpt lat="46.049313129" lon="7.190392589">
        <ele>1992.200000</ele>
        <time>2015-08-05T11:22:55Z</time>
        <speed>1.693000</speed>
      </trkpt>
      <trkpt lat="46.049221012" lon="7.190461740">
        <ele>1992.200000</ele>
        <time>2015-08-05T11:23:02Z</time>
        <speed>1.739000</speed>
      </trkpt>
      <trkpt lat="46.049195698" lon="7.190484790">
        <ele>1992.600000</ele>
        <time>2015-08-05T11:23:04Z</time>
        <speed>1.727000</speed>
      </trkpt>
      <trkpt lat="46.049181701" lon="7.190496022">
        <ele>1993.000000</ele>
        <time>2015-08-05T11:23:05Z</time>
        <speed>1.786000</speed>
      </trkpt>
      <trkpt lat="46.049169379" lon="7.190504403">
        <ele>1993.400000</ele>
        <time>2015-08-05T11:23:06Z</time>
        <speed>1.654000</speed>
      </trkpt>
      <trkpt lat="46.049157226" lon="7.190514126">
        <ele>1993.800000</ele>
        <time>2015-08-05T11:23:07Z</time>
        <speed>1.654000</speed>
      </trkpt>
      <trkpt lat="46.049145910" lon="7.190521502">
        <ele>1994.200000</ele>
        <time>2015-08-05T11:23:08Z</time>
        <speed>1.703000</speed>
      </trkpt>
      <trkpt lat="46.049135600" lon="7.190528543">
        <ele>1994.200000</ele>
        <time>2015-08-05T11:23:09Z</time>
        <speed>1.698000</speed>
      </trkpt>
      <trkpt lat="46.049078268" lon="7.190555030">
        <ele>1994.200000</ele>
        <time>2015-08-05T11:23:13Z</time>
        <speed>1.798000</speed>
      </trkpt>
      <trkpt lat="46.049063935" lon="7.190558467">
        <ele>1994.600000</ele>
        <time>2015-08-05T11:23:14Z</time>
        <speed>1.599000</speed>
      </trkpt>
      <trkpt lat="46.049049434" lon="7.190565172">
        <ele>1995.000000</ele>
        <time>2015-08-05T11:23:15Z</time>
        <speed>1.516000</speed>
      </trkpt>
      <trkpt lat="46.049037867" lon="7.190573638">
        <ele>1995.400000</ele>
        <time>2015-08-05T11:23:16Z</time>
        <speed>1.516000</speed>
      </trkpt>
      <trkpt lat="46.049025043" lon="7.190576907">
        <ele>1995.800000</ele>
        <time>2015-08-05T11:23:17Z</time>
        <speed>1.521000</speed>
      </trkpt>
      <trkpt lat="46.049012889" lon="7.190578164">
        <ele>1996.200000</ele>
        <time>2015-08-05T11:23:18Z</time>
        <speed>1.555000</speed>
      </trkpt>
      <trkpt lat="46.048986821" lon="7.190576404">
        <ele>1996.200000</ele>
        <time>2015-08-05T11:23:20Z</time>
        <speed>1.487000</speed>
      </trkpt>
      <trkpt lat="46.048973746" lon="7.190575482">
        <ele>1996.200000</ele>
        <time>2015-08-05T11:23:21Z</time>
        <speed>1.520000</speed>
      </trkpt>
      <trkpt lat="46.048878527" lon="7.190556790">
        <ele>1996.600000</ele>
        <time>2015-08-05T11:23:28Z</time>
        <speed>1.507000</speed>
      </trkpt>
      <trkpt lat="46.048866038" lon="7.190552180">
        <ele>1997.000000</ele>
        <time>2015-08-05T11:23:29Z</time>
        <speed>1.530000</speed>
      </trkpt>
      <trkpt lat="46.048854304" lon="7.190545223">
        <ele>1997.400000</ele>
        <time>2015-08-05T11:23:30Z</time>
        <speed>1.502000</speed>
      </trkpt>
      <trkpt lat="46.048843407" lon="7.190537093">
        <ele>1998.000000</ele>
        <time>2015-08-05T11:23:31Z</time>
        <speed>1.582000</speed>
      </trkpt>
      <trkpt lat="46.048833265" lon="7.190531477">
        <ele>1998.400000</ele>
        <time>2015-08-05T11:23:32Z</time>
        <speed>1.582000</speed>
      </trkpt>
      <trkpt lat="46.048780459" lon="7.190500883">
        <ele>1998.400000</ele>
        <time>2015-08-05T11:23:36Z</time>
        <speed>1.558000</speed>
      </trkpt>
      <trkpt lat="46.048713069" lon="7.190470960">
        <ele>1998.800000</ele>
        <time>2015-08-05T11:23:41Z</time>
        <speed>1.588000</speed>
      </trkpt>
      <trkpt lat="46.048699406" lon="7.190467104">
        <ele>1999.200000</ele>
        <time>2015-08-05T11:23:42Z</time>
        <speed>1.572000</speed>
      </trkpt>
      <trkpt lat="46.048688929" lon="7.190465930">
        <ele>1999.600000</ele>
        <time>2015-08-05T11:23:43Z</time>
        <speed>1.592000</speed>
      </trkpt>
      <trkpt lat="46.048676188" lon="7.190466266">
        <ele>2000.000000</ele>
        <time>2015-08-05T11:23:44Z</time>
        <speed>1.592000</speed>
      </trkpt>
      <trkpt lat="46.048661017" lon="7.190465092">
        <ele>2000.400000</ele>
        <time>2015-08-05T11:23:45Z</time>
        <speed>1.580000</speed>
      </trkpt>
      <trkpt lat="46.048571079" lon="7.190496273">
        <ele>2000.400000</ele>
        <time>2015-08-05T11:23:51Z</time>
        <speed>1.712000</speed>
      </trkpt>
      <trkpt lat="46.048490948" lon="7.190546229">
        <ele>2000.800000</ele>
        <time>2015-08-05T11:23:57Z</time>
        <speed>1.663000</speed>
      </trkpt>
      <trkpt lat="46.048477034" lon="7.190551594">
        <ele>2001.200000</ele>
        <time>2015-08-05T11:23:58Z</time>
        <speed>1.651000</speed>
      </trkpt>
      <trkpt lat="46.048464377" lon="7.190557042">
        <ele>2001.600000</ele>
        <time>2015-08-05T11:23:59Z</time>
        <speed>1.636000</speed>
      </trkpt>
      <trkpt lat="46.048450715" lon="7.190563244">
        <ele>2002.000000</ele>
        <time>2015-08-05T11:24:00Z</time>
        <speed>1.682000</speed>
      </trkpt>
      <trkpt lat="46.048436717" lon="7.190569279">
        <ele>2002.400000</ele>
        <time>2015-08-05T11:24:01Z</time>
        <speed>1.579000</speed>
      </trkpt>
      <trkpt lat="46.048368908" lon="7.190599538">
        <ele>2002.400000</ele>
        <time>2015-08-05T11:24:06Z</time>
        <speed>1.598000</speed>
      </trkpt>
      <trkpt lat="46.048322723" lon="7.190617140">
        <ele>2002.800000</ele>
        <time>2015-08-05T11:24:09Z</time>
        <speed>1.686000</speed>
      </trkpt>
      <trkpt lat="46.048309899" lon="7.190618816">
        <ele>2003.200000</ele>
        <time>2015-08-05T11:24:10Z</time>
        <speed>1.685000</speed>
      </trkpt>
      <trkpt lat="46.048296991" lon="7.190623426">
        <ele>2003.600000</ele>
        <time>2015-08-05T11:24:11Z</time>
        <speed>1.685000</speed>
      </trkpt>
      <trkpt lat="46.048283161" lon="7.190627534">
        <ele>2004.000000</ele>
        <time>2015-08-05T11:24:12Z</time>
        <speed>1.627000</speed>
      </trkpt>
      <trkpt lat="46.048270001" lon="7.190634323">
        <ele>2004.400000</ele>
        <time>2015-08-05T11:24:13Z</time>
        <speed>1.665000</speed>
      </trkpt>
      <trkpt lat="46.048211412" lon="7.190685872">
        <ele>2004.400000</ele>
        <time>2015-08-05T11:24:18Z</time>
        <speed>1.656000</speed>
      </trkpt>
      <trkpt lat="46.048160869" lon="7.190726105">
        <ele>2004.800000</ele>
        <time>2015-08-05T11:24:22Z</time>
        <speed>1.579000</speed>
      </trkpt>
      <trkpt lat="46.048148212" lon="7.190738845">
        <ele>2005.200000</ele>
        <time>2015-08-05T11:24:23Z</time>
        <speed>1.583000</speed>
      </trkpt>
      <trkpt lat="46.048137902" lon="7.190751334">
        <ele>2005.600000</ele>
        <time>2015-08-05T11:24:24Z</time>
        <speed>1.626000</speed>
      </trkpt>
      <trkpt lat="46.048127760" lon="7.190766757">
        <ele>2006.000000</ele>
        <time>2015-08-05T11:24:25Z</time>
        <speed>1.626000</speed>
      </trkpt>
      <trkpt lat="46.048116528" lon="7.190784108">
        <ele>2006.600000</ele>
        <time>2015-08-05T11:24:26Z</time>
        <speed>1.588000</speed>
      </trkpt>
      <trkpt lat="46.048052826" lon="7.190872369">
        <ele>2006.600000</ele>
        <time>2015-08-05T11:24:32Z</time>
        <speed>1.656000</speed>
      </trkpt>
      <trkpt lat="46.048043354" lon="7.190886199">
        <ele>2006.600000</ele>
        <time>2015-08-05T11:24:33Z</time>
        <speed>1.636000</speed>
      </trkpt>
      <trkpt lat="46.048035308" lon="7.190902879">
        <ele>2007.000000</ele>
        <time>2015-08-05T11:24:34Z</time>
        <speed>1.636000</speed>
      </trkpt>
      <trkpt lat="46.048027429" lon="7.190918302">
        <ele>2007.400000</ele>
        <time>2015-08-05T11:24:35Z</time>
        <speed>1.663000</speed>
      </trkpt>
      <trkpt lat="46.048018460" lon="7.190932132">
        <ele>2007.800000</ele>
        <time>2015-08-05T11:24:36Z</time>
        <speed>1.648000</speed>
      </trkpt>
      <trkpt lat="46.048009408" lon="7.190949231">
        <ele>2008.200000</ele>
        <time>2015-08-05T11:24:37Z</time>
        <speed>1.595000</speed>
      </trkpt>
      <trkpt lat="46.047999349" lon="7.190968006">
        <ele>2008.600000</ele>
        <time>2015-08-05T11:24:38Z</time>
        <speed>1.640000</speed>
      </trkpt>
      <trkpt lat="46.047921817" lon="7.191103877">
        <ele>2008.600000</ele>
        <time>2015-08-05T11:24:47Z</time>
        <speed>1.599000</speed>
      </trkpt>
      <trkpt lat="46.047909747" lon="7.191113600">
        <ele>2009.000000</ele>
        <time>2015-08-05T11:24:48Z</time>
        <speed>1.586000</speed>
      </trkpt>
      <trkpt lat="46.047897677" lon="7.191123910">
        <ele>2009.400000</ele>
        <time>2015-08-05T11:24:49Z</time>
        <speed>1.611000</speed>
      </trkpt>
      <trkpt lat="46.047884601" lon="7.191132376">
        <ele>2009.800000</ele>
        <time>2015-08-05T11:24:50Z</time>
        <speed>1.568000</speed>
      </trkpt>
      <trkpt lat="46.047871945" lon="7.191139165">
        <ele>2010.600000</ele>
        <time>2015-08-05T11:24:51Z</time>
        <speed>1.568000</speed>
      </trkpt>
      <trkpt lat="46.047823581" lon="7.191169843">
        <ele>2010.600000</ele>
        <time>2015-08-05T11:24:55Z</time>
        <speed>1.547000</speed>
      </trkpt>
      <trkpt lat="46.047759795" lon="7.191195994">
        <ele>2011.200000</ele>
        <time>2015-08-05T11:25:00Z</time>
        <speed>1.586000</speed>
      </trkpt>
      <trkpt lat="46.047745713" lon="7.191199934">
        <ele>2011.600000</ele>
        <time>2015-08-05T11:25:01Z</time>
        <speed>1.551000</speed>
      </trkpt>
      <trkpt lat="46.047733475" lon="7.191203370">
        <ele>2012.000000</ele>
        <time>2015-08-05T11:25:02Z</time>
        <speed>1.567000</speed>
      </trkpt>
      <trkpt lat="46.047719981" lon="7.191204628">
        <ele>2012.400000</ele>
        <time>2015-08-05T11:25:03Z</time>
        <speed>1.605000</speed>
      </trkpt>
      <trkpt lat="46.047706905" lon="7.191204460">
        <ele>2012.800000</ele>
        <time>2015-08-05T11:25:04Z</time>
        <speed>1.605000</speed>
      </trkpt>
      <trkpt lat="46.047627780" lon="7.191193647">
        <ele>2012.800000</ele>
        <time>2015-08-05T11:25:10Z</time>
        <speed>1.632000</speed>
      </trkpt>
      <trkpt lat="46.047574471" lon="7.191188115">
        <ele>2013.200000</ele>
        <time>2015-08-05T11:25:14Z</time>
        <speed>1.541000</speed>
      </trkpt>
      <trkpt lat="46.047562736" lon="7.191185768">
        <ele>2013.600000</ele>
        <time>2015-08-05T11:25:15Z</time>
        <speed>1.541000</speed>
      </trkpt>
      <trkpt lat="46.047551253" lon="7.191186439">
        <ele>2014.400000</ele>
        <time>2015-08-05T11:25:16Z</time>
        <speed>1.489000</speed>
      </trkpt>
      <trkpt lat="46.047539351" lon="7.191188618">
        <ele>2014.800000</ele>
        <time>2015-08-05T11:25:17Z</time>
        <speed>1.487000</speed>
      </trkpt>
      <trkpt lat="46.047446731" lon="7.191219380">
        <ele>2014.800000</ele>
        <time>2015-08-05T11:25:24Z</time>
        <speed>1.478000</speed>
      </trkpt>
      <trkpt lat="46.047423680" lon="7.191209238">
        <ele>2015.200000</ele>
        <time>2015-08-05T11:25:26Z</time>
        <speed>1.579000</speed>
      </trkpt>
      <trkpt lat="46.047415047" lon="7.191198844">
        <ele>2015.600000</ele>
        <time>2015-08-05T11:25:27Z</time>
        <speed>1.483000</speed>
      </trkpt>
      <trkpt lat="46.047408928" lon="7.191183086">
        <ele>2016.200000</ele>
        <time>2015-08-05T11:25:28Z</time>
        <speed>1.476000</speed>
      </trkpt>
      <trkpt lat="46.047405827" lon="7.191165233">
        <ele>2016.600000</ele>
        <time>2015-08-05T11:25:29Z</time>
        <speed>1.476000</speed>
      </trkpt>
      <trkpt lat="46.047411024" lon="7.191148385">
        <ele>2017.000000</ele>
        <time>2015-08-05T11:25:30Z</time>
        <speed>1.582000</speed>
      </trkpt>
      <trkpt lat="46.047456286" lon="7.191109158">
        <ele>2017.000000</ele>
        <time>2015-08-05T11:25:34Z</time>
        <speed>1.522000</speed>
      </trkpt>
      <trkpt lat="46.047484030" lon="7.191104129">
        <ele>2017.000000</ele>
        <time>2015-08-05T11:25:36Z</time>
        <speed>1.529000</speed>
      </trkpt>
      <trkpt lat="46.047539099" lon="7.191094238">
        <ele>2017.400000</ele>
        <time>2015-08-05T11:25:40Z</time>
        <speed>1.567000</speed>
      </trkpt>
      <trkpt lat="46.047552426" lon="7.191089712">
        <ele>2018.200000</ele>
        <time>2015-08-05T11:25:41Z</time>
        <speed>1.545000</speed>
      </trkpt>
      <trkpt lat="46.047565502" lon="7.191083677">
        <ele>2018.600000</ele>
        <time>2015-08-05T11:25:42Z</time>
        <speed>1.651000</speed>
      </trkpt>
      <trkpt lat="46.047577824" lon="7.191074205">
        <ele>2019.000000</ele>
        <time>2015-08-05T11:25:43Z</time>
        <speed>1.682000</speed>
      </trkpt>
      <trkpt lat="46.047640939" lon="7.190981837">
        <ele>2019.000000</ele>
        <time>2015-08-05T11:25:49Z</time>
        <speed>1.643000</speed>
      </trkpt>
      <trkpt lat="46.047643705" lon="7.190964151">
        <ele>2019.000000</ele>
        <time>2015-08-05T11:25:50Z</time>
        <speed>1.643000</speed>
      </trkpt>
      <trkpt lat="46.047652255" lon="7.190785281">
        <ele>2019.000000</ele>
        <time>2015-08-05T11:25:58Z</time>
        <speed>1.871000</speed>
      </trkpt>
      <trkpt lat="46.047654602" lon="7.190741779">
        <ele>2019.400000</ele>
        <time>2015-08-05T11:26:00Z</time>
        <speed>1.888000</speed>
      </trkpt>
      <trkpt lat="46.047653009" lon="7.190723087">
        <ele>2019.800000</ele>
        <time>2015-08-05T11:26:01Z</time>
        <speed>1.786000</speed>
      </trkpt>
      <trkpt lat="46.047653009" lon="7.190701462">
        <ele>2020.200000</ele>
        <time>2015-08-05T11:26:02Z</time>
        <speed>1.801000</speed>
      </trkpt>
      <trkpt lat="46.047655608" lon="7.190683189">
        <ele>2020.600000</ele>
        <time>2015-08-05T11:26:03Z</time>
        <speed>1.686000</speed>
      </trkpt>
      <trkpt lat="46.047658290" lon="7.190664917">
        <ele>2021.000000</ele>
        <time>2015-08-05T11:26:04Z</time>
        <speed>1.686000</speed>
      </trkpt>
      <trkpt lat="46.047656027" lon="7.190641950">
        <ele>2021.000000</ele>
        <time>2015-08-05T11:26:05Z</time>
        <speed>1.663000</speed>
      </trkpt>
      <trkpt lat="46.047654769" lon="7.190556790">
        <ele>2021.600000</ele>
        <time>2015-08-05T11:26:09Z</time>
        <speed>1.607000</speed>
      </trkpt>
      <trkpt lat="46.047656530" lon="7.190537093">
        <ele>2022.000000</ele>
        <time>2015-08-05T11:26:10Z</time>
        <speed>1.506000</speed>
      </trkpt>
      <trkpt lat="46.047659715" lon="7.190517312">
        <ele>2022.400000</ele>
        <time>2015-08-05T11:26:11Z</time>
        <speed>1.506000</speed>
      </trkpt>
      <trkpt lat="46.047661559" lon="7.190499290">
        <ele>2022.800000</ele>
        <time>2015-08-05T11:26:12Z</time>
        <speed>1.501000</speed>
      </trkpt>
      <trkpt lat="46.047661643" lon="7.190479761">
        <ele>2023.200000</ele>
        <time>2015-08-05T11:26:13Z</time>
        <speed>1.651000</speed>
      </trkpt>
      <trkpt lat="46.047668851" lon="7.190405581">
        <ele>2023.200000</ele>
        <time>2015-08-05T11:26:17Z</time>
        <speed>1.395000</speed>
      </trkpt>
      <trkpt lat="46.047674299" lon="7.190316314">
        <ele>2023.600000</ele>
        <time>2015-08-05T11:26:22Z</time>
        <speed>1.440000</speed>
      </trkpt>
      <trkpt lat="46.047674383" lon="7.190300388">
        <ele>2024.000000</ele>
        <time>2015-08-05T11:26:23Z</time>
        <speed>1.452000</speed>
      </trkpt>
      <trkpt lat="46.047672623" lon="7.190282954">
        <ele>2024.600000</ele>
        <time>2015-08-05T11:26:24Z</time>
        <speed>1.514000</speed>
      </trkpt>
      <trkpt lat="46.047673880" lon="7.190265938">
        <ele>2025.000000</ele>
        <time>2015-08-05T11:26:25Z</time>
        <speed>1.514000</speed>
      </trkpt>
      <trkpt lat="46.047673964" lon="7.190248672">
        <ele>2025.400000</ele>
        <time>2015-08-05T11:26:26Z</time>
        <speed>1.447000</speed>
      </trkpt>
      <trkpt lat="46.047668013" lon="7.190207097">
        <ele>2025.400000</ele>
        <time>2015-08-05T11:26:28Z</time>
        <speed>1.489000</speed>
      </trkpt>
      <trkpt lat="46.047671617" lon="7.190146915">
        <ele>2025.400000</ele>
        <time>2015-08-05T11:26:31Z</time>
        <speed>1.524000</speed>
      </trkpt>
      <trkpt lat="46.047683855" lon="7.190092433">
        <ele>2025.400000</ele>
        <time>2015-08-05T11:26:34Z</time>
        <speed>1.560000</speed>
      </trkpt>
      <trkpt lat="46.047687962" lon="7.190071813">
        <ele>2025.800000</ele>
        <time>2015-08-05T11:26:35Z</time>
        <speed>1.446000</speed>
      </trkpt>
      <trkpt lat="46.047693661" lon="7.190056391">
        <ele>2026.200000</ele>
        <time>2015-08-05T11:26:36Z</time>
        <speed>1.556000</speed>
      </trkpt>
      <trkpt lat="46.047700702" lon="7.190042812">
        <ele>2026.600000</ele>
        <time>2015-08-05T11:26:37Z</time>
        <speed>1.556000</speed>
      </trkpt>
      <trkpt lat="46.047704223" lon="7.190028144">
        <ele>2027.000000</ele>
        <time>2015-08-05T11:26:38Z</time>
        <speed>1.554000</speed>
      </trkpt>
      <trkpt lat="46.047708162" lon="7.190013056">
        <ele>2027.400000</ele>
        <time>2015-08-05T11:26:39Z</time>
        <speed>1.484000</speed>
      </trkpt>
      <trkpt lat="46.047755688" lon="7.189942816">
        <ele>2027.400000</ele>
        <time>2015-08-05T11:26:45Z</time>
        <speed>1.481000</speed>
      </trkpt>
      <trkpt lat="46.047771865" lon="7.189922783">
        <ele>2028.000000</ele>
        <time>2015-08-05T11:26:47Z</time>
        <speed>1.310000</speed>
      </trkpt>
      <trkpt lat="46.047780833" lon="7.189909288">
        <ele>2028.400000</ele>
        <time>2015-08-05T11:26:48Z</time>
        <speed>1.329000</speed>
      </trkpt>
      <trkpt lat="46.047789802" lon="7.189901745">
        <ele>2028.800000</ele>
        <time>2015-08-05T11:26:49Z</time>
        <speed>1.329000</speed>
      </trkpt>
      <trkpt lat="46.047801285" lon="7.189895039">
        <ele>2029.200000</ele>
        <time>2015-08-05T11:26:50Z</time>
        <speed>1.290000</speed>
      </trkpt>
      <trkpt lat="46.047811762" lon="7.189885651">
        <ele>2029.600000</ele>
        <time>2015-08-05T11:26:51Z</time>
        <speed>1.290000</speed>
      </trkpt>
      <trkpt lat="46.047857276" lon="7.189824799">
        <ele>2029.600000</ele>
        <time>2015-08-05T11:26:56Z</time>
        <speed>1.493000</speed>
      </trkpt>
      <trkpt lat="46.047849230" lon="7.189787248">
        <ele>2029.600000</ele>
        <time>2015-08-05T11:26:58Z</time>
        <speed>1.459000</speed>
      </trkpt>
      <trkpt lat="46.047844200" lon="7.189771657">
        <ele>2030.000000</ele>
        <time>2015-08-05T11:26:59Z</time>
        <speed>1.420000</speed>
      </trkpt>
      <trkpt lat="46.047838249" lon="7.189752463">
        <ele>2030.400000</ele>
        <time>2015-08-05T11:27:00Z</time>
        <speed>1.543000</speed>
      </trkpt>
      <trkpt lat="46.047826934" lon="7.189736453">
        <ele>2030.800000</ele>
        <time>2015-08-05T11:27:01Z</time>
        <speed>1.593000</speed>
      </trkpt>
      <trkpt lat="46.047812684" lon="7.189728407">
        <ele>2031.400000</ele>
        <time>2015-08-05T11:27:02Z</time>
        <speed>1.593000</speed>
      </trkpt>
      <trkpt lat="46.047799106" lon="7.189730670">
        <ele>2031.800000</ele>
        <time>2015-08-05T11:27:03Z</time>
        <speed>1.610000</speed>
      </trkpt>
      <trkpt lat="46.047751664" lon="7.189790433">
        <ele>2031.800000</ele>
        <time>2015-08-05T11:27:08Z</time>
        <speed>1.492000</speed>
      </trkpt>
      <trkpt lat="46.047694667" lon="7.189883221">
        <ele>2032.200000</ele>
        <time>2015-08-05T11:27:15Z</time>
        <speed>1.493000</speed>
      </trkpt>
      <trkpt lat="46.047686872" lon="7.189898140">
        <ele>2032.600000</ele>
        <time>2015-08-05T11:27:16Z</time>
        <speed>1.502000</speed>
      </trkpt>
      <trkpt lat="46.047679831" lon="7.189912809">
        <ele>2033.000000</ele>
        <time>2015-08-05T11:27:17Z</time>
        <speed>1.502000</speed>
      </trkpt>
      <trkpt lat="46.047669270" lon="7.189924543">
        <ele>2033.400000</ele>
        <time>2015-08-05T11:27:18Z</time>
        <speed>1.419000</speed>
      </trkpt>
      <trkpt lat="46.047659463" lon="7.189941810">
        <ele>2033.800000</ele>
        <time>2015-08-05T11:27:19Z</time>
        <speed>1.497000</speed>
      </trkpt>
      <trkpt lat="46.047641023" lon="7.189963938">
        <ele>2033.800000</ele>
        <time>2015-08-05T11:27:21Z</time>
        <speed>1.541000</speed>
      </trkpt>
      <trkpt lat="46.047597689" lon="7.189987408">
        <ele>2033.800000</ele>
        <time>2015-08-05T11:27:25Z</time>
        <speed>1.450000</speed>
      </trkpt>
      <trkpt lat="46.047571286" lon="7.189999142">
        <ele>2033.800000</ele>
        <time>2015-08-05T11:27:27Z</time>
        <speed>1.357000</speed>
      </trkpt>
      <trkpt lat="46.047550918" lon="7.190016074">
        <ele>2034.200000</ele>
        <time>2015-08-05T11:27:29Z</time>
        <speed>1.368000</speed>
      </trkpt>
      <trkpt lat="46.047539937" lon="7.190024456">
        <ele>2034.600000</ele>
        <time>2015-08-05T11:27:30Z</time>
        <speed>1.457000</speed>
      </trkpt>
      <trkpt lat="46.047527281" lon="7.190033676">
        <ele>2035.000000</ele>
        <time>2015-08-05T11:27:31Z</time>
        <speed>1.528000</speed>
      </trkpt>
      <trkpt lat="46.047518061" lon="7.190041722">
        <ele>2035.400000</ele>
        <time>2015-08-05T11:27:32Z</time>
        <speed>1.564000</speed>
      </trkpt>
      <trkpt lat="46.047510936" lon="7.190053708">
        <ele>2035.800000</ele>
        <time>2015-08-05T11:27:33Z</time>
        <speed>1.564000</speed>
      </trkpt>
      <trkpt lat="46.047473301" lon="7.190124871">
        <ele>2035.800000</ele>
        <time>2015-08-05T11:27:38Z</time>
        <speed>1.522000</speed>
      </trkpt>
      <trkpt lat="46.047464500" lon="7.190170887">
        <ele>2036.200000</ele>
        <time>2015-08-05T11:27:41Z</time>
        <speed>1.220000</speed>
      </trkpt>
      <trkpt lat="46.047461064" lon="7.190188406">
        <ele>2036.600000</ele>
        <time>2015-08-05T11:27:42Z</time>
        <speed>1.220000</speed>
      </trkpt>
      <trkpt lat="46.047455867" lon="7.190202236">
        <ele>2037.600000</ele>
        <time>2015-08-05T11:27:43Z</time>
        <speed>1.258000</speed>
      </trkpt>
      <trkpt lat="46.047452011" lon="7.190217910">
        <ele>2038.000000</ele>
        <time>2015-08-05T11:27:44Z</time>
        <speed>1.327000</speed>
      </trkpt>
      <trkpt lat="46.047446228" lon="7.190230986">
        <ele>2038.000000</ele>
        <time>2015-08-05T11:27:45Z</time>
        <speed>1.327000</speed>
      </trkpt>
      <trkpt lat="46.047377999" lon="7.190320504">
        <ele>2038.000000</ele>
        <time>2015-08-05T11:27:53Z</time>
        <speed>1.298000</speed>
      </trkpt>
      <trkpt lat="46.047356877" lon="7.190334586">
        <ele>2038.400000</ele>
        <time>2015-08-05T11:27:55Z</time>
        <speed>1.282000</speed>
      </trkpt>
      <trkpt lat="46.047345393" lon="7.190340537">
        <ele>2038.800000</ele>
        <time>2015-08-05T11:27:56Z</time>
        <speed>1.327000</speed>
      </trkpt>
      <trkpt lat="46.047337095" lon="7.190349171">
        <ele>2039.200000</ele>
        <time>2015-08-05T11:27:57Z</time>
        <speed>1.322000</speed>
      </trkpt>
      <trkpt lat="46.047328881" lon="7.190360235">
        <ele>2039.600000</ele>
        <time>2015-08-05T11:27:58Z</time>
        <speed>1.322000</speed>
      </trkpt>
      <trkpt lat="46.047320248" lon="7.190367192">
        <ele>2040.000000</ele>
        <time>2015-08-05T11:27:59Z</time>
        <speed>1.247000</speed>
      </trkpt>
      <trkpt lat="46.047312955" lon="7.190380603">
        <ele>2040.000000</ele>
        <time>2015-08-05T11:28:00Z</time>
        <speed>1.284000</speed>
      </trkpt>
      <trkpt lat="46.047267525" lon="7.190427038">
        <ele>2040.000000</ele>
        <time>2015-08-05T11:28:05Z</time>
        <speed>1.321000</speed>
      </trkpt>
      <trkpt lat="46.047242464" lon="7.190450256">
        <ele>2040.800000</ele>
        <time>2015-08-05T11:28:08Z</time>
        <speed>1.331000</speed>
      </trkpt>
      <trkpt lat="46.047234249" lon="7.190459476">
        <ele>2041.200000</ele>
        <time>2015-08-05T11:28:09Z</time>
        <speed>1.331000</speed>
      </trkpt>
      <trkpt lat="46.047224778" lon="7.190471211">
        <ele>2041.600000</ele>
        <time>2015-08-05T11:28:10Z</time>
        <speed>1.249000</speed>
      </trkpt>
      <trkpt lat="46.047214468" lon="7.190481269">
        <ele>2042.000000</ele>
        <time>2015-08-05T11:28:11Z</time>
        <speed>1.249000</speed>
      </trkpt>
      <trkpt lat="46.047193429" lon="7.190505828">
        <ele>2042.000000</ele>
        <time>2015-08-05T11:28:13Z</time>
        <speed>1.288000</speed>
      </trkpt>
      <trkpt lat="46.047131403" lon="7.190540026">
        <ele>2042.400000</ele>
        <time>2015-08-05T11:28:20Z</time>
        <speed>1.168000</speed>
      </trkpt>
      <trkpt lat="46.047122099" lon="7.190547403">
        <ele>2042.800000</ele>
        <time>2015-08-05T11:28:21Z</time>
        <speed>1.168000</speed>
      </trkpt>
      <trkpt lat="46.047111119" lon="7.190552180">
        <ele>2043.200000</ele>
        <time>2015-08-05T11:28:22Z</time>
        <speed>1.175000</speed>
      </trkpt>
      <trkpt lat="46.047099552" lon="7.190556204">
        <ele>2043.600000</ele>
        <time>2015-08-05T11:28:23Z</time>
        <speed>1.175000</speed>
      </trkpt>
      <trkpt lat="46.047089913" lon="7.190566932">
        <ele>2044.000000</ele>
        <time>2015-08-05T11:28:24Z</time>
        <speed>1.291000</speed>
      </trkpt>
      <trkpt lat="46.047056134" lon="7.190579924">
        <ele>2044.000000</ele>
        <time>2015-08-05T11:28:27Z</time>
        <speed>1.284000</speed>
      </trkpt>
      <trkpt lat="46.047007770" lon="7.190587133">
        <ele>2044.000000</ele>
        <time>2015-08-05T11:28:31Z</time>
        <speed>1.378000</speed>
      </trkpt>
      <trkpt lat="46.046990839" lon="7.190597107">
        <ele>2044.600000</ele>
        <time>2015-08-05T11:28:33Z</time>
        <speed>1.309000</speed>
      </trkpt>
      <trkpt lat="46.046982792" lon="7.190601382">
        <ele>2045.000000</ele>
        <time>2015-08-05T11:28:34Z</time>
        <speed>1.309000</speed>
      </trkpt>
      <trkpt lat="46.046974243" lon="7.190601969">
        <ele>2045.400000</ele>
        <time>2015-08-05T11:28:35Z</time>
        <speed>1.281000</speed>
      </trkpt>
      <trkpt lat="46.046963514" lon="7.190608507">
        <ele>2046.000000</ele>
        <time>2015-08-05T11:28:36Z</time>
        <speed>1.281000</speed>
      </trkpt>
      <trkpt lat="46.046954042" lon="7.190610434">
        <ele>2046.400000</ele>
        <time>2015-08-05T11:28:37Z</time>
        <speed>1.244000</speed>
      </trkpt>
      <trkpt lat="46.046936356" lon="7.190628623">
        <ele>2046.400000</ele>
        <time>2015-08-05T11:28:39Z</time>
        <speed>1.167000</speed>
      </trkpt>
      <trkpt lat="46.046877683" lon="7.190652344">
        <ele>2046.400000</ele>
        <time>2015-08-05T11:28:44Z</time>
        <speed>1.272000</speed>
      </trkpt>
      <trkpt lat="46.046841892" lon="7.190696098">
        <ele>2046.800000</ele>
        <time>2015-08-05T11:28:48Z</time>
        <speed>1.385000</speed>
      </trkpt>
      <trkpt lat="46.046830912" lon="7.190700372">
        <ele>2047.200000</ele>
        <time>2015-08-05T11:28:49Z</time>
        <speed>1.452000</speed>
      </trkpt>
      <trkpt lat="46.046821357" lon="7.190708838">
        <ele>2047.600000</ele>
        <time>2015-08-05T11:28:50Z</time>
        <speed>1.452000</speed>
      </trkpt>
      <trkpt lat="46.046812807" lon="7.190722081">
        <ele>2048.000000</ele>
        <time>2015-08-05T11:28:51Z</time>
        <speed>1.407000</speed>
      </trkpt>
      <trkpt lat="46.046812388" lon="7.190737588">
        <ele>2048.400000</ele>
        <time>2015-08-05T11:28:52Z</time>
        <speed>1.407000</speed>
      </trkpt>
      <trkpt lat="46.046806856" lon="7.190772457">
        <ele>2048.400000</ele>
        <time>2015-08-05T11:28:54Z</time>
        <speed>1.273000</speed>
      </trkpt>
      <trkpt lat="46.046806353" lon="7.190816629">
        <ele>2048.400000</ele>
        <time>2015-08-05T11:28:57Z</time>
        <speed>1.313000</speed>
      </trkpt>
      <trkpt lat="46.046807443" lon="7.190832890">
        <ele>2048.800000</ele>
        <time>2015-08-05T11:28:58Z</time>
        <speed>1.313000</speed>
      </trkpt>
      <trkpt lat="46.046804844" lon="7.190850241">
        <ele>2049.200000</ele>
        <time>2015-08-05T11:28:59Z</time>
        <speed>1.395000</speed>
      </trkpt>
      <trkpt lat="46.046804090" lon="7.190868932">
        <ele>2049.600000</ele>
        <time>2015-08-05T11:29:00Z</time>
        <speed>1.395000</speed>
      </trkpt>
      <trkpt lat="46.046802330" lon="7.190884607">
        <ele>2050.000000</ele>
        <time>2015-08-05T11:29:01Z</time>
        <speed>1.369000</speed>
      </trkpt>
      <trkpt lat="46.046798977" lon="7.190899694">
        <ele>2050.400000</ele>
        <time>2015-08-05T11:29:02Z</time>
        <speed>1.377000</speed>
      </trkpt>
      <trkpt lat="46.046779531" lon="7.190999522">
        <ele>2050.400000</ele>
        <time>2015-08-05T11:29:08Z</time>
        <speed>1.364000</speed>
      </trkpt>
      <trkpt lat="46.046756900" lon="7.191043779">
        <ele>2050.800000</ele>
        <time>2015-08-05T11:29:12Z</time>
        <speed>1.349000</speed>
      </trkpt>
      <trkpt lat="46.046751871" lon="7.191057860">
        <ele>2051.400000</ele>
        <time>2015-08-05T11:29:13Z</time>
        <speed>1.349000</speed>
      </trkpt>
      <trkpt lat="46.046745752" lon="7.191071691">
        <ele>2051.800000</ele>
        <time>2015-08-05T11:29:14Z</time>
        <speed>1.302000</speed>
      </trkpt>
      <trkpt lat="46.046739298" lon="7.191087532">
        <ele>2052.200000</ele>
        <time>2015-08-05T11:29:15Z</time>
        <speed>1.302000</speed>
      </trkpt>
      <trkpt lat="46.046730245" lon="7.191101279">
        <ele>2052.600000</ele>
        <time>2015-08-05T11:29:16Z</time>
        <speed>1.295000</speed>
      </trkpt>
      <trkpt lat="46.046695712" lon="7.191175878">
        <ele>2052.600000</ele>
        <time>2015-08-05T11:29:21Z</time>
        <speed>1.362000</speed>
      </trkpt>
      <trkpt lat="46.046684564" lon="7.191186187">
        <ele>2053.000000</ele>
        <time>2015-08-05T11:29:22Z</time>
        <speed>1.389000</speed>
      </trkpt>
      <trkpt lat="46.046674925" lon="7.191195240">
        <ele>2053.400000</ele>
        <time>2015-08-05T11:29:23Z</time>
        <speed>1.395000</speed>
      </trkpt>
      <trkpt lat="46.046663777" lon="7.191196749">
        <ele>2053.800000</ele>
        <time>2015-08-05T11:29:24Z</time>
        <speed>1.395000</speed>
      </trkpt>
      <trkpt lat="46.046653383" lon="7.191202281">
        <ele>2054.200000</ele>
        <time>2015-08-05T11:29:25Z</time>
        <speed>1.300000</speed>
      </trkpt>
      <trkpt lat="46.046643409" lon="7.191209824">
        <ele>2054.600000</ele>
        <time>2015-08-05T11:29:26Z</time>
        <speed>1.300000</speed>
      </trkpt>
      <trkpt lat="46.046633854" lon="7.191213261">
        <ele>2054.600000</ele>
        <time>2015-08-05T11:29:27Z</time>
        <speed>1.250000</speed>
      </trkpt>
      <trkpt lat="46.046591274" lon="7.191209489">
        <ele>2054.600000</ele>
        <time>2015-08-05T11:29:31Z</time>
        <speed>1.234000</speed>
      </trkpt>
      <trkpt lat="46.046552633" lon="7.191213680">
        <ele>2055.000000</ele>
        <time>2015-08-05T11:29:34Z</time>
        <speed>1.334000</speed>
      </trkpt>
      <trkpt lat="46.046541736" lon="7.191217368">
        <ele>2055.400000</ele>
        <time>2015-08-05T11:29:35Z</time>
        <speed>1.293000</speed>
      </trkpt>
      <trkpt lat="46.046530505" lon="7.191221559">
        <ele>2056.000000</ele>
        <time>2015-08-05T11:29:36Z</time>
        <speed>1.401000</speed>
      </trkpt>
      <trkpt lat="46.046518686" lon="7.191224744">
        <ele>2056.400000</ele>
        <time>2015-08-05T11:29:37Z</time>
        <speed>1.401000</speed>
      </trkpt>
      <trkpt lat="46.046507957" lon="7.191227175">
        <ele>2056.800000</ele>
        <time>2015-08-05T11:29:38Z</time>
        <speed>1.520000</speed>
      </trkpt>
      <trkpt lat="46.046465461" lon="7.191246202">
        <ele>2056.800000</ele>
        <time>2015-08-05T11:29:42Z</time>
        <speed>1.403000</speed>
      </trkpt>
      <trkpt lat="46.046454481" lon="7.191250560">
        <ele>2056.800000</ele>
        <time>2015-08-05T11:29:43Z</time>
        <speed>1.403000</speed>
      </trkpt>
      <trkpt lat="46.046425731" lon="7.191258188">
        <ele>2057.200000</ele>
        <time>2015-08-05T11:29:46Z</time>
        <speed>1.404000</speed>
      </trkpt>
      <trkpt lat="46.046420031" lon="7.191274030">
        <ele>2058.000000</ele>
        <time>2015-08-05T11:29:47Z</time>
        <speed>1.280000</speed>
      </trkpt>
      <trkpt lat="46.046412488" lon="7.191284675">
        <ele>2058.400000</ele>
        <time>2015-08-05T11:29:48Z</time>
        <speed>1.280000</speed>
      </trkpt>
      <trkpt lat="46.046405111" lon="7.191297667">
        <ele>2059.000000</ele>
        <time>2015-08-05T11:29:49Z</time>
        <speed>1.253000</speed>
      </trkpt>
      <trkpt lat="46.046375020" lon="7.191351143">
        <ele>2059.000000</ele>
        <time>2015-08-05T11:29:53Z</time>
        <speed>1.211000</speed>
      </trkpt>
      <trkpt lat="46.046364878" lon="7.191391209">
        <ele>2059.000000</ele>
        <time>2015-08-05T11:29:55Z</time>
        <speed>1.219000</speed>
      </trkpt>
      <trkpt lat="46.046346690" lon="7.191442590">
        <ele>2059.000000</ele>
        <time>2015-08-05T11:29:58Z</time>
        <speed>1.379000</speed>
      </trkpt>
      <trkpt lat="46.046341325" lon="7.191457426">
        <ele>2059.400000</ele>
        <time>2015-08-05T11:29:59Z</time>
        <speed>1.379000</speed>
      </trkpt>
      <trkpt lat="46.046338308" lon="7.191471759">
        <ele>2059.800000</ele>
        <time>2015-08-05T11:30:00Z</time>
        <speed>1.453000</speed>
      </trkpt>
      <trkpt lat="46.046330429" lon="7.191485254">
        <ele>2060.200000</ele>
        <time>2015-08-05T11:30:01Z</time>
        <speed>1.429000</speed>
      </trkpt>
      <trkpt lat="46.046327076" lon="7.191498246">
        <ele>2060.600000</ele>
        <time>2015-08-05T11:30:02Z</time>
        <speed>1.358000</speed>
      </trkpt>
      <trkpt lat="46.046322885" lon="7.191511908">
        <ele>2061.000000</ele>
        <time>2015-08-05T11:30:03Z</time>
        <speed>1.358000</speed>
      </trkpt>
      <trkpt lat="46.046320622" lon="7.191530097">
        <ele>2061.000000</ele>
        <time>2015-08-05T11:30:04Z</time>
        <speed>1.284000</speed>
      </trkpt>
      <trkpt lat="46.046320790" lon="7.191593129">
        <ele>2061.000000</ele>
        <time>2015-08-05T11:30:08Z</time>
        <speed>1.333000</speed>
      </trkpt>
      <trkpt lat="46.046316515" lon="7.191622130">
        <ele>2061.000000</ele>
        <time>2015-08-05T11:30:10Z</time>
        <speed>1.310000</speed>
      </trkpt>
      <trkpt lat="46.046311234" lon="7.191650545">
        <ele>2061.800000</ele>
        <time>2015-08-05T11:30:12Z</time>
        <speed>1.297000</speed>
      </trkpt>
      <trkpt lat="46.046308133" lon="7.191666051">
        <ele>2062.200000</ele>
        <time>2015-08-05T11:30:13Z</time>
        <speed>1.297000</speed>
      </trkpt>
      <trkpt lat="46.046306037" lon="7.191678373">
        <ele>2062.800000</ele>
        <time>2015-08-05T11:30:14Z</time>
        <speed>1.288000</speed>
      </trkpt>
      <trkpt lat="46.046303523" lon="7.191690107">
        <ele>2063.200000</ele>
        <time>2015-08-05T11:30:15Z</time>
        <speed>1.288000</speed>
      </trkpt>
      <trkpt lat="46.046299164" lon="7.191705614">
        <ele>2063.200000</ele>
        <time>2015-08-05T11:30:16Z</time>
        <speed>1.287000</speed>
      </trkpt>
      <trkpt lat="46.046288016" lon="7.191799407">
        <ele>2063.600000</ele>
        <time>2015-08-05T11:30:22Z</time>
        <speed>1.306000</speed>
      </trkpt>
      <trkpt lat="46.046288854" lon="7.191816842">
        <ele>2064.000000</ele>
        <time>2015-08-05T11:30:23Z</time>
        <speed>1.306000</speed>
      </trkpt>
      <trkpt lat="46.046289190" lon="7.191835366">
        <ele>2064.400000</ele>
        <time>2015-08-05T11:30:24Z</time>
        <speed>1.303000</speed>
      </trkpt>
      <trkpt lat="46.046287513" lon="7.191851291">
        <ele>2064.800000</ele>
        <time>2015-08-05T11:30:25Z</time>
        <speed>1.333000</speed>
      </trkpt>
      <trkpt lat="46.046284244" lon="7.191869983">
        <ele>2065.200000</ele>
        <time>2015-08-05T11:30:26Z</time>
        <speed>1.333000</speed>
      </trkpt>
      <trkpt lat="46.046280808" lon="7.191924046">
        <ele>2065.200000</ele>
        <time>2015-08-05T11:30:29Z</time>
        <speed>1.468000</speed>
      </trkpt>
      <trkpt lat="46.046283406" lon="7.191958496">
        <ele>2065.200000</ele>
        <time>2015-08-05T11:30:31Z</time>
        <speed>1.428000</speed>
      </trkpt>
      <trkpt lat="46.046281646" lon="7.191974589">
        <ele>2065.200000</ele>
        <time>2015-08-05T11:30:32Z</time>
        <speed>1.428000</speed>
      </trkpt>
      <trkpt lat="46.046278293" lon="7.192041309">
        <ele>2065.600000</ele>
        <time>2015-08-05T11:30:36Z</time>
        <speed>1.430000</speed>
      </trkpt>
      <trkpt lat="46.046276282" lon="7.192058576">
        <ele>2066.400000</ele>
        <time>2015-08-05T11:30:37Z</time>
        <speed>1.331000</speed>
      </trkpt>
      <trkpt lat="46.046273348" lon="7.192072741">
        <ele>2066.800000</ele>
        <time>2015-08-05T11:30:38Z</time>
        <speed>1.331000</speed>
      </trkpt>
      <trkpt lat="46.046269241" lon="7.192088164">
        <ele>2067.200000</ele>
        <time>2015-08-05T11:30:39Z</time>
        <speed>1.339000</speed>
      </trkpt>
      <trkpt lat="46.046236468" lon="7.192179359">
        <ele>2067.600000</ele>
        <time>2015-08-05T11:30:45Z</time>
        <speed>1.387000</speed>
      </trkpt>
      <trkpt lat="46.046226912" lon="7.192191681">
        <ele>2068.200000</ele>
        <time>2015-08-05T11:30:46Z</time>
        <speed>1.458000</speed>
      </trkpt>
      <trkpt lat="46.046216519" lon="7.192201655">
        <ele>2068.600000</ele>
        <time>2015-08-05T11:30:47Z</time>
        <speed>1.458000</speed>
      </trkpt>
      <trkpt lat="46.046204533" lon="7.192207355">
        <ele>2069.000000</ele>
        <time>2015-08-05T11:30:48Z</time>
        <speed>1.395000</speed>
      </trkpt>
      <trkpt lat="46.046191457" lon="7.192210875">
        <ele>2069.400000</ele>
        <time>2015-08-05T11:30:49Z</time>
        <speed>1.398000</speed>
      </trkpt>
      <trkpt lat="46.046153151" lon="7.192220263">
        <ele>2069.400000</ele>
        <time>2015-08-05T11:30:52Z</time>
        <speed>1.545000</speed>
      </trkpt>
      <trkpt lat="46.046141584" lon="7.192220933">
        <ele>2069.400000</ele>
        <time>2015-08-05T11:30:53Z</time>
        <speed>1.545000</speed>
      </trkpt>
      <trkpt lat="46.046059190" lon="7.192245911">
        <ele>2069.400000</ele>
        <time>2015-08-05T11:30:59Z</time>
        <speed>1.643000</speed>
      </trkpt>
      <trkpt lat="46.046024741" lon="7.192344902">
        <ele>2069.400000</ele>
        <time>2015-08-05T11:31:05Z</time>
        <speed>1.656000</speed>
      </trkpt>
      <trkpt lat="46.046023567" lon="7.192363426">
        <ele>2069.800000</ele>
        <time>2015-08-05T11:31:06Z</time>
        <speed>1.597000</speed>
      </trkpt>
      <trkpt lat="46.046024070" lon="7.192380273">
        <ele>2070.200000</ele>
        <time>2015-08-05T11:31:07Z</time>
        <speed>1.597000</speed>
      </trkpt>
      <trkpt lat="46.046026166" lon="7.192394858">
        <ele>2070.600000</ele>
        <time>2015-08-05T11:31:08Z</time>
        <speed>1.508000</speed>
      </trkpt>
      <trkpt lat="46.046026920" lon="7.192411957">
        <ele>2071.200000</ele>
        <time>2015-08-05T11:31:09Z</time>
        <speed>1.409000</speed>
      </trkpt>
      <trkpt lat="46.046033961" lon="7.192425703">
        <ele>2071.600000</ele>
        <time>2015-08-05T11:31:10Z</time>
        <speed>1.409000</speed>
      </trkpt>
      <trkpt lat="46.046038319" lon="7.192439030">
        <ele>2071.600000</ele>
        <time>2015-08-05T11:31:11Z</time>
        <speed>1.362000</speed>
      </trkpt>
      <trkpt lat="46.046047120" lon="7.192491920">
        <ele>2072.000000</ele>
        <time>2015-08-05T11:31:15Z</time>
        <speed>1.316000</speed>
      </trkpt>
      <trkpt lat="46.046050138" lon="7.192506672">
        <ele>2072.400000</ele>
        <time>2015-08-05T11:31:16Z</time>
        <speed>1.316000</speed>
      </trkpt>
      <trkpt lat="46.046057179" lon="7.192521676">
        <ele>2072.800000</ele>
        <time>2015-08-05T11:31:17Z</time>
        <speed>1.312000</speed>
      </trkpt>
      <trkpt lat="46.046059777" lon="7.192541793">
        <ele>2073.200000</ele>
        <time>2015-08-05T11:31:18Z</time>
        <speed>1.312000</speed>
      </trkpt>
      <trkpt lat="46.046059358" lon="7.192560736">
        <ele>2073.800000</ele>
        <time>2015-08-05T11:31:19Z</time>
        <speed>1.268000</speed>
      </trkpt>
      <trkpt lat="46.046066063" lon="7.192595521">
        <ele>2073.800000</ele>
        <time>2015-08-05T11:31:21Z</time>
        <speed>1.352000</speed>
      </trkpt>
      <trkpt lat="46.046076122" lon="7.192668527">
        <ele>2074.600000</ele>
        <time>2015-08-05T11:31:26Z</time>
        <speed>1.329000</speed>
      </trkpt>
      <trkpt lat="46.046079139" lon="7.192685207">
        <ele>2075.000000</ele>
        <time>2015-08-05T11:31:27Z</time>
        <speed>1.200000</speed>
      </trkpt>
      <trkpt lat="46.046082324" lon="7.192703480">
        <ele>2075.600000</ele>
        <time>2015-08-05T11:31:28Z</time>
        <speed>1.200000</speed>
      </trkpt>
      <trkpt lat="46.046082324" lon="7.192722087">
        <ele>2076.000000</ele>
        <time>2015-08-05T11:31:29Z</time>
        <speed>1.313000</speed>
      </trkpt>
      <trkpt lat="46.046094897" lon="7.192808169">
        <ele>2076.000000</ele>
        <time>2015-08-05T11:31:34Z</time>
        <speed>1.433000</speed>
      </trkpt>
      <trkpt lat="46.046097747" lon="7.192820742">
        <ele>2076.000000</ele>
        <time>2015-08-05T11:31:35Z</time>
        <speed>1.433000</speed>
      </trkpt>
      <trkpt lat="46.046100932" lon="7.192833650">
        <ele>2076.400000</ele>
        <time>2015-08-05T11:31:36Z</time>
        <speed>1.406000</speed>
      </trkpt>
      <trkpt lat="46.046104033" lon="7.192848738">
        <ele>2076.800000</ele>
        <time>2015-08-05T11:31:37Z</time>
        <speed>1.395000</speed>
      </trkpt>
      <trkpt lat="46.046106380" lon="7.192864161">
        <ele>2077.400000</ele>
        <time>2015-08-05T11:31:38Z</time>
        <speed>1.395000</speed>
      </trkpt>
      <trkpt lat="46.046111074" lon="7.192881176">
        <ele>2077.800000</ele>
        <time>2015-08-05T11:31:39Z</time>
        <speed>1.340000</speed>
      </trkpt>
      <trkpt lat="46.046115601" lon="7.192898443">
        <ele>2078.200000</ele>
        <time>2015-08-05T11:31:40Z</time>
        <speed>1.314000</speed>
      </trkpt>
      <trkpt lat="46.046129598" lon="7.192964576">
        <ele>2078.200000</ele>
        <time>2015-08-05T11:31:44Z</time>
        <speed>1.302000</speed>
      </trkpt>
      <trkpt lat="46.046135298" lon="7.193027692">
        <ele>2078.600000</ele>
        <time>2015-08-05T11:31:48Z</time>
        <speed>1.295000</speed>
      </trkpt>
      <trkpt lat="46.046135549" lon="7.193044036">
        <ele>2079.000000</ele>
        <time>2015-08-05T11:31:49Z</time>
        <speed>1.295000</speed>
      </trkpt>
      <trkpt lat="46.046136136" lon="7.193062476">
        <ele>2079.400000</ele>
        <time>2015-08-05T11:31:50Z</time>
        <speed>1.273000</speed>
      </trkpt>
      <trkpt lat="46.046139070" lon="7.193081755">
        <ele>2080.200000</ele>
        <time>2015-08-05T11:31:51Z</time>
        <speed>1.273000</speed>
      </trkpt>
      <trkpt lat="46.046149799" lon="7.193166999">
        <ele>2080.200000</ele>
        <time>2015-08-05T11:31:56Z</time>
        <speed>1.399000</speed>
      </trkpt>
      <trkpt lat="46.046147368" lon="7.193180158">
        <ele>2080.600000</ele>
        <time>2015-08-05T11:31:57Z</time>
        <speed>1.399000</speed>
      </trkpt>
      <trkpt lat="46.046146278" lon="7.193194743">
        <ele>2081.000000</ele>
        <time>2015-08-05T11:31:58Z</time>
        <speed>1.341000</speed>
      </trkpt>
      <trkpt lat="46.046140746" lon="7.193209076">
        <ele>2081.400000</ele>
        <time>2015-08-05T11:31:59Z</time>
        <speed>1.324000</speed>
      </trkpt>
      <trkpt lat="46.046136639" lon="7.193224331">
        <ele>2081.800000</ele>
        <time>2015-08-05T11:32:00Z</time>
        <speed>1.324000</speed>
      </trkpt>
      <trkpt lat="46.046134041" lon="7.193242352">
        <ele>2082.200000</ele>
        <time>2015-08-05T11:32:01Z</time>
        <speed>1.349000</speed>
      </trkpt>
      <trkpt lat="46.046133370" lon="7.193262217">
        <ele>2082.200000</ele>
        <time>2015-08-05T11:32:02Z</time>
        <speed>1.399000</speed>
      </trkpt>
      <trkpt lat="46.046128173" lon="7.193276383">
        <ele>2082.200000</ele>
        <time>2015-08-05T11:32:03Z</time>
        <speed>1.399000</speed>
      </trkpt>
      <trkpt lat="46.046091293" lon="7.193338157">
        <ele>2082.200000</ele>
        <time>2015-08-05T11:32:08Z</time>
        <speed>1.307000</speed>
      </trkpt>
      <trkpt lat="46.046081570" lon="7.193349724">
        <ele>2082.600000</ele>
        <time>2015-08-05T11:32:09Z</time>
        <speed>1.307000</speed>
      </trkpt>
      <trkpt lat="46.046072518" lon="7.193361962">
        <ele>2083.200000</ele>
        <time>2015-08-05T11:32:10Z</time>
        <speed>1.322000</speed>
      </trkpt>
      <trkpt lat="46.046064303" lon="7.193373948">
        <ele>2083.600000</ele>
        <time>2015-08-05T11:32:11Z</time>
        <speed>1.389000</speed>
      </trkpt>
      <trkpt lat="46.046057179" lon="7.193379899">
        <ele>2084.000000</ele>
        <time>2015-08-05T11:32:12Z</time>
        <speed>1.389000</speed>
      </trkpt>
      <trkpt lat="46.046052485" lon="7.193389287">
        <ele>2084.400000</ele>
        <time>2015-08-05T11:32:13Z</time>
        <speed>1.254000</speed>
      </trkpt>
      <trkpt lat="46.046033542" lon="7.193407559">
        <ele>2084.400000</ele>
        <time>2015-08-05T11:32:15Z</time>
        <speed>1.286000</speed>
      </trkpt>
      <trkpt lat="46.045992387" lon="7.193432286">
        <ele>2084.800000</ele>
        <time>2015-08-05T11:32:19Z</time>
        <speed>1.322000</speed>
      </trkpt>
      <trkpt lat="46.045982161" lon="7.193439327">
        <ele>2085.200000</ele>
        <time>2015-08-05T11:32:20Z</time>
        <speed>1.322000</speed>
      </trkpt>
      <trkpt lat="46.045972019" lon="7.193449217">
        <ele>2085.600000</ele>
        <time>2015-08-05T11:32:21Z</time>
        <speed>1.257000</speed>
      </trkpt>
      <trkpt lat="46.045962296" lon="7.193460617">
        <ele>2086.000000</ele>
        <time>2015-08-05T11:32:22Z</time>
        <speed>1.257000</speed>
      </trkpt>
      <trkpt lat="46.045953411" lon="7.193468496">
        <ele>2086.600000</ele>
        <time>2015-08-05T11:32:23Z</time>
        <speed>1.333000</speed>
      </trkpt>
      <trkpt lat="46.045901946" lon="7.193489870">
        <ele>2086.600000</ele>
        <time>2015-08-05T11:32:27Z</time>
        <speed>1.331000</speed>
      </trkpt>
      <trkpt lat="46.045870095" lon="7.193499760">
        <ele>2086.600000</ele>
        <time>2015-08-05T11:32:29Z</time>
        <speed>1.350000</speed>
      </trkpt>
      <trkpt lat="46.045861629" lon="7.193505795">
        <ele>2087.000000</ele>
        <time>2015-08-05T11:32:30Z</time>
        <speed>2.288000</speed>
      </trkpt>
      <trkpt lat="46.045854337" lon="7.193516021">
        <ele>2087.400000</ele>
        <time>2015-08-05T11:32:31Z</time>
        <speed>1.528000</speed>
      </trkpt>
      <trkpt lat="46.045845703" lon="7.193521889">
        <ele>2087.800000</ele>
        <time>2015-08-05T11:32:32Z</time>
        <speed>1.528000</speed>
      </trkpt>
      <trkpt lat="46.045836818" lon="7.193527337">
        <ele>2088.200000</ele>
        <time>2015-08-05T11:32:33Z</time>
        <speed>1.278000</speed>
      </trkpt>
      <trkpt lat="46.045825670" lon="7.193531109">
        <ele>2088.800000</ele>
        <time>2015-08-05T11:32:34Z</time>
        <speed>1.278000</speed>
      </trkpt>
      <trkpt lat="46.045814606" lon="7.193532282">
        <ele>2088.800000</ele>
        <time>2015-08-05T11:32:35Z</time>
        <speed>1.362000</speed>
      </trkpt>
      <trkpt lat="46.045775882" lon="7.193538904">
        <ele>2088.800000</ele>
        <time>2015-08-05T11:32:39Z</time>
        <speed>1.365000</speed>
      </trkpt>
      <trkpt lat="46.045763896" lon="7.193542927">
        <ele>2089.600000</ele>
        <time>2015-08-05T11:32:40Z</time>
        <speed>1.365000</speed>
      </trkpt>
      <trkpt lat="46.045752748" lon="7.193544184">
        <ele>2090.000000</ele>
        <time>2015-08-05T11:32:41Z</time>
        <speed>1.387000</speed>
      </trkpt>
      <trkpt lat="46.045738750" lon="7.193547705">
        <ele>2090.400000</ele>
        <time>2015-08-05T11:32:42Z</time>
        <speed>1.448000</speed>
      </trkpt>
      <trkpt lat="46.045725926" lon="7.193554410">
        <ele>2091.000000</ele>
        <time>2015-08-05T11:32:43Z</time>
        <speed>1.448000</speed>
      </trkpt>
      <trkpt lat="46.045713185" lon="7.193553153">
        <ele>2091.000000</ele>
        <time>2015-08-05T11:32:44Z</time>
        <speed>1.390000</speed>
      </trkpt>
      <trkpt lat="46.045689884" lon="7.193548375">
        <ele>2091.000000</ele>
        <time>2015-08-05T11:32:46Z</time>
        <speed>1.423000</speed>
      </trkpt>
      <trkpt lat="46.045675383" lon="7.193545693">
        <ele>2091.000000</ele>
        <time>2015-08-05T11:32:47Z</time>
        <speed>1.343000</speed>
      </trkpt>
      <trkpt lat="46.045634060" lon="7.193523313">
        <ele>2091.400000</ele>
        <time>2015-08-05T11:32:50Z</time>
        <speed>1.456000</speed>
      </trkpt>
      <trkpt lat="46.045622912" lon="7.193522308">
        <ele>2091.800000</ele>
        <time>2015-08-05T11:32:51Z</time>
        <speed>1.530000</speed>
      </trkpt>
      <trkpt lat="46.045609836" lon="7.193528343">
        <ele>2092.200000</ele>
        <time>2015-08-05T11:32:52Z</time>
        <speed>1.448000</speed>
      </trkpt>
      <trkpt lat="46.045600449" lon="7.193539826">
        <ele>2092.600000</ele>
        <time>2015-08-05T11:32:53Z</time>
        <speed>1.448000</speed>
      </trkpt>
      <trkpt lat="46.045591815" lon="7.193549884">
        <ele>2093.000000</ele>
        <time>2015-08-05T11:32:54Z</time>
        <speed>1.527000</speed>
      </trkpt>
      <trkpt lat="46.045591061" lon="7.193548962">
        <ele>2093.000000</ele>
        <time>2015-08-05T11:32:58Z</time>
        <speed>0.000000</speed>
      </trkpt>
      <trkpt lat="46.045591061" lon="7.193548962">
        <ele>2093.000000</ele>
        <time>2015-08-05T11:33:06Z</time>
        <speed>0.000000</speed>
      </trkpt>
      <trkpt lat="46.045591061" lon="7.193548962">
        <ele>2093.000000</ele>
        <time>2015-08-05T11:33:15Z</time>
        <speed>0.000000</speed>
      </trkpt>
      <trkpt lat="46.045588882" lon="7.193549465">
        <ele>2093.000000</ele>
        <time>2015-08-05T11:33:20Z</time>
        <speed>0.000000</speed>
      </trkpt>
      <trkpt lat="46.045568933" lon="7.193540077">
        <ele>2093.000000</ele>
        <time>2015-08-05T11:33:25Z</time>
        <speed>0.000000</speed>
      </trkpt>
      <trkpt lat="46.045568933" lon="7.193540077">
        <ele>2093.000000</ele>
        <time>2015-08-05T11:33:29Z</time>
        <speed>0.000000</speed>
      </trkpt>
      <trkpt lat="46.045540099" lon="7.193544604">
        <ele>2093.000000</ele>
        <time>2015-08-05T11:33:31Z</time>
        <speed>0.000000</speed>
      </trkpt>
      <trkpt lat="46.045516630" lon="7.193543514">
        <ele>2093.000000</ele>
        <time>2015-08-05T11:33:32Z</time>
        <speed>14.453000</speed>
      </trkpt>
      <trkpt lat="46.045466925" lon="7.193567989">
        <ele>2093.000000</ele>
        <time>2015-08-05T11:33:35Z</time>
        <speed>1.775000</speed>
      </trkpt>
      <trkpt lat="46.045445886" lon="7.193582154">
        <ele>2093.000000</ele>
        <time>2015-08-05T11:33:36Z</time>
        <speed>1.934000</speed>
      </trkpt>
      <trkpt lat="46.045387046" lon="7.193610401">
        <ele>2093.000000</ele>
        <time>2015-08-05T11:33:39Z</time>
        <speed>2.680000</speed>
      </trkpt>
      <trkpt lat="46.045322253" lon="7.193607971">
        <ele>2093.000000</ele>
        <time>2015-08-05T11:33:41Z</time>
        <speed>2.140000</speed>
      </trkpt>
      <trkpt lat="46.045236255" lon="7.193573773">
        <ele>2093.000000</ele>
        <time>2015-08-05T11:33:43Z</time>
        <speed>4.748000</speed>
      </trkpt>
      <trkpt lat="46.045189316" lon="7.193577461">
        <ele>2093.000000</ele>
        <time>2015-08-05T11:33:44Z</time>
        <speed>4.823000</speed>
      </trkpt>
      <trkpt lat="46.045105749" lon="7.193587519">
        <ele>2093.000000</ele>
        <time>2015-08-05T11:33:46Z</time>
        <speed>5.003000</speed>
      </trkpt>
      <trkpt lat="46.045096529" lon="7.193589279">
        <ele>2093.000000</ele>
        <time>2015-08-05T11:33:48Z</time>
        <speed>3.701000</speed>
      </trkpt>
      <trkpt lat="46.045096277" lon="7.193587938">
        <ele>2093.000000</ele>
        <time>2015-08-05T11:33:51Z</time>
        <speed>0.000000</speed>
      </trkpt>
      <trkpt lat="46.045082280" lon="7.193591626">
        <ele>2093.000000</ele>
        <time>2015-08-05T11:33:53Z</time>
        <speed>0.000000</speed>
      </trkpt>
      <trkpt lat="46.045046740" lon="7.193594643">
        <ele>2093.000000</ele>
        <time>2015-08-05T11:33:54Z</time>
        <speed>4.034000</speed>
      </trkpt>
      <trkpt lat="46.044994856" lon="7.193620544">
        <ele>2092.600000</ele>
        <time>2015-08-05T11:33:56Z</time>
        <speed>2.973000</speed>
      </trkpt>
      <trkpt lat="46.044963424" lon="7.193653065">
        <ele>2092.200000</ele>
        <time>2015-08-05T11:33:57Z</time>
        <speed>2.847000</speed>
      </trkpt>
      <trkpt lat="46.044925286" lon="7.193699585">
        <ele>2091.600000</ele>
        <time>2015-08-05T11:33:58Z</time>
        <speed>3.445000</speed>
      </trkpt>
      <trkpt lat="46.044906679" lon="7.193731939">
        <ele>2091.200000</ele>
        <time>2015-08-05T11:33:59Z</time>
        <speed>3.739000</speed>
      </trkpt>
      <trkpt lat="46.044896034" lon="7.193752726">
        <ele>2090.800000</ele>
        <time>2015-08-05T11:34:00Z</time>
        <speed>5.286000</speed>
      </trkpt>
      <trkpt lat="46.044888322" lon="7.193760521">
        <ele>2090.800000</ele>
        <time>2015-08-05T11:34:01Z</time>
        <speed>0.000000</speed>
      </trkpt>
      <trkpt lat="46.044865272" lon="7.193770999">
        <ele>2090.800000</ele>
        <time>2015-08-05T11:34:02Z</time>
        <speed>2.456000</speed>
      </trkpt>
      <trkpt lat="46.044795535" lon="7.193751804">
        <ele>2090.800000</ele>
        <time>2015-08-05T11:34:04Z</time>
        <speed>2.210000</speed>
      </trkpt>
      <trkpt lat="46.044696880" lon="7.193737555">
        <ele>2090.800000</ele>
        <time>2015-08-05T11:34:06Z</time>
        <speed>5.184000</speed>
      </trkpt>
      <trkpt lat="46.044597889" lon="7.193792121">
        <ele>2090.200000</ele>
        <time>2015-08-05T11:34:08Z</time>
        <speed>6.388000</speed>
      </trkpt>
      <trkpt lat="46.044562015" lon="7.193852974">
        <ele>2089.800000</ele>
        <time>2015-08-05T11:34:09Z</time>
        <speed>6.029000</speed>
      </trkpt>
      <trkpt lat="46.044530750" lon="7.193899326">
        <ele>2089.200000</ele>
        <time>2015-08-05T11:34:10Z</time>
        <speed>6.426000</speed>
      </trkpt>
      <trkpt lat="46.044517758" lon="7.193942241">
        <ele>2088.600000</ele>
        <time>2015-08-05T11:34:11Z</time>
        <speed>5.929000</speed>
      </trkpt>
      <trkpt lat="46.044493451" lon="7.193998316">
        <ele>2088.200000</ele>
        <time>2015-08-05T11:34:12Z</time>
        <speed>3.846000</speed>
      </trkpt>
      <trkpt lat="46.044418517" lon="7.194058163">
        <ele>2088.200000</ele>
        <time>2015-08-05T11:34:14Z</time>
        <speed>5.560000</speed>
      </trkpt>
      <trkpt lat="46.044387168" lon="7.194093451">
        <ele>2088.200000</ele>
        <time>2015-08-05T11:34:15Z</time>
        <speed>5.110000</speed>
      </trkpt>
      <trkpt lat="46.044264373" lon="7.194227729">
        <ele>2088.200000</ele>
        <time>2015-08-05T11:34:19Z</time>
        <speed>4.547000</speed>
      </trkpt>
      <trkpt lat="46.044227158" lon="7.194256730">
        <ele>2088.200000</ele>
        <time>2015-08-05T11:34:20Z</time>
        <speed>4.522000</speed>
      </trkpt>
      <trkpt lat="46.044194887" lon="7.194285396">
        <ele>2087.800000</ele>
        <time>2015-08-05T11:34:21Z</time>
        <speed>4.192000</speed>
      </trkpt>
      <trkpt lat="46.044149960" lon="7.194297969">
        <ele>2087.400000</ele>
        <time>2015-08-05T11:34:22Z</time>
        <speed>4.112000</speed>
      </trkpt>
      <trkpt lat="46.044111236" lon="7.194282798">
        <ele>2086.800000</ele>
        <time>2015-08-05T11:34:23Z</time>
        <speed>4.666000</speed>
      </trkpt>
      <trkpt lat="46.044069410" lon="7.194287743">
        <ele>2086.400000</ele>
        <time>2015-08-05T11:34:24Z</time>
        <speed>5.086000</speed>
      </trkpt>
      <trkpt lat="46.044017862" lon="7.194294700">
        <ele>2086.000000</ele>
        <time>2015-08-05T11:34:25Z</time>
        <speed>4.606000</speed>
      </trkpt>
      <trkpt lat="46.043887774" lon="7.194312637">
        <ele>2085.600000</ele>
        <time>2015-08-05T11:34:28Z</time>
        <speed>5.074000</speed>
      </trkpt>
      <trkpt lat="46.043846452" lon="7.194328647">
        <ele>2085.200000</ele>
        <time>2015-08-05T11:34:29Z</time>
        <speed>4.697000</speed>
      </trkpt>
      <trkpt lat="46.043805799" lon="7.194361420">
        <ele>2084.800000</ele>
        <time>2015-08-05T11:34:30Z</time>
        <speed>4.567000</speed>
      </trkpt>
      <trkpt lat="46.043769422" lon="7.194393187">
        <ele>2084.400000</ele>
        <time>2015-08-05T11:34:31Z</time>
        <speed>5.261000</speed>
      </trkpt>
      <trkpt lat="46.043738158" lon="7.194415819">
        <ele>2084.000000</ele>
        <time>2015-08-05T11:34:32Z</time>
        <speed>4.759000</speed>
      </trkpt>
      <trkpt lat="46.043676048" lon="7.194449262">
        <ele>2084.000000</ele>
        <time>2015-08-05T11:34:34Z</time>
        <speed>3.694000</speed>
      </trkpt>
      <trkpt lat="46.043593653" lon="7.194490417">
        <ele>2084.000000</ele>
        <time>2015-08-05T11:34:38Z</time>
        <speed>2.577000</speed>
      </trkpt>
      <trkpt lat="46.043589546" lon="7.194510534">
        <ele>2084.000000</ele>
        <time>2015-08-05T11:34:39Z</time>
        <speed>2.379000</speed>
      </trkpt>
      <trkpt lat="46.043585020" lon="7.194594102">
        <ele>2084.000000</ele>
        <time>2015-08-05T11:34:42Z</time>
        <speed>2.328000</speed>
      </trkpt>
      <trkpt lat="46.043604382" lon="7.194668533">
        <ele>2084.000000</ele>
        <time>2015-08-05T11:34:46Z</time>
        <speed>1.652000</speed>
      </trkpt>
      <trkpt lat="46.043612094" lon="7.194704743">
        <ele>2084.000000</ele>
        <time>2015-08-05T11:34:48Z</time>
        <speed>1.431000</speed>
      </trkpt>
      <trkpt lat="46.043624583" lon="7.194749502">
        <ele>2084.000000</ele>
        <time>2015-08-05T11:34:50Z</time>
        <speed>1.534000</speed>
      </trkpt>
      <trkpt lat="46.043634641" lon="7.194812283">
        <ele>2084.000000</ele>
        <time>2015-08-05T11:34:53Z</time>
        <speed>1.687000</speed>
      </trkpt>
      <trkpt lat="46.043641598" lon="7.194847906">
        <ele>2084.400000</ele>
        <time>2015-08-05T11:34:55Z</time>
        <speed>1.648000</speed>
      </trkpt>
      <trkpt lat="46.043643610" lon="7.194865927">
        <ele>2084.800000</ele>
        <time>2015-08-05T11:34:56Z</time>
        <speed>1.588000</speed>
      </trkpt>
      <trkpt lat="46.043643191" lon="7.194884870">
        <ele>2085.200000</ele>
        <time>2015-08-05T11:34:57Z</time>
        <speed>1.588000</speed>
      </trkpt>
      <trkpt lat="46.043645118" lon="7.194901634">
        <ele>2085.600000</ele>
        <time>2015-08-05T11:34:58Z</time>
        <speed>1.564000</speed>
      </trkpt>
      <trkpt lat="46.043643693" lon="7.194906160">
        <ele>2086.000000</ele>
        <time>2015-08-05T11:34:59Z</time>
        <speed>1.605000</speed>
      </trkpt>
      <trkpt lat="46.043644364" lon="7.194905908">
        <ele>2086.000000</ele>
        <time>2015-08-05T11:35:01Z</time>
        <speed>0.000000</speed>
      </trkpt>
      <trkpt lat="46.043637910" lon="7.194918062">
        <ele>2086.000000</ele>
        <time>2015-08-05T11:35:04Z</time>
        <speed>1.051000</speed>
      </trkpt>
      <trkpt lat="46.043638329" lon="7.194911189">
        <ele>2086.000000</ele>
        <time>2015-08-05T11:35:05Z</time>
        <speed>1.051000</speed>
      </trkpt>
      <trkpt lat="46.043619721" lon="7.194893168">
        <ele>2086.400000</ele>
        <time>2015-08-05T11:35:08Z</time>
        <speed>0.747000</speed>
      </trkpt>
      <trkpt lat="46.043611758" lon="7.194880763">
        <ele>2086.800000</ele>
        <time>2015-08-05T11:35:09Z</time>
        <speed>0.747000</speed>
      </trkpt>
      <trkpt lat="46.043605891" lon="7.194867352">
        <ele>2087.200000</ele>
        <time>2015-08-05T11:35:10Z</time>
        <speed>0.884000</speed>
      </trkpt>
      <trkpt lat="46.043608322" lon="7.194871626">
        <ele>2087.600000</ele>
        <time>2015-08-05T11:35:11Z</time>
        <speed>0.884000</speed>
      </trkpt>
      <trkpt lat="46.043608741" lon="7.194875650">
        <ele>2088.000000</ele>
        <time>2015-08-05T11:35:12Z</time>
        <speed>4.184000</speed>
      </trkpt>
      <trkpt lat="46.043588541" lon="7.194858970">
        <ele>2088.000000</ele>
        <time>2015-08-05T11:35:18Z</time>
        <speed>1.290000</speed>
      </trkpt>
      <trkpt lat="46.043541350" lon="7.194810103">
        <ele>2088.000000</ele>
        <time>2015-08-05T11:35:23Z</time>
        <speed>1.445000</speed>
      </trkpt>
      <trkpt lat="46.043532549" lon="7.194798704">
        <ele>2088.000000</ele>
        <time>2015-08-05T11:35:24Z</time>
        <speed>1.445000</speed>
      </trkpt>
      <trkpt lat="46.043494076" lon="7.194765009">
        <ele>2088.000000</ele>
        <time>2015-08-05T11:35:28Z</time>
        <speed>1.394000</speed>
      </trkpt>
      <trkpt lat="46.043473625" lon="7.194737348">
        <ele>2088.000000</ele>
        <time>2015-08-05T11:35:30Z</time>
        <speed>1.331000</speed>
      </trkpt>
      <trkpt lat="46.043452251" lon="7.194711700">
        <ele>2088.600000</ele>
        <time>2015-08-05T11:35:32Z</time>
        <speed>1.473000</speed>
      </trkpt>
      <trkpt lat="46.043441522" lon="7.194696948">
        <ele>2089.000000</ele>
        <time>2015-08-05T11:35:33Z</time>
        <speed>1.473000</speed>
      </trkpt>
      <trkpt lat="46.043430793" lon="7.194685548">
        <ele>2089.800000</ele>
        <time>2015-08-05T11:35:34Z</time>
        <speed>1.356000</speed>
      </trkpt>
      <trkpt lat="46.043422663" lon="7.194671215">
        <ele>2090.200000</ele>
        <time>2015-08-05T11:35:35Z</time>
        <speed>1.500000</speed>
      </trkpt>
      <trkpt lat="46.043415370" lon="7.194658223">
        <ele>2090.200000</ele>
        <time>2015-08-05T11:35:36Z</time>
        <speed>1.500000</speed>
      </trkpt>
      <trkpt lat="46.043404390" lon="7.194652356">
        <ele>2090.200000</ele>
        <time>2015-08-05T11:35:37Z</time>
        <speed>1.478000</speed>
      </trkpt>
      <trkpt lat="46.043382597" lon="7.194647494">
        <ele>2090.200000</ele>
        <time>2015-08-05T11:35:39Z</time>
        <speed>1.355000</speed>
      </trkpt>
      <trkpt lat="46.043373880" lon="7.194646991">
        <ele>2090.200000</ele>
        <time>2015-08-05T11:35:41Z</time>
        <speed>1.232000</speed>
      </trkpt>
      <trkpt lat="46.043385196" lon="7.194673730">
        <ele>2090.200000</ele>
        <time>2015-08-05T11:35:45Z</time>
        <speed>2.753000</speed>
      </trkpt>
      <trkpt lat="46.043391147" lon="7.194697618">
        <ele>2090.600000</ele>
        <time>2015-08-05T11:35:48Z</time>
        <speed>0.000000</speed>
      </trkpt>
      <trkpt lat="46.043391147" lon="7.194697618">
        <ele>2091.000000</ele>
        <time>2015-08-05T11:35:49Z</time>
        <speed>0.000000</speed>
      </trkpt>
      <trkpt lat="46.043391147" lon="7.194697618">
        <ele>2091.400000</ele>
        <time>2015-08-05T11:35:50Z</time>
        <speed>0.000000</speed>
      </trkpt>
      <trkpt lat="46.043391147" lon="7.194697618">
        <ele>2091.800000</ele>
        <time>2015-08-05T11:35:51Z</time>
        <speed>0.000000</speed>
      </trkpt>
      <trkpt lat="46.043391147" lon="7.194697618">
        <ele>2092.200000</ele>
        <time>2015-08-05T11:35:52Z</time>
        <speed>0.000000</speed>
      </trkpt>
      <trkpt lat="46.043389303" lon="7.194746233">
        <ele>2092.200000</ele>
        <time>2015-08-05T11:35:55Z</time>
        <speed>40.495998</speed>
      </trkpt>
      <trkpt lat="46.043388716" lon="7.194785293">
        <ele>2092.200000</ele>
        <time>2015-08-05T11:35:57Z</time>
        <speed>4.616000</speed>
      </trkpt>
      <trkpt lat="46.043387542" lon="7.194841452">
        <ele>2092.200000</ele>
        <time>2015-08-05T11:36:00Z</time>
        <speed>1.460000</speed>
      </trkpt>
      <trkpt lat="46.043373126" lon="7.194884367">
        <ele>2092.600000</ele>
        <time>2015-08-05T11:36:02Z</time>
        <speed>1.858000</speed>
      </trkpt>
      <trkpt lat="46.043369438" lon="7.194890653">
        <ele>2093.000000</ele>
        <time>2015-08-05T11:36:03Z</time>
        <speed>2.117000</speed>
      </trkpt>
      <trkpt lat="46.043370443" lon="7.194892749">
        <ele>2093.400000</ele>
        <time>2015-08-05T11:36:04Z</time>
        <speed>2.117000</speed>
      </trkpt>
      <trkpt lat="46.043369521" lon="7.194892162">
        <ele>2093.800000</ele>
        <time>2015-08-05T11:36:05Z</time>
        <speed>2.117000</speed>
      </trkpt>
      <trkpt lat="46.043369941" lon="7.194892497">
        <ele>2094.200000</ele>
        <time>2015-08-05T11:36:06Z</time>
        <speed>0.000000</speed>
      </trkpt>
      <trkpt lat="46.043372036" lon="7.194910770">
        <ele>2094.200000</ele>
        <time>2015-08-05T11:36:10Z</time>
        <speed>0.000000</speed>
      </trkpt>
      <trkpt lat="46.043335994" lon="7.194943376">
        <ele>2094.800000</ele>
        <time>2015-08-05T11:36:15Z</time>
        <speed>0.936000</speed>
      </trkpt>
      <trkpt lat="46.043337000" lon="7.194944633">
        <ele>2095.200000</ele>
        <time>2015-08-05T11:36:16Z</time>
        <speed>0.936000</speed>
      </trkpt>
      <trkpt lat="46.043337503" lon="7.194944046">
        <ele>2095.600000</ele>
        <time>2015-08-05T11:36:17Z</time>
        <speed>0.936000</speed>
      </trkpt>
      <trkpt lat="46.043337167" lon="7.194944130">
        <ele>2096.000000</ele>
        <time>2015-08-05T11:36:18Z</time>
        <speed>0.000000</speed>
      </trkpt>
      <trkpt lat="46.043337167" lon="7.194944130">
        <ele>2096.400000</ele>
        <time>2015-08-05T11:36:19Z</time>
        <speed>0.000000</speed>
      </trkpt>
      <trkpt lat="46.043337167" lon="7.194944130">
        <ele>2096.400000</ele>
        <time>2015-08-05T11:36:28Z</time>
        <speed>0.000000</speed>
      </trkpt>
      <trkpt lat="46.043340688" lon="7.194946644">
        <ele>2096.400000</ele>
        <time>2015-08-05T11:36:40Z</time>
        <speed>0.000000</speed>
      </trkpt>
      <trkpt lat="46.043342029" lon="7.194942537">
        <ele>2096.400000</ele>
        <time>2015-08-05T11:36:46Z</time>
        <speed>0.000000</speed>
      </trkpt>
      <trkpt lat="46.043342029" lon="7.194942537">
        <ele>2096.400000</ele>
        <time>2015-08-05T11:36:49Z</time>
        <speed>0.000000</speed>
      </trkpt>
      <trkpt lat="46.043342029" lon="7.194942537">
        <ele>2096.400000</ele>
        <time>2015-08-05T11:36:52Z</time>
        <speed>0.000000</speed>
      </trkpt>
      <trkpt lat="46.043342029" lon="7.194942537">
        <ele>2096.400000</ele>
        <time>2015-08-05T11:36:55Z</time>
        <speed>0.000000</speed>
      </trkpt>
      <trkpt lat="46.043342029" lon="7.194942537">
        <ele>2096.400000</ele>
        <time>2015-08-05T11:36:58Z</time>
        <speed>0.000000</speed>
      </trkpt>
      <trkpt lat="46.043342029" lon="7.194942537">
        <ele>2096.400000</ele>
        <time>2015-08-05T11:37:00Z</time>
        <speed>0.000000</speed>
      </trkpt>
      <trkpt lat="46.043338005" lon="7.194950165">
        <ele>2096.400000</ele>
        <time>2015-08-05T11:37:02Z</time>
        <speed>0.000000</speed>
      </trkpt>
      <trkpt lat="46.043341358" lon="7.194957625">
        <ele>2096.400000</ele>
        <time>2015-08-05T11:37:09Z</time>
        <speed>0.000000</speed>
      </trkpt>
      <trkpt lat="46.043339430" lon="7.194961816">
        <ele>2096.400000</ele>
        <time>2015-08-05T11:37:15Z</time>
        <speed>0.000000</speed>
      </trkpt>
      <trkpt lat="46.043339430" lon="7.194961816">
        <ele>2096.400000</ele>
        <time>2015-08-05T11:37:16Z</time>
        <speed>0.000000</speed>
      </trkpt>
      <trkpt lat="46.043337083" lon="7.194972628">
        <ele>2096.400000</ele>
        <time>2015-08-05T11:37:18Z</time>
        <speed>0.000000</speed>
      </trkpt>
      <trkpt lat="46.043314452" lon="7.195014286">
        <ele>2096.400000</ele>
        <time>2015-08-05T11:37:20Z</time>
        <speed>6.519000</speed>
      </trkpt>
      <trkpt lat="46.043293246" lon="7.195047143">
        <ele>2096.400000</ele>
        <time>2015-08-05T11:37:23Z</time>
        <speed>0.000000</speed>
      </trkpt>
      <trkpt lat="46.043261395" lon="7.195092825">
        <ele>2096.400000</ele>
        <time>2015-08-05T11:37:26Z</time>
        <speed>1.989000</speed>
      </trkpt>
      <trkpt lat="46.043233902" lon="7.195115540">
        <ele>2096.800000</ele>
        <time>2015-08-05T11:37:28Z</time>
        <speed>1.702000</speed>
      </trkpt>
      <trkpt lat="46.043225353" lon="7.195127107">
        <ele>2097.200000</ele>
        <time>2015-08-05T11:37:29Z</time>
        <speed>1.852000</speed>
      </trkpt>
      <trkpt lat="46.043216887" lon="7.195139764">
        <ele>2097.800000</ele>
        <time>2015-08-05T11:37:30Z</time>
        <speed>1.602000</speed>
      </trkpt>
      <trkpt lat="46.043204063" lon="7.195153510">
        <ele>2098.200000</ele>
        <time>2015-08-05T11:37:31Z</time>
        <speed>1.578000</speed>
      </trkpt>
      <trkpt lat="46.043189562" lon="7.195166586">
        <ele>2098.800000</ele>
        <time>2015-08-05T11:37:32Z</time>
        <speed>1.578000</speed>
      </trkpt>
      <trkpt lat="46.043176235" lon="7.195179661">
        <ele>2098.800000</ele>
        <time>2015-08-05T11:37:34Z</time>
        <speed>0.000000</speed>
      </trkpt>
      <trkpt lat="46.043160309" lon="7.195196341">
        <ele>2099.200000</ele>
        <time>2015-08-05T11:37:35Z</time>
        <speed>1.656000</speed>
      </trkpt>
      <trkpt lat="46.043149413" lon="7.195207825">
        <ele>2099.600000</ele>
        <time>2015-08-05T11:37:36Z</time>
        <speed>1.656000</speed>
      </trkpt>
      <trkpt lat="46.043138349" lon="7.195221236">
        <ele>2100.200000</ele>
        <time>2015-08-05T11:37:37Z</time>
        <speed>1.440000</speed>
      </trkpt>
      <trkpt lat="46.043130470" lon="7.195237496">
        <ele>2101.000000</ele>
        <time>2015-08-05T11:37:38Z</time>
        <speed>1.586000</speed>
      </trkpt>
      <trkpt lat="46.043121669" lon="7.195252500">
        <ele>2101.000000</ele>
        <time>2015-08-05T11:37:39Z</time>
        <speed>1.452000</speed>
      </trkpt>
      <trkpt lat="46.043090572" lon="7.195298433">
        <ele>2101.000000</ele>
        <time>2015-08-05T11:37:42Z</time>
        <speed>1.464000</speed>
      </trkpt>
      <trkpt lat="46.043079005" lon="7.195320813">
        <ele>2101.400000</ele>
        <time>2015-08-05T11:37:44Z</time>
        <speed>1.510000</speed>
      </trkpt>
      <trkpt lat="46.043073892" lon="7.195331877">
        <ele>2101.800000</ele>
        <time>2015-08-05T11:37:45Z</time>
        <speed>1.484000</speed>
      </trkpt>
      <trkpt lat="46.043065677" lon="7.195344617">
        <ele>2102.400000</ele>
        <time>2015-08-05T11:37:46Z</time>
        <speed>1.539000</speed>
      </trkpt>
      <trkpt lat="46.043057379" lon="7.195360878">
        <ele>2102.800000</ele>
        <time>2015-08-05T11:37:47Z</time>
        <speed>1.539000</speed>
      </trkpt>
      <trkpt lat="46.043050758" lon="7.195373451">
        <ele>2103.200000</ele>
        <time>2015-08-05T11:37:48Z</time>
        <speed>1.445000</speed>
      </trkpt>
      <trkpt lat="46.043018487" lon="7.195416366">
        <ele>2103.200000</ele>
        <time>2015-08-05T11:37:51Z</time>
        <speed>1.331000</speed>
      </trkpt>
      <trkpt lat="46.042995521" lon="7.195435058">
        <ele>2103.200000</ele>
        <time>2015-08-05T11:37:52Z</time>
        <speed>1.518000</speed>
      </trkpt>
      <trkpt lat="46.042900805" lon="7.195527343">
        <ele>2103.200000</ele>
        <time>2015-08-05T11:37:56Z</time>
        <speed>1.849000</speed>
      </trkpt>
      <trkpt lat="46.042843138" lon="7.195552488">
        <ele>2103.200000</ele>
        <time>2015-08-05T11:37:58Z</time>
        <speed>3.322000</speed>
      </trkpt>
      <trkpt lat="46.042792846" lon="7.195589117">
        <ele>2103.200000</ele>
        <time>2015-08-05T11:38:00Z</time>
        <speed>4.034000</speed>
      </trkpt>
      <trkpt lat="46.042776502" lon="7.195616945">
        <ele>2103.200000</ele>
        <time>2015-08-05T11:38:02Z</time>
        <speed>2.291000</speed>
      </trkpt>
      <trkpt lat="46.042758481" lon="7.195640498">
        <ele>2103.200000</ele>
        <time>2015-08-05T11:38:04Z</time>
        <speed>1.437000</speed>
      </trkpt>
      <trkpt lat="46.042730317" lon="7.195664471">
        <ele>2103.200000</ele>
        <time>2015-08-05T11:38:07Z</time>
        <speed>1.551000</speed>
      </trkpt>
      <trkpt lat="46.042696790" lon="7.195703363">
        <ele>2103.200000</ele>
        <time>2015-08-05T11:38:11Z</time>
        <speed>1.282000</speed>
      </trkpt>
      <trkpt lat="46.042691677" lon="7.195734040">
        <ele>2103.600000</ele>
        <time>2015-08-05T11:38:13Z</time>
        <speed>1.243000</speed>
      </trkpt>
      <trkpt lat="46.042688576" lon="7.195749044">
        <ele>2104.000000</ele>
        <time>2015-08-05T11:38:14Z</time>
        <speed>1.243000</speed>
      </trkpt>
      <trkpt lat="46.042685810" lon="7.195765975">
        <ele>2104.400000</ele>
        <time>2015-08-05T11:38:15Z</time>
        <speed>1.508000</speed>
      </trkpt>
      <trkpt lat="46.042683379" lon="7.195778045">
        <ele>2104.800000</ele>
        <time>2015-08-05T11:38:16Z</time>
        <speed>1.305000</speed>
      </trkpt>
      <trkpt lat="46.042683463" lon="7.195790702">
        <ele>2105.400000</ele>
        <time>2015-08-05T11:38:17Z</time>
        <speed>1.305000</speed>
      </trkpt>
      <trkpt lat="46.042668710" lon="7.195883322">
        <ele>2105.400000</ele>
        <time>2015-08-05T11:38:23Z</time>
        <speed>1.343000</speed>
      </trkpt>
      <trkpt lat="46.042665944" lon="7.195905031">
        <ele>2105.800000</ele>
        <time>2015-08-05T11:38:24Z</time>
        <speed>1.340000</speed>
      </trkpt>
      <trkpt lat="46.042663514" lon="7.195924477">
        <ele>2106.200000</ele>
        <time>2015-08-05T11:38:25Z</time>
        <speed>1.382000</speed>
      </trkpt>
      <trkpt lat="46.042664017" lon="7.195944510">
        <ele>2106.600000</ele>
        <time>2015-08-05T11:38:26Z</time>
        <speed>1.382000</speed>
      </trkpt>
      <trkpt lat="46.042665693" lon="7.195960603">
        <ele>2107.400000</ele>
        <time>2015-08-05T11:38:27Z</time>
        <speed>1.457000</speed>
      </trkpt>
      <trkpt lat="46.042674159" lon="7.196063198">
        <ele>2107.400000</ele>
        <time>2015-08-05T11:38:31Z</time>
        <speed>1.661000</speed>
      </trkpt>
      <trkpt lat="46.042634931" lon="7.196207953">
        <ele>2107.400000</ele>
        <time>2015-08-05T11:38:34Z</time>
        <speed>2.920000</speed>
      </trkpt>
      <trkpt lat="46.042617749" lon="7.196258245">
        <ele>2107.400000</ele>
        <time>2015-08-05T11:38:35Z</time>
        <speed>4.980000</speed>
      </trkpt>
      <trkpt lat="46.042571061" lon="7.196473911">
        <ele>2107.400000</ele>
        <time>2015-08-05T11:38:40Z</time>
        <speed>3.601000</speed>
      </trkpt>
      <trkpt lat="46.042561338" lon="7.196605758">
        <ele>2106.800000</ele>
        <time>2015-08-05T11:38:42Z</time>
        <speed>2.960000</speed>
      </trkpt>
      <trkpt lat="46.042567876" lon="7.196670048">
        <ele>2106.400000</ele>
        <time>2015-08-05T11:38:43Z</time>
        <speed>2.960000</speed>
      </trkpt>
      <trkpt lat="46.042565445" lon="7.196743641">
        <ele>2105.800000</ele>
        <time>2015-08-05T11:38:44Z</time>
        <speed>5.995000</speed>
      </trkpt>
      <trkpt lat="46.042564188" lon="7.196824526">
        <ele>2105.200000</ele>
        <time>2015-08-05T11:38:45Z</time>
        <speed>4.738000</speed>
      </trkpt>
      <trkpt lat="46.042566535" lon="7.196902310">
        <ele>2104.600000</ele>
        <time>2015-08-05T11:38:46Z</time>
        <speed>6.946000</speed>
      </trkpt>
      <trkpt lat="46.042554717" lon="7.196976993">
        <ele>2104.000000</ele>
        <time>2015-08-05T11:38:47Z</time>
        <speed>6.544000</speed>
      </trkpt>
      <trkpt lat="46.042557734" lon="7.197040109">
        <ele>2103.400000</ele>
        <time>2015-08-05T11:38:48Z</time>
        <speed>6.012000</speed>
      </trkpt>
      <trkpt lat="46.042571564" lon="7.197097525">
        <ele>2102.800000</ele>
        <time>2015-08-05T11:38:49Z</time>
        <speed>5.135000</speed>
      </trkpt>
      <trkpt lat="46.042584389" lon="7.197138596">
        <ele>2102.800000</ele>
        <time>2015-08-05T11:38:50Z</time>
        <speed>4.845000</speed>
      </trkpt>
      <trkpt lat="46.042619760" lon="7.197227779">
        <ele>2102.800000</ele>
        <time>2015-08-05T11:38:53Z</time>
        <speed>2.513000</speed>
      </trkpt>
      <trkpt lat="46.042609199" lon="7.197266336">
        <ele>2102.800000</ele>
        <time>2015-08-05T11:38:54Z</time>
        <speed>3.111000</speed>
      </trkpt>
      <trkpt lat="46.042608193" lon="7.197339343">
        <ele>2102.200000</ele>
        <time>2015-08-05T11:38:56Z</time>
        <speed>3.208000</speed>
      </trkpt>
      <trkpt lat="46.042627472" lon="7.197369517">
        <ele>2101.800000</ele>
        <time>2015-08-05T11:38:57Z</time>
        <speed>3.170000</speed>
      </trkpt>
      <trkpt lat="46.042645744" lon="7.197422742">
        <ele>2101.400000</ele>
        <time>2015-08-05T11:38:58Z</time>
        <speed>3.111000</speed>
      </trkpt>
      <trkpt lat="46.042657982" lon="7.197487283">
        <ele>2100.800000</ele>
        <time>2015-08-05T11:38:59Z</time>
        <speed>4.192000</speed>
      </trkpt>
      <trkpt lat="46.042667034" lon="7.197566492">
        <ele>2100.200000</ele>
        <time>2015-08-05T11:39:00Z</time>
        <speed>5.546000</speed>
      </trkpt>
      <trkpt lat="46.042686815" lon="7.197644611">
        <ele>2099.600000</ele>
        <time>2015-08-05T11:39:01Z</time>
        <speed>5.848000</speed>
      </trkpt>
      <trkpt lat="46.042710955" lon="7.197713511">
        <ele>2099.000000</ele>
        <time>2015-08-05T11:39:02Z</time>
        <speed>5.913000</speed>
      </trkpt>
      <trkpt lat="46.042718499" lon="7.197759611">
        <ele>2098.400000</ele>
        <time>2015-08-05T11:39:03Z</time>
        <speed>6.294000</speed>
      </trkpt>
      <trkpt lat="46.042720008" lon="7.197787439">
        <ele>2098.400000</ele>
        <time>2015-08-05T11:39:04Z</time>
        <speed>4.802000</speed>
      </trkpt>
      <trkpt lat="46.042704166" lon="7.197866816">
        <ele>2098.400000</ele>
        <time>2015-08-05T11:39:08Z</time>
        <speed>2.540000</speed>
      </trkpt>
      <trkpt lat="46.042707603" lon="7.197866648">
        <ele>2098.800000</ele>
        <time>2015-08-05T11:39:09Z</time>
        <speed>2.540000</speed>
      </trkpt>
      <trkpt lat="46.042705926" lon="7.197868995">
        <ele>2099.200000</ele>
        <time>2015-08-05T11:39:10Z</time>
        <speed>2.540000</speed>
      </trkpt>
      <trkpt lat="46.042710788" lon="7.197880646">
        <ele>2099.600000</ele>
        <time>2015-08-05T11:39:11Z</time>
        <speed>2.540000</speed>
      </trkpt>
      <trkpt lat="46.042711123" lon="7.197887687">
        <ele>2100.000000</ele>
        <time>2015-08-05T11:39:12Z</time>
        <speed>0.000000</speed>
      </trkpt>
      <trkpt lat="46.042712799" lon="7.197900679">
        <ele>2100.400000</ele>
        <time>2015-08-05T11:39:13Z</time>
        <speed>0.000000</speed>
      </trkpt>
      <trkpt lat="46.042718415" lon="7.197944264">
        <ele>2100.400000</ele>
        <time>2015-08-05T11:39:16Z</time>
        <speed>0.926000</speed>
      </trkpt>
      <trkpt lat="46.042719505" lon="7.197965219">
        <ele>2100.400000</ele>
        <time>2015-08-05T11:39:19Z</time>
        <speed>1.058000</speed>
      </trkpt>
      <trkpt lat="46.042730234" lon="7.198008470">
        <ele>2100.400000</ele>
        <time>2015-08-05T11:39:21Z</time>
        <speed>6.230000</speed>
      </trkpt>
      <trkpt lat="46.042751440" lon="7.198043087">
        <ele>2100.400000</ele>
        <time>2015-08-05T11:39:23Z</time>
        <speed>7.788000</speed>
      </trkpt>
      <trkpt lat="46.042751021" lon="7.198064210">
        <ele>2100.400000</ele>
        <time>2015-08-05T11:39:24Z</time>
        <speed>7.788000</speed>
      </trkpt>
      <trkpt lat="46.042754374" lon="7.198140988">
        <ele>2100.400000</ele>
        <time>2015-08-05T11:39:28Z</time>
        <speed>9.994000</speed>
      </trkpt>
      <trkpt lat="46.042750853" lon="7.198183400">
        <ele>2100.800000</ele>
        <time>2015-08-05T11:39:30Z</time>
        <speed>1.904000</speed>
      </trkpt>
      <trkpt lat="46.042753032" lon="7.198206199">
        <ele>2101.400000</ele>
        <time>2015-08-05T11:39:31Z</time>
        <speed>1.904000</speed>
      </trkpt>
      <trkpt lat="46.042757810" lon="7.198225394">
        <ele>2101.800000</ele>
        <time>2015-08-05T11:39:32Z</time>
        <speed>1.811000</speed>
      </trkpt>
      <trkpt lat="46.042758900" lon="7.198247270">
        <ele>2102.200000</ele>
        <time>2015-08-05T11:39:33Z</time>
        <speed>1.801000</speed>
      </trkpt>
      <trkpt lat="46.042757642" lon="7.198265040">
        <ele>2102.600000</ele>
        <time>2015-08-05T11:39:34Z</time>
        <speed>1.796000</speed>
      </trkpt>
      <trkpt lat="46.042759403" lon="7.198320277">
        <ele>2103.000000</ele>
        <time>2015-08-05T11:39:37Z</time>
        <speed>1.638000</speed>
      </trkpt>
      <trkpt lat="46.042758648" lon="7.198341567">
        <ele>2103.400000</ele>
        <time>2015-08-05T11:39:38Z</time>
        <speed>1.632000</speed>
      </trkpt>
      <trkpt lat="46.042755044" lon="7.198369227">
        <ele>2103.800000</ele>
        <time>2015-08-05T11:39:39Z</time>
        <speed>1.876000</speed>
      </trkpt>
      <trkpt lat="46.042759989" lon="7.198388002">
        <ele>2104.200000</ele>
        <time>2015-08-05T11:39:40Z</time>
        <speed>2.000000</speed>
      </trkpt>
      <trkpt lat="46.042761498" lon="7.198407784">
        <ele>2104.600000</ele>
        <time>2015-08-05T11:39:41Z</time>
        <speed>2.224000</speed>
      </trkpt>
      <trkpt lat="46.042761917" lon="7.198439300">
        <ele>2105.000000</ele>
        <time>2015-08-05T11:39:43Z</time>
        <speed>1.483000</speed>
      </trkpt>
      <trkpt lat="46.042762504" lon="7.198452795">
        <ele>2105.400000</ele>
        <time>2015-08-05T11:39:44Z</time>
        <speed>1.552000</speed>
      </trkpt>
      <trkpt lat="46.042763091" lon="7.198469977">
        <ele>2106.000000</ele>
        <time>2015-08-05T11:39:45Z</time>
        <speed>1.459000</speed>
      </trkpt>
      <trkpt lat="46.042755631" lon="7.198491854">
        <ele>2106.400000</ele>
        <time>2015-08-05T11:39:46Z</time>
        <speed>1.459000</speed>
      </trkpt>
      <trkpt lat="46.042747417" lon="7.198521107">
        <ele>2106.800000</ele>
        <time>2015-08-05T11:39:47Z</time>
        <speed>1.577000</speed>
      </trkpt>
      <trkpt lat="46.042744986" lon="7.198544576">
        <ele>2106.800000</ele>
        <time>2015-08-05T11:39:48Z</time>
        <speed>1.801000</speed>
      </trkpt>
      <trkpt lat="46.042741214" lon="7.198602244">
        <ele>2107.200000</ele>
        <time>2015-08-05T11:39:51Z</time>
        <speed>1.927000</speed>
      </trkpt>
      <trkpt lat="46.042742220" lon="7.198622528">
        <ele>2107.800000</ele>
        <time>2015-08-05T11:39:52Z</time>
        <speed>1.804000</speed>
      </trkpt>
      <trkpt lat="46.042753368" lon="7.198635101">
        <ele>2108.200000</ele>
        <time>2015-08-05T11:39:53Z</time>
        <speed>1.804000</speed>
      </trkpt>
      <trkpt lat="46.042768790" lon="7.198654379">
        <ele>2108.600000</ele>
        <time>2015-08-05T11:39:54Z</time>
        <speed>1.534000</speed>
      </trkpt>
      <trkpt lat="46.042779352" lon="7.198665695">
        <ele>2109.000000</ele>
        <time>2015-08-05T11:39:55Z</time>
        <speed>1.534000</speed>
      </trkpt>
      <trkpt lat="46.042785806" lon="7.198683967">
        <ele>2109.000000</ele>
        <time>2015-08-05T11:39:56Z</time>
        <speed>1.298000</speed>
      </trkpt>
      <trkpt lat="46.042794523" lon="7.198730152">
        <ele>2109.000000</ele>
        <time>2015-08-05T11:39:59Z</time>
        <speed>1.805000</speed>
      </trkpt>
      <trkpt lat="46.042802653" lon="7.198758818">
        <ele>2109.000000</ele>
        <time>2015-08-05T11:40:01Z</time>
        <speed>1.398000</speed>
      </trkpt>
      <trkpt lat="46.042805503" lon="7.198776168">
        <ele>2109.400000</ele>
        <time>2015-08-05T11:40:02Z</time>
        <speed>1.204000</speed>
      </trkpt>
      <trkpt lat="46.042808185" lon="7.198801063">
        <ele>2110.000000</ele>
        <time>2015-08-05T11:40:03Z</time>
        <speed>1.204000</speed>
      </trkpt>
      <trkpt lat="46.042820758" lon="7.198819168">
        <ele>2110.400000</ele>
        <time>2015-08-05T11:40:04Z</time>
        <speed>1.392000</speed>
      </trkpt>
      <trkpt lat="46.042830314" lon="7.198836434">
        <ele>2111.200000</ele>
        <time>2015-08-05T11:40:05Z</time>
        <speed>2.186000</speed>
      </trkpt>
      <trkpt lat="46.042852358" lon="7.198863759">
        <ele>2111.200000</ele>
        <time>2015-08-05T11:40:06Z</time>
        <speed>1.879000</speed>
      </trkpt>
      <trkpt lat="46.042860572" lon="7.198911452">
        <ele>2111.200000</ele>
        <time>2015-08-05T11:40:07Z</time>
        <speed>1.816000</speed>
      </trkpt>
      <trkpt lat="46.042865098" lon="7.198965683">
        <ele>2111.200000</ele>
        <time>2015-08-05T11:40:09Z</time>
        <speed>1.816000</speed>
      </trkpt>
      <trkpt lat="46.042882784" lon="7.199030894">
        <ele>2111.200000</ele>
        <time>2015-08-05T11:40:13Z</time>
        <speed>1.411000</speed>
      </trkpt>
      <trkpt lat="46.042908601" lon="7.199084119">
        <ele>2111.200000</ele>
        <time>2015-08-05T11:40:15Z</time>
        <speed>1.378000</speed>
      </trkpt>
      <trkpt lat="46.042952941" lon="7.199229546">
        <ele>2111.200000</ele>
        <time>2015-08-05T11:40:20Z</time>
        <speed>3.317000</speed>
      </trkpt>
      <trkpt lat="46.042974650" lon="7.199338762">
        <ele>2111.200000</ele>
        <time>2015-08-05T11:40:26Z</time>
        <speed>2.029000</speed>
      </trkpt>
      <trkpt lat="46.042979595" lon="7.199354184">
        <ele>2111.600000</ele>
        <time>2015-08-05T11:40:27Z</time>
        <speed>1.678000</speed>
      </trkpt>
      <trkpt lat="46.042982613" lon="7.199368350">
        <ele>2112.000000</ele>
        <time>2015-08-05T11:40:28Z</time>
        <speed>1.678000</speed>
      </trkpt>
      <trkpt lat="46.042989989" lon="7.199386539">
        <ele>2112.400000</ele>
        <time>2015-08-05T11:40:29Z</time>
        <speed>1.235000</speed>
      </trkpt>
      <trkpt lat="46.042996108" lon="7.199404643">
        <ele>2112.800000</ele>
        <time>2015-08-05T11:40:30Z</time>
        <speed>1.235000</speed>
      </trkpt>
      <trkpt lat="46.043003316" lon="7.199427191">
        <ele>2113.200000</ele>
        <time>2015-08-05T11:40:31Z</time>
        <speed>1.474000</speed>
      </trkpt>
      <trkpt lat="46.043027707" lon="7.199465999">
        <ele>2113.200000</ele>
        <time>2015-08-05T11:40:33Z</time>
        <speed>1.765000</speed>
      </trkpt>
      <trkpt lat="46.043053943" lon="7.199492737">
        <ele>2113.600000</ele>
        <time>2015-08-05T11:40:35Z</time>
        <speed>1.888000</speed>
      </trkpt>
      <trkpt lat="46.043066097" lon="7.199500700">
        <ele>2114.000000</ele>
        <time>2015-08-05T11:40:36Z</time>
        <speed>2.313000</speed>
      </trkpt>
      <trkpt lat="46.043076825" lon="7.199510004">
        <ele>2114.400000</ele>
        <time>2015-08-05T11:40:37Z</time>
        <speed>1.593000</speed>
      </trkpt>
      <trkpt lat="46.043086465" lon="7.199521906">
        <ele>2114.800000</ele>
        <time>2015-08-05T11:40:38Z</time>
        <speed>1.549000</speed>
      </trkpt>
      <trkpt lat="46.043098870" lon="7.199534563">
        <ele>2115.200000</ele>
        <time>2015-08-05T11:40:39Z</time>
        <speed>1.549000</speed>
      </trkpt>
      <trkpt lat="46.043170619" lon="7.199631793">
        <ele>2115.200000</ele>
        <time>2015-08-05T11:40:44Z</time>
        <speed>1.687000</speed>
      </trkpt>
      <trkpt lat="46.043259132" lon="7.199763305">
        <ele>2115.200000</ele>
        <time>2015-08-05T11:40:48Z</time>
        <speed>3.434000</speed>
      </trkpt>
      <trkpt lat="46.043317135" lon="7.199928093">
        <ele>2115.200000</ele>
        <time>2015-08-05T11:40:52Z</time>
        <speed>3.638000</speed>
      </trkpt>
      <trkpt lat="46.043340604" lon="7.200011829">
        <ele>2114.800000</ele>
        <time>2015-08-05T11:40:54Z</time>
        <speed>3.277000</speed>
      </trkpt>
      <trkpt lat="46.043355272" lon="7.200061952">
        <ele>2113.800000</ele>
        <time>2015-08-05T11:40:55Z</time>
        <speed>3.846000</speed>
      </trkpt>
      <trkpt lat="46.043368180" lon="7.200102102">
        <ele>2113.400000</ele>
        <time>2015-08-05T11:40:56Z</time>
        <speed>3.867000</speed>
      </trkpt>
      <trkpt lat="46.043356027" lon="7.200143508">
        <ele>2112.800000</ele>
        <time>2015-08-05T11:40:57Z</time>
        <speed>4.192000</speed>
      </trkpt>
      <trkpt lat="46.043347980" lon="7.200198158">
        <ele>2112.400000</ele>
        <time>2015-08-05T11:40:58Z</time>
        <speed>3.613000</speed>
      </trkpt>
      <trkpt lat="46.043346136" lon="7.200257754">
        <ele>2112.000000</ele>
        <time>2015-08-05T11:40:59Z</time>
        <speed>4.168000</speed>
      </trkpt>
      <trkpt lat="46.043344879" lon="7.200324641">
        <ele>2111.600000</ele>
        <time>2015-08-05T11:41:00Z</time>
        <speed>4.748000</speed>
      </trkpt>
      <trkpt lat="46.043352171" lon="7.200396977">
        <ele>2111.000000</ele>
        <time>2015-08-05T11:41:01Z</time>
        <speed>4.557000</speed>
      </trkpt>
      <trkpt lat="46.043359295" lon="7.200477276">
        <ele>2110.200000</ele>
        <time>2015-08-05T11:41:02Z</time>
        <speed>5.366000</speed>
      </trkpt>
      <trkpt lat="46.043362648" lon="7.200557071">
        <ele>2109.400000</ele>
        <time>2015-08-05T11:41:03Z</time>
        <speed>6.445000</speed>
      </trkpt>
      <trkpt lat="46.043367091" lon="7.200627898">
        <ele>2108.800000</ele>
        <time>2015-08-05T11:41:04Z</time>
        <speed>6.150000</speed>
      </trkpt>
      <trkpt lat="46.043371114" lon="7.200674753">
        <ele>2108.000000</ele>
        <time>2015-08-05T11:41:05Z</time>
        <speed>6.313000</speed>
      </trkpt>
      <trkpt lat="46.043378825" lon="7.200726470">
        <ele>2107.200000</ele>
        <time>2015-08-05T11:41:06Z</time>
        <speed>5.062000</speed>
      </trkpt>
      <trkpt lat="46.043388381" lon="7.200772319">
        <ele>2106.400000</ele>
        <time>2015-08-05T11:41:07Z</time>
        <speed>3.846000</speed>
      </trkpt>
      <trkpt lat="46.043367594" lon="7.200896874">
        <ele>2106.400000</ele>
        <time>2015-08-05T11:41:10Z</time>
        <speed>3.833000</speed>
      </trkpt>
      <trkpt lat="46.043396511" lon="7.201087646">
        <ele>2106.400000</ele>
        <time>2015-08-05T11:41:14Z</time>
        <speed>4.012000</speed>
      </trkpt>
      <trkpt lat="46.043411347" lon="7.201134668">
        <ele>2106.400000</ele>
        <time>2015-08-05T11:41:15Z</time>
        <speed>3.853000</speed>
      </trkpt>
      <trkpt lat="46.043459627" lon="7.201220331">
        <ele>2105.800000</ele>
        <time>2015-08-05T11:41:17Z</time>
        <speed>3.675000</speed>
      </trkpt>
      <trkpt lat="46.043485359" lon="7.201268443">
        <ele>2105.400000</ele>
        <time>2015-08-05T11:41:18Z</time>
        <speed>4.104000</speed>
      </trkpt>
      <trkpt lat="46.043509080" lon="7.201328374">
        <ele>2105.000000</ele>
        <time>2015-08-05T11:41:19Z</time>
        <speed>4.856000</speed>
      </trkpt>
      <trkpt lat="46.043523581" lon="7.201381515">
        <ele>2103.600000</ele>
        <time>2015-08-05T11:41:20Z</time>
        <speed>5.110000</speed>
      </trkpt>
      <trkpt lat="46.043527772" lon="7.201444799">
        <ele>2103.000000</ele>
        <time>2015-08-05T11:41:21Z</time>
        <speed>5.038000</speed>
      </trkpt>
      <trkpt lat="46.043533052" lon="7.201514536">
        <ele>2102.400000</ele>
        <time>2015-08-05T11:41:22Z</time>
        <speed>4.636000</speed>
      </trkpt>
      <trkpt lat="46.043540345" lon="7.201565330">
        <ele>2101.600000</ele>
        <time>2015-08-05T11:41:23Z</time>
        <speed>5.147000</speed>
      </trkpt>
      <trkpt lat="46.043554175" lon="7.201694412">
        <ele>2101.600000</ele>
        <time>2015-08-05T11:41:26Z</time>
        <speed>3.833000</speed>
      </trkpt>
      <trkpt lat="46.043545541" lon="7.201723162">
        <ele>2101.200000</ele>
        <time>2015-08-05T11:41:27Z</time>
        <speed>3.701000</speed>
      </trkpt>
      <trkpt lat="46.043549229" lon="7.201751493">
        <ele>2100.800000</ele>
        <time>2015-08-05T11:41:28Z</time>
        <speed>2.640000</speed>
      </trkpt>
      <trkpt lat="46.043562054" lon="7.201781584">
        <ele>2100.400000</ele>
        <time>2015-08-05T11:41:29Z</time>
        <speed>2.318000</speed>
      </trkpt>
      <trkpt lat="46.043581500" lon="7.201807567">
        <ele>2100.000000</ele>
        <time>2015-08-05T11:41:30Z</time>
        <speed>2.328000</speed>
      </trkpt>
      <trkpt lat="46.043588205" lon="7.201847549">
        <ele>2099.400000</ele>
        <time>2015-08-05T11:41:31Z</time>
        <speed>2.473000</speed>
      </trkpt>
      <trkpt lat="46.043589043" lon="7.201900355">
        <ele>2098.800000</ele>
        <time>2015-08-05T11:41:32Z</time>
        <speed>2.745000</speed>
      </trkpt>
      <trkpt lat="46.043583344" lon="7.201956682">
        <ele>2098.400000</ele>
        <time>2015-08-05T11:41:33Z</time>
        <speed>3.713000</speed>
      </trkpt>
      <trkpt lat="46.043575884" lon="7.202022815">
        <ele>2097.800000</ele>
        <time>2015-08-05T11:41:34Z</time>
        <speed>4.192000</speed>
      </trkpt>
      <trkpt lat="46.043572866" lon="7.202077716">
        <ele>2097.200000</ele>
        <time>2015-08-05T11:41:35Z</time>
        <speed>5.038000</speed>
      </trkpt>
      <trkpt lat="46.043564736" lon="7.202116944">
        <ele>2097.200000</ele>
        <time>2015-08-05T11:41:36Z</time>
        <speed>4.957000</speed>
      </trkpt>
      <trkpt lat="46.043564233" lon="7.202197494">
        <ele>2097.200000</ele>
        <time>2015-08-05T11:41:38Z</time>
        <speed>3.079000</speed>
      </trkpt>
      <trkpt lat="46.043554175" lon="7.202243007">
        <ele>2096.800000</ele>
        <time>2015-08-05T11:41:39Z</time>
        <speed>2.908000</speed>
      </trkpt>
      <trkpt lat="46.043549062" lon="7.202284917">
        <ele>2096.400000</ele>
        <time>2015-08-05T11:41:40Z</time>
        <speed>2.908000</speed>
      </trkpt>
      <trkpt lat="46.043547469" lon="7.202319450">
        <ele>2096.000000</ele>
        <time>2015-08-05T11:41:41Z</time>
        <speed>3.707000</speed>
      </trkpt>
      <trkpt lat="46.043553085" lon="7.202352894">
        <ele>2095.600000</ele>
        <time>2015-08-05T11:41:42Z</time>
        <speed>3.519000</speed>
      </trkpt>
      <trkpt lat="46.043561970" lon="7.202396983">
        <ele>2095.200000</ele>
        <time>2015-08-05T11:41:43Z</time>
        <speed>2.183000</speed>
      </trkpt>
      <trkpt lat="46.043561048" lon="7.202500416">
        <ele>2094.800000</ele>
        <time>2015-08-05T11:41:45Z</time>
        <speed>3.812000</speed>
      </trkpt>
      <trkpt lat="46.043547218" lon="7.202566130">
        <ele>2094.400000</ele>
        <time>2015-08-05T11:41:46Z</time>
        <speed>3.967000</speed>
      </trkpt>
      <trkpt lat="46.043538501" lon="7.202626060">
        <ele>2094.000000</ele>
        <time>2015-08-05T11:41:47Z</time>
        <speed>4.980000</speed>
      </trkpt>
      <trkpt lat="46.043525592" lon="7.202679118">
        <ele>2093.600000</ele>
        <time>2015-08-05T11:41:48Z</time>
        <speed>4.923000</speed>
      </trkpt>
      <trkpt lat="46.043510505" lon="7.202727146">
        <ele>2093.200000</ele>
        <time>2015-08-05T11:41:49Z</time>
        <speed>3.812000</speed>
      </trkpt>
      <trkpt lat="46.043490556" lon="7.202769894">
        <ele>2092.600000</ele>
        <time>2015-08-05T11:41:50Z</time>
        <speed>4.435000</speed>
      </trkpt>
      <trkpt lat="46.043471781" lon="7.202815575">
        <ele>2092.200000</ele>
        <time>2015-08-05T11:41:51Z</time>
        <speed>4.389000</speed>
      </trkpt>
      <trkpt lat="46.043460130" lon="7.202848348">
        <ele>2091.800000</ele>
        <time>2015-08-05T11:41:52Z</time>
        <speed>4.416000</speed>
      </trkpt>
      <trkpt lat="46.043444875" lon="7.202886486">
        <ele>2091.400000</ele>
        <time>2015-08-05T11:41:53Z</time>
        <speed>3.772000</speed>
      </trkpt>
      <trkpt lat="46.043428698" lon="7.202933676">
        <ele>2091.000000</ele>
        <time>2015-08-05T11:41:54Z</time>
        <speed>3.257000</speed>
      </trkpt>
      <trkpt lat="46.043407659" lon="7.202986063">
        <ele>2091.000000</ele>
        <time>2015-08-05T11:41:55Z</time>
        <speed>3.292000</speed>
      </trkpt>
      <trkpt lat="46.043320655" lon="7.203136183">
        <ele>2091.000000</ele>
        <time>2015-08-05T11:41:59Z</time>
        <speed>4.120000</speed>
      </trkpt>
      <trkpt lat="46.043287043" lon="7.203238358">
        <ele>2091.000000</ele>
        <time>2015-08-05T11:42:03Z</time>
        <speed>2.281000</speed>
      </trkpt>
      <trkpt lat="46.043197609" lon="7.203372134">
        <ele>2091.000000</ele>
        <time>2015-08-05T11:42:09Z</time>
        <speed>2.072000</speed>
      </trkpt>
      <trkpt lat="46.043146144" lon="7.203417899">
        <ele>2091.000000</ele>
        <time>2015-08-05T11:42:12Z</time>
        <speed>2.406000</speed>
      </trkpt>
      <trkpt lat="46.043128290" lon="7.203456875">
        <ele>2091.000000</ele>
        <time>2015-08-05T11:42:14Z</time>
        <speed>2.072000</speed>
      </trkpt>
      <trkpt lat="46.043070958" lon="7.203491240">
        <ele>2091.000000</ele>
        <time>2015-08-05T11:42:17Z</time>
        <speed>2.131000</speed>
      </trkpt>
      <trkpt lat="46.043058720" lon="7.203506160">
        <ele>2091.000000</ele>
        <time>2015-08-05T11:42:18Z</time>
        <speed>2.369000</speed>
      </trkpt>
      <trkpt lat="46.042976913" lon="7.203643623">
        <ele>2091.000000</ele>
        <time>2015-08-05T11:42:23Z</time>
        <speed>1.852000</speed>
      </trkpt>
      <trkpt lat="46.042924861" lon="7.203707577">
        <ele>2091.000000</ele>
        <time>2015-08-05T11:42:26Z</time>
        <speed>3.681000</speed>
      </trkpt>
      <trkpt lat="46.042910864" lon="7.203764574">
        <ele>2091.400000</ele>
        <time>2015-08-05T11:42:29Z</time>
        <speed>1.804000</speed>
      </trkpt>
      <trkpt lat="46.042912708" lon="7.203784020">
        <ele>2091.800000</ele>
        <time>2015-08-05T11:42:30Z</time>
        <speed>1.744000</speed>
      </trkpt>
      <trkpt lat="46.042914384" lon="7.203805394">
        <ele>2092.200000</ele>
        <time>2015-08-05T11:42:31Z</time>
        <speed>1.652000</speed>
      </trkpt>
      <trkpt lat="46.042903823" lon="7.203824924">
        <ele>2092.600000</ele>
        <time>2015-08-05T11:42:32Z</time>
        <speed>1.842000</speed>
      </trkpt>
      <trkpt lat="46.042900135" lon="7.203851159">
        <ele>2093.000000</ele>
        <time>2015-08-05T11:42:33Z</time>
        <speed>1.672000</speed>
      </trkpt>
      <trkpt lat="46.042889322" lon="7.203915868">
        <ele>2093.400000</ele>
        <time>2015-08-05T11:42:36Z</time>
        <speed>1.716000</speed>
      </trkpt>
      <trkpt lat="46.042887394" lon="7.203934978">
        <ele>2094.000000</ele>
        <time>2015-08-05T11:42:37Z</time>
        <speed>1.816000</speed>
      </trkpt>
      <trkpt lat="46.042886808" lon="7.203953670">
        <ele>2094.400000</ele>
        <time>2015-08-05T11:42:38Z</time>
        <speed>2.127000</speed>
      </trkpt>
      <trkpt lat="46.042882198" lon="7.203973787">
        <ele>2094.800000</ele>
        <time>2015-08-05T11:42:39Z</time>
        <speed>1.738000</speed>
      </trkpt>
      <trkpt lat="46.042880521" lon="7.203993316">
        <ele>2095.200000</ele>
        <time>2015-08-05T11:42:40Z</time>
        <speed>1.497000</speed>
      </trkpt>
      <trkpt lat="46.042879934" lon="7.204057438">
        <ele>2095.200000</ele>
        <time>2015-08-05T11:42:43Z</time>
        <speed>1.775000</speed>
      </trkpt>
      <trkpt lat="46.042879348" lon="7.204121308">
        <ele>2095.200000</ele>
        <time>2015-08-05T11:42:46Z</time>
        <speed>1.911000</speed>
      </trkpt>
      <trkpt lat="46.042870044" lon="7.204181155">
        <ele>2095.600000</ele>
        <time>2015-08-05T11:42:49Z</time>
        <speed>1.973000</speed>
      </trkpt>
      <trkpt lat="46.042865937" lon="7.204190794">
        <ele>2096.000000</ele>
        <time>2015-08-05T11:42:50Z</time>
        <speed>1.997000</speed>
      </trkpt>
      <trkpt lat="46.042864428" lon="7.204201439">
        <ele>2096.600000</ele>
        <time>2015-08-05T11:42:51Z</time>
        <speed>1.657000</speed>
      </trkpt>
      <trkpt lat="46.042861410" lon="7.204201271">
        <ele>2097.000000</ele>
        <time>2015-08-05T11:42:52Z</time>
        <speed>1.657000</speed>
      </trkpt>
      <trkpt lat="46.042862500" lon="7.204200768">
        <ele>2097.400000</ele>
        <time>2015-08-05T11:42:53Z</time>
        <speed>0.000000</speed>
      </trkpt>
      <trkpt lat="46.042870631" lon="7.204207893">
        <ele>2097.400000</ele>
        <time>2015-08-05T11:42:55Z</time>
        <speed>0.000000</speed>
      </trkpt>
      <trkpt lat="46.042887394" lon="7.204232871">
        <ele>2097.400000</ele>
        <time>2015-08-05T11:43:01Z</time>
        <speed>0.000000</speed>
      </trkpt>
      <trkpt lat="46.042887394" lon="7.204232871">
        <ele>2097.400000</ele>
        <time>2015-08-05T11:43:10Z</time>
        <speed>0.000000</speed>
      </trkpt>
      <trkpt lat="46.042888065" lon="7.204231111">
        <ele>2097.400000</ele>
        <time>2015-08-05T11:43:17Z</time>
        <speed>0.000000</speed>
      </trkpt>
      <trkpt lat="46.042888065" lon="7.204231111">
        <ele>2097.400000</ele>
        <time>2015-08-05T11:43:29Z</time>
        <speed>0.000000</speed>
      </trkpt>
      <trkpt lat="46.042888065" lon="7.204231111">
        <ele>2097.400000</ele>
        <time>2015-08-05T11:43:37Z</time>
        <speed>0.000000</speed>
      </trkpt>
      <trkpt lat="46.042888065" lon="7.204231111">
        <ele>2097.400000</ele>
        <time>2015-08-05T11:43:40Z</time>
        <speed>0.000000</speed>
      </trkpt>
      <trkpt lat="46.042888065" lon="7.204231111">
        <ele>2097.400000</ele>
        <time>2015-08-05T11:43:43Z</time>
        <speed>0.000000</speed>
      </trkpt>
      <trkpt lat="46.042888065" lon="7.204231111">
        <ele>2097.400000</ele>
        <time>2015-08-05T11:43:46Z</time>
        <speed>0.000000</speed>
      </trkpt>
      <trkpt lat="46.042888065" lon="7.204231111">
        <ele>2097.400000</ele>
        <time>2015-08-05T11:43:50Z</time>
        <speed>0.000000</speed>
      </trkpt>
      <trkpt lat="46.042886808" lon="7.204233290">
        <ele>2097.400000</ele>
        <time>2015-08-05T11:43:54Z</time>
        <speed>0.000000</speed>
      </trkpt>
      <trkpt lat="46.042886808" lon="7.204233290">
        <ele>2097.400000</ele>
        <time>2015-08-05T11:43:59Z</time>
        <speed>0.000000</speed>
      </trkpt>
      <trkpt lat="46.042886808" lon="7.204233290">
        <ele>2097.400000</ele>
        <time>2015-08-05T11:44:06Z</time>
        <speed>0.000000</speed>
      </trkpt>
      <trkpt lat="46.042886808" lon="7.204233290">
        <ele>2097.400000</ele>
        <time>2015-08-05T11:44:13Z</time>
        <speed>0.000000</speed>
      </trkpt>
      <trkpt lat="46.042886808" lon="7.204233290">
        <ele>2097.400000</ele>
        <time>2015-08-05T11:44:19Z</time>
        <speed>0.000000</speed>
      </trkpt>
      <trkpt lat="46.042886808" lon="7.204233290">
        <ele>2097.400000</ele>
        <time>2015-08-05T11:44:22Z</time>
        <speed>0.000000</speed>
      </trkpt>
      <trkpt lat="46.042886808" lon="7.204233290">
        <ele>2097.400000</ele>
        <time>2015-08-05T11:44:28Z</time>
        <speed>0.000000</speed>
      </trkpt>
      <trkpt lat="46.042886808" lon="7.204233290">
        <ele>2097.400000</ele>
        <time>2015-08-05T11:44:30Z</time>
        <speed>0.000000</speed>
      </trkpt>
      <trkpt lat="46.042887646" lon="7.204235050">
        <ele>2097.400000</ele>
        <time>2015-08-05T11:44:45Z</time>
        <speed>0.000000</speed>
      </trkpt>
      <trkpt lat="46.042887646" lon="7.204235050">
        <ele>2097.400000</ele>
        <time>2015-08-05T11:44:58Z</time>
        <speed>0.000000</speed>
      </trkpt>
      <trkpt lat="46.042887646" lon="7.204235050">
        <ele>2097.400000</ele>
        <time>2015-08-05T11:45:06Z</time>
        <speed>0.000000</speed>
      </trkpt>
      <trkpt lat="46.042887646" lon="7.204235050">
        <ele>2097.400000</ele>
        <time>2015-08-05T11:45:12Z</time>
        <speed>0.000000</speed>
      </trkpt>
      <trkpt lat="46.042885969" lon="7.204234212">
        <ele>2097.400000</ele>
        <time>2015-08-05T11:45:20Z</time>
        <speed>0.000000</speed>
      </trkpt>
      <trkpt lat="46.042885969" lon="7.204234212">
        <ele>2097.400000</ele>
        <time>2015-08-05T11:45:26Z</time>
        <speed>0.000000</speed>
      </trkpt>
      <trkpt lat="46.042885969" lon="7.204234212">
        <ele>2097.400000</ele>
        <time>2015-08-05T11:45:40Z</time>
        <speed>0.000000</speed>
      </trkpt>
      <trkpt lat="46.042885969" lon="7.204234212">
        <ele>2097.400000</ele>
        <time>2015-08-05T11:45:46Z</time>
        <speed>0.000000</speed>
      </trkpt>
      <trkpt lat="46.042885969" lon="7.204234212">
        <ele>2097.400000</ele>
        <time>2015-08-05T11:45:47Z</time>
        <speed>0.000000</speed>
      </trkpt>
      <trkpt lat="46.042886724" lon="7.204237733">
        <ele>2097.400000</ele>
        <time>2015-08-05T11:45:54Z</time>
        <speed>0.000000</speed>
      </trkpt>
      <trkpt lat="46.042886724" lon="7.204237733">
        <ele>2097.800000</ele>
        <time>2015-08-05T11:45:59Z</time>
        <speed>0.000000</speed>
      </trkpt>
      <trkpt lat="46.042886724" lon="7.204237733">
        <ele>2098.200000</ele>
        <time>2015-08-05T11:46:00Z</time>
        <speed>0.000000</speed>
      </trkpt>
      <trkpt lat="46.042886724" lon="7.204237733">
        <ele>2098.600000</ele>
        <time>2015-08-05T11:46:01Z</time>
        <speed>0.000000</speed>
      </trkpt>
      <trkpt lat="46.042886724" lon="7.204237733">
        <ele>2099.000000</ele>
        <time>2015-08-05T11:46:02Z</time>
        <speed>0.000000</speed>
      </trkpt>
      <trkpt lat="46.042886724" lon="7.204237733">
        <ele>2099.400000</ele>
        <time>2015-08-05T11:46:03Z</time>
        <speed>0.000000</speed>
      </trkpt>
      <trkpt lat="46.042886724" lon="7.204237733">
        <ele>2099.400000</ele>
        <time>2015-08-05T11:46:10Z</time>
        <speed>0.000000</speed>
      </trkpt>
      <trkpt lat="46.042886724" lon="7.204237733">
        <ele>2099.400000</ele>
        <time>2015-08-05T11:46:11Z</time>
        <speed>0.000000</speed>
      </trkpt>
      <trkpt lat="46.042886724" lon="7.204237733">
        <ele>2099.400000</ele>
        <time>2015-08-05T11:46:13Z</time>
        <speed>0.000000</speed>
      </trkpt>
      <trkpt lat="46.042886724" lon="7.204237733">
        <ele>2099.400000</ele>
        <time>2015-08-05T11:46:16Z</time>
        <speed>0.000000</speed>
      </trkpt>
      <trkpt lat="46.042886724" lon="7.204237733">
        <ele>2099.400000</ele>
        <time>2015-08-05T11:46:18Z</time>
        <speed>0.000000</speed>
      </trkpt>
      <trkpt lat="46.042886724" lon="7.204237733">
        <ele>2099.400000</ele>
        <time>2015-08-05T11:46:20Z</time>
        <speed>0.000000</speed>
      </trkpt>
      <trkpt lat="46.042886724" lon="7.204237733">
        <ele>2099.400000</ele>
        <time>2015-08-05T11:46:22Z</time>
        <speed>0.000000</speed>
      </trkpt>
      <trkpt lat="46.042886724" lon="7.204237733">
        <ele>2099.400000</ele>
        <time>2015-08-05T11:46:24Z</time>
        <speed>0.000000</speed>
      </trkpt>
      <trkpt lat="46.042886724" lon="7.204237733">
        <ele>2099.400000</ele>
        <time>2015-08-05T11:46:32Z</time>
        <speed>0.000000</speed>
      </trkpt>
      <trkpt lat="46.042886724" lon="7.204237733">
        <ele>2099.400000</ele>
        <time>2015-08-05T11:46:33Z</time>
        <speed>0.000000</speed>
      </trkpt>
      <trkpt lat="46.042887311" lon="7.204239325">
        <ele>2099.400000</ele>
        <time>2015-08-05T11:46:34Z</time>
        <speed>0.000000</speed>
      </trkpt>
      <trkpt lat="46.042887311" lon="7.204239325">
        <ele>2099.400000</ele>
        <time>2015-08-05T11:46:36Z</time>
        <speed>0.000000</speed>
      </trkpt>
      <trkpt lat="46.042887311" lon="7.204239325">
        <ele>2099.400000</ele>
        <time>2015-08-05T11:46:39Z</time>
        <speed>0.000000</speed>
      </trkpt>
      <trkpt lat="46.042887311" lon="7.204239325">
        <ele>2099.400000</ele>
        <time>2015-08-05T11:46:42Z</time>
        <speed>0.000000</speed>
      </trkpt>
      <trkpt lat="46.042887311" lon="7.204239325">
        <ele>2099.400000</ele>
        <time>2015-08-05T11:46:45Z</time>
        <speed>0.000000</speed>
      </trkpt>
      <trkpt lat="46.042887311" lon="7.204239325">
        <ele>2099.400000</ele>
        <time>2015-08-05T11:46:48Z</time>
        <speed>0.000000</speed>
      </trkpt>
      <trkpt lat="46.042887311" lon="7.204239325">
        <ele>2099.400000</ele>
        <time>2015-08-05T11:46:49Z</time>
        <speed>0.000000</speed>
      </trkpt>
      <trkpt lat="46.042887311" lon="7.204239325">
        <ele>2099.400000</ele>
        <time>2015-08-05T11:46:52Z</time>
        <speed>0.000000</speed>
      </trkpt>
      <trkpt lat="46.042887311" lon="7.204239325">
        <ele>2099.400000</ele>
        <time>2015-08-05T11:47:00Z</time>
        <speed>0.000000</speed>
      </trkpt>
      <trkpt lat="46.042887311" lon="7.204239325">
        <ele>2099.400000</ele>
        <time>2015-08-05T11:47:01Z</time>
        <speed>0.000000</speed>
      </trkpt>
      <trkpt lat="46.042887311" lon="7.204239325">
        <ele>2099.400000</ele>
        <time>2015-08-05T11:47:02Z</time>
        <speed>0.000000</speed>
      </trkpt>
      <trkpt lat="46.042887311" lon="7.204239325">
        <ele>2099.400000</ele>
        <time>2015-08-05T11:47:04Z</time>
        <speed>0.000000</speed>
      </trkpt>
      <trkpt lat="46.042887311" lon="7.204239325">
        <ele>2099.400000</ele>
        <time>2015-08-05T11:47:06Z</time>
        <speed>0.000000</speed>
      </trkpt>
      <trkpt lat="46.042887311" lon="7.204239325">
        <ele>2099.400000</ele>
        <time>2015-08-05T11:47:08Z</time>
        <speed>0.000000</speed>
      </trkpt>
      <trkpt lat="46.042887311" lon="7.204239325">
        <ele>2099.400000</ele>
        <time>2015-08-05T11:47:11Z</time>
        <speed>0.000000</speed>
      </trkpt>
      <trkpt lat="46.042886305" lon="7.204238571">
        <ele>2099.400000</ele>
        <time>2015-08-05T11:47:20Z</time>
        <speed>0.000000</speed>
      </trkpt>
      <trkpt lat="46.042886305" lon="7.204238571">
        <ele>2099.400000</ele>
        <time>2015-08-05T11:47:27Z</time>
        <speed>0.000000</speed>
      </trkpt>
      <trkpt lat="46.042886305" lon="7.204238571">
        <ele>2099.400000</ele>
        <time>2015-08-05T11:47:30Z</time>
        <speed>0.000000</speed>
      </trkpt>
      <trkpt lat="46.042886305" lon="7.204238571">
        <ele>2099.400000</ele>
        <time>2015-08-05T11:47:34Z</time>
        <speed>0.000000</speed>
      </trkpt>
      <trkpt lat="46.042886305" lon="7.204238571">
        <ele>2099.400000</ele>
        <time>2015-08-05T11:47:42Z</time>
        <speed>0.000000</speed>
      </trkpt>
      <trkpt lat="46.042886305" lon="7.204238571">
        <ele>2099.400000</ele>
        <time>2015-08-05T11:47:49Z</time>
        <speed>0.000000</speed>
      </trkpt>
      <trkpt lat="46.042886640" lon="7.204237062">
        <ele>2099.400000</ele>
        <time>2015-08-05T11:48:01Z</time>
        <speed>0.000000</speed>
      </trkpt>
      <trkpt lat="46.042886640" lon="7.204237062">
        <ele>2099.400000</ele>
        <time>2015-08-05T11:48:11Z</time>
        <speed>0.000000</speed>
      </trkpt>
      <trkpt lat="46.042886640" lon="7.204237062">
        <ele>2099.400000</ele>
        <time>2015-08-05T11:48:15Z</time>
        <speed>0.000000</speed>
      </trkpt>
      <trkpt lat="46.042886640" lon="7.204237062">
        <ele>2099.400000</ele>
        <time>2015-08-05T11:48:19Z</time>
        <speed>0.000000</speed>
      </trkpt>
      <trkpt lat="46.042886640" lon="7.204237062">
        <ele>2099.400000</ele>
        <time>2015-08-05T11:48:26Z</time>
        <speed>0.000000</speed>
      </trkpt>
      <trkpt lat="46.042886640" lon="7.204237062">
        <ele>2099.400000</ele>
        <time>2015-08-05T11:48:30Z</time>
        <speed>0.000000</speed>
      </trkpt>
      <trkpt lat="46.042885718" lon="7.204236308">
        <ele>2099.400000</ele>
        <time>2015-08-05T11:48:50Z</time>
        <speed>0.000000</speed>
      </trkpt>
      <trkpt lat="46.042885718" lon="7.204236308">
        <ele>2099.400000</ele>
        <time>2015-08-05T11:48:52Z</time>
        <speed>0.000000</speed>
      </trkpt>
      <trkpt lat="46.042885718" lon="7.204236308">
        <ele>2099.400000</ele>
        <time>2015-08-05T11:48:53Z</time>
        <speed>0.000000</speed>
      </trkpt>
      <trkpt lat="46.042885718" lon="7.204236308">
        <ele>2099.400000</ele>
        <time>2015-08-05T11:48:54Z</time>
        <speed>0.000000</speed>
      </trkpt>
      <trkpt lat="46.042885718" lon="7.204236308">
        <ele>2099.400000</ele>
        <time>2015-08-05T11:48:57Z</time>
        <speed>0.000000</speed>
      </trkpt>
      <trkpt lat="46.042885718" lon="7.204236308">
        <ele>2099.400000</ele>
        <time>2015-08-05T11:49:04Z</time>
        <speed>0.000000</speed>
      </trkpt>
      <trkpt lat="46.042885718" lon="7.204236308">
        <ele>2099.400000</ele>
        <time>2015-08-05T11:49:07Z</time>
        <speed>0.000000</speed>
      </trkpt>
      <trkpt lat="46.042885718" lon="7.204236308">
        <ele>2099.400000</ele>
        <time>2015-08-05T11:49:08Z</time>
        <speed>0.000000</speed>
      </trkpt>
      <trkpt lat="46.042886137" lon="7.204230273">
        <ele>2099.400000</ele>
        <time>2015-08-05T11:49:19Z</time>
        <speed>0.000000</speed>
      </trkpt>
      <trkpt lat="46.042886137" lon="7.204230273">
        <ele>2099.400000</ele>
        <time>2015-08-05T11:49:24Z</time>
        <speed>0.000000</speed>
      </trkpt>
      <trkpt lat="46.042886137" lon="7.204230273">
        <ele>2099.400000</ele>
        <time>2015-08-05T11:49:31Z</time>
        <speed>0.000000</speed>
      </trkpt>
      <trkpt lat="46.042886137" lon="7.204230273">
        <ele>2099.400000</ele>
        <time>2015-08-05T11:49:41Z</time>
        <speed>0.000000</speed>
      </trkpt>
      <trkpt lat="46.042886137" lon="7.204230273">
        <ele>2099.800000</ele>
        <time>2015-08-05T11:49:42Z</time>
        <speed>0.000000</speed>
      </trkpt>
      <trkpt lat="46.042886137" lon="7.204230273">
        <ele>2100.200000</ele>
        <time>2015-08-05T11:49:43Z</time>
        <speed>0.000000</speed>
      </trkpt>
      <trkpt lat="46.042886137" lon="7.204230273">
        <ele>2100.800000</ele>
        <time>2015-08-05T11:49:44Z</time>
        <speed>0.000000</speed>
      </trkpt>
      <trkpt lat="46.042886137" lon="7.204230273">
        <ele>2101.200000</ele>
        <time>2015-08-05T11:49:45Z</time>
        <speed>0.000000</speed>
      </trkpt>
      <trkpt lat="46.042886137" lon="7.204230273">
        <ele>2101.600000</ele>
        <time>2015-08-05T11:49:46Z</time>
        <speed>0.000000</speed>
      </trkpt>
      <trkpt lat="46.042886389" lon="7.204229435">
        <ele>2101.600000</ele>
        <time>2015-08-05T11:49:57Z</time>
        <speed>0.000000</speed>
      </trkpt>
      <trkpt lat="46.042886389" lon="7.204229435">
        <ele>2101.600000</ele>
        <time>2015-08-05T11:50:05Z</time>
        <speed>0.000000</speed>
      </trkpt>
      <trkpt lat="46.042886389" lon="7.204229435">
        <ele>2101.600000</ele>
        <time>2015-08-05T11:50:08Z</time>
        <speed>0.000000</speed>
      </trkpt>
      <trkpt lat="46.042886389" lon="7.204229435">
        <ele>2101.600000</ele>
        <time>2015-08-05T11:50:11Z</time>
        <speed>0.000000</speed>
      </trkpt>
      <trkpt lat="46.042886389" lon="7.204229435">
        <ele>2101.600000</ele>
        <time>2015-08-05T11:50:17Z</time>
        <speed>0.000000</speed>
      </trkpt>
      <trkpt lat="46.042886389" lon="7.204229435">
        <ele>2101.600000</ele>
        <time>2015-08-05T11:50:22Z</time>
        <speed>0.000000</speed>
      </trkpt>
      <trkpt lat="46.042886389" lon="7.204229435">
        <ele>2101.600000</ele>
        <time>2015-08-05T11:50:24Z</time>
        <speed>0.000000</speed>
      </trkpt>
      <trkpt lat="46.042865853" lon="7.204237314">
        <ele>2101.600000</ele>
        <time>2015-08-05T11:50:30Z</time>
        <speed>0.000000</speed>
      </trkpt>
      <trkpt lat="46.042835259" lon="7.204261956">
        <ele>2101.600000</ele>
        <time>2015-08-05T11:50:33Z</time>
        <speed>1.621000</speed>
      </trkpt>
      <trkpt lat="46.042831319" lon="7.204311745">
        <ele>2101.600000</ele>
        <time>2015-08-05T11:50:35Z</time>
        <speed>2.362000</speed>
      </trkpt>
      <trkpt lat="46.042815142" lon="7.204404281">
        <ele>2101.000000</ele>
        <time>2015-08-05T11:50:38Z</time>
        <speed>2.447000</speed>
      </trkpt>
      <trkpt lat="46.042817154" lon="7.204440910">
        <ele>2100.600000</ele>
        <time>2015-08-05T11:50:39Z</time>
        <speed>2.447000</speed>
      </trkpt>
      <trkpt lat="46.042826626" lon="7.204477958">
        <ele>2100.200000</ele>
        <time>2015-08-05T11:50:40Z</time>
        <speed>2.288000</speed>
      </trkpt>
      <trkpt lat="46.042824195" lon="7.204520119">
        <ele>2099.800000</ele>
        <time>2015-08-05T11:50:41Z</time>
        <speed>2.670000</speed>
      </trkpt>
      <trkpt lat="46.042822099" lon="7.204567896">
        <ele>2099.400000</ele>
        <time>2015-08-05T11:50:42Z</time>
        <speed>2.908000</speed>
      </trkpt>
      <trkpt lat="46.042820423" lon="7.204616427">
        <ele>2099.400000</ele>
        <time>2015-08-05T11:50:43Z</time>
        <speed>3.418000</speed>
      </trkpt>
      <trkpt lat="46.042825704" lon="7.204668479">
        <ele>2098.800000</ele>
        <time>2015-08-05T11:50:44Z</time>
        <speed>3.619000</speed>
      </trkpt>
      <trkpt lat="46.042824782" lon="7.204716675">
        <ele>2098.200000</ele>
        <time>2015-08-05T11:50:45Z</time>
        <speed>3.302000</speed>
      </trkpt>
      <trkpt lat="46.042810951" lon="7.204754309">
        <ele>2097.000000</ele>
        <time>2015-08-05T11:50:46Z</time>
        <speed>4.088000</speed>
      </trkpt>
      <trkpt lat="46.042804330" lon="7.204810803">
        <ele>2096.400000</ele>
        <time>2015-08-05T11:50:47Z</time>
        <speed>3.888000</speed>
      </trkpt>
      <trkpt lat="46.042808018" lon="7.204861179">
        <ele>2095.600000</ele>
        <time>2015-08-05T11:50:48Z</time>
        <speed>3.401000</speed>
      </trkpt>
      <trkpt lat="46.042819333" lon="7.204897724">
        <ele>2095.000000</ele>
        <time>2015-08-05T11:50:49Z</time>
        <speed>4.462000</speed>
      </trkpt>
      <trkpt lat="46.042832828" lon="7.205032421">
        <ele>2093.200000</ele>
        <time>2015-08-05T11:50:50Z</time>
        <speed>3.423000</speed>
      </trkpt>
      <trkpt lat="46.042832828" lon="7.205032421">
        <ele>2093.200000</ele>
        <time>2015-08-05T11:50:53Z</time>
        <speed>3.423000</speed>
      </trkpt>
      <trkpt lat="46.042840959" lon="7.205093190">
        <ele>2092.400000</ele>
        <time>2015-08-05T11:50:54Z</time>
        <speed>3.902000</speed>
      </trkpt>
      <trkpt lat="46.042838193" lon="7.205146080">
        <ele>2091.600000</ele>
        <time>2015-08-05T11:50:55Z</time>
        <speed>4.500000</speed>
      </trkpt>
      <trkpt lat="46.042833666" lon="7.205199640">
        <ele>2090.600000</ele>
        <time>2015-08-05T11:50:56Z</time>
        <speed>4.636000</speed>
      </trkpt>
      <trkpt lat="46.042822183" lon="7.205244567">
        <ele>2089.800000</ele>
        <time>2015-08-05T11:50:57Z</time>
        <speed>5.050000</speed>
      </trkpt>
      <trkpt lat="46.042819920" lon="7.205284968">
        <ele>2089.000000</ele>
        <time>2015-08-05T11:50:58Z</time>
        <speed>4.225000</speed>
      </trkpt>
      <trkpt lat="46.042816232" lon="7.205316819">
        <ele>2088.200000</ele>
        <time>2015-08-05T11:50:59Z</time>
        <speed>3.799000</speed>
      </trkpt>
      <trkpt lat="46.042802402" lon="7.205351688">
        <ele>2087.400000</ele>
        <time>2015-08-05T11:51:00Z</time>
        <speed>3.066000</speed>
      </trkpt>
      <trkpt lat="46.042775244" lon="7.205376917">
        <ele>2086.600000</ele>
        <time>2015-08-05T11:51:01Z</time>
        <speed>2.965000</speed>
      </trkpt>
      <trkpt lat="46.042759570" lon="7.205408936">
        <ele>2086.000000</ele>
        <time>2015-08-05T11:51:02Z</time>
        <speed>2.769000</speed>
      </trkpt>
      <trkpt lat="46.042748339" lon="7.205439698">
        <ele>2085.600000</ele>
        <time>2015-08-05T11:51:03Z</time>
        <speed>3.553000</speed>
      </trkpt>
      <trkpt lat="46.042735766" lon="7.205456378">
        <ele>2085.000000</ele>
        <time>2015-08-05T11:51:04Z</time>
        <speed>3.170000</speed>
      </trkpt>
      <trkpt lat="46.042726797" lon="7.205474063">
        <ele>2084.600000</ele>
        <time>2015-08-05T11:51:05Z</time>
        <speed>2.850000</speed>
      </trkpt>
      <trkpt lat="46.042715817" lon="7.205485463">
        <ele>2084.000000</ele>
        <time>2015-08-05T11:51:06Z</time>
        <speed>2.510000</speed>
      </trkpt>
      <trkpt lat="46.042696119" lon="7.205492755">
        <ele>2083.400000</ele>
        <time>2015-08-05T11:51:07Z</time>
        <speed>2.104000</speed>
      </trkpt>
      <trkpt lat="46.042669297" lon="7.205493006">
        <ele>2083.000000</ele>
        <time>2015-08-05T11:51:08Z</time>
        <speed>1.585000</speed>
      </trkpt>
      <trkpt lat="46.042640212" lon="7.205525361">
        <ele>2082.400000</ele>
        <time>2015-08-05T11:51:09Z</time>
        <speed>2.366000</speed>
      </trkpt>
      <trkpt lat="46.042622945" lon="7.205560229">
        <ele>2081.800000</ele>
        <time>2015-08-05T11:51:10Z</time>
        <speed>3.066000</speed>
      </trkpt>
      <trkpt lat="46.042612971" lon="7.205596774">
        <ele>2081.200000</ele>
        <time>2015-08-05T11:51:11Z</time>
        <speed>3.650000</speed>
      </trkpt>
      <trkpt lat="46.042618000" lon="7.205631224">
        <ele>2080.000000</ele>
        <time>2015-08-05T11:51:12Z</time>
        <speed>2.985000</speed>
      </trkpt>
      <trkpt lat="46.042613977" lon="7.205670535">
        <ele>2079.200000</ele>
        <time>2015-08-05T11:51:13Z</time>
        <speed>2.928000</speed>
      </trkpt>
      <trkpt lat="46.042597464" lon="7.205695346">
        <ele>2078.600000</ele>
        <time>2015-08-05T11:51:14Z</time>
        <speed>3.040000</speed>
      </trkpt>
      <trkpt lat="46.042571564" lon="7.205737088">
        <ele>2077.800000</ele>
        <time>2015-08-05T11:51:15Z</time>
        <speed>2.525000</speed>
      </trkpt>
      <trkpt lat="46.042548346" lon="7.205762066">
        <ele>2077.200000</ele>
        <time>2015-08-05T11:51:16Z</time>
        <speed>2.981000</speed>
      </trkpt>
      <trkpt lat="46.042534851" lon="7.205784781">
        <ele>2076.600000</ele>
        <time>2015-08-05T11:51:17Z</time>
        <speed>3.619000</speed>
      </trkpt>
      <trkpt lat="46.042510879" lon="7.205793079">
        <ele>2075.800000</ele>
        <time>2015-08-05T11:51:18Z</time>
        <speed>3.180000</speed>
      </trkpt>
      <trkpt lat="46.042476765" lon="7.205798359">
        <ele>2075.200000</ele>
        <time>2015-08-05T11:51:19Z</time>
        <speed>2.525000</speed>
      </trkpt>
      <trkpt lat="46.042448183" lon="7.205796515">
        <ele>2074.600000</ele>
        <time>2015-08-05T11:51:20Z</time>
        <speed>3.124000</speed>
      </trkpt>
      <trkpt lat="46.042420019" lon="7.205810178">
        <ele>2074.200000</ele>
        <time>2015-08-05T11:51:21Z</time>
        <speed>3.242000</speed>
      </trkpt>
      <trkpt lat="46.042387330" lon="7.205827528">
        <ele>2073.600000</ele>
        <time>2015-08-05T11:51:22Z</time>
        <speed>3.317000</speed>
      </trkpt>
      <trkpt lat="46.042355646" lon="7.205841442">
        <ele>2073.000000</ele>
        <time>2015-08-05T11:51:23Z</time>
        <speed>3.218000</speed>
      </trkpt>
      <trkpt lat="46.042325052" lon="7.205857116">
        <ele>2072.200000</ele>
        <time>2015-08-05T11:51:24Z</time>
        <speed>3.513000</speed>
      </trkpt>
      <trkpt lat="46.042291357" lon="7.205864492">
        <ele>2071.400000</ele>
        <time>2015-08-05T11:51:25Z</time>
        <speed>3.513000</speed>
      </trkpt>
      <trkpt lat="46.042251459" lon="7.205887962">
        <ele>2070.600000</ele>
        <time>2015-08-05T11:51:26Z</time>
        <speed>3.194000</speed>
      </trkpt>
      <trkpt lat="46.042206197" lon="7.205922747">
        <ele>2069.800000</ele>
        <time>2015-08-05T11:51:27Z</time>
        <speed>4.717000</speed>
      </trkpt>
      <trkpt lat="46.042162108" lon="7.205948898">
        <ele>2069.000000</ele>
        <time>2015-08-05T11:51:28Z</time>
        <speed>5.153000</speed>
      </trkpt>
      <trkpt lat="46.042120031" lon="7.205970775">
        <ele>2068.400000</ele>
        <time>2015-08-05T11:51:29Z</time>
        <speed>6.369000</speed>
      </trkpt>
      <trkpt lat="46.042077786" lon="7.205995502">
        <ele>2067.600000</ele>
        <time>2015-08-05T11:51:30Z</time>
        <speed>5.172000</speed>
      </trkpt>
      <trkpt lat="46.042026238" lon="7.206022324">
        <ele>2066.800000</ele>
        <time>2015-08-05T11:51:31Z</time>
        <speed>5.098000</speed>
      </trkpt>
      <trkpt lat="46.041976868" lon="7.206046212">
        <ele>2066.200000</ele>
        <time>2015-08-05T11:51:32Z</time>
        <speed>5.575000</speed>
      </trkpt>
      <trkpt lat="46.041935294" lon="7.206054091">
        <ele>2065.400000</ele>
        <time>2015-08-05T11:51:33Z</time>
        <speed>6.426000</speed>
      </trkpt>
      <trkpt lat="46.041901347" lon="7.206097593">
        <ele>2065.400000</ele>
        <time>2015-08-05T11:51:34Z</time>
        <speed>5.352000</speed>
      </trkpt>
      <trkpt lat="46.041822390" lon="7.206161128">
        <ele>2065.000000</ele>
        <time>2015-08-05T11:51:37Z</time>
        <speed>3.142000</speed>
      </trkpt>
      <trkpt lat="46.041774278" lon="7.206200691">
        <ele>2064.400000</ele>
        <time>2015-08-05T11:51:38Z</time>
        <speed>3.223000</speed>
      </trkpt>
      <trkpt lat="46.041737397" lon="7.206223322">
        <ele>2064.000000</ele>
        <time>2015-08-05T11:51:39Z</time>
        <speed>3.619000</speed>
      </trkpt>
      <trkpt lat="46.041696577" lon="7.206250144">
        <ele>2063.600000</ele>
        <time>2015-08-05T11:51:40Z</time>
        <speed>5.184000</speed>
      </trkpt>
      <trkpt lat="46.041672186" lon="7.206297250">
        <ele>2063.000000</ele>
        <time>2015-08-05T11:51:41Z</time>
        <speed>4.980000</speed>
      </trkpt>
      <trkpt lat="46.041639748" lon="7.206327593">
        <ele>2062.600000</ele>
        <time>2015-08-05T11:51:42Z</time>
        <speed>5.663000</speed>
      </trkpt>
      <trkpt lat="46.041613094" lon="7.206354582">
        <ele>2062.000000</ele>
        <time>2015-08-05T11:51:43Z</time>
        <speed>4.284000</speed>
      </trkpt>
      <trkpt lat="46.041573112" lon="7.206382662">
        <ele>2061.400000</ele>
        <time>2015-08-05T11:51:44Z</time>
        <speed>4.242000</speed>
      </trkpt>
      <trkpt lat="46.041519216" lon="7.206421805">
        <ele>2061.000000</ele>
        <time>2015-08-05T11:51:45Z</time>
        <speed>3.881000</speed>
      </trkpt>
      <trkpt lat="46.041453251" lon="7.206447705">
        <ele>2060.400000</ele>
        <time>2015-08-05T11:51:46Z</time>
        <speed>5.832000</speed>
      </trkpt>
      <trkpt lat="46.041382005" lon="7.206454495">
        <ele>2059.600000</ele>
        <time>2015-08-05T11:51:47Z</time>
        <speed>6.728000</speed>
      </trkpt>
      <trkpt lat="46.041334144" lon="7.206449130">
        <ele>2058.800000</ele>
        <time>2015-08-05T11:51:48Z</time>
        <speed>8.255000</speed>
      </trkpt>
      <trkpt lat="46.041292570" lon="7.206476204">
        <ele>2058.000000</ele>
        <time>2015-08-05T11:51:49Z</time>
        <speed>7.131000</speed>
      </trkpt>
      <trkpt lat="46.041243200" lon="7.206493387">
        <ele>2057.000000</ele>
        <time>2015-08-05T11:51:50Z</time>
        <speed>4.728000</speed>
      </trkpt>
      <trkpt lat="46.041202548" lon="7.206493470">
        <ele>2056.200000</ele>
        <time>2015-08-05T11:51:51Z</time>
        <speed>5.832000</speed>
      </trkpt>
      <trkpt lat="46.041120070" lon="7.206527669">
        <ele>2056.200000</ele>
        <time>2015-08-05T11:51:53Z</time>
        <speed>5.235000</speed>
      </trkpt>
      <trkpt lat="46.041083693" lon="7.206513000">
        <ele>2056.200000</ele>
        <time>2015-08-05T11:51:54Z</time>
        <speed>4.923000</speed>
      </trkpt>
      <trkpt lat="46.041014039" lon="7.206520125">
        <ele>2056.200000</ele>
        <time>2015-08-05T11:51:56Z</time>
        <speed>3.975000</speed>
      </trkpt>
      <trkpt lat="46.040938015" lon="7.206492884">
        <ele>2056.200000</ele>
        <time>2015-08-05T11:51:59Z</time>
        <speed>3.287000</speed>
      </trkpt>
      <trkpt lat="46.040914713" lon="7.206485256">
        <ele>2056.200000</ele>
        <time>2015-08-05T11:52:00Z</time>
        <speed>3.184000</speed>
      </trkpt>
      <trkpt lat="46.040843635" lon="7.206531524">
        <ele>2056.200000</ele>
        <time>2015-08-05T11:52:03Z</time>
        <speed>2.670000</speed>
      </trkpt>
      <trkpt lat="46.040818405" lon="7.206536721">
        <ele>2056.200000</ele>
        <time>2015-08-05T11:52:04Z</time>
        <speed>2.670000</speed>
      </trkpt>
      <trkpt lat="46.040716984" lon="7.206595478">
        <ele>2055.800000</ele>
        <time>2015-08-05T11:52:08Z</time>
        <speed>2.700000</speed>
      </trkpt>
      <trkpt lat="46.040677003" lon="7.206599082">
        <ele>2055.400000</ele>
        <time>2015-08-05T11:52:09Z</time>
        <speed>3.057000</speed>
      </trkpt>
      <trkpt lat="46.040655042" lon="7.206605034">
        <ele>2055.000000</ele>
        <time>2015-08-05T11:52:10Z</time>
        <speed>4.481000</speed>
      </trkpt>
      <trkpt lat="46.040642804" lon="7.206619702">
        <ele>2054.600000</ele>
        <time>2015-08-05T11:52:11Z</time>
        <speed>4.217000</speed>
      </trkpt>
      <trkpt lat="46.040630818" lon="7.206637891">
        <ele>2054.200000</ele>
        <time>2015-08-05T11:52:12Z</time>
        <speed>3.161000</speed>
      </trkpt>
      <trkpt lat="46.040615731" lon="7.206659851">
        <ele>2054.200000</ele>
        <time>2015-08-05T11:52:13Z</time>
        <speed>2.190000</speed>
      </trkpt>
      <trkpt lat="46.040596704" lon="7.206688936">
        <ele>2053.800000</ele>
        <time>2015-08-05T11:52:14Z</time>
        <speed>2.382000</speed>
      </trkpt>
      <trkpt lat="46.040571307" lon="7.206716261">
        <ele>2053.400000</ele>
        <time>2015-08-05T11:52:15Z</time>
        <speed>2.666000</speed>
      </trkpt>
      <trkpt lat="46.040539372" lon="7.206732019">
        <ele>2052.800000</ele>
        <time>2015-08-05T11:52:16Z</time>
        <speed>2.717000</speed>
      </trkpt>
      <trkpt lat="46.040519004" lon="7.206759931">
        <ele>2052.400000</ele>
        <time>2015-08-05T11:52:17Z</time>
        <speed>3.467000</speed>
      </trkpt>
      <trkpt lat="46.040485644" lon="7.206783065">
        <ele>2051.800000</ele>
        <time>2015-08-05T11:52:18Z</time>
        <speed>2.940000</speed>
      </trkpt>
      <trkpt lat="46.040444153" lon="7.206787927">
        <ele>2051.400000</ele>
        <time>2015-08-05T11:52:19Z</time>
        <speed>3.595000</speed>
      </trkpt>
      <trkpt lat="46.040403250" lon="7.206785831">
        <ele>2050.800000</ele>
        <time>2015-08-05T11:52:20Z</time>
        <speed>4.225000</speed>
      </trkpt>
      <trkpt lat="46.040368465" lon="7.206777785">
        <ele>2050.200000</ele>
        <time>2015-08-05T11:52:21Z</time>
        <speed>4.576000</speed>
      </trkpt>
      <trkpt lat="46.040338458" lon="7.206775270">
        <ele>2049.800000</ele>
        <time>2015-08-05T11:52:22Z</time>
        <speed>4.462000</speed>
      </trkpt>
      <trkpt lat="46.040236869" lon="7.206791028">
        <ele>2049.800000</ele>
        <time>2015-08-05T11:52:26Z</time>
        <speed>3.354000</speed>
      </trkpt>
      <trkpt lat="46.040160761" lon="7.206844672">
        <ele>2049.800000</ele>
        <time>2015-08-05T11:52:31Z</time>
        <speed>1.875000</speed>
      </trkpt>
      <trkpt lat="46.040165371" lon="7.206845846">
        <ele>2049.800000</ele>
        <time>2015-08-05T11:52:33Z</time>
        <speed>1.875000</speed>
      </trkpt>
      <trkpt lat="46.040164030" lon="7.206844840">
        <ele>2049.800000</ele>
        <time>2015-08-05T11:52:35Z</time>
        <speed>0.000000</speed>
      </trkpt>
      <trkpt lat="46.040164114" lon="7.206848863">
        <ele>2049.800000</ele>
        <time>2015-08-05T11:52:39Z</time>
        <speed>0.000000</speed>
      </trkpt>
      <trkpt lat="46.040156738" lon="7.206857161">
        <ele>2049.800000</ele>
        <time>2015-08-05T11:52:41Z</time>
        <speed>0.000000</speed>
      </trkpt>
      <trkpt lat="46.040143327" lon="7.206870740">
        <ele>2049.200000</ele>
        <time>2015-08-05T11:52:43Z</time>
        <speed>0.000000</speed>
      </trkpt>
      <trkpt lat="46.040129581" lon="7.206881804">
        <ele>2048.800000</ele>
        <time>2015-08-05T11:52:44Z</time>
        <speed>0.812000</speed>
      </trkpt>
      <trkpt lat="46.040112733" lon="7.206887504">
        <ele>2048.400000</ele>
        <time>2015-08-05T11:52:45Z</time>
        <speed>0.812000</speed>
      </trkpt>
      <trkpt lat="46.040103094" lon="7.206886330">
        <ele>2048.000000</ele>
        <time>2015-08-05T11:52:46Z</time>
        <speed>0.812000</speed>
      </trkpt>
      <trkpt lat="46.040083899" lon="7.206883061">
        <ele>2047.400000</ele>
        <time>2015-08-05T11:52:47Z</time>
        <speed>0.820000</speed>
      </trkpt>
      <trkpt lat="46.040048108" lon="7.206888593">
        <ele>2047.400000</ele>
        <time>2015-08-05T11:52:50Z</time>
        <speed>0.000000</speed>
      </trkpt>
      <trkpt lat="46.039955572" lon="7.206898484">
        <ele>2047.400000</ele>
        <time>2015-08-05T11:52:54Z</time>
        <speed>1.906000</speed>
      </trkpt>
      <trkpt lat="46.039829425" lon="7.206922037">
        <ele>2047.400000</ele>
        <time>2015-08-05T11:52:59Z</time>
        <speed>3.156000</speed>
      </trkpt>
      <trkpt lat="46.039728087" lon="7.207015328">
        <ele>2047.400000</ele>
        <time>2015-08-05T11:53:03Z</time>
        <speed>3.401000</speed>
      </trkpt>
      <trkpt lat="46.039637898" lon="7.207120102">
        <ele>2047.400000</ele>
        <time>2015-08-05T11:53:08Z</time>
        <speed>2.247000</speed>
      </trkpt>
      <trkpt lat="46.039506302" lon="7.207176428">
        <ele>2047.400000</ele>
        <time>2015-08-05T11:53:13Z</time>
        <speed>3.440000</speed>
      </trkpt>
      <trkpt lat="46.039435559" lon="7.207281788">
        <ele>2047.400000</ele>
        <time>2015-08-05T11:53:18Z</time>
        <speed>2.330000</speed>
      </trkpt>
      <trkpt lat="46.039414017" lon="7.207287907">
        <ele>2047.400000</ele>
        <time>2015-08-05T11:53:19Z</time>
        <speed>2.752000</speed>
      </trkpt>
      <trkpt lat="46.039351405" lon="7.207357645">
        <ele>2047.400000</ele>
        <time>2015-08-05T11:53:22Z</time>
        <speed>2.513000</speed>
      </trkpt>
      <trkpt lat="46.039338245" lon="7.207453198">
        <ele>2047.400000</ele>
        <time>2015-08-05T11:53:24Z</time>
        <speed>3.881000</speed>
      </trkpt>
      <trkpt lat="46.039333384" lon="7.207500137">
        <ele>2047.400000</ele>
        <time>2015-08-05T11:53:25Z</time>
        <speed>4.088000</speed>
      </trkpt>
      <trkpt lat="46.039263059" lon="7.207684623">
        <ele>2047.000000</ele>
        <time>2015-08-05T11:53:29Z</time>
        <speed>3.982000</speed>
      </trkpt>
      <trkpt lat="46.039253839" lon="7.207743296">
        <ele>2046.600000</ele>
        <time>2015-08-05T11:53:30Z</time>
        <speed>4.327000</speed>
      </trkpt>
      <trkpt lat="46.039236489" lon="7.207793336">
        <ele>2046.200000</ele>
        <time>2015-08-05T11:53:31Z</time>
        <speed>4.490000</speed>
      </trkpt>
      <trkpt lat="46.039207655" lon="7.207815967">
        <ele>2045.800000</ele>
        <time>2015-08-05T11:53:32Z</time>
        <speed>4.490000</speed>
      </trkpt>
      <trkpt lat="46.039178654" lon="7.207839269">
        <ele>2045.400000</ele>
        <time>2015-08-05T11:53:33Z</time>
        <speed>4.160000</speed>
      </trkpt>
      <trkpt lat="46.039145294" lon="7.207860643">
        <ele>2045.400000</ele>
        <time>2015-08-05T11:53:34Z</time>
        <speed>3.819000</speed>
      </trkpt>
      <trkpt lat="46.039039346" lon="7.207848908">
        <ele>2045.400000</ele>
        <time>2015-08-05T11:53:37Z</time>
        <speed>4.242000</speed>
      </trkpt>
      <trkpt lat="46.039015961" lon="7.207840945">
        <ele>2045.400000</ele>
        <time>2015-08-05T11:53:38Z</time>
        <speed>4.310000</speed>
      </trkpt>
      <trkpt lat="46.038962820" lon="7.207861732">
        <ele>2045.400000</ele>
        <time>2015-08-05T11:53:40Z</time>
        <speed>3.002000</speed>
      </trkpt>
      <trkpt lat="46.038914791" lon="7.207886375">
        <ele>2045.400000</ele>
        <time>2015-08-05T11:53:42Z</time>
        <speed>3.418000</speed>
      </trkpt>
      <trkpt lat="46.038791410" lon="7.207970446">
        <ele>2045.400000</ele>
        <time>2015-08-05T11:53:47Z</time>
        <speed>2.755000</speed>
      </trkpt>
      <trkpt lat="46.038670626" lon="7.207999615">
        <ele>2045.400000</ele>
        <time>2015-08-05T11:53:51Z</time>
        <speed>3.542000</speed>
      </trkpt>
      <trkpt lat="46.038568703" lon="7.208072370">
        <ele>2045.400000</ele>
        <time>2015-08-05T11:53:55Z</time>
        <speed>3.307000</speed>
      </trkpt>
      <trkpt lat="46.038492176" lon="7.208149818">
        <ele>2045.400000</ele>
        <time>2015-08-05T11:53:58Z</time>
        <speed>3.456000</speed>
      </trkpt>
      <trkpt lat="46.038437358" lon="7.208197008">
        <ele>2045.400000</ele>
        <time>2015-08-05T11:54:00Z</time>
        <speed>3.826000</speed>
      </trkpt>
      <trkpt lat="46.038322275" lon="7.208202624">
        <ele>2045.400000</ele>
        <time>2015-08-05T11:54:04Z</time>
        <speed>3.785000</speed>
      </trkpt>
      <trkpt lat="46.038179866" lon="7.208177646">
        <ele>2045.400000</ele>
        <time>2015-08-05T11:54:09Z</time>
        <speed>3.507000</speed>
      </trkpt>
      <trkpt lat="46.038025555" lon="7.208117967">
        <ele>2045.400000</ele>
        <time>2015-08-05T11:54:15Z</time>
        <speed>3.391000</speed>
      </trkpt>
      <trkpt lat="46.037996889" lon="7.208127606">
        <ele>2045.400000</ele>
        <time>2015-08-05T11:54:16Z</time>
        <speed>2.908000</speed>
      </trkpt>
      <trkpt lat="46.037861521" lon="7.208166750">
        <ele>2045.400000</ele>
        <time>2015-08-05T11:54:21Z</time>
        <speed>3.199000</speed>
      </trkpt>
      <trkpt lat="46.037765046" lon="7.208251072">
        <ele>2045.400000</ele>
        <time>2015-08-05T11:54:25Z</time>
        <speed>2.138000</speed>
      </trkpt>
      <trkpt lat="46.037706372" lon="7.208259118">
        <ele>2045.400000</ele>
        <time>2015-08-05T11:54:28Z</time>
        <speed>2.787000</speed>
      </trkpt>
      <trkpt lat="46.037687262" lon="7.208253251">
        <ele>2045.400000</ele>
        <time>2015-08-05T11:54:29Z</time>
        <speed>2.208000</speed>
      </trkpt>
      <trkpt lat="46.037584080" lon="7.208302118">
        <ele>2045.400000</ele>
        <time>2015-08-05T11:54:34Z</time>
        <speed>2.570000</speed>
      </trkpt>
      <trkpt lat="46.037489952" lon="7.208275212">
        <ele>2045.400000</ele>
        <time>2015-08-05T11:54:38Z</time>
        <speed>2.516000</speed>
      </trkpt>
      <trkpt lat="46.037465393" lon="7.208264902">
        <ele>2045.400000</ele>
        <time>2015-08-05T11:54:39Z</time>
        <speed>2.707000</speed>
      </trkpt>
      <trkpt lat="46.037344693" lon="7.208263393">
        <ele>2045.400000</ele>
        <time>2015-08-05T11:54:44Z</time>
        <speed>3.120000</speed>
      </trkpt>
      <trkpt lat="46.037305214" lon="7.208263728">
        <ele>2045.800000</ele>
        <time>2015-08-05T11:54:46Z</time>
        <speed>2.531000</speed>
      </trkpt>
      <trkpt lat="46.037287445" lon="7.208261884">
        <ele>2046.200000</ele>
        <time>2015-08-05T11:54:47Z</time>
        <speed>2.531000</speed>
      </trkpt>
      <trkpt lat="46.037273950" lon="7.208256688">
        <ele>2046.800000</ele>
        <time>2015-08-05T11:54:48Z</time>
        <speed>2.531000</speed>
      </trkpt>
      <trkpt lat="46.037254420" lon="7.208247048">
        <ele>2047.200000</ele>
        <time>2015-08-05T11:54:49Z</time>
        <speed>2.252000</speed>
      </trkpt>
      <trkpt lat="46.037227430" lon="7.208245959">
        <ele>2047.600000</ele>
        <time>2015-08-05T11:54:50Z</time>
        <speed>1.911000</speed>
      </trkpt>
      <trkpt lat="46.037198010" lon="7.208246629">
        <ele>2047.600000</ele>
        <time>2015-08-05T11:54:51Z</time>
        <speed>2.439000</speed>
      </trkpt>
      <trkpt lat="46.037180324" lon="7.208249479">
        <ele>2047.600000</ele>
        <time>2015-08-05T11:54:55Z</time>
        <speed>0.000000</speed>
      </trkpt>
      <trkpt lat="46.037142522" lon="7.208263477">
        <ele>2047.600000</ele>
        <time>2015-08-05T11:55:00Z</time>
        <speed>0.000000</speed>
      </trkpt>
      <trkpt lat="46.036986954" lon="7.208274373">
        <ele>2047.600000</ele>
        <time>2015-08-05T11:55:06Z</time>
        <speed>1.948000</speed>
      </trkpt>
      <trkpt lat="46.036855358" lon="7.208322486">
        <ele>2047.600000</ele>
        <time>2015-08-05T11:55:11Z</time>
        <speed>3.307000</speed>
      </trkpt>
      <trkpt lat="46.036827949" lon="7.208306728">
        <ele>2047.600000</ele>
        <time>2015-08-05T11:55:12Z</time>
        <speed>2.683000</speed>
      </trkpt>
      <trkpt lat="46.036756787" lon="7.208311757">
        <ele>2047.600000</ele>
        <time>2015-08-05T11:55:15Z</time>
        <speed>2.637000</speed>
      </trkpt>
      <trkpt lat="46.036729713" lon="7.208309913">
        <ele>2048.000000</ele>
        <time>2015-08-05T11:55:16Z</time>
        <speed>2.670000</speed>
      </trkpt>
      <trkpt lat="46.036708591" lon="7.208309158">
        <ele>2048.400000</ele>
        <time>2015-08-05T11:55:17Z</time>
        <speed>2.956000</speed>
      </trkpt>
      <trkpt lat="46.036689480" lon="7.208312343">
        <ele>2048.800000</ele>
        <time>2015-08-05T11:55:18Z</time>
        <speed>3.237000</speed>
      </trkpt>
      <trkpt lat="46.036666178" lon="7.208315277">
        <ele>2049.600000</ele>
        <time>2015-08-05T11:55:19Z</time>
        <speed>3.237000</speed>
      </trkpt>
      <trkpt lat="46.036567691" lon="7.208327431">
        <ele>2049.600000</ele>
        <time>2015-08-05T11:55:24Z</time>
        <speed>1.689000</speed>
      </trkpt>
      <trkpt lat="46.036563248" lon="7.208331035">
        <ele>2049.600000</ele>
        <time>2015-08-05T11:55:25Z</time>
        <speed>1.689000</speed>
      </trkpt>
      <trkpt lat="46.036561656" lon="7.208330532">
        <ele>2049.600000</ele>
        <time>2015-08-05T11:55:28Z</time>
        <speed>2.333000</speed>
      </trkpt>
      <trkpt lat="46.036531481" lon="7.208325922">
        <ele>2049.600000</ele>
        <time>2015-08-05T11:55:32Z</time>
        <speed>0.000000</speed>
      </trkpt>
      <trkpt lat="46.036485632" lon="7.208325335">
        <ele>2049.600000</ele>
        <time>2015-08-05T11:55:38Z</time>
        <speed>1.102000</speed>
      </trkpt>
      <trkpt lat="46.036452523" lon="7.208319971">
        <ele>2049.600000</ele>
        <time>2015-08-05T11:55:43Z</time>
        <speed>0.000000</speed>
      </trkpt>
      <trkpt lat="46.036321347" lon="7.208358025">
        <ele>2049.600000</ele>
        <time>2015-08-05T11:55:48Z</time>
        <speed>2.406000</speed>
      </trkpt>
      <trkpt lat="46.036242473" lon="7.208394905">
        <ele>2050.000000</ele>
        <time>2015-08-05T11:55:53Z</time>
        <speed>1.838000</speed>
      </trkpt>
      <trkpt lat="46.036229146" lon="7.208396749">
        <ele>2050.400000</ele>
        <time>2015-08-05T11:55:54Z</time>
        <speed>1.804000</speed>
      </trkpt>
      <trkpt lat="46.036215483" lon="7.208399431">
        <ele>2050.800000</ele>
        <time>2015-08-05T11:55:55Z</time>
        <speed>2.046000</speed>
      </trkpt>
      <trkpt lat="46.036204168" lon="7.208401946">
        <ele>2051.200000</ele>
        <time>2015-08-05T11:55:56Z</time>
        <speed>1.578000</speed>
      </trkpt>
      <trkpt lat="46.036201569" lon="7.208400186">
        <ele>2051.600000</ele>
        <time>2015-08-05T11:55:57Z</time>
        <speed>1.302000</speed>
      </trkpt>
      <trkpt lat="46.036204503" lon="7.208400940">
        <ele>2051.600000</ele>
        <time>2015-08-05T11:55:59Z</time>
        <speed>1.302000</speed>
      </trkpt>
      <trkpt lat="46.036184470" lon="7.208413764">
        <ele>2051.600000</ele>
        <time>2015-08-05T11:56:06Z</time>
        <speed>0.000000</speed>
      </trkpt>
      <trkpt lat="46.036132083" lon="7.208418291">
        <ele>2051.600000</ele>
        <time>2015-08-05T11:56:09Z</time>
        <speed>2.115000</speed>
      </trkpt>
      <trkpt lat="46.036084474" lon="7.208442095">
        <ele>2051.600000</ele>
        <time>2015-08-05T11:56:12Z</time>
        <speed>1.814000</speed>
      </trkpt>
      <trkpt lat="46.036073913" lon="7.208458691">
        <ele>2051.600000</ele>
        <time>2015-08-05T11:56:13Z</time>
        <speed>1.997000</speed>
      </trkpt>
      <trkpt lat="46.036068548" lon="7.208476629">
        <ele>2051.600000</ele>
        <time>2015-08-05T11:56:14Z</time>
        <speed>2.291000</speed>
      </trkpt>
      <trkpt lat="46.036055305" lon="7.208541924">
        <ele>2051.600000</ele>
        <time>2015-08-05T11:56:17Z</time>
        <speed>1.677000</speed>
      </trkpt>
      <trkpt lat="46.036016497" lon="7.208610823">
        <ele>2051.600000</ele>
        <time>2015-08-05T11:56:21Z</time>
        <speed>3.147000</speed>
      </trkpt>
      <trkpt lat="46.035907700" lon="7.208719369">
        <ele>2051.600000</ele>
        <time>2015-08-05T11:56:28Z</time>
        <speed>2.617000</speed>
      </trkpt>
      <trkpt lat="46.035819438" lon="7.208779132">
        <ele>2051.600000</ele>
        <time>2015-08-05T11:56:33Z</time>
        <speed>2.598000</speed>
      </trkpt>
      <trkpt lat="46.035773841" lon="7.208803607">
        <ele>2051.600000</ele>
        <time>2015-08-05T11:56:35Z</time>
        <speed>1.932000</speed>
      </trkpt>
      <trkpt lat="46.035760681" lon="7.208798578">
        <ele>2051.600000</ele>
        <time>2015-08-05T11:56:36Z</time>
        <speed>1.932000</speed>
      </trkpt>
      <trkpt lat="46.035758250" lon="7.208796315">
        <ele>2051.600000</ele>
        <time>2015-08-05T11:56:38Z</time>
        <speed>2.798000</speed>
      </trkpt>
      <trkpt lat="46.035758083" lon="7.208796315">
        <ele>2052.000000</ele>
        <time>2015-08-05T11:56:39Z</time>
        <speed>2.798000</speed>
      </trkpt>
      <trkpt lat="46.035750958" lon="7.208797237">
        <ele>2052.400000</ele>
        <time>2015-08-05T11:56:40Z</time>
        <speed>0.000000</speed>
      </trkpt>
      <trkpt lat="46.035740732" lon="7.208799164">
        <ele>2052.800000</ele>
        <time>2015-08-05T11:56:41Z</time>
        <speed>0.000000</speed>
      </trkpt>
      <trkpt lat="46.035730422" lon="7.208802433">
        <ele>2053.200000</ele>
        <time>2015-08-05T11:56:42Z</time>
        <speed>0.000000</speed>
      </trkpt>
      <trkpt lat="46.035718772" lon="7.208804445">
        <ele>2053.600000</ele>
        <time>2015-08-05T11:56:43Z</time>
        <speed>0.912000</speed>
      </trkpt>
      <trkpt lat="46.035673258" lon="7.208801344">
        <ele>2053.600000</ele>
        <time>2015-08-05T11:56:47Z</time>
        <speed>1.234000</speed>
      </trkpt>
      <trkpt lat="46.035630929" lon="7.208813246">
        <ele>2053.600000</ele>
        <time>2015-08-05T11:56:54Z</time>
        <speed>0.792000</speed>
      </trkpt>
      <trkpt lat="46.035612405" lon="7.208795057">
        <ele>2054.200000</ele>
        <time>2015-08-05T11:56:57Z</time>
        <speed>0.000000</speed>
      </trkpt>
      <trkpt lat="46.035607292" lon="7.208790782">
        <ele>2055.000000</ele>
        <time>2015-08-05T11:56:58Z</time>
        <speed>0.000000</speed>
      </trkpt>
      <trkpt lat="46.035602263" lon="7.208788603">
        <ele>2055.400000</ele>
        <time>2015-08-05T11:56:59Z</time>
        <speed>0.000000</speed>
      </trkpt>
      <trkpt lat="46.035597486" lon="7.208786005">
        <ele>2055.800000</ele>
        <time>2015-08-05T11:57:00Z</time>
        <speed>0.635000</speed>
      </trkpt>
      <trkpt lat="46.035580219" lon="7.208792207">
        <ele>2055.800000</ele>
        <time>2015-08-05T11:57:03Z</time>
        <speed>0.000000</speed>
      </trkpt>
      <trkpt lat="46.035572424" lon="7.208798745">
        <ele>2055.800000</ele>
        <time>2015-08-05T11:57:05Z</time>
        <speed>0.000000</speed>
      </trkpt>
      <trkpt lat="46.035557085" lon="7.208811570">
        <ele>2056.200000</ele>
        <time>2015-08-05T11:57:07Z</time>
        <speed>0.759000</speed>
      </trkpt>
      <trkpt lat="46.035549457" lon="7.208814336">
        <ele>2056.600000</ele>
        <time>2015-08-05T11:57:08Z</time>
        <speed>0.759000</speed>
      </trkpt>
      <trkpt lat="46.035543590" lon="7.208815677">
        <ele>2057.000000</ele>
        <time>2015-08-05T11:57:09Z</time>
        <speed>0.759000</speed>
      </trkpt>
      <trkpt lat="46.035536968" lon="7.208813581">
        <ele>2057.400000</ele>
        <time>2015-08-05T11:57:10Z</time>
        <speed>0.000000</speed>
      </trkpt>
      <trkpt lat="46.035529005" lon="7.208812827">
        <ele>2057.800000</ele>
        <time>2015-08-05T11:57:11Z</time>
        <speed>0.000000</speed>
      </trkpt>
      <trkpt lat="46.035522216" lon="7.208814503">
        <ele>2057.800000</ele>
        <time>2015-08-05T11:57:12Z</time>
        <speed>0.869000</speed>
      </trkpt>
      <trkpt lat="46.035516349" lon="7.208815928">
        <ele>2057.800000</ele>
        <time>2015-08-05T11:57:19Z</time>
        <speed>0.000000</speed>
      </trkpt>
      <trkpt lat="46.035516349" lon="7.208815928">
        <ele>2057.800000</ele>
        <time>2015-08-05T11:57:31Z</time>
        <speed>0.000000</speed>
      </trkpt>
      <trkpt lat="46.035515091" lon="7.208813749">
        <ele>2058.400000</ele>
        <time>2015-08-05T11:57:32Z</time>
        <speed>0.000000</speed>
      </trkpt>
      <trkpt lat="46.035515091" lon="7.208813749">
        <ele>2058.800000</ele>
        <time>2015-08-05T11:57:33Z</time>
        <speed>0.000000</speed>
      </trkpt>
      <trkpt lat="46.035515091" lon="7.208813749">
        <ele>2059.200000</ele>
        <time>2015-08-05T11:57:34Z</time>
        <speed>0.000000</speed>
      </trkpt>
      <trkpt lat="46.035515091" lon="7.208813749">
        <ele>2059.600000</ele>
        <time>2015-08-05T11:57:35Z</time>
        <speed>0.000000</speed>
      </trkpt>
      <trkpt lat="46.035515008" lon="7.208813749">
        <ele>2060.000000</ele>
        <time>2015-08-05T11:57:36Z</time>
        <speed>7.758000</speed>
      </trkpt>
      <trkpt lat="46.035514672" lon="7.208813497">
        <ele>2060.000000</ele>
        <time>2015-08-05T11:57:37Z</time>
        <speed>7.758000</speed>
      </trkpt>
      <trkpt lat="46.035455664" lon="7.208812911">
        <ele>2060.000000</ele>
        <time>2015-08-05T11:57:42Z</time>
        <speed>1.315000</speed>
      </trkpt>
      <trkpt lat="46.035421298" lon="7.208824478">
        <ele>2060.000000</ele>
        <time>2015-08-05T11:57:46Z</time>
        <speed>0.000000</speed>
      </trkpt>
      <trkpt lat="46.035406294" lon="7.208847276">
        <ele>2060.000000</ele>
        <time>2015-08-05T11:57:48Z</time>
        <speed>1.089000</speed>
      </trkpt>
      <trkpt lat="46.035385759" lon="7.208866052">
        <ele>2060.000000</ele>
        <time>2015-08-05T11:57:50Z</time>
        <speed>1.232000</speed>
      </trkpt>
      <trkpt lat="46.035359020" lon="7.208897652">
        <ele>2060.000000</ele>
        <time>2015-08-05T11:57:53Z</time>
        <speed>1.371000</speed>
      </trkpt>
      <trkpt lat="46.035312752" lon="7.208971412">
        <ele>2060.000000</ele>
        <time>2015-08-05T11:57:59Z</time>
        <speed>1.364000</speed>
      </trkpt>
      <trkpt lat="46.035299090" lon="7.208986248">
        <ele>2060.000000</ele>
        <time>2015-08-05T11:58:01Z</time>
        <speed>1.172000</speed>
      </trkpt>
      <trkpt lat="46.035297413" lon="7.208985913">
        <ele>2060.600000</ele>
        <time>2015-08-05T11:58:02Z</time>
        <speed>1.172000</speed>
      </trkpt>
      <trkpt lat="46.035297413" lon="7.208985997">
        <ele>2061.000000</ele>
        <time>2015-08-05T11:58:03Z</time>
        <speed>0.949000</speed>
      </trkpt>
      <trkpt lat="46.035297413" lon="7.208985997">
        <ele>2061.400000</ele>
        <time>2015-08-05T11:58:04Z</time>
        <speed>1.781000</speed>
      </trkpt>
      <trkpt lat="46.035297330" lon="7.208985997">
        <ele>2061.800000</ele>
        <time>2015-08-05T11:58:05Z</time>
        <speed>1.781000</speed>
      </trkpt>
      <trkpt lat="46.035297413" lon="7.208985997">
        <ele>2062.200000</ele>
        <time>2015-08-05T11:58:06Z</time>
        <speed>0.000000</speed>
      </trkpt>
      <trkpt lat="46.035297413" lon="7.208985997">
        <ele>2062.200000</ele>
        <time>2015-08-05T11:58:07Z</time>
        <speed>0.000000</speed>
      </trkpt>
      <trkpt lat="46.035297413" lon="7.208985997">
        <ele>2062.200000</ele>
        <time>2015-08-05T11:58:18Z</time>
        <speed>0.000000</speed>
      </trkpt>
      <trkpt lat="46.035297413" lon="7.208985997">
        <ele>2062.200000</ele>
        <time>2015-08-05T11:58:23Z</time>
        <speed>0.000000</speed>
      </trkpt>
      <trkpt lat="46.035282577" lon="7.209018267">
        <ele>2062.200000</ele>
        <time>2015-08-05T11:58:25Z</time>
        <speed>1.084000</speed>
      </trkpt>
      <trkpt lat="46.035263802" lon="7.209050119">
        <ele>2062.200000</ele>
        <time>2015-08-05T11:58:27Z</time>
        <speed>5.461000</speed>
      </trkpt>
      <trkpt lat="46.035248547" lon="7.209085323">
        <ele>2062.200000</ele>
        <time>2015-08-05T11:58:29Z</time>
        <speed>0.000000</speed>
      </trkpt>
      <trkpt lat="46.035240333" lon="7.209104517">
        <ele>2062.200000</ele>
        <time>2015-08-05T11:58:30Z</time>
        <speed>1.500000</speed>
      </trkpt>
      <trkpt lat="46.035213511" lon="7.209148271">
        <ele>2062.600000</ele>
        <time>2015-08-05T11:58:33Z</time>
        <speed>1.578000</speed>
      </trkpt>
      <trkpt lat="46.035205212" lon="7.209161095">
        <ele>2063.000000</ele>
        <time>2015-08-05T11:58:34Z</time>
        <speed>1.578000</speed>
      </trkpt>
      <trkpt lat="46.035195741" lon="7.209173249">
        <ele>2063.400000</ele>
        <time>2015-08-05T11:58:35Z</time>
        <speed>1.531000</speed>
      </trkpt>
      <trkpt lat="46.035188616" lon="7.209187833">
        <ele>2063.800000</ele>
        <time>2015-08-05T11:58:36Z</time>
        <speed>1.531000</speed>
      </trkpt>
      <trkpt lat="46.035182162" lon="7.209204429">
        <ele>2064.200000</ele>
        <time>2015-08-05T11:58:37Z</time>
        <speed>1.470000</speed>
      </trkpt>
      <trkpt lat="46.035141845" lon="7.209290260">
        <ele>2064.200000</ele>
        <time>2015-08-05T11:58:42Z</time>
        <speed>1.571000</speed>
      </trkpt>
      <trkpt lat="46.035125081" lon="7.209322782">
        <ele>2064.600000</ele>
        <time>2015-08-05T11:58:44Z</time>
        <speed>1.614000</speed>
      </trkpt>
      <trkpt lat="46.035120220" lon="7.209338624">
        <ele>2065.000000</ele>
        <time>2015-08-05T11:58:45Z</time>
        <speed>1.540000</speed>
      </trkpt>
      <trkpt lat="46.035115275" lon="7.209353460">
        <ele>2065.400000</ele>
        <time>2015-08-05T11:58:46Z</time>
        <speed>1.592000</speed>
      </trkpt>
      <trkpt lat="46.035108569" lon="7.209367290">
        <ele>2065.800000</ele>
        <time>2015-08-05T11:58:47Z</time>
        <speed>1.478000</speed>
      </trkpt>
      <trkpt lat="46.035102450" lon="7.209383467">
        <ele>2066.200000</ele>
        <time>2015-08-05T11:58:48Z</time>
        <speed>1.478000</speed>
      </trkpt>
      <trkpt lat="46.035081328" lon="7.209455635">
        <ele>2066.200000</ele>
        <time>2015-08-05T11:58:52Z</time>
        <speed>1.536000</speed>
      </trkpt>
      <trkpt lat="46.035046962" lon="7.209509614">
        <ele>2066.600000</ele>
        <time>2015-08-05T11:58:56Z</time>
        <speed>1.470000</speed>
      </trkpt>
      <trkpt lat="46.035036569" lon="7.209522271">
        <ele>2067.000000</ele>
        <time>2015-08-05T11:58:57Z</time>
        <speed>1.503000</speed>
      </trkpt>
      <trkpt lat="46.035025840" lon="7.209531240">
        <ele>2067.600000</ele>
        <time>2015-08-05T11:58:58Z</time>
        <speed>1.558000</speed>
      </trkpt>
      <trkpt lat="46.035014859" lon="7.209540125">
        <ele>2068.000000</ele>
        <time>2015-08-05T11:58:59Z</time>
        <speed>1.558000</speed>
      </trkpt>
      <trkpt lat="46.035004801" lon="7.209548087">
        <ele>2068.400000</ele>
        <time>2015-08-05T11:59:00Z</time>
        <speed>1.580000</speed>
      </trkpt>
      <trkpt lat="46.034928274" lon="7.209573652">
        <ele>2068.400000</ele>
        <time>2015-08-05T11:59:06Z</time>
        <speed>1.483000</speed>
      </trkpt>
      <trkpt lat="46.034901620" lon="7.209571641">
        <ele>2068.800000</ele>
        <time>2015-08-05T11:59:08Z</time>
        <speed>1.578000</speed>
      </trkpt>
      <trkpt lat="46.034888963" lon="7.209571389">
        <ele>2069.200000</ele>
        <time>2015-08-05T11:59:09Z</time>
        <speed>1.601000</speed>
      </trkpt>
      <trkpt lat="46.034877983" lon="7.209565689">
        <ele>2069.600000</ele>
        <time>2015-08-05T11:59:10Z</time>
        <speed>1.571000</speed>
      </trkpt>
      <trkpt lat="46.034867589" lon="7.209557308">
        <ele>2070.000000</ele>
        <time>2015-08-05T11:59:11Z</time>
        <speed>1.571000</speed>
      </trkpt>
      <trkpt lat="46.034855268" lon="7.209550602">
        <ele>2070.400000</ele>
        <time>2015-08-05T11:59:12Z</time>
        <speed>1.523000</speed>
      </trkpt>
      <trkpt lat="46.034843282" lon="7.209546495">
        <ele>2070.400000</ele>
        <time>2015-08-05T11:59:13Z</time>
        <speed>1.507000</speed>
      </trkpt>
      <trkpt lat="46.034828949" lon="7.209542052">
        <ele>2070.400000</ele>
        <time>2015-08-05T11:59:14Z</time>
        <speed>1.527000</speed>
      </trkpt>
      <trkpt lat="46.034744711" lon="7.209473572">
        <ele>2070.400000</ele>
        <time>2015-08-05T11:59:21Z</time>
        <speed>1.550000</speed>
      </trkpt>
      <trkpt lat="46.034731803" lon="7.209464520">
        <ele>2070.800000</ele>
        <time>2015-08-05T11:59:22Z</time>
        <speed>1.550000</speed>
      </trkpt>
      <trkpt lat="46.034720655" lon="7.209456808">
        <ele>2071.200000</ele>
        <time>2015-08-05T11:59:23Z</time>
        <speed>1.572000</speed>
      </trkpt>
      <trkpt lat="46.034705316" lon="7.209454797">
        <ele>2071.600000</ele>
        <time>2015-08-05T11:59:24Z</time>
        <speed>1.578000</speed>
      </trkpt>
      <trkpt lat="46.034691150" lon="7.209449935">
        <ele>2072.400000</ele>
        <time>2015-08-05T11:59:25Z</time>
        <speed>1.583000</speed>
      </trkpt>
      <trkpt lat="46.034637171" lon="7.209427304">
        <ele>2072.400000</ele>
        <time>2015-08-05T11:59:29Z</time>
        <speed>1.628000</speed>
      </trkpt>
      <trkpt lat="46.034534744" lon="7.209408780">
        <ele>2072.400000</ele>
        <time>2015-08-05T11:59:37Z</time>
        <speed>1.499000</speed>
      </trkpt>
      <trkpt lat="46.034510436" lon="7.209403248">
        <ele>2072.800000</ele>
        <time>2015-08-05T11:59:39Z</time>
        <speed>1.488000</speed>
      </trkpt>
      <trkpt lat="46.034499289" lon="7.209402242">
        <ele>2073.200000</ele>
        <time>2015-08-05T11:59:40Z</time>
        <speed>1.535000</speed>
      </trkpt>
      <trkpt lat="46.034489146" lon="7.209399476">
        <ele>2073.600000</ele>
        <time>2015-08-05T11:59:41Z</time>
        <speed>1.535000</speed>
      </trkpt>
      <trkpt lat="46.034476406" lon="7.209396124">
        <ele>2074.000000</ele>
        <time>2015-08-05T11:59:42Z</time>
        <speed>1.498000</speed>
      </trkpt>
      <trkpt lat="46.034463749" lon="7.209397129">
        <ele>2074.400000</ele>
        <time>2015-08-05T11:59:43Z</time>
        <speed>1.527000</speed>
      </trkpt>
      <trkpt lat="46.034449835" lon="7.209398135">
        <ele>2074.400000</ele>
        <time>2015-08-05T11:59:44Z</time>
        <speed>1.523000</speed>
      </trkpt>
      <trkpt lat="46.034362747" lon="7.209372235">
        <ele>2075.000000</ele>
        <time>2015-08-05T11:59:51Z</time>
        <speed>1.537000</speed>
      </trkpt>
      <trkpt lat="46.034349839" lon="7.209371313">
        <ele>2075.400000</ele>
        <time>2015-08-05T11:59:52Z</time>
        <speed>1.550000</speed>
      </trkpt>
      <trkpt lat="46.034338859" lon="7.209373660">
        <ele>2075.800000</ele>
        <time>2015-08-05T11:59:53Z</time>
        <speed>1.550000</speed>
      </trkpt>
      <trkpt lat="46.034325699" lon="7.209374750">
        <ele>2076.200000</ele>
        <time>2015-08-05T11:59:54Z</time>
        <speed>1.523000</speed>
      </trkpt>
      <trkpt lat="46.034311869" lon="7.209373073">
        <ele>2076.600000</ele>
        <time>2015-08-05T11:59:55Z</time>
        <speed>1.481000</speed>
      </trkpt>
      <trkpt lat="46.034285131" lon="7.209364021">
        <ele>2076.600000</ele>
        <time>2015-08-05T11:59:57Z</time>
        <speed>1.530000</speed>
      </trkpt>
      <trkpt lat="46.034193601" lon="7.209327811">
        <ele>2076.600000</ele>
        <time>2015-08-05T12:00:04Z</time>
        <speed>1.536000</speed>
      </trkpt>
      <trkpt lat="46.034179100" lon="7.209324458">
        <ele>2077.000000</ele>
        <time>2015-08-05T12:00:05Z</time>
        <speed>1.593000</speed>
      </trkpt>
      <trkpt lat="46.034165018" lon="7.209322782">
        <ele>2077.400000</ele>
        <time>2015-08-05T12:00:06Z</time>
        <speed>1.552000</speed>
      </trkpt>
      <trkpt lat="46.034151356" lon="7.209316915">
        <ele>2077.800000</ele>
        <time>2015-08-05T12:00:07Z</time>
        <speed>1.640000</speed>
      </trkpt>
      <trkpt lat="46.034137442" lon="7.209308449">
        <ele>2078.200000</ele>
        <time>2015-08-05T12:00:08Z</time>
        <speed>1.640000</speed>
      </trkpt>
      <trkpt lat="46.034122606" lon="7.209301324">
        <ele>2078.600000</ele>
        <time>2015-08-05T12:00:09Z</time>
        <speed>1.599000</speed>
      </trkpt>
      <trkpt lat="46.034094275" lon="7.209293194">
        <ele>2078.600000</ele>
        <time>2015-08-05T12:00:11Z</time>
        <speed>1.642000</speed>
      </trkpt>
      <trkpt lat="46.033989082" lon="7.209266791">
        <ele>2079.000000</ele>
        <time>2015-08-05T12:00:19Z</time>
        <speed>1.534000</speed>
      </trkpt>
      <trkpt lat="46.033975001" lon="7.209262516">
        <ele>2079.400000</ele>
        <time>2015-08-05T12:00:20Z</time>
        <speed>1.534000</speed>
      </trkpt>
      <trkpt lat="46.033960835" lon="7.209259079">
        <ele>2080.000000</ele>
        <time>2015-08-05T12:00:21Z</time>
        <speed>1.495000</speed>
      </trkpt>
      <trkpt lat="46.033945329" lon="7.209258157">
        <ele>2080.400000</ele>
        <time>2015-08-05T12:00:22Z</time>
        <speed>1.627000</speed>
      </trkpt>
      <trkpt lat="46.033931918" lon="7.209256481">
        <ele>2080.800000</ele>
        <time>2015-08-05T12:00:23Z</time>
        <speed>1.568000</speed>
      </trkpt>
      <trkpt lat="46.033904928" lon="7.209254134">
        <ele>2080.800000</ele>
        <time>2015-08-05T12:00:25Z</time>
        <speed>1.681000</speed>
      </trkpt>
      <trkpt lat="46.033841058" lon="7.209256062">
        <ele>2080.800000</ele>
        <time>2015-08-05T12:00:30Z</time>
        <speed>1.530000</speed>
      </trkpt>
      <trkpt lat="46.033828150" lon="7.209255056">
        <ele>2080.800000</ele>
        <time>2015-08-05T12:00:31Z</time>
        <speed>1.541000</speed>
      </trkpt>
      <trkpt lat="46.033790766" lon="7.209248853">
        <ele>2081.200000</ele>
        <time>2015-08-05T12:00:34Z</time>
        <speed>1.599000</speed>
      </trkpt>
      <trkpt lat="46.033779618" lon="7.209248434">
        <ele>2081.600000</ele>
        <time>2015-08-05T12:00:35Z</time>
        <speed>1.501000</speed>
      </trkpt>
      <trkpt lat="46.033768638" lon="7.209247093">
        <ele>2082.000000</ele>
        <time>2015-08-05T12:00:36Z</time>
        <speed>1.501000</speed>
      </trkpt>
      <trkpt lat="46.033756820" lon="7.209244495">
        <ele>2082.400000</ele>
        <time>2015-08-05T12:00:37Z</time>
        <speed>1.456000</speed>
      </trkpt>
      <trkpt lat="46.033744331" lon="7.209238460">
        <ele>2083.000000</ele>
        <time>2015-08-05T12:00:38Z</time>
        <speed>1.416000</speed>
      </trkpt>
      <trkpt lat="46.033673252" lon="7.209187833">
        <ele>2083.000000</ele>
        <time>2015-08-05T12:00:44Z</time>
        <speed>1.517000</speed>
      </trkpt>
      <trkpt lat="46.033646765" lon="7.209175931">
        <ele>2083.400000</ele>
        <time>2015-08-05T12:00:46Z</time>
        <speed>1.556000</speed>
      </trkpt>
      <trkpt lat="46.033634528" lon="7.209169142">
        <ele>2083.800000</ele>
        <time>2015-08-05T12:00:47Z</time>
        <speed>1.528000</speed>
      </trkpt>
      <trkpt lat="46.033622793" lon="7.209166711">
        <ele>2084.200000</ele>
        <time>2015-08-05T12:00:48Z</time>
        <speed>1.489000</speed>
      </trkpt>
      <trkpt lat="46.033611394" lon="7.209163358">
        <ele>2084.600000</ele>
        <time>2015-08-05T12:00:49Z</time>
        <speed>1.475000</speed>
      </trkpt>
      <trkpt lat="46.033600162" lon="7.209156988">
        <ele>2085.000000</ele>
        <time>2015-08-05T12:00:50Z</time>
        <speed>1.475000</speed>
      </trkpt>
      <trkpt lat="46.033520450" lon="7.209122873">
        <ele>2085.000000</ele>
        <time>2015-08-05T12:00:57Z</time>
        <speed>1.381000</speed>
      </trkpt>
      <trkpt lat="46.033506871" lon="7.209122371">
        <ele>2085.400000</ele>
        <time>2015-08-05T12:00:58Z</time>
        <speed>1.444000</speed>
      </trkpt>
      <trkpt lat="46.033494801" lon="7.209121113">
        <ele>2085.800000</ele>
        <time>2015-08-05T12:00:59Z</time>
        <speed>1.444000</speed>
      </trkpt>
      <trkpt lat="46.033482480" lon="7.209117761">
        <ele>2086.200000</ele>
        <time>2015-08-05T12:01:00Z</time>
        <speed>1.490000</speed>
      </trkpt>
      <trkpt lat="46.033468817" lon="7.209118263">
        <ele>2086.600000</ele>
        <time>2015-08-05T12:01:01Z</time>
        <speed>1.484000</speed>
      </trkpt>
      <trkpt lat="46.033454820" lon="7.209116084">
        <ele>2087.000000</ele>
        <time>2015-08-05T12:01:02Z</time>
        <speed>1.556000</speed>
      </trkpt>
      <trkpt lat="46.033415592" lon="7.209108792">
        <ele>2087.000000</ele>
        <time>2015-08-05T12:01:05Z</time>
        <speed>1.490000</speed>
      </trkpt>
      <trkpt lat="46.033376952" lon="7.209114408">
        <ele>2087.000000</ele>
        <time>2015-08-05T12:01:08Z</time>
        <speed>1.502000</speed>
      </trkpt>
      <trkpt lat="46.033342586" lon="7.209122203">
        <ele>2087.000000</ele>
        <time>2015-08-05T12:01:11Z</time>
        <speed>1.504000</speed>
      </trkpt>
      <trkpt lat="46.033328253" lon="7.209120778">
        <ele>2087.600000</ele>
        <time>2015-08-05T12:01:12Z</time>
        <speed>1.498000</speed>
      </trkpt>
      <trkpt lat="46.033314590" lon="7.209117509">
        <ele>2088.000000</ele>
        <time>2015-08-05T12:01:13Z</time>
        <speed>1.516000</speed>
      </trkpt>
      <trkpt lat="46.033302269" lon="7.209115414">
        <ele>2088.400000</ele>
        <time>2015-08-05T12:01:14Z</time>
        <speed>1.516000</speed>
      </trkpt>
      <trkpt lat="46.033288942" lon="7.209116922">
        <ele>2088.800000</ele>
        <time>2015-08-05T12:01:15Z</time>
        <speed>1.503000</speed>
      </trkpt>
      <trkpt lat="46.033275279" lon="7.209118934">
        <ele>2089.200000</ele>
        <time>2015-08-05T12:01:16Z</time>
        <speed>1.476000</speed>
      </trkpt>
      <trkpt lat="46.033247787" lon="7.209119353">
        <ele>2089.200000</ele>
        <time>2015-08-05T12:01:18Z</time>
        <speed>1.543000</speed>
      </trkpt>
      <trkpt lat="46.033165476" lon="7.209115246">
        <ele>2089.600000</ele>
        <time>2015-08-05T12:01:24Z</time>
        <speed>1.625000</speed>
      </trkpt>
      <trkpt lat="46.033152149" lon="7.209111306">
        <ele>2090.000000</ele>
        <time>2015-08-05T12:01:25Z</time>
        <speed>1.625000</speed>
      </trkpt>
      <trkpt lat="46.033140331" lon="7.209111558">
        <ele>2090.400000</ele>
        <time>2015-08-05T12:01:26Z</time>
        <speed>1.574000</speed>
      </trkpt>
      <trkpt lat="46.033128680" lon="7.209113150">
        <ele>2090.800000</ele>
        <time>2015-08-05T12:01:27Z</time>
        <speed>1.567000</speed>
      </trkpt>
      <trkpt lat="46.033116275" lon="7.209113821">
        <ele>2091.200000</ele>
        <time>2015-08-05T12:01:28Z</time>
        <speed>1.546000</speed>
      </trkpt>
      <trkpt lat="46.033024577" lon="7.209109546">
        <ele>2091.200000</ele>
        <time>2015-08-05T12:01:35Z</time>
        <speed>1.614000</speed>
      </trkpt>
      <trkpt lat="46.033011501" lon="7.209109630">
        <ele>2091.800000</ele>
        <time>2015-08-05T12:01:36Z</time>
        <speed>1.515000</speed>
      </trkpt>
      <trkpt lat="46.032998174" lon="7.209112228">
        <ele>2092.200000</ele>
        <time>2015-08-05T12:01:37Z</time>
        <speed>1.515000</speed>
      </trkpt>
      <trkpt lat="46.032983924" lon="7.209117593">
        <ele>2092.600000</ele>
        <time>2015-08-05T12:01:38Z</time>
        <speed>1.431000</speed>
      </trkpt>
      <trkpt lat="46.032971771" lon="7.209122957">
        <ele>2093.000000</ele>
        <time>2015-08-05T12:01:39Z</time>
        <speed>1.542000</speed>
      </trkpt>
      <trkpt lat="46.032959533" lon="7.209124885">
        <ele>2093.400000</ele>
        <time>2015-08-05T12:01:40Z</time>
        <speed>1.542000</speed>
      </trkpt>
      <trkpt lat="46.032924664" lon="7.209129998">
        <ele>2093.400000</ele>
        <time>2015-08-05T12:01:43Z</time>
        <speed>1.484000</speed>
      </trkpt>
      <trkpt lat="46.032850568" lon="7.209141984">
        <ele>2093.800000</ele>
        <time>2015-08-05T12:01:49Z</time>
        <speed>1.459000</speed>
      </trkpt>
      <trkpt lat="46.032836738" lon="7.209146846">
        <ele>2094.200000</ele>
        <time>2015-08-05T12:01:50Z</time>
        <speed>1.459000</speed>
      </trkpt>
      <trkpt lat="46.032823578" lon="7.209149109">
        <ele>2094.600000</ele>
        <time>2015-08-05T12:01:51Z</time>
        <speed>1.552000</speed>
      </trkpt>
      <trkpt lat="46.032811341" lon="7.209145756">
        <ele>2095.000000</ele>
        <time>2015-08-05T12:01:52Z</time>
        <speed>1.486000</speed>
      </trkpt>
      <trkpt lat="46.032798600" lon="7.209142571">
        <ele>2095.400000</ele>
        <time>2015-08-05T12:01:53Z</time>
        <speed>1.519000</speed>
      </trkpt>
      <trkpt lat="46.032715787" lon="7.209125807">
        <ele>2095.400000</ele>
        <time>2015-08-05T12:01:59Z</time>
        <speed>1.514000</speed>
      </trkpt>
      <trkpt lat="46.032670776" lon="7.209129914">
        <ele>2095.800000</ele>
        <time>2015-08-05T12:02:03Z</time>
        <speed>1.458000</speed>
      </trkpt>
      <trkpt lat="46.032659461" lon="7.209127064">
        <ele>2096.200000</ele>
        <time>2015-08-05T12:02:04Z</time>
        <speed>1.457000</speed>
      </trkpt>
      <trkpt lat="46.032646636" lon="7.209119269">
        <ele>2096.800000</ele>
        <time>2015-08-05T12:02:05Z</time>
        <speed>1.457000</speed>
      </trkpt>
      <trkpt lat="46.032632723" lon="7.209115581">
        <ele>2097.200000</ele>
        <time>2015-08-05T12:02:06Z</time>
        <speed>1.473000</speed>
      </trkpt>
      <trkpt lat="46.032618054" lon="7.209119940">
        <ele>2097.600000</ele>
        <time>2015-08-05T12:02:07Z</time>
        <speed>1.584000</speed>
      </trkpt>
      <trkpt lat="46.032505150" lon="7.209129747">
        <ele>2097.600000</ele>
        <time>2015-08-05T12:02:16Z</time>
        <speed>1.443000</speed>
      </trkpt>
      <trkpt lat="46.032478579" lon="7.209124047">
        <ele>2098.400000</ele>
        <time>2015-08-05T12:02:18Z</time>
        <speed>1.474000</speed>
      </trkpt>
      <trkpt lat="46.032466593" lon="7.209124634">
        <ele>2098.800000</ele>
        <time>2015-08-05T12:02:19Z</time>
        <speed>1.522000</speed>
      </trkpt>
      <trkpt lat="46.032456116" lon="7.209126226">
        <ele>2099.200000</ele>
        <time>2015-08-05T12:02:20Z</time>
        <speed>1.469000</speed>
      </trkpt>
      <trkpt lat="46.032444297" lon="7.209128070">
        <ele>2099.800000</ele>
        <time>2015-08-05T12:02:21Z</time>
        <speed>1.473000</speed>
      </trkpt>
      <trkpt lat="46.032430719" lon="7.209130836">
        <ele>2099.800000</ele>
        <time>2015-08-05T12:02:22Z</time>
        <speed>1.473000</speed>
      </trkpt>
      <trkpt lat="46.032344553" lon="7.209095884">
        <ele>2099.800000</ele>
        <time>2015-08-05T12:02:29Z</time>
        <speed>1.502000</speed>
      </trkpt>
      <trkpt lat="46.032320245" lon="7.209087334">
        <ele>2100.200000</ele>
        <time>2015-08-05T12:02:31Z</time>
        <speed>1.449000</speed>
      </trkpt>
      <trkpt lat="46.032308678" lon="7.209083311">
        <ele>2100.600000</ele>
        <time>2015-08-05T12:02:32Z</time>
        <speed>1.449000</speed>
      </trkpt>
      <trkpt lat="46.032298285" lon="7.209078030">
        <ele>2101.000000</ele>
        <time>2015-08-05T12:02:33Z</time>
        <speed>1.444000</speed>
      </trkpt>
      <trkpt lat="46.032286215" lon="7.209073336">
        <ele>2101.400000</ele>
        <time>2015-08-05T12:02:34Z</time>
        <speed>1.524000</speed>
      </trkpt>
      <trkpt lat="46.032273558" lon="7.209067637">
        <ele>2102.000000</ele>
        <time>2015-08-05T12:02:35Z</time>
        <speed>1.524000</speed>
      </trkpt>
      <trkpt lat="46.032240114" lon="7.209050538">
        <ele>2102.000000</ele>
        <time>2015-08-05T12:02:38Z</time>
        <speed>1.481000</speed>
      </trkpt>
      <trkpt lat="46.032171550" lon="7.209011813">
        <ele>2102.400000</ele>
        <time>2015-08-05T12:02:44Z</time>
        <speed>1.447000</speed>
      </trkpt>
      <trkpt lat="46.032161660" lon="7.209005024">
        <ele>2102.800000</ele>
        <time>2015-08-05T12:02:45Z</time>
        <speed>1.447000</speed>
      </trkpt>
      <trkpt lat="46.032151015" lon="7.208994547">
        <ele>2103.200000</ele>
        <time>2015-08-05T12:02:46Z</time>
        <speed>1.466000</speed>
      </trkpt>
      <trkpt lat="46.032139699" lon="7.208985494">
        <ele>2103.600000</ele>
        <time>2015-08-05T12:02:47Z</time>
        <speed>1.473000</speed>
      </trkpt>
      <trkpt lat="46.032128216" lon="7.208976861">
        <ele>2104.200000</ele>
        <time>2015-08-05T12:02:48Z</time>
        <speed>1.479000</speed>
      </trkpt>
      <trkpt lat="46.032115894" lon="7.208965294">
        <ele>2104.200000</ele>
        <time>2015-08-05T12:02:49Z</time>
        <speed>1.479000</speed>
      </trkpt>
      <trkpt lat="46.032075661" lon="7.208926988">
        <ele>2104.200000</ele>
        <time>2015-08-05T12:02:53Z</time>
        <speed>1.504000</speed>
      </trkpt>
      <trkpt lat="46.032020005" lon="7.208881810">
        <ele>2104.600000</ele>
        <time>2015-08-05T12:02:58Z</time>
        <speed>1.445000</speed>
      </trkpt>
      <trkpt lat="46.032008857" lon="7.208873260">
        <ele>2105.000000</ele>
        <time>2015-08-05T12:02:59Z</time>
        <speed>1.445000</speed>
      </trkpt>
      <trkpt lat="46.031996033" lon="7.208864208">
        <ele>2105.400000</ele>
        <time>2015-08-05T12:03:00Z</time>
        <speed>1.404000</speed>
      </trkpt>
      <trkpt lat="46.031983879" lon="7.208852809">
        <ele>2105.800000</ele>
        <time>2015-08-05T12:03:01Z</time>
        <speed>1.397000</speed>
      </trkpt>
      <trkpt lat="46.031974156" lon="7.208841493">
        <ele>2106.200000</ele>
        <time>2015-08-05T12:03:02Z</time>
        <speed>1.397000</speed>
      </trkpt>
      <trkpt lat="46.031914477" lon="7.208775863">
        <ele>2106.200000</ele>
        <time>2015-08-05T12:03:08Z</time>
        <speed>1.544000</speed>
      </trkpt>
      <trkpt lat="46.031877513" lon="7.208720039">
        <ele>2106.600000</ele>
        <time>2015-08-05T12:03:12Z</time>
        <speed>1.513000</speed>
      </trkpt>
      <trkpt lat="46.031867119" lon="7.208709813">
        <ele>2107.000000</ele>
        <time>2015-08-05T12:03:13Z</time>
        <speed>1.541000</speed>
      </trkpt>
      <trkpt lat="46.031860079" lon="7.208696486">
        <ele>2107.400000</ele>
        <time>2015-08-05T12:03:14Z</time>
        <speed>1.463000</speed>
      </trkpt>
      <trkpt lat="46.031854966" lon="7.208681566">
        <ele>2108.000000</ele>
        <time>2015-08-05T12:03:15Z</time>
        <speed>1.463000</speed>
      </trkpt>
      <trkpt lat="46.031849769" lon="7.208668491">
        <ele>2108.400000</ele>
        <time>2015-08-05T12:03:16Z</time>
        <speed>1.534000</speed>
      </trkpt>
      <trkpt lat="46.031791682" lon="7.208576625">
        <ele>2108.400000</ele>
        <time>2015-08-05T12:03:23Z</time>
        <speed>1.450000</speed>
      </trkpt>
      <trkpt lat="46.031768297" lon="7.208548043">
        <ele>2108.800000</ele>
        <time>2015-08-05T12:03:26Z</time>
        <speed>1.489000</speed>
      </trkpt>
      <trkpt lat="46.031760502" lon="7.208531782">
        <ele>2109.200000</ele>
        <time>2015-08-05T12:03:27Z</time>
        <speed>1.489000</speed>
      </trkpt>
      <trkpt lat="46.031751785" lon="7.208514180">
        <ele>2109.600000</ele>
        <time>2015-08-05T12:03:28Z</time>
        <speed>1.477000</speed>
      </trkpt>
      <trkpt lat="46.031742313" lon="7.208506468">
        <ele>2110.000000</ele>
        <time>2015-08-05T12:03:29Z</time>
        <speed>1.527000</speed>
      </trkpt>
      <trkpt lat="46.031728315" lon="7.208497081">
        <ele>2110.400000</ele>
        <time>2015-08-05T12:03:30Z</time>
        <speed>1.529000</speed>
      </trkpt>
      <trkpt lat="46.031661176" lon="7.208450477">
        <ele>2110.400000</ele>
        <time>2015-08-05T12:03:36Z</time>
        <speed>1.579000</speed>
      </trkpt>
      <trkpt lat="46.031629660" lon="7.208419297">
        <ele>2110.800000</ele>
        <time>2015-08-05T12:03:39Z</time>
        <speed>1.497000</speed>
      </trkpt>
      <trkpt lat="46.031616584" lon="7.208414016">
        <ele>2111.200000</ele>
        <time>2015-08-05T12:03:40Z</time>
        <speed>1.472000</speed>
      </trkpt>
      <trkpt lat="46.031604263" lon="7.208406472">
        <ele>2111.600000</ele>
        <time>2015-08-05T12:03:41Z</time>
        <speed>1.479000</speed>
      </trkpt>
      <trkpt lat="46.031591355" lon="7.208400270">
        <ele>2112.000000</ele>
        <time>2015-08-05T12:03:42Z</time>
        <speed>1.479000</speed>
      </trkpt>
      <trkpt lat="46.031580207" lon="7.208392223">
        <ele>2112.400000</ele>
        <time>2015-08-05T12:03:43Z</time>
        <speed>1.484000</speed>
      </trkpt>
      <trkpt lat="46.031569562" lon="7.208387278">
        <ele>2112.400000</ele>
        <time>2015-08-05T12:03:44Z</time>
        <speed>1.458000</speed>
      </trkpt>
      <trkpt lat="46.031503848" lon="7.208343356">
        <ele>2112.800000</ele>
        <time>2015-08-05T12:03:50Z</time>
        <speed>1.481000</speed>
      </trkpt>
      <trkpt lat="46.031490856" lon="7.208335813">
        <ele>2113.200000</ele>
        <time>2015-08-05T12:03:51Z</time>
        <speed>1.452000</speed>
      </trkpt>
      <trkpt lat="46.031478702" lon="7.208325168">
        <ele>2113.600000</ele>
        <time>2015-08-05T12:03:52Z</time>
        <speed>1.452000</speed>
      </trkpt>
      <trkpt lat="46.031466967" lon="7.208318295">
        <ele>2114.000000</ele>
        <time>2015-08-05T12:03:53Z</time>
        <speed>1.447000</speed>
      </trkpt>
      <trkpt lat="46.031455317" lon="7.208308991">
        <ele>2114.600000</ele>
        <time>2015-08-05T12:03:54Z</time>
        <speed>1.453000</speed>
      </trkpt>
      <trkpt lat="46.031416425" lon="7.208280995">
        <ele>2114.600000</ele>
        <time>2015-08-05T12:03:58Z</time>
        <speed>1.471000</speed>
      </trkpt>
      <trkpt lat="46.031372671" lon="7.208241013">
        <ele>2115.000000</ele>
        <time>2015-08-05T12:04:02Z</time>
        <speed>1.452000</speed>
      </trkpt>
      <trkpt lat="46.031361272" lon="7.208230285">
        <ele>2115.400000</ele>
        <time>2015-08-05T12:04:03Z</time>
        <speed>1.369000</speed>
      </trkpt>
      <trkpt lat="46.031350794" lon="7.208216119">
        <ele>2115.800000</ele>
        <time>2015-08-05T12:04:04Z</time>
        <speed>1.378000</speed>
      </trkpt>
      <trkpt lat="46.031340485" lon="7.208204887">
        <ele>2116.200000</ele>
        <time>2015-08-05T12:04:05Z</time>
        <speed>1.378000</speed>
      </trkpt>
      <trkpt lat="46.031331935" lon="7.208197260">
        <ele>2116.600000</ele>
        <time>2015-08-05T12:04:06Z</time>
        <speed>1.406000</speed>
      </trkpt>
      <trkpt lat="46.031291283" lon="7.208151411">
        <ele>2116.600000</ele>
        <time>2015-08-05T12:04:11Z</time>
        <speed>1.257000</speed>
      </trkpt>
      <trkpt lat="46.031217271" lon="7.208090474">
        <ele>2117.000000</ele>
        <time>2015-08-05T12:04:18Z</time>
        <speed>1.444000</speed>
      </trkpt>
      <trkpt lat="46.031208218" lon="7.208081506">
        <ele>2117.400000</ele>
        <time>2015-08-05T12:04:19Z</time>
        <speed>1.444000</speed>
      </trkpt>
      <trkpt lat="46.031198747" lon="7.208073040">
        <ele>2117.800000</ele>
        <time>2015-08-05T12:04:20Z</time>
        <speed>1.396000</speed>
      </trkpt>
      <trkpt lat="46.031188521" lon="7.208065832">
        <ele>2118.200000</ele>
        <time>2015-08-05T12:04:21Z</time>
        <speed>1.363000</speed>
      </trkpt>
      <trkpt lat="46.031179217" lon="7.208055773">
        <ele>2118.600000</ele>
        <time>2015-08-05T12:04:22Z</time>
        <speed>1.363000</speed>
      </trkpt>
      <trkpt lat="46.031147030" lon="7.208031298">
        <ele>2118.600000</ele>
        <time>2015-08-05T12:04:25Z</time>
        <speed>1.372000</speed>
      </trkpt>
      <trkpt lat="46.031113922" lon="7.208012355">
        <ele>2118.600000</ele>
        <time>2015-08-05T12:04:28Z</time>
        <speed>1.371000</speed>
      </trkpt>
      <trkpt lat="46.031077209" lon="7.208006655">
        <ele>2118.600000</ele>
        <time>2015-08-05T12:04:31Z</time>
        <speed>1.416000</speed>
      </trkpt>
      <trkpt lat="46.031066229" lon="7.208004560">
        <ele>2119.000000</ele>
        <time>2015-08-05T12:04:32Z</time>
        <speed>1.375000</speed>
      </trkpt>
      <trkpt lat="46.031054829" lon="7.208001878">
        <ele>2119.400000</ele>
        <time>2015-08-05T12:04:33Z</time>
        <speed>1.464000</speed>
      </trkpt>
      <trkpt lat="46.031042843" lon="7.208000369">
        <ele>2119.800000</ele>
        <time>2015-08-05T12:04:34Z</time>
        <speed>1.464000</speed>
      </trkpt>
      <trkpt lat="46.031030019" lon="7.207994166">
        <ele>2120.200000</ele>
        <time>2015-08-05T12:04:35Z</time>
        <speed>1.380000</speed>
      </trkpt>
      <trkpt lat="46.031017949" lon="7.207988131">
        <ele>2120.600000</ele>
        <time>2015-08-05T12:04:36Z</time>
        <speed>1.373000</speed>
      </trkpt>
      <trkpt lat="46.030996575" lon="7.207981258">
        <ele>2120.600000</ele>
        <time>2015-08-05T12:04:38Z</time>
        <speed>1.408000</speed>
      </trkpt>
      <trkpt lat="46.030911834" lon="7.207951419">
        <ele>2121.200000</ele>
        <time>2015-08-05T12:04:45Z</time>
        <speed>1.436000</speed>
      </trkpt>
      <trkpt lat="46.030900016" lon="7.207942618">
        <ele>2121.600000</ele>
        <time>2015-08-05T12:04:46Z</time>
        <speed>1.436000</speed>
      </trkpt>
      <trkpt lat="46.030887191" lon="7.207935493">
        <ele>2122.400000</ele>
        <time>2015-08-05T12:04:47Z</time>
        <speed>1.440000</speed>
      </trkpt>
      <trkpt lat="46.030874199" lon="7.207929458">
        <ele>2122.800000</ele>
        <time>2015-08-05T12:04:48Z</time>
        <speed>1.451000</speed>
      </trkpt>
      <trkpt lat="46.030802618" lon="7.207906911">
        <ele>2122.800000</ele>
        <time>2015-08-05T12:04:54Z</time>
        <speed>1.536000</speed>
      </trkpt>
      <trkpt lat="46.030727851" lon="7.207876233">
        <ele>2123.200000</ele>
        <time>2015-08-05T12:05:00Z</time>
        <speed>1.501000</speed>
      </trkpt>
      <trkpt lat="46.030715111" lon="7.207877155">
        <ele>2123.600000</ele>
        <time>2015-08-05T12:05:01Z</time>
        <speed>1.445000</speed>
      </trkpt>
      <trkpt lat="46.030703208" lon="7.207878748">
        <ele>2124.000000</ele>
        <time>2015-08-05T12:05:02Z</time>
        <speed>1.470000</speed>
      </trkpt>
      <trkpt lat="46.030691558" lon="7.207877993">
        <ele>2124.400000</ele>
        <time>2015-08-05T12:05:03Z</time>
        <speed>1.470000</speed>
      </trkpt>
      <trkpt lat="46.030679571" lon="7.207879586">
        <ele>2124.800000</ele>
        <time>2015-08-05T12:05:04Z</time>
        <speed>1.468000</speed>
      </trkpt>
      <trkpt lat="46.030624586" lon="7.207884280">
        <ele>2124.800000</ele>
        <time>2015-08-05T12:05:08Z</time>
        <speed>1.536000</speed>
      </trkpt>
      <trkpt lat="46.030560800" lon="7.207899283">
        <ele>2124.800000</ele>
        <time>2015-08-05T12:05:13Z</time>
        <speed>1.514000</speed>
      </trkpt>
      <trkpt lat="46.030547892" lon="7.207899283">
        <ele>2125.200000</ele>
        <time>2015-08-05T12:05:14Z</time>
        <speed>1.514000</speed>
      </trkpt>
      <trkpt lat="46.030535319" lon="7.207897858">
        <ele>2125.600000</ele>
        <time>2015-08-05T12:05:15Z</time>
        <speed>1.505000</speed>
      </trkpt>
      <trkpt lat="46.030522411" lon="7.207897104">
        <ele>2126.000000</ele>
        <time>2015-08-05T12:05:16Z</time>
        <speed>1.560000</speed>
      </trkpt>
      <trkpt lat="46.030509503" lon="7.207897691">
        <ele>2126.400000</ele>
        <time>2015-08-05T12:05:17Z</time>
        <speed>1.578000</speed>
      </trkpt>
      <trkpt lat="46.030496259" lon="7.207896098">
        <ele>2126.800000</ele>
        <time>2015-08-05T12:05:18Z</time>
        <speed>1.578000</speed>
      </trkpt>
      <trkpt lat="46.030423588" lon="7.207867935">
        <ele>2126.800000</ele>
        <time>2015-08-05T12:05:24Z</time>
        <speed>1.489000</speed>
      </trkpt>
      <trkpt lat="46.030348067" lon="7.207857541">
        <ele>2126.800000</ele>
        <time>2015-08-05T12:05:30Z</time>
        <speed>1.468000</speed>
      </trkpt>
      <trkpt lat="46.030337506" lon="7.207853183">
        <ele>2127.200000</ele>
        <time>2015-08-05T12:05:31Z</time>
        <speed>1.468000</speed>
      </trkpt>
      <trkpt lat="46.030325017" lon="7.207848908">
        <ele>2127.600000</ele>
        <time>2015-08-05T12:05:32Z</time>
        <speed>1.424000</speed>
      </trkpt>
      <trkpt lat="46.030313534" lon="7.207843627">
        <ele>2128.200000</ele>
        <time>2015-08-05T12:05:33Z</time>
        <speed>1.464000</speed>
      </trkpt>
      <trkpt lat="46.030303643" lon="7.207838347">
        <ele>2128.600000</ele>
        <time>2015-08-05T12:05:34Z</time>
        <speed>1.488000</speed>
      </trkpt>
      <trkpt lat="46.030290484" lon="7.207832731">
        <ele>2129.000000</ele>
        <time>2015-08-05T12:05:35Z</time>
        <speed>1.434000</speed>
      </trkpt>
      <trkpt lat="46.030252765" lon="7.207813536">
        <ele>2129.000000</ele>
        <time>2015-08-05T12:05:38Z</time>
        <speed>1.327000</speed>
      </trkpt>
      <trkpt lat="46.030171712" lon="7.207770956">
        <ele>2129.400000</ele>
        <time>2015-08-05T12:05:45Z</time>
        <speed>1.485000</speed>
      </trkpt>
      <trkpt lat="46.030158636" lon="7.207768693">
        <ele>2129.800000</ele>
        <time>2015-08-05T12:05:46Z</time>
        <speed>1.446000</speed>
      </trkpt>
      <trkpt lat="46.030146818" lon="7.207761820">
        <ele>2130.200000</ele>
        <time>2015-08-05T12:05:47Z</time>
        <speed>1.469000</speed>
      </trkpt>
      <trkpt lat="46.030134832" lon="7.207757629">
        <ele>2130.600000</ele>
        <time>2015-08-05T12:05:48Z</time>
        <speed>1.469000</speed>
      </trkpt>
      <trkpt lat="46.030121840" lon="7.207751259">
        <ele>2131.000000</ele>
        <time>2015-08-05T12:05:49Z</time>
        <speed>1.404000</speed>
      </trkpt>
      <trkpt lat="46.030031231" lon="7.207724604">
        <ele>2131.000000</ele>
        <time>2015-08-05T12:05:57Z</time>
        <speed>1.341000</speed>
      </trkpt>
      <trkpt lat="46.029984209" lon="7.207708763">
        <ele>2132.000000</ele>
        <time>2015-08-05T12:06:01Z</time>
        <speed>1.444000</speed>
      </trkpt>
      <trkpt lat="46.029969540" lon="7.207703650">
        <ele>2132.400000</ele>
        <time>2015-08-05T12:06:02Z</time>
        <speed>1.413000</speed>
      </trkpt>
      <trkpt lat="46.029957387" lon="7.207702057">
        <ele>2132.800000</ele>
        <time>2015-08-05T12:06:03Z</time>
        <speed>1.413000</speed>
      </trkpt>
      <trkpt lat="46.029946071" lon="7.207703566">
        <ele>2133.200000</ele>
        <time>2015-08-05T12:06:04Z</time>
        <speed>1.489000</speed>
      </trkpt>
      <trkpt lat="46.029867281" lon="7.207708092">
        <ele>2133.200000</ele>
        <time>2015-08-05T12:06:11Z</time>
        <speed>1.411000</speed>
      </trkpt>
      <trkpt lat="46.029826042" lon="7.207721335">
        <ele>2133.600000</ele>
        <time>2015-08-05T12:06:14Z</time>
        <speed>1.465000</speed>
      </trkpt>
      <trkpt lat="46.029815481" lon="7.207720749">
        <ele>2134.000000</ele>
        <time>2015-08-05T12:06:15Z</time>
        <speed>1.450000</speed>
      </trkpt>
      <trkpt lat="46.029803327" lon="7.207722928">
        <ele>2134.400000</ele>
        <time>2015-08-05T12:06:16Z</time>
        <speed>1.450000</speed>
      </trkpt>
      <trkpt lat="46.029791090" lon="7.207722677">
        <ele>2134.800000</ele>
        <time>2015-08-05T12:06:17Z</time>
        <speed>1.413000</speed>
      </trkpt>
      <trkpt lat="46.029779690" lon="7.207721922">
        <ele>2135.200000</ele>
        <time>2015-08-05T12:06:18Z</time>
        <speed>1.453000</speed>
      </trkpt>
      <trkpt lat="46.029694865" lon="7.207728712">
        <ele>2136.000000</ele>
        <time>2015-08-05T12:06:25Z</time>
        <speed>1.420000</speed>
      </trkpt>
      <trkpt lat="46.029685059" lon="7.207730723">
        <ele>2136.600000</ele>
        <time>2015-08-05T12:06:26Z</time>
        <speed>1.420000</speed>
      </trkpt>
      <trkpt lat="46.029673073" lon="7.207732316">
        <ele>2137.000000</ele>
        <time>2015-08-05T12:06:27Z</time>
        <speed>1.450000</speed>
      </trkpt>
      <trkpt lat="46.029660416" lon="7.207733070">
        <ele>2137.400000</ele>
        <time>2015-08-05T12:06:28Z</time>
        <speed>1.450000</speed>
      </trkpt>
      <trkpt lat="46.029568802" lon="7.207708260">
        <ele>2137.400000</ele>
        <time>2015-08-05T12:06:35Z</time>
        <speed>1.441000</speed>
      </trkpt>
      <trkpt lat="46.029544662" lon="7.207700045">
        <ele>2137.800000</ele>
        <time>2015-08-05T12:06:37Z</time>
        <speed>1.440000</speed>
      </trkpt>
      <trkpt lat="46.029534017" lon="7.207698034">
        <ele>2138.200000</ele>
        <time>2015-08-05T12:06:38Z</time>
        <speed>1.440000</speed>
      </trkpt>
      <trkpt lat="46.029523456" lon="7.207699291">
        <ele>2138.600000</ele>
        <time>2015-08-05T12:06:39Z</time>
        <speed>1.430000</speed>
      </trkpt>
      <trkpt lat="46.029513481" lon="7.207699878">
        <ele>2139.000000</ele>
        <time>2015-08-05T12:06:40Z</time>
        <speed>1.440000</speed>
      </trkpt>
      <trkpt lat="46.029503004" lon="7.207700465">
        <ele>2139.400000</ele>
        <time>2015-08-05T12:06:41Z</time>
        <speed>1.440000</speed>
      </trkpt>
      <trkpt lat="46.029478026" lon="7.207701051">
        <ele>2139.400000</ele>
        <time>2015-08-05T12:06:43Z</time>
        <speed>1.321000</speed>
      </trkpt>
      <trkpt lat="46.029433434" lon="7.207712367">
        <ele>2139.800000</ele>
        <time>2015-08-05T12:06:47Z</time>
        <speed>1.433000</speed>
      </trkpt>
      <trkpt lat="46.029419017" lon="7.207717144">
        <ele>2140.200000</ele>
        <time>2015-08-05T12:06:48Z</time>
        <speed>1.476000</speed>
      </trkpt>
      <trkpt lat="46.029407953" lon="7.207720665">
        <ele>2140.600000</ele>
        <time>2015-08-05T12:06:49Z</time>
        <speed>1.444000</speed>
      </trkpt>
      <trkpt lat="46.029396218" lon="7.207722760">
        <ele>2141.400000</ele>
        <time>2015-08-05T12:06:50Z</time>
        <speed>1.444000</speed>
      </trkpt>
      <trkpt lat="46.029297060" lon="7.207705577">
        <ele>2141.400000</ele>
        <time>2015-08-05T12:06:58Z</time>
        <speed>1.445000</speed>
      </trkpt>
      <trkpt lat="46.029273004" lon="7.207715720">
        <ele>2141.800000</ele>
        <time>2015-08-05T12:07:00Z</time>
        <speed>1.472000</speed>
      </trkpt>
      <trkpt lat="46.029259509" lon="7.207719408">
        <ele>2142.200000</ele>
        <time>2015-08-05T12:07:01Z</time>
        <speed>1.452000</speed>
      </trkpt>
      <trkpt lat="46.029247439" lon="7.207722760">
        <ele>2142.800000</ele>
        <time>2015-08-05T12:07:02Z</time>
        <speed>1.479000</speed>
      </trkpt>
      <trkpt lat="46.029234950" lon="7.207725862">
        <ele>2143.200000</ele>
        <time>2015-08-05T12:07:03Z</time>
        <speed>1.479000</speed>
      </trkpt>
      <trkpt lat="46.029224138" lon="7.207731058">
        <ele>2143.600000</ele>
        <time>2015-08-05T12:07:04Z</time>
        <speed>1.406000</speed>
      </trkpt>
      <trkpt lat="46.029203434" lon="7.207735082">
        <ele>2143.600000</ele>
        <time>2015-08-05T12:07:06Z</time>
        <speed>1.391000</speed>
      </trkpt>
      <trkpt lat="46.029106707" lon="7.207772297">
        <ele>2143.600000</ele>
        <time>2015-08-05T12:07:14Z</time>
        <speed>1.481000</speed>
      </trkpt>
      <trkpt lat="46.029068737" lon="7.207748996">
        <ele>2144.000000</ele>
        <time>2015-08-05T12:07:17Z</time>
        <speed>1.531000</speed>
      </trkpt>
      <trkpt lat="46.029058428" lon="7.207740362">
        <ele>2144.400000</ele>
        <time>2015-08-05T12:07:18Z</time>
        <speed>1.693000</speed>
      </trkpt>
      <trkpt lat="46.029047196" lon="7.207732232">
        <ele>2144.800000</ele>
        <time>2015-08-05T12:07:19Z</time>
        <speed>1.693000</speed>
      </trkpt>
      <trkpt lat="46.029031270" lon="7.207727203">
        <ele>2145.200000</ele>
        <time>2015-08-05T12:07:20Z</time>
        <speed>1.648000</speed>
      </trkpt>
      <trkpt lat="46.029015009" lon="7.207727119">
        <ele>2145.600000</ele>
        <time>2015-08-05T12:07:21Z</time>
        <speed>1.678000</speed>
      </trkpt>
      <trkpt lat="46.028911912" lon="7.207747319">
        <ele>2145.600000</ele>
        <time>2015-08-05T12:07:28Z</time>
        <speed>3.375000</speed>
      </trkpt>
      <trkpt lat="46.028847287" lon="7.207797862">
        <ele>2145.600000</ele>
        <time>2015-08-05T12:07:34Z</time>
        <speed>1.553000</speed>
      </trkpt>
      <trkpt lat="46.028839325" lon="7.207814458">
        <ele>2146.000000</ele>
        <time>2015-08-05T12:07:35Z</time>
        <speed>1.583000</speed>
      </trkpt>
      <trkpt lat="46.028830691" lon="7.207826780">
        <ele>2146.400000</ele>
        <time>2015-08-05T12:07:36Z</time>
        <speed>1.511000</speed>
      </trkpt>
      <trkpt lat="46.028822561" lon="7.207839604">
        <ele>2146.800000</ele>
        <time>2015-08-05T12:07:37Z</time>
        <speed>1.511000</speed>
      </trkpt>
      <trkpt lat="46.028814682" lon="7.207856787">
        <ele>2147.200000</ele>
        <time>2015-08-05T12:07:38Z</time>
        <speed>1.438000</speed>
      </trkpt>
      <trkpt lat="46.028807892" lon="7.207873467">
        <ele>2147.600000</ele>
        <time>2015-08-05T12:07:39Z</time>
        <speed>1.490000</speed>
      </trkpt>
      <trkpt lat="46.028790458" lon="7.207897691">
        <ele>2147.600000</ele>
        <time>2015-08-05T12:07:41Z</time>
        <speed>1.466000</speed>
      </trkpt>
      <trkpt lat="46.028751063" lon="7.207994166">
        <ele>2147.600000</ele>
        <time>2015-08-05T12:07:47Z</time>
        <speed>1.396000</speed>
      </trkpt>
      <trkpt lat="46.028747124" lon="7.208006069">
        <ele>2148.000000</ele>
        <time>2015-08-05T12:07:48Z</time>
        <speed>1.402000</speed>
      </trkpt>
      <trkpt lat="46.028740921" lon="7.208020653">
        <ele>2148.400000</ele>
        <time>2015-08-05T12:07:49Z</time>
        <speed>1.478000</speed>
      </trkpt>
      <trkpt lat="46.028736479" lon="7.208037249">
        <ele>2148.800000</ele>
        <time>2015-08-05T12:07:50Z</time>
        <speed>1.478000</speed>
      </trkpt>
      <trkpt lat="46.028733126" lon="7.208053259">
        <ele>2149.200000</ele>
        <time>2015-08-05T12:07:51Z</time>
        <speed>1.429000</speed>
      </trkpt>
      <trkpt lat="46.028730444" lon="7.208068933">
        <ele>2149.600000</ele>
        <time>2015-08-05T12:07:52Z</time>
        <speed>1.403000</speed>
      </trkpt>
      <trkpt lat="46.028705047" lon="7.208133138">
        <ele>2149.600000</ele>
        <time>2015-08-05T12:07:56Z</time>
        <speed>1.414000</speed>
      </trkpt>
      <trkpt lat="46.028642098" lon="7.208256688">
        <ele>2149.600000</ele>
        <time>2015-08-05T12:08:04Z</time>
        <speed>1.657000</speed>
      </trkpt>
      <trkpt lat="46.028595411" lon="7.208329526">
        <ele>2150.000000</ele>
        <time>2015-08-05T12:08:09Z</time>
        <speed>1.608000</speed>
      </trkpt>
      <trkpt lat="46.028586946" lon="7.208340758">
        <ele>2150.400000</ele>
        <time>2015-08-05T12:08:10Z</time>
        <speed>1.608000</speed>
      </trkpt>
      <trkpt lat="46.028578983" lon="7.208355091">
        <ele>2150.800000</ele>
        <time>2015-08-05T12:08:11Z</time>
        <speed>1.579000</speed>
      </trkpt>
      <trkpt lat="46.028569846" lon="7.208370095">
        <ele>2151.200000</ele>
        <time>2015-08-05T12:08:12Z</time>
        <speed>1.482000</speed>
      </trkpt>
      <trkpt lat="46.028562722" lon="7.208384679">
        <ele>2151.800000</ele>
        <time>2015-08-05T12:08:13Z</time>
        <speed>1.497000</speed>
      </trkpt>
      <trkpt lat="46.028502204" lon="7.208432540">
        <ele>2151.800000</ele>
        <time>2015-08-05T12:08:19Z</time>
        <speed>1.313000</speed>
      </trkpt>
      <trkpt lat="46.028471191" lon="7.208465481">
        <ele>2152.200000</ele>
        <time>2015-08-05T12:08:22Z</time>
        <speed>1.467000</speed>
      </trkpt>
      <trkpt lat="46.028462977" lon="7.208479814">
        <ele>2152.600000</ele>
        <time>2015-08-05T12:08:23Z</time>
        <speed>1.467000</speed>
      </trkpt>
      <trkpt lat="46.028455517" lon="7.208492973">
        <ele>2153.000000</ele>
        <time>2015-08-05T12:08:24Z</time>
        <speed>1.420000</speed>
      </trkpt>
      <trkpt lat="46.028447052" lon="7.208504624">
        <ele>2153.400000</ele>
        <time>2015-08-05T12:08:25Z</time>
        <speed>1.426000</speed>
      </trkpt>
      <trkpt lat="46.028440681" lon="7.208518371">
        <ele>2153.800000</ele>
        <time>2015-08-05T12:08:26Z</time>
        <speed>1.426000</speed>
      </trkpt>
      <trkpt lat="46.028426684" lon="7.208540247">
        <ele>2153.800000</ele>
        <time>2015-08-05T12:08:28Z</time>
        <speed>1.408000</speed>
      </trkpt>
      <trkpt lat="46.028418385" lon="7.208546199">
        <ele>2153.800000</ele>
        <time>2015-08-05T12:08:29Z</time>
        <speed>1.408000</speed>
      </trkpt>
      <trkpt lat="46.028382846" lon="7.208600849">
        <ele>2153.800000</ele>
        <time>2015-08-05T12:08:33Z</time>
        <speed>1.451000</speed>
      </trkpt>
      <trkpt lat="46.028338003" lon="7.208668323">
        <ele>2154.200000</ele>
        <time>2015-08-05T12:08:38Z</time>
        <speed>1.432000</speed>
      </trkpt>
      <trkpt lat="46.028329873" lon="7.208680225">
        <ele>2154.600000</ele>
        <time>2015-08-05T12:08:39Z</time>
        <speed>1.432000</speed>
      </trkpt>
      <trkpt lat="46.028320150" lon="7.208690451">
        <ele>2155.000000</ele>
        <time>2015-08-05T12:08:40Z</time>
        <speed>1.500000</speed>
      </trkpt>
      <trkpt lat="46.028309337" lon="7.208701264">
        <ele>2155.400000</ele>
        <time>2015-08-05T12:08:41Z</time>
        <speed>1.459000</speed>
      </trkpt>
      <trkpt lat="46.028299865" lon="7.208713585">
        <ele>2155.800000</ele>
        <time>2015-08-05T12:08:42Z</time>
        <speed>1.459000</speed>
      </trkpt>
      <trkpt lat="46.028244796" lon="7.208810648">
        <ele>2155.800000</ele>
        <time>2015-08-05T12:08:48Z</time>
        <speed>1.494000</speed>
      </trkpt>
      <trkpt lat="46.028216046" lon="7.208867728">
        <ele>2155.800000</ele>
        <time>2015-08-05T12:08:52Z</time>
        <speed>19.371000</speed>
      </trkpt>
      <trkpt lat="46.028185704" lon="7.208954230">
        <ele>2156.200000</ele>
        <time>2015-08-05T12:08:56Z</time>
        <speed>1.949000</speed>
      </trkpt>
      <trkpt lat="46.028177070" lon="7.208977364">
        <ele>2156.600000</ele>
        <time>2015-08-05T12:08:57Z</time>
        <speed>1.935000</speed>
      </trkpt>
      <trkpt lat="46.028168437" lon="7.208996893">
        <ele>2157.000000</ele>
        <time>2015-08-05T12:08:58Z</time>
        <speed>2.034000</speed>
      </trkpt>
      <trkpt lat="46.028161648" lon="7.209012651">
        <ele>2157.400000</ele>
        <time>2015-08-05T12:08:59Z</time>
        <speed>1.978000</speed>
      </trkpt>
      <trkpt lat="46.028155194" lon="7.209026985">
        <ele>2157.800000</ele>
        <time>2015-08-05T12:09:00Z</time>
        <speed>2.269000</speed>
      </trkpt>
      <trkpt lat="46.028116050" lon="7.209071828">
        <ele>2157.800000</ele>
        <time>2015-08-05T12:09:04Z</time>
        <speed>1.497000</speed>
      </trkpt>
      <trkpt lat="46.028075398" lon="7.209122873">
        <ele>2158.200000</ele>
        <time>2015-08-05T12:09:08Z</time>
        <speed>1.439000</speed>
      </trkpt>
      <trkpt lat="46.028063160" lon="7.209131004">
        <ele>2158.600000</ele>
        <time>2015-08-05T12:09:09Z</time>
        <speed>1.439000</speed>
      </trkpt>
      <trkpt lat="46.028052767" lon="7.209141146">
        <ele>2159.200000</ele>
        <time>2015-08-05T12:09:10Z</time>
        <speed>1.475000</speed>
      </trkpt>
      <trkpt lat="46.028042206" lon="7.209152294">
        <ele>2159.600000</ele>
        <time>2015-08-05T12:09:11Z</time>
        <speed>1.503000</speed>
      </trkpt>
      <trkpt lat="46.028030639" lon="7.209162771">
        <ele>2160.000000</ele>
        <time>2015-08-05T12:09:12Z</time>
        <speed>1.503000</speed>
      </trkpt>
      <trkpt lat="46.027986466" lon="7.209190935">
        <ele>2160.000000</ele>
        <time>2015-08-05T12:09:16Z</time>
        <speed>1.480000</speed>
      </trkpt>
      <trkpt lat="46.027976827" lon="7.209205351">
        <ele>2160.000000</ele>
        <time>2015-08-05T12:09:17Z</time>
        <speed>1.505000</speed>
      </trkpt>
      <trkpt lat="46.027932654" lon="7.209240052">
        <ele>2160.400000</ele>
        <time>2015-08-05T12:09:21Z</time>
        <speed>1.441000</speed>
      </trkpt>
      <trkpt lat="46.027921255" lon="7.209247764">
        <ele>2160.800000</ele>
        <time>2015-08-05T12:09:22Z</time>
        <speed>1.441000</speed>
      </trkpt>
      <trkpt lat="46.027907257" lon="7.209250111">
        <ele>2161.200000</ele>
        <time>2015-08-05T12:09:23Z</time>
        <speed>1.500000</speed>
      </trkpt>
      <trkpt lat="46.027891750" lon="7.209250781">
        <ele>2161.600000</ele>
        <time>2015-08-05T12:09:24Z</time>
        <speed>1.427000</speed>
      </trkpt>
      <trkpt lat="46.027879513" lon="7.209254469">
        <ele>2162.000000</ele>
        <time>2015-08-05T12:09:25Z</time>
        <speed>1.427000</speed>
      </trkpt>
      <trkpt lat="46.027802986" lon="7.209275927">
        <ele>2162.000000</ele>
        <time>2015-08-05T12:09:31Z</time>
        <speed>1.493000</speed>
      </trkpt>
      <trkpt lat="46.027755461" lon="7.209287746">
        <ele>2162.000000</ele>
        <time>2015-08-05T12:09:35Z</time>
        <speed>1.528000</speed>
      </trkpt>
      <trkpt lat="46.027733835" lon="7.209296630">
        <ele>2162.400000</ele>
        <time>2015-08-05T12:09:37Z</time>
        <speed>1.492000</speed>
      </trkpt>
      <trkpt lat="46.027723945" lon="7.209300235">
        <ele>2163.000000</ele>
        <time>2015-08-05T12:09:38Z</time>
        <speed>1.477000</speed>
      </trkpt>
      <trkpt lat="46.027712462" lon="7.209305012">
        <ele>2163.400000</ele>
        <time>2015-08-05T12:09:39Z</time>
        <speed>1.477000</speed>
      </trkpt>
      <trkpt lat="46.027703241" lon="7.209310712">
        <ele>2163.800000</ele>
        <time>2015-08-05T12:09:40Z</time>
        <speed>1.321000</speed>
      </trkpt>
      <trkpt lat="46.027692094" lon="7.209315154">
        <ele>2164.200000</ele>
        <time>2015-08-05T12:09:41Z</time>
        <speed>1.321000</speed>
      </trkpt>
      <trkpt lat="46.027670049" lon="7.209316915">
        <ele>2164.200000</ele>
        <time>2015-08-05T12:09:43Z</time>
        <speed>1.395000</speed>
      </trkpt>
      <trkpt lat="46.027641467" lon="7.209323369">
        <ele>2164.200000</ele>
        <time>2015-08-05T12:09:45Z</time>
        <speed>1.365000</speed>
      </trkpt>
      <trkpt lat="46.027622272" lon="7.209322698">
        <ele>2164.200000</ele>
        <time>2015-08-05T12:09:47Z</time>
        <speed>1.416000</speed>
      </trkpt>
      <trkpt lat="46.027605425" lon="7.209303168">
        <ele>2164.600000</ele>
        <time>2015-08-05T12:09:49Z</time>
        <speed>1.316000</speed>
      </trkpt>
      <trkpt lat="46.027601234" lon="7.209289506">
        <ele>2165.000000</ele>
        <time>2015-08-05T12:09:50Z</time>
        <speed>1.316000</speed>
      </trkpt>
      <trkpt lat="46.027597462" lon="7.209274251">
        <ele>2165.400000</ele>
        <time>2015-08-05T12:09:51Z</time>
        <speed>1.385000</speed>
      </trkpt>
      <trkpt lat="46.027594947" lon="7.209259415">
        <ele>2165.800000</ele>
        <time>2015-08-05T12:09:52Z</time>
        <speed>1.371000</speed>
      </trkpt>
      <trkpt lat="46.027594361" lon="7.209241813">
        <ele>2166.200000</ele>
        <time>2015-08-05T12:09:53Z</time>
        <speed>1.371000</speed>
      </trkpt>
      <trkpt lat="46.027594947" lon="7.209226474">
        <ele>2166.200000</ele>
        <time>2015-08-05T12:09:54Z</time>
        <speed>1.375000</speed>
      </trkpt>
      <trkpt lat="46.027610873" lon="7.209166878">
        <ele>2166.200000</ele>
        <time>2015-08-05T12:09:58Z</time>
        <speed>1.361000</speed>
      </trkpt>
      <trkpt lat="46.027641802" lon="7.209075432">
        <ele>2166.800000</ele>
        <time>2015-08-05T12:10:04Z</time>
        <speed>1.373000</speed>
      </trkpt>
      <trkpt lat="46.027645323" lon="7.209059590">
        <ele>2167.200000</ele>
        <time>2015-08-05T12:10:05Z</time>
        <speed>1.373000</speed>
      </trkpt>
      <trkpt lat="46.027652112" lon="7.209042659">
        <ele>2168.000000</ele>
        <time>2015-08-05T12:10:06Z</time>
        <speed>1.353000</speed>
      </trkpt>
      <trkpt lat="46.027658985" lon="7.209027990">
        <ele>2168.400000</ele>
        <time>2015-08-05T12:10:07Z</time>
        <speed>1.407000</speed>
      </trkpt>
      <trkpt lat="46.027702487" lon="7.208959510">
        <ele>2168.400000</ele>
        <time>2015-08-05T12:10:13Z</time>
        <speed>1.385000</speed>
      </trkpt>
      <trkpt lat="46.027721095" lon="7.208903435">
        <ele>2168.800000</ele>
        <time>2015-08-05T12:10:17Z</time>
        <speed>1.422000</speed>
      </trkpt>
      <trkpt lat="46.027725454" lon="7.208889186">
        <ele>2169.400000</ele>
        <time>2015-08-05T12:10:18Z</time>
        <speed>1.347000</speed>
      </trkpt>
      <trkpt lat="46.027727549" lon="7.208873428">
        <ele>2169.800000</ele>
        <time>2015-08-05T12:10:19Z</time>
        <speed>1.399000</speed>
      </trkpt>
      <trkpt lat="46.027729980" lon="7.208859598">
        <ele>2170.200000</ele>
        <time>2015-08-05T12:10:20Z</time>
        <speed>1.399000</speed>
      </trkpt>
      <trkpt lat="46.027734506" lon="7.208846438">
        <ele>2170.600000</ele>
        <time>2015-08-05T12:10:21Z</time>
        <speed>1.368000</speed>
      </trkpt>
      <trkpt lat="46.027748085" lon="7.208705958">
        <ele>2170.600000</ele>
        <time>2015-08-05T12:10:29Z</time>
        <speed>1.328000</speed>
      </trkpt>
      <trkpt lat="46.027748252" lon="7.208689613">
        <ele>2171.000000</ele>
        <time>2015-08-05T12:10:30Z</time>
        <speed>1.435000</speed>
      </trkpt>
      <trkpt lat="46.027750180" lon="7.208672849">
        <ele>2171.800000</ele>
        <time>2015-08-05T12:10:31Z</time>
        <speed>1.435000</speed>
      </trkpt>
      <trkpt lat="46.027749593" lon="7.208656504">
        <ele>2172.200000</ele>
        <time>2015-08-05T12:10:32Z</time>
        <speed>1.330000</speed>
      </trkpt>
      <trkpt lat="46.027747163" lon="7.208638064">
        <ele>2172.600000</ele>
        <time>2015-08-05T12:10:33Z</time>
        <speed>1.399000</speed>
      </trkpt>
      <trkpt lat="46.027749342" lon="7.208619875">
        <ele>2172.600000</ele>
        <time>2015-08-05T12:10:34Z</time>
        <speed>1.399000</speed>
      </trkpt>
      <trkpt lat="46.027753114" lon="7.208588527">
        <ele>2172.600000</ele>
        <time>2015-08-05T12:10:36Z</time>
        <speed>1.321000</speed>
      </trkpt>
      <trkpt lat="46.027759400" lon="7.208483837">
        <ele>2173.000000</ele>
        <time>2015-08-05T12:10:42Z</time>
        <speed>1.325000</speed>
      </trkpt>
      <trkpt lat="46.027757053" lon="7.208467912">
        <ele>2173.400000</ele>
        <time>2015-08-05T12:10:43Z</time>
        <speed>1.325000</speed>
      </trkpt>
      <trkpt lat="46.027756299" lon="7.208454165">
        <ele>2173.800000</ele>
        <time>2015-08-05T12:10:44Z</time>
        <speed>1.385000</speed>
      </trkpt>
      <trkpt lat="46.027756969" lon="7.208439245">
        <ele>2174.200000</ele>
        <time>2015-08-05T12:10:45Z</time>
        <speed>1.314000</speed>
      </trkpt>
      <trkpt lat="46.027756886" lon="7.208417201">
        <ele>2174.600000</ele>
        <time>2015-08-05T12:10:46Z</time>
        <speed>1.314000</speed>
      </trkpt>
      <trkpt lat="46.027761160" lon="7.208370095">
        <ele>2174.600000</ele>
        <time>2015-08-05T12:10:49Z</time>
        <speed>1.470000</speed>
      </trkpt>
      <trkpt lat="46.027773398" lon="7.208292646">
        <ele>2175.000000</ele>
        <time>2015-08-05T12:10:54Z</time>
        <speed>1.362000</speed>
      </trkpt>
      <trkpt lat="46.027776080" lon="7.208276217">
        <ele>2175.600000</ele>
        <time>2015-08-05T12:10:55Z</time>
        <speed>1.387000</speed>
      </trkpt>
      <trkpt lat="46.027777505" lon="7.208259789">
        <ele>2176.000000</ele>
        <time>2015-08-05T12:10:56Z</time>
        <speed>1.386000</speed>
      </trkpt>
      <trkpt lat="46.027780271" lon="7.208245875">
        <ele>2176.400000</ele>
        <time>2015-08-05T12:10:57Z</time>
        <speed>1.402000</speed>
      </trkpt>
      <trkpt lat="46.027781528" lon="7.208226345">
        <ele>2176.800000</ele>
        <time>2015-08-05T12:10:58Z</time>
        <speed>1.402000</speed>
      </trkpt>
      <trkpt lat="46.027788821" lon="7.208155937">
        <ele>2176.800000</ele>
        <time>2015-08-05T12:11:02Z</time>
        <speed>1.364000</speed>
      </trkpt>
      <trkpt lat="46.027802232" lon="7.208060970">
        <ele>2176.800000</ele>
        <time>2015-08-05T12:11:08Z</time>
        <speed>1.546000</speed>
      </trkpt>
      <trkpt lat="46.027801813" lon="7.208043117">
        <ele>2177.200000</ele>
        <time>2015-08-05T12:11:09Z</time>
        <speed>1.405000</speed>
      </trkpt>
      <trkpt lat="46.027800472" lon="7.208024844">
        <ele>2177.600000</ele>
        <time>2015-08-05T12:11:10Z</time>
        <speed>1.405000</speed>
      </trkpt>
      <trkpt lat="46.027796783" lon="7.208010176">
        <ele>2178.000000</ele>
        <time>2015-08-05T12:11:11Z</time>
        <speed>1.382000</speed>
      </trkpt>
      <trkpt lat="46.027796951" lon="7.207995340">
        <ele>2178.400000</ele>
        <time>2015-08-05T12:11:12Z</time>
        <speed>1.382000</speed>
      </trkpt>
      <trkpt lat="46.027800555" lon="7.207976313">
        <ele>2178.800000</ele>
        <time>2015-08-05T12:11:13Z</time>
        <speed>1.382000</speed>
      </trkpt>
      <trkpt lat="46.027803657" lon="7.207958711">
        <ele>2178.800000</ele>
        <time>2015-08-05T12:11:14Z</time>
        <speed>1.331000</speed>
      </trkpt>
      <trkpt lat="46.027813883" lon="7.207883358">
        <ele>2178.800000</ele>
        <time>2015-08-05T12:11:19Z</time>
        <speed>1.270000</speed>
      </trkpt>
      <trkpt lat="46.027815978" lon="7.207865839">
        <ele>2178.800000</ele>
        <time>2015-08-05T12:11:20Z</time>
        <speed>1.258000</speed>
      </trkpt>
      <trkpt lat="46.027830982" lon="7.207833318">
        <ele>2179.200000</ele>
        <time>2015-08-05T12:11:22Z</time>
        <speed>1.350000</speed>
      </trkpt>
      <trkpt lat="46.027836262" lon="7.207819990">
        <ele>2179.600000</ele>
        <time>2015-08-05T12:11:23Z</time>
        <speed>1.350000</speed>
      </trkpt>
      <trkpt lat="46.027841124" lon="7.207805154">
        <ele>2180.000000</ele>
        <time>2015-08-05T12:11:24Z</time>
        <speed>1.336000</speed>
      </trkpt>
      <trkpt lat="46.027844979" lon="7.207791995">
        <ele>2180.400000</ele>
        <time>2015-08-05T12:11:25Z</time>
        <speed>1.317000</speed>
      </trkpt>
      <trkpt lat="46.027852020" lon="7.207780428">
        <ele>2181.000000</ele>
        <time>2015-08-05T12:11:26Z</time>
        <speed>1.317000</speed>
      </trkpt>
      <trkpt lat="46.027858390" lon="7.207767436">
        <ele>2181.000000</ele>
        <time>2015-08-05T12:11:27Z</time>
        <speed>1.270000</speed>
      </trkpt>
      <trkpt lat="46.027874568" lon="7.207721922">
        <ele>2181.000000</ele>
        <time>2015-08-05T12:11:30Z</time>
        <speed>1.339000</speed>
      </trkpt>
      <trkpt lat="46.027906670" lon="7.207646066">
        <ele>2181.000000</ele>
        <time>2015-08-05T12:11:35Z</time>
        <speed>1.550000</speed>
      </trkpt>
      <trkpt lat="46.027922764" lon="7.207597870">
        <ele>2181.400000</ele>
        <time>2015-08-05T12:11:38Z</time>
        <speed>1.379000</speed>
      </trkpt>
      <trkpt lat="46.027927374" lon="7.207580352">
        <ele>2181.800000</ele>
        <time>2015-08-05T12:11:39Z</time>
        <speed>1.352000</speed>
      </trkpt>
      <trkpt lat="46.027933492" lon="7.207566019">
        <ele>2182.200000</ele>
        <time>2015-08-05T12:11:40Z</time>
        <speed>1.435000</speed>
      </trkpt>
      <trkpt lat="46.027938102" lon="7.207551770">
        <ele>2182.600000</ele>
        <time>2015-08-05T12:11:41Z</time>
        <speed>1.435000</speed>
      </trkpt>
      <trkpt lat="46.027942880" lon="7.207537604">
        <ele>2183.000000</ele>
        <time>2015-08-05T12:11:42Z</time>
        <speed>1.355000</speed>
      </trkpt>
      <trkpt lat="46.027991495" lon="7.207437021">
        <ele>2183.000000</ele>
        <time>2015-08-05T12:11:49Z</time>
        <speed>1.461000</speed>
      </trkpt>
      <trkpt lat="46.028000548" lon="7.207421431">
        <ele>2183.400000</ele>
        <time>2015-08-05T12:11:50Z</time>
        <speed>1.406000</speed>
      </trkpt>
      <trkpt lat="46.028008846" lon="7.207407601">
        <ele>2183.800000</ele>
        <time>2015-08-05T12:11:51Z</time>
        <speed>1.398000</speed>
      </trkpt>
      <trkpt lat="46.028015635" lon="7.207393687">
        <ele>2184.200000</ele>
        <time>2015-08-05T12:11:52Z</time>
        <speed>1.541000</speed>
      </trkpt>
      <trkpt lat="46.028023346" lon="7.207380779">
        <ele>2184.600000</ele>
        <time>2015-08-05T12:11:53Z</time>
        <speed>1.541000</speed>
      </trkpt>
      <trkpt lat="46.028031896" lon="7.207369631">
        <ele>2185.200000</ele>
        <time>2015-08-05T12:11:54Z</time>
        <speed>1.440000</speed>
      </trkpt>
      <trkpt lat="46.028059808" lon="7.207313053">
        <ele>2185.200000</ele>
        <time>2015-08-05T12:11:58Z</time>
        <speed>1.467000</speed>
      </trkpt>
      <trkpt lat="46.028087887" lon="7.207249853">
        <ele>2185.200000</ele>
        <time>2015-08-05T12:12:02Z</time>
        <speed>1.407000</speed>
      </trkpt>
      <trkpt lat="46.028105740" lon="7.207222780">
        <ele>2185.200000</ele>
        <time>2015-08-05T12:12:04Z</time>
        <speed>1.466000</speed>
      </trkpt>
      <trkpt lat="46.028124264" lon="7.207198556">
        <ele>2185.600000</ele>
        <time>2015-08-05T12:12:06Z</time>
        <speed>1.423000</speed>
      </trkpt>
      <trkpt lat="46.028134909" lon="7.207186570">
        <ele>2186.000000</ele>
        <time>2015-08-05T12:12:07Z</time>
        <speed>1.414000</speed>
      </trkpt>
      <trkpt lat="46.028142034" lon="7.207177098">
        <ele>2186.800000</ele>
        <time>2015-08-05T12:12:08Z</time>
        <speed>1.414000</speed>
      </trkpt>
      <trkpt lat="46.028152092" lon="7.207167375">
        <ele>2187.200000</ele>
        <time>2015-08-05T12:12:09Z</time>
        <speed>1.404000</speed>
      </trkpt>
      <trkpt lat="46.028163995" lon="7.207161592">
        <ele>2187.200000</ele>
        <time>2015-08-05T12:12:10Z</time>
        <speed>1.344000</speed>
      </trkpt>
      <trkpt lat="46.028230798" lon="7.207083808">
        <ele>2187.600000</ele>
        <time>2015-08-05T12:12:17Z</time>
        <speed>1.551000</speed>
      </trkpt>
      <trkpt lat="46.028239599" lon="7.207076432">
        <ele>2188.200000</ele>
        <time>2015-08-05T12:12:18Z</time>
        <speed>1.551000</speed>
      </trkpt>
      <trkpt lat="46.028250161" lon="7.207065368">
        <ele>2188.600000</ele>
        <time>2015-08-05T12:12:19Z</time>
        <speed>1.408000</speed>
      </trkpt>
      <trkpt lat="46.028256363" lon="7.207050699">
        <ele>2189.000000</ele>
        <time>2015-08-05T12:12:20Z</time>
        <speed>1.544000</speed>
      </trkpt>
      <trkpt lat="46.028262650" lon="7.207041898">
        <ele>2189.400000</ele>
        <time>2015-08-05T12:12:21Z</time>
        <speed>1.544000</speed>
      </trkpt>
      <trkpt lat="46.028293076" lon="7.207020022">
        <ele>2189.400000</ele>
        <time>2015-08-05T12:12:24Z</time>
        <speed>1.351000</speed>
      </trkpt>
      <trkpt lat="46.028357700" lon="7.206933185">
        <ele>2189.800000</ele>
        <time>2015-08-05T12:12:31Z</time>
        <speed>1.482000</speed>
      </trkpt>
      <trkpt lat="46.028363735" lon="7.206922540">
        <ele>2190.200000</ele>
        <time>2015-08-05T12:12:32Z</time>
        <speed>1.504000</speed>
      </trkpt>
      <trkpt lat="46.028370525" lon="7.206911476">
        <ele>2191.000000</ele>
        <time>2015-08-05T12:12:33Z</time>
        <speed>1.504000</speed>
      </trkpt>
      <trkpt lat="46.028374464" lon="7.206896808">
        <ele>2191.400000</ele>
        <time>2015-08-05T12:12:34Z</time>
        <speed>1.392000</speed>
      </trkpt>
      <trkpt lat="46.028385696" lon="7.206808881">
        <ele>2191.400000</ele>
        <time>2015-08-05T12:12:39Z</time>
        <speed>1.420000</speed>
      </trkpt>
      <trkpt lat="46.028393240" lon="7.206736462">
        <ele>2191.800000</ele>
        <time>2015-08-05T12:12:43Z</time>
        <speed>1.469000</speed>
      </trkpt>
      <trkpt lat="46.028393072" lon="7.206720117">
        <ele>2192.200000</ele>
        <time>2015-08-05T12:12:44Z</time>
        <speed>1.482000</speed>
      </trkpt>
      <trkpt lat="46.028396509" lon="7.206704191">
        <ele>2192.600000</ele>
        <time>2015-08-05T12:12:45Z</time>
        <speed>1.392000</speed>
      </trkpt>
      <trkpt lat="46.028402711" lon="7.206689356">
        <ele>2193.000000</ele>
        <time>2015-08-05T12:12:46Z</time>
        <speed>1.392000</speed>
      </trkpt>
      <trkpt lat="46.028408411" lon="7.206673849">
        <ele>2193.400000</ele>
        <time>2015-08-05T12:12:47Z</time>
        <speed>1.352000</speed>
      </trkpt>
      <trkpt lat="46.028450991" lon="7.206553653">
        <ele>2193.400000</ele>
        <time>2015-08-05T12:12:55Z</time>
        <speed>1.430000</speed>
      </trkpt>
      <trkpt lat="46.028469515" lon="7.206504870">
        <ele>2194.000000</ele>
        <time>2015-08-05T12:12:58Z</time>
        <speed>1.464000</speed>
      </trkpt>
      <trkpt lat="46.028474879" lon="7.206486513">
        <ele>2194.400000</ele>
        <time>2015-08-05T12:12:59Z</time>
        <speed>1.464000</speed>
      </trkpt>
      <trkpt lat="46.028478232" lon="7.206466062">
        <ele>2194.800000</ele>
        <time>2015-08-05T12:13:00Z</time>
        <speed>1.479000</speed>
      </trkpt>
      <trkpt lat="46.028476891" lon="7.206450304">
        <ele>2195.200000</ele>
        <time>2015-08-05T12:13:01Z</time>
        <speed>1.591000</speed>
      </trkpt>
      <trkpt lat="46.028472868" lon="7.206430103">
        <ele>2195.600000</ele>
        <time>2015-08-05T12:13:02Z</time>
        <speed>1.591000</speed>
      </trkpt>
      <trkpt lat="46.028462139" lon="7.206410657">
        <ele>2195.600000</ele>
        <time>2015-08-05T12:13:03Z</time>
        <speed>1.545000</speed>
      </trkpt>
      <trkpt lat="46.028436993" lon="7.206385092">
        <ele>2195.600000</ele>
        <time>2015-08-05T12:13:05Z</time>
        <speed>1.920000</speed>
      </trkpt>
      <trkpt lat="46.028395922" lon="7.206392888">
        <ele>2195.600000</ele>
        <time>2015-08-05T12:13:08Z</time>
        <speed>1.828000</speed>
      </trkpt>
      <trkpt lat="46.028384355" lon="7.206404622">
        <ele>2195.600000</ele>
        <time>2015-08-05T12:13:09Z</time>
        <speed>1.828000</speed>
      </trkpt>
      <trkpt lat="46.028369351" lon="7.206435216">
        <ele>2195.600000</ele>
        <time>2015-08-05T12:13:11Z</time>
        <speed>1.531000</speed>
      </trkpt>
      <trkpt lat="46.028353677" lon="7.206466229">
        <ele>2195.600000</ele>
        <time>2015-08-05T12:13:13Z</time>
        <speed>1.554000</speed>
      </trkpt>
      <trkpt lat="46.028337919" lon="7.206494644">
        <ele>2196.000000</ele>
        <time>2015-08-05T12:13:15Z</time>
        <speed>1.556000</speed>
      </trkpt>
      <trkpt lat="46.028330292" lon="7.206507384">
        <ele>2196.400000</ele>
        <time>2015-08-05T12:13:16Z</time>
        <speed>1.564000</speed>
      </trkpt>
      <trkpt lat="46.028320652" lon="7.206519957">
        <ele>2196.800000</ele>
        <time>2015-08-05T12:13:17Z</time>
        <speed>1.564000</speed>
      </trkpt>
      <trkpt lat="46.028310007" lon="7.206531776">
        <ele>2197.400000</ele>
        <time>2015-08-05T12:13:18Z</time>
        <speed>1.535000</speed>
      </trkpt>
      <trkpt lat="46.028301626" lon="7.206545187">
        <ele>2197.800000</ele>
        <time>2015-08-05T12:13:19Z</time>
        <speed>1.493000</speed>
      </trkpt>
      <trkpt lat="46.028293160" lon="7.206559017">
        <ele>2197.800000</ele>
        <time>2015-08-05T12:13:20Z</time>
        <speed>1.493000</speed>
      </trkpt>
      <trkpt lat="46.028243790" lon="7.206602184">
        <ele>2197.800000</ele>
        <time>2015-08-05T12:13:25Z</time>
        <speed>1.432000</speed>
      </trkpt>
      <trkpt lat="46.028217723" lon="7.206599250">
        <ele>2197.800000</ele>
        <time>2015-08-05T12:13:27Z</time>
        <speed>1.450000</speed>
      </trkpt>
      <trkpt lat="46.028194756" lon="7.206611823">
        <ele>2198.200000</ele>
        <time>2015-08-05T12:13:29Z</time>
        <speed>1.453000</speed>
      </trkpt>
      <trkpt lat="46.028183105" lon="7.206617271">
        <ele>2198.600000</ele>
        <time>2015-08-05T12:13:30Z</time>
        <speed>1.453000</speed>
      </trkpt>
      <trkpt lat="46.028171287" lon="7.206624563">
        <ele>2199.000000</ele>
        <time>2015-08-05T12:13:31Z</time>
        <speed>1.429000</speed>
      </trkpt>
      <trkpt lat="46.028159468" lon="7.206627916">
        <ele>2199.400000</ele>
        <time>2015-08-05T12:13:32Z</time>
        <speed>1.499000</speed>
      </trkpt>
      <trkpt lat="46.028147566" lon="7.206630766">
        <ele>2199.800000</ele>
        <time>2015-08-05T12:13:33Z</time>
        <speed>1.499000</speed>
      </trkpt>
      <trkpt lat="46.028060813" lon="7.206600088">
        <ele>2199.800000</ele>
        <time>2015-08-05T12:13:40Z</time>
        <speed>1.467000</speed>
      </trkpt>
      <trkpt lat="46.028039188" lon="7.206584582">
        <ele>2199.800000</ele>
        <time>2015-08-05T12:13:42Z</time>
        <speed>1.446000</speed>
      </trkpt>
      <trkpt lat="46.027989819" lon="7.206573182">
        <ele>2199.800000</ele>
        <time>2015-08-05T12:13:46Z</time>
        <speed>1.593000</speed>
      </trkpt>
      <trkpt lat="46.027977246" lon="7.206574775">
        <ele>2200.600000</ele>
        <time>2015-08-05T12:13:47Z</time>
        <speed>1.593000</speed>
      </trkpt>
      <trkpt lat="46.027964757" lon="7.206583576">
        <ele>2201.000000</ele>
        <time>2015-08-05T12:13:48Z</time>
        <speed>1.572000</speed>
      </trkpt>
      <trkpt lat="46.027952016" lon="7.206585839">
        <ele>2201.400000</ele>
        <time>2015-08-05T12:13:49Z</time>
        <speed>1.286000</speed>
      </trkpt>
      <trkpt lat="46.027940282" lon="7.206596400">
        <ele>2201.800000</ele>
        <time>2015-08-05T12:13:50Z</time>
        <speed>1.286000</speed>
      </trkpt>
      <trkpt lat="46.027930810" lon="7.206604614">
        <ele>2201.800000</ele>
        <time>2015-08-05T12:13:51Z</time>
        <speed>1.455000</speed>
      </trkpt>
      <trkpt lat="46.027878423" lon="7.206663707">
        <ele>2201.800000</ele>
        <time>2015-08-05T12:13:57Z</time>
        <speed>1.294000</speed>
      </trkpt>
      <trkpt lat="46.027840369" lon="7.206735456">
        <ele>2202.200000</ele>
        <time>2015-08-05T12:14:02Z</time>
        <speed>1.405000</speed>
      </trkpt>
      <trkpt lat="46.027833329" lon="7.206747191">
        <ele>2202.800000</ele>
        <time>2015-08-05T12:14:03Z</time>
        <speed>1.420000</speed>
      </trkpt>
      <trkpt lat="46.027828467" lon="7.206760853">
        <ele>2203.200000</ele>
        <time>2015-08-05T12:14:04Z</time>
        <speed>1.396000</speed>
      </trkpt>
      <trkpt lat="46.027821259" lon="7.206774180">
        <ele>2203.600000</ele>
        <time>2015-08-05T12:14:05Z</time>
        <speed>1.396000</speed>
      </trkpt>
      <trkpt lat="46.027815727" lon="7.206791196">
        <ele>2204.000000</ele>
        <time>2015-08-05T12:14:06Z</time>
        <speed>1.370000</speed>
      </trkpt>
      <trkpt lat="46.027785216" lon="7.206847354">
        <ele>2204.000000</ele>
        <time>2015-08-05T12:14:10Z</time>
        <speed>1.428000</speed>
      </trkpt>
      <trkpt lat="46.027778176" lon="7.206860598">
        <ele>2204.000000</ele>
        <time>2015-08-05T12:14:11Z</time>
        <speed>1.428000</speed>
      </trkpt>
      <trkpt lat="46.027747498" lon="7.206887755">
        <ele>2204.400000</ele>
        <time>2015-08-05T12:14:14Z</time>
        <speed>1.448000</speed>
      </trkpt>
      <trkpt lat="46.027738781" lon="7.206896808">
        <ele>2204.800000</ele>
        <time>2015-08-05T12:14:15Z</time>
        <speed>1.448000</speed>
      </trkpt>
      <trkpt lat="46.027729728" lon="7.206907872">
        <ele>2205.400000</ele>
        <time>2015-08-05T12:14:16Z</time>
        <speed>1.427000</speed>
      </trkpt>
      <trkpt lat="46.027719838" lon="7.206919690">
        <ele>2205.800000</ele>
        <time>2015-08-05T12:14:17Z</time>
        <speed>1.492000</speed>
      </trkpt>
      <trkpt lat="46.027706594" lon="7.206926563">
        <ele>2206.200000</ele>
        <time>2015-08-05T12:14:18Z</time>
        <speed>1.492000</speed>
      </trkpt>
      <trkpt lat="46.027697290" lon="7.206934694">
        <ele>2206.200000</ele>
        <time>2015-08-05T12:14:19Z</time>
        <speed>1.446000</speed>
      </trkpt>
      <trkpt lat="46.027595869" lon="7.206990769">
        <ele>2206.200000</ele>
        <time>2015-08-05T12:14:28Z</time>
        <speed>1.414000</speed>
      </trkpt>
      <trkpt lat="46.027554714" lon="7.207005186">
        <ele>2206.600000</ele>
        <time>2015-08-05T12:14:31Z</time>
        <speed>1.515000</speed>
      </trkpt>
      <trkpt lat="46.027540716" lon="7.207009796">
        <ele>2207.000000</ele>
        <time>2015-08-05T12:14:32Z</time>
        <speed>1.443000</speed>
      </trkpt>
      <trkpt lat="46.027528060" lon="7.207017088">
        <ele>2207.400000</ele>
        <time>2015-08-05T12:14:33Z</time>
        <speed>1.537000</speed>
      </trkpt>
      <trkpt lat="46.027516912" lon="7.207025889">
        <ele>2207.800000</ele>
        <time>2015-08-05T12:14:34Z</time>
        <speed>1.537000</speed>
      </trkpt>
      <trkpt lat="46.027508614" lon="7.207034941">
        <ele>2208.200000</ele>
        <time>2015-08-05T12:14:35Z</time>
        <speed>1.595000</speed>
      </trkpt>
      <trkpt lat="46.027499896" lon="7.207046760">
        <ele>2208.200000</ele>
        <time>2015-08-05T12:14:36Z</time>
        <speed>1.489000</speed>
      </trkpt>
      <trkpt lat="46.027436697" lon="7.207143738">
        <ele>2208.200000</ele>
        <time>2015-08-05T12:14:43Z</time>
        <speed>1.499000</speed>
      </trkpt>
      <trkpt lat="46.027426303" lon="7.207209620">
        <ele>2208.600000</ele>
        <time>2015-08-05T12:14:47Z</time>
        <speed>1.472000</speed>
      </trkpt>
      <trkpt lat="46.027418005" lon="7.207223115">
        <ele>2209.000000</ele>
        <time>2015-08-05T12:14:48Z</time>
        <speed>1.472000</speed>
      </trkpt>
      <trkpt lat="46.027414569" lon="7.207239125">
        <ele>2209.400000</ele>
        <time>2015-08-05T12:14:49Z</time>
        <speed>1.523000</speed>
      </trkpt>
      <trkpt lat="46.027407193" lon="7.207253709">
        <ele>2210.000000</ele>
        <time>2015-08-05T12:14:50Z</time>
        <speed>1.477000</speed>
      </trkpt>
      <trkpt lat="46.027397721" lon="7.207267288">
        <ele>2210.400000</ele>
        <time>2015-08-05T12:14:51Z</time>
        <speed>1.477000</speed>
      </trkpt>
      <trkpt lat="46.027387747" lon="7.207279861">
        <ele>2210.400000</ele>
        <time>2015-08-05T12:14:52Z</time>
        <speed>1.501000</speed>
      </trkpt>
      <trkpt lat="46.027314405" lon="7.207339791">
        <ele>2210.400000</ele>
        <time>2015-08-05T12:14:58Z</time>
        <speed>1.591000</speed>
      </trkpt>
      <trkpt lat="46.027270651" lon="7.207331074">
        <ele>2211.200000</ele>
        <time>2015-08-05T12:15:01Z</time>
        <speed>1.768000</speed>
      </trkpt>
      <trkpt lat="46.027262102" lon="7.207321435">
        <ele>2211.600000</ele>
        <time>2015-08-05T12:15:02Z</time>
        <speed>1.716000</speed>
      </trkpt>
      <trkpt lat="46.027246595" lon="7.207311460">
        <ele>2212.000000</ele>
        <time>2015-08-05T12:15:03Z</time>
        <speed>1.677000</speed>
      </trkpt>
      <trkpt lat="46.027232598" lon="7.207300983">
        <ele>2212.400000</ele>
        <time>2015-08-05T12:15:04Z</time>
        <speed>1.744000</speed>
      </trkpt>
      <trkpt lat="46.027150623" lon="7.207256894">
        <ele>2212.400000</ele>
        <time>2015-08-05T12:15:09Z</time>
        <speed>2.157000</speed>
      </trkpt>
      <trkpt lat="46.027070911" lon="7.207233509">
        <ele>2212.800000</ele>
        <time>2015-08-05T12:15:14Z</time>
        <speed>1.884000</speed>
      </trkpt>
      <trkpt lat="46.027053225" lon="7.207232335">
        <ele>2213.200000</ele>
        <time>2015-08-05T12:15:15Z</time>
        <speed>1.855000</speed>
      </trkpt>
      <trkpt lat="46.027038389" lon="7.207230575">
        <ele>2213.600000</ele>
        <time>2015-08-05T12:15:16Z</time>
        <speed>1.754000</speed>
      </trkpt>
      <trkpt lat="46.027024726" lon="7.207231581">
        <ele>2214.000000</ele>
        <time>2015-08-05T12:15:17Z</time>
        <speed>1.754000</speed>
      </trkpt>
      <trkpt lat="46.027009555" lon="7.207229737">
        <ele>2214.400000</ele>
        <time>2015-08-05T12:15:18Z</time>
        <speed>1.792000</speed>
      </trkpt>
      <trkpt lat="46.026959934" lon="7.207231329">
        <ele>2214.400000</ele>
        <time>2015-08-05T12:15:21Z</time>
        <speed>1.802000</speed>
      </trkpt>
      <trkpt lat="46.026942919" lon="7.207234515">
        <ele>2214.400000</ele>
        <time>2015-08-05T12:15:22Z</time>
        <speed>1.817000</speed>
      </trkpt>
      <trkpt lat="46.026889778" lon="7.207249015">
        <ele>2214.400000</ele>
        <time>2015-08-05T12:15:26Z</time>
        <speed>1.703000</speed>
      </trkpt>
      <trkpt lat="46.026858681" lon="7.207256727">
        <ele>2214.400000</ele>
        <time>2015-08-05T12:15:28Z</time>
        <speed>1.742000</speed>
      </trkpt>
      <trkpt lat="46.026763295" lon="7.207317076">
        <ele>2214.400000</ele>
        <time>2015-08-05T12:15:34Z</time>
        <speed>2.680000</speed>
      </trkpt>
      <trkpt lat="46.026697748" lon="7.207363680">
        <ele>2214.800000</ele>
        <time>2015-08-05T12:15:39Z</time>
        <speed>1.691000</speed>
      </trkpt>
      <trkpt lat="46.026683751" lon="7.207373906">
        <ele>2215.400000</ele>
        <time>2015-08-05T12:15:40Z</time>
        <speed>1.691000</speed>
      </trkpt>
      <trkpt lat="46.026672016" lon="7.207385473">
        <ele>2215.800000</ele>
        <time>2015-08-05T12:15:41Z</time>
        <speed>1.844000</speed>
      </trkpt>
      <trkpt lat="46.026658605" lon="7.207396285">
        <ele>2216.200000</ele>
        <time>2015-08-05T12:15:42Z</time>
        <speed>1.796000</speed>
      </trkpt>
      <trkpt lat="46.026642428" lon="7.207403745">
        <ele>2216.600000</ele>
        <time>2015-08-05T12:15:43Z</time>
        <speed>1.742000</speed>
      </trkpt>
      <trkpt lat="46.026587862" lon="7.207456216">
        <ele>2216.600000</ele>
        <time>2015-08-05T12:15:47Z</time>
        <speed>1.906000</speed>
      </trkpt>
      <trkpt lat="46.026545784" lon="7.207637265">
        <ele>2216.600000</ele>
        <time>2015-08-05T12:15:55Z</time>
        <speed>2.015000</speed>
      </trkpt>
      <trkpt lat="46.026520052" lon="7.207732148">
        <ele>2217.000000</ele>
        <time>2015-08-05T12:15:59Z</time>
        <speed>2.170000</speed>
      </trkpt>
      <trkpt lat="46.026516615" lon="7.207757126">
        <ele>2217.600000</ele>
        <time>2015-08-05T12:16:00Z</time>
        <speed>2.148000</speed>
      </trkpt>
      <trkpt lat="46.026511754" lon="7.207782607">
        <ele>2218.000000</ele>
        <time>2015-08-05T12:16:01Z</time>
        <speed>2.183000</speed>
      </trkpt>
      <trkpt lat="46.026504378" lon="7.207810267">
        <ele>2218.400000</ele>
        <time>2015-08-05T12:16:02Z</time>
        <speed>2.142000</speed>
      </trkpt>
      <trkpt lat="46.026499852" lon="7.207835916">
        <ele>2218.800000</ele>
        <time>2015-08-05T12:16:03Z</time>
        <speed>2.142000</speed>
      </trkpt>
      <trkpt lat="46.026494236" lon="7.208033142">
        <ele>2218.800000</ele>
        <time>2015-08-05T12:16:10Z</time>
        <speed>2.151000</speed>
      </trkpt>
      <trkpt lat="46.026505635" lon="7.208313685">
        <ele>2219.200000</ele>
        <time>2015-08-05T12:16:19Z</time>
        <speed>2.540000</speed>
      </trkpt>
      <trkpt lat="46.026511838" lon="7.208344111">
        <ele>2219.600000</ele>
        <time>2015-08-05T12:16:20Z</time>
        <speed>2.537000</speed>
      </trkpt>
      <trkpt lat="46.026518962" lon="7.208375878">
        <ele>2220.200000</ele>
        <time>2015-08-05T12:16:21Z</time>
        <speed>2.561000</speed>
      </trkpt>
      <trkpt lat="46.026525584" lon="7.208406556">
        <ele>2220.600000</ele>
        <time>2015-08-05T12:16:22Z</time>
        <speed>2.598000</speed>
      </trkpt>
      <trkpt lat="46.026525584" lon="7.208435977">
        <ele>2221.000000</ele>
        <time>2015-08-05T12:16:23Z</time>
        <speed>2.570000</speed>
      </trkpt>
      <trkpt lat="46.026536732" lon="7.208496745">
        <ele>2221.000000</ele>
        <time>2015-08-05T12:16:25Z</time>
        <speed>2.393000</speed>
      </trkpt>
      <trkpt lat="46.026543521" lon="7.208679638">
        <ele>2221.000000</ele>
        <time>2015-08-05T12:16:31Z</time>
        <speed>2.464000</speed>
      </trkpt>
      <trkpt lat="46.026551903" lon="7.208776533">
        <ele>2221.400000</ele>
        <time>2015-08-05T12:16:35Z</time>
        <speed>1.980000</speed>
      </trkpt>
      <trkpt lat="46.026556849" lon="7.208801679">
        <ele>2221.800000</ele>
        <time>2015-08-05T12:16:36Z</time>
        <speed>1.980000</speed>
      </trkpt>
      <trkpt lat="46.026560788" lon="7.208827076">
        <ele>2222.200000</ele>
        <time>2015-08-05T12:16:37Z</time>
        <speed>1.903000</speed>
      </trkpt>
      <trkpt lat="46.026560620" lon="7.208849204">
        <ele>2222.800000</ele>
        <time>2015-08-05T12:16:38Z</time>
        <speed>1.976000</speed>
      </trkpt>
      <trkpt lat="46.026559866" lon="7.208871416">
        <ele>2223.200000</ele>
        <time>2015-08-05T12:16:39Z</time>
        <speed>1.976000</speed>
      </trkpt>
      <trkpt lat="46.026571852" lon="7.209034277">
        <ele>2223.200000</ele>
        <time>2015-08-05T12:16:46Z</time>
        <speed>1.811000</speed>
      </trkpt>
      <trkpt lat="46.026593561" lon="7.209221696">
        <ele>2223.600000</ele>
        <time>2015-08-05T12:16:54Z</time>
        <speed>1.941000</speed>
      </trkpt>
      <trkpt lat="46.026600770" lon="7.209241394">
        <ele>2224.000000</ele>
        <time>2015-08-05T12:16:55Z</time>
        <speed>1.960000</speed>
      </trkpt>
      <trkpt lat="46.026609906" lon="7.209262348">
        <ele>2224.600000</ele>
        <time>2015-08-05T12:16:56Z</time>
        <speed>1.921000</speed>
      </trkpt>
      <trkpt lat="46.026618456" lon="7.209285650">
        <ele>2225.000000</ele>
        <time>2015-08-05T12:16:57Z</time>
        <speed>1.876000</speed>
      </trkpt>
      <trkpt lat="46.026625748" lon="7.209308784">
        <ele>2225.400000</ele>
        <time>2015-08-05T12:16:58Z</time>
        <speed>1.876000</speed>
      </trkpt>
      <trkpt lat="46.026649720" lon="7.209374582">
        <ele>2225.400000</ele>
        <time>2015-08-05T12:17:01Z</time>
        <speed>1.896000</speed>
      </trkpt>
      <trkpt lat="46.026676207" lon="7.209479272">
        <ele>2225.400000</ele>
        <time>2015-08-05T12:17:05Z</time>
        <speed>2.195000</speed>
      </trkpt>
      <trkpt lat="46.026650223" lon="7.209516739">
        <ele>2225.400000</ele>
        <time>2015-08-05T12:17:07Z</time>
        <speed>2.181000</speed>
      </trkpt>
      <trkpt lat="46.026554083" lon="7.209511459">
        <ele>2225.400000</ele>
        <time>2015-08-05T12:17:11Z</time>
        <speed>2.450000</speed>
      </trkpt>
      <trkpt lat="46.026352246" lon="7.209441218">
        <ele>2225.400000</ele>
        <time>2015-08-05T12:17:17Z</time>
        <speed>3.975000</speed>
      </trkpt>
      <trkpt lat="46.026182429" lon="7.209367290">
        <ele>2225.400000</ele>
        <time>2015-08-05T12:17:21Z</time>
        <speed>5.197000</speed>
      </trkpt>
      <trkpt lat="46.026088133" lon="7.209343988">
        <ele>2225.400000</ele>
        <time>2015-08-05T12:17:23Z</time>
        <speed>5.300000</speed>
      </trkpt>
      <trkpt lat="46.025952849" lon="7.209293780">
        <ele>2225.400000</ele>
        <time>2015-08-05T12:17:26Z</time>
        <speed>5.739000</speed>
      </trkpt>
      <trkpt lat="46.025876909" lon="7.209302581">
        <ele>2225.400000</ele>
        <time>2015-08-05T12:17:28Z</time>
        <speed>4.770000</speed>
      </trkpt>
      <trkpt lat="46.025785294" lon="7.209359914">
        <ele>2225.400000</ele>
        <time>2015-08-05T12:17:32Z</time>
        <speed>2.824000</speed>
      </trkpt>
      <trkpt lat="46.025762999" lon="7.209382880">
        <ele>2225.400000</ele>
        <time>2015-08-05T12:17:33Z</time>
        <speed>3.066000</speed>
      </trkpt>
      <trkpt lat="46.025620674" lon="7.209526462">
        <ele>2225.400000</ele>
        <time>2015-08-05T12:17:40Z</time>
        <speed>2.660000</speed>
      </trkpt>
      <trkpt lat="46.025512128" lon="7.209611958">
        <ele>2225.400000</ele>
        <time>2015-08-05T12:17:46Z</time>
        <speed>2.490000</speed>
      </trkpt>
      <trkpt lat="46.025503662" lon="7.209613718">
        <ele>2225.400000</ele>
        <time>2015-08-05T12:17:48Z</time>
        <speed>2.062000</speed>
      </trkpt>
      <trkpt lat="46.025503662" lon="7.209613885">
        <ele>2225.400000</ele>
        <time>2015-08-05T12:17:50Z</time>
        <speed>0.000000</speed>
      </trkpt>
      <trkpt lat="46.025506512" lon="7.209611203">
        <ele>2225.400000</ele>
        <time>2015-08-05T12:17:56Z</time>
        <speed>0.000000</speed>
      </trkpt>
      <trkpt lat="46.025506512" lon="7.209611203">
        <ele>2225.400000</ele>
        <time>2015-08-05T12:18:02Z</time>
        <speed>0.000000</speed>
      </trkpt>
      <trkpt lat="46.025506512" lon="7.209611203">
        <ele>2225.400000</ele>
        <time>2015-08-05T12:18:08Z</time>
        <speed>0.000000</speed>
      </trkpt>
      <trkpt lat="46.025506512" lon="7.209611203">
        <ele>2225.400000</ele>
        <time>2015-08-05T12:18:12Z</time>
        <speed>0.000000</speed>
      </trkpt>
      <trkpt lat="46.025506512" lon="7.209611203">
        <ele>2225.800000</ele>
        <time>2015-08-05T12:18:16Z</time>
        <speed>0.000000</speed>
      </trkpt>
      <trkpt lat="46.025506512" lon="7.209611203">
        <ele>2226.200000</ele>
        <time>2015-08-05T12:18:17Z</time>
        <speed>0.000000</speed>
      </trkpt>
      <trkpt lat="46.025506512" lon="7.209611203">
        <ele>2226.600000</ele>
        <time>2015-08-05T12:18:18Z</time>
        <speed>0.000000</speed>
      </trkpt>
      <trkpt lat="46.025506512" lon="7.209611203">
        <ele>2227.000000</ele>
        <time>2015-08-05T12:18:19Z</time>
        <speed>0.000000</speed>
      </trkpt>
      <trkpt lat="46.025506512" lon="7.209611203">
        <ele>2227.400000</ele>
        <time>2015-08-05T12:18:20Z</time>
        <speed>0.000000</speed>
      </trkpt>
      <trkpt lat="46.025506512" lon="7.209611203">
        <ele>2227.400000</ele>
        <time>2015-08-05T12:18:21Z</time>
        <speed>0.000000</speed>
      </trkpt>
      <trkpt lat="46.025505926" lon="7.209611455">
        <ele>2227.400000</ele>
        <time>2015-08-05T12:18:34Z</time>
        <speed>0.000000</speed>
      </trkpt>
      <trkpt lat="46.025505926" lon="7.209611455">
        <ele>2227.400000</ele>
        <time>2015-08-05T12:18:38Z</time>
        <speed>0.000000</speed>
      </trkpt>
      <trkpt lat="46.025505926" lon="7.209611455">
        <ele>2227.400000</ele>
        <time>2015-08-05T12:18:43Z</time>
        <speed>0.000000</speed>
      </trkpt>
      <trkpt lat="46.025505926" lon="7.209611455">
        <ele>2227.400000</ele>
        <time>2015-08-05T12:18:48Z</time>
        <speed>0.000000</speed>
      </trkpt>
      <trkpt lat="46.025503411" lon="7.209612712">
        <ele>2227.400000</ele>
        <time>2015-08-05T12:18:59Z</time>
        <speed>0.000000</speed>
      </trkpt>
      <trkpt lat="46.025500310" lon="7.209608856">
        <ele>2227.400000</ele>
        <time>2015-08-05T12:19:07Z</time>
        <speed>0.000000</speed>
      </trkpt>
      <trkpt lat="46.025500310" lon="7.209608856">
        <ele>2227.400000</ele>
        <time>2015-08-05T12:19:20Z</time>
        <speed>0.000000</speed>
      </trkpt>
      <trkpt lat="46.025500310" lon="7.209608856">
        <ele>2227.400000</ele>
        <time>2015-08-05T12:19:30Z</time>
        <speed>0.000000</speed>
      </trkpt>
      <trkpt lat="46.025500310" lon="7.209608856">
        <ele>2227.400000</ele>
        <time>2015-08-05T12:19:31Z</time>
        <speed>0.000000</speed>
      </trkpt>
      <trkpt lat="46.025500310" lon="7.209608856">
        <ele>2227.400000</ele>
        <time>2015-08-05T12:19:33Z</time>
        <speed>0.000000</speed>
      </trkpt>
      <trkpt lat="46.025499220" lon="7.209611203">
        <ele>2227.400000</ele>
        <time>2015-08-05T12:19:46Z</time>
        <speed>0.000000</speed>
      </trkpt>
      <trkpt lat="46.025499220" lon="7.209611203">
        <ele>2227.400000</ele>
        <time>2015-08-05T12:20:04Z</time>
        <speed>0.000000</speed>
      </trkpt>
      <trkpt lat="46.025499220" lon="7.209611203">
        <ele>2227.400000</ele>
        <time>2015-08-05T12:20:19Z</time>
        <speed>0.000000</speed>
      </trkpt>
      <trkpt lat="46.025500561" lon="7.209614975">
        <ele>2227.400000</ele>
        <time>2015-08-05T12:20:33Z</time>
        <speed>0.000000</speed>
      </trkpt>
      <trkpt lat="46.025500561" lon="7.209614975">
        <ele>2227.400000</ele>
        <time>2015-08-05T12:20:35Z</time>
        <speed>0.000000</speed>
      </trkpt>
      <trkpt lat="46.025500561" lon="7.209614975">
        <ele>2227.400000</ele>
        <time>2015-08-05T12:20:50Z</time>
        <speed>0.000000</speed>
      </trkpt>
      <trkpt lat="46.025500980" lon="7.209615226">
        <ele>2227.400000</ele>
        <time>2015-08-05T12:21:04Z</time>
        <speed>0.000000</speed>
      </trkpt>
      <trkpt lat="46.025499471" lon="7.209613969">
        <ele>2227.400000</ele>
        <time>2015-08-05T12:21:14Z</time>
        <speed>0.000000</speed>
      </trkpt>
      <trkpt lat="46.025499471" lon="7.209613969">
        <ele>2227.400000</ele>
        <time>2015-08-05T12:21:20Z</time>
        <speed>0.000000</speed>
      </trkpt>
      <trkpt lat="46.025499471" lon="7.209613969">
        <ele>2227.400000</ele>
        <time>2015-08-05T12:21:24Z</time>
        <speed>0.000000</speed>
      </trkpt>
      <trkpt lat="46.025499471" lon="7.209613969">
        <ele>2227.400000</ele>
        <time>2015-08-05T12:21:35Z</time>
        <speed>0.000000</speed>
      </trkpt>
      <trkpt lat="46.025499471" lon="7.209613969">
        <ele>2227.400000</ele>
        <time>2015-08-05T12:21:36Z</time>
        <speed>0.000000</speed>
      </trkpt>
      <trkpt lat="46.025499471" lon="7.209613969">
        <ele>2227.400000</ele>
        <time>2015-08-05T12:21:50Z</time>
        <speed>0.000000</speed>
      </trkpt>
      <trkpt lat="46.025501483" lon="7.209617490">
        <ele>2227.400000</ele>
        <time>2015-08-05T12:22:03Z</time>
        <speed>0.000000</speed>
      </trkpt>
      <trkpt lat="46.025501483" lon="7.209617490">
        <ele>2227.400000</ele>
        <time>2015-08-05T12:22:07Z</time>
        <speed>0.000000</speed>
      </trkpt>
      <trkpt lat="46.025501483" lon="7.209617490">
        <ele>2227.400000</ele>
        <time>2015-08-05T12:22:11Z</time>
        <speed>0.000000</speed>
      </trkpt>
      <trkpt lat="46.025501483" lon="7.209617490">
        <ele>2227.400000</ele>
        <time>2015-08-05T12:22:13Z</time>
        <speed>0.000000</speed>
      </trkpt>
      <trkpt lat="46.025501483" lon="7.209617490">
        <ele>2227.400000</ele>
        <time>2015-08-05T12:22:16Z</time>
        <speed>0.000000</speed>
      </trkpt>
      <trkpt lat="46.025501483" lon="7.209617490">
        <ele>2227.400000</ele>
        <time>2015-08-05T12:22:24Z</time>
        <speed>0.000000</speed>
      </trkpt>
      <trkpt lat="46.025501483" lon="7.209617490">
        <ele>2227.400000</ele>
        <time>2015-08-05T12:22:27Z</time>
        <speed>0.000000</speed>
      </trkpt>
      <trkpt lat="46.025501483" lon="7.209617490">
        <ele>2227.400000</ele>
        <time>2015-08-05T12:22:31Z</time>
        <speed>0.000000</speed>
      </trkpt>
      <trkpt lat="46.025501483" lon="7.209617490">
        <ele>2227.400000</ele>
        <time>2015-08-05T12:22:32Z</time>
        <speed>0.000000</speed>
      </trkpt>
      <trkpt lat="46.025501483" lon="7.209617154">
        <ele>2227.400000</ele>
        <time>2015-08-05T12:22:44Z</time>
        <speed>0.000000</speed>
      </trkpt>
      <trkpt lat="46.025501483" lon="7.209617154">
        <ele>2227.400000</ele>
        <time>2015-08-05T12:22:55Z</time>
        <speed>0.000000</speed>
      </trkpt>
      <trkpt lat="46.025487402" lon="7.209618998">
        <ele>2227.400000</ele>
        <time>2015-08-05T12:22:59Z</time>
        <speed>1.344000</speed>
      </trkpt>
      <trkpt lat="46.025449012" lon="7.209618579">
        <ele>2227.400000</ele>
        <time>2015-08-05T12:23:02Z</time>
        <speed>4.435000</speed>
      </trkpt>
      <trkpt lat="46.025434093" lon="7.209621681">
        <ele>2227.400000</ele>
        <time>2015-08-05T12:23:03Z</time>
        <speed>4.435000</speed>
      </trkpt>
      <trkpt lat="46.025390088" lon="7.209608605">
        <ele>2227.400000</ele>
        <time>2015-08-05T12:23:07Z</time>
        <speed>1.280000</speed>
      </trkpt>
      <trkpt lat="46.025382292" lon="7.209610281">
        <ele>2227.400000</ele>
        <time>2015-08-05T12:23:08Z</time>
        <speed>1.447000</speed>
      </trkpt>
      <trkpt lat="46.025342562" lon="7.209605001">
        <ele>2227.400000</ele>
        <time>2015-08-05T12:23:12Z</time>
        <speed>0.000000</speed>
      </trkpt>
      <trkpt lat="46.025332336" lon="7.209607012">
        <ele>2228.000000</ele>
        <time>2015-08-05T12:23:13Z</time>
        <speed>0.000000</speed>
      </trkpt>
      <trkpt lat="46.025316662" lon="7.209603827">
        <ele>2228.400000</ele>
        <time>2015-08-05T12:23:14Z</time>
        <speed>1.226000</speed>
      </trkpt>
      <trkpt lat="46.025304005" lon="7.209601899">
        <ele>2228.800000</ele>
        <time>2015-08-05T12:23:15Z</time>
        <speed>1.226000</speed>
      </trkpt>
      <trkpt lat="46.025295121" lon="7.209600474">
        <ele>2229.200000</ele>
        <time>2015-08-05T12:23:16Z</time>
        <speed>1.156000</speed>
      </trkpt>
      <trkpt lat="46.025283302" lon="7.209605001">
        <ele>2229.600000</ele>
        <time>2015-08-05T12:23:17Z</time>
        <speed>1.156000</speed>
      </trkpt>
      <trkpt lat="46.025271568" lon="7.209600893">
        <ele>2229.600000</ele>
        <time>2015-08-05T12:23:18Z</time>
        <speed>1.244000</speed>
      </trkpt>
      <trkpt lat="46.025264024" lon="7.209595445">
        <ele>2229.600000</ele>
        <time>2015-08-05T12:23:19Z</time>
        <speed>1.140000</speed>
      </trkpt>
      <trkpt lat="46.025243823" lon="7.209597038">
        <ele>2229.600000</ele>
        <time>2015-08-05T12:23:21Z</time>
        <speed>1.172000</speed>
      </trkpt>
      <trkpt lat="46.025211972" lon="7.209597876">
        <ele>2230.200000</ele>
        <time>2015-08-05T12:23:24Z</time>
        <speed>1.140000</speed>
      </trkpt>
      <trkpt lat="46.025204009" lon="7.209595697">
        <ele>2230.600000</ele>
        <time>2015-08-05T12:23:25Z</time>
        <speed>1.291000</speed>
      </trkpt>
      <trkpt lat="46.025191017" lon="7.209593936">
        <ele>2231.000000</ele>
        <time>2015-08-05T12:23:26Z</time>
        <speed>1.281000</speed>
      </trkpt>
      <trkpt lat="46.025178780" lon="7.209589410">
        <ele>2231.400000</ele>
        <time>2015-08-05T12:23:27Z</time>
        <speed>1.281000</speed>
      </trkpt>
      <trkpt lat="46.025169308" lon="7.209583291">
        <ele>2231.800000</ele>
        <time>2015-08-05T12:23:28Z</time>
        <speed>1.239000</speed>
      </trkpt>
      <trkpt lat="46.025139050" lon="7.209575496">
        <ele>2231.800000</ele>
        <time>2015-08-05T12:23:31Z</time>
        <speed>1.155000</speed>
      </trkpt>
      <trkpt lat="46.025111306" lon="7.209579436">
        <ele>2232.200000</ele>
        <time>2015-08-05T12:23:34Z</time>
        <speed>1.161000</speed>
      </trkpt>
      <trkpt lat="46.025101834" lon="7.209572311">
        <ele>2232.600000</ele>
        <time>2015-08-05T12:23:35Z</time>
        <speed>1.202000</speed>
      </trkpt>
      <trkpt lat="46.025094374" lon="7.209566444">
        <ele>2233.000000</ele>
        <time>2015-08-05T12:23:36Z</time>
        <speed>1.202000</speed>
      </trkpt>
      <trkpt lat="46.025084400" lon="7.209560660">
        <ele>2233.400000</ele>
        <time>2015-08-05T12:23:37Z</time>
        <speed>1.176000</speed>
      </trkpt>
      <trkpt lat="46.025075096" lon="7.209555966">
        <ele>2234.000000</ele>
        <time>2015-08-05T12:23:38Z</time>
        <speed>1.176000</speed>
      </trkpt>
      <trkpt lat="46.025031426" lon="7.209555212">
        <ele>2234.400000</ele>
        <time>2015-08-05T12:23:42Z</time>
        <speed>1.422000</speed>
      </trkpt>
      <trkpt lat="46.025022457" lon="7.209556553">
        <ele>2234.800000</ele>
        <time>2015-08-05T12:23:43Z</time>
        <speed>1.422000</speed>
      </trkpt>
      <trkpt lat="46.025016003" lon="7.209558900">
        <ele>2235.200000</ele>
        <time>2015-08-05T12:23:44Z</time>
        <speed>1.183000</speed>
      </trkpt>
      <trkpt lat="46.025003263" lon="7.209556721">
        <ele>2235.600000</ele>
        <time>2015-08-05T12:23:45Z</time>
        <speed>1.148000</speed>
      </trkpt>
      <trkpt lat="46.024990271" lon="7.209555715">
        <ele>2236.000000</ele>
        <time>2015-08-05T12:23:46Z</time>
        <speed>1.148000</speed>
      </trkpt>
      <trkpt lat="46.024958336" lon="7.209550099">
        <ele>2236.000000</ele>
        <time>2015-08-05T12:23:49Z</time>
        <speed>1.419000</speed>
      </trkpt>
      <trkpt lat="46.024928915" lon="7.209539035">
        <ele>2236.400000</ele>
        <time>2015-08-05T12:23:52Z</time>
        <speed>1.099000</speed>
      </trkpt>
      <trkpt lat="46.024923132" lon="7.209539538">
        <ele>2236.800000</ele>
        <time>2015-08-05T12:23:53Z</time>
        <speed>1.099000</speed>
      </trkpt>
      <trkpt lat="46.024917013" lon="7.209541885">
        <ele>2237.200000</ele>
        <time>2015-08-05T12:23:54Z</time>
        <speed>1.177000</speed>
      </trkpt>
      <trkpt lat="46.024906117" lon="7.209541214">
        <ele>2237.600000</ele>
        <time>2015-08-05T12:23:55Z</time>
        <speed>1.177000</speed>
      </trkpt>
      <trkpt lat="46.024896310" lon="7.209540795">
        <ele>2238.000000</ele>
        <time>2015-08-05T12:23:56Z</time>
        <speed>0.958000</speed>
      </trkpt>
      <trkpt lat="46.024885078" lon="7.209534257">
        <ele>2238.000000</ele>
        <time>2015-08-05T12:23:57Z</time>
        <speed>0.958000</speed>
      </trkpt>
      <trkpt lat="46.024851047" lon="7.209541382">
        <ele>2238.000000</ele>
        <time>2015-08-05T12:24:01Z</time>
        <speed>1.163000</speed>
      </trkpt>
      <trkpt lat="46.024840486" lon="7.209532581">
        <ele>2238.400000</ele>
        <time>2015-08-05T12:24:02Z</time>
        <speed>1.148000</speed>
      </trkpt>
      <trkpt lat="46.024844593" lon="7.209533838">
        <ele>2239.000000</ele>
        <time>2015-08-05T12:24:03Z</time>
        <speed>2.180000</speed>
      </trkpt>
      <trkpt lat="46.024843671" lon="7.209533335">
        <ele>2239.400000</ele>
        <time>2015-08-05T12:24:04Z</time>
        <speed>2.180000</speed>
      </trkpt>
      <trkpt lat="46.024843420" lon="7.209532832">
        <ele>2239.800000</ele>
        <time>2015-08-05T12:24:05Z</time>
        <speed>0.000000</speed>
      </trkpt>
      <trkpt lat="46.024843420" lon="7.209532832">
        <ele>2240.200000</ele>
        <time>2015-08-05T12:24:06Z</time>
        <speed>0.000000</speed>
      </trkpt>
      <trkpt lat="46.024831769" lon="7.209535347">
        <ele>2240.200000</ele>
        <time>2015-08-05T12:24:12Z</time>
        <speed>0.000000</speed>
      </trkpt>
      <trkpt lat="46.024806037" lon="7.209534760">
        <ele>2240.200000</ele>
        <time>2015-08-05T12:24:18Z</time>
        <speed>0.778000</speed>
      </trkpt>
      <trkpt lat="46.024805869" lon="7.209534676">
        <ele>2240.200000</ele>
        <time>2015-08-05T12:24:23Z</time>
        <speed>0.000000</speed>
      </trkpt>
      <trkpt lat="46.024795224" lon="7.209527384">
        <ele>2240.200000</ele>
        <time>2015-08-05T12:24:29Z</time>
        <speed>0.000000</speed>
      </trkpt>
      <trkpt lat="46.024771084" lon="7.209528055">
        <ele>2240.600000</ele>
        <time>2015-08-05T12:24:33Z</time>
        <speed>0.793000</speed>
      </trkpt>
      <trkpt lat="46.024770330" lon="7.209528222">
        <ele>2241.000000</ele>
        <time>2015-08-05T12:24:34Z</time>
        <speed>0.793000</speed>
      </trkpt>
      <trkpt lat="46.024770833" lon="7.209527803">
        <ele>2241.400000</ele>
        <time>2015-08-05T12:24:35Z</time>
        <speed>0.793000</speed>
      </trkpt>
      <trkpt lat="46.024767564" lon="7.209528390">
        <ele>2241.800000</ele>
        <time>2015-08-05T12:24:36Z</time>
        <speed>0.793000</speed>
      </trkpt>
      <trkpt lat="46.024765049" lon="7.209527887">
        <ele>2242.200000</ele>
        <time>2015-08-05T12:24:37Z</time>
        <speed>0.000000</speed>
      </trkpt>
      <trkpt lat="46.024738898" lon="7.209524534">
        <ele>2242.200000</ele>
        <time>2015-08-05T12:24:41Z</time>
        <speed>0.895000</speed>
      </trkpt>
      <trkpt lat="46.024736048" lon="7.209521936">
        <ele>2242.200000</ele>
        <time>2015-08-05T12:24:42Z</time>
        <speed>1.795000</speed>
      </trkpt>
      <trkpt lat="46.024729175" lon="7.209525456">
        <ele>2242.200000</ele>
        <time>2015-08-05T12:24:45Z</time>
        <speed>1.758000</speed>
      </trkpt>
      <trkpt lat="46.024715009" lon="7.209523361">
        <ele>2242.200000</ele>
        <time>2015-08-05T12:24:47Z</time>
        <speed>0.000000</speed>
      </trkpt>
      <trkpt lat="46.024645523" lon="7.209531743">
        <ele>2242.200000</ele>
        <time>2015-08-05T12:24:54Z</time>
        <speed>0.894000</speed>
      </trkpt>
      <trkpt lat="46.024601267" lon="7.209546662">
        <ele>2242.600000</ele>
        <time>2015-08-05T12:24:59Z</time>
        <speed>1.021000</speed>
      </trkpt>
      <trkpt lat="46.024594142" lon="7.209544064">
        <ele>2243.200000</ele>
        <time>2015-08-05T12:25:00Z</time>
        <speed>0.979000</speed>
      </trkpt>
      <trkpt lat="46.024583413" lon="7.209544818">
        <ele>2243.600000</ele>
        <time>2015-08-05T12:25:01Z</time>
        <speed>0.979000</speed>
      </trkpt>
      <trkpt lat="46.024577043" lon="7.209544399">
        <ele>2244.000000</ele>
        <time>2015-08-05T12:25:02Z</time>
        <speed>0.979000</speed>
      </trkpt>
      <trkpt lat="46.024567488" lon="7.209546327">
        <ele>2244.400000</ele>
        <time>2015-08-05T12:25:03Z</time>
        <speed>0.850000</speed>
      </trkpt>
      <trkpt lat="46.024545276" lon="7.209558230">
        <ele>2244.400000</ele>
        <time>2015-08-05T12:25:07Z</time>
        <speed>0.798000</speed>
      </trkpt>
      <trkpt lat="46.024494900" lon="7.209571808">
        <ele>2244.400000</ele>
        <time>2015-08-05T12:25:14Z</time>
        <speed>0.842000</speed>
      </trkpt>
      <trkpt lat="46.024482914" lon="7.209572982">
        <ele>2244.800000</ele>
        <time>2015-08-05T12:25:16Z</time>
        <speed>0.885000</speed>
      </trkpt>
      <trkpt lat="46.024478220" lon="7.209578933">
        <ele>2245.200000</ele>
        <time>2015-08-05T12:25:17Z</time>
        <speed>0.885000</speed>
      </trkpt>
      <trkpt lat="46.024466570" lon="7.209575245">
        <ele>2245.600000</ele>
        <time>2015-08-05T12:25:18Z</time>
        <speed>0.931000</speed>
      </trkpt>
      <trkpt lat="46.024455757" lon="7.209575496">
        <ele>2246.200000</ele>
        <time>2015-08-05T12:25:19Z</time>
        <speed>0.931000</speed>
      </trkpt>
      <trkpt lat="46.024447375" lon="7.209575329">
        <ele>2246.600000</ele>
        <time>2015-08-05T12:25:20Z</time>
        <speed>0.885000</speed>
      </trkpt>
      <trkpt lat="46.024439161" lon="7.209572395">
        <ele>2246.600000</ele>
        <time>2015-08-05T12:25:21Z</time>
        <speed>0.885000</speed>
      </trkpt>
      <trkpt lat="46.024384678" lon="7.209571473">
        <ele>2246.600000</ele>
        <time>2015-08-05T12:25:29Z</time>
        <speed>0.826000</speed>
      </trkpt>
      <trkpt lat="46.024366909" lon="7.209569629">
        <ele>2247.000000</ele>
        <time>2015-08-05T12:25:31Z</time>
        <speed>0.789000</speed>
      </trkpt>
      <trkpt lat="46.024357353" lon="7.209563845">
        <ele>2247.400000</ele>
        <time>2015-08-05T12:25:32Z</time>
        <speed>1.010000</speed>
      </trkpt>
      <trkpt lat="46.024347127" lon="7.209556721">
        <ele>2247.800000</ele>
        <time>2015-08-05T12:25:33Z</time>
        <speed>1.010000</speed>
      </trkpt>
      <trkpt lat="46.024339332" lon="7.209554206">
        <ele>2248.200000</ele>
        <time>2015-08-05T12:25:34Z</time>
        <speed>0.903000</speed>
      </trkpt>
      <trkpt lat="46.024333130" lon="7.209550770">
        <ele>2248.600000</ele>
        <time>2015-08-05T12:25:35Z</time>
        <speed>0.903000</speed>
      </trkpt>
      <trkpt lat="46.024320138" lon="7.209547501">
        <ele>2248.600000</ele>
        <time>2015-08-05T12:25:37Z</time>
        <speed>0.982000</speed>
      </trkpt>
      <trkpt lat="46.024288873" lon="7.209551859">
        <ele>2248.600000</ele>
        <time>2015-08-05T12:25:41Z</time>
        <speed>0.875000</speed>
      </trkpt>
      <trkpt lat="46.024257609" lon="7.209553452">
        <ele>2249.000000</ele>
        <time>2015-08-05T12:25:44Z</time>
        <speed>0.911000</speed>
      </trkpt>
      <trkpt lat="46.024248053" lon="7.209551105">
        <ele>2249.400000</ele>
        <time>2015-08-05T12:25:45Z</time>
        <speed>0.911000</speed>
      </trkpt>
      <trkpt lat="46.024239001" lon="7.209549931">
        <ele>2249.800000</ele>
        <time>2015-08-05T12:25:46Z</time>
        <speed>0.936000</speed>
      </trkpt>
      <trkpt lat="46.024229529" lon="7.209552195">
        <ele>2250.400000</ele>
        <time>2015-08-05T12:25:47Z</time>
        <speed>0.936000</speed>
      </trkpt>
      <trkpt lat="46.024222153" lon="7.209552027">
        <ele>2250.800000</ele>
        <time>2015-08-05T12:25:48Z</time>
        <speed>0.997000</speed>
      </trkpt>
      <trkpt lat="46.024209748" lon="7.209552027">
        <ele>2250.800000</ele>
        <time>2015-08-05T12:25:50Z</time>
        <speed>0.986000</speed>
      </trkpt>
      <trkpt lat="46.024166917" lon="7.209542555">
        <ele>2250.800000</ele>
        <time>2015-08-05T12:25:55Z</time>
        <speed>0.938000</speed>
      </trkpt>
      <trkpt lat="46.024151159" lon="7.209544316">
        <ele>2251.200000</ele>
        <time>2015-08-05T12:25:57Z</time>
        <speed>0.905000</speed>
      </trkpt>
      <trkpt lat="46.024142860" lon="7.209544986">
        <ele>2251.600000</ele>
        <time>2015-08-05T12:25:58Z</time>
        <speed>0.905000</speed>
      </trkpt>
      <trkpt lat="46.024137831" lon="7.209549177">
        <ele>2252.000000</ele>
        <time>2015-08-05T12:25:59Z</time>
        <speed>0.910000</speed>
      </trkpt>
      <trkpt lat="46.024133724" lon="7.209549009">
        <ele>2252.400000</ele>
        <time>2015-08-05T12:26:00Z</time>
        <speed>0.910000</speed>
      </trkpt>
      <trkpt lat="46.024126013" lon="7.209539622">
        <ele>2252.800000</ele>
        <time>2015-08-05T12:26:01Z</time>
        <speed>0.910000</speed>
      </trkpt>
      <trkpt lat="46.024115619" lon="7.209538197">
        <ele>2252.800000</ele>
        <time>2015-08-05T12:26:03Z</time>
        <speed>0.770000</speed>
      </trkpt>
      <trkpt lat="46.024064741" lon="7.209528641">
        <ele>2253.200000</ele>
        <time>2015-08-05T12:26:09Z</time>
        <speed>0.847000</speed>
      </trkpt>
      <trkpt lat="46.024061807" lon="7.209527049">
        <ele>2253.600000</ele>
        <time>2015-08-05T12:26:10Z</time>
        <speed>0.847000</speed>
      </trkpt>
      <trkpt lat="46.024057616" lon="7.209526462">
        <ele>2254.000000</ele>
        <time>2015-08-05T12:26:11Z</time>
        <speed>0.847000</speed>
      </trkpt>
      <trkpt lat="46.024049738" lon="7.209521265">
        <ele>2254.400000</ele>
        <time>2015-08-05T12:26:12Z</time>
        <speed>0.906000</speed>
      </trkpt>
      <trkpt lat="46.024040517" lon="7.209519337">
        <ele>2254.800000</ele>
        <time>2015-08-05T12:26:13Z</time>
        <speed>0.906000</speed>
      </trkpt>
      <trkpt lat="46.024024257" lon="7.209519170">
        <ele>2254.800000</ele>
        <time>2015-08-05T12:26:15Z</time>
        <speed>0.907000</speed>
      </trkpt>
      <trkpt lat="46.023940102" lon="7.209488576">
        <ele>2255.200000</ele>
        <time>2015-08-05T12:26:24Z</time>
        <speed>0.999000</speed>
      </trkpt>
      <trkpt lat="46.023931050" lon="7.209485391">
        <ele>2255.600000</ele>
        <time>2015-08-05T12:26:25Z</time>
        <speed>0.999000</speed>
      </trkpt>
      <trkpt lat="46.023919650" lon="7.209483798">
        <ele>2256.600000</ele>
        <time>2015-08-05T12:26:26Z</time>
        <speed>0.959000</speed>
      </trkpt>
      <trkpt lat="46.023914956" lon="7.209484888">
        <ele>2257.000000</ele>
        <time>2015-08-05T12:26:27Z</time>
        <speed>0.959000</speed>
      </trkpt>
      <trkpt lat="46.023871622" lon="7.209464352">
        <ele>2257.000000</ele>
        <time>2015-08-05T12:26:32Z</time>
        <speed>1.017000</speed>
      </trkpt>
      <trkpt lat="46.023834239" lon="7.209453372">
        <ele>2257.400000</ele>
        <time>2015-08-05T12:26:37Z</time>
        <speed>0.832000</speed>
      </trkpt>
      <trkpt lat="46.023830551" lon="7.209458569">
        <ele>2257.800000</ele>
        <time>2015-08-05T12:26:38Z</time>
        <speed>0.832000</speed>
      </trkpt>
      <trkpt lat="46.023824767" lon="7.209458066">
        <ele>2258.200000</ele>
        <time>2015-08-05T12:26:39Z</time>
        <speed>0.832000</speed>
      </trkpt>
      <trkpt lat="46.023817894" lon="7.209458988">
        <ele>2258.600000</ele>
        <time>2015-08-05T12:26:40Z</time>
        <speed>0.720000</speed>
      </trkpt>
      <trkpt lat="46.023812027" lon="7.209461167">
        <ele>2259.000000</ele>
        <time>2015-08-05T12:26:41Z</time>
        <speed>0.720000</speed>
      </trkpt>
      <trkpt lat="46.023778918" lon="7.209451612">
        <ele>2259.000000</ele>
        <time>2015-08-05T12:26:46Z</time>
        <speed>0.810000</speed>
      </trkpt>
      <trkpt lat="46.023737428" lon="7.209453707">
        <ele>2259.800000</ele>
        <time>2015-08-05T12:26:51Z</time>
        <speed>0.919000</speed>
      </trkpt>
      <trkpt lat="46.023733572" lon="7.209453456">
        <ele>2260.400000</ele>
        <time>2015-08-05T12:26:52Z</time>
        <speed>0.885000</speed>
      </trkpt>
      <trkpt lat="46.023726867" lon="7.209452282">
        <ele>2260.800000</ele>
        <time>2015-08-05T12:26:53Z</time>
        <speed>0.885000</speed>
      </trkpt>
      <trkpt lat="46.023717646" lon="7.209455300">
        <ele>2261.200000</ele>
        <time>2015-08-05T12:26:54Z</time>
        <speed>0.885000</speed>
      </trkpt>
      <trkpt lat="46.023695099" lon="7.209461921">
        <ele>2261.200000</ele>
        <time>2015-08-05T12:26:58Z</time>
        <speed>0.844000</speed>
      </trkpt>
      <trkpt lat="46.023666685" lon="7.209460664">
        <ele>2261.600000</ele>
        <time>2015-08-05T12:27:03Z</time>
        <speed>0.915000</speed>
      </trkpt>
      <trkpt lat="46.023653357" lon="7.209452953">
        <ele>2262.000000</ele>
        <time>2015-08-05T12:27:04Z</time>
        <speed>1.014000</speed>
      </trkpt>
      <trkpt lat="46.023642880" lon="7.209447253">
        <ele>2262.400000</ele>
        <time>2015-08-05T12:27:05Z</time>
        <speed>1.014000</speed>
      </trkpt>
      <trkpt lat="46.023635923" lon="7.209445241">
        <ele>2262.800000</ele>
        <time>2015-08-05T12:27:06Z</time>
        <speed>1.014000</speed>
      </trkpt>
      <trkpt lat="46.023626703" lon="7.209444571">
        <ele>2263.200000</ele>
        <time>2015-08-05T12:27:07Z</time>
        <speed>0.775000</speed>
      </trkpt>
      <trkpt lat="46.023572053" lon="7.209449013">
        <ele>2263.200000</ele>
        <time>2015-08-05T12:27:12Z</time>
        <speed>0.973000</speed>
      </trkpt>
      <trkpt lat="46.023554618" lon="7.209440631">
        <ele>2263.600000</ele>
        <time>2015-08-05T12:27:14Z</time>
        <speed>1.013000</speed>
      </trkpt>
      <trkpt lat="46.023547075" lon="7.209443984">
        <ele>2264.000000</ele>
        <time>2015-08-05T12:27:15Z</time>
        <speed>1.013000</speed>
      </trkpt>
      <trkpt lat="46.023541040" lon="7.209445661">
        <ele>2264.400000</ele>
        <time>2015-08-05T12:27:16Z</time>
        <speed>0.926000</speed>
      </trkpt>
      <trkpt lat="46.023536262" lon="7.209446666">
        <ele>2264.800000</ele>
        <time>2015-08-05T12:27:17Z</time>
        <speed>1.044000</speed>
      </trkpt>
      <trkpt lat="46.023530982" lon="7.209451444">
        <ele>2265.200000</ele>
        <time>2015-08-05T12:27:18Z</time>
        <speed>1.044000</speed>
      </trkpt>
      <trkpt lat="46.023487060" lon="7.209444906">
        <ele>2265.200000</ele>
        <time>2015-08-05T12:27:23Z</time>
        <speed>0.728000</speed>
      </trkpt>
      <trkpt lat="46.023455712" lon="7.209443733">
        <ele>2265.600000</ele>
        <time>2015-08-05T12:27:28Z</time>
        <speed>0.796000</speed>
      </trkpt>
      <trkpt lat="46.023446911" lon="7.209436273">
        <ele>2266.000000</ele>
        <time>2015-08-05T12:27:29Z</time>
        <speed>1.024000</speed>
      </trkpt>
      <trkpt lat="46.023460657" lon="7.209445074">
        <ele>2266.400000</ele>
        <time>2015-08-05T12:27:30Z</time>
        <speed>1.024000</speed>
      </trkpt>
      <trkpt lat="46.023458981" lon="7.209446415">
        <ele>2266.800000</ele>
        <time>2015-08-05T12:27:31Z</time>
        <speed>1.024000</speed>
      </trkpt>
      <trkpt lat="46.023459065" lon="7.209445158">
        <ele>2267.200000</ele>
        <time>2015-08-05T12:27:32Z</time>
        <speed>0.000000</speed>
      </trkpt>
      <trkpt lat="46.023459065" lon="7.209445158">
        <ele>2267.200000</ele>
        <time>2015-08-05T12:27:33Z</time>
        <speed>0.000000</speed>
      </trkpt>
      <trkpt lat="46.023447079" lon="7.209436943">
        <ele>2267.200000</ele>
        <time>2015-08-05T12:27:41Z</time>
        <speed>0.000000</speed>
      </trkpt>
      <trkpt lat="46.023428303" lon="7.209427723">
        <ele>2267.200000</ele>
        <time>2015-08-05T12:27:42Z</time>
        <speed>1.516000</speed>
      </trkpt>
      <trkpt lat="46.023388824" lon="7.209404086">
        <ele>2267.200000</ele>
        <time>2015-08-05T12:27:46Z</time>
        <speed>1.269000</speed>
      </trkpt>
      <trkpt lat="46.023340293" lon="7.209385730">
        <ele>2267.200000</ele>
        <time>2015-08-05T12:27:51Z</time>
        <speed>1.213000</speed>
      </trkpt>
      <trkpt lat="46.023321182" lon="7.209369469">
        <ele>2267.200000</ele>
        <time>2015-08-05T12:27:53Z</time>
        <speed>1.302000</speed>
      </trkpt>
      <trkpt lat="46.023297965" lon="7.209369637">
        <ele>2267.200000</ele>
        <time>2015-08-05T12:27:55Z</time>
        <speed>1.402000</speed>
      </trkpt>
      <trkpt lat="46.023289331" lon="7.209379192">
        <ele>2267.600000</ele>
        <time>2015-08-05T12:27:56Z</time>
        <speed>1.283000</speed>
      </trkpt>
      <trkpt lat="46.023277177" lon="7.209376845">
        <ele>2268.000000</ele>
        <time>2015-08-05T12:27:57Z</time>
        <speed>1.283000</speed>
      </trkpt>
      <trkpt lat="46.023267957" lon="7.209368212">
        <ele>2268.400000</ele>
        <time>2015-08-05T12:27:58Z</time>
        <speed>1.269000</speed>
      </trkpt>
      <trkpt lat="46.023258067" lon="7.209360417">
        <ele>2269.000000</ele>
        <time>2015-08-05T12:27:59Z</time>
        <speed>1.270000</speed>
      </trkpt>
      <trkpt lat="46.023246751" lon="7.209344575">
        <ele>2269.400000</ele>
        <time>2015-08-05T12:28:00Z</time>
        <speed>1.270000</speed>
      </trkpt>
      <trkpt lat="46.023231748" lon="7.209338875">
        <ele>2269.400000</ele>
        <time>2015-08-05T12:28:01Z</time>
        <speed>1.285000</speed>
      </trkpt>
      <trkpt lat="46.023206853" lon="7.209310963">
        <ele>2269.400000</ele>
        <time>2015-08-05T12:28:04Z</time>
        <speed>1.282000</speed>
      </trkpt>
      <trkpt lat="46.023199645" lon="7.209303503">
        <ele>2269.400000</ele>
        <time>2015-08-05T12:28:05Z</time>
        <speed>1.282000</speed>
      </trkpt>
      <trkpt lat="46.023183887" lon="7.209285231">
        <ele>2269.800000</ele>
        <time>2015-08-05T12:28:07Z</time>
        <speed>1.355000</speed>
      </trkpt>
      <trkpt lat="46.023176846" lon="7.209274502">
        <ele>2270.200000</ele>
        <time>2015-08-05T12:28:08Z</time>
        <speed>1.355000</speed>
      </trkpt>
      <trkpt lat="46.023169721" lon="7.209258912">
        <ele>2270.600000</ele>
        <time>2015-08-05T12:28:09Z</time>
        <speed>1.318000</speed>
      </trkpt>
      <trkpt lat="46.023166620" lon="7.209244914">
        <ele>2271.000000</ele>
        <time>2015-08-05T12:28:10Z</time>
        <speed>1.318000</speed>
      </trkpt>
      <trkpt lat="46.023163184" lon="7.209234604">
        <ele>2271.400000</ele>
        <time>2015-08-05T12:28:11Z</time>
        <speed>1.254000</speed>
      </trkpt>
      <trkpt lat="46.023146252" lon="7.209199652">
        <ele>2271.400000</ele>
        <time>2015-08-05T12:28:14Z</time>
        <speed>1.272000</speed>
      </trkpt>
      <trkpt lat="46.023139379" lon="7.209181798">
        <ele>2271.800000</ele>
        <time>2015-08-05T12:28:15Z</time>
        <speed>1.272000</speed>
      </trkpt>
      <trkpt lat="46.023128985" lon="7.209170986">
        <ele>2272.200000</ele>
        <time>2015-08-05T12:28:16Z</time>
        <speed>1.145000</speed>
      </trkpt>
      <trkpt lat="46.023118760" lon="7.209157407">
        <ele>2272.600000</ele>
        <time>2015-08-05T12:28:17Z</time>
        <speed>1.302000</speed>
      </trkpt>
      <trkpt lat="46.023111467" lon="7.209142403">
        <ele>2273.200000</ele>
        <time>2015-08-05T12:28:18Z</time>
        <speed>1.302000</speed>
      </trkpt>
      <trkpt lat="46.023103421" lon="7.209132932">
        <ele>2273.600000</ele>
        <time>2015-08-05T12:28:19Z</time>
        <speed>1.413000</speed>
      </trkpt>
      <trkpt lat="46.023065367" lon="7.209090016">
        <ele>2273.600000</ele>
        <time>2015-08-05T12:28:23Z</time>
        <speed>1.262000</speed>
      </trkpt>
      <trkpt lat="46.023040389" lon="7.209041653">
        <ele>2274.000000</ele>
        <time>2015-08-05T12:28:26Z</time>
        <speed>1.687000</speed>
      </trkpt>
      <trkpt lat="46.023039634" lon="7.209034696">
        <ele>2274.400000</ele>
        <time>2015-08-05T12:28:27Z</time>
        <speed>1.687000</speed>
      </trkpt>
      <trkpt lat="46.023022200" lon="7.209007958">
        <ele>2275.400000</ele>
        <time>2015-08-05T12:28:28Z</time>
        <speed>1.325000</speed>
      </trkpt>
      <trkpt lat="46.023014489" lon="7.209005359">
        <ele>2275.800000</ele>
        <time>2015-08-05T12:28:29Z</time>
        <speed>1.364000</speed>
      </trkpt>
      <trkpt lat="46.022990433" lon="7.208973843">
        <ele>2275.800000</ele>
        <time>2015-08-05T12:28:32Z</time>
        <speed>1.256000</speed>
      </trkpt>
      <trkpt lat="46.022976854" lon="7.208963031">
        <ele>2276.200000</ele>
        <time>2015-08-05T12:28:33Z</time>
        <speed>1.636000</speed>
      </trkpt>
      <trkpt lat="46.022969143" lon="7.208952721">
        <ele>2276.600000</ele>
        <time>2015-08-05T12:28:34Z</time>
        <speed>1.636000</speed>
      </trkpt>
      <trkpt lat="46.022960090" lon="7.208945261">
        <ele>2277.000000</ele>
        <time>2015-08-05T12:28:35Z</time>
        <speed>1.542000</speed>
      </trkpt>
      <trkpt lat="46.022948942" lon="7.208936544">
        <ele>2277.600000</ele>
        <time>2015-08-05T12:28:36Z</time>
        <speed>1.858000</speed>
      </trkpt>
      <trkpt lat="46.022942656" lon="7.208927827">
        <ele>2278.000000</ele>
        <time>2015-08-05T12:28:37Z</time>
        <speed>1.365000</speed>
      </trkpt>
      <trkpt lat="46.022932346" lon="7.208927156">
        <ele>2278.000000</ele>
        <time>2015-08-05T12:28:38Z</time>
        <speed>1.365000</speed>
      </trkpt>
      <trkpt lat="46.022897058" lon="7.208909638">
        <ele>2278.400000</ele>
        <time>2015-08-05T12:28:42Z</time>
        <speed>1.144000</speed>
      </trkpt>
      <trkpt lat="46.022889598" lon="7.208901256">
        <ele>2278.800000</ele>
        <time>2015-08-05T12:28:43Z</time>
        <speed>1.157000</speed>
      </trkpt>
      <trkpt lat="46.022885324" lon="7.208892539">
        <ele>2279.200000</ele>
        <time>2015-08-05T12:28:44Z</time>
        <speed>1.157000</speed>
      </trkpt>
      <trkpt lat="46.022876690" lon="7.208881307">
        <ele>2279.600000</ele>
        <time>2015-08-05T12:28:45Z</time>
        <speed>1.067000</speed>
      </trkpt>
      <trkpt lat="46.022876020" lon="7.208875188">
        <ele>2280.000000</ele>
        <time>2015-08-05T12:28:46Z</time>
        <speed>1.067000</speed>
      </trkpt>
      <trkpt lat="46.022846180" lon="7.208814922">
        <ele>2280.000000</ele>
        <time>2015-08-05T12:28:51Z</time>
        <speed>1.302000</speed>
      </trkpt>
      <trkpt lat="46.022836625" lon="7.208805954">
        <ele>2280.600000</ele>
        <time>2015-08-05T12:28:53Z</time>
        <speed>1.268000</speed>
      </trkpt>
      <trkpt lat="46.022825393" lon="7.208798410">
        <ele>2281.000000</ele>
        <time>2015-08-05T12:28:54Z</time>
        <speed>1.268000</speed>
      </trkpt>
      <trkpt lat="46.022817095" lon="7.208790866">
        <ele>2281.400000</ele>
        <time>2015-08-05T12:28:55Z</time>
        <speed>1.310000</speed>
      </trkpt>
      <trkpt lat="46.022807120" lon="7.208781059">
        <ele>2281.800000</ele>
        <time>2015-08-05T12:28:56Z</time>
        <speed>1.310000</speed>
      </trkpt>
      <trkpt lat="46.022796475" lon="7.208765721">
        <ele>2282.200000</ele>
        <time>2015-08-05T12:28:57Z</time>
        <speed>1.278000</speed>
      </trkpt>
      <trkpt lat="46.022788596" lon="7.208751555">
        <ele>2282.200000</ele>
        <time>2015-08-05T12:28:58Z</time>
        <speed>1.278000</speed>
      </trkpt>
      <trkpt lat="46.022763870" lon="7.208716770">
        <ele>2282.200000</ele>
        <time>2015-08-05T12:29:01Z</time>
        <speed>1.358000</speed>
      </trkpt>
      <trkpt lat="46.022741658" lon="7.208682907">
        <ele>2282.600000</ele>
        <time>2015-08-05T12:29:04Z</time>
        <speed>1.273000</speed>
      </trkpt>
      <trkpt lat="46.022727408" lon="7.208670754">
        <ele>2283.200000</ele>
        <time>2015-08-05T12:29:05Z</time>
        <speed>1.390000</speed>
      </trkpt>
      <trkpt lat="46.022717099" lon="7.208658097">
        <ele>2283.600000</ele>
        <time>2015-08-05T12:29:06Z</time>
        <speed>1.390000</speed>
      </trkpt>
      <trkpt lat="46.022710477" lon="7.208646614">
        <ele>2284.000000</ele>
        <time>2015-08-05T12:29:07Z</time>
        <speed>1.148000</speed>
      </trkpt>
      <trkpt lat="46.022703352" lon="7.208638735">
        <ele>2284.400000</ele>
        <time>2015-08-05T12:29:08Z</time>
        <speed>1.153000</speed>
      </trkpt>
      <trkpt lat="46.022691953" lon="7.208622893">
        <ele>2284.400000</ele>
        <time>2015-08-05T12:29:10Z</time>
        <speed>1.040000</speed>
      </trkpt>
      <trkpt lat="46.022684409" lon="7.208610236">
        <ele>2284.400000</ele>
        <time>2015-08-05T12:29:11Z</time>
        <speed>1.040000</speed>
      </trkpt>
      <trkpt lat="46.022674938" lon="7.208595903">
        <ele>2284.400000</ele>
        <time>2015-08-05T12:29:12Z</time>
        <speed>1.040000</speed>
      </trkpt>
      <trkpt lat="46.022651720" lon="7.208562879">
        <ele>2284.800000</ele>
        <time>2015-08-05T12:29:15Z</time>
        <speed>1.254000</speed>
      </trkpt>
      <trkpt lat="46.022640823" lon="7.208557263">
        <ele>2285.200000</ele>
        <time>2015-08-05T12:29:16Z</time>
        <speed>1.263000</speed>
      </trkpt>
      <trkpt lat="46.022634369" lon="7.208551563">
        <ele>2285.800000</ele>
        <time>2015-08-05T12:29:17Z</time>
        <speed>1.263000</speed>
      </trkpt>
      <trkpt lat="46.022625904" lon="7.208545779">
        <ele>2286.600000</ele>
        <time>2015-08-05T12:29:18Z</time>
        <speed>1.209000</speed>
      </trkpt>
      <trkpt lat="46.022600004" lon="7.208515856">
        <ele>2286.600000</ele>
        <time>2015-08-05T12:29:22Z</time>
        <speed>1.241000</speed>
      </trkpt>
      <trkpt lat="46.022587850" lon="7.208495069">
        <ele>2286.600000</ele>
        <time>2015-08-05T12:29:24Z</time>
        <speed>1.395000</speed>
      </trkpt>
      <trkpt lat="46.022547365" lon="7.208441006">
        <ele>2287.000000</ele>
        <time>2015-08-05T12:29:30Z</time>
        <speed>0.769000</speed>
      </trkpt>
      <trkpt lat="46.022542420" lon="7.208430277">
        <ele>2287.600000</ele>
        <time>2015-08-05T12:29:31Z</time>
        <speed>0.769000</speed>
      </trkpt>
      <trkpt lat="46.022536804" lon="7.208421560">
        <ele>2288.000000</ele>
        <time>2015-08-05T12:29:32Z</time>
        <speed>1.162000</speed>
      </trkpt>
      <trkpt lat="46.022532362" lon="7.208403539">
        <ele>2288.600000</ele>
        <time>2015-08-05T12:29:33Z</time>
        <speed>1.162000</speed>
      </trkpt>
      <trkpt lat="46.022523896" lon="7.208402533">
        <ele>2289.000000</ele>
        <time>2015-08-05T12:29:34Z</time>
        <speed>1.001000</speed>
      </trkpt>
      <trkpt lat="46.022513921" lon="7.208384847">
        <ele>2289.000000</ele>
        <time>2015-08-05T12:29:36Z</time>
        <speed>1.036000</speed>
      </trkpt>
      <trkpt lat="46.022497744" lon="7.208347380">
        <ele>2289.000000</ele>
        <time>2015-08-05T12:29:39Z</time>
        <speed>1.249000</speed>
      </trkpt>
      <trkpt lat="46.022479975" lon="7.208329694">
        <ele>2289.000000</ele>
        <time>2015-08-05T12:29:41Z</time>
        <speed>1.283000</speed>
      </trkpt>
      <trkpt lat="46.022455835" lon="7.208305303">
        <ele>2289.000000</ele>
        <time>2015-08-05T12:29:43Z</time>
        <speed>1.571000</speed>
      </trkpt>
      <trkpt lat="46.022439406" lon="7.208288623">
        <ele>2289.400000</ele>
        <time>2015-08-05T12:29:44Z</time>
        <speed>1.569000</speed>
      </trkpt>
      <trkpt lat="46.022437562" lon="7.208275044">
        <ele>2290.000000</ele>
        <time>2015-08-05T12:29:45Z</time>
        <speed>1.570000</speed>
      </trkpt>
      <trkpt lat="46.022433874" lon="7.208257777">
        <ele>2290.400000</ele>
        <time>2015-08-05T12:29:46Z</time>
        <speed>1.652000</speed>
      </trkpt>
      <trkpt lat="46.022431779" lon="7.208239756">
        <ele>2290.800000</ele>
        <time>2015-08-05T12:29:47Z</time>
        <speed>1.652000</speed>
      </trkpt>
      <trkpt lat="46.022421804" lon="7.208219388">
        <ele>2291.200000</ele>
        <time>2015-08-05T12:29:48Z</time>
        <speed>1.454000</speed>
      </trkpt>
      <trkpt lat="46.022419960" lon="7.208197595">
        <ele>2291.600000</ele>
        <time>2015-08-05T12:29:49Z</time>
        <speed>1.535000</speed>
      </trkpt>
      <trkpt lat="46.022417781" lon="7.208188710">
        <ele>2292.000000</ele>
        <time>2015-08-05T12:29:50Z</time>
        <speed>1.496000</speed>
      </trkpt>
      <trkpt lat="46.022413422" lon="7.208171276">
        <ele>2292.400000</ele>
        <time>2015-08-05T12:29:51Z</time>
        <speed>1.496000</speed>
      </trkpt>
      <trkpt lat="46.022414680" lon="7.208162726">
        <ele>2292.800000</ele>
        <time>2015-08-05T12:29:52Z</time>
        <speed>1.705000</speed>
      </trkpt>
      <trkpt lat="46.022408058" lon="7.208148058">
        <ele>2293.200000</ele>
        <time>2015-08-05T12:29:53Z</time>
        <speed>1.576000</speed>
      </trkpt>
      <trkpt lat="46.022393641" lon="7.208114531">
        <ele>2293.600000</ele>
        <time>2015-08-05T12:29:56Z</time>
        <speed>1.490000</speed>
      </trkpt>
      <trkpt lat="46.022387019" lon="7.208102125">
        <ele>2294.200000</ele>
        <time>2015-08-05T12:29:57Z</time>
        <speed>1.407000</speed>
      </trkpt>
      <trkpt lat="46.022375117" lon="7.208076896">
        <ele>2294.600000</ele>
        <time>2015-08-05T12:29:58Z</time>
        <speed>1.407000</speed>
      </trkpt>
      <trkpt lat="46.022367406" lon="7.208071028">
        <ele>2295.000000</ele>
        <time>2015-08-05T12:29:59Z</time>
        <speed>1.202000</speed>
      </trkpt>
      <trkpt lat="46.022363718" lon="7.208056612">
        <ele>2295.400000</ele>
        <time>2015-08-05T12:30:00Z</time>
        <speed>1.202000</speed>
      </trkpt>
      <trkpt lat="46.022340667" lon="7.208021910">
        <ele>2295.400000</ele>
        <time>2015-08-05T12:30:03Z</time>
        <speed>1.226000</speed>
      </trkpt>
      <trkpt lat="46.022328681" lon="7.207995088">
        <ele>2295.400000</ele>
        <time>2015-08-05T12:30:05Z</time>
        <speed>1.154000</speed>
      </trkpt>
      <trkpt lat="46.022325915" lon="7.207968853">
        <ele>2295.800000</ele>
        <time>2015-08-05T12:30:07Z</time>
        <speed>1.238000</speed>
      </trkpt>
      <trkpt lat="46.022320467" lon="7.207956029">
        <ele>2296.200000</ele>
        <time>2015-08-05T12:30:08Z</time>
        <speed>1.229000</speed>
      </trkpt>
      <trkpt lat="46.022314851" lon="7.207941360">
        <ele>2296.600000</ele>
        <time>2015-08-05T12:30:09Z</time>
        <speed>1.229000</speed>
      </trkpt>
      <trkpt lat="46.022303200" lon="7.207931218">
        <ele>2297.000000</ele>
        <time>2015-08-05T12:30:10Z</time>
        <speed>1.064000</speed>
      </trkpt>
      <trkpt lat="46.022294986" lon="7.207923004">
        <ele>2297.400000</ele>
        <time>2015-08-05T12:30:11Z</time>
        <speed>1.064000</speed>
      </trkpt>
      <trkpt lat="46.022292723" lon="7.207909677">
        <ele>2297.400000</ele>
        <time>2015-08-05T12:30:12Z</time>
        <speed>1.165000</speed>
      </trkpt>
      <trkpt lat="46.022277133" lon="7.207885034">
        <ele>2297.400000</ele>
        <time>2015-08-05T12:30:14Z</time>
        <speed>1.166000</speed>
      </trkpt>
      <trkpt lat="46.022267158" lon="7.207840945">
        <ele>2297.800000</ele>
        <time>2015-08-05T12:30:18Z</time>
        <speed>1.127000</speed>
      </trkpt>
      <trkpt lat="46.022267745" lon="7.207830635">
        <ele>2298.200000</ele>
        <time>2015-08-05T12:30:19Z</time>
        <speed>1.043000</speed>
      </trkpt>
      <trkpt lat="46.022262380" lon="7.207819152">
        <ele>2298.800000</ele>
        <time>2015-08-05T12:30:20Z</time>
        <speed>1.043000</speed>
      </trkpt>
      <trkpt lat="46.022260620" lon="7.207803143">
        <ele>2299.200000</ele>
        <time>2015-08-05T12:30:21Z</time>
        <speed>1.146000</speed>
      </trkpt>
      <trkpt lat="46.022258860" lon="7.207785289">
        <ele>2299.600000</ele>
        <time>2015-08-05T12:30:22Z</time>
        <speed>1.146000</speed>
      </trkpt>
      <trkpt lat="46.022236732" lon="7.207726448">
        <ele>2299.600000</ele>
        <time>2015-08-05T12:30:27Z</time>
        <speed>0.956000</speed>
      </trkpt>
      <trkpt lat="46.022221142" lon="7.207706667">
        <ele>2299.600000</ele>
        <time>2015-08-05T12:30:29Z</time>
        <speed>1.134000</speed>
      </trkpt>
      <trkpt lat="46.022214352" lon="7.207699459">
        <ele>2300.000000</ele>
        <time>2015-08-05T12:30:30Z</time>
        <speed>1.155000</speed>
      </trkpt>
      <trkpt lat="46.022203959" lon="7.207693088">
        <ele>2300.400000</ele>
        <time>2015-08-05T12:30:31Z</time>
        <speed>1.155000</speed>
      </trkpt>
      <trkpt lat="46.022201444" lon="7.207683365">
        <ele>2301.200000</ele>
        <time>2015-08-05T12:30:32Z</time>
        <speed>1.030000</speed>
      </trkpt>
      <trkpt lat="46.022188368" lon="7.207675654">
        <ele>2301.600000</ele>
        <time>2015-08-05T12:30:33Z</time>
        <speed>1.030000</speed>
      </trkpt>
      <trkpt lat="46.022185016" lon="7.207672637">
        <ele>2301.600000</ele>
        <time>2015-08-05T12:30:34Z</time>
        <speed>1.239000</speed>
      </trkpt>
      <trkpt lat="46.022178226" lon="7.207660399">
        <ele>2301.600000</ele>
        <time>2015-08-05T12:30:35Z</time>
        <speed>1.239000</speed>
      </trkpt>
      <trkpt lat="46.022151656" lon="7.207612119">
        <ele>2301.600000</ele>
        <time>2015-08-05T12:30:40Z</time>
        <speed>1.145000</speed>
      </trkpt>
      <trkpt lat="46.022111255" lon="7.207561157">
        <ele>2301.600000</ele>
        <time>2015-08-05T12:30:45Z</time>
        <speed>1.184000</speed>
      </trkpt>
      <trkpt lat="46.022099352" lon="7.207556883">
        <ele>2302.000000</ele>
        <time>2015-08-05T12:30:46Z</time>
        <speed>1.184000</speed>
      </trkpt>
      <trkpt lat="46.022093401" lon="7.207549004">
        <ele>2302.400000</ele>
        <time>2015-08-05T12:30:47Z</time>
        <speed>1.190000</speed>
      </trkpt>
      <trkpt lat="46.022077308" lon="7.207541041">
        <ele>2302.800000</ele>
        <time>2015-08-05T12:30:48Z</time>
        <speed>1.273000</speed>
      </trkpt>
      <trkpt lat="46.022074626" lon="7.207531318">
        <ele>2303.200000</ele>
        <time>2015-08-05T12:30:49Z</time>
        <speed>1.273000</speed>
      </trkpt>
      <trkpt lat="46.022062221" lon="7.207520086">
        <ele>2303.600000</ele>
        <time>2015-08-05T12:30:50Z</time>
        <speed>1.221000</speed>
      </trkpt>
      <trkpt lat="46.022005391" lon="7.207484295">
        <ele>2303.600000</ele>
        <time>2015-08-05T12:30:57Z</time>
        <speed>1.148000</speed>
      </trkpt>
      <trkpt lat="46.021978402" lon="7.207457808">
        <ele>2304.000000</ele>
        <time>2015-08-05T12:31:00Z</time>
        <speed>1.363000</speed>
      </trkpt>
      <trkpt lat="46.021969852" lon="7.207454707">
        <ele>2304.400000</ele>
        <time>2015-08-05T12:31:01Z</time>
        <speed>1.133000</speed>
      </trkpt>
      <trkpt lat="46.021962392" lon="7.207449594">
        <ele>2304.800000</ele>
        <time>2015-08-05T12:31:02Z</time>
        <speed>1.133000</speed>
      </trkpt>
      <trkpt lat="46.021957950" lon="7.207444900">
        <ele>2305.200000</ele>
        <time>2015-08-05T12:31:03Z</time>
        <speed>1.096000</speed>
      </trkpt>
      <trkpt lat="46.021955687" lon="7.207436770">
        <ele>2305.600000</ele>
        <time>2015-08-05T12:31:04Z</time>
        <speed>1.096000</speed>
      </trkpt>
      <trkpt lat="46.021936995" lon="7.207413552">
        <ele>2305.600000</ele>
        <time>2015-08-05T12:31:07Z</time>
        <speed>1.182000</speed>
      </trkpt>
      <trkpt lat="46.021927021" lon="7.207414558">
        <ele>2305.600000</ele>
        <time>2015-08-05T12:31:08Z</time>
        <speed>1.131000</speed>
      </trkpt>
      <trkpt lat="46.021896007" lon="7.207348425">
        <ele>2305.600000</ele>
        <time>2015-08-05T12:31:13Z</time>
        <speed>1.147000</speed>
      </trkpt>
      <trkpt lat="46.021890727" lon="7.207328476">
        <ele>2306.000000</ele>
        <time>2015-08-05T12:31:14Z</time>
        <speed>1.073000</speed>
      </trkpt>
      <trkpt lat="46.021883602" lon="7.207312047">
        <ele>2306.600000</ele>
        <time>2015-08-05T12:31:15Z</time>
        <speed>1.073000</speed>
      </trkpt>
      <trkpt lat="46.021880920" lon="7.207298888">
        <ele>2307.000000</ele>
        <time>2015-08-05T12:31:16Z</time>
        <speed>1.420000</speed>
      </trkpt>
      <trkpt lat="46.021874298" lon="7.207284722">
        <ele>2307.400000</ele>
        <time>2015-08-05T12:31:17Z</time>
        <speed>1.457000</speed>
      </trkpt>
      <trkpt lat="46.021867760" lon="7.207277346">
        <ele>2307.800000</ele>
        <time>2015-08-05T12:31:18Z</time>
        <speed>1.457000</speed>
      </trkpt>
      <trkpt lat="46.021819732" lon="7.207233425">
        <ele>2308.200000</ele>
        <time>2015-08-05T12:31:22Z</time>
        <speed>1.488000</speed>
      </trkpt>
      <trkpt lat="46.021805986" lon="7.207225043">
        <ele>2308.600000</ele>
        <time>2015-08-05T12:31:23Z</time>
        <speed>1.614000</speed>
      </trkpt>
      <trkpt lat="46.021792491" lon="7.207214985">
        <ele>2309.000000</ele>
        <time>2015-08-05T12:31:24Z</time>
        <speed>1.622000</speed>
      </trkpt>
      <trkpt lat="46.021784696" lon="7.207204843">
        <ele>2309.600000</ele>
        <time>2015-08-05T12:31:25Z</time>
        <speed>1.591000</speed>
      </trkpt>
      <trkpt lat="46.021780924" lon="7.207193443">
        <ele>2310.000000</ele>
        <time>2015-08-05T12:31:26Z</time>
        <speed>1.591000</speed>
      </trkpt>
      <trkpt lat="46.021745804" lon="7.207171734">
        <ele>2310.400000</ele>
        <time>2015-08-05T12:31:29Z</time>
        <speed>1.590000</speed>
      </trkpt>
      <trkpt lat="46.021731135" lon="7.207163855">
        <ele>2310.800000</ele>
        <time>2015-08-05T12:31:30Z</time>
        <speed>1.590000</speed>
      </trkpt>
      <trkpt lat="46.021714958" lon="7.207153881">
        <ele>2311.200000</ele>
        <time>2015-08-05T12:31:31Z</time>
        <speed>1.404000</speed>
      </trkpt>
      <trkpt lat="46.021704984" lon="7.207151366">
        <ele>2311.600000</ele>
        <time>2015-08-05T12:31:32Z</time>
        <speed>1.404000</speed>
      </trkpt>
      <trkpt lat="46.021696183" lon="7.207140302">
        <ele>2312.000000</ele>
        <time>2015-08-05T12:31:33Z</time>
        <speed>1.358000</speed>
      </trkpt>
      <trkpt lat="46.021680760" lon="7.207126472">
        <ele>2312.000000</ele>
        <time>2015-08-05T12:31:35Z</time>
        <speed>1.446000</speed>
      </trkpt>
      <trkpt lat="46.021628709" lon="7.207090346">
        <ele>2312.000000</ele>
        <time>2015-08-05T12:31:40Z</time>
        <speed>1.258000</speed>
      </trkpt>
      <trkpt lat="46.021624601" lon="7.207082718">
        <ele>2312.000000</ele>
        <time>2015-08-05T12:31:41Z</time>
        <speed>1.282000</speed>
      </trkpt>
      <trkpt lat="46.021618734" lon="7.207072828">
        <ele>2312.400000</ele>
        <time>2015-08-05T12:31:42Z</time>
        <speed>1.282000</speed>
      </trkpt>
      <trkpt lat="46.021611442" lon="7.207061512">
        <ele>2312.800000</ele>
        <time>2015-08-05T12:31:43Z</time>
        <speed>1.255000</speed>
      </trkpt>
      <trkpt lat="46.021603228" lon="7.207054890">
        <ele>2313.200000</ele>
        <time>2015-08-05T12:31:44Z</time>
        <speed>1.255000</speed>
      </trkpt>
      <trkpt lat="46.021595935" lon="7.207048520">
        <ele>2313.600000</ele>
        <time>2015-08-05T12:31:45Z</time>
        <speed>1.069000</speed>
      </trkpt>
      <trkpt lat="46.021587051" lon="7.207044581">
        <ele>2314.000000</ele>
        <time>2015-08-05T12:31:46Z</time>
        <speed>1.081000</speed>
      </trkpt>
      <trkpt lat="46.021582273" lon="7.207033936">
        <ele>2314.000000</ele>
        <time>2015-08-05T12:31:47Z</time>
        <speed>1.081000</speed>
      </trkpt>
      <trkpt lat="46.021572885" lon="7.207020189">
        <ele>2314.000000</ele>
        <time>2015-08-05T12:31:48Z</time>
        <speed>1.079000</speed>
      </trkpt>
      <trkpt lat="46.021543129" lon="7.206983896">
        <ele>2314.000000</ele>
        <time>2015-08-05T12:31:51Z</time>
        <speed>1.215000</speed>
      </trkpt>
      <trkpt lat="46.021531730" lon="7.206966461">
        <ele>2314.000000</ele>
        <time>2015-08-05T12:31:53Z</time>
        <speed>1.297000</speed>
      </trkpt>
      <trkpt lat="46.021522678" lon="7.206962270">
        <ele>2314.000000</ele>
        <time>2015-08-05T12:31:54Z</time>
        <speed>1.297000</speed>
      </trkpt>
      <trkpt lat="46.021513457" lon="7.206935700">
        <ele>2314.400000</ele>
        <time>2015-08-05T12:31:56Z</time>
        <speed>1.047000</speed>
      </trkpt>
      <trkpt lat="46.021509266" lon="7.206925390">
        <ele>2315.000000</ele>
        <time>2015-08-05T12:31:57Z</time>
        <speed>1.051000</speed>
      </trkpt>
      <trkpt lat="46.021505578" lon="7.206916924">
        <ele>2315.400000</ele>
        <time>2015-08-05T12:31:58Z</time>
        <speed>1.051000</speed>
      </trkpt>
      <trkpt lat="46.021496442" lon="7.206912147">
        <ele>2315.800000</ele>
        <time>2015-08-05T12:31:59Z</time>
        <speed>1.270000</speed>
      </trkpt>
      <trkpt lat="46.021486049" lon="7.206903765">
        <ele>2316.200000</ele>
        <time>2015-08-05T12:32:00Z</time>
        <speed>1.270000</speed>
      </trkpt>
      <trkpt lat="46.021456460" lon="7.206873925">
        <ele>2316.200000</ele>
        <time>2015-08-05T12:32:04Z</time>
        <speed>1.272000</speed>
      </trkpt>
      <trkpt lat="46.021442798" lon="7.206852216">
        <ele>2316.200000</ele>
        <time>2015-08-05T12:32:06Z</time>
        <speed>1.241000</speed>
      </trkpt>
      <trkpt lat="46.021419412" lon="7.206819191">
        <ele>2316.600000</ele>
        <time>2015-08-05T12:32:09Z</time>
        <speed>1.195000</speed>
      </trkpt>
      <trkpt lat="46.021416563" lon="7.206811899">
        <ele>2317.000000</ele>
        <time>2015-08-05T12:32:10Z</time>
        <speed>1.123000</speed>
      </trkpt>
      <trkpt lat="46.021408181" lon="7.206809468">
        <ele>2317.800000</ele>
        <time>2015-08-05T12:32:11Z</time>
        <speed>1.231000</speed>
      </trkpt>
      <trkpt lat="46.021395356" lon="7.206803517">
        <ele>2318.200000</ele>
        <time>2015-08-05T12:32:12Z</time>
        <speed>1.231000</speed>
      </trkpt>
      <trkpt lat="46.021374402" lon="7.206791866">
        <ele>2318.200000</ele>
        <time>2015-08-05T12:32:14Z</time>
        <speed>1.015000</speed>
      </trkpt>
      <trkpt lat="46.021317405" lon="7.206754902">
        <ele>2318.200000</ele>
        <time>2015-08-05T12:32:21Z</time>
        <speed>1.135000</speed>
      </trkpt>
      <trkpt lat="46.021305586" lon="7.206757919">
        <ele>2318.200000</ele>
        <time>2015-08-05T12:32:22Z</time>
        <speed>1.276000</speed>
      </trkpt>
      <trkpt lat="46.021262084" lon="7.206719447">
        <ele>2318.600000</ele>
        <time>2015-08-05T12:32:26Z</time>
        <speed>1.383000</speed>
      </trkpt>
      <trkpt lat="46.021252110" lon="7.206717100">
        <ele>2319.000000</ele>
        <time>2015-08-05T12:32:27Z</time>
        <speed>1.214000</speed>
      </trkpt>
      <trkpt lat="46.021242387" lon="7.206722129">
        <ele>2319.400000</ele>
        <time>2015-08-05T12:32:28Z</time>
        <speed>1.214000</speed>
      </trkpt>
      <trkpt lat="46.021230149" lon="7.206725230">
        <ele>2320.000000</ele>
        <time>2015-08-05T12:32:29Z</time>
        <speed>1.211000</speed>
      </trkpt>
      <trkpt lat="46.021220091" lon="7.206714669">
        <ele>2320.400000</ele>
        <time>2015-08-05T12:32:30Z</time>
        <speed>1.270000</speed>
      </trkpt>
      <trkpt lat="46.021196873" lon="7.206701174">
        <ele>2320.400000</ele>
        <time>2015-08-05T12:32:32Z</time>
        <speed>1.341000</speed>
      </trkpt>
      <trkpt lat="46.021134763" lon="7.206682315">
        <ele>2320.400000</ele>
        <time>2015-08-05T12:32:38Z</time>
        <speed>1.155000</speed>
      </trkpt>
      <trkpt lat="46.021115149" lon="7.206670412">
        <ele>2320.800000</ele>
        <time>2015-08-05T12:32:40Z</time>
        <speed>1.137000</speed>
      </trkpt>
      <trkpt lat="46.021106348" lon="7.206671251">
        <ele>2321.200000</ele>
        <time>2015-08-05T12:32:41Z</time>
        <speed>1.220000</speed>
      </trkpt>
      <trkpt lat="46.021097464" lon="7.206669574">
        <ele>2321.600000</ele>
        <time>2015-08-05T12:32:42Z</time>
        <speed>1.220000</speed>
      </trkpt>
      <trkpt lat="46.021085645" lon="7.206666641">
        <ele>2322.000000</ele>
        <time>2015-08-05T12:32:43Z</time>
        <speed>1.220000</speed>
      </trkpt>
      <trkpt lat="46.021073491" lon="7.206666138">
        <ele>2322.400000</ele>
        <time>2015-08-05T12:32:44Z</time>
        <speed>0.971000</speed>
      </trkpt>
      <trkpt lat="46.020991265" lon="7.206660522">
        <ele>2322.400000</ele>
        <time>2015-08-05T12:32:51Z</time>
        <speed>1.500000</speed>
      </trkpt>
      <trkpt lat="46.020912643" lon="7.206629425">
        <ele>2322.400000</ele>
        <time>2015-08-05T12:32:57Z</time>
        <speed>1.578000</speed>
      </trkpt>
      <trkpt lat="46.020865872" lon="7.206608051">
        <ele>2322.400000</ele>
        <time>2015-08-05T12:33:01Z</time>
        <speed>1.795000</speed>
      </trkpt>
      <trkpt lat="46.020827902" lon="7.206597825">
        <ele>2322.400000</ele>
        <time>2015-08-05T12:33:04Z</time>
        <speed>1.407000</speed>
      </trkpt>
      <trkpt lat="46.020793536" lon="7.206556083">
        <ele>2322.800000</ele>
        <time>2015-08-05T12:33:08Z</time>
        <speed>1.395000</speed>
      </trkpt>
      <trkpt lat="46.020785657" lon="7.206544432">
        <ele>2323.200000</ele>
        <time>2015-08-05T12:33:09Z</time>
        <speed>1.395000</speed>
      </trkpt>
      <trkpt lat="46.020777443" lon="7.206542337">
        <ele>2323.600000</ele>
        <time>2015-08-05T12:33:10Z</time>
        <speed>1.402000</speed>
      </trkpt>
      <trkpt lat="46.020762774" lon="7.206530351">
        <ele>2324.000000</ele>
        <time>2015-08-05T12:33:11Z</time>
        <speed>1.551000</speed>
      </trkpt>
      <trkpt lat="46.020747771" lon="7.206528255">
        <ele>2324.600000</ele>
        <time>2015-08-05T12:33:12Z</time>
        <speed>1.480000</speed>
      </trkpt>
      <trkpt lat="46.020712902" lon="7.206545438">
        <ele>2324.600000</ele>
        <time>2015-08-05T12:33:15Z</time>
        <speed>1.899000</speed>
      </trkpt>
      <trkpt lat="46.020654648" lon="7.206590868">
        <ele>2324.600000</ele>
        <time>2015-08-05T12:33:20Z</time>
        <speed>2.064000</speed>
      </trkpt>
      <trkpt lat="46.020645763" lon="7.206587180">
        <ele>2324.600000</ele>
        <time>2015-08-05T12:33:21Z</time>
        <speed>1.904000</speed>
      </trkpt>
      <trkpt lat="46.020603434" lon="7.206553233">
        <ele>2324.600000</ele>
        <time>2015-08-05T12:33:25Z</time>
        <speed>1.149000</speed>
      </trkpt>
      <trkpt lat="46.020548700" lon="7.206489782">
        <ele>2324.600000</ele>
        <time>2015-08-05T12:33:30Z</time>
        <speed>1.445000</speed>
      </trkpt>
      <trkpt lat="46.020535457" lon="7.206481401">
        <ele>2324.600000</ele>
        <time>2015-08-05T12:33:31Z</time>
        <speed>1.647000</speed>
      </trkpt>
      <trkpt lat="46.020509976" lon="7.206460446">
        <ele>2325.000000</ele>
        <time>2015-08-05T12:33:34Z</time>
        <speed>1.338000</speed>
      </trkpt>
      <trkpt lat="46.020499331" lon="7.206451980">
        <ele>2325.400000</ele>
        <time>2015-08-05T12:33:35Z</time>
        <speed>1.338000</speed>
      </trkpt>
      <trkpt lat="46.020485417" lon="7.206451645">
        <ele>2325.800000</ele>
        <time>2015-08-05T12:33:36Z</time>
        <speed>1.210000</speed>
      </trkpt>
      <trkpt lat="46.020476448" lon="7.206446113">
        <ele>2326.200000</ele>
        <time>2015-08-05T12:33:37Z</time>
        <speed>1.250000</speed>
      </trkpt>
      <trkpt lat="46.020467144" lon="7.206432869">
        <ele>2326.600000</ele>
        <time>2015-08-05T12:33:38Z</time>
        <speed>1.250000</speed>
      </trkpt>
      <trkpt lat="46.020451889" lon="7.206428092">
        <ele>2326.600000</ele>
        <time>2015-08-05T12:33:39Z</time>
        <speed>1.286000</speed>
      </trkpt>
      <trkpt lat="46.020409980" lon="7.206407304">
        <ele>2326.600000</ele>
        <time>2015-08-05T12:33:43Z</time>
        <speed>1.397000</speed>
      </trkpt>
      <trkpt lat="46.020344517" lon="7.206359444">
        <ele>2326.600000</ele>
        <time>2015-08-05T12:33:50Z</time>
        <speed>1.333000</speed>
      </trkpt>
      <trkpt lat="46.020323982" lon="7.206357097">
        <ele>2327.000000</ele>
        <time>2015-08-05T12:33:52Z</time>
        <speed>1.251000</speed>
      </trkpt>
      <trkpt lat="46.020315264" lon="7.206350224">
        <ele>2327.400000</ele>
        <time>2015-08-05T12:33:53Z</time>
        <speed>1.251000</speed>
      </trkpt>
      <trkpt lat="46.020307804" lon="7.206343099">
        <ele>2327.800000</ele>
        <time>2015-08-05T12:33:54Z</time>
        <speed>1.186000</speed>
      </trkpt>
      <trkpt lat="46.020298920" lon="7.206336310">
        <ele>2328.200000</ele>
        <time>2015-08-05T12:33:55Z</time>
        <speed>1.169000</speed>
      </trkpt>
      <trkpt lat="46.020289197" lon="7.206330107">
        <ele>2328.600000</ele>
        <time>2015-08-05T12:33:56Z</time>
        <speed>1.169000</speed>
      </trkpt>
      <trkpt lat="46.020286012" lon="7.206315774">
        <ele>2328.600000</ele>
        <time>2015-08-05T12:33:57Z</time>
        <speed>1.166000</speed>
      </trkpt>
      <trkpt lat="46.020276372" lon="7.206307476">
        <ele>2328.600000</ele>
        <time>2015-08-05T12:33:58Z</time>
        <speed>1.166000</speed>
      </trkpt>
      <trkpt lat="46.020236223" lon="7.206293394">
        <ele>2328.600000</ele>
        <time>2015-08-05T12:34:02Z</time>
        <speed>1.111000</speed>
      </trkpt>
      <trkpt lat="46.020208563" lon="7.206298088">
        <ele>2328.600000</ele>
        <time>2015-08-05T12:34:05Z</time>
        <speed>1.133000</speed>
      </trkpt>
      <trkpt lat="46.020187357" lon="7.206296663">
        <ele>2328.600000</ele>
        <time>2015-08-05T12:34:07Z</time>
        <speed>1.265000</speed>
      </trkpt>
      <trkpt lat="46.020167827" lon="7.206286102">
        <ele>2329.000000</ele>
        <time>2015-08-05T12:34:09Z</time>
        <speed>1.238000</speed>
      </trkpt>
      <trkpt lat="46.020154919" lon="7.206279900">
        <ele>2329.400000</ele>
        <time>2015-08-05T12:34:10Z</time>
        <speed>1.289000</speed>
      </trkpt>
      <trkpt lat="46.020143854" lon="7.206278894">
        <ele>2329.800000</ele>
        <time>2015-08-05T12:34:11Z</time>
        <speed>1.289000</speed>
      </trkpt>
      <trkpt lat="46.020132120" lon="7.206280822">
        <ele>2330.200000</ele>
        <time>2015-08-05T12:34:12Z</time>
        <speed>1.143000</speed>
      </trkpt>
      <trkpt lat="46.020122061" lon="7.206278307">
        <ele>2330.600000</ele>
        <time>2015-08-05T12:34:13Z</time>
        <speed>1.199000</speed>
      </trkpt>
      <trkpt lat="46.020050564" lon="7.206241259">
        <ele>2330.600000</ele>
        <time>2015-08-05T12:34:20Z</time>
        <speed>1.211000</speed>
      </trkpt>
      <trkpt lat="46.019979653" lon="7.206226842">
        <ele>2330.600000</ele>
        <time>2015-08-05T12:34:26Z</time>
        <speed>1.378000</speed>
      </trkpt>
      <trkpt lat="46.019886698" lon="7.206208486">
        <ele>2331.000000</ele>
        <time>2015-08-05T12:34:34Z</time>
        <speed>1.407000</speed>
      </trkpt>
      <trkpt lat="46.019875214" lon="7.206212006">
        <ele>2331.400000</ele>
        <time>2015-08-05T12:34:35Z</time>
        <speed>1.473000</speed>
      </trkpt>
      <trkpt lat="46.019864821" lon="7.206204882">
        <ele>2331.800000</ele>
        <time>2015-08-05T12:34:36Z</time>
        <speed>1.473000</speed>
      </trkpt>
      <trkpt lat="46.019853002" lon="7.206199601">
        <ele>2332.400000</ele>
        <time>2015-08-05T12:34:37Z</time>
        <speed>1.498000</speed>
      </trkpt>
      <trkpt lat="46.019842944" lon="7.206196919">
        <ele>2332.800000</ele>
        <time>2015-08-05T12:34:38Z</time>
        <speed>1.493000</speed>
      </trkpt>
      <trkpt lat="46.019814194" lon="7.206184849">
        <ele>2332.800000</ele>
        <time>2015-08-05T12:34:40Z</time>
        <speed>1.478000</speed>
      </trkpt>
      <trkpt lat="46.019736075" lon="7.206165654">
        <ele>2332.800000</ele>
        <time>2015-08-05T12:34:46Z</time>
        <speed>1.609000</speed>
      </trkpt>
      <trkpt lat="46.019636833" lon="7.206140425">
        <ele>2332.800000</ele>
        <time>2015-08-05T12:34:53Z</time>
        <speed>1.602000</speed>
      </trkpt>
      <trkpt lat="46.019596684" lon="7.206139754">
        <ele>2332.800000</ele>
        <time>2015-08-05T12:34:56Z</time>
        <speed>1.625000</speed>
      </trkpt>
      <trkpt lat="46.019491742" lon="7.206127936">
        <ele>2332.800000</ele>
        <time>2015-08-05T12:35:04Z</time>
        <speed>1.586000</speed>
      </trkpt>
      <trkpt lat="46.019415802" lon="7.206118548">
        <ele>2333.200000</ele>
        <time>2015-08-05T12:35:10Z</time>
        <speed>1.559000</speed>
      </trkpt>
      <trkpt lat="46.019401218" lon="7.206125505">
        <ele>2333.600000</ele>
        <time>2015-08-05T12:35:11Z</time>
        <speed>1.412000</speed>
      </trkpt>
      <trkpt lat="46.019386466" lon="7.206123242">
        <ele>2334.000000</ele>
        <time>2015-08-05T12:35:12Z</time>
        <speed>1.412000</speed>
      </trkpt>
      <trkpt lat="46.019369283" lon="7.206117458">
        <ele>2334.400000</ele>
        <time>2015-08-05T12:35:13Z</time>
        <speed>1.479000</speed>
      </trkpt>
      <trkpt lat="46.019357129" lon="7.206113351">
        <ele>2334.800000</ele>
        <time>2015-08-05T12:35:14Z</time>
        <speed>1.542000</speed>
      </trkpt>
      <trkpt lat="46.019294181" lon="7.206107484">
        <ele>2334.800000</ele>
        <time>2015-08-05T12:35:19Z</time>
        <speed>1.474000</speed>
      </trkpt>
      <trkpt lat="46.019255540" lon="7.206116536">
        <ele>2334.800000</ele>
        <time>2015-08-05T12:35:22Z</time>
        <speed>1.598000</speed>
      </trkpt>
      <trkpt lat="46.019204075" lon="7.206123326">
        <ele>2334.800000</ele>
        <time>2015-08-05T12:35:26Z</time>
        <speed>1.628000</speed>
      </trkpt>
      <trkpt lat="46.019176583" lon="7.206141179">
        <ele>2334.800000</ele>
        <time>2015-08-05T12:35:29Z</time>
        <speed>1.470000</speed>
      </trkpt>
      <trkpt lat="46.019139283" lon="7.206135312">
        <ele>2335.200000</ele>
        <time>2015-08-05T12:35:32Z</time>
        <speed>1.341000</speed>
      </trkpt>
      <trkpt lat="46.019128722" lon="7.206143945">
        <ele>2335.600000</ele>
        <time>2015-08-05T12:35:33Z</time>
        <speed>1.341000</speed>
      </trkpt>
      <trkpt lat="46.019117407" lon="7.206131121">
        <ele>2336.000000</ele>
        <time>2015-08-05T12:35:34Z</time>
        <speed>1.485000</speed>
      </trkpt>
      <trkpt lat="46.019104918" lon="7.206120727">
        <ele>2336.400000</ele>
        <time>2015-08-05T12:35:35Z</time>
        <speed>1.373000</speed>
      </trkpt>
      <trkpt lat="46.019091758" lon="7.206112429">
        <ele>2337.000000</ele>
        <time>2015-08-05T12:35:36Z</time>
        <speed>1.373000</speed>
      </trkpt>
      <trkpt lat="46.019022607" lon="7.206055767">
        <ele>2337.400000</ele>
        <time>2015-08-05T12:35:42Z</time>
        <speed>1.531000</speed>
      </trkpt>
      <trkpt lat="46.019007687" lon="7.206050152">
        <ele>2337.800000</ele>
        <time>2015-08-05T12:35:43Z</time>
        <speed>1.531000</speed>
      </trkpt>
      <trkpt lat="46.019001736" lon="7.206035399">
        <ele>2338.200000</ele>
        <time>2015-08-05T12:35:44Z</time>
        <speed>1.723000</speed>
      </trkpt>
      <trkpt lat="46.018990756" lon="7.206019641">
        <ele>2338.600000</ele>
        <time>2015-08-05T12:35:45Z</time>
        <speed>1.555000</speed>
      </trkpt>
      <trkpt lat="46.018982961" lon="7.206012684">
        <ele>2339.000000</ele>
        <time>2015-08-05T12:35:46Z</time>
        <speed>1.549000</speed>
      </trkpt>
      <trkpt lat="46.018968795" lon="7.206001788">
        <ele>2339.000000</ele>
        <time>2015-08-05T12:35:47Z</time>
        <speed>1.549000</speed>
      </trkpt>
      <trkpt lat="46.018930155" lon="7.205990892">
        <ele>2339.000000</ele>
        <time>2015-08-05T12:35:50Z</time>
        <speed>1.913000</speed>
      </trkpt>
      <trkpt lat="46.018920180" lon="7.205983683">
        <ele>2339.400000</ele>
        <time>2015-08-05T12:35:51Z</time>
        <speed>1.913000</speed>
      </trkpt>
      <trkpt lat="46.018911044" lon="7.205977397">
        <ele>2339.800000</ele>
        <time>2015-08-05T12:35:52Z</time>
        <speed>1.378000</speed>
      </trkpt>
      <trkpt lat="46.018897549" lon="7.205979241">
        <ele>2340.200000</ele>
        <time>2015-08-05T12:35:53Z</time>
        <speed>1.291000</speed>
      </trkpt>
      <trkpt lat="46.018884725" lon="7.205975134">
        <ele>2341.000000</ele>
        <time>2015-08-05T12:35:54Z</time>
        <speed>1.291000</speed>
      </trkpt>
      <trkpt lat="46.018834434" lon="7.205924172">
        <ele>2341.000000</ele>
        <time>2015-08-05T12:35:59Z</time>
        <speed>1.374000</speed>
      </trkpt>
      <trkpt lat="46.018779281" lon="7.205867342">
        <ele>2341.000000</ele>
        <time>2015-08-05T12:36:05Z</time>
        <speed>1.373000</speed>
      </trkpt>
      <trkpt lat="46.018748435" lon="7.205797270">
        <ele>2341.000000</ele>
        <time>2015-08-05T12:36:10Z</time>
        <speed>1.427000</speed>
      </trkpt>
      <trkpt lat="46.018738628" lon="7.205789055">
        <ele>2341.400000</ele>
        <time>2015-08-05T12:36:11Z</time>
        <speed>1.427000</speed>
      </trkpt>
      <trkpt lat="46.018731671" lon="7.205780757">
        <ele>2342.000000</ele>
        <time>2015-08-05T12:36:12Z</time>
        <speed>1.343000</speed>
      </trkpt>
      <trkpt lat="46.018720188" lon="7.205776482">
        <ele>2342.400000</ele>
        <time>2015-08-05T12:36:13Z</time>
        <speed>1.323000</speed>
      </trkpt>
      <trkpt lat="46.018710717" lon="7.205772543">
        <ele>2342.800000</ele>
        <time>2015-08-05T12:36:14Z</time>
        <speed>1.323000</speed>
      </trkpt>
      <trkpt lat="46.018701245" lon="7.205762066">
        <ele>2343.200000</ele>
        <time>2015-08-05T12:36:15Z</time>
        <speed>1.209000</speed>
      </trkpt>
      <trkpt lat="46.018701748" lon="7.205759300">
        <ele>2343.200000</ele>
        <time>2015-08-05T12:36:17Z</time>
        <speed>1.420000</speed>
      </trkpt>
      <trkpt lat="46.018697641" lon="7.205765167">
        <ele>2343.200000</ele>
        <time>2015-08-05T12:36:23Z</time>
        <speed>0.000000</speed>
      </trkpt>
      <trkpt lat="46.018697641" lon="7.205765167">
        <ele>2343.200000</ele>
        <time>2015-08-05T12:36:32Z</time>
        <speed>0.000000</speed>
      </trkpt>
      <trkpt lat="46.018696467" lon="7.205758461">
        <ele>2343.200000</ele>
        <time>2015-08-05T12:36:47Z</time>
        <speed>0.000000</speed>
      </trkpt>
      <trkpt lat="46.018678530" lon="7.205753181">
        <ele>2343.200000</ele>
        <time>2015-08-05T12:36:52Z</time>
        <speed>0.000000</speed>
      </trkpt>
      <trkpt lat="46.018666209" lon="7.205764664">
        <ele>2343.600000</ele>
        <time>2015-08-05T12:36:53Z</time>
        <speed>0.853000</speed>
      </trkpt>
      <trkpt lat="46.018657324" lon="7.205765418">
        <ele>2344.000000</ele>
        <time>2015-08-05T12:36:54Z</time>
        <speed>0.853000</speed>
      </trkpt>
      <trkpt lat="46.018648942" lon="7.205776566">
        <ele>2344.400000</ele>
        <time>2015-08-05T12:36:55Z</time>
        <speed>0.853000</speed>
      </trkpt>
      <trkpt lat="46.018643913" lon="7.205781176">
        <ele>2344.800000</ele>
        <time>2015-08-05T12:36:56Z</time>
        <speed>0.626000</speed>
      </trkpt>
      <trkpt lat="46.018634609" lon="7.205782434">
        <ele>2345.200000</ele>
        <time>2015-08-05T12:36:57Z</time>
        <speed>0.626000</speed>
      </trkpt>
      <trkpt lat="46.018630250" lon="7.205785116">
        <ele>2345.200000</ele>
        <time>2015-08-05T12:36:58Z</time>
        <speed>0.626000</speed>
      </trkpt>
      <trkpt lat="46.018604602" lon="7.205793079">
        <ele>2345.200000</ele>
        <time>2015-08-05T12:37:03Z</time>
        <speed>0.000000</speed>
      </trkpt>
      <trkpt lat="46.018599824" lon="7.205787211">
        <ele>2345.200000</ele>
        <time>2015-08-05T12:37:04Z</time>
        <speed>0.000000</speed>
      </trkpt>
      <trkpt lat="46.018582390" lon="7.205760641">
        <ele>2345.600000</ele>
        <time>2015-08-05T12:37:09Z</time>
        <speed>0.000000</speed>
      </trkpt>
      <trkpt lat="46.018577361" lon="7.205757539">
        <ele>2346.000000</ele>
        <time>2015-08-05T12:37:10Z</time>
        <speed>0.000000</speed>
      </trkpt>
      <trkpt lat="46.018572918" lon="7.205755863">
        <ele>2346.400000</ele>
        <time>2015-08-05T12:37:11Z</time>
        <speed>0.000000</speed>
      </trkpt>
      <trkpt lat="46.018567805" lon="7.205752845">
        <ele>2346.800000</ele>
        <time>2015-08-05T12:37:12Z</time>
        <speed>0.000000</speed>
      </trkpt>
      <trkpt lat="46.018561435" lon="7.205750079">
        <ele>2347.200000</ele>
        <time>2015-08-05T12:37:13Z</time>
        <speed>0.000000</speed>
      </trkpt>
      <trkpt lat="46.018535954" lon="7.205731304">
        <ele>2347.200000</ele>
        <time>2015-08-05T12:37:17Z</time>
        <speed>0.000000</speed>
      </trkpt>
      <trkpt lat="46.018514664" lon="7.205727951">
        <ele>2347.600000</ele>
        <time>2015-08-05T12:37:22Z</time>
        <speed>0.000000</speed>
      </trkpt>
      <trkpt lat="46.018509467" lon="7.205727784">
        <ele>2348.000000</ele>
        <time>2015-08-05T12:37:23Z</time>
        <speed>0.000000</speed>
      </trkpt>
      <trkpt lat="46.018502259" lon="7.205728873">
        <ele>2348.400000</ele>
        <time>2015-08-05T12:37:24Z</time>
        <speed>0.000000</speed>
      </trkpt>
      <trkpt lat="46.018496559" lon="7.205729628">
        <ele>2349.000000</ele>
        <time>2015-08-05T12:37:25Z</time>
        <speed>0.000000</speed>
      </trkpt>
      <trkpt lat="46.018490440" lon="7.205729376">
        <ele>2349.400000</ele>
        <time>2015-08-05T12:37:26Z</time>
        <speed>0.000000</speed>
      </trkpt>
      <trkpt lat="46.018480717" lon="7.205724179">
        <ele>2349.400000</ele>
        <time>2015-08-05T12:37:28Z</time>
        <speed>0.000000</speed>
      </trkpt>
      <trkpt lat="46.018460852" lon="7.205723509">
        <ele>2350.200000</ele>
        <time>2015-08-05T12:37:33Z</time>
        <speed>0.000000</speed>
      </trkpt>
      <trkpt lat="46.018457080" lon="7.205728370">
        <ele>2350.600000</ele>
        <time>2015-08-05T12:37:34Z</time>
        <speed>0.000000</speed>
      </trkpt>
      <trkpt lat="46.018451800" lon="7.205727448">
        <ele>2351.000000</ele>
        <time>2015-08-05T12:37:35Z</time>
        <speed>0.000000</speed>
      </trkpt>
      <trkpt lat="46.018447273" lon="7.205732142">
        <ele>2351.400000</ele>
        <time>2015-08-05T12:37:36Z</time>
        <speed>0.000000</speed>
      </trkpt>
      <trkpt lat="46.018413997" lon="7.205726526">
        <ele>2351.400000</ele>
        <time>2015-08-05T12:37:40Z</time>
        <speed>0.000000</speed>
      </trkpt>
      <trkpt lat="46.018367394" lon="7.205720994">
        <ele>2351.400000</ele>
        <time>2015-08-05T12:37:46Z</time>
        <speed>0.000000</speed>
      </trkpt>
      <trkpt lat="46.018351049" lon="7.205713786">
        <ele>2351.800000</ele>
        <time>2015-08-05T12:37:48Z</time>
        <speed>0.000000</speed>
      </trkpt>
      <trkpt lat="46.018341661" lon="7.205711187">
        <ele>2352.200000</ele>
        <time>2015-08-05T12:37:49Z</time>
        <speed>0.000000</speed>
      </trkpt>
      <trkpt lat="46.018334704" lon="7.205710433">
        <ele>2352.600000</ele>
        <time>2015-08-05T12:37:50Z</time>
        <speed>0.000000</speed>
      </trkpt>
      <trkpt lat="46.018327161" lon="7.205708086">
        <ele>2353.000000</ele>
        <time>2015-08-05T12:37:51Z</time>
        <speed>0.000000</speed>
      </trkpt>
      <trkpt lat="46.018318695" lon="7.205703728">
        <ele>2353.400000</ele>
        <time>2015-08-05T12:37:52Z</time>
        <speed>0.000000</speed>
      </trkpt>
      <trkpt lat="46.018283407" lon="7.205688724">
        <ele>2353.400000</ele>
        <time>2015-08-05T12:37:57Z</time>
        <speed>0.000000</speed>
      </trkpt>
      <trkpt lat="46.018223896" lon="7.205681851">
        <ele>2353.400000</ele>
        <time>2015-08-05T12:38:04Z</time>
        <speed>0.000000</speed>
      </trkpt>
      <trkpt lat="46.018186261" lon="7.205671373">
        <ele>2353.800000</ele>
        <time>2015-08-05T12:38:08Z</time>
        <speed>0.000000</speed>
      </trkpt>
      <trkpt lat="46.018178550" lon="7.205674642">
        <ele>2354.200000</ele>
        <time>2015-08-05T12:38:09Z</time>
        <speed>0.000000</speed>
      </trkpt>
      <trkpt lat="46.018171425" lon="7.205672463">
        <ele>2354.600000</ele>
        <time>2015-08-05T12:38:10Z</time>
        <speed>0.000000</speed>
      </trkpt>
      <trkpt lat="46.018161870" lon="7.205666763">
        <ele>2355.000000</ele>
        <time>2015-08-05T12:38:11Z</time>
        <speed>0.000000</speed>
      </trkpt>
      <trkpt lat="46.018153823" lon="7.205664081">
        <ele>2355.400000</ele>
        <time>2015-08-05T12:38:12Z</time>
        <speed>0.000000</speed>
      </trkpt>
      <trkpt lat="46.018124403" lon="7.205650922">
        <ele>2355.400000</ele>
        <time>2015-08-05T12:38:17Z</time>
        <speed>0.000000</speed>
      </trkpt>
      <trkpt lat="46.018079727" lon="7.205640612">
        <ele>2355.400000</ele>
        <time>2015-08-05T12:38:22Z</time>
        <speed>0.000000</speed>
      </trkpt>
      <trkpt lat="46.018047038" lon="7.205631895">
        <ele>2355.800000</ele>
        <time>2015-08-05T12:38:26Z</time>
        <speed>0.000000</speed>
      </trkpt>
      <trkpt lat="46.018039661" lon="7.205630973">
        <ele>2356.200000</ele>
        <time>2015-08-05T12:38:27Z</time>
        <speed>0.000000</speed>
      </trkpt>
      <trkpt lat="46.018031363" lon="7.205631811">
        <ele>2356.600000</ele>
        <time>2015-08-05T12:38:28Z</time>
        <speed>0.000000</speed>
      </trkpt>
      <trkpt lat="46.018021557" lon="7.205631392">
        <ele>2357.000000</ele>
        <time>2015-08-05T12:38:29Z</time>
        <speed>0.000000</speed>
      </trkpt>
      <trkpt lat="46.018009990" lon="7.205632146">
        <ele>2357.400000</ele>
        <time>2015-08-05T12:38:30Z</time>
        <speed>0.000000</speed>
      </trkpt>
      <trkpt lat="46.017971433" lon="7.205625357">
        <ele>2357.400000</ele>
        <time>2015-08-05T12:38:35Z</time>
        <speed>0.000000</speed>
      </trkpt>
      <trkpt lat="46.017941090" lon="7.205618651">
        <ele>2357.400000</ele>
        <time>2015-08-05T12:38:41Z</time>
        <speed>0.000000</speed>
      </trkpt>
      <trkpt lat="46.017913514" lon="7.205585291">
        <ele>2358.200000</ele>
        <time>2015-08-05T12:38:46Z</time>
        <speed>0.000000</speed>
      </trkpt>
      <trkpt lat="46.017913514" lon="7.205578334">
        <ele>2358.600000</ele>
        <time>2015-08-05T12:38:47Z</time>
        <speed>0.000000</speed>
      </trkpt>
      <trkpt lat="46.017911167" lon="7.205568360">
        <ele>2359.000000</ele>
        <time>2015-08-05T12:38:48Z</time>
        <speed>0.000000</speed>
      </trkpt>
      <trkpt lat="46.017907395" lon="7.205561738">
        <ele>2359.400000</ele>
        <time>2015-08-05T12:38:49Z</time>
        <speed>0.000000</speed>
      </trkpt>
      <trkpt lat="46.017885015" lon="7.205552183">
        <ele>2359.400000</ele>
        <time>2015-08-05T12:38:52Z</time>
        <speed>0.000000</speed>
      </trkpt>
      <trkpt lat="46.017850817" lon="7.205539191">
        <ele>2359.400000</ele>
        <time>2015-08-05T12:38:57Z</time>
        <speed>0.000000</speed>
      </trkpt>
      <trkpt lat="46.017814440" lon="7.205499712">
        <ele>2359.400000</ele>
        <time>2015-08-05T12:39:03Z</time>
        <speed>0.000000</speed>
      </trkpt>
      <trkpt lat="46.017766244" lon="7.205470459">
        <ele>2359.800000</ele>
        <time>2015-08-05T12:39:08Z</time>
        <speed>0.000000</speed>
      </trkpt>
      <trkpt lat="46.017756940" lon="7.205469034">
        <ele>2360.200000</ele>
        <time>2015-08-05T12:39:09Z</time>
        <speed>0.000000</speed>
      </trkpt>
      <trkpt lat="46.017747552" lon="7.205465598">
        <ele>2360.600000</ele>
        <time>2015-08-05T12:39:10Z</time>
        <speed>0.000000</speed>
      </trkpt>
      <trkpt lat="46.017738835" lon="7.205464759">
        <ele>2361.600000</ele>
        <time>2015-08-05T12:39:11Z</time>
        <speed>0.000000</speed>
      </trkpt>
      <trkpt lat="46.017704385" lon="7.205453779">
        <ele>2361.600000</ele>
        <time>2015-08-05T12:39:15Z</time>
        <speed>0.000000</speed>
      </trkpt>
      <trkpt lat="46.017665577" lon="7.205458305">
        <ele>2361.600000</ele>
        <time>2015-08-05T12:39:20Z</time>
        <speed>0.000000</speed>
      </trkpt>
      <trkpt lat="46.017611849" lon="7.205458473">
        <ele>2361.600000</ele>
        <time>2015-08-05T12:39:26Z</time>
        <speed>0.000000</speed>
      </trkpt>
      <trkpt lat="46.017569856" lon="7.205473058">
        <ele>2361.600000</ele>
        <time>2015-08-05T12:39:31Z</time>
        <speed>0.000000</speed>
      </trkpt>
      <trkpt lat="46.017559630" lon="7.205475824">
        <ele>2362.000000</ele>
        <time>2015-08-05T12:39:32Z</time>
        <speed>0.000000</speed>
      </trkpt>
      <trkpt lat="46.017552338" lon="7.205482864">
        <ele>2362.400000</ele>
        <time>2015-08-05T12:39:33Z</time>
        <speed>0.000000</speed>
      </trkpt>
      <trkpt lat="46.017543788" lon="7.205490995">
        <ele>2362.800000</ele>
        <time>2015-08-05T12:39:34Z</time>
        <speed>0.000000</speed>
      </trkpt>
      <trkpt lat="46.017535909" lon="7.205499041">
        <ele>2363.600000</ele>
        <time>2015-08-05T12:39:35Z</time>
        <speed>0.000000</speed>
      </trkpt>
      <trkpt lat="46.017514954" lon="7.205511614">
        <ele>2363.600000</ele>
        <time>2015-08-05T12:39:37Z</time>
        <speed>0.000000</speed>
      </trkpt>
      <trkpt lat="46.017471285" lon="7.205536509">
        <ele>2363.600000</ele>
        <time>2015-08-05T12:39:42Z</time>
        <speed>0.000000</speed>
      </trkpt>
      <trkpt lat="46.017421831" lon="7.205561487">
        <ele>2363.600000</ele>
        <time>2015-08-05T12:39:48Z</time>
        <speed>0.000000</speed>
      </trkpt>
      <trkpt lat="46.017357039" lon="7.205559391">
        <ele>2363.600000</ele>
        <time>2015-08-05T12:39:55Z</time>
        <speed>0.000000</speed>
      </trkpt>
      <trkpt lat="46.017290906" lon="7.205569869">
        <ele>2363.600000</ele>
        <time>2015-08-05T12:40:02Z</time>
        <speed>0.000000</speed>
      </trkpt>
      <trkpt lat="46.017267604" lon="7.205573137">
        <ele>2364.000000</ele>
        <time>2015-08-05T12:40:04Z</time>
        <speed>0.000000</speed>
      </trkpt>
      <trkpt lat="46.017257043" lon="7.205574730">
        <ele>2364.400000</ele>
        <time>2015-08-05T12:40:05Z</time>
        <speed>0.000000</speed>
      </trkpt>
      <trkpt lat="46.017247739" lon="7.205575317">
        <ele>2364.800000</ele>
        <time>2015-08-05T12:40:06Z</time>
        <speed>0.000000</speed>
      </trkpt>
      <trkpt lat="46.017235585" lon="7.205574143">
        <ele>2365.200000</ele>
        <time>2015-08-05T12:40:07Z</time>
        <speed>0.000000</speed>
      </trkpt>
      <trkpt lat="46.017226365" lon="7.205575987">
        <ele>2365.600000</ele>
        <time>2015-08-05T12:40:08Z</time>
        <speed>0.000000</speed>
      </trkpt>
      <trkpt lat="46.017186384" lon="7.205582860">
        <ele>2365.600000</ele>
        <time>2015-08-05T12:40:13Z</time>
        <speed>0.000000</speed>
      </trkpt>
      <trkpt lat="46.017137853" lon="7.205586465">
        <ele>2365.600000</ele>
        <time>2015-08-05T12:40:18Z</time>
        <speed>0.000000</speed>
      </trkpt>
      <trkpt lat="46.017086136" lon="7.205586884">
        <ele>2366.400000</ele>
        <time>2015-08-05T12:40:25Z</time>
        <speed>0.000000</speed>
      </trkpt>
      <trkpt lat="46.017079514" lon="7.205585710">
        <ele>2366.800000</ele>
        <time>2015-08-05T12:40:26Z</time>
        <speed>0.000000</speed>
      </trkpt>
      <trkpt lat="46.017075407" lon="7.205584369">
        <ele>2367.200000</ele>
        <time>2015-08-05T12:40:27Z</time>
        <speed>0.000000</speed>
      </trkpt>
      <trkpt lat="46.017065517" lon="7.205583028">
        <ele>2367.600000</ele>
        <time>2015-08-05T12:40:28Z</time>
        <speed>0.000000</speed>
      </trkpt>
      <trkpt lat="46.017037605" lon="7.205576155">
        <ele>2367.600000</ele>
        <time>2015-08-05T12:40:31Z</time>
        <speed>0.000000</speed>
      </trkpt>
      <trkpt lat="46.017005838" lon="7.205606246">
        <ele>2367.600000</ele>
        <time>2015-08-05T12:40:37Z</time>
        <speed>0.000000</speed>
      </trkpt>
      <trkpt lat="46.017001647" lon="7.205608341">
        <ele>2368.000000</ele>
        <time>2015-08-05T12:40:38Z</time>
        <speed>0.000000</speed>
      </trkpt>
      <trkpt lat="46.016996785" lon="7.205614041">
        <ele>2368.600000</ele>
        <time>2015-08-05T12:40:39Z</time>
        <speed>0.000000</speed>
      </trkpt>
      <trkpt lat="46.016992343" lon="7.205619573">
        <ele>2369.000000</ele>
        <time>2015-08-05T12:40:40Z</time>
        <speed>0.000000</speed>
      </trkpt>
      <trkpt lat="46.016988319" lon="7.205624435">
        <ele>2369.400000</ele>
        <time>2015-08-05T12:40:41Z</time>
        <speed>0.000000</speed>
      </trkpt>
      <trkpt lat="46.016984212" lon="7.205627620">
        <ele>2369.800000</ele>
        <time>2015-08-05T12:40:42Z</time>
        <speed>0.000000</speed>
      </trkpt>
      <trkpt lat="46.016952277" lon="7.205637678">
        <ele>2369.800000</ele>
        <time>2015-08-05T12:40:48Z</time>
        <speed>0.000000</speed>
      </trkpt>
      <trkpt lat="46.016946158" lon="7.205642372">
        <ele>2370.200000</ele>
        <time>2015-08-05T12:40:49Z</time>
        <speed>0.000000</speed>
      </trkpt>
      <trkpt lat="46.016938950" lon="7.205641953">
        <ele>2370.600000</ele>
        <time>2015-08-05T12:40:50Z</time>
        <speed>0.000000</speed>
      </trkpt>
      <trkpt lat="46.016932161" lon="7.205640025">
        <ele>2371.000000</ele>
        <time>2015-08-05T12:40:51Z</time>
        <speed>0.000000</speed>
      </trkpt>
      <trkpt lat="46.016927048" lon="7.205637930">
        <ele>2371.400000</ele>
        <time>2015-08-05T12:40:52Z</time>
        <speed>0.000000</speed>
      </trkpt>
      <trkpt lat="46.016919923" lon="7.205634744">
        <ele>2371.800000</ele>
        <time>2015-08-05T12:40:53Z</time>
        <speed>0.000000</speed>
      </trkpt>
      <trkpt lat="46.016911625" lon="7.205627787">
        <ele>2371.800000</ele>
        <time>2015-08-05T12:40:54Z</time>
        <speed>0.000000</speed>
      </trkpt>
      <trkpt lat="46.016849683" lon="7.205627033">
        <ele>2371.800000</ele>
        <time>2015-08-05T12:41:01Z</time>
        <speed>0.000000</speed>
      </trkpt>
      <trkpt lat="46.016840043" lon="7.205636924">
        <ele>2372.200000</ele>
        <time>2015-08-05T12:41:03Z</time>
        <speed>0.000000</speed>
      </trkpt>
      <trkpt lat="46.016834092" lon="7.205647485">
        <ele>2372.600000</ele>
        <time>2015-08-05T12:41:04Z</time>
        <speed>0.000000</speed>
      </trkpt>
      <trkpt lat="46.016827387" lon="7.205656957">
        <ele>2373.000000</ele>
        <time>2015-08-05T12:41:05Z</time>
        <speed>0.000000</speed>
      </trkpt>
      <trkpt lat="46.016822022" lon="7.205665590">
        <ele>2373.400000</ele>
        <time>2015-08-05T12:41:06Z</time>
        <speed>0.000000</speed>
      </trkpt>
      <trkpt lat="46.016817831" lon="7.205675648">
        <ele>2373.800000</ele>
        <time>2015-08-05T12:41:07Z</time>
        <speed>0.000000</speed>
      </trkpt>
      <trkpt lat="46.016755219" lon="7.205717306">
        <ele>2373.800000</ele>
        <time>2015-08-05T12:41:13Z</time>
        <speed>0.000000</speed>
      </trkpt>
      <trkpt lat="46.016716830" lon="7.205770364">
        <ele>2373.800000</ele>
        <time>2015-08-05T12:41:18Z</time>
        <speed>0.000000</speed>
      </trkpt>
      <trkpt lat="46.016663521" lon="7.205810513">
        <ele>2373.800000</ele>
        <time>2015-08-05T12:41:24Z</time>
        <speed>0.000000</speed>
      </trkpt>
      <trkpt lat="46.016618845" lon="7.205848148">
        <ele>2373.800000</ele>
        <time>2015-08-05T12:41:29Z</time>
        <speed>0.000000</speed>
      </trkpt>
      <trkpt lat="46.016611469" lon="7.205857955">
        <ele>2373.800000</ele>
        <time>2015-08-05T12:41:30Z</time>
        <speed>0.000000</speed>
      </trkpt>
      <trkpt lat="46.016551119" lon="7.205910174">
        <ele>2373.800000</ele>
        <time>2015-08-05T12:41:38Z</time>
        <speed>0.000000</speed>
      </trkpt>
      <trkpt lat="46.016515245" lon="7.205982510">
        <ele>2373.800000</ele>
        <time>2015-08-05T12:41:45Z</time>
        <speed>0.000000</speed>
      </trkpt>
      <trkpt lat="46.016499654" lon="7.205999022">
        <ele>2374.400000</ele>
        <time>2015-08-05T12:41:47Z</time>
        <speed>2.473000</speed>
      </trkpt>
      <trkpt lat="46.016491943" lon="7.206009918">
        <ele>2374.800000</ele>
        <time>2015-08-05T12:41:48Z</time>
        <speed>1.969000</speed>
      </trkpt>
      <trkpt lat="46.016484735" lon="7.206013271">
        <ele>2375.200000</ele>
        <time>2015-08-05T12:41:49Z</time>
        <speed>1.969000</speed>
      </trkpt>
      <trkpt lat="46.016483058" lon="7.206035148">
        <ele>2375.600000</ele>
        <time>2015-08-05T12:41:50Z</time>
        <speed>1.969000</speed>
      </trkpt>
      <trkpt lat="46.016483058" lon="7.206033723">
        <ele>2376.000000</ele>
        <time>2015-08-05T12:41:51Z</time>
        <speed>0.000000</speed>
      </trkpt>
      <trkpt lat="46.016456991" lon="7.206077896">
        <ele>2376.000000</ele>
        <time>2015-08-05T12:41:57Z</time>
        <speed>0.000000</speed>
      </trkpt>
      <trkpt lat="46.016431426" lon="7.206107819">
        <ele>2376.400000</ele>
        <time>2015-08-05T12:42:01Z</time>
        <speed>0.000000</speed>
      </trkpt>
      <trkpt lat="46.016426061" lon="7.206114189">
        <ele>2376.800000</ele>
        <time>2015-08-05T12:42:02Z</time>
        <speed>0.000000</speed>
      </trkpt>
      <trkpt lat="46.016420529" lon="7.206117877">
        <ele>2377.600000</ele>
        <time>2015-08-05T12:42:03Z</time>
        <speed>0.000000</speed>
      </trkpt>
      <trkpt lat="46.016415584" lon="7.206124583">
        <ele>2378.200000</ele>
        <time>2015-08-05T12:42:04Z</time>
        <speed>0.000000</speed>
      </trkpt>
      <trkpt lat="46.016383481" lon="7.206174958">
        <ele>2378.200000</ele>
        <time>2015-08-05T12:42:10Z</time>
        <speed>0.000000</speed>
      </trkpt>
      <trkpt lat="46.016357665" lon="7.206233548">
        <ele>2378.200000</ele>
        <time>2015-08-05T12:42:18Z</time>
        <speed>0.000000</speed>
      </trkpt>
      <trkpt lat="46.016356072" lon="7.206256263">
        <ele>2378.600000</ele>
        <time>2015-08-05T12:42:20Z</time>
        <speed>0.000000</speed>
      </trkpt>
      <trkpt lat="46.016351546" lon="7.206274870">
        <ele>2379.000000</ele>
        <time>2015-08-05T12:42:21Z</time>
        <speed>0.000000</speed>
      </trkpt>
      <trkpt lat="46.016348780" lon="7.206291802">
        <ele>2379.400000</ele>
        <time>2015-08-05T12:42:22Z</time>
        <speed>0.000000</speed>
      </trkpt>
      <trkpt lat="46.016346433" lon="7.206307644">
        <ele>2379.800000</ele>
        <time>2015-08-05T12:42:23Z</time>
        <speed>0.000000</speed>
      </trkpt>
      <trkpt lat="46.016342494" lon="7.206319546">
        <ele>2380.200000</ele>
        <time>2015-08-05T12:42:24Z</time>
        <speed>0.000000</speed>
      </trkpt>
      <trkpt lat="46.016330424" lon="7.206378052">
        <ele>2380.200000</ele>
        <time>2015-08-05T12:42:29Z</time>
        <speed>0.000000</speed>
      </trkpt>
      <trkpt lat="46.016316845" lon="7.206412837">
        <ele>2380.200000</ele>
        <time>2015-08-05T12:42:35Z</time>
        <speed>0.000000</speed>
      </trkpt>
      <trkpt lat="46.016316845" lon="7.206412837">
        <ele>2380.200000</ele>
        <time>2015-08-05T12:42:42Z</time>
        <speed>0.000000</speed>
      </trkpt>
      <trkpt lat="46.016280551" lon="7.206437815">
        <ele>2380.200000</ele>
        <time>2015-08-05T12:42:44Z</time>
        <speed>1.889000</speed>
      </trkpt>
      <trkpt lat="46.016236379" lon="7.206477461">
        <ele>2380.200000</ele>
        <time>2015-08-05T12:42:47Z</time>
        <speed>1.473000</speed>
      </trkpt>
      <trkpt lat="46.016180136" lon="7.206521131">
        <ele>2380.200000</ele>
        <time>2015-08-05T12:42:52Z</time>
        <speed>1.949000</speed>
      </trkpt>
      <trkpt lat="46.016185920" lon="7.206516185">
        <ele>2380.200000</ele>
        <time>2015-08-05T12:42:53Z</time>
        <speed>1.699000</speed>
      </trkpt>
      <trkpt lat="46.016185501" lon="7.206515012">
        <ele>2380.200000</ele>
        <time>2015-08-05T12:43:03Z</time>
        <speed>0.000000</speed>
      </trkpt>
      <trkpt lat="46.016153147" lon="7.206550970">
        <ele>2380.200000</ele>
        <time>2015-08-05T12:43:06Z</time>
        <speed>23.162001</speed>
      </trkpt>
      <trkpt lat="46.016131856" lon="7.206569243">
        <ele>2379.800000</ele>
        <time>2015-08-05T12:43:08Z</time>
        <speed>0.000000</speed>
      </trkpt>
      <trkpt lat="46.016089276" lon="7.206610566">
        <ele>2379.400000</ele>
        <time>2015-08-05T12:43:09Z</time>
        <speed>2.813000</speed>
      </trkpt>
      <trkpt lat="46.016077374" lon="7.206614086">
        <ele>2378.800000</ele>
        <time>2015-08-05T12:43:10Z</time>
        <speed>3.359000</speed>
      </trkpt>
      <trkpt lat="46.016069663" lon="7.206629676">
        <ele>2378.400000</ele>
        <time>2015-08-05T12:43:11Z</time>
        <speed>2.257000</speed>
      </trkpt>
      <trkpt lat="46.016069914" lon="7.206631604">
        <ele>2378.000000</ele>
        <time>2015-08-05T12:43:12Z</time>
        <speed>0.000000</speed>
      </trkpt>
      <trkpt lat="46.015967152" lon="7.206752807">
        <ele>2378.000000</ele>
        <time>2015-08-05T12:43:16Z</time>
        <speed>2.727000</speed>
      </trkpt>
      <trkpt lat="46.015936810" lon="7.206750879">
        <ele>2378.000000</ele>
        <time>2015-08-05T12:43:17Z</time>
        <speed>3.595000</speed>
      </trkpt>
      <trkpt lat="46.015811081" lon="7.206785496">
        <ele>2378.000000</ele>
        <time>2015-08-05T12:43:21Z</time>
        <speed>4.057000</speed>
      </trkpt>
      <trkpt lat="46.015768836" lon="7.206807540">
        <ele>2378.000000</ele>
        <time>2015-08-05T12:43:25Z</time>
        <speed>0.000000</speed>
      </trkpt>
      <trkpt lat="46.015727430" lon="7.206872081">
        <ele>2378.000000</ele>
        <time>2015-08-05T12:43:28Z</time>
        <speed>2.110000</speed>
      </trkpt>
      <trkpt lat="46.015726508" lon="7.206896389">
        <ele>2378.000000</ele>
        <time>2015-08-05T12:43:29Z</time>
        <speed>1.552000</speed>
      </trkpt>
      <trkpt lat="46.015692226" lon="7.206960342">
        <ele>2378.000000</ele>
        <time>2015-08-05T12:43:33Z</time>
        <speed>1.652000</speed>
      </trkpt>
      <trkpt lat="46.015686694" lon="7.206971490">
        <ele>2378.000000</ele>
        <time>2015-08-05T12:43:34Z</time>
        <speed>1.886000</speed>
      </trkpt>
      <trkpt lat="46.015648304" lon="7.207000156">
        <ele>2378.000000</ele>
        <time>2015-08-05T12:43:37Z</time>
        <speed>1.427000</speed>
      </trkpt>
      <trkpt lat="46.015614945" lon="7.207026895">
        <ele>2378.000000</ele>
        <time>2015-08-05T12:43:39Z</time>
        <speed>1.796000</speed>
      </trkpt>
      <trkpt lat="46.015576723" lon="7.207079114">
        <ele>2378.000000</ele>
        <time>2015-08-05T12:43:43Z</time>
        <speed>1.709000</speed>
      </trkpt>
      <trkpt lat="46.015577477" lon="7.207093950">
        <ele>2378.000000</ele>
        <time>2015-08-05T12:43:44Z</time>
        <speed>1.631000</speed>
      </trkpt>
      <trkpt lat="46.015538502" lon="7.207214482">
        <ele>2378.000000</ele>
        <time>2015-08-05T12:43:51Z</time>
        <speed>1.646000</speed>
      </trkpt>
      <trkpt lat="46.015491647" lon="7.207286398">
        <ele>2378.400000</ele>
        <time>2015-08-05T12:43:56Z</time>
        <speed>1.958000</speed>
      </trkpt>
      <trkpt lat="46.015495083" lon="7.207291428">
        <ele>2379.000000</ele>
        <time>2015-08-05T12:43:57Z</time>
        <speed>1.958000</speed>
      </trkpt>
      <trkpt lat="46.015492653" lon="7.207293188">
        <ele>2379.400000</ele>
        <time>2015-08-05T12:43:58Z</time>
        <speed>1.958000</speed>
      </trkpt>
      <trkpt lat="46.015499777" lon="7.207295367">
        <ele>2379.800000</ele>
        <time>2015-08-05T12:43:59Z</time>
        <speed>1.958000</speed>
      </trkpt>
      <trkpt lat="46.015495167" lon="7.207307186">
        <ele>2380.200000</ele>
        <time>2015-08-05T12:44:00Z</time>
        <speed>0.000000</speed>
      </trkpt>
      <trkpt lat="46.015491311" lon="7.207335014">
        <ele>2380.200000</ele>
        <time>2015-08-05T12:44:02Z</time>
        <speed>0.000000</speed>
      </trkpt>
      <trkpt lat="46.015491228" lon="7.207331996">
        <ele>2380.200000</ele>
        <time>2015-08-05T12:44:04Z</time>
        <speed>2.413000</speed>
      </trkpt>
      <trkpt lat="46.015490306" lon="7.207348676">
        <ele>2380.200000</ele>
        <time>2015-08-05T12:44:07Z</time>
        <speed>0.000000</speed>
      </trkpt>
      <trkpt lat="46.015479661" lon="7.207362841">
        <ele>2380.200000</ele>
        <time>2015-08-05T12:44:14Z</time>
        <speed>0.000000</speed>
      </trkpt>
      <trkpt lat="46.015479661" lon="7.207362841">
        <ele>2380.200000</ele>
        <time>2015-08-05T12:44:21Z</time>
        <speed>0.000000</speed>
      </trkpt>
      <trkpt lat="46.015459125" lon="7.207397962">
        <ele>2380.200000</ele>
        <time>2015-08-05T12:44:25Z</time>
        <speed>0.000000</speed>
      </trkpt>
      <trkpt lat="46.015458119" lon="7.207419084">
        <ele>2380.800000</ele>
        <time>2015-08-05T12:44:26Z</time>
        <speed>0.000000</speed>
      </trkpt>
      <trkpt lat="46.015459712" lon="7.207434255">
        <ele>2381.200000</ele>
        <time>2015-08-05T12:44:27Z</time>
        <speed>0.000000</speed>
      </trkpt>
      <trkpt lat="46.015458454" lon="7.207440709">
        <ele>2381.600000</ele>
        <time>2015-08-05T12:44:28Z</time>
        <speed>0.000000</speed>
      </trkpt>
      <trkpt lat="46.015457868" lon="7.207455294">
        <ele>2382.000000</ele>
        <time>2015-08-05T12:44:29Z</time>
        <speed>0.000000</speed>
      </trkpt>
      <trkpt lat="46.015452084" lon="7.207465436">
        <ele>2382.400000</ele>
        <time>2015-08-05T12:44:30Z</time>
        <speed>0.000000</speed>
      </trkpt>
      <trkpt lat="46.015453509" lon="7.207505334">
        <ele>2382.400000</ele>
        <time>2015-08-05T12:44:35Z</time>
        <speed>0.000000</speed>
      </trkpt>
      <trkpt lat="46.015445211" lon="7.207551015">
        <ele>2382.800000</ele>
        <time>2015-08-05T12:44:41Z</time>
        <speed>0.000000</speed>
      </trkpt>
      <trkpt lat="46.015445379" lon="7.207562498">
        <ele>2383.200000</ele>
        <time>2015-08-05T12:44:42Z</time>
        <speed>0.000000</speed>
      </trkpt>
      <trkpt lat="46.015440098" lon="7.207568533">
        <ele>2383.600000</ele>
        <time>2015-08-05T12:44:43Z</time>
        <speed>0.000000</speed>
      </trkpt>
      <trkpt lat="46.015431213" lon="7.207570042">
        <ele>2384.000000</ele>
        <time>2015-08-05T12:44:44Z</time>
        <speed>0.000000</speed>
      </trkpt>
      <trkpt lat="46.015425681" lon="7.207574904">
        <ele>2384.600000</ele>
        <time>2015-08-05T12:44:45Z</time>
        <speed>0.000000</speed>
      </trkpt>
      <trkpt lat="46.015420401" lon="7.207591584">
        <ele>2384.600000</ele>
        <time>2015-08-05T12:44:47Z</time>
        <speed>0.000000</speed>
      </trkpt>
      <trkpt lat="46.015412438" lon="7.207624608">
        <ele>2385.000000</ele>
        <time>2015-08-05T12:44:52Z</time>
        <speed>0.000000</speed>
      </trkpt>
      <trkpt lat="46.015407409" lon="7.207632739">
        <ele>2385.400000</ele>
        <time>2015-08-05T12:44:53Z</time>
        <speed>0.000000</speed>
      </trkpt>
      <trkpt lat="46.015403804" lon="7.207639193">
        <ele>2385.800000</ele>
        <time>2015-08-05T12:44:54Z</time>
        <speed>0.000000</speed>
      </trkpt>
      <trkpt lat="46.015403804" lon="7.207639193">
        <ele>2386.600000</ele>
        <time>2015-08-05T12:44:55Z</time>
        <speed>0.000000</speed>
      </trkpt>
      <trkpt lat="46.015397853" lon="7.207664674">
        <ele>2386.600000</ele>
        <time>2015-08-05T12:44:58Z</time>
        <speed>0.000000</speed>
      </trkpt>
      <trkpt lat="46.015381173" lon="7.207712367">
        <ele>2386.600000</ele>
        <time>2015-08-05T12:45:03Z</time>
        <speed>0.000000</speed>
      </trkpt>
      <trkpt lat="46.015378240" lon="7.207720497">
        <ele>2387.000000</ele>
        <time>2015-08-05T12:45:04Z</time>
        <speed>0.000000</speed>
      </trkpt>
      <trkpt lat="46.015376144" lon="7.207726868">
        <ele>2387.400000</ele>
        <time>2015-08-05T12:45:05Z</time>
        <speed>0.000000</speed>
      </trkpt>
      <trkpt lat="46.015376144" lon="7.207726868">
        <ele>2387.800000</ele>
        <time>2015-08-05T12:45:06Z</time>
        <speed>0.000000</speed>
      </trkpt>
      <trkpt lat="46.015373546" lon="7.207733741">
        <ele>2388.200000</ele>
        <time>2015-08-05T12:45:07Z</time>
        <speed>0.000000</speed>
      </trkpt>
      <trkpt lat="46.015366840" lon="7.207746649">
        <ele>2388.600000</ele>
        <time>2015-08-05T12:45:08Z</time>
        <speed>0.000000</speed>
      </trkpt>
      <trkpt lat="46.015335157" lon="7.207781015">
        <ele>2388.600000</ele>
        <time>2015-08-05T12:45:13Z</time>
        <speed>0.000000</speed>
      </trkpt>
      <trkpt lat="46.015327445" lon="7.207810016">
        <ele>2388.600000</ele>
        <time>2015-08-05T12:45:19Z</time>
        <speed>0.000000</speed>
      </trkpt>
      <trkpt lat="46.015316549" lon="7.207828205">
        <ele>2389.000000</ele>
        <time>2015-08-05T12:45:21Z</time>
        <speed>0.000000</speed>
      </trkpt>
      <trkpt lat="46.015306490" lon="7.207844382">
        <ele>2389.400000</ele>
        <time>2015-08-05T12:45:22Z</time>
        <speed>0.000000</speed>
      </trkpt>
      <trkpt lat="46.015297689" lon="7.207859302">
        <ele>2389.800000</ele>
        <time>2015-08-05T12:45:23Z</time>
        <speed>0.000000</speed>
      </trkpt>
      <trkpt lat="46.015291990" lon="7.207860643">
        <ele>2390.200000</ele>
        <time>2015-08-05T12:45:24Z</time>
        <speed>0.000000</speed>
      </trkpt>
      <trkpt lat="46.015291403" lon="7.207873551">
        <ele>2390.600000</ele>
        <time>2015-08-05T12:45:25Z</time>
        <speed>0.000000</speed>
      </trkpt>
      <trkpt lat="46.015305401" lon="7.207914119">
        <ele>2390.600000</ele>
        <time>2015-08-05T12:45:30Z</time>
        <speed>0.000000</speed>
      </trkpt>
      <trkpt lat="46.015293499" lon="7.207976061">
        <ele>2391.200000</ele>
        <time>2015-08-05T12:45:35Z</time>
        <speed>0.000000</speed>
      </trkpt>
      <trkpt lat="46.015288553" lon="7.207987712">
        <ele>2391.600000</ele>
        <time>2015-08-05T12:45:36Z</time>
        <speed>0.000000</speed>
      </trkpt>
      <trkpt lat="46.015282351" lon="7.208001542">
        <ele>2392.000000</ele>
        <time>2015-08-05T12:45:37Z</time>
        <speed>0.000000</speed>
      </trkpt>
      <trkpt lat="46.015268940" lon="7.208012858">
        <ele>2392.400000</ele>
        <time>2015-08-05T12:45:38Z</time>
        <speed>0.000000</speed>
      </trkpt>
      <trkpt lat="46.015253852" lon="7.208025599">
        <ele>2392.800000</ele>
        <time>2015-08-05T12:45:39Z</time>
        <speed>0.000000</speed>
      </trkpt>
      <trkpt lat="46.015241028" lon="7.208028113">
        <ele>2392.800000</ele>
        <time>2015-08-05T12:45:40Z</time>
        <speed>0.000000</speed>
      </trkpt>
      <trkpt lat="46.015185791" lon="7.208058791">
        <ele>2392.800000</ele>
        <time>2015-08-05T12:45:47Z</time>
        <speed>0.000000</speed>
      </trkpt>
      <trkpt lat="46.015171123" lon="7.208049906">
        <ele>2393.400000</ele>
        <time>2015-08-05T12:45:50Z</time>
        <speed>0.000000</speed>
      </trkpt>
      <trkpt lat="46.015167770" lon="7.208053175">
        <ele>2393.800000</ele>
        <time>2015-08-05T12:45:51Z</time>
        <speed>0.000000</speed>
      </trkpt>
      <trkpt lat="46.015167770" lon="7.208053175">
        <ele>2394.200000</ele>
        <time>2015-08-05T12:45:52Z</time>
        <speed>0.000000</speed>
      </trkpt>
      <trkpt lat="46.015167770" lon="7.208053175">
        <ele>2394.600000</ele>
        <time>2015-08-05T12:45:53Z</time>
        <speed>0.000000</speed>
      </trkpt>
      <trkpt lat="46.015172212" lon="7.208048397">
        <ele>2395.000000</ele>
        <time>2015-08-05T12:45:54Z</time>
        <speed>0.000000</speed>
      </trkpt>
      <trkpt lat="46.015186545" lon="7.208029789">
        <ele>2395.000000</ele>
        <time>2015-08-05T12:45:58Z</time>
        <speed>0.000000</speed>
      </trkpt>
      <trkpt lat="46.015192245" lon="7.208019731">
        <ele>2395.400000</ele>
        <time>2015-08-05T12:46:02Z</time>
        <speed>0.000000</speed>
      </trkpt>
      <trkpt lat="46.015191072" lon="7.208014618">
        <ele>2395.800000</ele>
        <time>2015-08-05T12:46:03Z</time>
        <speed>0.000000</speed>
      </trkpt>
      <trkpt lat="46.015191407" lon="7.208010092">
        <ele>2396.200000</ele>
        <time>2015-08-05T12:46:04Z</time>
        <speed>0.000000</speed>
      </trkpt>
      <trkpt lat="46.015195346" lon="7.208004979">
        <ele>2396.600000</ele>
        <time>2015-08-05T12:46:05Z</time>
        <speed>0.000000</speed>
      </trkpt>
      <trkpt lat="46.015196352" lon="7.208005147">
        <ele>2397.000000</ele>
        <time>2015-08-05T12:46:06Z</time>
        <speed>0.000000</speed>
      </trkpt>
      <trkpt lat="46.015191323" lon="7.207989137">
        <ele>2397.000000</ele>
        <time>2015-08-05T12:46:10Z</time>
        <speed>0.000000</speed>
      </trkpt>
      <trkpt lat="46.015192832" lon="7.207942366">
        <ele>2397.400000</ele>
        <time>2015-08-05T12:46:15Z</time>
        <speed>0.000000</speed>
      </trkpt>
      <trkpt lat="46.015193251" lon="7.207935577">
        <ele>2397.800000</ele>
        <time>2015-08-05T12:46:16Z</time>
        <speed>0.000000</speed>
      </trkpt>
      <trkpt lat="46.015193251" lon="7.207935577">
        <ele>2398.200000</ele>
        <time>2015-08-05T12:46:17Z</time>
        <speed>0.000000</speed>
      </trkpt>
      <trkpt lat="46.015195179" lon="7.207926860">
        <ele>2398.800000</ele>
        <time>2015-08-05T12:46:18Z</time>
        <speed>0.000000</speed>
      </trkpt>
      <trkpt lat="46.015192497" lon="7.207922753">
        <ele>2399.200000</ele>
        <time>2015-08-05T12:46:19Z</time>
        <speed>0.000000</speed>
      </trkpt>
      <trkpt lat="46.015129297" lon="7.207844885">
        <ele>2399.200000</ele>
        <time>2015-08-05T12:46:23Z</time>
        <speed>0.000000</speed>
      </trkpt>
      <trkpt lat="46.015118987" lon="7.207796521">
        <ele>2399.600000</ele>
        <time>2015-08-05T12:46:27Z</time>
        <speed>0.000000</speed>
      </trkpt>
      <trkpt lat="46.015117143" lon="7.207787720">
        <ele>2400.000000</ele>
        <time>2015-08-05T12:46:28Z</time>
        <speed>0.000000</speed>
      </trkpt>
      <trkpt lat="46.015117981" lon="7.207779087">
        <ele>2400.400000</ele>
        <time>2015-08-05T12:46:29Z</time>
        <speed>0.000000</speed>
      </trkpt>
      <trkpt lat="46.015117311" lon="7.207772465">
        <ele>2400.800000</ele>
        <time>2015-08-05T12:46:30Z</time>
        <speed>0.000000</speed>
      </trkpt>
      <trkpt lat="46.015117311" lon="7.207772465">
        <ele>2401.200000</ele>
        <time>2015-08-05T12:46:31Z</time>
        <speed>0.000000</speed>
      </trkpt>
      <trkpt lat="46.015130387" lon="7.207741703">
        <ele>2401.200000</ele>
        <time>2015-08-05T12:46:34Z</time>
        <speed>0.000000</speed>
      </trkpt>
      <trkpt lat="46.015146312" lon="7.207707254">
        <ele>2401.200000</ele>
        <time>2015-08-05T12:46:38Z</time>
        <speed>0.000000</speed>
      </trkpt>
      <trkpt lat="46.015162908" lon="7.207680683">
        <ele>2401.600000</ele>
        <time>2015-08-05T12:46:41Z</time>
        <speed>0.000000</speed>
      </trkpt>
      <trkpt lat="46.015158718" lon="7.207672720">
        <ele>2402.000000</ele>
        <time>2015-08-05T12:46:42Z</time>
        <speed>0.000000</speed>
      </trkpt>
      <trkpt lat="46.015156035" lon="7.207666434">
        <ele>2402.600000</ele>
        <time>2015-08-05T12:46:43Z</time>
        <speed>0.000000</speed>
      </trkpt>
      <trkpt lat="46.015153772" lon="7.207654029">
        <ele>2403.000000</ele>
        <time>2015-08-05T12:46:44Z</time>
        <speed>0.000000</speed>
      </trkpt>
      <trkpt lat="46.015153102" lon="7.207648078">
        <ele>2403.400000</ele>
        <time>2015-08-05T12:46:45Z</time>
        <speed>0.000000</speed>
      </trkpt>
      <trkpt lat="46.015155197" lon="7.207617232">
        <ele>2403.400000</ele>
        <time>2015-08-05T12:46:48Z</time>
        <speed>0.000000</speed>
      </trkpt>
      <trkpt lat="46.015151090" lon="7.207562498">
        <ele>2403.400000</ele>
        <time>2015-08-05T12:46:54Z</time>
        <speed>0.000000</speed>
      </trkpt>
      <trkpt lat="46.015151006" lon="7.207552440">
        <ele>2403.800000</ele>
        <time>2015-08-05T12:46:55Z</time>
        <speed>0.000000</speed>
      </trkpt>
      <trkpt lat="46.015152012" lon="7.207543220">
        <ele>2404.200000</ele>
        <time>2015-08-05T12:46:56Z</time>
        <speed>0.000000</speed>
      </trkpt>
      <trkpt lat="46.015152599" lon="7.207534503">
        <ele>2404.600000</ele>
        <time>2015-08-05T12:46:57Z</time>
        <speed>0.000000</speed>
      </trkpt>
      <trkpt lat="46.015146815" lon="7.207523187">
        <ele>2405.000000</ele>
        <time>2015-08-05T12:46:58Z</time>
        <speed>0.000000</speed>
      </trkpt>
      <trkpt lat="46.015148240" lon="7.207515560">
        <ele>2405.400000</ele>
        <time>2015-08-05T12:46:59Z</time>
        <speed>0.000000</speed>
      </trkpt>
      <trkpt lat="46.015148240" lon="7.207515560">
        <ele>2405.400000</ele>
        <time>2015-08-05T12:47:00Z</time>
        <speed>0.000000</speed>
      </trkpt>
      <trkpt lat="46.015138350" lon="7.207440123">
        <ele>2405.400000</ele>
        <time>2015-08-05T12:47:06Z</time>
        <speed>0.000000</speed>
      </trkpt>
      <trkpt lat="46.015134745" lon="7.207416150">
        <ele>2405.800000</ele>
        <time>2015-08-05T12:47:11Z</time>
        <speed>0.000000</speed>
      </trkpt>
      <trkpt lat="46.015134745" lon="7.207416150">
        <ele>2406.200000</ele>
        <time>2015-08-05T12:47:12Z</time>
        <speed>0.000000</speed>
      </trkpt>
      <trkpt lat="46.015141116" lon="7.207402069">
        <ele>2406.800000</ele>
        <time>2015-08-05T12:47:13Z</time>
        <speed>0.000000</speed>
      </trkpt>
      <trkpt lat="46.015140780" lon="7.207379689">
        <ele>2407.200000</ele>
        <time>2015-08-05T12:47:14Z</time>
        <speed>0.000000</speed>
      </trkpt>
      <trkpt lat="46.015138266" lon="7.207369798">
        <ele>2407.600000</ele>
        <time>2015-08-05T12:47:15Z</time>
        <speed>0.000000</speed>
      </trkpt>
      <trkpt lat="46.015129716" lon="7.207368122">
        <ele>2407.600000</ele>
        <time>2015-08-05T12:47:17Z</time>
        <speed>0.000000</speed>
      </trkpt>
      <trkpt lat="46.015120664" lon="7.207341551">
        <ele>2407.600000</ele>
        <time>2015-08-05T12:47:23Z</time>
        <speed>0.000000</speed>
      </trkpt>
      <trkpt lat="46.015120161" lon="7.207334511">
        <ele>2408.000000</ele>
        <time>2015-08-05T12:47:24Z</time>
        <speed>0.000000</speed>
      </trkpt>
      <trkpt lat="46.015120161" lon="7.207334511">
        <ele>2408.400000</ele>
        <time>2015-08-05T12:47:25Z</time>
        <speed>0.000000</speed>
      </trkpt>
      <trkpt lat="46.015120328" lon="7.207332834">
        <ele>2408.800000</ele>
        <time>2015-08-05T12:47:26Z</time>
        <speed>0.000000</speed>
      </trkpt>
      <trkpt lat="46.015116640" lon="7.207336858">
        <ele>2409.400000</ele>
        <time>2015-08-05T12:47:27Z</time>
        <speed>0.000000</speed>
      </trkpt>
      <trkpt lat="46.015110605" lon="7.207338115">
        <ele>2409.800000</ele>
        <time>2015-08-05T12:47:28Z</time>
        <speed>0.000000</speed>
      </trkpt>
      <trkpt lat="46.015108091" lon="7.207349514">
        <ele>2409.800000</ele>
        <time>2015-08-05T12:47:29Z</time>
        <speed>0.000000</speed>
      </trkpt>
      <trkpt lat="46.015090321" lon="7.207406176">
        <ele>2409.800000</ele>
        <time>2015-08-05T12:47:35Z</time>
        <speed>0.000000</speed>
      </trkpt>
      <trkpt lat="46.015068780" lon="7.207443559">
        <ele>2410.200000</ele>
        <time>2015-08-05T12:47:40Z</time>
        <speed>0.000000</speed>
      </trkpt>
      <trkpt lat="46.015066600" lon="7.207446744">
        <ele>2410.600000</ele>
        <time>2015-08-05T12:47:41Z</time>
        <speed>0.000000</speed>
      </trkpt>
      <trkpt lat="46.015066600" lon="7.207446744">
        <ele>2411.000000</ele>
        <time>2015-08-05T12:47:42Z</time>
        <speed>0.000000</speed>
      </trkpt>
      <trkpt lat="46.015058805" lon="7.207448337">
        <ele>2411.400000</ele>
        <time>2015-08-05T12:47:43Z</time>
        <speed>0.000000</speed>
      </trkpt>
      <trkpt lat="46.015052603" lon="7.207454456">
        <ele>2411.800000</ele>
        <time>2015-08-05T12:47:44Z</time>
        <speed>0.000000</speed>
      </trkpt>
      <trkpt lat="46.015048998" lon="7.207457641">
        <ele>2411.800000</ele>
        <time>2015-08-05T12:47:45Z</time>
        <speed>0.000000</speed>
      </trkpt>
      <trkpt lat="46.015032318" lon="7.207471052">
        <ele>2412.200000</ele>
        <time>2015-08-05T12:47:49Z</time>
        <speed>0.000000</speed>
      </trkpt>
      <trkpt lat="46.015030391" lon="7.207475243">
        <ele>2412.600000</ele>
        <time>2015-08-05T12:47:50Z</time>
        <speed>0.000000</speed>
      </trkpt>
      <trkpt lat="46.015030391" lon="7.207475243">
        <ele>2413.000000</ele>
        <time>2015-08-05T12:47:51Z</time>
        <speed>0.000000</speed>
      </trkpt>
      <trkpt lat="46.015030391" lon="7.207475243">
        <ele>2413.400000</ele>
        <time>2015-08-05T12:47:52Z</time>
        <speed>0.000000</speed>
      </trkpt>
      <trkpt lat="46.015030391" lon="7.207475243">
        <ele>2414.000000</ele>
        <time>2015-08-05T12:47:53Z</time>
        <speed>0.000000</speed>
      </trkpt>
      <trkpt lat="46.015030391" lon="7.207475243">
        <ele>2414.000000</ele>
        <time>2015-08-05T12:47:56Z</time>
        <speed>0.000000</speed>
      </trkpt>
      <trkpt lat="46.015019326" lon="7.207483038">
        <ele>2414.000000</ele>
        <time>2015-08-05T12:48:05Z</time>
        <speed>0.000000</speed>
      </trkpt>
      <trkpt lat="46.014999797" lon="7.207490414">
        <ele>2414.000000</ele>
        <time>2015-08-05T12:48:10Z</time>
        <speed>0.000000</speed>
      </trkpt>
      <trkpt lat="46.015020416" lon="7.207492593">
        <ele>2414.400000</ele>
        <time>2015-08-05T12:48:14Z</time>
        <speed>0.000000</speed>
      </trkpt>
      <trkpt lat="46.015020668" lon="7.207482284">
        <ele>2414.800000</ele>
        <time>2015-08-05T12:48:15Z</time>
        <speed>0.000000</speed>
      </trkpt>
      <trkpt lat="46.015012872" lon="7.207472309">
        <ele>2415.200000</ele>
        <time>2015-08-05T12:48:16Z</time>
        <speed>0.000000</speed>
      </trkpt>
      <trkpt lat="46.015015638" lon="7.207463927">
        <ele>2415.600000</ele>
        <time>2015-08-05T12:48:17Z</time>
        <speed>0.000000</speed>
      </trkpt>
      <trkpt lat="46.015009603" lon="7.207456383">
        <ele>2416.000000</ele>
        <time>2015-08-05T12:48:18Z</time>
        <speed>0.000000</speed>
      </trkpt>
      <trkpt lat="46.015029971" lon="7.207441296">
        <ele>2416.000000</ele>
        <time>2015-08-05T12:48:23Z</time>
        <speed>0.000000</speed>
      </trkpt>
      <trkpt lat="46.015025278" lon="7.207396872">
        <ele>2416.000000</ele>
        <time>2015-08-05T12:48:28Z</time>
        <speed>0.000000</speed>
      </trkpt>
      <trkpt lat="46.015024439" lon="7.207366278">
        <ele>2416.400000</ele>
        <time>2015-08-05T12:48:31Z</time>
        <speed>0.000000</speed>
      </trkpt>
      <trkpt lat="46.015018740" lon="7.207361081">
        <ele>2416.800000</ele>
        <time>2015-08-05T12:48:32Z</time>
        <speed>0.000000</speed>
      </trkpt>
      <trkpt lat="46.015017063" lon="7.207354795">
        <ele>2417.200000</ele>
        <time>2015-08-05T12:48:33Z</time>
        <speed>0.000000</speed>
      </trkpt>
      <trkpt lat="46.015017650" lon="7.207354292">
        <ele>2417.600000</ele>
        <time>2015-08-05T12:48:34Z</time>
        <speed>0.000000</speed>
      </trkpt>
      <trkpt lat="46.015017650" lon="7.207354292">
        <ele>2418.000000</ele>
        <time>2015-08-05T12:48:35Z</time>
        <speed>0.000000</speed>
      </trkpt>
      <trkpt lat="46.014999294" lon="7.207320429">
        <ele>2418.000000</ele>
        <time>2015-08-05T12:48:40Z</time>
        <speed>0.000000</speed>
      </trkpt>
      <trkpt lat="46.014992840" lon="7.207305090">
        <ele>2418.600000</ele>
        <time>2015-08-05T12:48:45Z</time>
        <speed>0.000000</speed>
      </trkpt>
      <trkpt lat="46.014987811" lon="7.207304671">
        <ele>2419.000000</ele>
        <time>2015-08-05T12:48:46Z</time>
        <speed>0.000000</speed>
      </trkpt>
      <trkpt lat="46.014987811" lon="7.207304671">
        <ele>2419.400000</ele>
        <time>2015-08-05T12:48:47Z</time>
        <speed>0.000000</speed>
      </trkpt>
      <trkpt lat="46.014987811" lon="7.207304671">
        <ele>2419.800000</ele>
        <time>2015-08-05T12:48:48Z</time>
        <speed>0.000000</speed>
      </trkpt>
      <trkpt lat="46.014984793" lon="7.207308024">
        <ele>2420.200000</ele>
        <time>2015-08-05T12:48:49Z</time>
        <speed>0.000000</speed>
      </trkpt>
      <trkpt lat="46.014984122" lon="7.207323530">
        <ele>2420.200000</ele>
        <time>2015-08-05T12:48:51Z</time>
        <speed>0.000000</speed>
      </trkpt>
      <trkpt lat="46.014972388" lon="7.207347586">
        <ele>2420.200000</ele>
        <time>2015-08-05T12:48:55Z</time>
        <speed>3.565000</speed>
      </trkpt>
      <trkpt lat="46.014974819" lon="7.207349179">
        <ele>2420.200000</ele>
        <time>2015-08-05T12:48:56Z</time>
        <speed>0.000000</speed>
      </trkpt>
      <trkpt lat="46.014962832" lon="7.207345323">
        <ele>2420.200000</ele>
        <time>2015-08-05T12:48:59Z</time>
        <speed>0.000000</speed>
      </trkpt>
      <trkpt lat="46.014942297" lon="7.207349933">
        <ele>2420.600000</ele>
        <time>2015-08-05T12:49:01Z</time>
        <speed>0.000000</speed>
      </trkpt>
      <trkpt lat="46.014929808" lon="7.207338366">
        <ele>2421.000000</ele>
        <time>2015-08-05T12:49:02Z</time>
        <speed>0.000000</speed>
      </trkpt>
      <trkpt lat="46.014929808" lon="7.207338366">
        <ele>2421.800000</ele>
        <time>2015-08-05T12:49:03Z</time>
        <speed>0.000000</speed>
      </trkpt>
      <trkpt lat="46.014925533" lon="7.207344653">
        <ele>2422.200000</ele>
        <time>2015-08-05T12:49:04Z</time>
        <speed>0.000000</speed>
      </trkpt>
      <trkpt lat="46.014923354" lon="7.207350269">
        <ele>2422.200000</ele>
        <time>2015-08-05T12:49:05Z</time>
        <speed>0.000000</speed>
      </trkpt>
      <trkpt lat="46.014898543" lon="7.207381701">
        <ele>2422.200000</ele>
        <time>2015-08-05T12:49:11Z</time>
        <speed>0.000000</speed>
      </trkpt>
      <trkpt lat="46.014869207" lon="7.207428891">
        <ele>2422.600000</ele>
        <time>2015-08-05T12:49:15Z</time>
        <speed>0.000000</speed>
      </trkpt>
      <trkpt lat="46.014860070" lon="7.207436602">
        <ele>2423.000000</ele>
        <time>2015-08-05T12:49:16Z</time>
        <speed>0.000000</speed>
      </trkpt>
      <trkpt lat="46.014852946" lon="7.207450684">
        <ele>2423.400000</ele>
        <time>2015-08-05T12:49:17Z</time>
        <speed>0.000000</speed>
      </trkpt>
      <trkpt lat="46.014847162" lon="7.207463173">
        <ele>2423.800000</ele>
        <time>2015-08-05T12:49:18Z</time>
        <speed>0.000000</speed>
      </trkpt>
      <trkpt lat="46.014837523" lon="7.207463424">
        <ele>2424.200000</ele>
        <time>2015-08-05T12:49:19Z</time>
        <speed>0.000000</speed>
      </trkpt>
      <trkpt lat="46.014820172" lon="7.207463760">
        <ele>2424.200000</ele>
        <time>2015-08-05T12:49:21Z</time>
        <speed>0.000000</speed>
      </trkpt>
      <trkpt lat="46.014843893" lon="7.207452779">
        <ele>2424.200000</ele>
        <time>2015-08-05T12:49:27Z</time>
        <speed>0.000000</speed>
      </trkpt>
      <trkpt lat="46.014848419" lon="7.207420928">
        <ele>2424.200000</ele>
        <time>2015-08-05T12:49:31Z</time>
        <speed>0.000000</speed>
      </trkpt>
      <trkpt lat="46.014850012" lon="7.207404751">
        <ele>2424.600000</ele>
        <time>2015-08-05T12:49:33Z</time>
        <speed>0.000000</speed>
      </trkpt>
      <trkpt lat="46.014848419" lon="7.207396537">
        <ele>2425.000000</ele>
        <time>2015-08-05T12:49:34Z</time>
        <speed>0.000000</speed>
      </trkpt>
      <trkpt lat="46.014849258" lon="7.207388155">
        <ele>2425.400000</ele>
        <time>2015-08-05T12:49:35Z</time>
        <speed>0.000000</speed>
      </trkpt>
      <trkpt lat="46.014847665" lon="7.207381449">
        <ele>2425.800000</ele>
        <time>2015-08-05T12:49:36Z</time>
        <speed>0.000000</speed>
      </trkpt>
      <trkpt lat="46.014846240" lon="7.207368960">
        <ele>2426.200000</ele>
        <time>2015-08-05T12:49:37Z</time>
        <speed>0.000000</speed>
      </trkpt>
      <trkpt lat="46.014867530" lon="7.207334092">
        <ele>2426.200000</ele>
        <time>2015-08-05T12:49:42Z</time>
        <speed>0.000000</speed>
      </trkpt>
      <trkpt lat="46.014892508" lon="7.207272820">
        <ele>2426.200000</ele>
        <time>2015-08-05T12:49:49Z</time>
        <speed>0.000000</speed>
      </trkpt>
      <trkpt lat="46.014894185" lon="7.207265528">
        <ele>2426.600000</ele>
        <time>2015-08-05T12:49:50Z</time>
        <speed>0.000000</speed>
      </trkpt>
      <trkpt lat="46.014896113" lon="7.207259157">
        <ele>2427.200000</ele>
        <time>2015-08-05T12:49:51Z</time>
        <speed>0.000000</speed>
      </trkpt>
      <trkpt lat="46.014898040" lon="7.207249686">
        <ele>2427.600000</ele>
        <time>2015-08-05T12:49:52Z</time>
        <speed>0.000000</speed>
      </trkpt>
      <trkpt lat="46.014908685" lon="7.207242310">
        <ele>2428.400000</ele>
        <time>2015-08-05T12:49:53Z</time>
        <speed>0.000000</speed>
      </trkpt>
      <trkpt lat="46.014908518" lon="7.207234515">
        <ele>2428.400000</ele>
        <time>2015-08-05T12:49:54Z</time>
        <speed>0.000000</speed>
      </trkpt>
      <trkpt lat="46.014890078" lon="7.207217415">
        <ele>2428.400000</ele>
        <time>2015-08-05T12:49:59Z</time>
        <speed>0.000000</speed>
      </trkpt>
      <trkpt lat="46.014891754" lon="7.207208531">
        <ele>2428.800000</ele>
        <time>2015-08-05T12:50:00Z</time>
        <speed>0.000000</speed>
      </trkpt>
      <trkpt lat="46.014884881" lon="7.207202663">
        <ele>2429.200000</ele>
        <time>2015-08-05T12:50:01Z</time>
        <speed>0.000000</speed>
      </trkpt>
      <trkpt lat="46.014880187" lon="7.207208782">
        <ele>2429.600000</ele>
        <time>2015-08-05T12:50:02Z</time>
        <speed>0.000000</speed>
      </trkpt>
      <trkpt lat="46.014878008" lon="7.207215488">
        <ele>2430.000000</ele>
        <time>2015-08-05T12:50:03Z</time>
        <speed>0.000000</speed>
      </trkpt>
      <trkpt lat="46.014869290" lon="7.207217751">
        <ele>2430.400000</ele>
        <time>2015-08-05T12:50:04Z</time>
        <speed>0.000000</speed>
      </trkpt>
      <trkpt lat="46.014857723" lon="7.207215991">
        <ele>2430.400000</ele>
        <time>2015-08-05T12:50:05Z</time>
        <speed>0.000000</speed>
      </trkpt>
      <trkpt lat="46.014840038" lon="7.207228563">
        <ele>2430.400000</ele>
        <time>2015-08-05T12:50:10Z</time>
        <speed>0.000000</speed>
      </trkpt>
      <trkpt lat="46.014819334" lon="7.207254380">
        <ele>2431.000000</ele>
        <time>2015-08-05T12:50:13Z</time>
        <speed>0.000000</speed>
      </trkpt>
      <trkpt lat="46.014814305" lon="7.207269467">
        <ele>2431.400000</ele>
        <time>2015-08-05T12:50:14Z</time>
        <speed>0.000000</speed>
      </trkpt>
      <trkpt lat="46.014808689" lon="7.207281872">
        <ele>2431.800000</ele>
        <time>2015-08-05T12:50:15Z</time>
        <speed>0.000000</speed>
      </trkpt>
      <trkpt lat="46.014802906" lon="7.207283549">
        <ele>2432.200000</ele>
        <time>2015-08-05T12:50:16Z</time>
        <speed>0.000000</speed>
      </trkpt>
      <trkpt lat="46.014793015" lon="7.207281453">
        <ele>2432.600000</ele>
        <time>2015-08-05T12:50:17Z</time>
        <speed>0.000000</speed>
      </trkpt>
      <trkpt lat="46.014779353" lon="7.207309533">
        <ele>2432.600000</ele>
        <time>2015-08-05T12:50:22Z</time>
        <speed>0.000000</speed>
      </trkpt>
      <trkpt lat="46.014747669" lon="7.207326129">
        <ele>2432.600000</ele>
        <time>2015-08-05T12:50:27Z</time>
        <speed>0.000000</speed>
      </trkpt>
      <trkpt lat="46.014737024" lon="7.207330990">
        <ele>2433.000000</ele>
        <time>2015-08-05T12:50:28Z</time>
        <speed>0.000000</speed>
      </trkpt>
      <trkpt lat="46.014727217" lon="7.207337277">
        <ele>2433.400000</ele>
        <time>2015-08-05T12:50:29Z</time>
        <speed>0.000000</speed>
      </trkpt>
      <trkpt lat="46.014720512" lon="7.207347503">
        <ele>2433.800000</ele>
        <time>2015-08-05T12:50:30Z</time>
        <speed>0.000000</speed>
      </trkpt>
      <trkpt lat="46.014713052" lon="7.207354879">
        <ele>2434.200000</ele>
        <time>2015-08-05T12:50:31Z</time>
        <speed>0.000000</speed>
      </trkpt>
      <trkpt lat="46.014703496" lon="7.207360830">
        <ele>2434.600000</ele>
        <time>2015-08-05T12:50:32Z</time>
        <speed>0.000000</speed>
      </trkpt>
      <trkpt lat="46.014698886" lon="7.207367619">
        <ele>2434.600000</ele>
        <time>2015-08-05T12:50:33Z</time>
        <speed>0.000000</speed>
      </trkpt>
      <trkpt lat="46.014656474" lon="7.207407349">
        <ele>2434.600000</ele>
        <time>2015-08-05T12:50:39Z</time>
        <speed>0.000000</speed>
      </trkpt>
      <trkpt lat="46.014623449" lon="7.207424281">
        <ele>2434.600000</ele>
        <time>2015-08-05T12:50:45Z</time>
        <speed>0.000000</speed>
      </trkpt>
      <trkpt lat="46.014631161" lon="7.207405673">
        <ele>2435.000000</ele>
        <time>2015-08-05T12:50:49Z</time>
        <speed>0.000000</speed>
      </trkpt>
      <trkpt lat="46.014635184" lon="7.207396034">
        <ele>2435.600000</ele>
        <time>2015-08-05T12:50:50Z</time>
        <speed>0.000000</speed>
      </trkpt>
      <trkpt lat="46.014634346" lon="7.207387149">
        <ele>2436.000000</ele>
        <time>2015-08-05T12:50:51Z</time>
        <speed>0.000000</speed>
      </trkpt>
      <trkpt lat="46.014643566" lon="7.207383545">
        <ele>2436.400000</ele>
        <time>2015-08-05T12:50:52Z</time>
        <speed>0.000000</speed>
      </trkpt>
      <trkpt lat="46.014650942" lon="7.207382455">
        <ele>2436.800000</ele>
        <time>2015-08-05T12:50:53Z</time>
        <speed>0.000000</speed>
      </trkpt>
      <trkpt lat="46.014650271" lon="7.207364853">
        <ele>2436.800000</ele>
        <time>2015-08-05T12:50:56Z</time>
        <speed>0.000000</speed>
      </trkpt>
      <trkpt lat="46.014659156" lon="7.207335433">
        <ele>2436.800000</ele>
        <time>2015-08-05T12:51:01Z</time>
        <speed>0.000000</speed>
      </trkpt>
      <trkpt lat="46.014662006" lon="7.207330823">
        <ele>2437.200000</ele>
        <time>2015-08-05T12:51:02Z</time>
        <speed>0.000000</speed>
      </trkpt>
      <trkpt lat="46.014670136" lon="7.207327051">
        <ele>2437.600000</ele>
        <time>2015-08-05T12:51:03Z</time>
        <speed>0.000000</speed>
      </trkpt>
      <trkpt lat="46.014677429" lon="7.207315484">
        <ele>2438.000000</ele>
        <time>2015-08-05T12:51:04Z</time>
        <speed>0.000000</speed>
      </trkpt>
      <trkpt lat="46.014682709" lon="7.207312131">
        <ele>2438.600000</ele>
        <time>2015-08-05T12:51:05Z</time>
        <speed>0.000000</speed>
      </trkpt>
      <trkpt lat="46.014687152" lon="7.207305593">
        <ele>2439.000000</ele>
        <time>2015-08-05T12:51:06Z</time>
        <speed>0.000000</speed>
      </trkpt>
      <trkpt lat="46.014715315" lon="7.207287907">
        <ele>2439.000000</ele>
        <time>2015-08-05T12:51:11Z</time>
        <speed>0.000000</speed>
      </trkpt>
      <trkpt lat="46.014722104" lon="7.207243735">
        <ele>2439.400000</ele>
        <time>2015-08-05T12:51:16Z</time>
        <speed>0.926000</speed>
      </trkpt>
      <trkpt lat="46.014727050" lon="7.207234598">
        <ele>2439.800000</ele>
        <time>2015-08-05T12:51:17Z</time>
        <speed>1.534000</speed>
      </trkpt>
      <trkpt lat="46.014733084" lon="7.207219427">
        <ele>2440.200000</ele>
        <time>2015-08-05T12:51:18Z</time>
        <speed>1.534000</speed>
      </trkpt>
      <trkpt lat="46.014733084" lon="7.207204843">
        <ele>2440.600000</ele>
        <time>2015-08-05T12:51:19Z</time>
        <speed>0.000000</speed>
      </trkpt>
      <trkpt lat="46.014738617" lon="7.207192437">
        <ele>2441.000000</ele>
        <time>2015-08-05T12:51:20Z</time>
        <speed>0.000000</speed>
      </trkpt>
      <trkpt lat="46.014747753" lon="7.207167878">
        <ele>2441.000000</ele>
        <time>2015-08-05T12:51:22Z</time>
        <speed>0.000000</speed>
      </trkpt>
      <trkpt lat="46.014736521" lon="7.207165196">
        <ele>2441.000000</ele>
        <time>2015-08-05T12:51:27Z</time>
        <speed>0.000000</speed>
      </trkpt>
      <trkpt lat="46.014732498" lon="7.207175590">
        <ele>2441.400000</ele>
        <time>2015-08-05T12:51:30Z</time>
        <speed>0.000000</speed>
      </trkpt>
      <trkpt lat="46.014732498" lon="7.207175590">
        <ele>2442.400000</ele>
        <time>2015-08-05T12:51:31Z</time>
        <speed>0.000000</speed>
      </trkpt>
      <trkpt lat="46.014732498" lon="7.207175590">
        <ele>2442.800000</ele>
        <time>2015-08-05T12:51:32Z</time>
        <speed>0.000000</speed>
      </trkpt>
      <trkpt lat="46.014732498" lon="7.207175590">
        <ele>2443.200000</ele>
        <time>2015-08-05T12:51:33Z</time>
        <speed>0.000000</speed>
      </trkpt>
      <trkpt lat="46.014732498" lon="7.207175590">
        <ele>2443.200000</ele>
        <time>2015-08-05T12:51:34Z</time>
        <speed>0.000000</speed>
      </trkpt>
      <trkpt lat="46.014732498" lon="7.207175590">
        <ele>2443.200000</ele>
        <time>2015-08-05T12:51:44Z</time>
        <speed>0.000000</speed>
      </trkpt>
      <trkpt lat="46.014685056" lon="7.207188246">
        <ele>2443.200000</ele>
        <time>2015-08-05T12:51:50Z</time>
        <speed>0.000000</speed>
      </trkpt>
      <trkpt lat="46.014644991" lon="7.207213979">
        <ele>2444.000000</ele>
        <time>2015-08-05T12:51:56Z</time>
        <speed>0.000000</speed>
      </trkpt>
      <trkpt lat="46.014638285" lon="7.207211800">
        <ele>2444.400000</ele>
        <time>2015-08-05T12:51:57Z</time>
        <speed>0.000000</speed>
      </trkpt>
      <trkpt lat="46.014629233" lon="7.207210039">
        <ele>2444.800000</ele>
        <time>2015-08-05T12:51:58Z</time>
        <speed>0.000000</speed>
      </trkpt>
      <trkpt lat="46.014621521" lon="7.207209536">
        <ele>2445.400000</ele>
        <time>2015-08-05T12:51:59Z</time>
        <speed>0.000000</speed>
      </trkpt>
      <trkpt lat="46.014600734" lon="7.207221690">
        <ele>2445.400000</ele>
        <time>2015-08-05T12:52:02Z</time>
        <speed>0.000000</speed>
      </trkpt>
      <trkpt lat="46.014568632" lon="7.207241136">
        <ele>2445.800000</ele>
        <time>2015-08-05T12:52:08Z</time>
        <speed>0.000000</speed>
      </trkpt>
      <trkpt lat="46.014562513" lon="7.207244908">
        <ele>2446.200000</ele>
        <time>2015-08-05T12:52:09Z</time>
        <speed>0.000000</speed>
      </trkpt>
      <trkpt lat="46.014555556" lon="7.207248009">
        <ele>2446.600000</ele>
        <time>2015-08-05T12:52:10Z</time>
        <speed>0.000000</speed>
      </trkpt>
      <trkpt lat="46.014547761" lon="7.207252368">
        <ele>2447.000000</ele>
        <time>2015-08-05T12:52:11Z</time>
        <speed>0.000000</speed>
      </trkpt>
      <trkpt lat="46.014541139" lon="7.207253793">
        <ele>2447.400000</ele>
        <time>2015-08-05T12:52:12Z</time>
        <speed>0.000000</speed>
      </trkpt>
      <trkpt lat="46.014518927" lon="7.207265611">
        <ele>2447.400000</ele>
        <time>2015-08-05T12:52:15Z</time>
        <speed>0.000000</speed>
      </trkpt>
      <trkpt lat="46.014476850" lon="7.207297463">
        <ele>2447.400000</ele>
        <time>2015-08-05T12:52:21Z</time>
        <speed>0.000000</speed>
      </trkpt>
      <trkpt lat="46.014451033" lon="7.207298133">
        <ele>2447.800000</ele>
        <time>2015-08-05T12:52:26Z</time>
        <speed>0.000000</speed>
      </trkpt>
      <trkpt lat="46.014453129" lon="7.207292853">
        <ele>2448.200000</ele>
        <time>2015-08-05T12:52:27Z</time>
        <speed>0.000000</speed>
      </trkpt>
      <trkpt lat="46.014450363" lon="7.207286398">
        <ele>2448.600000</ele>
        <time>2015-08-05T12:52:28Z</time>
        <speed>0.000000</speed>
      </trkpt>
      <trkpt lat="46.014447848" lon="7.207278939">
        <ele>2449.000000</ele>
        <time>2015-08-05T12:52:29Z</time>
        <speed>0.000000</speed>
      </trkpt>
      <trkpt lat="46.014449273" lon="7.207271060">
        <ele>2449.400000</ele>
        <time>2015-08-05T12:52:30Z</time>
        <speed>0.000000</speed>
      </trkpt>
      <trkpt lat="46.014458996" lon="7.207237532">
        <ele>2449.400000</ele>
        <time>2015-08-05T12:52:34Z</time>
        <speed>0.000000</speed>
      </trkpt>
      <trkpt lat="46.014467127" lon="7.207233844">
        <ele>2449.800000</ele>
        <time>2015-08-05T12:52:35Z</time>
        <speed>0.000000</speed>
      </trkpt>
      <trkpt lat="46.014475341" lon="7.207227977">
        <ele>2450.200000</ele>
        <time>2015-08-05T12:52:36Z</time>
        <speed>0.000000</speed>
      </trkpt>
      <trkpt lat="46.014481460" lon="7.207220768">
        <ele>2450.600000</ele>
        <time>2015-08-05T12:52:37Z</time>
        <speed>0.000000</speed>
      </trkpt>
      <trkpt lat="46.014488249" lon="7.207214649">
        <ele>2451.000000</ele>
        <time>2015-08-05T12:52:38Z</time>
        <speed>0.000000</speed>
      </trkpt>
      <trkpt lat="46.014491350" lon="7.207207190">
        <ele>2451.400000</ele>
        <time>2015-08-05T12:52:39Z</time>
        <speed>0.000000</speed>
      </trkpt>
      <trkpt lat="46.014519681" lon="7.207175590">
        <ele>2451.400000</ele>
        <time>2015-08-05T12:52:44Z</time>
        <speed>0.000000</speed>
      </trkpt>
      <trkpt lat="46.014529237" lon="7.207160670">
        <ele>2451.800000</ele>
        <time>2015-08-05T12:52:47Z</time>
        <speed>0.000000</speed>
      </trkpt>
      <trkpt lat="46.014529320" lon="7.207151869">
        <ele>2452.200000</ele>
        <time>2015-08-05T12:52:48Z</time>
        <speed>0.000000</speed>
      </trkpt>
      <trkpt lat="46.014531584" lon="7.207145666">
        <ele>2452.600000</ele>
        <time>2015-08-05T12:52:49Z</time>
        <speed>0.000000</speed>
      </trkpt>
      <trkpt lat="46.014534517" lon="7.207140553">
        <ele>2453.000000</ele>
        <time>2015-08-05T12:52:50Z</time>
        <speed>0.000000</speed>
      </trkpt>
      <trkpt lat="46.014540636" lon="7.207135021">
        <ele>2453.400000</ele>
        <time>2015-08-05T12:52:51Z</time>
        <speed>0.000000</speed>
      </trkpt>
      <trkpt lat="46.014545497" lon="7.207111049">
        <ele>2453.400000</ele>
        <time>2015-08-05T12:52:55Z</time>
        <speed>0.000000</speed>
      </trkpt>
      <trkpt lat="46.014517167" lon="7.207087328">
        <ele>2454.000000</ele>
        <time>2015-08-05T12:52:59Z</time>
        <speed>0.000000</speed>
      </trkpt>
      <trkpt lat="46.014509036" lon="7.207085484">
        <ele>2454.400000</ele>
        <time>2015-08-05T12:53:00Z</time>
        <speed>0.000000</speed>
      </trkpt>
      <trkpt lat="46.014503001" lon="7.207087999">
        <ele>2454.800000</ele>
        <time>2015-08-05T12:53:01Z</time>
        <speed>0.000000</speed>
      </trkpt>
      <trkpt lat="46.014495960" lon="7.207089172">
        <ele>2455.200000</ele>
        <time>2015-08-05T12:53:02Z</time>
        <speed>0.000000</speed>
      </trkpt>
      <trkpt lat="46.014491602" lon="7.207085233">
        <ele>2455.600000</ele>
        <time>2015-08-05T12:53:03Z</time>
        <speed>0.000000</speed>
      </trkpt>
      <trkpt lat="46.014485735" lon="7.207083305">
        <ele>2455.600000</ele>
        <time>2015-08-05T12:53:04Z</time>
        <speed>0.000000</speed>
      </trkpt>
      <trkpt lat="46.014445166" lon="7.207064613">
        <ele>2455.600000</ele>
        <time>2015-08-05T12:53:09Z</time>
        <speed>0.000000</speed>
      </trkpt>
      <trkpt lat="46.014428318" lon="7.207068301">
        <ele>2456.000000</ele>
        <time>2015-08-05T12:53:11Z</time>
        <speed>0.000000</speed>
      </trkpt>
      <trkpt lat="46.014420188" lon="7.207073163">
        <ele>2456.400000</ele>
        <time>2015-08-05T12:53:12Z</time>
        <speed>0.000000</speed>
      </trkpt>
      <trkpt lat="46.014412309" lon="7.207076432">
        <ele>2456.800000</ele>
        <time>2015-08-05T12:53:13Z</time>
        <speed>0.000000</speed>
      </trkpt>
      <trkpt lat="46.014404849" lon="7.207078863">
        <ele>2457.200000</ele>
        <time>2015-08-05T12:53:14Z</time>
        <speed>0.000000</speed>
      </trkpt>
      <trkpt lat="46.014398814" lon="7.207080707">
        <ele>2457.600000</ele>
        <time>2015-08-05T12:53:15Z</time>
        <speed>0.000000</speed>
      </trkpt>
      <trkpt lat="46.014353133" lon="7.207085987">
        <ele>2457.600000</ele>
        <time>2015-08-05T12:53:22Z</time>
        <speed>0.000000</speed>
      </trkpt>
      <trkpt lat="46.014334693" lon="7.207092693">
        <ele>2458.000000</ele>
        <time>2015-08-05T12:53:25Z</time>
        <speed>0.000000</speed>
      </trkpt>
      <trkpt lat="46.014328322" lon="7.207092274">
        <ele>2458.400000</ele>
        <time>2015-08-05T12:53:26Z</time>
        <speed>0.000000</speed>
      </trkpt>
      <trkpt lat="46.014320862" lon="7.207094956">
        <ele>2459.000000</ele>
        <time>2015-08-05T12:53:27Z</time>
        <speed>0.000000</speed>
      </trkpt>
      <trkpt lat="46.014314325" lon="7.207097889">
        <ele>2459.400000</ele>
        <time>2015-08-05T12:53:28Z</time>
        <speed>0.000000</speed>
      </trkpt>
      <trkpt lat="46.014307619" lon="7.207098225">
        <ele>2459.800000</ele>
        <time>2015-08-05T12:53:29Z</time>
        <speed>0.000000</speed>
      </trkpt>
      <trkpt lat="46.014268056" lon="7.207121694">
        <ele>2460.200000</ele>
        <time>2015-08-05T12:53:35Z</time>
        <speed>0.000000</speed>
      </trkpt>
      <trkpt lat="46.014262189" lon="7.207130830">
        <ele>2460.600000</ele>
        <time>2015-08-05T12:53:36Z</time>
        <speed>0.000000</speed>
      </trkpt>
      <trkpt lat="46.014255400" lon="7.207133093">
        <ele>2461.000000</ele>
        <time>2015-08-05T12:53:37Z</time>
        <speed>0.000000</speed>
      </trkpt>
      <trkpt lat="46.014247940" lon="7.207137368">
        <ele>2461.400000</ele>
        <time>2015-08-05T12:53:38Z</time>
        <speed>0.000000</speed>
      </trkpt>
      <trkpt lat="46.014241486" lon="7.207139045">
        <ele>2461.800000</ele>
        <time>2015-08-05T12:53:39Z</time>
        <speed>0.000000</speed>
      </trkpt>
      <trkpt lat="46.014227656" lon="7.207146672">
        <ele>2461.800000</ele>
        <time>2015-08-05T12:53:41Z</time>
        <speed>0.000000</speed>
      </trkpt>
      <trkpt lat="46.014202929" lon="7.207199227">
        <ele>2461.800000</ele>
        <time>2015-08-05T12:53:46Z</time>
        <speed>0.000000</speed>
      </trkpt>
      <trkpt lat="46.014184154" lon="7.207263264">
        <ele>2462.200000</ele>
        <time>2015-08-05T12:53:51Z</time>
        <speed>0.000000</speed>
      </trkpt>
      <trkpt lat="46.014182980" lon="7.207274496">
        <ele>2462.600000</ele>
        <time>2015-08-05T12:53:52Z</time>
        <speed>0.000000</speed>
      </trkpt>
      <trkpt lat="46.014180549" lon="7.207287572">
        <ele>2463.000000</ele>
        <time>2015-08-05T12:53:53Z</time>
        <speed>0.000000</speed>
      </trkpt>
      <trkpt lat="46.014179292" lon="7.207303246">
        <ele>2463.400000</ele>
        <time>2015-08-05T12:53:54Z</time>
        <speed>0.000000</speed>
      </trkpt>
      <trkpt lat="46.014180466" lon="7.207316657">
        <ele>2464.000000</ele>
        <time>2015-08-05T12:53:55Z</time>
        <speed>0.000000</speed>
      </trkpt>
      <trkpt lat="46.014178789" lon="7.207347922">
        <ele>2464.000000</ele>
        <time>2015-08-05T12:53:58Z</time>
        <speed>0.000000</speed>
      </trkpt>
      <trkpt lat="46.014165630" lon="7.207377426">
        <ele>2464.400000</ele>
        <time>2015-08-05T12:54:02Z</time>
        <speed>0.000000</speed>
      </trkpt>
      <trkpt lat="46.014159343" lon="7.207375666">
        <ele>2464.800000</ele>
        <time>2015-08-05T12:54:03Z</time>
        <speed>0.000000</speed>
      </trkpt>
      <trkpt lat="46.014152638" lon="7.207376504">
        <ele>2465.200000</ele>
        <time>2015-08-05T12:54:04Z</time>
        <speed>0.000000</speed>
      </trkpt>
      <trkpt lat="46.014145597" lon="7.207374744">
        <ele>2465.600000</ele>
        <time>2015-08-05T12:54:05Z</time>
        <speed>0.000000</speed>
      </trkpt>
      <trkpt lat="46.014141825" lon="7.207370469">
        <ele>2466.000000</ele>
        <time>2015-08-05T12:54:06Z</time>
        <speed>0.000000</speed>
      </trkpt>
      <trkpt lat="46.014127157" lon="7.207358818">
        <ele>2466.000000</ele>
        <time>2015-08-05T12:54:08Z</time>
        <speed>0.000000</speed>
      </trkpt>
      <trkpt lat="46.014102262" lon="7.207328979">
        <ele>2466.400000</ele>
        <time>2015-08-05T12:54:13Z</time>
        <speed>0.000000</speed>
      </trkpt>
      <trkpt lat="46.014098742" lon="7.207326464">
        <ele>2466.800000</ele>
        <time>2015-08-05T12:54:14Z</time>
        <speed>0.000000</speed>
      </trkpt>
      <trkpt lat="46.014092288" lon="7.207320261">
        <ele>2467.200000</ele>
        <time>2015-08-05T12:54:15Z</time>
        <speed>0.000000</speed>
      </trkpt>
      <trkpt lat="46.014089773" lon="7.207315568">
        <ele>2467.600000</ele>
        <time>2015-08-05T12:54:16Z</time>
        <speed>0.000000</speed>
      </trkpt>
      <trkpt lat="46.014088684" lon="7.207314646">
        <ele>2468.000000</ele>
        <time>2015-08-05T12:54:17Z</time>
        <speed>3.638000</speed>
      </trkpt>
      <trkpt lat="46.014082314" lon="7.207312299">
        <ele>2468.000000</ele>
        <time>2015-08-05T12:54:22Z</time>
        <speed>0.000000</speed>
      </trkpt>
      <trkpt lat="46.014082314" lon="7.207312299">
        <ele>2468.000000</ele>
        <time>2015-08-05T12:54:37Z</time>
        <speed>0.000000</speed>
      </trkpt>
      <trkpt lat="46.014082314" lon="7.207312299">
        <ele>2468.000000</ele>
        <time>2015-08-05T12:54:46Z</time>
        <speed>0.000000</speed>
      </trkpt>
      <trkpt lat="46.014082314" lon="7.207312299">
        <ele>2468.000000</ele>
        <time>2015-08-05T12:54:51Z</time>
        <speed>0.000000</speed>
      </trkpt>
      <trkpt lat="46.014082314" lon="7.207312299">
        <ele>2468.000000</ele>
        <time>2015-08-05T12:54:58Z</time>
        <speed>0.000000</speed>
      </trkpt>
      <trkpt lat="46.014084828" lon="7.207313388">
        <ele>2468.000000</ele>
        <time>2015-08-05T12:55:02Z</time>
        <speed>0.000000</speed>
      </trkpt>
      <trkpt lat="46.014084828" lon="7.207313388">
        <ele>2468.000000</ele>
        <time>2015-08-05T12:55:06Z</time>
        <speed>0.000000</speed>
      </trkpt>
      <trkpt lat="46.014084828" lon="7.207313388">
        <ele>2468.000000</ele>
        <time>2015-08-05T12:55:08Z</time>
        <speed>0.000000</speed>
      </trkpt>
      <trkpt lat="46.014084828" lon="7.207313388">
        <ele>2468.000000</ele>
        <time>2015-08-05T12:55:20Z</time>
        <speed>0.000000</speed>
      </trkpt>
      <trkpt lat="46.014084828" lon="7.207313388">
        <ele>2468.000000</ele>
        <time>2015-08-05T12:55:22Z</time>
        <speed>0.000000</speed>
      </trkpt>
      <trkpt lat="46.014084828" lon="7.207313388">
        <ele>2468.000000</ele>
        <time>2015-08-05T12:55:27Z</time>
        <speed>0.000000</speed>
      </trkpt>
      <trkpt lat="46.014084828" lon="7.207313388">
        <ele>2468.000000</ele>
        <time>2015-08-05T12:55:29Z</time>
        <speed>0.000000</speed>
      </trkpt>
      <trkpt lat="46.014084828" lon="7.207313388">
        <ele>2468.000000</ele>
        <time>2015-08-05T12:55:35Z</time>
        <speed>0.000000</speed>
      </trkpt>
      <trkpt lat="46.014086588" lon="7.207312215">
        <ele>2468.000000</ele>
        <time>2015-08-05T12:55:51Z</time>
        <speed>0.000000</speed>
      </trkpt>
      <trkpt lat="46.014086588" lon="7.207312215">
        <ele>2468.000000</ele>
        <time>2015-08-05T12:55:53Z</time>
        <speed>0.000000</speed>
      </trkpt>
      <trkpt lat="46.014091115" lon="7.207307018">
        <ele>2468.000000</ele>
        <time>2015-08-05T12:56:03Z</time>
        <speed>0.000000</speed>
      </trkpt>
      <trkpt lat="46.014092037" lon="7.207298720">
        <ele>2468.000000</ele>
        <time>2015-08-05T12:56:04Z</time>
        <speed>0.000000</speed>
      </trkpt>
      <trkpt lat="46.014103687" lon="7.207263348">
        <ele>2468.000000</ele>
        <time>2015-08-05T12:56:09Z</time>
        <speed>0.000000</speed>
      </trkpt>
      <trkpt lat="46.014104777" lon="7.207241136">
        <ele>2468.000000</ele>
        <time>2015-08-05T12:56:14Z</time>
        <speed>0.000000</speed>
      </trkpt>
      <trkpt lat="46.014105448" lon="7.207257732">
        <ele>2468.000000</ele>
        <time>2015-08-05T12:56:18Z</time>
        <speed>1.244000</speed>
      </trkpt>
      <trkpt lat="46.014098658" lon="7.207280950">
        <ele>2468.000000</ele>
        <time>2015-08-05T12:56:20Z</time>
        <speed>0.812000</speed>
      </trkpt>
      <trkpt lat="46.014088348" lon="7.207304671">
        <ele>2468.000000</ele>
        <time>2015-08-05T12:56:23Z</time>
        <speed>0.000000</speed>
      </trkpt>
      <trkpt lat="46.014079715" lon="7.207297630">
        <ele>2468.600000</ele>
        <time>2015-08-05T12:56:25Z</time>
        <speed>0.000000</speed>
      </trkpt>
      <trkpt lat="46.014079715" lon="7.207297630">
        <ele>2469.000000</ele>
        <time>2015-08-05T12:56:26Z</time>
        <speed>0.000000</speed>
      </trkpt>
      <trkpt lat="46.014079715" lon="7.207297630">
        <ele>2469.000000</ele>
        <time>2015-08-05T12:56:27Z</time>
        <speed>0.000000</speed>
      </trkpt>
      <trkpt lat="46.014079715" lon="7.207297630">
        <ele>2468.800000</ele>
        <time>2015-08-05T12:56:28Z</time>
        <speed>0.000000</speed>
      </trkpt>
      <trkpt lat="46.014079715" lon="7.207297630">
        <ele>2469.000000</ele>
        <time>2015-08-05T12:56:29Z</time>
        <speed>0.000000</speed>
      </trkpt>
      <trkpt lat="46.014081559" lon="7.207301570">
        <ele>2469.200000</ele>
        <time>2015-08-05T12:56:31Z</time>
        <speed>0.756000</speed>
      </trkpt>
      <trkpt lat="46.014086085" lon="7.207303078">
        <ele>2469.400000</ele>
        <time>2015-08-05T12:56:32Z</time>
        <speed>0.000000</speed>
      </trkpt>
      <trkpt lat="46.014086085" lon="7.207303078">
        <ele>2469.600000</ele>
        <time>2015-08-05T12:56:33Z</time>
        <speed>0.000000</speed>
      </trkpt>
      <trkpt lat="46.014086085" lon="7.207303078">
        <ele>2469.800000</ele>
        <time>2015-08-05T12:56:34Z</time>
        <speed>0.000000</speed>
      </trkpt>
      <trkpt lat="46.014094216" lon="7.207308024">
        <ele>2469.800000</ele>
        <time>2015-08-05T12:56:35Z</time>
        <speed>1.284000</speed>
      </trkpt>
      <trkpt lat="46.014094048" lon="7.207294780">
        <ele>2469.800000</ele>
        <time>2015-08-05T12:56:37Z</time>
        <speed>0.000000</speed>
      </trkpt>
      <trkpt lat="46.014103520" lon="7.207281956">
        <ele>2469.800000</ele>
        <time>2015-08-05T12:56:41Z</time>
        <speed>1.428000</speed>
      </trkpt>
      <trkpt lat="46.014107375" lon="7.207234095">
        <ele>2469.800000</ele>
        <time>2015-08-05T12:56:44Z</time>
        <speed>0.000000</speed>
      </trkpt>
      <trkpt lat="46.014092791" lon="7.207175338">
        <ele>2469.800000</ele>
        <time>2015-08-05T12:56:45Z</time>
        <speed>2.425000</speed>
      </trkpt>
      <trkpt lat="46.014063203" lon="7.207090933">
        <ele>2469.800000</ele>
        <time>2015-08-05T12:56:48Z</time>
        <speed>2.325000</speed>
      </trkpt>
      <trkpt lat="46.014072591" lon="7.207000492">
        <ele>2469.800000</ele>
        <time>2015-08-05T12:56:53Z</time>
        <speed>1.269000</speed>
      </trkpt>
      <trkpt lat="46.014080972" lon="7.206986494">
        <ele>2469.800000</ele>
        <time>2015-08-05T12:56:54Z</time>
        <speed>5.902000</speed>
      </trkpt>
      <trkpt lat="46.014091701" lon="7.206913991">
        <ele>2469.800000</ele>
        <time>2015-08-05T12:56:59Z</time>
        <speed>1.408000</speed>
      </trkpt>
      <trkpt lat="46.014090276" lon="7.206897394">
        <ele>2469.800000</ele>
        <time>2015-08-05T12:57:00Z</time>
        <speed>1.438000</speed>
      </trkpt>
      <trkpt lat="46.014100586" lon="7.206844672">
        <ele>2469.800000</ele>
        <time>2015-08-05T12:57:03Z</time>
        <speed>1.289000</speed>
      </trkpt>
      <trkpt lat="46.014110058" lon="7.206797734">
        <ele>2469.800000</ele>
        <time>2015-08-05T12:57:06Z</time>
        <speed>1.362000</speed>
      </trkpt>
      <trkpt lat="46.014113997" lon="7.206779712">
        <ele>2469.800000</ele>
        <time>2015-08-05T12:57:08Z</time>
        <speed>1.288000</speed>
      </trkpt>
      <trkpt lat="46.014143166" lon="7.206671754">
        <ele>2469.800000</ele>
        <time>2015-08-05T12:57:14Z</time>
        <speed>1.825000</speed>
      </trkpt>
      <trkpt lat="46.014158756" lon="7.206622216">
        <ele>2469.800000</ele>
        <time>2015-08-05T12:57:17Z</time>
        <speed>1.489000</speed>
      </trkpt>
      <trkpt lat="46.014169904" lon="7.206585168">
        <ele>2470.200000</ele>
        <time>2015-08-05T12:57:19Z</time>
        <speed>1.654000</speed>
      </trkpt>
      <trkpt lat="46.014172838" lon="7.206565974">
        <ele>2470.600000</ele>
        <time>2015-08-05T12:57:20Z</time>
        <speed>1.575000</speed>
      </trkpt>
      <trkpt lat="46.014176694" lon="7.206553820">
        <ele>2471.200000</ele>
        <time>2015-08-05T12:57:21Z</time>
        <speed>1.665000</speed>
      </trkpt>
      <trkpt lat="46.014182645" lon="7.206537392">
        <ele>2471.600000</ele>
        <time>2015-08-05T12:57:22Z</time>
        <speed>1.707000</speed>
      </trkpt>
      <trkpt lat="46.014189686" lon="7.206514760">
        <ele>2472.000000</ele>
        <time>2015-08-05T12:57:23Z</time>
        <speed>1.707000</speed>
      </trkpt>
      <trkpt lat="46.014198738" lon="7.206505624">
        <ele>2472.000000</ele>
        <time>2015-08-05T12:57:24Z</time>
        <speed>1.442000</speed>
      </trkpt>
      <trkpt lat="46.014203516" lon="7.206491207">
        <ele>2472.000000</ele>
        <time>2015-08-05T12:57:25Z</time>
        <speed>1.263000</speed>
      </trkpt>
      <trkpt lat="46.014214077" lon="7.206460362">
        <ele>2472.400000</ele>
        <time>2015-08-05T12:57:27Z</time>
        <speed>1.338000</speed>
      </trkpt>
      <trkpt lat="46.014218184" lon="7.206439240">
        <ele>2472.800000</ele>
        <time>2015-08-05T12:57:28Z</time>
        <speed>1.338000</speed>
      </trkpt>
      <trkpt lat="46.014225896" lon="7.206417027">
        <ele>2473.600000</ele>
        <time>2015-08-05T12:57:29Z</time>
        <speed>1.682000</speed>
      </trkpt>
      <trkpt lat="46.014229416" lon="7.206402694">
        <ele>2474.000000</ele>
        <time>2015-08-05T12:57:30Z</time>
        <speed>2.052000</speed>
      </trkpt>
      <trkpt lat="46.014234864" lon="7.206379057">
        <ele>2474.600000</ele>
        <time>2015-08-05T12:57:32Z</time>
        <speed>1.503000</speed>
      </trkpt>
      <trkpt lat="46.014233858" lon="7.206382326">
        <ele>2475.000000</ele>
        <time>2015-08-05T12:57:33Z</time>
        <speed>2.308000</speed>
      </trkpt>
      <trkpt lat="46.014236792" lon="7.206368412">
        <ele>2475.400000</ele>
        <time>2015-08-05T12:57:35Z</time>
        <speed>2.308000</speed>
      </trkpt>
      <trkpt lat="46.014235786" lon="7.206355504">
        <ele>2476.400000</ele>
        <time>2015-08-05T12:57:36Z</time>
        <speed>2.308000</speed>
      </trkpt>
      <trkpt lat="46.014236373" lon="7.206342009">
        <ele>2476.400000</ele>
        <time>2015-08-05T12:57:37Z</time>
        <speed>2.308000</speed>
      </trkpt>
      <trkpt lat="46.014236205" lon="7.206339830">
        <ele>2476.400000</ele>
        <time>2015-08-05T12:57:41Z</time>
        <speed>0.000000</speed>
      </trkpt>
      <trkpt lat="46.014234277" lon="7.206341171">
        <ele>2476.400000</ele>
        <time>2015-08-05T12:57:42Z</time>
        <speed>0.000000</speed>
      </trkpt>
      <trkpt lat="46.014249197" lon="7.206292137">
        <ele>2476.400000</ele>
        <time>2015-08-05T12:57:49Z</time>
        <speed>0.000000</speed>
      </trkpt>
      <trkpt lat="46.014249700" lon="7.206289958">
        <ele>2476.800000</ele>
        <time>2015-08-05T12:57:50Z</time>
        <speed>0.000000</speed>
      </trkpt>
      <trkpt lat="46.014249700" lon="7.206289958">
        <ele>2477.200000</ele>
        <time>2015-08-05T12:57:51Z</time>
        <speed>0.000000</speed>
      </trkpt>
      <trkpt lat="46.014246683" lon="7.206281660">
        <ele>2477.600000</ele>
        <time>2015-08-05T12:57:52Z</time>
        <speed>0.000000</speed>
      </trkpt>
      <trkpt lat="46.014246431" lon="7.206274535">
        <ele>2478.000000</ele>
        <time>2015-08-05T12:57:53Z</time>
        <speed>0.000000</speed>
      </trkpt>
      <trkpt lat="46.014247018" lon="7.206267327">
        <ele>2478.600000</ele>
        <time>2015-08-05T12:57:54Z</time>
        <speed>0.000000</speed>
      </trkpt>
      <trkpt lat="46.014231428" lon="7.206208821">
        <ele>2478.600000</ele>
        <time>2015-08-05T12:58:01Z</time>
        <speed>0.000000</speed>
      </trkpt>
      <trkpt lat="46.014205695" lon="7.206163056">
        <ele>2479.000000</ele>
        <time>2015-08-05T12:58:05Z</time>
        <speed>0.000000</speed>
      </trkpt>
      <trkpt lat="46.014199660" lon="7.206151992">
        <ele>2479.400000</ele>
        <time>2015-08-05T12:58:06Z</time>
        <speed>0.000000</speed>
      </trkpt>
      <trkpt lat="46.014195972" lon="7.206141263">
        <ele>2479.800000</ele>
        <time>2015-08-05T12:58:07Z</time>
        <speed>0.000000</speed>
      </trkpt>
      <trkpt lat="46.014188261" lon="7.206134054">
        <ele>2480.200000</ele>
        <time>2015-08-05T12:58:08Z</time>
        <speed>0.000000</speed>
      </trkpt>
      <trkpt lat="46.014179963" lon="7.206125924">
        <ele>2480.600000</ele>
        <time>2015-08-05T12:58:09Z</time>
        <speed>0.000000</speed>
      </trkpt>
      <trkpt lat="46.014175185" lon="7.206115279">
        <ele>2480.600000</ele>
        <time>2015-08-05T12:58:10Z</time>
        <speed>0.000000</speed>
      </trkpt>
      <trkpt lat="46.014142328" lon="7.206071442">
        <ele>2480.600000</ele>
        <time>2015-08-05T12:58:15Z</time>
        <speed>0.000000</speed>
      </trkpt>
      <trkpt lat="46.014109303" lon="7.206033136">
        <ele>2480.600000</ele>
        <time>2015-08-05T12:58:21Z</time>
        <speed>0.000000</speed>
      </trkpt>
      <trkpt lat="46.014091282" lon="7.206019725">
        <ele>2481.000000</ele>
        <time>2015-08-05T12:58:23Z</time>
        <speed>0.000000</speed>
      </trkpt>
      <trkpt lat="46.014081643" lon="7.206008829">
        <ele>2481.400000</ele>
        <time>2015-08-05T12:58:24Z</time>
        <speed>0.000000</speed>
      </trkpt>
      <trkpt lat="46.014067394" lon="7.205995837">
        <ele>2481.800000</ele>
        <time>2015-08-05T12:58:25Z</time>
        <speed>0.000000</speed>
      </trkpt>
      <trkpt lat="46.014059515" lon="7.205993071">
        <ele>2482.200000</ele>
        <time>2015-08-05T12:58:26Z</time>
        <speed>0.000000</speed>
      </trkpt>
      <trkpt lat="46.014052222" lon="7.205986617">
        <ele>2482.800000</ele>
        <time>2015-08-05T12:58:27Z</time>
        <speed>0.000000</speed>
      </trkpt>
      <trkpt lat="46.014016432" lon="7.205953927">
        <ele>2482.800000</ele>
        <time>2015-08-05T12:58:31Z</time>
        <speed>0.000000</speed>
      </trkpt>
      <trkpt lat="46.013998075" lon="7.205906234">
        <ele>2482.800000</ele>
        <time>2015-08-05T12:58:36Z</time>
        <speed>0.000000</speed>
      </trkpt>
      <trkpt lat="46.013967901" lon="7.205859463">
        <ele>2483.200000</ele>
        <time>2015-08-05T12:58:42Z</time>
        <speed>0.000000</speed>
      </trkpt>
      <trkpt lat="46.013961027" lon="7.205850411">
        <ele>2483.600000</ele>
        <time>2015-08-05T12:58:43Z</time>
        <speed>0.000000</speed>
      </trkpt>
      <trkpt lat="46.013953735" lon="7.205841610">
        <ele>2484.000000</ele>
        <time>2015-08-05T12:58:44Z</time>
        <speed>0.000000</speed>
      </trkpt>
      <trkpt lat="46.013945269" lon="7.205832809">
        <ele>2484.400000</ele>
        <time>2015-08-05T12:58:45Z</time>
        <speed>0.000000</speed>
      </trkpt>
      <trkpt lat="46.013939821" lon="7.205823002">
        <ele>2484.800000</ele>
        <time>2015-08-05T12:58:46Z</time>
        <speed>0.000000</speed>
      </trkpt>
      <trkpt lat="46.013920459" lon="7.205801963">
        <ele>2484.800000</ele>
        <time>2015-08-05T12:58:49Z</time>
        <speed>0.000000</speed>
      </trkpt>
      <trkpt lat="46.013875700" lon="7.205764329">
        <ele>2484.800000</ele>
        <time>2015-08-05T12:58:54Z</time>
        <speed>2.717000</speed>
      </trkpt>
      <trkpt lat="46.013864216" lon="7.205759551">
        <ele>2485.200000</ele>
        <time>2015-08-05T12:58:55Z</time>
        <speed>2.293000</speed>
      </trkpt>
      <trkpt lat="46.013859690" lon="7.205752175">
        <ele>2485.600000</ele>
        <time>2015-08-05T12:58:56Z</time>
        <speed>0.000000</speed>
      </trkpt>
      <trkpt lat="46.013855499" lon="7.205745218">
        <ele>2486.400000</ele>
        <time>2015-08-05T12:58:57Z</time>
        <speed>0.000000</speed>
      </trkpt>
      <trkpt lat="46.013844435" lon="7.205723090">
        <ele>2486.800000</ele>
        <time>2015-08-05T12:58:59Z</time>
        <speed>0.000000</speed>
      </trkpt>
      <trkpt lat="46.013825827" lon="7.205687970">
        <ele>2486.800000</ele>
        <time>2015-08-05T12:59:02Z</time>
        <speed>0.000000</speed>
      </trkpt>
      <trkpt lat="46.013793892" lon="7.205618735">
        <ele>2486.800000</ele>
        <time>2015-08-05T12:59:09Z</time>
        <speed>0.000000</speed>
      </trkpt>
      <trkpt lat="46.013772854" lon="7.205545226">
        <ele>2486.800000</ele>
        <time>2015-08-05T12:59:14Z</time>
        <speed>1.031000</speed>
      </trkpt>
      <trkpt lat="46.013773859" lon="7.205521756">
        <ele>2487.200000</ele>
        <time>2015-08-05T12:59:16Z</time>
        <speed>0.882000</speed>
      </trkpt>
      <trkpt lat="46.013774781" lon="7.205508681">
        <ele>2487.600000</ele>
        <time>2015-08-05T12:59:17Z</time>
        <speed>0.882000</speed>
      </trkpt>
      <trkpt lat="46.013775033" lon="7.205489905">
        <ele>2488.000000</ele>
        <time>2015-08-05T12:59:18Z</time>
        <speed>0.971000</speed>
      </trkpt>
      <trkpt lat="46.013775536" lon="7.205472806">
        <ele>2488.400000</ele>
        <time>2015-08-05T12:59:19Z</time>
        <speed>0.971000</speed>
      </trkpt>
      <trkpt lat="46.013776626" lon="7.205457300">
        <ele>2488.800000</ele>
        <time>2015-08-05T12:59:20Z</time>
        <speed>1.063000</speed>
      </trkpt>
      <trkpt lat="46.013779056" lon="7.205399045">
        <ele>2488.800000</ele>
        <time>2015-08-05T12:59:25Z</time>
        <speed>1.074000</speed>
      </trkpt>
      <trkpt lat="46.013793054" lon="7.205347832">
        <ele>2488.800000</ele>
        <time>2015-08-05T12:59:29Z</time>
        <speed>1.066000</speed>
      </trkpt>
      <trkpt lat="46.013817445" lon="7.205323105">
        <ele>2488.800000</ele>
        <time>2015-08-05T12:59:32Z</time>
        <speed>0.857000</speed>
      </trkpt>
      <trkpt lat="46.013858098" lon="7.205319417">
        <ele>2489.800000</ele>
        <time>2015-08-05T12:59:38Z</time>
        <speed>0.936000</speed>
      </trkpt>
      <trkpt lat="46.013867066" lon="7.205315394">
        <ele>2490.200000</ele>
        <time>2015-08-05T12:59:39Z</time>
        <speed>0.826000</speed>
      </trkpt>
      <trkpt lat="46.013873436" lon="7.205313047">
        <ele>2490.600000</ele>
        <time>2015-08-05T12:59:40Z</time>
        <speed>0.826000</speed>
      </trkpt>
      <trkpt lat="46.013879471" lon="7.205317825">
        <ele>2491.000000</ele>
        <time>2015-08-05T12:59:41Z</time>
        <speed>0.826000</speed>
      </trkpt>
      <trkpt lat="46.013905288" lon="7.205321932">
        <ele>2491.000000</ele>
        <time>2015-08-05T12:59:44Z</time>
        <speed>0.836000</speed>
      </trkpt>
      <trkpt lat="46.013943425" lon="7.205371134">
        <ele>2491.000000</ele>
        <time>2015-08-05T12:59:50Z</time>
        <speed>0.956000</speed>
      </trkpt>
      <trkpt lat="46.013947533" lon="7.205383706">
        <ele>2491.000000</ele>
        <time>2015-08-05T12:59:51Z</time>
        <speed>0.956000</speed>
      </trkpt>
      <trkpt lat="46.013954406" lon="7.205399716">
        <ele>2491.400000</ele>
        <time>2015-08-05T12:59:53Z</time>
        <speed>1.022000</speed>
      </trkpt>
      <trkpt lat="46.013955076" lon="7.205402650">
        <ele>2492.200000</ele>
        <time>2015-08-05T12:59:54Z</time>
        <speed>0.862000</speed>
      </trkpt>
      <trkpt lat="46.013957172" lon="7.205405835">
        <ele>2492.600000</ele>
        <time>2015-08-05T12:59:55Z</time>
        <speed>0.862000</speed>
      </trkpt>
      <trkpt lat="46.013964548" lon="7.205402147">
        <ele>2493.000000</ele>
        <time>2015-08-05T12:59:56Z</time>
        <speed>0.862000</speed>
      </trkpt>
      <trkpt lat="46.013969409" lon="7.205398291">
        <ele>2493.000000</ele>
        <time>2015-08-05T12:59:57Z</time>
        <speed>0.000000</speed>
      </trkpt>
      <trkpt lat="46.013974858" lon="7.205396447">
        <ele>2493.400000</ele>
        <time>2015-08-05T12:59:59Z</time>
        <speed>0.000000</speed>
      </trkpt>
      <trkpt lat="46.013974858" lon="7.205396447">
        <ele>2494.000000</ele>
        <time>2015-08-05T13:00:01Z</time>
        <speed>0.000000</speed>
      </trkpt>
      <trkpt lat="46.013979635" lon="7.205400219">
        <ele>2494.800000</ele>
        <time>2015-08-05T13:00:02Z</time>
        <speed>0.000000</speed>
      </trkpt>
      <trkpt lat="46.013983156" lon="7.205399884">
        <ele>2495.200000</ele>
        <time>2015-08-05T13:00:03Z</time>
        <speed>0.000000</speed>
      </trkpt>
      <trkpt lat="46.014022383" lon="7.205435339">
        <ele>2495.200000</ele>
        <time>2015-08-05T13:00:07Z</time>
        <speed>0.000000</speed>
      </trkpt>
      <trkpt lat="46.014075357" lon="7.205487391">
        <ele>2495.200000</ele>
        <time>2015-08-05T13:00:15Z</time>
        <speed>0.000000</speed>
      </trkpt>
      <trkpt lat="46.014123972" lon="7.205531563">
        <ele>2495.200000</ele>
        <time>2015-08-05T13:00:20Z</time>
        <speed>1.290000</speed>
      </trkpt>
      <trkpt lat="46.014132186" lon="7.205547237">
        <ele>2495.200000</ele>
        <time>2015-08-05T13:00:21Z</time>
        <speed>1.322000</speed>
      </trkpt>
      <trkpt lat="46.014171748" lon="7.205576658">
        <ele>2495.200000</ele>
        <time>2015-08-05T13:00:26Z</time>
        <speed>1.393000</speed>
      </trkpt>
      <trkpt lat="46.014200750" lon="7.205598954">
        <ele>2494.800000</ele>
        <time>2015-08-05T13:00:28Z</time>
        <speed>1.069000</speed>
      </trkpt>
      <trkpt lat="46.014210054" lon="7.205601720">
        <ele>2494.400000</ele>
        <time>2015-08-05T13:00:29Z</time>
        <speed>0.994000</speed>
      </trkpt>
      <trkpt lat="46.014220447" lon="7.205603061">
        <ele>2494.000000</ele>
        <time>2015-08-05T13:00:30Z</time>
        <speed>0.883000</speed>
      </trkpt>
      <trkpt lat="46.014231763" lon="7.205606246">
        <ele>2493.600000</ele>
        <time>2015-08-05T13:00:31Z</time>
        <speed>1.125000</speed>
      </trkpt>
      <trkpt lat="46.014244671" lon="7.205612197">
        <ele>2493.200000</ele>
        <time>2015-08-05T13:00:32Z</time>
        <speed>1.366000</speed>
      </trkpt>
      <trkpt lat="46.014263782" lon="7.205619741">
        <ele>2493.200000</ele>
        <time>2015-08-05T13:00:34Z</time>
        <speed>0.866000</speed>
      </trkpt>
      <trkpt lat="46.014293789" lon="7.205638013">
        <ele>2493.200000</ele>
        <time>2015-08-05T13:00:38Z</time>
        <speed>0.979000</speed>
      </trkpt>
      <trkpt lat="46.014317342" lon="7.205654358">
        <ele>2493.200000</ele>
        <time>2015-08-05T13:00:41Z</time>
        <speed>0.882000</speed>
      </trkpt>
      <trkpt lat="46.014338884" lon="7.205653436">
        <ele>2493.200000</ele>
        <time>2015-08-05T13:00:47Z</time>
        <speed>0.750000</speed>
      </trkpt>
      <trkpt lat="46.014324215" lon="7.205655112">
        <ele>2493.200000</ele>
        <time>2015-08-05T13:00:52Z</time>
        <speed>1.226000</speed>
      </trkpt>
      <trkpt lat="46.014302171" lon="7.205630973">
        <ele>2493.200000</ele>
        <time>2015-08-05T13:00:58Z</time>
        <speed>0.000000</speed>
      </trkpt>
      <trkpt lat="46.014302171" lon="7.205630973">
        <ele>2493.200000</ele>
        <time>2015-08-05T13:01:06Z</time>
        <speed>0.000000</speed>
      </trkpt>
      <trkpt lat="46.014302171" lon="7.205630973">
        <ele>2493.200000</ele>
        <time>2015-08-05T13:01:09Z</time>
        <speed>0.000000</speed>
      </trkpt>
      <trkpt lat="46.014302171" lon="7.205630973">
        <ele>2493.200000</ele>
        <time>2015-08-05T13:01:11Z</time>
        <speed>0.000000</speed>
      </trkpt>
      <trkpt lat="46.014302171" lon="7.205630973">
        <ele>2493.200000</ele>
        <time>2015-08-05T13:01:16Z</time>
        <speed>0.000000</speed>
      </trkpt>
      <trkpt lat="46.014302171" lon="7.205630973">
        <ele>2493.200000</ele>
        <time>2015-08-05T13:01:20Z</time>
        <speed>0.000000</speed>
      </trkpt>
      <trkpt lat="46.014302171" lon="7.205630973">
        <ele>2493.200000</ele>
        <time>2015-08-05T13:01:25Z</time>
        <speed>0.000000</speed>
      </trkpt>
      <trkpt lat="46.014303596" lon="7.205632900">
        <ele>2493.200000</ele>
        <time>2015-08-05T13:01:38Z</time>
        <speed>0.000000</speed>
      </trkpt>
      <trkpt lat="46.014303596" lon="7.205632900">
        <ele>2493.200000</ele>
        <time>2015-08-05T13:01:52Z</time>
        <speed>0.000000</speed>
      </trkpt>
      <trkpt lat="46.014303596" lon="7.205632900">
        <ele>2493.200000</ele>
        <time>2015-08-05T13:02:09Z</time>
        <speed>0.000000</speed>
      </trkpt>
      <trkpt lat="46.014303596" lon="7.205632900">
        <ele>2493.200000</ele>
        <time>2015-08-05T13:02:14Z</time>
        <speed>0.000000</speed>
      </trkpt>
      <trkpt lat="46.014304266" lon="7.205633152">
        <ele>2493.200000</ele>
        <time>2015-08-05T13:02:19Z</time>
        <speed>0.000000</speed>
      </trkpt>
      <trkpt lat="46.014306697" lon="7.205635666">
        <ele>2493.200000</ele>
        <time>2015-08-05T13:02:25Z</time>
        <speed>0.000000</speed>
      </trkpt>
      <trkpt lat="46.014306697" lon="7.205635666">
        <ele>2493.200000</ele>
        <time>2015-08-05T13:02:28Z</time>
        <speed>0.000000</speed>
      </trkpt>
      <trkpt lat="46.014306697" lon="7.205635666">
        <ele>2493.200000</ele>
        <time>2015-08-05T13:02:41Z</time>
        <speed>0.000000</speed>
      </trkpt>
      <trkpt lat="46.014306697" lon="7.205635666">
        <ele>2493.600000</ele>
        <time>2015-08-05T13:02:46Z</time>
        <speed>0.000000</speed>
      </trkpt>
      <trkpt lat="46.014306697" lon="7.205635666">
        <ele>2494.000000</ele>
        <time>2015-08-05T13:02:47Z</time>
        <speed>0.000000</speed>
      </trkpt>
      <trkpt lat="46.014306697" lon="7.205635666">
        <ele>2494.400000</ele>
        <time>2015-08-05T13:02:48Z</time>
        <speed>0.000000</speed>
      </trkpt>
      <trkpt lat="46.014306697" lon="7.205635666">
        <ele>2494.800000</ele>
        <time>2015-08-05T13:02:49Z</time>
        <speed>0.000000</speed>
      </trkpt>
      <trkpt lat="46.014306697" lon="7.205635666">
        <ele>2495.200000</ele>
        <time>2015-08-05T13:02:50Z</time>
        <speed>0.000000</speed>
      </trkpt>
      <trkpt lat="46.014316588" lon="7.205626782">
        <ele>2495.200000</ele>
        <time>2015-08-05T13:02:59Z</time>
        <speed>0.000000</speed>
      </trkpt>
      <trkpt lat="46.014323545" lon="7.205629632">
        <ele>2495.200000</ele>
        <time>2015-08-05T13:03:12Z</time>
        <speed>0.000000</speed>
      </trkpt>
      <trkpt lat="46.014323545" lon="7.205629632">
        <ele>2495.200000</ele>
        <time>2015-08-05T13:03:28Z</time>
        <speed>0.000000</speed>
      </trkpt>
      <trkpt lat="46.014322036" lon="7.205631559">
        <ele>2495.200000</ele>
        <time>2015-08-05T13:03:41Z</time>
        <speed>0.000000</speed>
      </trkpt>
      <trkpt lat="46.014294459" lon="7.205638433">
        <ele>2495.200000</ele>
        <time>2015-08-05T13:03:45Z</time>
        <speed>1.406000</speed>
      </trkpt>
      <trkpt lat="46.014264536" lon="7.205632817">
        <ele>2495.200000</ele>
        <time>2015-08-05T13:03:47Z</time>
        <speed>1.406000</speed>
      </trkpt>
      <trkpt lat="46.014241905" lon="7.205623261">
        <ele>2495.200000</ele>
        <time>2015-08-05T13:03:49Z</time>
        <speed>1.158000</speed>
      </trkpt>
      <trkpt lat="46.014199325" lon="7.205583699">
        <ele>2495.200000</ele>
        <time>2015-08-05T13:03:52Z</time>
        <speed>1.941000</speed>
      </trkpt>
      <trkpt lat="46.014132521" lon="7.205523517">
        <ele>2495.200000</ele>
        <time>2015-08-05T13:03:59Z</time>
        <speed>1.325000</speed>
      </trkpt>
      <trkpt lat="46.014077368" lon="7.205493928">
        <ele>2495.200000</ele>
        <time>2015-08-05T13:04:05Z</time>
        <speed>1.169000</speed>
      </trkpt>
      <trkpt lat="46.014030597" lon="7.205466771">
        <ele>2495.200000</ele>
        <time>2015-08-05T13:04:11Z</time>
        <speed>1.662000</speed>
      </trkpt>
      <trkpt lat="46.013991705" lon="7.205410361">
        <ele>2495.200000</ele>
        <time>2015-08-05T13:04:16Z</time>
        <speed>0.000000</speed>
      </trkpt>
      <trkpt lat="46.013977540" lon="7.205394687">
        <ele>2495.200000</ele>
        <time>2015-08-05T13:04:22Z</time>
        <speed>0.567000</speed>
      </trkpt>
      <trkpt lat="46.013965889" lon="7.205399548">
        <ele>2495.200000</ele>
        <time>2015-08-05T13:04:27Z</time>
        <speed>0.479000</speed>
      </trkpt>
      <trkpt lat="46.013942168" lon="7.205405164">
        <ele>2494.800000</ele>
        <time>2015-08-05T13:04:30Z</time>
        <speed>0.980000</speed>
      </trkpt>
      <trkpt lat="46.013920040" lon="7.205401644">
        <ele>2494.200000</ele>
        <time>2015-08-05T13:04:31Z</time>
        <speed>2.049000</speed>
      </trkpt>
      <trkpt lat="46.013899085" lon="7.205380186">
        <ele>2493.800000</ele>
        <time>2015-08-05T13:04:32Z</time>
        <speed>7.819000</speed>
      </trkpt>
      <trkpt lat="46.013901264" lon="7.205378929">
        <ele>2493.400000</ele>
        <time>2015-08-05T13:04:33Z</time>
        <speed>0.000000</speed>
      </trkpt>
      <trkpt lat="46.013878717" lon="7.205325117">
        <ele>2493.000000</ele>
        <time>2015-08-05T13:04:34Z</time>
        <speed>2.078000</speed>
      </trkpt>
      <trkpt lat="46.013848207" lon="7.205302151">
        <ele>2493.000000</ele>
        <time>2015-08-05T13:04:36Z</time>
        <speed>1.964000</speed>
      </trkpt>
      <trkpt lat="46.013813338" lon="7.205312041">
        <ele>2492.600000</ele>
        <time>2015-08-05T13:04:38Z</time>
        <speed>1.780000</speed>
      </trkpt>
      <trkpt lat="46.013793222" lon="7.205331739">
        <ele>2492.000000</ele>
        <time>2015-08-05T13:04:39Z</time>
        <speed>1.643000</speed>
      </trkpt>
      <trkpt lat="46.013778972" lon="7.205359818">
        <ele>2491.600000</ele>
        <time>2015-08-05T13:04:40Z</time>
        <speed>1.825000</speed>
      </trkpt>
      <trkpt lat="46.013772518" lon="7.205396279">
        <ele>2491.200000</ele>
        <time>2015-08-05T13:04:41Z</time>
        <speed>1.825000</speed>
      </trkpt>
      <trkpt lat="46.013769836" lon="7.205439949">
        <ele>2490.800000</ele>
        <time>2015-08-05T13:04:42Z</time>
        <speed>1.825000</speed>
      </trkpt>
      <trkpt lat="46.013773524" lon="7.205562241">
        <ele>2490.800000</ele>
        <time>2015-08-05T13:04:45Z</time>
        <speed>3.536000</speed>
      </trkpt>
      <trkpt lat="46.013843010" lon="7.205715546">
        <ele>2490.800000</ele>
        <time>2015-08-05T13:04:50Z</time>
        <speed>3.277000</speed>
      </trkpt>
      <trkpt lat="46.013863797" lon="7.205746140">
        <ele>2490.400000</ele>
        <time>2015-08-05T13:04:51Z</time>
        <speed>2.266000</speed>
      </trkpt>
      <trkpt lat="46.013887686" lon="7.205774219">
        <ele>2490.000000</ele>
        <time>2015-08-05T13:04:52Z</time>
        <speed>2.993000</speed>
      </trkpt>
      <trkpt lat="46.013908892" lon="7.205793414">
        <ele>2489.400000</ele>
        <time>2015-08-05T13:04:53Z</time>
        <speed>3.208000</speed>
      </trkpt>
      <trkpt lat="46.013927332" lon="7.205809340">
        <ele>2489.000000</ele>
        <time>2015-08-05T13:04:54Z</time>
        <speed>3.071000</speed>
      </trkpt>
      <trkpt lat="46.013943928" lon="7.205825265">
        <ele>2488.600000</ele>
        <time>2015-08-05T13:04:55Z</time>
        <speed>2.850000</speed>
      </trkpt>
      <trkpt lat="46.013951723" lon="7.205833396">
        <ele>2488.600000</ele>
        <time>2015-08-05T13:04:56Z</time>
        <speed>2.403000</speed>
      </trkpt>
      <trkpt lat="46.013962871" lon="7.205851500">
        <ele>2488.600000</ele>
        <time>2015-08-05T13:04:58Z</time>
        <speed>2.213000</speed>
      </trkpt>
      <trkpt lat="46.014007798" lon="7.205936074">
        <ele>2488.200000</ele>
        <time>2015-08-05T13:05:01Z</time>
        <speed>1.949000</speed>
      </trkpt>
      <trkpt lat="46.014025400" lon="7.205961806">
        <ele>2487.800000</ele>
        <time>2015-08-05T13:05:02Z</time>
        <speed>1.949000</speed>
      </trkpt>
      <trkpt lat="46.014053061" lon="7.205981588">
        <ele>2487.400000</ele>
        <time>2015-08-05T13:05:03Z</time>
        <speed>1.949000</speed>
      </trkpt>
      <trkpt lat="46.014086337" lon="7.206000112">
        <ele>2486.800000</ele>
        <time>2015-08-05T13:05:04Z</time>
        <speed>4.027000</speed>
      </trkpt>
      <trkpt lat="46.014120284" lon="7.206025425">
        <ele>2486.400000</ele>
        <time>2015-08-05T13:05:05Z</time>
        <speed>4.225000</speed>
      </trkpt>
      <trkpt lat="46.014152638" lon="7.206067670">
        <ele>2486.400000</ele>
        <time>2015-08-05T13:05:06Z</time>
        <speed>4.276000</speed>
      </trkpt>
      <trkpt lat="46.014182226" lon="7.206116955">
        <ele>2486.000000</ele>
        <time>2015-08-05T13:05:07Z</time>
        <speed>4.567000</speed>
      </trkpt>
      <trkpt lat="46.014212904" lon="7.206168672">
        <ele>2485.600000</ele>
        <time>2015-08-05T13:05:08Z</time>
        <speed>5.352000</speed>
      </trkpt>
      <trkpt lat="46.014240899" lon="7.206210078">
        <ele>2485.000000</ele>
        <time>2015-08-05T13:05:09Z</time>
        <speed>5.708000</speed>
      </trkpt>
      <trkpt lat="46.014252801" lon="7.206242516">
        <ele>2484.600000</ele>
        <time>2015-08-05T13:05:10Z</time>
        <speed>4.380000</speed>
      </trkpt>
      <trkpt lat="46.014250790" lon="7.206277553">
        <ele>2484.200000</ele>
        <time>2015-08-05T13:05:11Z</time>
        <speed>2.989000</speed>
      </trkpt>
      <trkpt lat="46.014243749" lon="7.206324072">
        <ele>2483.600000</ele>
        <time>2015-08-05T13:05:12Z</time>
        <speed>2.387000</speed>
      </trkpt>
      <trkpt lat="46.014238301" lon="7.206373358">
        <ele>2482.400000</ele>
        <time>2015-08-05T13:05:13Z</time>
        <speed>2.952000</speed>
      </trkpt>
      <trkpt lat="46.014229416" lon="7.206424823">
        <ele>2481.600000</ele>
        <time>2015-08-05T13:05:14Z</time>
        <speed>4.168000</speed>
      </trkpt>
      <trkpt lat="46.014210305" lon="7.206484334">
        <ele>2480.800000</ele>
        <time>2015-08-05T13:05:15Z</time>
        <speed>3.806000</speed>
      </trkpt>
      <trkpt lat="46.014188093" lon="7.206547366">
        <ele>2479.800000</ele>
        <time>2015-08-05T13:05:16Z</time>
        <speed>5.248000</speed>
      </trkpt>
      <trkpt lat="46.014169821" lon="7.206600256">
        <ele>2478.800000</ele>
        <time>2015-08-05T13:05:17Z</time>
        <speed>4.980000</speed>
      </trkpt>
      <trkpt lat="46.014150123" lon="7.206650799">
        <ele>2477.800000</ele>
        <time>2015-08-05T13:05:18Z</time>
        <speed>5.366000</speed>
      </trkpt>
      <trkpt lat="46.014136796" lon="7.206705784">
        <ele>2476.800000</ele>
        <time>2015-08-05T13:05:19Z</time>
        <speed>5.062000</speed>
      </trkpt>
      <trkpt lat="46.014123972" lon="7.206774767">
        <ele>2476.000000</ele>
        <time>2015-08-05T13:05:20Z</time>
        <speed>4.934000</speed>
      </trkpt>
      <trkpt lat="46.014105196" lon="7.206864705">
        <ele>2475.000000</ele>
        <time>2015-08-05T13:05:21Z</time>
        <speed>6.313000</speed>
      </trkpt>
      <trkpt lat="46.014093881" lon="7.206954727">
        <ele>2474.200000</ele>
        <time>2015-08-05T13:05:22Z</time>
        <speed>7.178000</speed>
      </trkpt>
      <trkpt lat="46.014096730" lon="7.207037624">
        <ele>2473.400000</ele>
        <time>2015-08-05T13:05:23Z</time>
        <speed>7.376000</speed>
      </trkpt>
      <trkpt lat="46.014102765" lon="7.207122365">
        <ele>2472.600000</ele>
        <time>2015-08-05T13:05:24Z</time>
        <speed>6.544000</speed>
      </trkpt>
      <trkpt lat="46.014103855" lon="7.207192521">
        <ele>2471.600000</ele>
        <time>2015-08-05T13:05:25Z</time>
        <speed>6.524000</speed>
      </trkpt>
      <trkpt lat="46.014104693" lon="7.207244405">
        <ele>2470.800000</ele>
        <time>2015-08-05T13:05:26Z</time>
        <speed>6.426000</speed>
      </trkpt>
      <trkpt lat="46.014103017" lon="7.207290925">
        <ele>2470.000000</ele>
        <time>2015-08-05T13:05:27Z</time>
        <speed>4.576000</speed>
      </trkpt>
      <trkpt lat="46.014067142" lon="7.207404500">
        <ele>2470.000000</ele>
        <time>2015-08-05T13:05:32Z</time>
        <speed>1.725000</speed>
      </trkpt>
      <trkpt lat="46.014080637" lon="7.207466190">
        <ele>2470.000000</ele>
        <time>2015-08-05T13:05:33Z</time>
        <speed>2.369000</speed>
      </trkpt>
      <trkpt lat="46.014098155" lon="7.207584878">
        <ele>2470.000000</ele>
        <time>2015-08-05T13:05:35Z</time>
        <speed>3.779000</speed>
      </trkpt>
      <trkpt lat="46.014105448" lon="7.207806412">
        <ele>2470.000000</ele>
        <time>2015-08-05T13:05:41Z</time>
        <speed>3.199000</speed>
      </trkpt>
      <trkpt lat="46.014116093" lon="7.207947814">
        <ele>2469.600000</ele>
        <time>2015-08-05T13:05:44Z</time>
        <speed>3.079000</speed>
      </trkpt>
      <trkpt lat="46.014101005" lon="7.208011852">
        <ele>2469.200000</ele>
        <time>2015-08-05T13:05:45Z</time>
        <speed>4.276000</speed>
      </trkpt>
      <trkpt lat="46.014097569" lon="7.208071448">
        <ele>2468.800000</ele>
        <time>2015-08-05T13:05:46Z</time>
        <speed>4.192000</speed>
      </trkpt>
      <trkpt lat="46.014104442" lon="7.208147136">
        <ele>2468.400000</ele>
        <time>2015-08-05T13:05:47Z</time>
        <speed>4.676000</speed>
      </trkpt>
      <trkpt lat="46.014112405" lon="7.208216874">
        <ele>2467.800000</ele>
        <time>2015-08-05T13:05:48Z</time>
        <speed>4.616000</speed>
      </trkpt>
      <trkpt lat="46.014117098" lon="7.208256604">
        <ele>2467.400000</ele>
        <time>2015-08-05T13:05:49Z</time>
        <speed>4.738000</speed>
      </trkpt>
      <trkpt lat="46.014121457" lon="7.208302620">
        <ele>2466.800000</ele>
        <time>2015-08-05T13:05:50Z</time>
        <speed>4.889000</speed>
      </trkpt>
      <trkpt lat="46.014124726" lon="7.208336148">
        <ele>2466.400000</ele>
        <time>2015-08-05T13:05:51Z</time>
        <speed>4.276000</speed>
      </trkpt>
      <trkpt lat="46.014125313" lon="7.208358025">
        <ele>2465.800000</ele>
        <time>2015-08-05T13:05:52Z</time>
        <speed>3.348000</speed>
      </trkpt>
      <trkpt lat="46.014116596" lon="7.208376046">
        <ele>2465.800000</ele>
        <time>2015-08-05T13:05:53Z</time>
        <speed>2.634000</speed>
      </trkpt>
      <trkpt lat="46.014107795" lon="7.208409071">
        <ele>2465.800000</ele>
        <time>2015-08-05T13:05:57Z</time>
        <speed>1.550000</speed>
      </trkpt>
      <trkpt lat="46.014107543" lon="7.208406640">
        <ele>2465.800000</ele>
        <time>2015-08-05T13:05:59Z</time>
        <speed>1.427000</speed>
      </trkpt>
      <trkpt lat="46.014102430" lon="7.208426170">
        <ele>2465.800000</ele>
        <time>2015-08-05T13:06:04Z</time>
        <speed>0.000000</speed>
      </trkpt>
      <trkpt lat="46.014082230" lon="7.208497835">
        <ele>2465.800000</ele>
        <time>2015-08-05T13:06:08Z</time>
        <speed>1.219000</speed>
      </trkpt>
      <trkpt lat="46.014075943" lon="7.208550473">
        <ele>2465.800000</ele>
        <time>2015-08-05T13:06:11Z</time>
        <speed>1.252000</speed>
      </trkpt>
      <trkpt lat="46.014061526" lon="7.208630604">
        <ele>2465.800000</ele>
        <time>2015-08-05T13:06:19Z</time>
        <speed>1.017000</speed>
      </trkpt>
      <trkpt lat="46.014062448" lon="7.208651643">
        <ele>2465.800000</ele>
        <time>2015-08-05T13:06:24Z</time>
        <speed>0.000000</speed>
      </trkpt>
      <trkpt lat="46.014076195" lon="7.208689529">
        <ele>2465.800000</ele>
        <time>2015-08-05T13:06:28Z</time>
        <speed>0.000000</speed>
      </trkpt>
      <trkpt lat="46.014076781" lon="7.208690954">
        <ele>2465.800000</ele>
        <time>2015-08-05T13:06:34Z</time>
        <speed>0.000000</speed>
      </trkpt>
      <trkpt lat="46.014076781" lon="7.208690954">
        <ele>2465.800000</ele>
        <time>2015-08-05T13:06:42Z</time>
        <speed>0.000000</speed>
      </trkpt>
      <trkpt lat="46.014074854" lon="7.208694474">
        <ele>2465.800000</ele>
        <time>2015-08-05T13:06:48Z</time>
        <speed>0.000000</speed>
      </trkpt>
      <trkpt lat="46.014078542" lon="7.208695396">
        <ele>2465.800000</ele>
        <time>2015-08-05T13:06:54Z</time>
        <speed>0.000000</speed>
      </trkpt>
      <trkpt lat="46.014078542" lon="7.208695396">
        <ele>2465.800000</ele>
        <time>2015-08-05T13:07:02Z</time>
        <speed>0.000000</speed>
      </trkpt>
      <trkpt lat="46.014077284" lon="7.208694810">
        <ele>2465.800000</ele>
        <time>2015-08-05T13:07:11Z</time>
        <speed>0.000000</speed>
      </trkpt>
      <trkpt lat="46.014077284" lon="7.208694810">
        <ele>2465.800000</ele>
        <time>2015-08-05T13:07:26Z</time>
        <speed>0.000000</speed>
      </trkpt>
      <trkpt lat="46.014075189" lon="7.208694139">
        <ele>2465.800000</ele>
        <time>2015-08-05T13:07:30Z</time>
        <speed>0.000000</speed>
      </trkpt>
      <trkpt lat="46.014075189" lon="7.208694139">
        <ele>2465.800000</ele>
        <time>2015-08-05T13:07:31Z</time>
        <speed>0.000000</speed>
      </trkpt>
      <trkpt lat="46.014075189" lon="7.208694139">
        <ele>2465.800000</ele>
        <time>2015-08-05T13:07:32Z</time>
        <speed>0.000000</speed>
      </trkpt>
      <trkpt lat="46.014075189" lon="7.208694139">
        <ele>2465.800000</ele>
        <time>2015-08-05T13:07:34Z</time>
        <speed>0.000000</speed>
      </trkpt>
      <trkpt lat="46.014075189" lon="7.208694139">
        <ele>2465.800000</ele>
        <time>2015-08-05T13:07:36Z</time>
        <speed>0.000000</speed>
      </trkpt>
      <trkpt lat="46.014075189" lon="7.208694139">
        <ele>2465.800000</ele>
        <time>2015-08-05T13:07:40Z</time>
        <speed>0.000000</speed>
      </trkpt>
      <trkpt lat="46.014075189" lon="7.208694139">
        <ele>2465.800000</ele>
        <time>2015-08-05T13:07:46Z</time>
        <speed>0.000000</speed>
      </trkpt>
      <trkpt lat="46.014075189" lon="7.208694139">
        <ele>2465.800000</ele>
        <time>2015-08-05T13:07:47Z</time>
        <speed>0.000000</speed>
      </trkpt>
      <trkpt lat="46.014075189" lon="7.208694139">
        <ele>2465.800000</ele>
        <time>2015-08-05T13:08:01Z</time>
        <speed>0.000000</speed>
      </trkpt>
      <trkpt lat="46.014075189" lon="7.208694139">
        <ele>2465.800000</ele>
        <time>2015-08-05T13:08:02Z</time>
        <speed>0.000000</speed>
      </trkpt>
      <trkpt lat="46.014072088" lon="7.208697157">
        <ele>2465.800000</ele>
        <time>2015-08-05T13:08:16Z</time>
        <speed>0.000000</speed>
      </trkpt>
      <trkpt lat="46.014072088" lon="7.208697157">
        <ele>2465.800000</ele>
        <time>2015-08-05T13:08:25Z</time>
        <speed>0.000000</speed>
      </trkpt>
      <trkpt lat="46.014072088" lon="7.208697157">
        <ele>2465.800000</ele>
        <time>2015-08-05T13:08:32Z</time>
        <speed>0.000000</speed>
      </trkpt>
      <trkpt lat="46.014072088" lon="7.208697157">
        <ele>2465.800000</ele>
        <time>2015-08-05T13:08:34Z</time>
        <speed>0.000000</speed>
      </trkpt>
      <trkpt lat="46.014071333" lon="7.208696989">
        <ele>2465.800000</ele>
        <time>2015-08-05T13:08:50Z</time>
        <speed>0.000000</speed>
      </trkpt>
      <trkpt lat="46.014071333" lon="7.208696989">
        <ele>2465.800000</ele>
        <time>2015-08-05T13:09:00Z</time>
        <speed>0.000000</speed>
      </trkpt>
      <trkpt lat="46.014071333" lon="7.208696989">
        <ele>2465.800000</ele>
        <time>2015-08-05T13:09:06Z</time>
        <speed>0.000000</speed>
      </trkpt>
      <trkpt lat="46.014071333" lon="7.208696989">
        <ele>2465.800000</ele>
        <time>2015-08-05T13:09:13Z</time>
        <speed>0.000000</speed>
      </trkpt>
      <trkpt lat="46.014071333" lon="7.208696989">
        <ele>2465.800000</ele>
        <time>2015-08-05T13:09:26Z</time>
        <speed>0.000000</speed>
      </trkpt>
      <trkpt lat="46.014069573" lon="7.208697492">
        <ele>2465.800000</ele>
        <time>2015-08-05T13:09:42Z</time>
        <speed>0.000000</speed>
      </trkpt>
      <trkpt lat="46.014069573" lon="7.208697492">
        <ele>2465.800000</ele>
        <time>2015-08-05T13:09:45Z</time>
        <speed>0.000000</speed>
      </trkpt>
      <trkpt lat="46.014069573" lon="7.208697492">
        <ele>2465.800000</ele>
        <time>2015-08-05T13:09:59Z</time>
        <speed>0.000000</speed>
      </trkpt>
      <trkpt lat="46.014069573" lon="7.208697492">
        <ele>2465.800000</ele>
        <time>2015-08-05T13:10:02Z</time>
        <speed>0.000000</speed>
      </trkpt>
      <trkpt lat="46.014068819" lon="7.208698079">
        <ele>2465.800000</ele>
        <time>2015-08-05T13:10:16Z</time>
        <speed>0.000000</speed>
      </trkpt>
      <trkpt lat="46.014068819" lon="7.208698079">
        <ele>2465.800000</ele>
        <time>2015-08-05T13:10:34Z</time>
        <speed>0.000000</speed>
      </trkpt>
      <trkpt lat="46.014068232" lon="7.208696905">
        <ele>2465.800000</ele>
        <time>2015-08-05T13:10:50Z</time>
        <speed>0.000000</speed>
      </trkpt>
      <trkpt lat="46.014068232" lon="7.208696905">
        <ele>2465.800000</ele>
        <time>2015-08-05T13:11:07Z</time>
        <speed>0.000000</speed>
      </trkpt>
      <trkpt lat="46.014068232" lon="7.208696905">
        <ele>2465.800000</ele>
        <time>2015-08-05T13:11:22Z</time>
        <speed>0.000000</speed>
      </trkpt>
      <trkpt lat="46.014066053" lon="7.208698498">
        <ele>2465.800000</ele>
        <time>2015-08-05T13:11:41Z</time>
        <speed>0.000000</speed>
      </trkpt>
      <trkpt lat="46.014066053" lon="7.208698498">
        <ele>2465.800000</ele>
        <time>2015-08-05T13:11:56Z</time>
        <speed>0.000000</speed>
      </trkpt>
      <trkpt lat="46.014066136" lon="7.208697324">
        <ele>2465.800000</ele>
        <time>2015-08-05T13:12:11Z</time>
        <speed>0.000000</speed>
      </trkpt>
      <trkpt lat="46.014066136" lon="7.208697324">
        <ele>2465.800000</ele>
        <time>2015-08-05T13:12:27Z</time>
        <speed>0.000000</speed>
      </trkpt>
      <trkpt lat="46.014066136" lon="7.208697324">
        <ele>2465.800000</ele>
        <time>2015-08-05T13:12:45Z</time>
        <speed>0.000000</speed>
      </trkpt>
      <trkpt lat="46.014066472" lon="7.208694893">
        <ele>2465.800000</ele>
        <time>2015-08-05T13:13:01Z</time>
        <speed>0.000000</speed>
      </trkpt>
      <trkpt lat="46.014066472" lon="7.208694893">
        <ele>2465.800000</ele>
        <time>2015-08-05T13:13:14Z</time>
        <speed>0.000000</speed>
      </trkpt>
      <trkpt lat="46.014066472" lon="7.208694893">
        <ele>2465.800000</ele>
        <time>2015-08-05T13:13:20Z</time>
        <speed>0.000000</speed>
      </trkpt>
      <trkpt lat="46.014066472" lon="7.208694893">
        <ele>2465.800000</ele>
        <time>2015-08-05T13:13:26Z</time>
        <speed>0.000000</speed>
      </trkpt>
      <trkpt lat="46.014065214" lon="7.208693720">
        <ele>2465.800000</ele>
        <time>2015-08-05T13:13:35Z</time>
        <speed>0.000000</speed>
      </trkpt>
      <trkpt lat="46.014065214" lon="7.208693720">
        <ele>2465.800000</ele>
        <time>2015-08-05T13:13:54Z</time>
        <speed>0.000000</speed>
      </trkpt>
      <trkpt lat="46.014065214" lon="7.208693720">
        <ele>2465.800000</ele>
        <time>2015-08-05T13:14:08Z</time>
        <speed>0.000000</speed>
      </trkpt>
      <trkpt lat="46.014063790" lon="7.208690283">
        <ele>2465.800000</ele>
        <time>2015-08-05T13:14:24Z</time>
        <speed>0.000000</speed>
      </trkpt>
      <trkpt lat="46.014063790" lon="7.208690283">
        <ele>2465.800000</ele>
        <time>2015-08-05T13:14:33Z</time>
        <speed>0.000000</speed>
      </trkpt>
      <trkpt lat="46.014063790" lon="7.208690283">
        <ele>2465.800000</ele>
        <time>2015-08-05T13:14:38Z</time>
        <speed>0.000000</speed>
      </trkpt>
      <trkpt lat="46.014063790" lon="7.208690283">
        <ele>2465.800000</ele>
        <time>2015-08-05T13:14:48Z</time>
        <speed>0.000000</speed>
      </trkpt>
      <trkpt lat="46.014063538" lon="7.208690116">
        <ele>2465.800000</ele>
        <time>2015-08-05T13:14:52Z</time>
        <speed>0.000000</speed>
      </trkpt>
      <trkpt lat="46.014063538" lon="7.208690116">
        <ele>2465.800000</ele>
        <time>2015-08-05T13:15:07Z</time>
        <speed>0.000000</speed>
      </trkpt>
      <trkpt lat="46.014063538" lon="7.208690116">
        <ele>2465.800000</ele>
        <time>2015-08-05T13:15:25Z</time>
        <speed>0.000000</speed>
      </trkpt>
      <trkpt lat="46.014061443" lon="7.208691541">
        <ele>2465.800000</ele>
        <time>2015-08-05T13:15:39Z</time>
        <speed>0.000000</speed>
      </trkpt>
      <trkpt lat="46.014061443" lon="7.208691541">
        <ele>2465.800000</ele>
        <time>2015-08-05T13:15:48Z</time>
        <speed>0.000000</speed>
      </trkpt>
      <trkpt lat="46.014061443" lon="7.208691541">
        <ele>2465.800000</ele>
        <time>2015-08-05T13:15:50Z</time>
        <speed>0.000000</speed>
      </trkpt>
      <trkpt lat="46.014061443" lon="7.208691541">
        <ele>2465.800000</ele>
        <time>2015-08-05T13:15:53Z</time>
        <speed>0.000000</speed>
      </trkpt>
      <trkpt lat="46.014061443" lon="7.208691541">
        <ele>2465.800000</ele>
        <time>2015-08-05T13:15:54Z</time>
        <speed>0.000000</speed>
      </trkpt>
      <trkpt lat="46.014061443" lon="7.208691541">
        <ele>2465.800000</ele>
        <time>2015-08-05T13:15:58Z</time>
        <speed>0.000000</speed>
      </trkpt>
      <trkpt lat="46.014061443" lon="7.208691541">
        <ele>2465.800000</ele>
        <time>2015-08-05T13:16:08Z</time>
        <speed>0.000000</speed>
      </trkpt>
      <trkpt lat="46.014062784" lon="7.208689278">
        <ele>2465.800000</ele>
        <time>2015-08-05T13:16:09Z</time>
        <speed>0.000000</speed>
      </trkpt>
      <trkpt lat="46.014062784" lon="7.208689278">
        <ele>2465.800000</ele>
        <time>2015-08-05T13:16:29Z</time>
        <speed>0.000000</speed>
      </trkpt>
      <trkpt lat="46.014062784" lon="7.208689278">
        <ele>2465.800000</ele>
        <time>2015-08-05T13:16:34Z</time>
        <speed>0.000000</speed>
      </trkpt>
      <trkpt lat="46.014062784" lon="7.208689278">
        <ele>2465.800000</ele>
        <time>2015-08-05T13:16:45Z</time>
        <speed>0.000000</speed>
      </trkpt>
      <trkpt lat="46.014060604" lon="7.208691792">
        <ele>2465.800000</ele>
        <time>2015-08-05T13:16:59Z</time>
        <speed>0.000000</speed>
      </trkpt>
      <trkpt lat="46.014060604" lon="7.208691792">
        <ele>2465.800000</ele>
        <time>2015-08-05T13:17:08Z</time>
        <speed>0.000000</speed>
      </trkpt>
      <trkpt lat="46.014060604" lon="7.208691792">
        <ele>2465.800000</ele>
        <time>2015-08-05T13:17:13Z</time>
        <speed>0.000000</speed>
      </trkpt>
      <trkpt lat="46.014060604" lon="7.208691792">
        <ele>2465.800000</ele>
        <time>2015-08-05T13:17:18Z</time>
        <speed>0.000000</speed>
      </trkpt>
      <trkpt lat="46.014060940" lon="7.208690954">
        <ele>2465.800000</ele>
        <time>2015-08-05T13:17:33Z</time>
        <speed>0.000000</speed>
      </trkpt>
      <trkpt lat="46.014060940" lon="7.208690954">
        <ele>2465.800000</ele>
        <time>2015-08-05T13:17:52Z</time>
        <speed>0.000000</speed>
      </trkpt>
      <trkpt lat="46.014060940" lon="7.208690954">
        <ele>2465.800000</ele>
        <time>2015-08-05T13:17:55Z</time>
        <speed>0.000000</speed>
      </trkpt>
      <trkpt lat="46.014060940" lon="7.208690954">
        <ele>2465.800000</ele>
        <time>2015-08-05T13:18:06Z</time>
        <speed>0.000000</speed>
      </trkpt>
      <trkpt lat="46.014060940" lon="7.208690954">
        <ele>2466.200000</ele>
        <time>2015-08-05T13:18:07Z</time>
        <speed>0.000000</speed>
      </trkpt>
      <trkpt lat="46.014060940" lon="7.208690954">
        <ele>2467.000000</ele>
        <time>2015-08-05T13:18:08Z</time>
        <speed>0.000000</speed>
      </trkpt>
      <trkpt lat="46.014058425" lon="7.208691625">
        <ele>2467.400000</ele>
        <time>2015-08-05T13:18:09Z</time>
        <speed>0.000000</speed>
      </trkpt>
      <trkpt lat="46.014058425" lon="7.208691625">
        <ele>2467.800000</ele>
        <time>2015-08-05T13:18:10Z</time>
        <speed>0.000000</speed>
      </trkpt>
      <trkpt lat="46.014058425" lon="7.208691625">
        <ele>2467.800000</ele>
        <time>2015-08-05T13:18:21Z</time>
        <speed>0.000000</speed>
      </trkpt>
      <trkpt lat="46.014058425" lon="7.208691625">
        <ele>2467.800000</ele>
        <time>2015-08-05T13:18:22Z</time>
        <speed>0.000000</speed>
      </trkpt>
      <trkpt lat="46.014058425" lon="7.208691625">
        <ele>2467.800000</ele>
        <time>2015-08-05T13:18:39Z</time>
        <speed>0.000000</speed>
      </trkpt>
      <trkpt lat="46.014055743" lon="7.208693049">
        <ele>2467.800000</ele>
        <time>2015-08-05T13:18:56Z</time>
        <speed>0.000000</speed>
      </trkpt>
      <trkpt lat="46.014055743" lon="7.208693049">
        <ele>2467.800000</ele>
        <time>2015-08-05T13:18:57Z</time>
        <speed>0.000000</speed>
      </trkpt>
      <trkpt lat="46.014055743" lon="7.208693049">
        <ele>2467.800000</ele>
        <time>2015-08-05T13:19:01Z</time>
        <speed>0.000000</speed>
      </trkpt>
      <trkpt lat="46.014055743" lon="7.208693049">
        <ele>2467.800000</ele>
        <time>2015-08-05T13:19:07Z</time>
        <speed>0.000000</speed>
      </trkpt>
      <trkpt lat="46.014055743" lon="7.208693049">
        <ele>2467.800000</ele>
        <time>2015-08-05T13:19:14Z</time>
        <speed>0.000000</speed>
      </trkpt>
      <trkpt lat="46.014055911" lon="7.208692463">
        <ele>2467.800000</ele>
        <time>2015-08-05T13:19:34Z</time>
        <speed>0.000000</speed>
      </trkpt>
      <trkpt lat="46.014055911" lon="7.208692463">
        <ele>2467.800000</ele>
        <time>2015-08-05T13:19:53Z</time>
        <speed>0.000000</speed>
      </trkpt>
      <trkpt lat="46.014055911" lon="7.208692463">
        <ele>2467.800000</ele>
        <time>2015-08-05T13:20:02Z</time>
        <speed>0.000000</speed>
      </trkpt>
      <trkpt lat="46.014056078" lon="7.208692127">
        <ele>2467.800000</ele>
        <time>2015-08-05T13:20:09Z</time>
        <speed>0.000000</speed>
      </trkpt>
      <trkpt lat="46.014056078" lon="7.208692127">
        <ele>2467.800000</ele>
        <time>2015-08-05T13:20:11Z</time>
        <speed>0.000000</speed>
      </trkpt>
      <trkpt lat="46.014056078" lon="7.208692127">
        <ele>2467.800000</ele>
        <time>2015-08-05T13:20:23Z</time>
        <speed>0.000000</speed>
      </trkpt>
      <trkpt lat="46.014056078" lon="7.208692127">
        <ele>2467.800000</ele>
        <time>2015-08-05T13:20:26Z</time>
        <speed>0.000000</speed>
      </trkpt>
      <trkpt lat="46.014056078" lon="7.208692127">
        <ele>2467.800000</ele>
        <time>2015-08-05T13:20:36Z</time>
        <speed>0.000000</speed>
      </trkpt>
      <trkpt lat="46.014056078" lon="7.208692127">
        <ele>2467.800000</ele>
        <time>2015-08-05T13:20:43Z</time>
        <speed>0.000000</speed>
      </trkpt>
      <trkpt lat="46.014055240" lon="7.208693217">
        <ele>2467.800000</ele>
        <time>2015-08-05T13:20:59Z</time>
        <speed>0.000000</speed>
      </trkpt>
      <trkpt lat="46.014055240" lon="7.208693217">
        <ele>2467.800000</ele>
        <time>2015-08-05T13:21:15Z</time>
        <speed>0.000000</speed>
      </trkpt>
      <trkpt lat="46.014055240" lon="7.208693217">
        <ele>2467.800000</ele>
        <time>2015-08-05T13:21:23Z</time>
        <speed>0.000000</speed>
      </trkpt>
      <trkpt lat="46.014055240" lon="7.208693217">
        <ele>2467.800000</ele>
        <time>2015-08-05T13:21:29Z</time>
        <speed>0.000000</speed>
      </trkpt>
      <trkpt lat="46.014055575" lon="7.208692882">
        <ele>2467.800000</ele>
        <time>2015-08-05T13:21:35Z</time>
        <speed>0.000000</speed>
      </trkpt>
      <trkpt lat="46.014055575" lon="7.208692882">
        <ele>2467.800000</ele>
        <time>2015-08-05T13:21:40Z</time>
        <speed>0.000000</speed>
      </trkpt>
      <trkpt lat="46.014055575" lon="7.208692882">
        <ele>2467.800000</ele>
        <time>2015-08-05T13:21:51Z</time>
        <speed>0.000000</speed>
      </trkpt>
      <trkpt lat="46.014055575" lon="7.208692882">
        <ele>2467.800000</ele>
        <time>2015-08-05T13:21:55Z</time>
        <speed>0.000000</speed>
      </trkpt>
      <trkpt lat="46.014055575" lon="7.208692882">
        <ele>2467.800000</ele>
        <time>2015-08-05T13:21:58Z</time>
        <speed>0.000000</speed>
      </trkpt>
      <trkpt lat="46.014055575" lon="7.208692882">
        <ele>2467.800000</ele>
        <time>2015-08-05T13:22:02Z</time>
        <speed>0.000000</speed>
      </trkpt>
      <trkpt lat="46.014055575" lon="7.208692882">
        <ele>2467.800000</ele>
        <time>2015-08-05T13:22:07Z</time>
        <speed>0.000000</speed>
      </trkpt>
      <trkpt lat="46.014055575" lon="7.208692882">
        <ele>2467.800000</ele>
        <time>2015-08-05T13:22:09Z</time>
        <speed>0.000000</speed>
      </trkpt>
      <trkpt lat="46.014054150" lon="7.208692798">
        <ele>2467.800000</ele>
        <time>2015-08-05T13:22:21Z</time>
        <speed>0.000000</speed>
      </trkpt>
      <trkpt lat="46.014054150" lon="7.208692798">
        <ele>2467.800000</ele>
        <time>2015-08-05T13:22:23Z</time>
        <speed>0.000000</speed>
      </trkpt>
      <trkpt lat="46.014054150" lon="7.208692798">
        <ele>2467.800000</ele>
        <time>2015-08-05T13:22:35Z</time>
        <speed>0.000000</speed>
      </trkpt>
      <trkpt lat="46.014054150" lon="7.208692798">
        <ele>2467.800000</ele>
        <time>2015-08-05T13:22:40Z</time>
        <speed>0.000000</speed>
      </trkpt>
      <trkpt lat="46.014052725" lon="7.208692966">
        <ele>2467.800000</ele>
        <time>2015-08-05T13:22:52Z</time>
        <speed>0.000000</speed>
      </trkpt>
      <trkpt lat="46.014052725" lon="7.208692966">
        <ele>2467.800000</ele>
        <time>2015-08-05T13:22:56Z</time>
        <speed>0.000000</speed>
      </trkpt>
      <trkpt lat="46.014052725" lon="7.208692966">
        <ele>2467.800000</ele>
        <time>2015-08-05T13:22:58Z</time>
        <speed>0.000000</speed>
      </trkpt>
      <trkpt lat="46.014052725" lon="7.208692966">
        <ele>2467.800000</ele>
        <time>2015-08-05T13:23:10Z</time>
        <speed>0.000000</speed>
      </trkpt>
      <trkpt lat="46.014052725" lon="7.208692966">
        <ele>2467.800000</ele>
        <time>2015-08-05T13:23:14Z</time>
        <speed>0.000000</speed>
      </trkpt>
      <trkpt lat="46.014052725" lon="7.208692966">
        <ele>2467.800000</ele>
        <time>2015-08-05T13:23:21Z</time>
        <speed>0.000000</speed>
      </trkpt>
      <trkpt lat="46.014052809" lon="7.208691960">
        <ele>2467.800000</ele>
        <time>2015-08-05T13:23:31Z</time>
        <speed>0.000000</speed>
      </trkpt>
      <trkpt lat="46.014052809" lon="7.208691960">
        <ele>2467.800000</ele>
        <time>2015-08-05T13:23:46Z</time>
        <speed>0.000000</speed>
      </trkpt>
      <trkpt lat="46.014052809" lon="7.208691960">
        <ele>2467.800000</ele>
        <time>2015-08-05T13:23:51Z</time>
        <speed>0.000000</speed>
      </trkpt>
      <trkpt lat="46.014052809" lon="7.208691960">
        <ele>2467.800000</ele>
        <time>2015-08-05T13:23:54Z</time>
        <speed>0.000000</speed>
      </trkpt>
      <trkpt lat="46.014052809" lon="7.208691960">
        <ele>2467.800000</ele>
        <time>2015-08-05T13:24:03Z</time>
        <speed>0.000000</speed>
      </trkpt>
      <trkpt lat="46.014051971" lon="7.208692211">
        <ele>2467.800000</ele>
        <time>2015-08-05T13:24:22Z</time>
        <speed>0.000000</speed>
      </trkpt>
      <trkpt lat="46.014051971" lon="7.208692211">
        <ele>2467.800000</ele>
        <time>2015-08-05T13:24:36Z</time>
        <speed>0.000000</speed>
      </trkpt>
      <trkpt lat="46.014051636" lon="7.208694893">
        <ele>2467.800000</ele>
        <time>2015-08-05T13:24:52Z</time>
        <speed>0.000000</speed>
      </trkpt>
      <trkpt lat="46.014051636" lon="7.208694893">
        <ele>2467.800000</ele>
        <time>2015-08-05T13:25:04Z</time>
        <speed>0.000000</speed>
      </trkpt>
      <trkpt lat="46.014051636" lon="7.208694893">
        <ele>2467.800000</ele>
        <time>2015-08-05T13:25:09Z</time>
        <speed>0.000000</speed>
      </trkpt>
      <trkpt lat="46.014051636" lon="7.208694893">
        <ele>2467.800000</ele>
        <time>2015-08-05T13:25:10Z</time>
        <speed>0.000000</speed>
      </trkpt>
      <trkpt lat="46.014051636" lon="7.208694893">
        <ele>2467.800000</ele>
        <time>2015-08-05T13:25:21Z</time>
        <speed>0.000000</speed>
      </trkpt>
      <trkpt lat="46.014051636" lon="7.208694893">
        <ele>2467.800000</ele>
        <time>2015-08-05T13:25:25Z</time>
        <speed>0.000000</speed>
      </trkpt>
      <trkpt lat="46.014051636" lon="7.208694893">
        <ele>2467.800000</ele>
        <time>2015-08-05T13:25:27Z</time>
        <speed>0.000000</speed>
      </trkpt>
      <trkpt lat="46.014051971" lon="7.208695480">
        <ele>2467.800000</ele>
        <time>2015-08-05T13:25:40Z</time>
        <speed>0.000000</speed>
      </trkpt>
      <trkpt lat="46.014051971" lon="7.208695480">
        <ele>2467.800000</ele>
        <time>2015-08-05T13:25:52Z</time>
        <speed>0.000000</speed>
      </trkpt>
      <trkpt lat="46.014051971" lon="7.208695480">
        <ele>2467.800000</ele>
        <time>2015-08-05T13:26:00Z</time>
        <speed>0.000000</speed>
      </trkpt>
      <trkpt lat="46.014051468" lon="7.208695061">
        <ele>2467.800000</ele>
        <time>2015-08-05T13:26:16Z</time>
        <speed>0.000000</speed>
      </trkpt>
      <trkpt lat="46.014051468" lon="7.208695061">
        <ele>2467.800000</ele>
        <time>2015-08-05T13:26:21Z</time>
        <speed>0.000000</speed>
      </trkpt>
      <trkpt lat="46.014051468" lon="7.208695061">
        <ele>2467.800000</ele>
        <time>2015-08-05T13:26:32Z</time>
        <speed>0.000000</speed>
      </trkpt>
      <trkpt lat="46.014051468" lon="7.208695061">
        <ele>2467.800000</ele>
        <time>2015-08-05T13:26:47Z</time>
        <speed>0.000000</speed>
      </trkpt>
      <trkpt lat="46.014051803" lon="7.208694139">
        <ele>2467.800000</ele>
        <time>2015-08-05T13:27:00Z</time>
        <speed>0.000000</speed>
      </trkpt>
      <trkpt lat="46.014051803" lon="7.208694139">
        <ele>2467.800000</ele>
        <time>2015-08-05T13:27:09Z</time>
        <speed>0.000000</speed>
      </trkpt>
      <trkpt lat="46.014051803" lon="7.208694139">
        <ele>2467.800000</ele>
        <time>2015-08-05T13:27:16Z</time>
        <speed>0.000000</speed>
      </trkpt>
      <trkpt lat="46.014051971" lon="7.208693971">
        <ele>2467.800000</ele>
        <time>2015-08-05T13:27:30Z</time>
        <speed>0.000000</speed>
      </trkpt>
      <trkpt lat="46.014051971" lon="7.208693971">
        <ele>2467.800000</ele>
        <time>2015-08-05T13:27:32Z</time>
        <speed>0.000000</speed>
      </trkpt>
      <trkpt lat="46.014051971" lon="7.208693971">
        <ele>2467.800000</ele>
        <time>2015-08-05T13:27:38Z</time>
        <speed>0.000000</speed>
      </trkpt>
      <trkpt lat="46.014051971" lon="7.208693971">
        <ele>2467.800000</ele>
        <time>2015-08-05T13:27:40Z</time>
        <speed>0.000000</speed>
      </trkpt>
      <trkpt lat="46.014051971" lon="7.208693971">
        <ele>2467.800000</ele>
        <time>2015-08-05T13:27:45Z</time>
        <speed>0.000000</speed>
      </trkpt>
      <trkpt lat="46.014051971" lon="7.208693971">
        <ele>2467.800000</ele>
        <time>2015-08-05T13:28:01Z</time>
        <speed>0.000000</speed>
      </trkpt>
      <trkpt lat="46.014051552" lon="7.208694391">
        <ele>2467.800000</ele>
        <time>2015-08-05T13:28:17Z</time>
        <speed>0.000000</speed>
      </trkpt>
      <trkpt lat="46.014051552" lon="7.208694391">
        <ele>2467.800000</ele>
        <time>2015-08-05T13:28:32Z</time>
        <speed>0.000000</speed>
      </trkpt>
      <trkpt lat="46.014051552" lon="7.208694391">
        <ele>2467.800000</ele>
        <time>2015-08-05T13:28:45Z</time>
        <speed>0.000000</speed>
      </trkpt>
      <trkpt lat="46.014051552" lon="7.208694391">
        <ele>2468.200000</ele>
        <time>2015-08-05T13:28:47Z</time>
        <speed>0.000000</speed>
      </trkpt>
      <trkpt lat="46.014051552" lon="7.208694391">
        <ele>2468.600000</ele>
        <time>2015-08-05T13:28:48Z</time>
        <speed>0.000000</speed>
      </trkpt>
      <trkpt lat="46.014051468" lon="7.208695313">
        <ele>2469.200000</ele>
        <time>2015-08-05T13:28:49Z</time>
        <speed>0.000000</speed>
      </trkpt>
      <trkpt lat="46.014051468" lon="7.208695313">
        <ele>2469.600000</ele>
        <time>2015-08-05T13:28:50Z</time>
        <speed>0.000000</speed>
      </trkpt>
      <trkpt lat="46.014051468" lon="7.208695313">
        <ele>2470.000000</ele>
        <time>2015-08-05T13:28:51Z</time>
        <speed>0.000000</speed>
      </trkpt>
      <trkpt lat="46.014051468" lon="7.208695313">
        <ele>2470.000000</ele>
        <time>2015-08-05T13:29:04Z</time>
        <speed>0.000000</speed>
      </trkpt>
      <trkpt lat="46.014051468" lon="7.208695313">
        <ele>2470.000000</ele>
        <time>2015-08-05T13:29:24Z</time>
        <speed>0.000000</speed>
      </trkpt>
      <trkpt lat="46.014051468" lon="7.208695313">
        <ele>2470.000000</ele>
        <time>2015-08-05T13:29:25Z</time>
        <speed>0.000000</speed>
      </trkpt>
      <trkpt lat="46.014050965" lon="7.208695480">
        <ele>2470.000000</ele>
        <time>2015-08-05T13:29:35Z</time>
        <speed>0.000000</speed>
      </trkpt>
      <trkpt lat="46.014050965" lon="7.208695480">
        <ele>2470.000000</ele>
        <time>2015-08-05T13:29:38Z</time>
        <speed>0.000000</speed>
      </trkpt>
      <trkpt lat="46.014050965" lon="7.208695480">
        <ele>2470.000000</ele>
        <time>2015-08-05T13:29:44Z</time>
        <speed>0.000000</speed>
      </trkpt>
      <trkpt lat="46.014050965" lon="7.208695480">
        <ele>2470.000000</ele>
        <time>2015-08-05T13:29:48Z</time>
        <speed>0.000000</speed>
      </trkpt>
      <trkpt lat="46.014050965" lon="7.208695480">
        <ele>2470.000000</ele>
        <time>2015-08-05T13:29:58Z</time>
        <speed>0.000000</speed>
      </trkpt>
      <trkpt lat="46.014050965" lon="7.208695480">
        <ele>2470.000000</ele>
        <time>2015-08-05T13:30:08Z</time>
        <speed>0.000000</speed>
      </trkpt>
      <trkpt lat="46.014049624" lon="7.208696067">
        <ele>2470.000000</ele>
        <time>2015-08-05T13:30:17Z</time>
        <speed>0.000000</speed>
      </trkpt>
      <trkpt lat="46.014049624" lon="7.208696067">
        <ele>2470.000000</ele>
        <time>2015-08-05T13:30:26Z</time>
        <speed>0.000000</speed>
      </trkpt>
      <trkpt lat="46.014049624" lon="7.208696067">
        <ele>2470.000000</ele>
        <time>2015-08-05T13:30:31Z</time>
        <speed>0.000000</speed>
      </trkpt>
      <trkpt lat="46.014049624" lon="7.208696067">
        <ele>2470.000000</ele>
        <time>2015-08-05T13:30:36Z</time>
        <speed>0.000000</speed>
      </trkpt>
      <trkpt lat="46.014049624" lon="7.208696067">
        <ele>2470.000000</ele>
        <time>2015-08-05T13:30:39Z</time>
        <speed>0.000000</speed>
      </trkpt>
      <trkpt lat="46.014049624" lon="7.208696067">
        <ele>2470.000000</ele>
        <time>2015-08-05T13:30:44Z</time>
        <speed>0.000000</speed>
      </trkpt>
      <trkpt lat="46.014049624" lon="7.208696067">
        <ele>2470.000000</ele>
        <time>2015-08-05T13:30:48Z</time>
        <speed>0.000000</speed>
      </trkpt>
      <trkpt lat="46.014049540" lon="7.208693385">
        <ele>2470.000000</ele>
        <time>2015-08-05T13:31:02Z</time>
        <speed>0.000000</speed>
      </trkpt>
      <trkpt lat="46.014049540" lon="7.208693385">
        <ele>2470.000000</ele>
        <time>2015-08-05T13:31:05Z</time>
        <speed>0.000000</speed>
      </trkpt>
      <trkpt lat="46.014049540" lon="7.208693385">
        <ele>2470.000000</ele>
        <time>2015-08-05T13:31:07Z</time>
        <speed>0.000000</speed>
      </trkpt>
      <trkpt lat="46.014049456" lon="7.208694810">
        <ele>2470.000000</ele>
        <time>2015-08-05T13:31:13Z</time>
        <speed>0.000000</speed>
      </trkpt>
      <trkpt lat="46.014049456" lon="7.208694810">
        <ele>2470.000000</ele>
        <time>2015-08-05T13:31:15Z</time>
        <speed>0.000000</speed>
      </trkpt>
      <trkpt lat="46.014049456" lon="7.208694810">
        <ele>2470.000000</ele>
        <time>2015-08-05T13:31:19Z</time>
        <speed>0.000000</speed>
      </trkpt>
      <trkpt lat="46.014049456" lon="7.208694810">
        <ele>2470.000000</ele>
        <time>2015-08-05T13:31:21Z</time>
        <speed>0.000000</speed>
      </trkpt>
      <trkpt lat="46.014049456" lon="7.208694810">
        <ele>2470.000000</ele>
        <time>2015-08-05T13:31:25Z</time>
        <speed>0.000000</speed>
      </trkpt>
      <trkpt lat="46.014049456" lon="7.208694810">
        <ele>2470.000000</ele>
        <time>2015-08-05T13:31:32Z</time>
        <speed>0.000000</speed>
      </trkpt>
      <trkpt lat="46.014049456" lon="7.208694810">
        <ele>2470.000000</ele>
        <time>2015-08-05T13:31:40Z</time>
        <speed>0.000000</speed>
      </trkpt>
      <trkpt lat="46.014048618" lon="7.208693217">
        <ele>2470.000000</ele>
        <time>2015-08-05T13:31:44Z</time>
        <speed>0.000000</speed>
      </trkpt>
      <trkpt lat="46.014048618" lon="7.208693217">
        <ele>2470.000000</ele>
        <time>2015-08-05T13:31:55Z</time>
        <speed>0.000000</speed>
      </trkpt>
      <trkpt lat="46.014052558" lon="7.208690954">
        <ele>2470.000000</ele>
        <time>2015-08-05T13:31:59Z</time>
        <speed>0.000000</speed>
      </trkpt>
      <trkpt lat="46.014052558" lon="7.208690954">
        <ele>2470.000000</ele>
        <time>2015-08-05T13:32:00Z</time>
        <speed>0.000000</speed>
      </trkpt>
      <trkpt lat="46.014052558" lon="7.208690954">
        <ele>2470.000000</ele>
        <time>2015-08-05T13:32:09Z</time>
        <speed>0.000000</speed>
      </trkpt>
      <trkpt lat="46.014052558" lon="7.208690954">
        <ele>2470.000000</ele>
        <time>2015-08-05T13:32:12Z</time>
        <speed>0.000000</speed>
      </trkpt>
      <trkpt lat="46.014052558" lon="7.208690954">
        <ele>2470.000000</ele>
        <time>2015-08-05T13:32:15Z</time>
        <speed>0.000000</speed>
      </trkpt>
      <trkpt lat="46.014052558" lon="7.208690954">
        <ele>2470.000000</ele>
        <time>2015-08-05T13:32:20Z</time>
        <speed>0.000000</speed>
      </trkpt>
      <trkpt lat="46.014052558" lon="7.208690954">
        <ele>2470.000000</ele>
        <time>2015-08-05T13:32:26Z</time>
        <speed>0.000000</speed>
      </trkpt>
      <trkpt lat="46.014052558" lon="7.208690954">
        <ele>2470.000000</ele>
        <time>2015-08-05T13:32:30Z</time>
        <speed>0.000000</speed>
      </trkpt>
      <trkpt lat="46.014056581" lon="7.208691457">
        <ele>2470.000000</ele>
        <time>2015-08-05T13:32:41Z</time>
        <speed>0.000000</speed>
      </trkpt>
      <trkpt lat="46.014056581" lon="7.208691457">
        <ele>2470.000000</ele>
        <time>2015-08-05T13:32:55Z</time>
        <speed>0.000000</speed>
      </trkpt>
      <trkpt lat="46.014056581" lon="7.208691457">
        <ele>2470.000000</ele>
        <time>2015-08-05T13:33:10Z</time>
        <speed>0.000000</speed>
      </trkpt>
      <trkpt lat="46.014056581" lon="7.208691457">
        <ele>2470.000000</ele>
        <time>2015-08-05T13:33:13Z</time>
        <speed>0.000000</speed>
      </trkpt>
      <trkpt lat="46.014056581" lon="7.208691457">
        <ele>2470.000000</ele>
        <time>2015-08-05T13:33:16Z</time>
        <speed>0.000000</speed>
      </trkpt>
      <trkpt lat="46.014055324" lon="7.208693636">
        <ele>2470.000000</ele>
        <time>2015-08-05T13:33:20Z</time>
        <speed>0.000000</speed>
      </trkpt>
      <trkpt lat="46.014055324" lon="7.208693636">
        <ele>2470.000000</ele>
        <time>2015-08-05T13:33:24Z</time>
        <speed>0.000000</speed>
      </trkpt>
      <trkpt lat="46.014055324" lon="7.208693636">
        <ele>2470.000000</ele>
        <time>2015-08-05T13:33:29Z</time>
        <speed>0.000000</speed>
      </trkpt>
      <trkpt lat="46.014055324" lon="7.208693636">
        <ele>2470.000000</ele>
        <time>2015-08-05T13:33:31Z</time>
        <speed>0.000000</speed>
      </trkpt>
      <trkpt lat="46.014055324" lon="7.208693636">
        <ele>2470.000000</ele>
        <time>2015-08-05T13:33:45Z</time>
        <speed>0.000000</speed>
      </trkpt>
      <trkpt lat="46.014055324" lon="7.208693636">
        <ele>2470.000000</ele>
        <time>2015-08-05T13:33:51Z</time>
        <speed>0.000000</speed>
      </trkpt>
      <trkpt lat="46.014055324" lon="7.208693636">
        <ele>2470.000000</ele>
        <time>2015-08-05T13:33:56Z</time>
        <speed>0.000000</speed>
      </trkpt>
      <trkpt lat="46.014051887" lon="7.208695313">
        <ele>2470.000000</ele>
        <time>2015-08-05T13:34:02Z</time>
        <speed>0.000000</speed>
      </trkpt>
      <trkpt lat="46.014051887" lon="7.208695313">
        <ele>2470.000000</ele>
        <time>2015-08-05T13:34:08Z</time>
        <speed>0.000000</speed>
      </trkpt>
      <trkpt lat="46.014051887" lon="7.208695313">
        <ele>2470.000000</ele>
        <time>2015-08-05T13:34:12Z</time>
        <speed>0.000000</speed>
      </trkpt>
      <trkpt lat="46.014051887" lon="7.208695313">
        <ele>2470.000000</ele>
        <time>2015-08-05T13:34:15Z</time>
        <speed>0.000000</speed>
      </trkpt>
      <trkpt lat="46.014051887" lon="7.208695313">
        <ele>2470.000000</ele>
        <time>2015-08-05T13:34:21Z</time>
        <speed>0.000000</speed>
      </trkpt>
      <trkpt lat="46.014051887" lon="7.208695313">
        <ele>2470.000000</ele>
        <time>2015-08-05T13:34:26Z</time>
        <speed>0.000000</speed>
      </trkpt>
      <trkpt lat="46.014051887" lon="7.208695313">
        <ele>2470.400000</ele>
        <time>2015-08-05T13:34:28Z</time>
        <speed>0.473000</speed>
      </trkpt>
      <trkpt lat="46.014052809" lon="7.208697660">
        <ele>2470.800000</ele>
        <time>2015-08-05T13:34:29Z</time>
        <speed>0.000000</speed>
      </trkpt>
      <trkpt lat="46.014052809" lon="7.208697660">
        <ele>2471.200000</ele>
        <time>2015-08-05T13:34:30Z</time>
        <speed>0.000000</speed>
      </trkpt>
      <trkpt lat="46.014052809" lon="7.208697660">
        <ele>2471.800000</ele>
        <time>2015-08-05T13:34:31Z</time>
        <speed>0.000000</speed>
      </trkpt>
      <trkpt lat="46.014052809" lon="7.208697660">
        <ele>2472.200000</ele>
        <time>2015-08-05T13:34:32Z</time>
        <speed>0.000000</speed>
      </trkpt>
      <trkpt lat="46.014052809" lon="7.208697660">
        <ele>2472.200000</ele>
        <time>2015-08-05T13:34:35Z</time>
        <speed>0.000000</speed>
      </trkpt>
      <trkpt lat="46.014052809" lon="7.208697660">
        <ele>2472.200000</ele>
        <time>2015-08-05T13:34:40Z</time>
        <speed>0.000000</speed>
      </trkpt>
      <trkpt lat="46.014052809" lon="7.208697660">
        <ele>2471.800000</ele>
        <time>2015-08-05T13:34:43Z</time>
        <speed>0.000000</speed>
      </trkpt>
      <trkpt lat="46.014052809" lon="7.208697660">
        <ele>2471.400000</ele>
        <time>2015-08-05T13:34:44Z</time>
        <speed>0.000000</speed>
      </trkpt>
      <trkpt lat="46.014052809" lon="7.208697660">
        <ele>2471.000000</ele>
        <time>2015-08-05T13:34:45Z</time>
        <speed>0.000000</speed>
      </trkpt>
      <trkpt lat="46.014052809" lon="7.208697660">
        <ele>2471.200000</ele>
        <time>2015-08-05T13:34:46Z</time>
        <speed>0.000000</speed>
      </trkpt>
      <trkpt lat="46.014052809" lon="7.208697660">
        <ele>2471.600000</ele>
        <time>2015-08-05T13:34:47Z</time>
        <speed>0.000000</speed>
      </trkpt>
      <trkpt lat="46.014052809" lon="7.208697660">
        <ele>2471.800000</ele>
        <time>2015-08-05T13:34:48Z</time>
        <speed>0.000000</speed>
      </trkpt>
      <trkpt lat="46.014052809" lon="7.208697660">
        <ele>2472.400000</ele>
        <time>2015-08-05T13:34:49Z</time>
        <speed>0.000000</speed>
      </trkpt>
      <trkpt lat="46.014052809" lon="7.208697660">
        <ele>2472.400000</ele>
        <time>2015-08-05T13:35:03Z</time>
        <speed>0.000000</speed>
      </trkpt>
      <trkpt lat="46.014052306" lon="7.208697408">
        <ele>2472.400000</ele>
        <time>2015-08-05T13:35:16Z</time>
        <speed>0.000000</speed>
      </trkpt>
      <trkpt lat="46.014052306" lon="7.208697408">
        <ele>2472.400000</ele>
        <time>2015-08-05T13:35:23Z</time>
        <speed>0.000000</speed>
      </trkpt>
      <trkpt lat="46.014052306" lon="7.208697408">
        <ele>2472.400000</ele>
        <time>2015-08-05T13:35:36Z</time>
        <speed>0.000000</speed>
      </trkpt>
      <trkpt lat="46.014052055" lon="7.208697157">
        <ele>2472.400000</ele>
        <time>2015-08-05T13:35:39Z</time>
        <speed>1.221000</speed>
      </trkpt>
      <trkpt lat="46.014047612" lon="7.208691792">
        <ele>2472.400000</ele>
        <time>2015-08-05T13:35:41Z</time>
        <speed>0.000000</speed>
      </trkpt>
      <trkpt lat="46.014047612" lon="7.208691792">
        <ele>2472.400000</ele>
        <time>2015-08-05T13:35:45Z</time>
        <speed>0.000000</speed>
      </trkpt>
      <trkpt lat="46.014047612" lon="7.208691792">
        <ele>2472.400000</ele>
        <time>2015-08-05T13:35:53Z</time>
        <speed>0.000000</speed>
      </trkpt>
      <trkpt lat="46.014047612" lon="7.208691792">
        <ele>2472.400000</ele>
        <time>2015-08-05T13:35:58Z</time>
        <speed>0.000000</speed>
      </trkpt>
      <trkpt lat="46.014047612" lon="7.208691792">
        <ele>2472.400000</ele>
        <time>2015-08-05T13:36:05Z</time>
        <speed>0.000000</speed>
      </trkpt>
      <trkpt lat="46.014047612" lon="7.208691792">
        <ele>2472.400000</ele>
        <time>2015-08-05T13:36:13Z</time>
        <speed>0.000000</speed>
      </trkpt>
      <trkpt lat="46.014046858" lon="7.208692295">
        <ele>2472.400000</ele>
        <time>2015-08-05T13:36:24Z</time>
        <speed>0.000000</speed>
      </trkpt>
      <trkpt lat="46.014046858" lon="7.208692295">
        <ele>2472.400000</ele>
        <time>2015-08-05T13:36:30Z</time>
        <speed>0.000000</speed>
      </trkpt>
      <trkpt lat="46.014046858" lon="7.208692295">
        <ele>2472.400000</ele>
        <time>2015-08-05T13:36:31Z</time>
        <speed>0.000000</speed>
      </trkpt>
      <trkpt lat="46.014046858" lon="7.208692295">
        <ele>2472.400000</ele>
        <time>2015-08-05T13:36:34Z</time>
        <speed>0.000000</speed>
      </trkpt>
      <trkpt lat="46.014046858" lon="7.208692295">
        <ele>2472.400000</ele>
        <time>2015-08-05T13:36:35Z</time>
        <speed>0.000000</speed>
      </trkpt>
      <trkpt lat="46.014046858" lon="7.208692295">
        <ele>2472.400000</ele>
        <time>2015-08-05T13:36:36Z</time>
        <speed>0.000000</speed>
      </trkpt>
      <trkpt lat="46.014046858" lon="7.208692295">
        <ele>2472.400000</ele>
        <time>2015-08-05T13:36:42Z</time>
        <speed>0.000000</speed>
      </trkpt>
      <trkpt lat="46.014046858" lon="7.208692295">
        <ele>2472.400000</ele>
        <time>2015-08-05T13:36:44Z</time>
        <speed>0.000000</speed>
      </trkpt>
      <trkpt lat="46.014046858" lon="7.208692295">
        <ele>2472.400000</ele>
        <time>2015-08-05T13:36:45Z</time>
        <speed>0.000000</speed>
      </trkpt>
      <trkpt lat="46.014046858" lon="7.208692295">
        <ele>2472.400000</ele>
        <time>2015-08-05T13:36:50Z</time>
        <speed>0.000000</speed>
      </trkpt>
      <trkpt lat="46.014046858" lon="7.208692295">
        <ele>2472.400000</ele>
        <time>2015-08-05T13:36:53Z</time>
        <speed>0.000000</speed>
      </trkpt>
      <trkpt lat="46.014046858" lon="7.208692295">
        <ele>2472.400000</ele>
        <time>2015-08-05T13:36:59Z</time>
        <speed>0.000000</speed>
      </trkpt>
      <trkpt lat="46.014046690" lon="7.208692127">
        <ele>2472.400000</ele>
        <time>2015-08-05T13:37:00Z</time>
        <speed>0.000000</speed>
      </trkpt>
      <trkpt lat="46.014046690" lon="7.208692127">
        <ele>2472.400000</ele>
        <time>2015-08-05T13:37:04Z</time>
        <speed>0.000000</speed>
      </trkpt>
      <trkpt lat="46.014046690" lon="7.208692127">
        <ele>2472.400000</ele>
        <time>2015-08-05T13:37:13Z</time>
        <speed>0.000000</speed>
      </trkpt>
      <trkpt lat="46.014046690" lon="7.208692127">
        <ele>2472.400000</ele>
        <time>2015-08-05T13:37:27Z</time>
        <speed>0.000000</speed>
      </trkpt>
      <trkpt lat="46.014046690" lon="7.208692127">
        <ele>2472.400000</ele>
        <time>2015-08-05T13:37:29Z</time>
        <speed>0.000000</speed>
      </trkpt>
      <trkpt lat="46.014046690" lon="7.208692127">
        <ele>2472.400000</ele>
        <time>2015-08-05T13:37:39Z</time>
        <speed>0.000000</speed>
      </trkpt>
      <trkpt lat="46.014046188" lon="7.208692044">
        <ele>2472.400000</ele>
        <time>2015-08-05T13:37:40Z</time>
        <speed>0.000000</speed>
      </trkpt>
      <trkpt lat="46.014046188" lon="7.208692044">
        <ele>2472.400000</ele>
        <time>2015-08-05T13:37:41Z</time>
        <speed>0.000000</speed>
      </trkpt>
      <trkpt lat="46.014046188" lon="7.208692044">
        <ele>2472.400000</ele>
        <time>2015-08-05T13:37:53Z</time>
        <speed>0.000000</speed>
      </trkpt>
      <trkpt lat="46.014046188" lon="7.208692044">
        <ele>2472.400000</ele>
        <time>2015-08-05T13:37:54Z</time>
        <speed>0.000000</speed>
      </trkpt>
      <trkpt lat="46.014046188" lon="7.208692044">
        <ele>2472.400000</ele>
        <time>2015-08-05T13:38:08Z</time>
        <speed>0.000000</speed>
      </trkpt>
      <trkpt lat="46.014046188" lon="7.208692044">
        <ele>2472.400000</ele>
        <time>2015-08-05T13:38:14Z</time>
        <speed>0.000000</speed>
      </trkpt>
      <trkpt lat="46.014046607" lon="7.208690535">
        <ele>2472.400000</ele>
        <time>2015-08-05T13:38:21Z</time>
        <speed>0.000000</speed>
      </trkpt>
      <trkpt lat="46.014046607" lon="7.208690535">
        <ele>2472.400000</ele>
        <time>2015-08-05T13:38:22Z</time>
        <speed>0.000000</speed>
      </trkpt>
      <trkpt lat="46.014046607" lon="7.208690535">
        <ele>2472.400000</ele>
        <time>2015-08-05T13:38:29Z</time>
        <speed>0.000000</speed>
      </trkpt>
      <trkpt lat="46.014046607" lon="7.208690535">
        <ele>2472.400000</ele>
        <time>2015-08-05T13:38:36Z</time>
        <speed>0.000000</speed>
      </trkpt>
      <trkpt lat="46.014046607" lon="7.208690535">
        <ele>2472.400000</ele>
        <time>2015-08-05T13:38:38Z</time>
        <speed>0.000000</speed>
      </trkpt>
      <trkpt lat="46.014046607" lon="7.208690535">
        <ele>2472.400000</ele>
        <time>2015-08-05T13:38:41Z</time>
        <speed>0.000000</speed>
      </trkpt>
      <trkpt lat="46.014046607" lon="7.208690535">
        <ele>2472.400000</ele>
        <time>2015-08-05T13:38:53Z</time>
        <speed>0.000000</speed>
      </trkpt>
      <trkpt lat="46.014047612" lon="7.208689445">
        <ele>2472.400000</ele>
        <time>2015-08-05T13:39:07Z</time>
        <speed>0.000000</speed>
      </trkpt>
      <trkpt lat="46.014047612" lon="7.208689445">
        <ele>2472.400000</ele>
        <time>2015-08-05T13:39:19Z</time>
        <speed>0.000000</speed>
      </trkpt>
      <trkpt lat="46.014047612" lon="7.208689445">
        <ele>2472.400000</ele>
        <time>2015-08-05T13:39:26Z</time>
        <speed>0.000000</speed>
      </trkpt>
      <trkpt lat="46.014047612" lon="7.208689445">
        <ele>2472.400000</ele>
        <time>2015-08-05T13:39:37Z</time>
        <speed>0.000000</speed>
      </trkpt>
      <trkpt lat="46.014049037" lon="7.208685338">
        <ele>2472.400000</ele>
        <time>2015-08-05T13:39:43Z</time>
        <speed>0.000000</speed>
      </trkpt>
      <trkpt lat="46.014049037" lon="7.208685338">
        <ele>2472.400000</ele>
        <time>2015-08-05T13:39:55Z</time>
        <speed>0.000000</speed>
      </trkpt>
      <trkpt lat="46.014049037" lon="7.208685338">
        <ele>2472.400000</ele>
        <time>2015-08-05T13:39:57Z</time>
        <speed>0.000000</speed>
      </trkpt>
      <trkpt lat="46.014049037" lon="7.208685338">
        <ele>2472.400000</ele>
        <time>2015-08-05T13:40:00Z</time>
        <speed>0.000000</speed>
      </trkpt>
      <trkpt lat="46.014049037" lon="7.208685338">
        <ele>2472.400000</ele>
        <time>2015-08-05T13:40:12Z</time>
        <speed>0.000000</speed>
      </trkpt>
      <trkpt lat="46.014049037" lon="7.208685338">
        <ele>2472.400000</ele>
        <time>2015-08-05T13:40:16Z</time>
        <speed>0.000000</speed>
      </trkpt>
      <trkpt lat="46.014048618" lon="7.208684500">
        <ele>2472.400000</ele>
        <time>2015-08-05T13:40:21Z</time>
        <speed>0.000000</speed>
      </trkpt>
      <trkpt lat="46.014048618" lon="7.208684500">
        <ele>2472.400000</ele>
        <time>2015-08-05T13:40:28Z</time>
        <speed>0.000000</speed>
      </trkpt>
      <trkpt lat="46.014048618" lon="7.208684500">
        <ele>2472.400000</ele>
        <time>2015-08-05T13:40:32Z</time>
        <speed>0.000000</speed>
      </trkpt>
      <trkpt lat="46.014048618" lon="7.208684500">
        <ele>2472.400000</ele>
        <time>2015-08-05T13:40:43Z</time>
        <speed>0.000000</speed>
      </trkpt>
      <trkpt lat="46.014048618" lon="7.208684500">
        <ele>2472.400000</ele>
        <time>2015-08-05T13:40:57Z</time>
        <speed>0.000000</speed>
      </trkpt>
      <trkpt lat="46.014048115" lon="7.208682740">
        <ele>2472.400000</ele>
        <time>2015-08-05T13:41:13Z</time>
        <speed>0.000000</speed>
      </trkpt>
      <trkpt lat="46.014048115" lon="7.208682740">
        <ele>2472.400000</ele>
        <time>2015-08-05T13:41:28Z</time>
        <speed>0.000000</speed>
      </trkpt>
      <trkpt lat="46.014048115" lon="7.208682740">
        <ele>2472.400000</ele>
        <time>2015-08-05T13:41:37Z</time>
        <speed>0.000000</speed>
      </trkpt>
      <trkpt lat="46.014048115" lon="7.208682740">
        <ele>2472.400000</ele>
        <time>2015-08-05T13:41:39Z</time>
        <speed>0.000000</speed>
      </trkpt>
      <trkpt lat="46.014049540" lon="7.208682069">
        <ele>2472.400000</ele>
        <time>2015-08-05T13:41:53Z</time>
        <speed>0.000000</speed>
      </trkpt>
      <trkpt lat="46.014049540" lon="7.208682069">
        <ele>2472.400000</ele>
        <time>2015-08-05T13:42:05Z</time>
        <speed>0.000000</speed>
      </trkpt>
      <trkpt lat="46.014049540" lon="7.208682069">
        <ele>2472.400000</ele>
        <time>2015-08-05T13:42:16Z</time>
        <speed>0.000000</speed>
      </trkpt>
      <trkpt lat="46.014044846" lon="7.208685506">
        <ele>2472.400000</ele>
        <time>2015-08-05T13:42:22Z</time>
        <speed>0.000000</speed>
      </trkpt>
      <trkpt lat="46.014044846" lon="7.208685506">
        <ele>2472.400000</ele>
        <time>2015-08-05T13:42:27Z</time>
        <speed>0.000000</speed>
      </trkpt>
      <trkpt lat="46.014044846" lon="7.208685506">
        <ele>2471.600000</ele>
        <time>2015-08-05T13:42:28Z</time>
        <speed>0.000000</speed>
      </trkpt>
      <trkpt lat="46.014046523" lon="7.208680477">
        <ele>2471.800000</ele>
        <time>2015-08-05T13:42:29Z</time>
        <speed>0.599000</speed>
      </trkpt>
      <trkpt lat="46.014048451" lon="7.208671424">
        <ele>2472.000000</ele>
        <time>2015-08-05T13:42:30Z</time>
        <speed>0.657000</speed>
      </trkpt>
      <trkpt lat="46.014050546" lon="7.208661534">
        <ele>2473.000000</ele>
        <time>2015-08-05T13:42:31Z</time>
        <speed>0.802000</speed>
      </trkpt>
      <trkpt lat="46.014050378" lon="7.208650469">
        <ele>2473.200000</ele>
        <time>2015-08-05T13:42:32Z</time>
        <speed>1.056000</speed>
      </trkpt>
      <trkpt lat="46.014050211" lon="7.208639657">
        <ele>2473.200000</ele>
        <time>2015-08-05T13:42:33Z</time>
        <speed>0.707000</speed>
      </trkpt>
      <trkpt lat="46.014049624" lon="7.208632532">
        <ele>2473.400000</ele>
        <time>2015-08-05T13:42:34Z</time>
        <speed>0.466000</speed>
      </trkpt>
      <trkpt lat="46.014052809" lon="7.208632113">
        <ele>2473.400000</ele>
        <time>2015-08-05T13:42:35Z</time>
        <speed>0.000000</speed>
      </trkpt>
      <trkpt lat="46.014053144" lon="7.208634125">
        <ele>2473.600000</ele>
        <time>2015-08-05T13:42:36Z</time>
        <speed>0.000000</speed>
      </trkpt>
      <trkpt lat="46.014061191" lon="7.208640914">
        <ele>2473.600000</ele>
        <time>2015-08-05T13:42:43Z</time>
        <speed>0.000000</speed>
      </trkpt>
      <trkpt lat="46.014059682" lon="7.208629431">
        <ele>2473.200000</ele>
        <time>2015-08-05T13:42:46Z</time>
        <speed>0.000000</speed>
      </trkpt>
      <trkpt lat="46.014059682" lon="7.208629431">
        <ele>2472.600000</ele>
        <time>2015-08-05T13:42:47Z</time>
        <speed>0.000000</speed>
      </trkpt>
      <trkpt lat="46.014059682" lon="7.208629431">
        <ele>2472.200000</ele>
        <time>2015-08-05T13:42:48Z</time>
        <speed>0.000000</speed>
      </trkpt>
      <trkpt lat="46.014059682" lon="7.208629431">
        <ele>2472.800000</ele>
        <time>2015-08-05T13:42:49Z</time>
        <speed>0.000000</speed>
      </trkpt>
      <trkpt lat="46.014059682" lon="7.208629431">
        <ele>2473.200000</ele>
        <time>2015-08-05T13:42:50Z</time>
        <speed>0.000000</speed>
      </trkpt>
      <trkpt lat="46.014059682" lon="7.208629431">
        <ele>2473.800000</ele>
        <time>2015-08-05T13:42:51Z</time>
        <speed>0.000000</speed>
      </trkpt>
      <trkpt lat="46.014059682" lon="7.208629431">
        <ele>2474.400000</ele>
        <time>2015-08-05T13:42:52Z</time>
        <speed>0.000000</speed>
      </trkpt>
      <trkpt lat="46.014059682" lon="7.208629431">
        <ele>2474.800000</ele>
        <time>2015-08-05T13:42:53Z</time>
        <speed>0.000000</speed>
      </trkpt>
      <trkpt lat="46.014059682" lon="7.208629431">
        <ele>2474.800000</ele>
        <time>2015-08-05T13:42:57Z</time>
        <speed>0.000000</speed>
      </trkpt>
      <trkpt lat="46.014059682" lon="7.208629431">
        <ele>2474.800000</ele>
        <time>2015-08-05T13:43:05Z</time>
        <speed>0.000000</speed>
      </trkpt>
      <trkpt lat="46.014059682" lon="7.208629431">
        <ele>2474.800000</ele>
        <time>2015-08-05T13:43:10Z</time>
        <speed>0.000000</speed>
      </trkpt>
      <trkpt lat="46.014059682" lon="7.208629431">
        <ele>2474.800000</ele>
        <time>2015-08-05T13:43:21Z</time>
        <speed>0.000000</speed>
      </trkpt>
      <trkpt lat="46.014059682" lon="7.208629431">
        <ele>2474.800000</ele>
        <time>2015-08-05T13:43:25Z</time>
        <speed>0.000000</speed>
      </trkpt>
      <trkpt lat="46.014059263" lon="7.208629598">
        <ele>2474.800000</ele>
        <time>2015-08-05T13:43:35Z</time>
        <speed>0.000000</speed>
      </trkpt>
      <trkpt lat="46.014064544" lon="7.208612164">
        <ele>2474.800000</ele>
        <time>2015-08-05T13:43:42Z</time>
        <speed>0.987000</speed>
      </trkpt>
      <trkpt lat="46.014069154" lon="7.208556173">
        <ele>2474.800000</ele>
        <time>2015-08-05T13:43:47Z</time>
        <speed>0.850000</speed>
      </trkpt>
      <trkpt lat="46.014071417" lon="7.208532955">
        <ele>2474.800000</ele>
        <time>2015-08-05T13:43:48Z</time>
        <speed>0.850000</speed>
      </trkpt>
      <trkpt lat="46.014072004" lon="7.208524489">
        <ele>2474.800000</ele>
        <time>2015-08-05T13:43:49Z</time>
        <speed>1.055000</speed>
      </trkpt>
      <trkpt lat="46.014072339" lon="7.208524657">
        <ele>2474.800000</ele>
        <time>2015-08-05T13:43:52Z</time>
        <speed>0.000000</speed>
      </trkpt>
      <trkpt lat="46.014072339" lon="7.208524657">
        <ele>2474.800000</ele>
        <time>2015-08-05T13:43:55Z</time>
        <speed>0.000000</speed>
      </trkpt>
      <trkpt lat="46.014072339" lon="7.208524657">
        <ele>2474.800000</ele>
        <time>2015-08-05T13:44:01Z</time>
        <speed>0.000000</speed>
      </trkpt>
      <trkpt lat="46.014072339" lon="7.208524657">
        <ele>2474.800000</ele>
        <time>2015-08-05T13:44:09Z</time>
        <speed>0.000000</speed>
      </trkpt>
      <trkpt lat="46.014083990" lon="7.208467409">
        <ele>2474.800000</ele>
        <time>2015-08-05T13:44:12Z</time>
        <speed>1.341000</speed>
      </trkpt>
      <trkpt lat="46.014091785" lon="7.208463888">
        <ele>2474.800000</ele>
        <time>2015-08-05T13:44:14Z</time>
        <speed>1.411000</speed>
      </trkpt>
      <trkpt lat="46.014084409" lon="7.208469588">
        <ele>2474.800000</ele>
        <time>2015-08-05T13:44:18Z</time>
        <speed>0.000000</speed>
      </trkpt>
      <trkpt lat="46.014094886" lon="7.208488028">
        <ele>2474.800000</ele>
        <time>2015-08-05T13:44:21Z</time>
        <speed>0.000000</speed>
      </trkpt>
      <trkpt lat="46.014096060" lon="7.208491632">
        <ele>2474.800000</ele>
        <time>2015-08-05T13:44:22Z</time>
        <speed>10.302000</speed>
      </trkpt>
      <trkpt lat="46.014096227" lon="7.208512587">
        <ele>2474.400000</ele>
        <time>2015-08-05T13:44:23Z</time>
        <speed>0.000000</speed>
      </trkpt>
      <trkpt lat="46.014095725" lon="7.208537481">
        <ele>2473.600000</ele>
        <time>2015-08-05T13:44:24Z</time>
        <speed>0.000000</speed>
      </trkpt>
      <trkpt lat="46.014095557" lon="7.208566315">
        <ele>2473.200000</ele>
        <time>2015-08-05T13:44:25Z</time>
        <speed>2.157000</speed>
      </trkpt>
      <trkpt lat="46.014098239" lon="7.208590539">
        <ele>2472.600000</ele>
        <time>2015-08-05T13:44:26Z</time>
        <speed>1.536000</speed>
      </trkpt>
      <trkpt lat="46.014097317" lon="7.208615433">
        <ele>2472.600000</ele>
        <time>2015-08-05T13:44:27Z</time>
        <speed>1.703000</speed>
      </trkpt>
      <trkpt lat="46.014113997" lon="7.208760691">
        <ele>2472.200000</ele>
        <time>2015-08-05T13:44:31Z</time>
        <speed>1.908000</speed>
      </trkpt>
      <trkpt lat="46.014117098" lon="7.208796147">
        <ele>2471.800000</ele>
        <time>2015-08-05T13:44:32Z</time>
        <speed>3.267000</speed>
      </trkpt>
      <trkpt lat="46.014124894" lon="7.208830261">
        <ele>2471.200000</ele>
        <time>2015-08-05T13:44:33Z</time>
        <speed>2.916000</speed>
      </trkpt>
      <trkpt lat="46.014133778" lon="7.208863873">
        <ele>2470.800000</ele>
        <time>2015-08-05T13:44:34Z</time>
        <speed>2.617000</speed>
      </trkpt>
      <trkpt lat="46.014140903" lon="7.208890359">
        <ele>2470.400000</ele>
        <time>2015-08-05T13:44:35Z</time>
        <speed>2.745000</speed>
      </trkpt>
      <trkpt lat="46.014143166" lon="7.208898574">
        <ele>2470.400000</ele>
        <time>2015-08-05T13:44:36Z</time>
        <speed>2.308000</speed>
      </trkpt>
      <trkpt lat="46.014143753" lon="7.208897819">
        <ele>2470.400000</ele>
        <time>2015-08-05T13:44:37Z</time>
        <speed>2.308000</speed>
      </trkpt>
      <trkpt lat="46.014146435" lon="7.208930174">
        <ele>2470.000000</ele>
        <time>2015-08-05T13:44:41Z</time>
        <speed>0.000000</speed>
      </trkpt>
      <trkpt lat="46.014145597" lon="7.208943752">
        <ele>2469.600000</ele>
        <time>2015-08-05T13:44:42Z</time>
        <speed>0.000000</speed>
      </trkpt>
      <trkpt lat="46.014143082" lon="7.208950039">
        <ele>2469.200000</ele>
        <time>2015-08-05T13:44:43Z</time>
        <speed>0.718000</speed>
      </trkpt>
      <trkpt lat="46.014142579" lon="7.208957499">
        <ele>2468.800000</ele>
        <time>2015-08-05T13:44:44Z</time>
        <speed>0.718000</speed>
      </trkpt>
      <trkpt lat="46.014139646" lon="7.208970490">
        <ele>2468.400000</ele>
        <time>2015-08-05T13:44:45Z</time>
        <speed>0.718000</speed>
      </trkpt>
      <trkpt lat="46.014124391" lon="7.208984488">
        <ele>2468.400000</ele>
        <time>2015-08-05T13:44:49Z</time>
        <speed>0.000000</speed>
      </trkpt>
      <trkpt lat="46.014122966" lon="7.208984824">
        <ele>2468.400000</ele>
        <time>2015-08-05T13:44:50Z</time>
        <speed>2.222000</speed>
      </trkpt>
      <trkpt lat="46.014117937" lon="7.208983818">
        <ele>2468.400000</ele>
        <time>2015-08-05T13:44:51Z</time>
        <speed>2.222000</speed>
      </trkpt>
      <trkpt lat="46.014117769" lon="7.208983818">
        <ele>2468.400000</ele>
        <time>2015-08-05T13:44:53Z</time>
        <speed>0.000000</speed>
      </trkpt>
      <trkpt lat="46.014117434" lon="7.208988344">
        <ele>2468.400000</ele>
        <time>2015-08-05T13:44:58Z</time>
        <speed>0.000000</speed>
      </trkpt>
      <trkpt lat="46.014117434" lon="7.208988344">
        <ele>2468.400000</ele>
        <time>2015-08-05T13:45:12Z</time>
        <speed>0.000000</speed>
      </trkpt>
      <trkpt lat="46.014117434" lon="7.208988344">
        <ele>2468.400000</ele>
        <time>2015-08-05T13:45:22Z</time>
        <speed>0.000000</speed>
      </trkpt>
      <trkpt lat="46.014117434" lon="7.208988344">
        <ele>2468.400000</ele>
        <time>2015-08-05T13:45:24Z</time>
        <speed>0.000000</speed>
      </trkpt>
      <trkpt lat="46.014117937" lon="7.209004018">
        <ele>2468.400000</ele>
        <time>2015-08-05T13:45:28Z</time>
        <speed>0.000000</speed>
      </trkpt>
      <trkpt lat="46.014117434" lon="7.209035283">
        <ele>2468.400000</ele>
        <time>2015-08-05T13:45:29Z</time>
        <speed>2.637000</speed>
      </trkpt>
      <trkpt lat="46.014111734" lon="7.209103679">
        <ele>2468.000000</ele>
        <time>2015-08-05T13:45:31Z</time>
        <speed>1.989000</speed>
      </trkpt>
      <trkpt lat="46.014106621" lon="7.209134860">
        <ele>2467.600000</ele>
        <time>2015-08-05T13:45:32Z</time>
        <speed>2.320000</speed>
      </trkpt>
      <trkpt lat="46.014100670" lon="7.209152629">
        <ele>2467.000000</ele>
        <time>2015-08-05T13:45:33Z</time>
        <speed>2.656000</speed>
      </trkpt>
      <trkpt lat="46.014096060" lon="7.209172494">
        <ele>2466.600000</ele>
        <time>2015-08-05T13:45:34Z</time>
        <speed>2.100000</speed>
      </trkpt>
      <trkpt lat="46.014089522" lon="7.209193365">
        <ele>2466.200000</ele>
        <time>2015-08-05T13:45:35Z</time>
        <speed>1.775000</speed>
      </trkpt>
      <trkpt lat="46.014075105" lon="7.209209291">
        <ele>2466.200000</ele>
        <time>2015-08-05T13:45:37Z</time>
        <speed>1.466000</speed>
      </trkpt>
      <trkpt lat="46.014075357" lon="7.209219349">
        <ele>2466.200000</ele>
        <time>2015-08-05T13:45:42Z</time>
        <speed>0.000000</speed>
      </trkpt>
      <trkpt lat="46.014075357" lon="7.209219349">
        <ele>2466.200000</ele>
        <time>2015-08-05T13:45:56Z</time>
        <speed>0.000000</speed>
      </trkpt>
      <trkpt lat="46.014075357" lon="7.209219349">
        <ele>2466.200000</ele>
        <time>2015-08-05T13:46:04Z</time>
        <speed>0.000000</speed>
      </trkpt>
      <trkpt lat="46.014075357" lon="7.209219349">
        <ele>2466.200000</ele>
        <time>2015-08-05T13:46:09Z</time>
        <speed>0.000000</speed>
      </trkpt>
      <trkpt lat="46.014075357" lon="7.209219349">
        <ele>2466.200000</ele>
        <time>2015-08-05T13:46:18Z</time>
        <speed>0.000000</speed>
      </trkpt>
      <trkpt lat="46.014072926" lon="7.209221948">
        <ele>2466.200000</ele>
        <time>2015-08-05T13:46:20Z</time>
        <speed>0.000000</speed>
      </trkpt>
      <trkpt lat="46.014072926" lon="7.209221948">
        <ele>2466.200000</ele>
        <time>2015-08-05T13:46:21Z</time>
        <speed>0.000000</speed>
      </trkpt>
      <trkpt lat="46.014072926" lon="7.209221948">
        <ele>2466.200000</ele>
        <time>2015-08-05T13:46:25Z</time>
        <speed>0.000000</speed>
      </trkpt>
      <trkpt lat="46.014072926" lon="7.209221948">
        <ele>2466.200000</ele>
        <time>2015-08-05T13:46:36Z</time>
        <speed>0.000000</speed>
      </trkpt>
      <trkpt lat="46.014072926" lon="7.209221948">
        <ele>2466.200000</ele>
        <time>2015-08-05T13:46:41Z</time>
        <speed>0.000000</speed>
      </trkpt>
      <trkpt lat="46.014072926" lon="7.209221948">
        <ele>2466.200000</ele>
        <time>2015-08-05T13:46:50Z</time>
        <speed>0.000000</speed>
      </trkpt>
      <trkpt lat="46.014067897" lon="7.209219768">
        <ele>2466.200000</ele>
        <time>2015-08-05T13:47:04Z</time>
        <speed>0.000000</speed>
      </trkpt>
      <trkpt lat="46.014067897" lon="7.209219768">
        <ele>2466.200000</ele>
        <time>2015-08-05T13:47:07Z</time>
        <speed>0.000000</speed>
      </trkpt>
      <trkpt lat="46.014073429" lon="7.209221277">
        <ele>2466.200000</ele>
        <time>2015-08-05T13:47:18Z</time>
        <speed>0.000000</speed>
      </trkpt>
      <trkpt lat="46.014077703" lon="7.209221948">
        <ele>2466.200000</ele>
        <time>2015-08-05T13:47:22Z</time>
        <speed>0.000000</speed>
      </trkpt>
      <trkpt lat="46.014076279" lon="7.209240974">
        <ele>2466.200000</ele>
        <time>2015-08-05T13:47:24Z</time>
        <speed>2.201000</speed>
      </trkpt>
      <trkpt lat="46.014078206" lon="7.209258828">
        <ele>2466.200000</ele>
        <time>2015-08-05T13:47:25Z</time>
        <speed>2.201000</speed>
      </trkpt>
      <trkpt lat="46.014084325" lon="7.209283135">
        <ele>2465.800000</ele>
        <time>2015-08-05T13:47:26Z</time>
        <speed>1.185000</speed>
      </trkpt>
      <trkpt lat="46.014090695" lon="7.209303503">
        <ele>2465.400000</ele>
        <time>2015-08-05T13:47:27Z</time>
        <speed>0.000000</speed>
      </trkpt>
      <trkpt lat="46.014092791" lon="7.209345245">
        <ele>2465.000000</ele>
        <time>2015-08-05T13:47:28Z</time>
        <speed>1.374000</speed>
      </trkpt>
      <trkpt lat="46.014088684" lon="7.209378857">
        <ele>2464.600000</ele>
        <time>2015-08-05T13:47:29Z</time>
        <speed>0.000000</speed>
      </trkpt>
      <trkpt lat="46.014093042" lon="7.209427639">
        <ele>2464.200000</ele>
        <time>2015-08-05T13:47:30Z</time>
        <speed>3.161000</speed>
      </trkpt>
      <trkpt lat="46.014100670" lon="7.209465442">
        <ele>2463.800000</ele>
        <time>2015-08-05T13:47:31Z</time>
        <speed>2.835000</speed>
      </trkpt>
      <trkpt lat="46.014117182" lon="7.209499724">
        <ele>2463.400000</ele>
        <time>2015-08-05T13:47:32Z</time>
        <speed>3.014000</speed>
      </trkpt>
      <trkpt lat="46.014135539" lon="7.209531156">
        <ele>2462.800000</ele>
        <time>2015-08-05T13:47:33Z</time>
        <speed>2.993000</speed>
      </trkpt>
      <trkpt lat="46.014147441" lon="7.209553117">
        <ele>2462.400000</ele>
        <time>2015-08-05T13:47:34Z</time>
        <speed>3.272000</speed>
      </trkpt>
      <trkpt lat="46.014157751" lon="7.209579687">
        <ele>2462.000000</ele>
        <time>2015-08-05T13:47:35Z</time>
        <speed>3.272000</speed>
      </trkpt>
      <trkpt lat="46.014187758" lon="7.209626793">
        <ele>2462.000000</ele>
        <time>2015-08-05T13:47:37Z</time>
        <speed>2.110000</speed>
      </trkpt>
      <trkpt lat="46.014199660" lon="7.209655543">
        <ele>2462.000000</ele>
        <time>2015-08-05T13:47:38Z</time>
        <speed>2.199000</speed>
      </trkpt>
      <trkpt lat="46.014202594" lon="7.209680857">
        <ele>2461.400000</ele>
        <time>2015-08-05T13:47:39Z</time>
        <speed>2.464000</speed>
      </trkpt>
      <trkpt lat="46.014208294" lon="7.209709020">
        <ele>2461.000000</ele>
        <time>2015-08-05T13:47:40Z</time>
        <speed>2.481000</speed>
      </trkpt>
      <trkpt lat="46.014207958" lon="7.209734417">
        <ele>2460.000000</ele>
        <time>2015-08-05T13:47:41Z</time>
        <speed>2.496000</speed>
      </trkpt>
      <trkpt lat="46.014202426" lon="7.209765011">
        <ele>2459.600000</ele>
        <time>2015-08-05T13:47:42Z</time>
        <speed>2.561000</speed>
      </trkpt>
      <trkpt lat="46.014202594" lon="7.209795270">
        <ele>2459.600000</ele>
        <time>2015-08-05T13:47:43Z</time>
        <speed>2.762000</speed>
      </trkpt>
      <trkpt lat="46.014229332" lon="7.209858469">
        <ele>2459.000000</ele>
        <time>2015-08-05T13:47:45Z</time>
        <speed>2.696000</speed>
      </trkpt>
      <trkpt lat="46.014244839" lon="7.209878586">
        <ele>2458.600000</ele>
        <time>2015-08-05T13:47:46Z</time>
        <speed>2.262000</speed>
      </trkpt>
      <trkpt lat="46.014257663" lon="7.209891326">
        <ele>2458.200000</ele>
        <time>2015-08-05T13:47:47Z</time>
        <speed>2.262000</speed>
      </trkpt>
      <trkpt lat="46.014261183" lon="7.209896607">
        <ele>2457.800000</ele>
        <time>2015-08-05T13:47:48Z</time>
        <speed>2.382000</speed>
      </trkpt>
      <trkpt lat="46.014260764" lon="7.209896775">
        <ele>2457.200000</ele>
        <time>2015-08-05T13:47:49Z</time>
        <speed>2.382000</speed>
      </trkpt>
      <trkpt lat="46.014260848" lon="7.209896691">
        <ele>2457.200000</ele>
        <time>2015-08-05T13:47:50Z</time>
        <speed>2.382000</speed>
      </trkpt>
      <trkpt lat="46.014261100" lon="7.209896942">
        <ele>2457.200000</ele>
        <time>2015-08-05T13:47:53Z</time>
        <speed>65.435997</speed>
      </trkpt>
      <trkpt lat="46.014263866" lon="7.209898619">
        <ele>2457.200000</ele>
        <time>2015-08-05T13:47:57Z</time>
        <speed>0.000000</speed>
      </trkpt>
      <trkpt lat="46.014263698" lon="7.209898535">
        <ele>2457.200000</ele>
        <time>2015-08-05T13:48:00Z</time>
        <speed>1.873000</speed>
      </trkpt>
      <trkpt lat="46.014264201" lon="7.209898367">
        <ele>2457.200000</ele>
        <time>2015-08-05T13:48:05Z</time>
        <speed>2.369000</speed>
      </trkpt>
      <trkpt lat="46.014263866" lon="7.209898786">
        <ele>2457.200000</ele>
        <time>2015-08-05T13:48:07Z</time>
        <speed>3.626000</speed>
      </trkpt>
      <trkpt lat="46.014263363" lon="7.209898367">
        <ele>2457.200000</ele>
        <time>2015-08-05T13:48:08Z</time>
        <speed>3.626000</speed>
      </trkpt>
      <trkpt lat="46.014267889" lon="7.209907420">
        <ele>2457.200000</ele>
        <time>2015-08-05T13:48:12Z</time>
        <speed>0.000000</speed>
      </trkpt>
      <trkpt lat="46.014270990" lon="7.209907252">
        <ele>2457.200000</ele>
        <time>2015-08-05T13:48:13Z</time>
        <speed>0.000000</speed>
      </trkpt>
      <trkpt lat="46.014270990" lon="7.209907252">
        <ele>2457.200000</ele>
        <time>2015-08-05T13:48:17Z</time>
        <speed>0.000000</speed>
      </trkpt>
      <trkpt lat="46.014276941" lon="7.209910521">
        <ele>2457.200000</ele>
        <time>2015-08-05T13:48:20Z</time>
        <speed>1.132000</speed>
      </trkpt>
      <trkpt lat="46.014291693" lon="7.209909934">
        <ele>2457.200000</ele>
        <time>2015-08-05T13:48:23Z</time>
        <speed>0.000000</speed>
      </trkpt>
      <trkpt lat="46.014320276" lon="7.209958884">
        <ele>2456.800000</ele>
        <time>2015-08-05T13:48:26Z</time>
        <speed>2.040000</speed>
      </trkpt>
      <trkpt lat="46.014324299" lon="7.209971457">
        <ele>2456.400000</ele>
        <time>2015-08-05T13:48:27Z</time>
        <speed>2.076000</speed>
      </trkpt>
      <trkpt lat="46.014331088" lon="7.209987048">
        <ele>2456.000000</ele>
        <time>2015-08-05T13:48:28Z</time>
        <speed>1.563000</speed>
      </trkpt>
      <trkpt lat="46.014345757" lon="7.210003979">
        <ele>2455.600000</ele>
        <time>2015-08-05T13:48:29Z</time>
        <speed>1.563000</speed>
      </trkpt>
      <trkpt lat="46.014360760" lon="7.210024934">
        <ele>2455.200000</ele>
        <time>2015-08-05T13:48:30Z</time>
        <speed>1.306000</speed>
      </trkpt>
      <trkpt lat="46.014375177" lon="7.210050666">
        <ele>2455.200000</ele>
        <time>2015-08-05T13:48:31Z</time>
        <speed>1.603000</speed>
      </trkpt>
      <trkpt lat="46.014415410" lon="7.210117889">
        <ele>2454.800000</ele>
        <time>2015-08-05T13:48:33Z</time>
        <speed>2.442000</speed>
      </trkpt>
      <trkpt lat="46.014426474" lon="7.210152842">
        <ele>2454.400000</ele>
        <time>2015-08-05T13:48:34Z</time>
        <speed>2.537000</speed>
      </trkpt>
      <trkpt lat="46.014430246" lon="7.210176311">
        <ele>2453.800000</ele>
        <time>2015-08-05T13:48:35Z</time>
        <speed>2.537000</speed>
      </trkpt>
      <trkpt lat="46.014438209" lon="7.210190057">
        <ele>2453.400000</ele>
        <time>2015-08-05T13:48:36Z</time>
        <speed>2.798000</speed>
      </trkpt>
      <trkpt lat="46.014449944" lon="7.210205732">
        <ele>2453.000000</ele>
        <time>2015-08-05T13:48:37Z</time>
        <speed>1.734000</speed>
      </trkpt>
      <trkpt lat="46.014466875" lon="7.210255855">
        <ele>2453.000000</ele>
        <time>2015-08-05T13:48:39Z</time>
        <speed>1.496000</speed>
      </trkpt>
      <trkpt lat="46.014494033" lon="7.210327185">
        <ele>2452.600000</ele>
        <time>2015-08-05T13:48:43Z</time>
        <speed>1.109000</speed>
      </trkpt>
      <trkpt lat="46.014501912" lon="7.210352834">
        <ele>2452.200000</ele>
        <time>2015-08-05T13:48:44Z</time>
        <speed>1.755000</speed>
      </trkpt>
      <trkpt lat="46.014505097" lon="7.210381081">
        <ele>2451.800000</ele>
        <time>2015-08-05T13:48:45Z</time>
        <speed>2.839000</speed>
      </trkpt>
      <trkpt lat="46.014506857" lon="7.210407652">
        <ele>2451.400000</ele>
        <time>2015-08-05T13:48:46Z</time>
        <speed>2.064000</speed>
      </trkpt>
      <trkpt lat="46.014508449" lon="7.210435312">
        <ele>2451.000000</ele>
        <time>2015-08-05T13:48:47Z</time>
        <speed>2.663000</speed>
      </trkpt>
      <trkpt lat="46.014549269" lon="7.210524076">
        <ele>2451.000000</ele>
        <time>2015-08-05T13:48:50Z</time>
        <speed>2.000000</speed>
      </trkpt>
      <trkpt lat="46.014572403" lon="7.210573697">
        <ele>2451.000000</ele>
        <time>2015-08-05T13:48:51Z</time>
        <speed>2.164000</speed>
      </trkpt>
      <trkpt lat="46.014586569" lon="7.210623486">
        <ele>2450.400000</ele>
        <time>2015-08-05T13:48:52Z</time>
        <speed>2.164000</speed>
      </trkpt>
      <trkpt lat="46.014597549" lon="7.210655421">
        <ele>2450.000000</ele>
        <time>2015-08-05T13:48:53Z</time>
        <speed>2.164000</speed>
      </trkpt>
      <trkpt lat="46.014605596" lon="7.210683332">
        <ele>2449.400000</ele>
        <time>2015-08-05T13:48:54Z</time>
        <speed>4.027000</speed>
      </trkpt>
      <trkpt lat="46.014613559" lon="7.210705461">
        <ele>2448.400000</ele>
        <time>2015-08-05T13:48:55Z</time>
        <speed>0.000000</speed>
      </trkpt>
      <trkpt lat="46.014622276" lon="7.210755165">
        <ele>2448.400000</ele>
        <time>2015-08-05T13:48:56Z</time>
        <speed>2.817000</speed>
      </trkpt>
      <trkpt lat="46.014643482" lon="7.210841247">
        <ele>2448.400000</ele>
        <time>2015-08-05T13:48:58Z</time>
        <speed>3.571000</speed>
      </trkpt>
      <trkpt lat="46.014671477" lon="7.210951218">
        <ele>2448.400000</ele>
        <time>2015-08-05T13:49:01Z</time>
        <speed>2.656000</speed>
      </trkpt>
      <trkpt lat="46.014669131" lon="7.210984829">
        <ele>2448.400000</ele>
        <time>2015-08-05T13:49:02Z</time>
        <speed>3.170000</speed>
      </trkpt>
      <trkpt lat="46.014685811" lon="7.211099159">
        <ele>2448.400000</ele>
        <time>2015-08-05T13:49:05Z</time>
        <speed>3.002000</speed>
      </trkpt>
      <trkpt lat="46.014695031" lon="7.211136290">
        <ele>2448.400000</ele>
        <time>2015-08-05T13:49:06Z</time>
        <speed>3.694000</speed>
      </trkpt>
      <trkpt lat="46.014786980" lon="7.211317340">
        <ele>2448.400000</ele>
        <time>2015-08-05T13:49:10Z</time>
        <speed>4.636000</speed>
      </trkpt>
      <trkpt lat="46.014829309" lon="7.211404511">
        <ele>2448.000000</ele>
        <time>2015-08-05T13:49:12Z</time>
        <speed>4.867000</speed>
      </trkpt>
      <trkpt lat="46.014846743" lon="7.211443571">
        <ele>2447.600000</ele>
        <time>2015-08-05T13:49:13Z</time>
        <speed>4.250000</speed>
      </trkpt>
      <trkpt lat="46.014861579" lon="7.211475590">
        <ele>2447.000000</ele>
        <time>2015-08-05T13:49:14Z</time>
        <speed>3.663000</speed>
      </trkpt>
      <trkpt lat="46.014874822" lon="7.211512638">
        <ele>2446.600000</ele>
        <time>2015-08-05T13:49:15Z</time>
        <speed>3.380000</speed>
      </trkpt>
      <trkpt lat="46.014883959" lon="7.211548596">
        <ele>2446.200000</ele>
        <time>2015-08-05T13:49:16Z</time>
        <speed>3.242000</speed>
      </trkpt>
      <trkpt lat="46.014922767" lon="7.211665608">
        <ele>2446.200000</ele>
        <time>2015-08-05T13:49:19Z</time>
        <speed>4.160000</speed>
      </trkpt>
      <trkpt lat="46.014940704" lon="7.211692849">
        <ele>2446.200000</ele>
        <time>2015-08-05T13:49:20Z</time>
        <speed>3.694000</speed>
      </trkpt>
      <trkpt lat="46.014976076" lon="7.211750349">
        <ele>2446.200000</ele>
        <time>2015-08-05T13:49:22Z</time>
        <speed>3.027000</speed>
      </trkpt>
      <trkpt lat="46.014985799" lon="7.211793096">
        <ele>2445.600000</ele>
        <time>2015-08-05T13:49:23Z</time>
        <speed>2.828000</speed>
      </trkpt>
      <trkpt lat="46.014995103" lon="7.211826959">
        <ele>2445.200000</ele>
        <time>2015-08-05T13:49:24Z</time>
        <speed>3.343000</speed>
      </trkpt>
      <trkpt lat="46.015005496" lon="7.211856296">
        <ele>2444.800000</ele>
        <time>2015-08-05T13:49:25Z</time>
        <speed>3.354000</speed>
      </trkpt>
      <trkpt lat="46.015010023" lon="7.211889488">
        <ele>2444.200000</ele>
        <time>2015-08-05T13:49:26Z</time>
        <speed>4.453000</speed>
      </trkpt>
      <trkpt lat="46.015005999" lon="7.211908934">
        <ele>2443.800000</ele>
        <time>2015-08-05T13:49:27Z</time>
        <speed>0.000000</speed>
      </trkpt>
      <trkpt lat="46.015003317" lon="7.211943552">
        <ele>2443.800000</ele>
        <time>2015-08-05T13:49:28Z</time>
        <speed>2.791000</speed>
      </trkpt>
      <trkpt lat="46.015019075" lon="7.212025024">
        <ele>2443.800000</ele>
        <time>2015-08-05T13:49:31Z</time>
        <speed>2.461000</speed>
      </trkpt>
      <trkpt lat="46.015017902" lon="7.212057965">
        <ele>2443.400000</ele>
        <time>2015-08-05T13:49:35Z</time>
        <speed>0.000000</speed>
      </trkpt>
      <trkpt lat="46.015022512" lon="7.212075231">
        <ele>2443.000000</ele>
        <time>2015-08-05T13:49:36Z</time>
        <speed>0.000000</speed>
      </trkpt>
      <trkpt lat="46.015029385" lon="7.212088810">
        <ele>2442.600000</ele>
        <time>2015-08-05T13:49:37Z</time>
        <speed>1.299000</speed>
      </trkpt>
      <trkpt lat="46.015043802" lon="7.212109178">
        <ele>2442.200000</ele>
        <time>2015-08-05T13:49:38Z</time>
        <speed>1.299000</speed>
      </trkpt>
      <trkpt lat="46.015058219" lon="7.212148238">
        <ele>2441.600000</ele>
        <time>2015-08-05T13:49:39Z</time>
        <speed>1.097000</speed>
      </trkpt>
      <trkpt lat="46.015083783" lon="7.212234739">
        <ele>2441.200000</ele>
        <time>2015-08-05T13:49:41Z</time>
        <speed>2.220000</speed>
      </trkpt>
      <trkpt lat="46.015103481" lon="7.212261729">
        <ele>2440.800000</ele>
        <time>2015-08-05T13:49:42Z</time>
        <speed>2.220000</speed>
      </trkpt>
      <trkpt lat="46.015125944" lon="7.212277989">
        <ele>2440.400000</ele>
        <time>2015-08-05T13:49:43Z</time>
        <speed>4.336000</speed>
      </trkpt>
      <trkpt lat="46.015142792" lon="7.212294586">
        <ele>2440.000000</ele>
        <time>2015-08-05T13:49:44Z</time>
        <speed>0.000000</speed>
      </trkpt>
      <trkpt lat="46.015178666" lon="7.212329035">
        <ele>2439.600000</ele>
        <time>2015-08-05T13:49:45Z</time>
        <speed>2.129000</speed>
      </trkpt>
      <trkpt lat="46.015212781" lon="7.212398521">
        <ele>2439.600000</ele>
        <time>2015-08-05T13:49:47Z</time>
        <speed>3.434000</speed>
      </trkpt>
      <trkpt lat="46.015233400" lon="7.212510336">
        <ele>2439.600000</ele>
        <time>2015-08-05T13:49:51Z</time>
        <speed>2.264000</speed>
      </trkpt>
      <trkpt lat="46.015256702" lon="7.212574038">
        <ele>2439.600000</ele>
        <time>2015-08-05T13:49:53Z</time>
        <speed>2.264000</speed>
      </trkpt>
      <trkpt lat="46.015257959" lon="7.212652577">
        <ele>2439.000000</ele>
        <time>2015-08-05T13:49:55Z</time>
        <speed>2.042000</speed>
      </trkpt>
      <trkpt lat="46.015264497" lon="7.212670765">
        <ele>2438.600000</ele>
        <time>2015-08-05T13:49:56Z</time>
        <speed>0.000000</speed>
      </trkpt>
      <trkpt lat="46.015280423" lon="7.212710496">
        <ele>2438.200000</ele>
        <time>2015-08-05T13:49:57Z</time>
        <speed>2.382000</speed>
      </trkpt>
      <trkpt lat="46.015286122" lon="7.212731702">
        <ele>2437.800000</ele>
        <time>2015-08-05T13:49:58Z</time>
        <speed>2.686000</speed>
      </trkpt>
      <trkpt lat="46.015287883" lon="7.212745281">
        <ele>2437.400000</ele>
        <time>2015-08-05T13:49:59Z</time>
        <speed>2.820000</speed>
      </trkpt>
      <trkpt lat="46.015294421" lon="7.212800601">
        <ele>2437.400000</ele>
        <time>2015-08-05T13:50:02Z</time>
        <speed>1.209000</speed>
      </trkpt>
      <trkpt lat="46.015298276" lon="7.212838404">
        <ele>2437.400000</ele>
        <time>2015-08-05T13:50:04Z</time>
        <speed>2.199000</speed>
      </trkpt>
      <trkpt lat="46.015311268" lon="7.212890539">
        <ele>2437.400000</ele>
        <time>2015-08-05T13:50:06Z</time>
        <speed>1.173000</speed>
      </trkpt>
      <trkpt lat="46.015326942" lon="7.212989865">
        <ele>2437.000000</ele>
        <time>2015-08-05T13:50:09Z</time>
        <speed>2.257000</speed>
      </trkpt>
      <trkpt lat="46.015320991" lon="7.213021716">
        <ele>2436.400000</ele>
        <time>2015-08-05T13:50:10Z</time>
        <speed>2.257000</speed>
      </trkpt>
      <trkpt lat="46.015320488" lon="7.213037055">
        <ele>2436.000000</ele>
        <time>2015-08-05T13:50:11Z</time>
        <speed>2.257000</speed>
      </trkpt>
      <trkpt lat="46.015320488" lon="7.213049041">
        <ele>2435.600000</ele>
        <time>2015-08-05T13:50:12Z</time>
        <speed>2.257000</speed>
      </trkpt>
      <trkpt lat="46.015320153" lon="7.213050633">
        <ele>2435.200000</ele>
        <time>2015-08-05T13:50:13Z</time>
        <speed>1.646000</speed>
      </trkpt>
      <trkpt lat="46.015319902" lon="7.213051555">
        <ele>2435.200000</ele>
        <time>2015-08-05T13:50:16Z</time>
        <speed>0.000000</speed>
      </trkpt>
      <trkpt lat="46.015319902" lon="7.213051555">
        <ele>2435.200000</ele>
        <time>2015-08-05T13:50:21Z</time>
        <speed>0.000000</speed>
      </trkpt>
      <trkpt lat="46.015319147" lon="7.213059686">
        <ele>2435.200000</ele>
        <time>2015-08-05T13:50:24Z</time>
        <speed>0.000000</speed>
      </trkpt>
      <trkpt lat="46.015326020" lon="7.213085251">
        <ele>2435.200000</ele>
        <time>2015-08-05T13:50:31Z</time>
        <speed>0.000000</speed>
      </trkpt>
      <trkpt lat="46.015345299" lon="7.213102517">
        <ele>2434.800000</ele>
        <time>2015-08-05T13:50:34Z</time>
        <speed>0.000000</speed>
      </trkpt>
      <trkpt lat="46.015353094" lon="7.213109307">
        <ele>2434.400000</ele>
        <time>2015-08-05T13:50:35Z</time>
        <speed>0.000000</speed>
      </trkpt>
      <trkpt lat="46.015358710" lon="7.213117772">
        <ele>2434.000000</ele>
        <time>2015-08-05T13:50:36Z</time>
        <speed>0.000000</speed>
      </trkpt>
      <trkpt lat="46.015367175" lon="7.213130010">
        <ele>2433.600000</ele>
        <time>2015-08-05T13:50:37Z</time>
        <speed>0.000000</speed>
      </trkpt>
      <trkpt lat="46.015377653" lon="7.213137637">
        <ele>2433.200000</ele>
        <time>2015-08-05T13:50:38Z</time>
        <speed>0.000000</speed>
      </trkpt>
      <trkpt lat="46.015386286" lon="7.213144092">
        <ele>2432.800000</ele>
        <time>2015-08-05T13:50:39Z</time>
        <speed>0.000000</speed>
      </trkpt>
      <trkpt lat="46.015396847" lon="7.213148450">
        <ele>2432.200000</ele>
        <time>2015-08-05T13:50:40Z</time>
        <speed>0.000000</speed>
      </trkpt>
      <trkpt lat="46.015404391" lon="7.213158341">
        <ele>2431.800000</ele>
        <time>2015-08-05T13:50:41Z</time>
        <speed>0.000000</speed>
      </trkpt>
      <trkpt lat="46.015411348" lon="7.213161107">
        <ele>2431.400000</ele>
        <time>2015-08-05T13:50:42Z</time>
        <speed>0.000000</speed>
      </trkpt>
      <trkpt lat="46.015419395" lon="7.213162616">
        <ele>2431.000000</ele>
        <time>2015-08-05T13:50:43Z</time>
        <speed>0.000000</speed>
      </trkpt>
      <trkpt lat="46.015435488" lon="7.213174099">
        <ele>2430.600000</ele>
        <time>2015-08-05T13:50:45Z</time>
        <speed>0.000000</speed>
      </trkpt>
      <trkpt lat="46.015440517" lon="7.213183235">
        <ele>2430.200000</ele>
        <time>2015-08-05T13:50:46Z</time>
        <speed>0.000000</speed>
      </trkpt>
      <trkpt lat="46.015442361" lon="7.213190527">
        <ele>2429.800000</ele>
        <time>2015-08-05T13:50:47Z</time>
        <speed>0.000000</speed>
      </trkpt>
      <trkpt lat="46.015448648" lon="7.213198574">
        <ele>2429.200000</ele>
        <time>2015-08-05T13:50:48Z</time>
        <speed>0.000000</speed>
      </trkpt>
      <trkpt lat="46.015456610" lon="7.213208213">
        <ele>2428.800000</ele>
        <time>2015-08-05T13:50:49Z</time>
        <speed>0.000000</speed>
      </trkpt>
      <trkpt lat="46.015474045" lon="7.213222714">
        <ele>2428.400000</ele>
        <time>2015-08-05T13:50:51Z</time>
        <speed>0.000000</speed>
      </trkpt>
      <trkpt lat="46.015483097" lon="7.213224809">
        <ele>2428.000000</ele>
        <time>2015-08-05T13:50:52Z</time>
        <speed>0.000000</speed>
      </trkpt>
      <trkpt lat="46.015493323" lon="7.213232018">
        <ele>2427.600000</ele>
        <time>2015-08-05T13:50:53Z</time>
        <speed>0.000000</speed>
      </trkpt>
      <trkpt lat="46.015501956" lon="7.213239226">
        <ele>2427.200000</ele>
        <time>2015-08-05T13:50:54Z</time>
        <speed>0.000000</speed>
      </trkpt>
      <trkpt lat="46.015513607" lon="7.213245177">
        <ele>2426.800000</ele>
        <time>2015-08-05T13:50:55Z</time>
        <speed>0.888000</speed>
      </trkpt>
      <trkpt lat="46.015525677" lon="7.213254733">
        <ele>2426.400000</ele>
        <time>2015-08-05T13:50:56Z</time>
        <speed>0.888000</speed>
      </trkpt>
      <trkpt lat="46.015535987" lon="7.213272083">
        <ele>2426.000000</ele>
        <time>2015-08-05T13:50:57Z</time>
        <speed>0.718000</speed>
      </trkpt>
      <trkpt lat="46.015539172" lon="7.213286416">
        <ele>2425.400000</ele>
        <time>2015-08-05T13:50:58Z</time>
        <speed>0.718000</speed>
      </trkpt>
      <trkpt lat="46.015535903" lon="7.213290523">
        <ele>2424.600000</ele>
        <time>2015-08-05T13:50:59Z</time>
        <speed>1.287000</speed>
      </trkpt>
      <trkpt lat="46.015561636" lon="7.213337546">
        <ele>2424.600000</ele>
        <time>2015-08-05T13:51:03Z</time>
        <speed>0.000000</speed>
      </trkpt>
      <trkpt lat="46.015614442" lon="7.213426729">
        <ele>2424.200000</ele>
        <time>2015-08-05T13:51:07Z</time>
        <speed>2.643000</speed>
      </trkpt>
      <trkpt lat="46.015627182" lon="7.213448606">
        <ele>2423.800000</ele>
        <time>2015-08-05T13:51:08Z</time>
        <speed>9.712000</speed>
      </trkpt>
      <trkpt lat="46.015633720" lon="7.213457323">
        <ele>2423.400000</ele>
        <time>2015-08-05T13:51:09Z</time>
        <speed>2.414000</speed>
      </trkpt>
      <trkpt lat="46.015637911" lon="7.213463274">
        <ele>2422.800000</ele>
        <time>2015-08-05T13:51:10Z</time>
        <speed>2.414000</speed>
      </trkpt>
      <trkpt lat="46.015641180" lon="7.213468974">
        <ele>2422.400000</ele>
        <time>2015-08-05T13:51:11Z</time>
        <speed>0.000000</speed>
      </trkpt>
      <trkpt lat="46.015645538" lon="7.213475847">
        <ele>2422.400000</ele>
        <time>2015-08-05T13:51:12Z</time>
        <speed>0.000000</speed>
      </trkpt>
      <trkpt lat="46.015657022" lon="7.213491270">
        <ele>2422.400000</ele>
        <time>2015-08-05T13:51:16Z</time>
        <speed>0.000000</speed>
      </trkpt>
      <trkpt lat="46.015680323" lon="7.213523624">
        <ele>2422.400000</ele>
        <time>2015-08-05T13:51:18Z</time>
        <speed>5.678000</speed>
      </trkpt>
      <trkpt lat="46.015687699" lon="7.213534269">
        <ele>2422.000000</ele>
        <time>2015-08-05T13:51:19Z</time>
        <speed>5.678000</speed>
      </trkpt>
      <trkpt lat="46.015693148" lon="7.213543405">
        <ele>2421.600000</ele>
        <time>2015-08-05T13:51:20Z</time>
        <speed>0.000000</speed>
      </trkpt>
      <trkpt lat="46.015708319" lon="7.213554889">
        <ele>2421.200000</ele>
        <time>2015-08-05T13:51:21Z</time>
        <speed>0.000000</speed>
      </trkpt>
      <trkpt lat="46.015728687" lon="7.213572155">
        <ele>2420.800000</ele>
        <time>2015-08-05T13:51:22Z</time>
        <speed>1.035000</speed>
      </trkpt>
      <trkpt lat="46.015746289" lon="7.213591685">
        <ele>2419.800000</ele>
        <time>2015-08-05T13:51:23Z</time>
        <speed>3.881000</speed>
      </trkpt>
      <trkpt lat="46.015753246" lon="7.213606605">
        <ele>2419.400000</ele>
        <time>2015-08-05T13:51:24Z</time>
        <speed>0.000000</speed>
      </trkpt>
      <trkpt lat="46.015760454" lon="7.213624626">
        <ele>2418.800000</ele>
        <time>2015-08-05T13:51:25Z</time>
        <speed>0.000000</speed>
      </trkpt>
      <trkpt lat="46.015770596" lon="7.213637618">
        <ele>2418.400000</ele>
        <time>2015-08-05T13:51:26Z</time>
        <speed>0.000000</speed>
      </trkpt>
      <trkpt lat="46.015787863" lon="7.213656729">
        <ele>2417.800000</ele>
        <time>2015-08-05T13:51:27Z</time>
        <speed>8.287000</speed>
      </trkpt>
      <trkpt lat="46.015804543" lon="7.213671900">
        <ele>2417.800000</ele>
        <time>2015-08-05T13:51:28Z</time>
        <speed>8.287000</speed>
      </trkpt>
      <trkpt lat="46.015814518" lon="7.213677767">
        <ele>2417.400000</ele>
        <time>2015-08-05T13:51:29Z</time>
        <speed>0.000000</speed>
      </trkpt>
      <trkpt lat="46.015821894" lon="7.213686233">
        <ele>2417.000000</ele>
        <time>2015-08-05T13:51:30Z</time>
        <speed>2.393000</speed>
      </trkpt>
      <trkpt lat="46.015829354" lon="7.213691765">
        <ele>2416.400000</ele>
        <time>2015-08-05T13:51:31Z</time>
        <speed>2.393000</speed>
      </trkpt>
      <trkpt lat="46.015830527" lon="7.213693944">
        <ele>2416.000000</ele>
        <time>2015-08-05T13:51:32Z</time>
        <speed>0.000000</speed>
      </trkpt>
      <trkpt lat="46.015843603" lon="7.213701404">
        <ele>2415.600000</ele>
        <time>2015-08-05T13:51:33Z</time>
        <speed>0.000000</speed>
      </trkpt>
      <trkpt lat="46.015859445" lon="7.213721018">
        <ele>2415.600000</ele>
        <time>2015-08-05T13:51:35Z</time>
        <speed>0.000000</speed>
      </trkpt>
      <trkpt lat="46.015880316" lon="7.213773321">
        <ele>2415.200000</ele>
        <time>2015-08-05T13:51:39Z</time>
        <speed>0.000000</speed>
      </trkpt>
      <trkpt lat="46.015886518" lon="7.213790672">
        <ele>2414.600000</ele>
        <time>2015-08-05T13:51:40Z</time>
        <speed>0.000000</speed>
      </trkpt>
      <trkpt lat="46.015891799" lon="7.213805591">
        <ele>2414.200000</ele>
        <time>2015-08-05T13:51:41Z</time>
        <speed>0.000000</speed>
      </trkpt>
      <trkpt lat="46.015893978" lon="7.213818751">
        <ele>2413.800000</ele>
        <time>2015-08-05T13:51:42Z</time>
        <speed>0.845000</speed>
      </trkpt>
      <trkpt lat="46.015896576" lon="7.213835515">
        <ele>2413.200000</ele>
        <time>2015-08-05T13:51:43Z</time>
        <speed>0.845000</speed>
      </trkpt>
      <trkpt lat="46.015899594" lon="7.213862672">
        <ele>2413.200000</ele>
        <time>2015-08-05T13:51:45Z</time>
        <speed>2.707000</speed>
      </trkpt>
      <trkpt lat="46.015899342" lon="7.213865522">
        <ele>2413.200000</ele>
        <time>2015-08-05T13:51:46Z</time>
        <speed>0.000000</speed>
      </trkpt>
      <trkpt lat="46.015898253" lon="7.213873317">
        <ele>2413.200000</ele>
        <time>2015-08-05T13:51:53Z</time>
        <speed>0.000000</speed>
      </trkpt>
      <trkpt lat="46.015915771" lon="7.213876083">
        <ele>2413.200000</ele>
        <time>2015-08-05T13:52:01Z</time>
        <speed>0.000000</speed>
      </trkpt>
      <trkpt lat="46.015921890" lon="7.213925033">
        <ele>2412.800000</ele>
        <time>2015-08-05T13:52:04Z</time>
        <speed>1.337000</speed>
      </trkpt>
      <trkpt lat="46.015927590" lon="7.213940540">
        <ele>2412.400000</ele>
        <time>2015-08-05T13:52:05Z</time>
        <speed>1.410000</speed>
      </trkpt>
      <trkpt lat="46.015935552" lon="7.213956130">
        <ele>2412.000000</ele>
        <time>2015-08-05T13:52:06Z</time>
        <speed>1.410000</speed>
      </trkpt>
      <trkpt lat="46.015946868" lon="7.213966440">
        <ele>2411.600000</ele>
        <time>2015-08-05T13:52:07Z</time>
        <speed>1.394000</speed>
      </trkpt>
      <trkpt lat="46.015956004" lon="7.213974068">
        <ele>2411.200000</ele>
        <time>2015-08-05T13:52:08Z</time>
        <speed>1.394000</speed>
      </trkpt>
      <trkpt lat="46.015990538" lon="7.214007847">
        <ele>2410.800000</ele>
        <time>2015-08-05T13:52:13Z</time>
        <speed>0.986000</speed>
      </trkpt>
      <trkpt lat="46.015999590" lon="7.214018575">
        <ele>2410.200000</ele>
        <time>2015-08-05T13:52:14Z</time>
        <speed>0.986000</speed>
      </trkpt>
      <trkpt lat="46.016006044" lon="7.214018911">
        <ele>2409.800000</ele>
        <time>2015-08-05T13:52:15Z</time>
        <speed>0.986000</speed>
      </trkpt>
      <trkpt lat="46.016019288" lon="7.214019917">
        <ele>2409.400000</ele>
        <time>2015-08-05T13:52:16Z</time>
        <speed>0.650000</speed>
      </trkpt>
      <trkpt lat="46.016029765" lon="7.214020084">
        <ele>2409.000000</ele>
        <time>2015-08-05T13:52:17Z</time>
        <speed>0.650000</speed>
      </trkpt>
      <trkpt lat="46.016037225" lon="7.214025700">
        <ele>2409.000000</ele>
        <time>2015-08-05T13:52:18Z</time>
        <speed>1.345000</speed>
      </trkpt>
      <trkpt lat="46.016046026" lon="7.214029975">
        <ele>2408.600000</ele>
        <time>2015-08-05T13:52:19Z</time>
        <speed>1.345000</speed>
      </trkpt>
      <trkpt lat="46.016056336" lon="7.214037183">
        <ele>2408.200000</ele>
        <time>2015-08-05T13:52:20Z</time>
        <speed>0.842000</speed>
      </trkpt>
      <trkpt lat="46.016065472" lon="7.214046403">
        <ele>2407.800000</ele>
        <time>2015-08-05T13:52:21Z</time>
        <speed>0.842000</speed>
      </trkpt>
      <trkpt lat="46.016074692" lon="7.214056210">
        <ele>2407.400000</ele>
        <time>2015-08-05T13:52:22Z</time>
        <speed>1.244000</speed>
      </trkpt>
      <trkpt lat="46.016085588" lon="7.214063251">
        <ele>2407.000000</ele>
        <time>2015-08-05T13:52:23Z</time>
        <speed>1.244000</speed>
      </trkpt>
      <trkpt lat="46.016092545" lon="7.214064844">
        <ele>2407.000000</ele>
        <time>2015-08-05T13:52:24Z</time>
        <speed>1.264000</speed>
      </trkpt>
      <trkpt lat="46.016108890" lon="7.214078925">
        <ele>2406.600000</ele>
        <time>2015-08-05T13:52:26Z</time>
        <speed>1.107000</speed>
      </trkpt>
      <trkpt lat="46.016113500" lon="7.214090744">
        <ele>2406.200000</ele>
        <time>2015-08-05T13:52:27Z</time>
        <speed>1.107000</speed>
      </trkpt>
      <trkpt lat="46.016117188" lon="7.214095354">
        <ele>2405.600000</ele>
        <time>2015-08-05T13:52:28Z</time>
        <speed>0.000000</speed>
      </trkpt>
      <trkpt lat="46.016123391" lon="7.214103400">
        <ele>2405.200000</ele>
        <time>2015-08-05T13:52:29Z</time>
        <speed>0.000000</speed>
      </trkpt>
      <trkpt lat="46.016127666" lon="7.214107591">
        <ele>2404.800000</ele>
        <time>2015-08-05T13:52:30Z</time>
        <speed>0.000000</speed>
      </trkpt>
      <trkpt lat="46.016141747" lon="7.214174060">
        <ele>2404.800000</ele>
        <time>2015-08-05T13:52:34Z</time>
        <speed>1.607000</speed>
      </trkpt>
      <trkpt lat="46.016151303" lon="7.214194009">
        <ele>2404.800000</ele>
        <time>2015-08-05T13:52:35Z</time>
        <speed>7.776000</speed>
      </trkpt>
      <trkpt lat="46.016158008" lon="7.214221753">
        <ele>2404.400000</ele>
        <time>2015-08-05T13:52:36Z</time>
        <speed>7.325000</speed>
      </trkpt>
      <trkpt lat="46.016160523" lon="7.214241450">
        <ele>2404.000000</ele>
        <time>2015-08-05T13:52:37Z</time>
        <speed>0.000000</speed>
      </trkpt>
      <trkpt lat="46.016169240" lon="7.214287635">
        <ele>2403.600000</ele>
        <time>2015-08-05T13:52:38Z</time>
        <speed>6.037000</speed>
      </trkpt>
      <trkpt lat="46.016173012" lon="7.214309511">
        <ele>2403.200000</ele>
        <time>2015-08-05T13:52:39Z</time>
        <speed>0.000000</speed>
      </trkpt>
      <trkpt lat="46.016181561" lon="7.214367766">
        <ele>2402.800000</ele>
        <time>2015-08-05T13:52:40Z</time>
        <speed>2.245000</speed>
      </trkpt>
      <trkpt lat="46.016192458" lon="7.214405400">
        <ele>2402.400000</ele>
        <time>2015-08-05T13:52:41Z</time>
        <speed>2.924000</speed>
      </trkpt>
      <trkpt lat="46.016203354" lon="7.214441107">
        <ele>2402.000000</ele>
        <time>2015-08-05T13:52:42Z</time>
        <speed>3.333000</speed>
      </trkpt>
      <trkpt lat="46.016217939" lon="7.214476898">
        <ele>2401.600000</ele>
        <time>2015-08-05T13:52:43Z</time>
        <speed>3.302000</speed>
      </trkpt>
      <trkpt lat="46.016228919" lon="7.214507073">
        <ele>2401.200000</ele>
        <time>2015-08-05T13:52:44Z</time>
        <speed>3.982000</speed>
      </trkpt>
      <trkpt lat="46.016230176" lon="7.214536996">
        <ele>2400.800000</ele>
        <time>2015-08-05T13:52:45Z</time>
        <speed>3.071000</speed>
      </trkpt>
      <trkpt lat="46.016239480" lon="7.214609835">
        <ele>2400.800000</ele>
        <time>2015-08-05T13:52:48Z</time>
        <speed>17.547001</speed>
      </trkpt>
      <trkpt lat="46.016255322" lon="7.214752914">
        <ele>2400.400000</ele>
        <time>2015-08-05T13:52:52Z</time>
        <speed>3.093000</speed>
      </trkpt>
      <trkpt lat="46.016252556" lon="7.214800356">
        <ele>2400.000000</ele>
        <time>2015-08-05T13:52:53Z</time>
        <speed>3.223000</speed>
      </trkpt>
      <trkpt lat="46.016250880" lon="7.214838912">
        <ele>2399.600000</ele>
        <time>2015-08-05T13:52:54Z</time>
        <speed>3.565000</speed>
      </trkpt>
      <trkpt lat="46.016252388" lon="7.214871350">
        <ele>2399.000000</ele>
        <time>2015-08-05T13:52:55Z</time>
        <speed>3.826000</speed>
      </trkpt>
      <trkpt lat="46.016255657" lon="7.214901525">
        <ele>2398.600000</ele>
        <time>2015-08-05T13:52:56Z</time>
        <speed>2.624000</speed>
      </trkpt>
      <trkpt lat="46.016273511" lon="7.214976376">
        <ele>2398.600000</ele>
        <time>2015-08-05T13:52:58Z</time>
        <speed>2.453000</speed>
      </trkpt>
      <trkpt lat="46.016314582" lon="7.215155329">
        <ele>2398.600000</ele>
        <time>2015-08-05T13:53:02Z</time>
        <speed>3.826000</speed>
      </trkpt>
      <trkpt lat="46.016320365" lon="7.215206794">
        <ele>2398.200000</ele>
        <time>2015-08-05T13:53:03Z</time>
        <speed>3.583000</speed>
      </trkpt>
      <trkpt lat="46.016319779" lon="7.215252727">
        <ele>2397.600000</ele>
        <time>2015-08-05T13:53:04Z</time>
        <speed>3.853000</speed>
      </trkpt>
      <trkpt lat="46.016328077" lon="7.215296061">
        <ele>2397.200000</ele>
        <time>2015-08-05T13:53:05Z</time>
        <speed>3.726000</speed>
      </trkpt>
      <trkpt lat="46.016337129" lon="7.215343335">
        <ele>2396.600000</ele>
        <time>2015-08-05T13:53:06Z</time>
        <speed>3.456000</speed>
      </trkpt>
      <trkpt lat="46.016337213" lon="7.215391699">
        <ele>2396.000000</ele>
        <time>2015-08-05T13:53:07Z</time>
        <speed>3.213000</speed>
      </trkpt>
      <trkpt lat="46.016370405" lon="7.215525139">
        <ele>2396.000000</ele>
        <time>2015-08-05T13:53:10Z</time>
        <speed>3.799000</speed>
      </trkpt>
      <trkpt lat="46.016388762" lon="7.215576604">
        <ele>2395.600000</ele>
        <time>2015-08-05T13:53:11Z</time>
        <speed>3.451000</speed>
      </trkpt>
      <trkpt lat="46.016400496" lon="7.215641480">
        <ele>2395.200000</ele>
        <time>2015-08-05T13:53:12Z</time>
        <speed>3.812000</speed>
      </trkpt>
      <trkpt lat="46.016409549" lon="7.215696381">
        <ele>2394.600000</ele>
        <time>2015-08-05T13:53:13Z</time>
        <speed>4.208000</speed>
      </trkpt>
      <trkpt lat="46.016416087" lon="7.215741895">
        <ele>2394.000000</ele>
        <time>2015-08-05T13:53:14Z</time>
        <speed>5.062000</speed>
      </trkpt>
      <trkpt lat="46.016421116" lon="7.215778188">
        <ele>2393.400000</ele>
        <time>2015-08-05T13:53:15Z</time>
        <speed>3.688000</speed>
      </trkpt>
      <trkpt lat="46.016421535" lon="7.215810291">
        <ele>2392.600000</ele>
        <time>2015-08-05T13:53:16Z</time>
        <speed>3.924000</speed>
      </trkpt>
      <trkpt lat="46.016422625" lon="7.215850608">
        <ele>2392.000000</ele>
        <time>2015-08-05T13:53:17Z</time>
        <speed>2.780000</speed>
      </trkpt>
      <trkpt lat="46.016422206" lon="7.215892015">
        <ele>2391.200000</ele>
        <time>2015-08-05T13:53:18Z</time>
        <speed>3.189000</speed>
      </trkpt>
      <trkpt lat="46.016440646" lon="7.216002153">
        <ele>2390.800000</ele>
        <time>2015-08-05T13:53:21Z</time>
        <speed>3.040000</speed>
      </trkpt>
      <trkpt lat="46.016449531" lon="7.216032244">
        <ele>2390.400000</ele>
        <time>2015-08-05T13:53:22Z</time>
        <speed>3.328000</speed>
      </trkpt>
      <trkpt lat="46.016461936" lon="7.216055797">
        <ele>2390.000000</ele>
        <time>2015-08-05T13:53:23Z</time>
        <speed>2.522000</speed>
      </trkpt>
      <trkpt lat="46.016475095" lon="7.216082452">
        <ele>2389.600000</ele>
        <time>2015-08-05T13:53:24Z</time>
        <speed>2.412000</speed>
      </trkpt>
      <trkpt lat="46.016479370" lon="7.216127881">
        <ele>2389.200000</ele>
        <time>2015-08-05T13:53:25Z</time>
        <speed>2.412000</speed>
      </trkpt>
      <trkpt lat="46.016493703" lon="7.216154787">
        <ele>2388.200000</ele>
        <time>2015-08-05T13:53:26Z</time>
        <speed>2.802000</speed>
      </trkpt>
      <trkpt lat="46.016510216" lon="7.216165013">
        <ele>2387.800000</ele>
        <time>2015-08-05T13:53:27Z</time>
        <speed>3.571000</speed>
      </trkpt>
      <trkpt lat="46.016528153" lon="7.216184459">
        <ele>2387.400000</ele>
        <time>2015-08-05T13:53:28Z</time>
        <speed>2.843000</speed>
      </trkpt>
      <trkpt lat="46.016541229" lon="7.216197451">
        <ele>2387.000000</ele>
        <time>2015-08-05T13:53:29Z</time>
        <speed>2.088000</speed>
      </trkpt>
      <trkpt lat="46.016553718" lon="7.216207509">
        <ele>2387.000000</ele>
        <time>2015-08-05T13:53:30Z</time>
        <speed>2.226000</speed>
      </trkpt>
      <trkpt lat="46.016572577" lon="7.216223267">
        <ele>2387.000000</ele>
        <time>2015-08-05T13:53:34Z</time>
        <speed>0.000000</speed>
      </trkpt>
      <trkpt lat="46.016580791" lon="7.216229722">
        <ele>2386.600000</ele>
        <time>2015-08-05T13:53:35Z</time>
        <speed>0.000000</speed>
      </trkpt>
      <trkpt lat="46.016590347" lon="7.216243803">
        <ele>2386.200000</ele>
        <time>2015-08-05T13:53:36Z</time>
        <speed>0.693000</speed>
      </trkpt>
      <trkpt lat="46.016599734" lon="7.216252604">
        <ele>2385.800000</ele>
        <time>2015-08-05T13:53:37Z</time>
        <speed>0.693000</speed>
      </trkpt>
      <trkpt lat="46.016616917" lon="7.216253945">
        <ele>2385.400000</ele>
        <time>2015-08-05T13:53:38Z</time>
        <speed>1.040000</speed>
      </trkpt>
      <trkpt lat="46.016625802" lon="7.216263584">
        <ele>2385.000000</ele>
        <time>2015-08-05T13:53:39Z</time>
        <speed>1.040000</speed>
      </trkpt>
      <trkpt lat="46.016637621" lon="7.216275319">
        <ele>2384.600000</ele>
        <time>2015-08-05T13:53:40Z</time>
        <speed>0.885000</speed>
      </trkpt>
      <trkpt lat="46.016650529" lon="7.216280348">
        <ele>2384.200000</ele>
        <time>2015-08-05T13:53:41Z</time>
        <speed>0.885000</speed>
      </trkpt>
      <trkpt lat="46.016662850" lon="7.216275403">
        <ele>2383.800000</ele>
        <time>2015-08-05T13:53:42Z</time>
        <speed>0.904000</speed>
      </trkpt>
      <trkpt lat="46.016672322" lon="7.216267189">
        <ele>2383.400000</ele>
        <time>2015-08-05T13:53:43Z</time>
        <speed>0.904000</speed>
      </trkpt>
      <trkpt lat="46.016689085" lon="7.216262662">
        <ele>2383.000000</ele>
        <time>2015-08-05T13:53:44Z</time>
        <speed>0.904000</speed>
      </trkpt>
      <trkpt lat="46.016705682" lon="7.216256376">
        <ele>2382.400000</ele>
        <time>2015-08-05T13:53:45Z</time>
        <speed>1.020000</speed>
      </trkpt>
      <trkpt lat="46.016718338" lon="7.216247491">
        <ele>2382.000000</ele>
        <time>2015-08-05T13:53:46Z</time>
        <speed>1.020000</speed>
      </trkpt>
      <trkpt lat="46.016727726" lon="7.216241037">
        <ele>2381.600000</ele>
        <time>2015-08-05T13:53:47Z</time>
        <speed>0.998000</speed>
      </trkpt>
      <trkpt lat="46.016744993" lon="7.216230644">
        <ele>2381.200000</ele>
        <time>2015-08-05T13:53:48Z</time>
        <speed>0.998000</speed>
      </trkpt>
      <trkpt lat="46.016756979" lon="7.216230308">
        <ele>2380.600000</ele>
        <time>2015-08-05T13:53:49Z</time>
        <speed>0.856000</speed>
      </trkpt>
      <trkpt lat="46.016766702" lon="7.216230141">
        <ele>2380.200000</ele>
        <time>2015-08-05T13:53:50Z</time>
        <speed>0.856000</speed>
      </trkpt>
      <trkpt lat="46.016778604" lon="7.216230141">
        <ele>2379.600000</ele>
        <time>2015-08-05T13:53:51Z</time>
        <speed>0.856000</speed>
      </trkpt>
      <trkpt lat="46.016790004" lon="7.216234080">
        <ele>2379.200000</ele>
        <time>2015-08-05T13:53:52Z</time>
        <speed>0.694000</speed>
      </trkpt>
      <trkpt lat="46.016796038" lon="7.216235757">
        <ele>2378.600000</ele>
        <time>2015-08-05T13:53:53Z</time>
        <speed>0.694000</speed>
      </trkpt>
      <trkpt lat="46.016807103" lon="7.216234583">
        <ele>2378.000000</ele>
        <time>2015-08-05T13:53:54Z</time>
        <speed>0.982000</speed>
      </trkpt>
      <trkpt lat="46.016818334" lon="7.216227961">
        <ele>2378.000000</ele>
        <time>2015-08-05T13:53:55Z</time>
        <speed>0.982000</speed>
      </trkpt>
      <trkpt lat="46.016828896" lon="7.216217233">
        <ele>2377.600000</ele>
        <time>2015-08-05T13:53:56Z</time>
        <speed>0.982000</speed>
      </trkpt>
      <trkpt lat="46.016837864" lon="7.216210108">
        <ele>2377.200000</ele>
        <time>2015-08-05T13:53:57Z</time>
        <speed>0.000000</speed>
      </trkpt>
      <trkpt lat="46.016849934" lon="7.216201977">
        <ele>2376.800000</ele>
        <time>2015-08-05T13:53:58Z</time>
        <speed>0.000000</speed>
      </trkpt>
      <trkpt lat="46.016861920" lon="7.216193679">
        <ele>2376.400000</ele>
        <time>2015-08-05T13:53:59Z</time>
        <speed>0.000000</speed>
      </trkpt>
      <trkpt lat="46.016875164" lon="7.216188734">
        <ele>2375.800000</ele>
        <time>2015-08-05T13:54:00Z</time>
        <speed>0.000000</speed>
      </trkpt>
      <trkpt lat="46.016886898" lon="7.216185884">
        <ele>2375.200000</ele>
        <time>2015-08-05T13:54:01Z</time>
        <speed>0.000000</speed>
      </trkpt>
      <trkpt lat="46.016896621" lon="7.216186471">
        <ele>2374.800000</ele>
        <time>2015-08-05T13:54:02Z</time>
        <speed>0.000000</speed>
      </trkpt>
      <trkpt lat="46.016904249" lon="7.216188231">
        <ele>2374.200000</ele>
        <time>2015-08-05T13:54:03Z</time>
        <speed>0.000000</speed>
      </trkpt>
      <trkpt lat="46.016915145" lon="7.216194518">
        <ele>2373.600000</ele>
        <time>2015-08-05T13:54:04Z</time>
        <speed>0.000000</speed>
      </trkpt>
      <trkpt lat="46.016926545" lon="7.216202145">
        <ele>2373.000000</ele>
        <time>2015-08-05T13:54:05Z</time>
        <speed>0.000000</speed>
      </trkpt>
      <trkpt lat="46.016940459" lon="7.216212036">
        <ele>2372.400000</ele>
        <time>2015-08-05T13:54:06Z</time>
        <speed>0.000000</speed>
      </trkpt>
      <trkpt lat="46.016954959" lon="7.216215305">
        <ele>2371.800000</ele>
        <time>2015-08-05T13:54:07Z</time>
        <speed>0.000000</speed>
      </trkpt>
      <trkpt lat="46.016968370" lon="7.216215975">
        <ele>2371.400000</ele>
        <time>2015-08-05T13:54:08Z</time>
        <speed>0.000000</speed>
      </trkpt>
      <trkpt lat="46.016977758" lon="7.216217400">
        <ele>2370.800000</ele>
        <time>2015-08-05T13:54:09Z</time>
        <speed>0.000000</speed>
      </trkpt>
      <trkpt lat="46.016989912" lon="7.216224273">
        <ele>2370.400000</ele>
        <time>2015-08-05T13:54:10Z</time>
        <speed>0.773000</speed>
      </trkpt>
      <trkpt lat="46.017000138" lon="7.216235924">
        <ele>2370.000000</ele>
        <time>2015-08-05T13:54:11Z</time>
        <speed>0.773000</speed>
      </trkpt>
      <trkpt lat="46.017007933" lon="7.216251598">
        <ele>2369.600000</ele>
        <time>2015-08-05T13:54:12Z</time>
        <speed>1.010000</speed>
      </trkpt>
      <trkpt lat="46.017012962" lon="7.216264004">
        <ele>2369.600000</ele>
        <time>2015-08-05T13:54:13Z</time>
        <speed>1.010000</speed>
      </trkpt>
      <trkpt lat="46.017018578" lon="7.216279929">
        <ele>2369.600000</ele>
        <time>2015-08-05T13:54:14Z</time>
        <speed>1.043000</speed>
      </trkpt>
      <trkpt lat="46.017027463" lon="7.216283366">
        <ele>2369.200000</ele>
        <time>2015-08-05T13:54:15Z</time>
        <speed>1.043000</speed>
      </trkpt>
      <trkpt lat="46.017037270" lon="7.216278169">
        <ele>2368.800000</ele>
        <time>2015-08-05T13:54:16Z</time>
        <speed>1.352000</speed>
      </trkpt>
      <trkpt lat="46.017048837" lon="7.216273559">
        <ele>2368.400000</ele>
        <time>2015-08-05T13:54:17Z</time>
        <speed>1.352000</speed>
      </trkpt>
      <trkpt lat="46.017057302" lon="7.216275990">
        <ele>2368.000000</ele>
        <time>2015-08-05T13:54:18Z</time>
        <speed>0.000000</speed>
      </trkpt>
      <trkpt lat="46.017069791" lon="7.216274816">
        <ele>2367.600000</ele>
        <time>2015-08-05T13:54:19Z</time>
        <speed>0.000000</speed>
      </trkpt>
      <trkpt lat="46.017082867" lon="7.216277917">
        <ele>2367.000000</ele>
        <time>2015-08-05T13:54:20Z</time>
        <speed>0.000000</speed>
      </trkpt>
      <trkpt lat="46.017100050" lon="7.216287640">
        <ele>2366.600000</ele>
        <time>2015-08-05T13:54:21Z</time>
        <speed>23.586000</speed>
      </trkpt>
      <trkpt lat="46.017113126" lon="7.216298034">
        <ele>2366.200000</ele>
        <time>2015-08-05T13:54:22Z</time>
        <speed>23.586000</speed>
      </trkpt>
      <trkpt lat="46.017116814" lon="7.216303901">
        <ele>2365.800000</ele>
        <time>2015-08-05T13:54:23Z</time>
        <speed>0.000000</speed>
      </trkpt>
      <trkpt lat="46.017126453" lon="7.216309685">
        <ele>2365.200000</ele>
        <time>2015-08-05T13:54:24Z</time>
        <speed>0.000000</speed>
      </trkpt>
      <trkpt lat="46.017137936" lon="7.216310355">
        <ele>2364.800000</ele>
        <time>2015-08-05T13:54:25Z</time>
        <speed>0.000000</speed>
      </trkpt>
      <trkpt lat="46.017145815" lon="7.216303818">
        <ele>2364.400000</ele>
        <time>2015-08-05T13:54:26Z</time>
        <speed>0.000000</speed>
      </trkpt>
      <trkpt lat="46.017153359" lon="7.216298202">
        <ele>2364.000000</ele>
        <time>2015-08-05T13:54:27Z</time>
        <speed>0.000000</speed>
      </trkpt>
      <trkpt lat="46.017166686" lon="7.216291161">
        <ele>2363.400000</ele>
        <time>2015-08-05T13:54:28Z</time>
        <speed>0.000000</speed>
      </trkpt>
      <trkpt lat="46.017178840" lon="7.216285461">
        <ele>2363.000000</ele>
        <time>2015-08-05T13:54:29Z</time>
        <speed>0.000000</speed>
      </trkpt>
      <trkpt lat="46.017190826" lon="7.216279929">
        <ele>2362.600000</ele>
        <time>2015-08-05T13:54:30Z</time>
        <speed>0.000000</speed>
      </trkpt>
      <trkpt lat="46.017205411" lon="7.216275403">
        <ele>2362.200000</ele>
        <time>2015-08-05T13:54:31Z</time>
        <speed>0.000000</speed>
      </trkpt>
      <trkpt lat="46.017212368" lon="7.216272134">
        <ele>2361.800000</ele>
        <time>2015-08-05T13:54:32Z</time>
        <speed>0.000000</speed>
      </trkpt>
      <trkpt lat="46.017220414" lon="7.216264674">
        <ele>2361.400000</ele>
        <time>2015-08-05T13:54:33Z</time>
        <speed>0.000000</speed>
      </trkpt>
      <trkpt lat="46.017228377" lon="7.216254113">
        <ele>2361.000000</ele>
        <time>2015-08-05T13:54:34Z</time>
        <speed>0.000000</speed>
      </trkpt>
      <trkpt lat="46.017243464" lon="7.216250760">
        <ele>2361.000000</ele>
        <time>2015-08-05T13:54:35Z</time>
        <speed>1.537000</speed>
      </trkpt>
      <trkpt lat="46.017257714" lon="7.216246988">
        <ele>2360.600000</ele>
        <time>2015-08-05T13:54:36Z</time>
        <speed>1.537000</speed>
      </trkpt>
      <trkpt lat="46.017267604" lon="7.216241959">
        <ele>2360.000000</ele>
        <time>2015-08-05T13:54:37Z</time>
        <speed>1.007000</speed>
      </trkpt>
      <trkpt lat="46.017279339" lon="7.216227207">
        <ele>2359.600000</ele>
        <time>2015-08-05T13:54:38Z</time>
        <speed>1.007000</speed>
      </trkpt>
      <trkpt lat="46.017294929" lon="7.216215808">
        <ele>2358.800000</ele>
        <time>2015-08-05T13:54:39Z</time>
        <speed>1.007000</speed>
      </trkpt>
      <trkpt lat="46.017302892" lon="7.216214886">
        <ele>2358.200000</ele>
        <time>2015-08-05T13:54:40Z</time>
        <speed>0.000000</speed>
      </trkpt>
      <trkpt lat="46.017315297" lon="7.216216730">
        <ele>2357.800000</ele>
        <time>2015-08-05T13:54:41Z</time>
        <speed>0.000000</speed>
      </trkpt>
      <trkpt lat="46.017326613" lon="7.216225782">
        <ele>2357.200000</ele>
        <time>2015-08-05T13:54:42Z</time>
        <speed>0.000000</speed>
      </trkpt>
      <trkpt lat="46.017335246" lon="7.216230644">
        <ele>2356.800000</ele>
        <time>2015-08-05T13:54:43Z</time>
        <speed>0.000000</speed>
      </trkpt>
      <trkpt lat="46.017351759" lon="7.216242211">
        <ele>2356.200000</ele>
        <time>2015-08-05T13:54:45Z</time>
        <speed>0.000000</speed>
      </trkpt>
      <trkpt lat="46.017363745" lon="7.216251514">
        <ele>2355.800000</ele>
        <time>2015-08-05T13:54:46Z</time>
        <speed>0.000000</speed>
      </trkpt>
      <trkpt lat="46.017368103" lon="7.216268111">
        <ele>2355.400000</ele>
        <time>2015-08-05T13:54:47Z</time>
        <speed>0.000000</speed>
      </trkpt>
      <trkpt lat="46.017373384" lon="7.216283450">
        <ele>2354.800000</ele>
        <time>2015-08-05T13:54:48Z</time>
        <speed>0.000000</speed>
      </trkpt>
      <trkpt lat="46.017377072" lon="7.216293675">
        <ele>2354.400000</ele>
        <time>2015-08-05T13:54:49Z</time>
        <speed>0.000000</speed>
      </trkpt>
      <trkpt lat="46.017374474" lon="7.216354528">
        <ele>2354.400000</ele>
        <time>2015-08-05T13:54:51Z</time>
        <speed>0.730000</speed>
      </trkpt>
      <trkpt lat="46.017370618" lon="7.216460056">
        <ele>2354.000000</ele>
        <time>2015-08-05T13:54:54Z</time>
        <speed>2.561000</speed>
      </trkpt>
      <trkpt lat="46.017371624" lon="7.216502050">
        <ele>2353.400000</ele>
        <time>2015-08-05T13:54:55Z</time>
        <speed>2.680000</speed>
      </trkpt>
      <trkpt lat="46.017368020" lon="7.216541612">
        <ele>2353.000000</ele>
        <time>2015-08-05T13:54:56Z</time>
        <speed>2.680000</speed>
      </trkpt>
      <trkpt lat="46.017363242" lon="7.216577068">
        <ele>2352.600000</ele>
        <time>2015-08-05T13:54:57Z</time>
        <speed>2.989000</speed>
      </trkpt>
      <trkpt lat="46.017367265" lon="7.216598693">
        <ele>2352.000000</ele>
        <time>2015-08-05T13:54:58Z</time>
        <speed>2.598000</speed>
      </trkpt>
      <trkpt lat="46.017378329" lon="7.216614116">
        <ele>2351.400000</ele>
        <time>2015-08-05T13:54:59Z</time>
        <speed>2.858000</speed>
      </trkpt>
      <trkpt lat="46.017397524" lon="7.216641105">
        <ele>2351.000000</ele>
        <time>2015-08-05T13:55:00Z</time>
        <speed>2.858000</speed>
      </trkpt>
      <trkpt lat="46.017418982" lon="7.216676226">
        <ele>2350.400000</ele>
        <time>2015-08-05T13:55:01Z</time>
        <speed>2.366000</speed>
      </trkpt>
      <trkpt lat="46.017439433" lon="7.216716710">
        <ele>2349.800000</ele>
        <time>2015-08-05T13:55:02Z</time>
        <speed>2.366000</speed>
      </trkpt>
      <trkpt lat="46.017460975" lon="7.216755854">
        <ele>2348.400000</ele>
        <time>2015-08-05T13:55:03Z</time>
        <speed>2.366000</speed>
      </trkpt>
      <trkpt lat="46.017486959" lon="7.216796673">
        <ele>2347.600000</ele>
        <time>2015-08-05T13:55:04Z</time>
        <speed>3.208000</speed>
      </trkpt>
      <trkpt lat="46.017511518" lon="7.216832799">
        <ele>2346.800000</ele>
        <time>2015-08-05T13:55:05Z</time>
        <speed>3.726000</speed>
      </trkpt>
      <trkpt lat="46.017538088" lon="7.216866076">
        <ele>2346.000000</ele>
        <time>2015-08-05T13:55:06Z</time>
        <speed>2.965000</speed>
      </trkpt>
      <trkpt lat="46.017552757" lon="7.216897759">
        <ele>2345.000000</ele>
        <time>2015-08-05T13:55:07Z</time>
        <speed>3.333000</speed>
      </trkpt>
      <trkpt lat="46.017570694" lon="7.216937322">
        <ele>2344.200000</ele>
        <time>2015-08-05T13:55:08Z</time>
        <speed>3.530000</speed>
      </trkpt>
      <trkpt lat="46.017588128" lon="7.216973280">
        <ele>2343.200000</ele>
        <time>2015-08-05T13:55:09Z</time>
        <speed>2.748000</speed>
      </trkpt>
      <trkpt lat="46.017602210" lon="7.217018710">
        <ele>2342.400000</ele>
        <time>2015-08-05T13:55:10Z</time>
        <speed>3.328000</speed>
      </trkpt>
      <trkpt lat="46.017617381" lon="7.217061542">
        <ele>2341.400000</ele>
        <time>2015-08-05T13:55:11Z</time>
        <speed>2.977000</speed>
      </trkpt>
      <trkpt lat="46.017633223" lon="7.217089453">
        <ele>2340.200000</ele>
        <time>2015-08-05T13:55:12Z</time>
        <speed>3.833000</speed>
      </trkpt>
      <trkpt lat="46.017648646" lon="7.217113426">
        <ele>2339.200000</ele>
        <time>2015-08-05T13:55:13Z</time>
        <speed>3.833000</speed>
      </trkpt>
      <trkpt lat="46.017665996" lon="7.217144020">
        <ele>2338.400000</ele>
        <time>2015-08-05T13:55:14Z</time>
        <speed>2.516000</speed>
      </trkpt>
      <trkpt lat="46.017691477" lon="7.217167070">
        <ele>2337.600000</ele>
        <time>2015-08-05T13:55:15Z</time>
        <speed>2.516000</speed>
      </trkpt>
      <trkpt lat="46.017717545" lon="7.217185510">
        <ele>2336.800000</ele>
        <time>2015-08-05T13:55:16Z</time>
        <speed>3.228000</speed>
      </trkpt>
      <trkpt lat="46.017747720" lon="7.217208644">
        <ele>2336.000000</ele>
        <time>2015-08-05T13:55:17Z</time>
        <speed>3.888000</speed>
      </trkpt>
      <trkpt lat="46.017773033" lon="7.217232784">
        <ele>2335.400000</ele>
        <time>2015-08-05T13:55:18Z</time>
        <speed>3.317000</speed>
      </trkpt>
      <trkpt lat="46.017799604" lon="7.217259103">
        <ele>2334.600000</ele>
        <time>2015-08-05T13:55:19Z</time>
        <speed>3.223000</speed>
      </trkpt>
      <trkpt lat="46.017824833" lon="7.217281902">
        <ele>2334.000000</ele>
        <time>2015-08-05T13:55:20Z</time>
        <speed>3.785000</speed>
      </trkpt>
      <trkpt lat="46.017849057" lon="7.217301096">
        <ele>2333.200000</ele>
        <time>2015-08-05T13:55:21Z</time>
        <speed>3.638000</speed>
      </trkpt>
      <trkpt lat="46.017870766" lon="7.217322051">
        <ele>2332.600000</ele>
        <time>2015-08-05T13:55:22Z</time>
        <speed>3.473000</speed>
      </trkpt>
      <trkpt lat="46.017880908" lon="7.217353567">
        <ele>2331.800000</ele>
        <time>2015-08-05T13:55:23Z</time>
        <speed>2.981000</speed>
      </trkpt>
      <trkpt lat="46.017896163" lon="7.217378126">
        <ele>2331.200000</ele>
        <time>2015-08-05T13:55:24Z</time>
        <speed>3.111000</speed>
      </trkpt>
      <trkpt lat="46.017914603" lon="7.217415426">
        <ele>2330.600000</ele>
        <time>2015-08-05T13:55:25Z</time>
        <speed>2.956000</speed>
      </trkpt>
      <trkpt lat="46.017936229" lon="7.217461610">
        <ele>2330.000000</ele>
        <time>2015-08-05T13:55:26Z</time>
        <speed>3.513000</speed>
      </trkpt>
      <trkpt lat="46.017957938" lon="7.217509554">
        <ele>2329.600000</ele>
        <time>2015-08-05T13:55:27Z</time>
        <speed>3.826000</speed>
      </trkpt>
      <trkpt lat="46.017973864" lon="7.217557080">
        <ele>2328.200000</ele>
        <time>2015-08-05T13:55:28Z</time>
        <speed>4.538000</speed>
      </trkpt>
      <trkpt lat="46.017990292" lon="7.217593876">
        <ele>2327.600000</ele>
        <time>2015-08-05T13:55:29Z</time>
        <speed>4.389000</speed>
      </trkpt>
      <trkpt lat="46.018003368" lon="7.217626817">
        <ele>2326.800000</ele>
        <time>2015-08-05T13:55:30Z</time>
        <speed>3.053000</speed>
      </trkpt>
      <trkpt lat="46.018011750" lon="7.217652633">
        <ele>2326.200000</ele>
        <time>2015-08-05T13:55:31Z</time>
        <speed>3.027000</speed>
      </trkpt>
      <trkpt lat="46.018017198" lon="7.217678031">
        <ele>2325.600000</ele>
        <time>2015-08-05T13:55:32Z</time>
        <speed>2.869000</speed>
      </trkpt>
      <trkpt lat="46.018014683" lon="7.217707954">
        <ele>2325.200000</ele>
        <time>2015-08-05T13:55:33Z</time>
        <speed>2.869000</speed>
      </trkpt>
      <trkpt lat="46.018011163" lon="7.217732681">
        <ele>2324.800000</ele>
        <time>2015-08-05T13:55:34Z</time>
        <speed>2.869000</speed>
      </trkpt>
      <trkpt lat="46.018014683" lon="7.217757826">
        <ele>2324.200000</ele>
        <time>2015-08-05T13:55:35Z</time>
        <speed>2.869000</speed>
      </trkpt>
      <trkpt lat="46.018016108" lon="7.217775512">
        <ele>2323.800000</ele>
        <time>2015-08-05T13:55:36Z</time>
        <speed>0.000000</speed>
      </trkpt>
      <trkpt lat="46.018016192" lon="7.217824714">
        <ele>2323.400000</ele>
        <time>2015-08-05T13:55:37Z</time>
        <speed>2.555000</speed>
      </trkpt>
      <trkpt lat="46.018016276" lon="7.217849860">
        <ele>2323.000000</ele>
        <time>2015-08-05T13:55:38Z</time>
        <speed>2.640000</speed>
      </trkpt>
      <trkpt lat="46.018014097" lon="7.217872072">
        <ele>2322.600000</ele>
        <time>2015-08-05T13:55:39Z</time>
        <speed>2.640000</speed>
      </trkpt>
      <trkpt lat="46.018010409" lon="7.217892943">
        <ele>2322.200000</ele>
        <time>2015-08-05T13:55:40Z</time>
        <speed>2.335000</speed>
      </trkpt>
      <trkpt lat="46.018009319" lon="7.217915406">
        <ele>2321.600000</ele>
        <time>2015-08-05T13:55:41Z</time>
        <speed>1.995000</speed>
      </trkpt>
      <trkpt lat="46.018021808" lon="7.218004673">
        <ele>2321.200000</ele>
        <time>2015-08-05T13:55:44Z</time>
        <speed>2.123000</speed>
      </trkpt>
      <trkpt lat="46.018014600" lon="7.218070723">
        <ele>2320.800000</ele>
        <time>2015-08-05T13:55:45Z</time>
        <speed>2.123000</speed>
      </trkpt>
      <trkpt lat="46.018012253" lon="7.218144148">
        <ele>2320.400000</ele>
        <time>2015-08-05T13:55:46Z</time>
        <speed>2.123000</speed>
      </trkpt>
      <trkpt lat="46.018013175" lon="7.218210701">
        <ele>2319.600000</ele>
        <time>2015-08-05T13:55:47Z</time>
        <speed>5.503000</speed>
      </trkpt>
      <trkpt lat="46.018010576" lon="7.218266021">
        <ele>2319.000000</ele>
        <time>2015-08-05T13:55:48Z</time>
        <speed>5.197000</speed>
      </trkpt>
      <trkpt lat="46.018020718" lon="7.218311786">
        <ele>2318.200000</ele>
        <time>2015-08-05T13:55:49Z</time>
        <speed>4.606000</speed>
      </trkpt>
      <trkpt lat="46.018036141" lon="7.218353193">
        <ele>2317.400000</ele>
        <time>2015-08-05T13:55:50Z</time>
        <speed>5.648000</speed>
      </trkpt>
      <trkpt lat="46.018044272" lon="7.218386134">
        <ele>2316.800000</ele>
        <time>2015-08-05T13:55:51Z</time>
        <speed>0.000000</speed>
      </trkpt>
      <trkpt lat="46.018074865" lon="7.218437850">
        <ele>2315.800000</ele>
        <time>2015-08-05T13:55:52Z</time>
        <speed>4.856000</speed>
      </trkpt>
      <trkpt lat="46.018107723" lon="7.218459643">
        <ele>2315.200000</ele>
        <time>2015-08-05T13:55:53Z</time>
        <speed>4.834000</speed>
      </trkpt>
      <trkpt lat="46.018140831" lon="7.218483783">
        <ele>2314.600000</ele>
        <time>2015-08-05T13:55:54Z</time>
        <speed>3.895000</speed>
      </trkpt>
      <trkpt lat="46.018208138" lon="7.218541367">
        <ele>2314.200000</ele>
        <time>2015-08-05T13:55:57Z</time>
        <speed>3.079000</speed>
      </trkpt>
      <trkpt lat="46.018221130" lon="7.218559555">
        <ele>2313.800000</ele>
        <time>2015-08-05T13:55:58Z</time>
        <speed>2.932000</speed>
      </trkpt>
      <trkpt lat="46.018233703" lon="7.218568105">
        <ele>2313.400000</ele>
        <time>2015-08-05T13:55:59Z</time>
        <speed>2.932000</speed>
      </trkpt>
      <trkpt lat="46.018243928" lon="7.218579253">
        <ele>2313.000000</ele>
        <time>2015-08-05T13:56:00Z</time>
        <speed>0.000000</speed>
      </trkpt>
      <trkpt lat="46.018264464" lon="7.218609260">
        <ele>2312.600000</ele>
        <time>2015-08-05T13:56:01Z</time>
        <speed>1.827000</speed>
      </trkpt>
      <trkpt lat="46.018300674" lon="7.218649661">
        <ele>2312.200000</ele>
        <time>2015-08-05T13:56:03Z</time>
        <speed>2.066000</speed>
      </trkpt>
      <trkpt lat="46.018319030" lon="7.218667095">
        <ele>2311.600000</ele>
        <time>2015-08-05T13:56:04Z</time>
        <speed>2.395000</speed>
      </trkpt>
      <trkpt lat="46.018341326" lon="7.218684446">
        <ele>2311.200000</ele>
        <time>2015-08-05T13:56:05Z</time>
        <speed>2.395000</speed>
      </trkpt>
      <trkpt lat="46.018359934" lon="7.218707412">
        <ele>2310.600000</ele>
        <time>2015-08-05T13:56:06Z</time>
        <speed>2.598000</speed>
      </trkpt>
      <trkpt lat="46.018380134" lon="7.218729708">
        <ele>2309.800000</ele>
        <time>2015-08-05T13:56:07Z</time>
        <speed>2.731000</speed>
      </trkpt>
      <trkpt lat="46.018402933" lon="7.218740269">
        <ele>2309.200000</ele>
        <time>2015-08-05T13:56:08Z</time>
        <speed>2.102000</speed>
      </trkpt>
      <trkpt lat="46.018422547" lon="7.218730965">
        <ele>2308.400000</ele>
        <time>2015-08-05T13:56:09Z</time>
        <speed>2.102000</speed>
      </trkpt>
      <trkpt lat="46.018440065" lon="7.218717973">
        <ele>2307.600000</ele>
        <time>2015-08-05T13:56:10Z</time>
        <speed>1.824000</speed>
      </trkpt>
      <trkpt lat="46.018462948" lon="7.218705400">
        <ele>2306.800000</ele>
        <time>2015-08-05T13:56:11Z</time>
        <speed>1.824000</speed>
      </trkpt>
      <trkpt lat="46.018501085" lon="7.218697186">
        <ele>2305.800000</ele>
        <time>2015-08-05T13:56:12Z</time>
        <speed>1.824000</speed>
      </trkpt>
      <trkpt lat="46.018541821" lon="7.218682350">
        <ele>2305.000000</ele>
        <time>2015-08-05T13:56:13Z</time>
        <speed>3.161000</speed>
      </trkpt>
      <trkpt lat="46.018583563" lon="7.218670699">
        <ele>2304.600000</ele>
        <time>2015-08-05T13:56:14Z</time>
        <speed>4.900000</speed>
      </trkpt>
      <trkpt lat="46.018613570" lon="7.218674974">
        <ele>2304.000000</ele>
        <time>2015-08-05T13:56:15Z</time>
        <speed>4.867000</speed>
      </trkpt>
      <trkpt lat="46.018642739" lon="7.218682266">
        <ele>2303.000000</ele>
        <time>2015-08-05T13:56:16Z</time>
        <speed>3.881000</speed>
      </trkpt>
      <trkpt lat="46.018673836" lon="7.218694839">
        <ele>2302.400000</ele>
        <time>2015-08-05T13:56:17Z</time>
        <speed>2.791000</speed>
      </trkpt>
      <trkpt lat="46.018701832" lon="7.218709088">
        <ele>2302.000000</ele>
        <time>2015-08-05T13:56:18Z</time>
        <speed>3.909000</speed>
      </trkpt>
      <trkpt lat="46.018731336" lon="7.218727948">
        <ele>2301.600000</ele>
        <time>2015-08-05T13:56:19Z</time>
        <speed>3.577000</speed>
      </trkpt>
      <trkpt lat="46.018754722" lon="7.218743957">
        <ele>2301.200000</ele>
        <time>2015-08-05T13:56:20Z</time>
        <speed>3.490000</speed>
      </trkpt>
      <trkpt lat="46.018776263" lon="7.218766085">
        <ele>2300.800000</ele>
        <time>2015-08-05T13:56:21Z</time>
        <speed>3.032000</speed>
      </trkpt>
      <trkpt lat="46.018801074" lon="7.218775892">
        <ele>2300.400000</ele>
        <time>2015-08-05T13:56:22Z</time>
        <speed>2.245000</speed>
      </trkpt>
      <trkpt lat="46.018831500" lon="7.218789806">
        <ele>2299.800000</ele>
        <time>2015-08-05T13:56:23Z</time>
        <speed>2.470000</speed>
      </trkpt>
      <trkpt lat="46.018857232" lon="7.218807827">
        <ele>2299.400000</ele>
        <time>2015-08-05T13:56:24Z</time>
        <speed>2.470000</speed>
      </trkpt>
      <trkpt lat="46.018885144" lon="7.218828866">
        <ele>2299.000000</ele>
        <time>2015-08-05T13:56:25Z</time>
        <speed>2.839000</speed>
      </trkpt>
      <trkpt lat="46.018922946" lon="7.218841103">
        <ele>2298.400000</ele>
        <time>2015-08-05T13:56:26Z</time>
        <speed>3.184000</speed>
      </trkpt>
      <trkpt lat="46.018962174" lon="7.218848144">
        <ele>2297.800000</ele>
        <time>2015-08-05T13:56:27Z</time>
        <speed>4.354000</speed>
      </trkpt>
      <trkpt lat="46.018992349" lon="7.218849904">
        <ele>2297.000000</ele>
        <time>2015-08-05T13:56:28Z</time>
        <speed>4.509000</speed>
      </trkpt>
      <trkpt lat="46.019011878" lon="7.218856861">
        <ele>2296.400000</ele>
        <time>2015-08-05T13:56:29Z</time>
        <speed>3.960000</speed>
      </trkpt>
      <trkpt lat="46.019026966" lon="7.218859879">
        <ele>2295.800000</ele>
        <time>2015-08-05T13:56:30Z</time>
        <speed>3.161000</speed>
      </trkpt>
      <trkpt lat="46.019039371" lon="7.218865998">
        <ele>2295.000000</ele>
        <time>2015-08-05T13:56:31Z</time>
        <speed>0.000000</speed>
      </trkpt>
      <trkpt lat="46.019077593" lon="7.218892987">
        <ele>2294.400000</ele>
        <time>2015-08-05T13:56:32Z</time>
        <speed>1.844000</speed>
      </trkpt>
      <trkpt lat="46.019106259" lon="7.218906566">
        <ele>2293.800000</ele>
        <time>2015-08-05T13:56:33Z</time>
        <speed>1.844000</speed>
      </trkpt>
      <trkpt lat="46.019119586" lon="7.218925928">
        <ele>2293.000000</ele>
        <time>2015-08-05T13:56:34Z</time>
        <speed>3.292000</speed>
      </trkpt>
      <trkpt lat="46.019119754" lon="7.218964150">
        <ele>2292.600000</ele>
        <time>2015-08-05T13:56:35Z</time>
        <speed>2.893000</speed>
      </trkpt>
      <trkpt lat="46.019116904" lon="7.219005640">
        <ele>2292.200000</ele>
        <time>2015-08-05T13:56:36Z</time>
        <speed>2.637000</speed>
      </trkpt>
      <trkpt lat="46.019121011" lon="7.219050316">
        <ele>2291.800000</ele>
        <time>2015-08-05T13:56:37Z</time>
        <speed>2.637000</speed>
      </trkpt>
      <trkpt lat="46.019124783" lon="7.219093147">
        <ele>2291.400000</ele>
        <time>2015-08-05T13:56:38Z</time>
        <speed>4.034000</speed>
      </trkpt>
      <trkpt lat="46.019128303" lon="7.219146959">
        <ele>2291.000000</ele>
        <time>2015-08-05T13:56:39Z</time>
        <speed>3.675000</speed>
      </trkpt>
      <trkpt lat="46.019126208" lon="7.219206219">
        <ele>2290.400000</ele>
        <time>2015-08-05T13:56:40Z</time>
        <speed>3.577000</speed>
      </trkpt>
      <trkpt lat="46.019128135" lon="7.219273023">
        <ele>2289.200000</ele>
        <time>2015-08-05T13:56:41Z</time>
        <speed>4.748000</speed>
      </trkpt>
      <trkpt lat="46.019120676" lon="7.219325158">
        <ele>2288.600000</ele>
        <time>2015-08-05T13:56:42Z</time>
        <speed>4.354000</speed>
      </trkpt>
      <trkpt lat="46.019113886" lon="7.219370002">
        <ele>2287.800000</ele>
        <time>2015-08-05T13:56:43Z</time>
        <speed>4.911000</speed>
      </trkpt>
      <trkpt lat="46.019112377" lon="7.219407972">
        <ele>2287.000000</ele>
        <time>2015-08-05T13:56:44Z</time>
        <speed>3.530000</speed>
      </trkpt>
      <trkpt lat="46.019116736" lon="7.219429765">
        <ele>2286.400000</ele>
        <time>2015-08-05T13:56:45Z</time>
        <speed>3.853000</speed>
      </trkpt>
      <trkpt lat="46.019124447" lon="7.219458347">
        <ele>2285.600000</ele>
        <time>2015-08-05T13:56:46Z</time>
        <speed>2.904000</speed>
      </trkpt>
      <trkpt lat="46.019131153" lon="7.219495479">
        <ele>2285.000000</ele>
        <time>2015-08-05T13:56:47Z</time>
        <speed>2.484000</speed>
      </trkpt>
      <trkpt lat="46.019134003" lon="7.219538059">
        <ele>2284.200000</ele>
        <time>2015-08-05T13:56:48Z</time>
        <speed>2.484000</speed>
      </trkpt>
      <trkpt lat="46.019132159" lon="7.219604108">
        <ele>2283.800000</ele>
        <time>2015-08-05T13:56:50Z</time>
        <speed>3.247000</speed>
      </trkpt>
      <trkpt lat="46.019131991" lon="7.219631936">
        <ele>2283.200000</ele>
        <time>2015-08-05T13:56:51Z</time>
        <speed>2.558000</speed>
      </trkpt>
      <trkpt lat="46.019124866" lon="7.219657752">
        <ele>2282.800000</ele>
        <time>2015-08-05T13:56:52Z</time>
        <speed>2.146000</speed>
      </trkpt>
      <trkpt lat="46.019125034" lon="7.219687340">
        <ele>2282.400000</ele>
        <time>2015-08-05T13:56:53Z</time>
        <speed>2.233000</speed>
      </trkpt>
      <trkpt lat="46.019128638" lon="7.219715671">
        <ele>2281.800000</ele>
        <time>2015-08-05T13:56:54Z</time>
        <speed>1.928000</speed>
      </trkpt>
      <trkpt lat="46.019133332" lon="7.219726652">
        <ele>2281.400000</ele>
        <time>2015-08-05T13:56:55Z</time>
        <speed>1.928000</speed>
      </trkpt>
      <trkpt lat="46.019127968" lon="7.219725143">
        <ele>2281.000000</ele>
        <time>2015-08-05T13:56:56Z</time>
        <speed>1.928000</speed>
      </trkpt>
      <trkpt lat="46.019127381" lon="7.219723802">
        <ele>2280.400000</ele>
        <time>2015-08-05T13:56:57Z</time>
        <speed>1.928000</speed>
      </trkpt>
      <trkpt lat="46.019123525" lon="7.219719359">
        <ele>2280.000000</ele>
        <time>2015-08-05T13:56:58Z</time>
        <speed>0.000000</speed>
      </trkpt>
      <trkpt lat="46.019123525" lon="7.219719359">
        <ele>2279.400000</ele>
        <time>2015-08-05T13:56:59Z</time>
        <speed>0.000000</speed>
      </trkpt>
      <trkpt lat="46.019138697" lon="7.219722209">
        <ele>2279.400000</ele>
        <time>2015-08-05T13:57:02Z</time>
        <speed>0.000000</speed>
      </trkpt>
      <trkpt lat="46.019137775" lon="7.219723047">
        <ele>2279.000000</ele>
        <time>2015-08-05T13:57:03Z</time>
        <speed>3.144000</speed>
      </trkpt>
      <trkpt lat="46.019139032" lon="7.219721958">
        <ele>2278.600000</ele>
        <time>2015-08-05T13:57:04Z</time>
        <speed>3.144000</speed>
      </trkpt>
      <trkpt lat="46.019138697" lon="7.219722209">
        <ele>2278.200000</ele>
        <time>2015-08-05T13:57:05Z</time>
        <speed>0.000000</speed>
      </trkpt>
      <trkpt lat="46.019138697" lon="7.219722209">
        <ele>2277.200000</ele>
        <time>2015-08-05T13:57:06Z</time>
        <speed>0.000000</speed>
      </trkpt>
      <trkpt lat="46.019155544" lon="7.219739560">
        <ele>2277.200000</ele>
        <time>2015-08-05T13:57:07Z</time>
        <speed>0.000000</speed>
      </trkpt>
      <trkpt lat="46.019178678" lon="7.219789348">
        <ele>2276.800000</ele>
        <time>2015-08-05T13:57:09Z</time>
        <speed>1.395000</speed>
      </trkpt>
      <trkpt lat="46.019189407" lon="7.219813740">
        <ele>2276.400000</ele>
        <time>2015-08-05T13:57:10Z</time>
        <speed>1.395000</speed>
      </trkpt>
      <trkpt lat="46.019199717" lon="7.219835952">
        <ele>2276.000000</ele>
        <time>2015-08-05T13:57:11Z</time>
        <speed>1.647000</speed>
      </trkpt>
      <trkpt lat="46.019216313" lon="7.219851542">
        <ele>2275.600000</ele>
        <time>2015-08-05T13:57:12Z</time>
        <speed>1.588000</speed>
      </trkpt>
      <trkpt lat="46.019230395" lon="7.219866126">
        <ele>2275.200000</ele>
        <time>2015-08-05T13:57:13Z</time>
        <speed>1.725000</speed>
      </trkpt>
      <trkpt lat="46.019244141" lon="7.219884483">
        <ele>2274.600000</ele>
        <time>2015-08-05T13:57:14Z</time>
        <speed>1.839000</speed>
      </trkpt>
      <trkpt lat="46.019259899" lon="7.219895379">
        <ele>2274.000000</ele>
        <time>2015-08-05T13:57:15Z</time>
        <speed>1.839000</speed>
      </trkpt>
      <trkpt lat="46.019271466" lon="7.219897056">
        <ele>2273.400000</ele>
        <time>2015-08-05T13:57:16Z</time>
        <speed>1.673000</speed>
      </trkpt>
      <trkpt lat="46.019275741" lon="7.219898481">
        <ele>2273.000000</ele>
        <time>2015-08-05T13:57:17Z</time>
        <speed>1.673000</speed>
      </trkpt>
      <trkpt lat="46.019280267" lon="7.219903342">
        <ele>2272.600000</ele>
        <time>2015-08-05T13:57:18Z</time>
        <speed>0.888000</speed>
      </trkpt>
      <trkpt lat="46.019280015" lon="7.219911053">
        <ele>2272.200000</ele>
        <time>2015-08-05T13:57:19Z</time>
        <speed>0.000000</speed>
      </trkpt>
      <trkpt lat="46.019277752" lon="7.219918094">
        <ele>2271.800000</ele>
        <time>2015-08-05T13:57:20Z</time>
        <speed>0.000000</speed>
      </trkpt>
      <trkpt lat="46.019277752" lon="7.219918094">
        <ele>2271.400000</ele>
        <time>2015-08-05T13:57:21Z</time>
        <speed>0.000000</speed>
      </trkpt>
      <trkpt lat="46.019285212" lon="7.219926057">
        <ele>2271.000000</ele>
        <time>2015-08-05T13:57:22Z</time>
        <speed>0.000000</speed>
      </trkpt>
      <trkpt lat="46.019347993" lon="7.219970146">
        <ele>2271.000000</ele>
        <time>2015-08-05T13:57:27Z</time>
        <speed>1.891000</speed>
      </trkpt>
      <trkpt lat="46.019361236" lon="7.219980539">
        <ele>2270.400000</ele>
        <time>2015-08-05T13:57:28Z</time>
        <speed>1.460000</speed>
      </trkpt>
      <trkpt lat="46.019370708" lon="7.219982467">
        <ele>2270.000000</ele>
        <time>2015-08-05T13:57:29Z</time>
        <speed>1.460000</speed>
      </trkpt>
      <trkpt lat="46.019366684" lon="7.219976432">
        <ele>2269.200000</ele>
        <time>2015-08-05T13:57:30Z</time>
        <speed>1.306000</speed>
      </trkpt>
      <trkpt lat="46.019365595" lon="7.219982719">
        <ele>2268.800000</ele>
        <time>2015-08-05T13:57:31Z</time>
        <speed>3.086000</speed>
      </trkpt>
      <trkpt lat="46.019403229" lon="7.220003757">
        <ele>2268.400000</ele>
        <time>2015-08-05T13:57:34Z</time>
        <speed>0.000000</speed>
      </trkpt>
      <trkpt lat="46.019419239" lon="7.220014067">
        <ele>2268.000000</ele>
        <time>2015-08-05T13:57:35Z</time>
        <speed>0.933000</speed>
      </trkpt>
      <trkpt lat="46.019424603" lon="7.220017084">
        <ele>2267.600000</ele>
        <time>2015-08-05T13:57:36Z</time>
        <speed>0.933000</speed>
      </trkpt>
      <trkpt lat="46.019433237" lon="7.220022449">
        <ele>2267.200000</ele>
        <time>2015-08-05T13:57:37Z</time>
        <speed>0.933000</speed>
      </trkpt>
      <trkpt lat="46.019440026" lon="7.220031082">
        <ele>2266.800000</ele>
        <time>2015-08-05T13:57:38Z</time>
        <speed>0.818000</speed>
      </trkpt>
      <trkpt lat="46.019442792" lon="7.220041979">
        <ele>2266.800000</ele>
        <time>2015-08-05T13:57:39Z</time>
        <speed>0.818000</speed>
      </trkpt>
      <trkpt lat="46.019453605" lon="7.220054887">
        <ele>2266.400000</ele>
        <time>2015-08-05T13:57:42Z</time>
        <speed>0.000000</speed>
      </trkpt>
      <trkpt lat="46.019450503" lon="7.220061089">
        <ele>2266.000000</ele>
        <time>2015-08-05T13:57:43Z</time>
        <speed>0.000000</speed>
      </trkpt>
      <trkpt lat="46.019450336" lon="7.220060587">
        <ele>2265.600000</ele>
        <time>2015-08-05T13:57:44Z</time>
        <speed>0.783000</speed>
      </trkpt>
      <trkpt lat="46.019450671" lon="7.220060419">
        <ele>2265.200000</ele>
        <time>2015-08-05T13:57:45Z</time>
        <speed>0.783000</speed>
      </trkpt>
      <trkpt lat="46.019450503" lon="7.220061006">
        <ele>2264.800000</ele>
        <time>2015-08-05T13:57:46Z</time>
        <speed>0.783000</speed>
      </trkpt>
      <trkpt lat="46.019450503" lon="7.220061089">
        <ele>2264.800000</ele>
        <time>2015-08-05T13:57:55Z</time>
        <speed>0.000000</speed>
      </trkpt>
      <trkpt lat="46.019424184" lon="7.220110878">
        <ele>2264.800000</ele>
        <time>2015-08-05T13:58:00Z</time>
        <speed>0.000000</speed>
      </trkpt>
      <trkpt lat="46.019422256" lon="7.220134934">
        <ele>2264.200000</ele>
        <time>2015-08-05T13:58:01Z</time>
        <speed>1.177000</speed>
      </trkpt>
      <trkpt lat="46.019419993" lon="7.220146417">
        <ele>2263.800000</ele>
        <time>2015-08-05T13:58:02Z</time>
        <speed>1.177000</speed>
      </trkpt>
      <trkpt lat="46.019422508" lon="7.220146753">
        <ele>2263.400000</ele>
        <time>2015-08-05T13:58:03Z</time>
        <speed>1.348000</speed>
      </trkpt>
      <trkpt lat="46.019423178" lon="7.220149602">
        <ele>2263.000000</ele>
        <time>2015-08-05T13:58:04Z</time>
        <speed>1.348000</speed>
      </trkpt>
      <trkpt lat="46.019424184" lon="7.220156056">
        <ele>2262.600000</ele>
        <time>2015-08-05T13:58:05Z</time>
        <speed>0.000000</speed>
      </trkpt>
      <trkpt lat="46.019444385" lon="7.220203917">
        <ele>2262.600000</ele>
        <time>2015-08-05T13:58:07Z</time>
        <speed>9.427000</speed>
      </trkpt>
      <trkpt lat="46.019451006" lon="7.220224453">
        <ele>2262.600000</ele>
        <time>2015-08-05T13:58:08Z</time>
        <speed>0.000000</speed>
      </trkpt>
      <trkpt lat="46.019465423" lon="7.220277929">
        <ele>2262.000000</ele>
        <time>2015-08-05T13:58:09Z</time>
        <speed>3.598000</speed>
      </trkpt>
      <trkpt lat="46.019471877" lon="7.220303326">
        <ele>2261.600000</ele>
        <time>2015-08-05T13:58:10Z</time>
        <speed>3.598000</speed>
      </trkpt>
      <trkpt lat="46.019479756" lon="7.220329813">
        <ele>2261.200000</ele>
        <time>2015-08-05T13:58:11Z</time>
        <speed>2.650000</speed>
      </trkpt>
      <trkpt lat="46.019486378" lon="7.220357054">
        <ele>2260.800000</ele>
        <time>2015-08-05T13:58:12Z</time>
        <speed>2.215000</speed>
      </trkpt>
      <trkpt lat="46.019496520" lon="7.220385469">
        <ele>2260.400000</ele>
        <time>2015-08-05T13:58:13Z</time>
        <speed>2.546000</speed>
      </trkpt>
      <trkpt lat="46.019493000" lon="7.220416482">
        <ele>2260.000000</ele>
        <time>2015-08-05T13:58:14Z</time>
        <speed>2.305000</speed>
      </trkpt>
      <trkpt lat="46.019491575" lon="7.220448417">
        <ele>2259.600000</ele>
        <time>2015-08-05T13:58:15Z</time>
        <speed>2.993000</speed>
      </trkpt>
      <trkpt lat="46.019498280" lon="7.220482867">
        <ele>2259.200000</ele>
        <time>2015-08-05T13:58:16Z</time>
        <speed>3.010000</speed>
      </trkpt>
      <trkpt lat="46.019499035" lon="7.220516562">
        <ele>2258.800000</ele>
        <time>2015-08-05T13:58:17Z</time>
        <speed>3.044000</speed>
      </trkpt>
      <trkpt lat="46.019501214" lon="7.220549252">
        <ele>2258.400000</ele>
        <time>2015-08-05T13:58:18Z</time>
        <speed>2.700000</speed>
      </trkpt>
      <trkpt lat="46.019501465" lon="7.220587389">
        <ele>2258.400000</ele>
        <time>2015-08-05T13:58:19Z</time>
        <speed>2.630000</speed>
      </trkpt>
      <trkpt lat="46.019499454" lon="7.220658635">
        <ele>2258.400000</ele>
        <time>2015-08-05T13:58:22Z</time>
        <speed>2.436000</speed>
      </trkpt>
      <trkpt lat="46.019494341" lon="7.220683362">
        <ele>2258.400000</ele>
        <time>2015-08-05T13:58:26Z</time>
        <speed>1.772000</speed>
      </trkpt>
      <trkpt lat="46.019497358" lon="7.220729882">
        <ele>2258.400000</ele>
        <time>2015-08-05T13:58:30Z</time>
        <speed>0.000000</speed>
      </trkpt>
      <trkpt lat="46.019505992" lon="7.220749663">
        <ele>2258.400000</ele>
        <time>2015-08-05T13:58:31Z</time>
        <speed>1.049000</speed>
      </trkpt>
      <trkpt lat="46.019502890" lon="7.220793835">
        <ele>2258.400000</ele>
        <time>2015-08-05T13:58:35Z</time>
        <speed>0.867000</speed>
      </trkpt>
      <trkpt lat="46.019469614" lon="7.220879415">
        <ele>2258.400000</ele>
        <time>2015-08-05T13:58:40Z</time>
        <speed>1.508000</speed>
      </trkpt>
      <trkpt lat="46.019422005" lon="7.220930460">
        <ele>2258.400000</ele>
        <time>2015-08-05T13:58:45Z</time>
        <speed>1.242000</speed>
      </trkpt>
      <trkpt lat="46.019371546" lon="7.220999444">
        <ele>2258.400000</ele>
        <time>2015-08-05T13:58:51Z</time>
        <speed>1.456000</speed>
      </trkpt>
      <trkpt lat="46.019315471" lon="7.221065744">
        <ele>2258.400000</ele>
        <time>2015-08-05T13:58:56Z</time>
        <speed>1.642000</speed>
      </trkpt>
      <trkpt lat="46.019300216" lon="7.221082843">
        <ele>2258.400000</ele>
        <time>2015-08-05T13:58:58Z</time>
        <speed>1.329000</speed>
      </trkpt>
      <trkpt lat="46.019290661" lon="7.221096171">
        <ele>2258.400000</ele>
        <time>2015-08-05T13:59:01Z</time>
        <speed>1.556000</speed>
      </trkpt>
      <trkpt lat="46.019272053" lon="7.221130788">
        <ele>2258.400000</ele>
        <time>2015-08-05T13:59:06Z</time>
        <speed>0.000000</speed>
      </trkpt>
      <trkpt lat="46.019257217" lon="7.221142858">
        <ele>2258.400000</ele>
        <time>2015-08-05T13:59:07Z</time>
        <speed>1.592000</speed>
      </trkpt>
      <trkpt lat="46.019243638" lon="7.221219385">
        <ele>2258.400000</ele>
        <time>2015-08-05T13:59:11Z</time>
        <speed>1.090000</speed>
      </trkpt>
      <trkpt lat="46.019251768" lon="7.221257439">
        <ele>2258.400000</ele>
        <time>2015-08-05T13:59:13Z</time>
        <speed>1.494000</speed>
      </trkpt>
      <trkpt lat="46.019264509" lon="7.221312005">
        <ele>2258.400000</ele>
        <time>2015-08-05T13:59:16Z</time>
        <speed>1.197000</speed>
      </trkpt>
      <trkpt lat="46.019275070" lon="7.221356513">
        <ele>2258.400000</ele>
        <time>2015-08-05T13:59:18Z</time>
        <speed>1.514000</speed>
      </trkpt>
      <trkpt lat="46.019284039" lon="7.221383502">
        <ele>2258.400000</ele>
        <time>2015-08-05T13:59:20Z</time>
        <speed>1.579000</speed>
      </trkpt>
      <trkpt lat="46.019282698" lon="7.221398254">
        <ele>2258.400000</ele>
        <time>2015-08-05T13:59:21Z</time>
        <speed>1.295000</speed>
      </trkpt>
      <trkpt lat="46.019262665" lon="7.221449300">
        <ele>2258.400000</ele>
        <time>2015-08-05T13:59:25Z</time>
        <speed>1.150000</speed>
      </trkpt>
      <trkpt lat="46.019261072" lon="7.221463717">
        <ele>2258.400000</ele>
        <time>2015-08-05T13:59:26Z</time>
        <speed>1.150000</speed>
      </trkpt>
      <trkpt lat="46.019258809" lon="7.221521301">
        <ele>2258.400000</ele>
        <time>2015-08-05T13:59:30Z</time>
        <speed>1.006000</speed>
      </trkpt>
      <trkpt lat="46.019283620" lon="7.221541250">
        <ele>2258.400000</ele>
        <time>2015-08-05T13:59:32Z</time>
        <speed>1.380000</speed>
      </trkpt>
      <trkpt lat="46.019305664" lon="7.221573185">
        <ele>2258.400000</ele>
        <time>2015-08-05T13:59:35Z</time>
        <speed>1.314000</speed>
      </trkpt>
      <trkpt lat="46.019315052" lon="7.221572011">
        <ele>2258.400000</ele>
        <time>2015-08-05T13:59:36Z</time>
        <speed>1.155000</speed>
      </trkpt>
      <trkpt lat="46.019319578" lon="7.221572095">
        <ele>2258.400000</ele>
        <time>2015-08-05T13:59:39Z</time>
        <speed>1.009000</speed>
      </trkpt>
      <trkpt lat="46.019317818" lon="7.221571173">
        <ele>2258.400000</ele>
        <time>2015-08-05T13:59:44Z</time>
        <speed>0.000000</speed>
      </trkpt>
      <trkpt lat="46.019373390" lon="7.221615597">
        <ele>2258.400000</ele>
        <time>2015-08-05T13:59:51Z</time>
        <speed>0.000000</speed>
      </trkpt>
      <trkpt lat="46.019386717" lon="7.221645269">
        <ele>2258.800000</ele>
        <time>2015-08-05T13:59:56Z</time>
        <speed>0.000000</speed>
      </trkpt>
      <trkpt lat="46.019388142" lon="7.221651304">
        <ele>2259.200000</ele>
        <time>2015-08-05T13:59:57Z</time>
        <speed>0.000000</speed>
      </trkpt>
      <trkpt lat="46.019392668" lon="7.221660692">
        <ele>2259.600000</ele>
        <time>2015-08-05T13:59:58Z</time>
        <speed>0.000000</speed>
      </trkpt>
      <trkpt lat="46.019395686" lon="7.221670415">
        <ele>2260.400000</ele>
        <time>2015-08-05T13:59:59Z</time>
        <speed>0.000000</speed>
      </trkpt>
      <trkpt lat="46.019411695" lon="7.221693633">
        <ele>2261.000000</ele>
        <time>2015-08-05T14:00:03Z</time>
        <speed>0.000000</speed>
      </trkpt>
      <trkpt lat="46.019412785" lon="7.221699835">
        <ele>2261.400000</ele>
        <time>2015-08-05T14:00:04Z</time>
        <speed>0.000000</speed>
      </trkpt>
      <trkpt lat="46.019407923" lon="7.221707714">
        <ele>2261.800000</ele>
        <time>2015-08-05T14:00:05Z</time>
        <speed>0.000000</speed>
      </trkpt>
      <trkpt lat="46.019409181" lon="7.221716767">
        <ele>2262.200000</ele>
        <time>2015-08-05T14:00:06Z</time>
        <speed>0.000000</speed>
      </trkpt>
      <trkpt lat="46.019404990" lon="7.221723053">
        <ele>2262.600000</ele>
        <time>2015-08-05T14:00:07Z</time>
        <speed>0.000000</speed>
      </trkpt>
      <trkpt lat="46.019414545" lon="7.221735542">
        <ele>2262.600000</ele>
        <time>2015-08-05T14:00:10Z</time>
        <speed>0.000000</speed>
      </trkpt>
      <trkpt lat="46.019391411" lon="7.221758593">
        <ele>2262.600000</ele>
        <time>2015-08-05T14:00:14Z</time>
        <speed>0.000000</speed>
      </trkpt>
      <trkpt lat="46.019395099" lon="7.221792455">
        <ele>2263.000000</ele>
        <time>2015-08-05T14:00:16Z</time>
        <speed>0.000000</speed>
      </trkpt>
      <trkpt lat="46.019396692" lon="7.221816931">
        <ele>2263.400000</ele>
        <time>2015-08-05T14:00:17Z</time>
        <speed>0.000000</speed>
      </trkpt>
      <trkpt lat="46.019398619" lon="7.221827995">
        <ele>2263.800000</ele>
        <time>2015-08-05T14:00:18Z</time>
        <speed>0.000000</speed>
      </trkpt>
      <trkpt lat="46.019398619" lon="7.221827995">
        <ele>2264.400000</ele>
        <time>2015-08-05T14:00:19Z</time>
        <speed>0.000000</speed>
      </trkpt>
      <trkpt lat="46.019398619" lon="7.221827995">
        <ele>2264.800000</ele>
        <time>2015-08-05T14:00:20Z</time>
        <speed>0.000000</speed>
      </trkpt>
      <trkpt lat="46.019397111" lon="7.221871329">
        <ele>2264.800000</ele>
        <time>2015-08-05T14:00:24Z</time>
        <speed>0.000000</speed>
      </trkpt>
      <trkpt lat="46.019399039" lon="7.221884908">
        <ele>2264.800000</ele>
        <time>2015-08-05T14:00:25Z</time>
        <speed>1.086000</speed>
      </trkpt>
      <trkpt lat="46.019408175" lon="7.221943581">
        <ele>2264.800000</ele>
        <time>2015-08-05T14:00:30Z</time>
        <speed>1.133000</speed>
      </trkpt>
      <trkpt lat="46.019410354" lon="7.221946599">
        <ele>2264.800000</ele>
        <time>2015-08-05T14:00:31Z</time>
        <speed>1.141000</speed>
      </trkpt>
      <trkpt lat="46.019421334" lon="7.221995214">
        <ele>2264.800000</ele>
        <time>2015-08-05T14:00:34Z</time>
        <speed>0.696000</speed>
      </trkpt>
      <trkpt lat="46.019424352" lon="7.222022287">
        <ele>2264.800000</ele>
        <time>2015-08-05T14:00:35Z</time>
        <speed>1.878000</speed>
      </trkpt>
      <trkpt lat="46.019420329" lon="7.222113398">
        <ele>2264.800000</ele>
        <time>2015-08-05T14:00:38Z</time>
        <speed>2.257000</speed>
      </trkpt>
      <trkpt lat="46.019428878" lon="7.222282378">
        <ele>2264.800000</ele>
        <time>2015-08-05T14:00:42Z</time>
        <speed>3.106000</speed>
      </trkpt>
      <trkpt lat="46.019437679" lon="7.222343063">
        <ele>2264.800000</ele>
        <time>2015-08-05T14:00:43Z</time>
        <speed>3.595000</speed>
      </trkpt>
      <trkpt lat="46.019461400" lon="7.222557220">
        <ele>2264.800000</ele>
        <time>2015-08-05T14:00:46Z</time>
        <speed>5.945000</speed>
      </trkpt>
      <trkpt lat="46.019475062" lon="7.222614552">
        <ele>2264.800000</ele>
        <time>2015-08-05T14:00:47Z</time>
        <speed>6.313000</speed>
      </trkpt>
      <trkpt lat="46.019467267" lon="7.222762074">
        <ele>2264.800000</ele>
        <time>2015-08-05T14:00:50Z</time>
        <speed>4.425000</speed>
      </trkpt>
      <trkpt lat="46.019440194" lon="7.222820999">
        <ele>2264.800000</ele>
        <time>2015-08-05T14:00:51Z</time>
        <speed>3.902000</speed>
      </trkpt>
      <trkpt lat="46.019421251" lon="7.222892496">
        <ele>2264.200000</ele>
        <time>2015-08-05T14:00:52Z</time>
        <speed>3.982000</speed>
      </trkpt>
      <trkpt lat="46.019406331" lon="7.222991738">
        <ele>2263.800000</ele>
        <time>2015-08-05T14:00:53Z</time>
        <speed>5.648000</speed>
      </trkpt>
      <trkpt lat="46.019399122" lon="7.223095087">
        <ele>2263.200000</ele>
        <time>2015-08-05T14:00:54Z</time>
        <speed>6.666000</speed>
      </trkpt>
      <trkpt lat="46.019392920" lon="7.223197765">
        <ele>2262.400000</ele>
        <time>2015-08-05T14:00:55Z</time>
        <speed>6.924000</speed>
      </trkpt>
      <trkpt lat="46.019380934" lon="7.223292648">
        <ele>2261.800000</ele>
        <time>2015-08-05T14:00:56Z</time>
        <speed>8.517000</speed>
      </trkpt>
      <trkpt lat="46.019384622" lon="7.223367164">
        <ele>2261.000000</ele>
        <time>2015-08-05T14:00:57Z</time>
        <speed>7.557000</speed>
      </trkpt>
      <trkpt lat="46.019375485" lon="7.223425585">
        <ele>2260.400000</ele>
        <time>2015-08-05T14:00:58Z</time>
        <speed>6.150000</speed>
      </trkpt>
      <trkpt lat="46.019359560" lon="7.223580399">
        <ele>2260.400000</ele>
        <time>2015-08-05T14:01:01Z</time>
        <speed>3.874000</speed>
      </trkpt>
      <trkpt lat="46.019362074" lon="7.223632367">
        <ele>2260.400000</ele>
        <time>2015-08-05T14:01:04Z</time>
        <speed>3.111000</speed>
      </trkpt>
      <trkpt lat="46.019391914" lon="7.223645024">
        <ele>2260.400000</ele>
        <time>2015-08-05T14:01:09Z</time>
        <speed>5.921000</speed>
      </trkpt>
      <trkpt lat="46.019402140" lon="7.223666733">
        <ele>2260.400000</ele>
        <time>2015-08-05T14:01:12Z</time>
        <speed>3.812000</speed>
      </trkpt>
      <trkpt lat="46.019402727" lon="7.223668325">
        <ele>2260.400000</ele>
        <time>2015-08-05T14:01:13Z</time>
        <speed>0.000000</speed>
      </trkpt>
      <trkpt lat="46.019417898" lon="7.223685760">
        <ele>2260.400000</ele>
        <time>2015-08-05T14:01:16Z</time>
        <speed>3.066000</speed>
      </trkpt>
      <trkpt lat="46.019435835" lon="7.223716940">
        <ele>2260.400000</ele>
        <time>2015-08-05T14:01:18Z</time>
        <speed>2.233000</speed>
      </trkpt>
      <trkpt lat="46.019495682" lon="7.223796066">
        <ele>2260.400000</ele>
        <time>2015-08-05T14:01:23Z</time>
        <speed>1.666000</speed>
      </trkpt>
      <trkpt lat="46.019541531" lon="7.223877370">
        <ele>2260.400000</ele>
        <time>2015-08-05T14:01:28Z</time>
        <speed>1.602000</speed>
      </trkpt>
      <trkpt lat="46.019592158" lon="7.224038303">
        <ele>2260.400000</ele>
        <time>2015-08-05T14:01:32Z</time>
        <speed>2.233000</speed>
      </trkpt>
      <trkpt lat="46.019658207" lon="7.224161517">
        <ele>2260.400000</ele>
        <time>2015-08-05T14:01:34Z</time>
        <speed>5.062000</speed>
      </trkpt>
      <trkpt lat="46.019702380" lon="7.224210048">
        <ele>2260.400000</ele>
        <time>2015-08-05T14:01:35Z</time>
        <speed>6.728000</speed>
      </trkpt>
      <trkpt lat="46.019723921" lon="7.224237289">
        <ele>2259.800000</ele>
        <time>2015-08-05T14:01:36Z</time>
        <speed>6.728000</speed>
      </trkpt>
      <trkpt lat="46.019740685" lon="7.224252041">
        <ele>2259.400000</ele>
        <time>2015-08-05T14:01:37Z</time>
        <speed>5.222000</speed>
      </trkpt>
      <trkpt lat="46.019750324" lon="7.224257657">
        <ele>2259.200000</ele>
        <time>2015-08-05T14:01:38Z</time>
        <speed>0.000000</speed>
      </trkpt>
      <trkpt lat="46.019778990" lon="7.224283641">
        <ele>2259.400000</ele>
        <time>2015-08-05T14:01:39Z</time>
        <speed>2.727000</speed>
      </trkpt>
      <trkpt lat="46.019801873" lon="7.224298561">
        <ele>2259.800000</ele>
        <time>2015-08-05T14:01:40Z</time>
        <speed>2.450000</speed>
      </trkpt>
      <trkpt lat="46.019827689" lon="7.224305601">
        <ele>2260.000000</ele>
        <time>2015-08-05T14:01:41Z</time>
        <speed>2.858000</speed>
      </trkpt>
      <trkpt lat="46.019849231" lon="7.224317923">
        <ele>2260.400000</ele>
        <time>2015-08-05T14:01:42Z</time>
        <speed>2.673000</speed>
      </trkpt>
      <trkpt lat="46.019870437" lon="7.224326389">
        <ele>2260.400000</ele>
        <time>2015-08-05T14:01:43Z</time>
        <speed>2.839000</speed>
      </trkpt>
      <trkpt lat="46.019921399" lon="7.224356899">
        <ele>2260.800000</ele>
        <time>2015-08-05T14:01:46Z</time>
        <speed>2.353000</speed>
      </trkpt>
      <trkpt lat="46.019936319" lon="7.224365113">
        <ele>2261.200000</ele>
        <time>2015-08-05T14:01:47Z</time>
        <speed>2.113000</speed>
      </trkpt>
      <trkpt lat="46.019954759" lon="7.224368885">
        <ele>2261.600000</ele>
        <time>2015-08-05T14:01:48Z</time>
        <speed>2.170000</speed>
      </trkpt>
      <trkpt lat="46.019971774" lon="7.224368550">
        <ele>2262.000000</ele>
        <time>2015-08-05T14:01:49Z</time>
        <speed>2.023000</speed>
      </trkpt>
      <trkpt lat="46.019994321" lon="7.224365113">
        <ele>2262.400000</ele>
        <time>2015-08-05T14:01:50Z</time>
        <speed>1.850000</speed>
      </trkpt>
      <trkpt lat="46.020101107" lon="7.224375004">
        <ele>2262.400000</ele>
        <time>2015-08-05T14:01:53Z</time>
        <speed>1.850000</speed>
      </trkpt>
      <trkpt lat="46.020163552" lon="7.224369304">
        <ele>2262.000000</ele>
        <time>2015-08-05T14:01:55Z</time>
        <speed>3.262000</speed>
      </trkpt>
      <trkpt lat="46.020198337" lon="7.224370896">
        <ele>2261.600000</ele>
        <time>2015-08-05T14:01:56Z</time>
        <speed>3.257000</speed>
      </trkpt>
      <trkpt lat="46.020223818" lon="7.224375255">
        <ele>2261.200000</ele>
        <time>2015-08-05T14:01:57Z</time>
        <speed>3.909000</speed>
      </trkpt>
      <trkpt lat="46.020245946" lon="7.224375087">
        <ele>2260.600000</ele>
        <time>2015-08-05T14:01:58Z</time>
        <speed>3.120000</speed>
      </trkpt>
      <trkpt lat="46.020266901" lon="7.224375255">
        <ele>2260.000000</ele>
        <time>2015-08-05T14:01:59Z</time>
        <speed>2.476000</speed>
      </trkpt>
      <trkpt lat="46.020293136" lon="7.224375087">
        <ele>2259.400000</ele>
        <time>2015-08-05T14:02:00Z</time>
        <speed>2.308000</speed>
      </trkpt>
      <trkpt lat="46.020319958" lon="7.224365783">
        <ele>2258.200000</ele>
        <time>2015-08-05T14:02:01Z</time>
        <speed>2.499000</speed>
      </trkpt>
      <trkpt lat="46.020350887" lon="7.224350696">
        <ele>2257.800000</ele>
        <time>2015-08-05T14:02:02Z</time>
        <speed>2.727000</speed>
      </trkpt>
      <trkpt lat="46.020384499" lon="7.224337788">
        <ele>2257.200000</ele>
        <time>2015-08-05T14:02:03Z</time>
        <speed>3.302000</speed>
      </trkpt>
      <trkpt lat="46.020420457" lon="7.224335860">
        <ele>2256.400000</ele>
        <time>2015-08-05T14:02:04Z</time>
        <speed>2.835000</speed>
      </trkpt>
      <trkpt lat="46.020452728" lon="7.224332507">
        <ele>2255.600000</ele>
        <time>2015-08-05T14:02:05Z</time>
        <speed>3.440000</speed>
      </trkpt>
      <trkpt lat="46.020475191" lon="7.224330496">
        <ele>2254.800000</ele>
        <time>2015-08-05T14:02:06Z</time>
        <speed>3.909000</speed>
      </trkpt>
      <trkpt lat="46.020493799" lon="7.224330915">
        <ele>2254.000000</ele>
        <time>2015-08-05T14:02:07Z</time>
        <speed>3.490000</speed>
      </trkpt>
      <trkpt lat="46.020520705" lon="7.224327394">
        <ele>2253.000000</ele>
        <time>2015-08-05T14:02:08Z</time>
        <speed>2.696000</speed>
      </trkpt>
      <trkpt lat="46.020553813" lon="7.224315911">
        <ele>2252.200000</ele>
        <time>2015-08-05T14:02:09Z</time>
        <speed>2.226000</speed>
      </trkpt>
      <trkpt lat="46.020594549" lon="7.224307613">
        <ele>2251.200000</ele>
        <time>2015-08-05T14:02:10Z</time>
        <speed>2.745000</speed>
      </trkpt>
      <trkpt lat="46.020636124" lon="7.224298812">
        <ele>2250.400000</ele>
        <time>2015-08-05T14:02:11Z</time>
        <speed>4.490000</speed>
      </trkpt>
      <trkpt lat="46.020684320" lon="7.224301243">
        <ele>2249.200000</ele>
        <time>2015-08-05T14:02:12Z</time>
        <speed>4.233000</speed>
      </trkpt>
      <trkpt lat="46.020728325" lon="7.224302584">
        <ele>2248.000000</ele>
        <time>2015-08-05T14:02:13Z</time>
        <speed>4.656000</speed>
      </trkpt>
      <trkpt lat="46.020766378" lon="7.224302668">
        <ele>2247.000000</ele>
        <time>2015-08-05T14:02:14Z</time>
        <speed>4.453000</speed>
      </trkpt>
      <trkpt lat="46.020808791" lon="7.224288754">
        <ele>2245.800000</ele>
        <time>2015-08-05T14:02:15Z</time>
        <speed>4.626000</speed>
      </trkpt>
      <trkpt lat="46.020860591" lon="7.224294453">
        <ele>2244.800000</ele>
        <time>2015-08-05T14:02:16Z</time>
        <speed>4.581000</speed>
      </trkpt>
      <trkpt lat="46.020910379" lon="7.224283138">
        <ele>2243.600000</ele>
        <time>2015-08-05T14:02:17Z</time>
        <speed>5.575000</speed>
      </trkpt>
      <trkpt lat="46.020953714" lon="7.224277522">
        <ele>2242.600000</ele>
        <time>2015-08-05T14:02:18Z</time>
        <speed>6.465000</speed>
      </trkpt>
      <trkpt lat="46.020992941" lon="7.224274756">
        <ele>2241.400000</ele>
        <time>2015-08-05T14:02:19Z</time>
        <speed>5.832000</speed>
      </trkpt>
      <trkpt lat="46.021032588" lon="7.224265871">
        <ele>2240.200000</ele>
        <time>2015-08-05T14:02:20Z</time>
        <speed>5.184000</speed>
      </trkpt>
      <trkpt lat="46.021066786" lon="7.224256483">
        <ele>2239.200000</ele>
        <time>2015-08-05T14:02:21Z</time>
        <speed>4.444000</speed>
      </trkpt>
      <trkpt lat="46.021098888" lon="7.224255897">
        <ele>2238.200000</ele>
        <time>2015-08-05T14:02:22Z</time>
        <speed>4.509000</speed>
      </trkpt>
      <trkpt lat="46.021130069" lon="7.224244414">
        <ele>2237.400000</ele>
        <time>2015-08-05T14:02:23Z</time>
        <speed>3.945000</speed>
      </trkpt>
      <trkpt lat="46.021164686" lon="7.224229829">
        <ele>2236.400000</ele>
        <time>2015-08-05T14:02:24Z</time>
        <speed>3.759000</speed>
      </trkpt>
      <trkpt lat="46.021199052" lon="7.224220357">
        <ele>2235.600000</ele>
        <time>2015-08-05T14:02:25Z</time>
        <speed>3.772000</speed>
      </trkpt>
      <trkpt lat="46.021229646" lon="7.224211976">
        <ele>2234.400000</ele>
        <time>2015-08-05T14:02:26Z</time>
        <speed>3.656000</speed>
      </trkpt>
      <trkpt lat="46.021252193" lon="7.224214239">
        <ele>2233.400000</ele>
        <time>2015-08-05T14:02:27Z</time>
        <speed>3.759000</speed>
      </trkpt>
      <trkpt lat="46.021274992" lon="7.224219268">
        <ele>2232.600000</ele>
        <time>2015-08-05T14:02:28Z</time>
        <speed>3.093000</speed>
      </trkpt>
      <trkpt lat="46.021293181" lon="7.224224297">
        <ele>2231.800000</ele>
        <time>2015-08-05T14:02:29Z</time>
        <speed>3.093000</speed>
      </trkpt>
      <trkpt lat="46.021308520" lon="7.224225806">
        <ele>2231.000000</ele>
        <time>2015-08-05T14:02:30Z</time>
        <speed>3.093000</speed>
      </trkpt>
      <trkpt lat="46.021320674" lon="7.224228488">
        <ele>2230.400000</ele>
        <time>2015-08-05T14:02:31Z</time>
        <speed>2.281000</speed>
      </trkpt>
      <trkpt lat="46.021334504" lon="7.224238798">
        <ele>2229.600000</ele>
        <time>2015-08-05T14:02:32Z</time>
        <speed>1.755000</speed>
      </trkpt>
      <trkpt lat="46.021352944" lon="7.224262686">
        <ele>2229.000000</ele>
        <time>2015-08-05T14:02:33Z</time>
        <speed>1.578000</speed>
      </trkpt>
      <trkpt lat="46.021374821" lon="7.224289424">
        <ele>2228.400000</ele>
        <time>2015-08-05T14:02:34Z</time>
        <speed>2.166000</speed>
      </trkpt>
      <trkpt lat="46.021398709" lon="7.224301578">
        <ele>2227.800000</ele>
        <time>2015-08-05T14:02:35Z</time>
        <speed>2.271000</speed>
      </trkpt>
      <trkpt lat="46.021422514" lon="7.224307865">
        <ele>2227.200000</ele>
        <time>2015-08-05T14:02:36Z</time>
        <speed>2.271000</speed>
      </trkpt>
      <trkpt lat="46.021449252" lon="7.224307613">
        <ele>2226.400000</ele>
        <time>2015-08-05T14:02:37Z</time>
        <speed>2.854000</speed>
      </trkpt>
      <trkpt lat="46.021478086" lon="7.224319934">
        <ele>2225.600000</ele>
        <time>2015-08-05T14:02:38Z</time>
        <speed>2.877000</speed>
      </trkpt>
      <trkpt lat="46.021510608" lon="7.224329741">
        <ele>2224.800000</ele>
        <time>2015-08-05T14:02:39Z</time>
        <speed>2.916000</speed>
      </trkpt>
      <trkpt lat="46.021544303" lon="7.224337034">
        <ele>2223.800000</ele>
        <time>2015-08-05T14:02:40Z</time>
        <speed>3.369000</speed>
      </trkpt>
      <trkpt lat="46.021572885" lon="7.224347427">
        <ele>2223.000000</ele>
        <time>2015-08-05T14:02:41Z</time>
        <speed>3.445000</speed>
      </trkpt>
      <trkpt lat="46.021604066" lon="7.224362682">
        <ele>2222.200000</ele>
        <time>2015-08-05T14:02:42Z</time>
        <speed>3.445000</speed>
      </trkpt>
      <trkpt lat="46.021640276" lon="7.224367376">
        <ele>2221.200000</ele>
        <time>2015-08-05T14:02:43Z</time>
        <speed>3.343000</speed>
      </trkpt>
      <trkpt lat="46.021675899" lon="7.224385481">
        <ele>2220.200000</ele>
        <time>2015-08-05T14:02:44Z</time>
        <speed>3.312000</speed>
      </trkpt>
      <trkpt lat="46.021714288" lon="7.224406771">
        <ele>2219.200000</ele>
        <time>2015-08-05T14:02:45Z</time>
        <speed>3.765000</speed>
      </trkpt>
      <trkpt lat="46.021759466" lon="7.224408699">
        <ele>2218.200000</ele>
        <time>2015-08-05T14:02:46Z</time>
        <speed>4.208000</speed>
      </trkpt>
      <trkpt lat="46.021803807" lon="7.224421523">
        <ele>2217.000000</ele>
        <time>2015-08-05T14:02:47Z</time>
        <speed>4.878000</speed>
      </trkpt>
      <trkpt lat="46.021834652" lon="7.224424708">
        <ele>2215.800000</ele>
        <time>2015-08-05T14:02:48Z</time>
        <speed>4.160000</speed>
      </trkpt>
      <trkpt lat="46.021860217" lon="7.224434012">
        <ele>2214.600000</ele>
        <time>2015-08-05T14:02:49Z</time>
        <speed>3.713000</speed>
      </trkpt>
      <trkpt lat="46.021878405" lon="7.224449267">
        <ele>2213.400000</ele>
        <time>2015-08-05T14:02:50Z</time>
        <speed>2.977000</speed>
      </trkpt>
      <trkpt lat="46.021887290" lon="7.224476928">
        <ele>2211.000000</ele>
        <time>2015-08-05T14:02:51Z</time>
        <speed>2.752000</speed>
      </trkpt>
      <trkpt lat="46.021903048" lon="7.224507773">
        <ele>2210.000000</ele>
        <time>2015-08-05T14:02:52Z</time>
        <speed>2.036000</speed>
      </trkpt>
      <trkpt lat="46.021913274" lon="7.224541217">
        <ele>2209.000000</ele>
        <time>2015-08-05T14:02:53Z</time>
        <speed>2.696000</speed>
      </trkpt>
      <trkpt lat="46.021908329" lon="7.224579773">
        <ele>2208.000000</ele>
        <time>2015-08-05T14:02:54Z</time>
        <speed>3.228000</speed>
      </trkpt>
      <trkpt lat="46.021908497" lon="7.224629646">
        <ele>2207.200000</ele>
        <time>2015-08-05T14:02:55Z</time>
        <speed>3.032000</speed>
      </trkpt>
      <trkpt lat="46.021929870" lon="7.224662251">
        <ele>2206.400000</ele>
        <time>2015-08-05T14:02:56Z</time>
        <speed>4.200000</speed>
      </trkpt>
      <trkpt lat="46.021959542" lon="7.224682200">
        <ele>2205.400000</ele>
        <time>2015-08-05T14:02:57Z</time>
        <speed>3.451000</speed>
      </trkpt>
      <trkpt lat="46.021985861" lon="7.224709442">
        <ele>2204.800000</ele>
        <time>2015-08-05T14:02:58Z</time>
        <speed>3.888000</speed>
      </trkpt>
      <trkpt lat="46.022003883" lon="7.224753279">
        <ele>2204.000000</ele>
        <time>2015-08-05T14:02:59Z</time>
        <speed>4.027000</speed>
      </trkpt>
      <trkpt lat="46.022032716" lon="7.224802816">
        <ele>2203.200000</ele>
        <time>2015-08-05T14:03:00Z</time>
        <speed>4.293000</speed>
      </trkpt>
      <trkpt lat="46.022057946" lon="7.224853107">
        <ele>2202.400000</ele>
        <time>2015-08-05T14:03:01Z</time>
        <speed>4.812000</speed>
      </trkpt>
      <trkpt lat="46.022081918" lon="7.224909434">
        <ele>2201.600000</ele>
        <time>2015-08-05T14:03:02Z</time>
        <speed>4.834000</speed>
      </trkpt>
      <trkpt lat="46.022113350" lon="7.224953690">
        <ele>2201.600000</ele>
        <time>2015-08-05T14:03:03Z</time>
        <speed>5.015000</speed>
      </trkpt>
      <trkpt lat="46.022147045" lon="7.224999623">
        <ele>2201.200000</ele>
        <time>2015-08-05T14:03:05Z</time>
        <speed>3.989000</speed>
      </trkpt>
      <trkpt lat="46.022157355" lon="7.225022673">
        <ele>2200.800000</ele>
        <time>2015-08-05T14:03:06Z</time>
        <speed>2.862000</speed>
      </trkpt>
      <trkpt lat="46.022173197" lon="7.225034911">
        <ele>2200.400000</ele>
        <time>2015-08-05T14:03:07Z</time>
        <speed>2.611000</speed>
      </trkpt>
      <trkpt lat="46.022172610" lon="7.225038515">
        <ele>2200.000000</ele>
        <time>2015-08-05T14:03:08Z</time>
        <speed>2.076000</speed>
      </trkpt>
      <trkpt lat="46.022171102" lon="7.225033821">
        <ele>2199.600000</ele>
        <time>2015-08-05T14:03:09Z</time>
        <speed>2.076000</speed>
      </trkpt>
      <trkpt lat="46.022171018" lon="7.225034492">
        <ele>2199.600000</ele>
        <time>2015-08-05T14:03:10Z</time>
        <speed>0.000000</speed>
      </trkpt>
      <trkpt lat="46.022171018" lon="7.225034492">
        <ele>2199.600000</ele>
        <time>2015-08-05T14:03:19Z</time>
        <speed>0.000000</speed>
      </trkpt>
      <trkpt lat="46.022181998" lon="7.225033570">
        <ele>2199.600000</ele>
        <time>2015-08-05T14:03:23Z</time>
        <speed>0.000000</speed>
      </trkpt>
      <trkpt lat="46.022240504" lon="7.225091070">
        <ele>2199.600000</ele>
        <time>2015-08-05T14:03:26Z</time>
        <speed>1.496000</speed>
      </trkpt>
      <trkpt lat="46.022265063" lon="7.225126693">
        <ele>2199.000000</ele>
        <time>2015-08-05T14:03:27Z</time>
        <speed>5.184000</speed>
      </trkpt>
      <trkpt lat="46.022296746" lon="7.225166255">
        <ele>2198.600000</ele>
        <time>2015-08-05T14:03:28Z</time>
        <speed>3.175000</speed>
      </trkpt>
      <trkpt lat="46.022320635" lon="7.225210344">
        <ele>2197.800000</ele>
        <time>2015-08-05T14:03:29Z</time>
        <speed>4.259000</speed>
      </trkpt>
      <trkpt lat="46.022346283" lon="7.225256864">
        <ele>2197.000000</ele>
        <time>2015-08-05T14:03:30Z</time>
        <speed>4.050000</speed>
      </trkpt>
      <trkpt lat="46.022382996" lon="7.225276477">
        <ele>2196.200000</ele>
        <time>2015-08-05T14:03:31Z</time>
        <speed>4.200000</speed>
      </trkpt>
      <trkpt lat="46.022395820" lon="7.225274633">
        <ele>2195.400000</ele>
        <time>2015-08-05T14:03:32Z</time>
        <speed>6.029000</speed>
      </trkpt>
      <trkpt lat="46.022404370" lon="7.225266251">
        <ele>2194.600000</ele>
        <time>2015-08-05T14:03:33Z</time>
        <speed>0.000000</speed>
      </trkpt>
      <trkpt lat="46.022443010" lon="7.225245297">
        <ele>2193.800000</ele>
        <time>2015-08-05T14:03:34Z</time>
        <speed>2.904000</speed>
      </trkpt>
      <trkpt lat="46.022467821" lon="7.225227192">
        <ele>2193.000000</ele>
        <time>2015-08-05T14:03:35Z</time>
        <speed>2.780000</speed>
      </trkpt>
      <trkpt lat="46.022494978" lon="7.225209506">
        <ele>2192.000000</ele>
        <time>2015-08-05T14:03:36Z</time>
        <speed>2.989000</speed>
      </trkpt>
      <trkpt lat="46.022549628" lon="7.225205818">
        <ele>2192.000000</ele>
        <time>2015-08-05T14:03:38Z</time>
        <speed>3.792000</speed>
      </trkpt>
      <trkpt lat="46.022642919" lon="7.225305982">
        <ele>2192.000000</ele>
        <time>2015-08-05T14:03:42Z</time>
        <speed>3.434000</speed>
      </trkpt>
      <trkpt lat="46.022728750" lon="7.225333055">
        <ele>2191.600000</ele>
        <time>2015-08-05T14:03:45Z</time>
        <speed>3.023000</speed>
      </trkpt>
      <trkpt lat="46.022765546" lon="7.225346215">
        <ele>2191.200000</ele>
        <time>2015-08-05T14:03:46Z</time>
        <speed>3.237000</speed>
      </trkpt>
      <trkpt lat="46.022798571" lon="7.225357866">
        <ele>2190.800000</ele>
        <time>2015-08-05T14:03:47Z</time>
        <speed>3.867000</speed>
      </trkpt>
      <trkpt lat="46.022834278" lon="7.225364068">
        <ele>2190.400000</ele>
        <time>2015-08-05T14:03:48Z</time>
        <speed>4.012000</speed>
      </trkpt>
      <trkpt lat="46.022879791" lon="7.225377312">
        <ele>2189.800000</ele>
        <time>2015-08-05T14:03:49Z</time>
        <speed>3.638000</speed>
      </trkpt>
      <trkpt lat="46.022926479" lon="7.225379826">
        <ele>2189.200000</ele>
        <time>2015-08-05T14:03:50Z</time>
        <speed>4.945000</speed>
      </trkpt>
      <trkpt lat="46.022969562" lon="7.225389549">
        <ele>2188.400000</ele>
        <time>2015-08-05T14:03:51Z</time>
        <speed>5.197000</speed>
      </trkpt>
      <trkpt lat="46.023019853" lon="7.225397847">
        <ele>2187.600000</ele>
        <time>2015-08-05T14:03:52Z</time>
        <speed>5.135000</speed>
      </trkpt>
      <trkpt lat="46.023077101" lon="7.225408911">
        <ele>2187.000000</ele>
        <time>2015-08-05T14:03:53Z</time>
        <speed>5.261000</speed>
      </trkpt>
      <trkpt lat="46.023127561" lon="7.225421652">
        <ele>2186.200000</ele>
        <time>2015-08-05T14:03:54Z</time>
        <speed>6.115000</speed>
      </trkpt>
      <trkpt lat="46.023182881" lon="7.225433554">
        <ele>2185.400000</ele>
        <time>2015-08-05T14:03:55Z</time>
        <speed>5.979000</speed>
      </trkpt>
      <trkpt lat="46.023235352" lon="7.225440930">
        <ele>2184.600000</ele>
        <time>2015-08-05T14:03:56Z</time>
        <speed>6.168000</speed>
      </trkpt>
      <trkpt lat="46.023287236" lon="7.225443445">
        <ele>2183.800000</ele>
        <time>2015-08-05T14:03:57Z</time>
        <speed>5.475000</speed>
      </trkpt>
      <trkpt lat="46.023334007" lon="7.225460041">
        <ele>2183.000000</ele>
        <time>2015-08-05T14:03:58Z</time>
        <speed>6.115000</speed>
      </trkpt>
      <trkpt lat="46.023384131" lon="7.225476302">
        <ele>2182.200000</ele>
        <time>2015-08-05T14:03:59Z</time>
        <speed>5.273000</speed>
      </trkpt>
      <trkpt lat="46.023428052" lon="7.225505974">
        <ele>2181.400000</ele>
        <time>2015-08-05T14:04:00Z</time>
        <speed>5.222000</speed>
      </trkpt>
      <trkpt lat="46.023473146" lon="7.225536987">
        <ele>2180.600000</ele>
        <time>2015-08-05T14:04:01Z</time>
        <speed>6.221000</speed>
      </trkpt>
      <trkpt lat="46.023507931" lon="7.225581495">
        <ele>2180.000000</ele>
        <time>2015-08-05T14:04:02Z</time>
        <speed>5.801000</speed>
      </trkpt>
      <trkpt lat="46.023542716" lon="7.225619381">
        <ele>2179.200000</ele>
        <time>2015-08-05T14:04:03Z</time>
        <speed>5.447000</speed>
      </trkpt>
      <trkpt lat="46.023577166" lon="7.225662045">
        <ele>2178.600000</ele>
        <time>2015-08-05T14:04:04Z</time>
        <speed>5.147000</speed>
      </trkpt>
      <trkpt lat="46.023615220" lon="7.225701188">
        <ele>2178.000000</ele>
        <time>2015-08-05T14:04:05Z</time>
        <speed>5.447000</speed>
      </trkpt>
      <trkpt lat="46.023658303" lon="7.225739997">
        <ele>2177.400000</ele>
        <time>2015-08-05T14:04:06Z</time>
        <speed>5.434000</speed>
      </trkpt>
      <trkpt lat="46.023703984" lon="7.225782409">
        <ele>2176.800000</ele>
        <time>2015-08-05T14:04:07Z</time>
        <speed>5.560000</speed>
      </trkpt>
      <trkpt lat="46.023750336" lon="7.225819457">
        <ele>2176.200000</ele>
        <time>2015-08-05T14:04:08Z</time>
        <speed>5.832000</speed>
      </trkpt>
      <trkpt lat="46.023791323" lon="7.225852901">
        <ele>2175.600000</ele>
        <time>2015-08-05T14:04:09Z</time>
        <speed>5.880000</speed>
      </trkpt>
      <trkpt lat="46.023832562" lon="7.225871425">
        <ele>2175.000000</ele>
        <time>2015-08-05T14:04:10Z</time>
        <speed>5.913000</speed>
      </trkpt>
      <trkpt lat="46.023868269" lon="7.225901767">
        <ele>2174.400000</ele>
        <time>2015-08-05T14:04:11Z</time>
        <speed>4.812000</speed>
      </trkpt>
      <trkpt lat="46.023894588" lon="7.225935463">
        <ele>2173.800000</ele>
        <time>2015-08-05T14:04:12Z</time>
        <speed>4.845000</speed>
      </trkpt>
      <trkpt lat="46.023928954" lon="7.225965470">
        <ele>2173.000000</ele>
        <time>2015-08-05T14:04:13Z</time>
        <speed>4.453000</speed>
      </trkpt>
      <trkpt lat="46.023962650" lon="7.225994974">
        <ele>2172.600000</ele>
        <time>2015-08-05T14:04:14Z</time>
        <speed>4.538000</speed>
      </trkpt>
      <trkpt lat="46.023992741" lon="7.226021042">
        <ele>2172.200000</ele>
        <time>2015-08-05T14:04:15Z</time>
        <speed>4.748000</speed>
      </trkpt>
      <trkpt lat="46.024021574" lon="7.226045349">
        <ele>2171.800000</ele>
        <time>2015-08-05T14:04:16Z</time>
        <speed>4.389000</speed>
      </trkpt>
      <trkpt lat="46.024051246" lon="7.226066053">
        <ele>2171.400000</ele>
        <time>2015-08-05T14:04:17Z</time>
        <speed>4.389000</speed>
      </trkpt>
      <trkpt lat="46.024077314" lon="7.226078961">
        <ele>2171.000000</ele>
        <time>2015-08-05T14:04:18Z</time>
        <speed>3.720000</speed>
      </trkpt>
      <trkpt lat="46.024103717" lon="7.226098574">
        <ele>2170.400000</ele>
        <time>2015-08-05T14:04:19Z</time>
        <speed>4.367000</speed>
      </trkpt>
      <trkpt lat="46.024137664" lon="7.226107711">
        <ele>2170.000000</ele>
        <time>2015-08-05T14:04:20Z</time>
        <speed>4.834000</speed>
      </trkpt>
      <trkpt lat="46.024172616" lon="7.226120200">
        <ele>2169.400000</ele>
        <time>2015-08-05T14:04:21Z</time>
        <speed>3.819000</speed>
      </trkpt>
      <trkpt lat="46.024204551" lon="7.226134114">
        <ele>2169.000000</ele>
        <time>2015-08-05T14:04:22Z</time>
        <speed>4.151000</speed>
      </trkpt>
      <trkpt lat="46.024226093" lon="7.226152973">
        <ele>2168.600000</ele>
        <time>2015-08-05T14:04:23Z</time>
        <speed>4.057000</speed>
      </trkpt>
      <trkpt lat="46.024245706" lon="7.226166468">
        <ele>2168.000000</ele>
        <time>2015-08-05T14:04:24Z</time>
        <speed>3.644000</speed>
      </trkpt>
      <trkpt lat="46.024274373" lon="7.226158840">
        <ele>2167.600000</ele>
        <time>2015-08-05T14:04:25Z</time>
        <speed>3.199000</speed>
      </trkpt>
      <trkpt lat="46.024307146" lon="7.226147525">
        <ele>2167.200000</ele>
        <time>2015-08-05T14:04:26Z</time>
        <speed>3.071000</speed>
      </trkpt>
      <trkpt lat="46.024337824" lon="7.226178202">
        <ele>2166.600000</ele>
        <time>2015-08-05T14:04:27Z</time>
        <speed>3.559000</speed>
      </trkpt>
      <trkpt lat="46.024367915" lon="7.226211981">
        <ele>2166.000000</ele>
        <time>2015-08-05T14:04:28Z</time>
        <speed>3.650000</speed>
      </trkpt>
      <trkpt lat="46.024396832" lon="7.226254813">
        <ele>2165.000000</ele>
        <time>2015-08-05T14:04:29Z</time>
        <speed>4.080000</speed>
      </trkpt>
      <trkpt lat="46.024425582" lon="7.226313486">
        <ele>2164.200000</ele>
        <time>2015-08-05T14:04:30Z</time>
        <speed>4.225000</speed>
      </trkpt>
      <trkpt lat="46.024447626" lon="7.226378195">
        <ele>2163.600000</ele>
        <time>2015-08-05T14:04:31Z</time>
        <speed>5.026000</speed>
      </trkpt>
      <trkpt lat="46.024473107" lon="7.226428402">
        <ele>2162.800000</ele>
        <time>2015-08-05T14:04:32Z</time>
        <speed>5.352000</speed>
      </trkpt>
      <trkpt lat="46.024504540" lon="7.226459751">
        <ele>2161.800000</ele>
        <time>2015-08-05T14:04:33Z</time>
        <speed>4.791000</speed>
      </trkpt>
      <trkpt lat="46.024537564" lon="7.226460421">
        <ele>2161.000000</ele>
        <time>2015-08-05T14:04:34Z</time>
        <speed>4.856000</speed>
      </trkpt>
      <trkpt lat="46.024561956" lon="7.226482549">
        <ele>2160.200000</ele>
        <time>2015-08-05T14:04:35Z</time>
        <speed>4.168000</speed>
      </trkpt>
      <trkpt lat="46.024586179" lon="7.226528482">
        <ele>2159.400000</ele>
        <time>2015-08-05T14:04:36Z</time>
        <speed>3.881000</speed>
      </trkpt>
      <trkpt lat="46.024620713" lon="7.226565698">
        <ele>2158.400000</ele>
        <time>2015-08-05T14:04:37Z</time>
        <speed>3.752000</speed>
      </trkpt>
      <trkpt lat="46.024649798" lon="7.226588664">
        <ele>2157.800000</ele>
        <time>2015-08-05T14:04:38Z</time>
        <speed>4.823000</speed>
      </trkpt>
      <trkpt lat="46.024675949" lon="7.226582797">
        <ele>2157.000000</ele>
        <time>2015-08-05T14:04:39Z</time>
        <speed>4.453000</speed>
      </trkpt>
      <trkpt lat="46.024683409" lon="7.226588999">
        <ele>2156.200000</ele>
        <time>2015-08-05T14:04:40Z</time>
        <speed>0.000000</speed>
      </trkpt>
      <trkpt lat="46.024721798" lon="7.226627389">
        <ele>2155.400000</ele>
        <time>2015-08-05T14:04:41Z</time>
        <speed>3.257000</speed>
      </trkpt>
      <trkpt lat="46.024755745" lon="7.226652115">
        <ele>2154.600000</ele>
        <time>2015-08-05T14:04:42Z</time>
        <speed>3.429000</speed>
      </trkpt>
      <trkpt lat="46.024795895" lon="7.226681536">
        <ele>2153.800000</ele>
        <time>2015-08-05T14:04:43Z</time>
        <speed>3.619000</speed>
      </trkpt>
      <trkpt lat="46.024831015" lon="7.226707184">
        <ele>2153.000000</ele>
        <time>2015-08-05T14:04:44Z</time>
        <speed>4.697000</speed>
      </trkpt>
      <trkpt lat="46.024871415" lon="7.226709280">
        <ele>2152.200000</ele>
        <time>2015-08-05T14:04:45Z</time>
        <speed>4.656000</speed>
      </trkpt>
      <trkpt lat="46.024919779" lon="7.226711459">
        <ele>2151.600000</ele>
        <time>2015-08-05T14:04:46Z</time>
        <speed>5.003000</speed>
      </trkpt>
      <trkpt lat="46.024967388" lon="7.226743059">
        <ele>2151.000000</ele>
        <time>2015-08-05T14:04:47Z</time>
        <speed>5.135000</speed>
      </trkpt>
      <trkpt lat="46.025012399" lon="7.226761667">
        <ele>2150.000000</ele>
        <time>2015-08-05T14:04:48Z</time>
        <speed>6.203000</speed>
      </trkpt>
      <trkpt lat="46.025053638" lon="7.226760661">
        <ele>2149.200000</ele>
        <time>2015-08-05T14:04:49Z</time>
        <speed>5.648000</speed>
      </trkpt>
      <trkpt lat="46.025093201" lon="7.226766528">
        <ele>2148.400000</ele>
        <time>2015-08-05T14:04:50Z</time>
        <speed>5.098000</speed>
      </trkpt>
      <trkpt lat="46.025135110" lon="7.226760074">
        <ele>2147.600000</ele>
        <time>2015-08-05T14:04:51Z</time>
        <speed>4.717000</speed>
      </trkpt>
      <trkpt lat="46.025177020" lon="7.226761918">
        <ele>2146.800000</ele>
        <time>2015-08-05T14:04:52Z</time>
        <speed>4.481000</speed>
      </trkpt>
      <trkpt lat="46.025207362" lon="7.226770887">
        <ele>2146.000000</ele>
        <time>2015-08-05T14:04:53Z</time>
        <speed>4.293000</speed>
      </trkpt>
      <trkpt lat="46.025228401" lon="7.226779520">
        <ele>2144.400000</ele>
        <time>2015-08-05T14:04:54Z</time>
        <speed>4.310000</speed>
      </trkpt>
      <trkpt lat="46.025247260" lon="7.226770216">
        <ele>2144.000000</ele>
        <time>2015-08-05T14:04:55Z</time>
        <speed>2.598000</speed>
      </trkpt>
      <trkpt lat="46.025272741" lon="7.226750183">
        <ele>2143.600000</ele>
        <time>2015-08-05T14:04:56Z</time>
        <speed>2.624000</speed>
      </trkpt>
      <trkpt lat="46.025305933" lon="7.226730486">
        <ele>2143.000000</ele>
        <time>2015-08-05T14:04:57Z</time>
        <speed>2.605000</speed>
      </trkpt>
      <trkpt lat="46.025323116" lon="7.226723278">
        <ele>2142.600000</ele>
        <time>2015-08-05T14:04:58Z</time>
        <speed>3.888000</speed>
      </trkpt>
      <trkpt lat="46.025335857" lon="7.226741718">
        <ele>2142.000000</ele>
        <time>2015-08-05T14:04:59Z</time>
        <speed>2.969000</speed>
      </trkpt>
      <trkpt lat="46.025340551" lon="7.226776922">
        <ele>2141.600000</ele>
        <time>2015-08-05T14:05:00Z</time>
        <speed>2.969000</speed>
      </trkpt>
      <trkpt lat="46.025338371" lon="7.226817993">
        <ele>2141.200000</ele>
        <time>2015-08-05T14:05:01Z</time>
        <speed>1.701000</speed>
      </trkpt>
      <trkpt lat="46.025347256" lon="7.226862166">
        <ele>2140.800000</ele>
        <time>2015-08-05T14:05:02Z</time>
        <speed>2.656000</speed>
      </trkpt>
      <trkpt lat="46.025359913" lon="7.226896783">
        <ele>2140.400000</ele>
        <time>2015-08-05T14:05:03Z</time>
        <speed>3.375000</speed>
      </trkpt>
      <trkpt lat="46.025381790" lon="7.226922515">
        <ele>2139.800000</ele>
        <time>2015-08-05T14:05:04Z</time>
        <speed>3.496000</speed>
      </trkpt>
      <trkpt lat="46.025400733" lon="7.226932574">
        <ele>2139.200000</ele>
        <time>2015-08-05T14:05:05Z</time>
        <speed>3.322000</speed>
      </trkpt>
      <trkpt lat="46.025410120" lon="7.226952774">
        <ele>2138.800000</ele>
        <time>2015-08-05T14:05:06Z</time>
        <speed>2.666000</speed>
      </trkpt>
      <trkpt lat="46.025419760" lon="7.226965179">
        <ele>2138.200000</ele>
        <time>2015-08-05T14:05:07Z</time>
        <speed>2.666000</speed>
      </trkpt>
      <trkpt lat="46.025417077" lon="7.226968784">
        <ele>2137.600000</ele>
        <time>2015-08-05T14:05:08Z</time>
        <speed>2.666000</speed>
      </trkpt>
      <trkpt lat="46.025417329" lon="7.226965012">
        <ele>2137.600000</ele>
        <time>2015-08-05T14:05:10Z</time>
        <speed>2.186000</speed>
      </trkpt>
      <trkpt lat="46.025426297" lon="7.226990493">
        <ele>2137.200000</ele>
        <time>2015-08-05T14:05:14Z</time>
        <speed>0.000000</speed>
      </trkpt>
      <trkpt lat="46.025433087" lon="7.227002227">
        <ele>2136.800000</ele>
        <time>2015-08-05T14:05:15Z</time>
        <speed>0.000000</speed>
      </trkpt>
      <trkpt lat="46.025440631" lon="7.227016477">
        <ele>2136.400000</ele>
        <time>2015-08-05T14:05:16Z</time>
        <speed>0.881000</speed>
      </trkpt>
      <trkpt lat="46.025447420" lon="7.227044640">
        <ele>2136.000000</ele>
        <time>2015-08-05T14:05:17Z</time>
        <speed>0.881000</speed>
      </trkpt>
      <trkpt lat="46.025455802" lon="7.227057632">
        <ele>2135.600000</ele>
        <time>2015-08-05T14:05:18Z</time>
        <speed>0.881000</speed>
      </trkpt>
      <trkpt lat="46.025462507" lon="7.227064421">
        <ele>2135.600000</ele>
        <time>2015-08-05T14:05:20Z</time>
        <speed>0.842000</speed>
      </trkpt>
      <trkpt lat="46.025466950" lon="7.227070875">
        <ele>2135.600000</ele>
        <time>2015-08-05T14:05:21Z</time>
        <speed>1.074000</speed>
      </trkpt>
      <trkpt lat="46.025491592" lon="7.227129046">
        <ele>2135.600000</ele>
        <time>2015-08-05T14:05:23Z</time>
        <speed>0.992000</speed>
      </trkpt>
      <trkpt lat="46.025519672" lon="7.227214457">
        <ele>2135.000000</ele>
        <time>2015-08-05T14:05:25Z</time>
        <speed>2.832000</speed>
      </trkpt>
      <trkpt lat="46.025545572" lon="7.227268939">
        <ele>2134.600000</ele>
        <time>2015-08-05T14:05:26Z</time>
        <speed>3.694000</speed>
      </trkpt>
      <trkpt lat="46.025572059" lon="7.227322165">
        <ele>2134.200000</ele>
        <time>2015-08-05T14:05:27Z</time>
        <speed>4.301000</speed>
      </trkpt>
      <trkpt lat="46.025600054" lon="7.227371702">
        <ele>2133.800000</ele>
        <time>2015-08-05T14:05:28Z</time>
        <speed>4.717000</speed>
      </trkpt>
      <trkpt lat="46.025625871" lon="7.227414030">
        <ele>2133.400000</ele>
        <time>2015-08-05T14:05:29Z</time>
        <speed>5.153000</speed>
      </trkpt>
      <trkpt lat="46.025665182" lon="7.227453258">
        <ele>2132.800000</ele>
        <time>2015-08-05T14:05:30Z</time>
        <speed>4.636000</speed>
      </trkpt>
      <trkpt lat="46.025704241" lon="7.227507153">
        <ele>2132.400000</ele>
        <time>2015-08-05T14:05:31Z</time>
        <speed>5.929000</speed>
      </trkpt>
      <trkpt lat="46.025734081" lon="7.227572364">
        <ele>2132.000000</ele>
        <time>2015-08-05T14:05:32Z</time>
        <speed>5.604000</speed>
      </trkpt>
      <trkpt lat="46.025781439" lon="7.227627182">
        <ele>2131.600000</ele>
        <time>2015-08-05T14:05:33Z</time>
        <speed>6.115000</speed>
      </trkpt>
      <trkpt lat="46.025812955" lon="7.227690968">
        <ele>2131.000000</ele>
        <time>2015-08-05T14:05:34Z</time>
        <speed>6.132000</speed>
      </trkpt>
      <trkpt lat="46.025850170" lon="7.227755090">
        <ele>2130.400000</ele>
        <time>2015-08-05T14:05:35Z</time>
        <speed>6.484000</speed>
      </trkpt>
      <trkpt lat="46.025893756" lon="7.227812338">
        <ele>2129.800000</ele>
        <time>2015-08-05T14:05:36Z</time>
        <speed>6.350000</speed>
      </trkpt>
      <trkpt lat="46.025933906" lon="7.227867743">
        <ele>2129.200000</ele>
        <time>2015-08-05T14:05:37Z</time>
        <speed>6.445000</speed>
      </trkpt>
      <trkpt lat="46.025981766" lon="7.227889536">
        <ele>2128.400000</ele>
        <time>2015-08-05T14:05:38Z</time>
        <speed>6.564000</speed>
      </trkpt>
      <trkpt lat="46.026028789" lon="7.227911915">
        <ele>2128.400000</ele>
        <time>2015-08-05T14:05:39Z</time>
        <speed>5.832000</speed>
      </trkpt>
      <trkpt lat="46.026125097" lon="7.227954160">
        <ele>2128.400000</ele>
        <time>2015-08-05T14:05:41Z</time>
        <speed>5.880000</speed>
      </trkpt>
      <trkpt lat="46.026219226" lon="7.227994896">
        <ele>2128.400000</ele>
        <time>2015-08-05T14:05:43Z</time>
        <speed>5.848000</speed>
      </trkpt>
      <trkpt lat="46.026320144" lon="7.228012917">
        <ele>2128.400000</ele>
        <time>2015-08-05T14:05:45Z</time>
        <speed>5.770000</speed>
      </trkpt>
      <trkpt lat="46.026350989" lon="7.228026412">
        <ele>2128.400000</ele>
        <time>2015-08-05T14:05:46Z</time>
        <speed>5.678000</speed>
      </trkpt>
      <trkpt lat="46.026345876" lon="7.228027166">
        <ele>2128.400000</ele>
        <time>2015-08-05T14:05:47Z</time>
        <speed>4.490000</speed>
      </trkpt>
      <trkpt lat="46.026344619" lon="7.228026664">
        <ele>2128.000000</ele>
        <time>2015-08-05T14:05:50Z</time>
        <speed>0.000000</speed>
      </trkpt>
      <trkpt lat="46.026352498" lon="7.228037225">
        <ele>2127.600000</ele>
        <time>2015-08-05T14:05:51Z</time>
        <speed>0.000000</speed>
      </trkpt>
      <trkpt lat="46.026362388" lon="7.228044685">
        <ele>2127.200000</ele>
        <time>2015-08-05T14:05:52Z</time>
        <speed>0.000000</speed>
      </trkpt>
      <trkpt lat="46.026373117" lon="7.228052647">
        <ele>2126.800000</ele>
        <time>2015-08-05T14:05:53Z</time>
        <speed>0.000000</speed>
      </trkpt>
      <trkpt lat="46.026382589" lon="7.228052564">
        <ele>2126.400000</ele>
        <time>2015-08-05T14:05:54Z</time>
        <speed>0.867000</speed>
      </trkpt>
      <trkpt lat="46.026417374" lon="7.228041919">
        <ele>2126.400000</ele>
        <time>2015-08-05T14:05:56Z</time>
        <speed>0.867000</speed>
      </trkpt>
      <trkpt lat="46.026454506" lon="7.228045271">
        <ele>2126.400000</ele>
        <time>2015-08-05T14:06:01Z</time>
        <speed>0.000000</speed>
      </trkpt>
      <trkpt lat="46.026463893" lon="7.228040326">
        <ele>2126.400000</ele>
        <time>2015-08-05T14:06:02Z</time>
        <speed>1.075000</speed>
      </trkpt>
      <trkpt lat="46.026544192" lon="7.228025155">
        <ele>2126.400000</ele>
        <time>2015-08-05T14:06:06Z</time>
        <speed>2.050000</speed>
      </trkpt>
      <trkpt lat="46.026565063" lon="7.228018533">
        <ele>2126.400000</ele>
        <time>2015-08-05T14:06:07Z</time>
        <speed>2.050000</speed>
      </trkpt>
      <trkpt lat="46.026672938" lon="7.228018114">
        <ele>2126.400000</ele>
        <time>2015-08-05T14:06:10Z</time>
        <speed>2.341000</speed>
      </trkpt>
      <trkpt lat="46.026794056" lon="7.228010235">
        <ele>2126.400000</ele>
        <time>2015-08-05T14:06:14Z</time>
        <speed>3.440000</speed>
      </trkpt>
      <trkpt lat="46.026821465" lon="7.228037560">
        <ele>2126.400000</ele>
        <time>2015-08-05T14:06:15Z</time>
        <speed>2.713000</speed>
      </trkpt>
      <trkpt lat="46.026877708" lon="7.228054911">
        <ele>2126.400000</ele>
        <time>2015-08-05T14:06:17Z</time>
        <speed>3.888000</speed>
      </trkpt>
      <trkpt lat="46.026896483" lon="7.228077709">
        <ele>2126.000000</ele>
        <time>2015-08-05T14:06:18Z</time>
        <speed>3.354000</speed>
      </trkpt>
      <trkpt lat="46.026901764" lon="7.228075949">
        <ele>2125.600000</ele>
        <time>2015-08-05T14:06:19Z</time>
        <speed>3.565000</speed>
      </trkpt>
      <trkpt lat="46.026920875" lon="7.228085756">
        <ele>2125.000000</ele>
        <time>2015-08-05T14:06:20Z</time>
        <speed>3.565000</speed>
      </trkpt>
      <trkpt lat="46.026949541" lon="7.228106375">
        <ele>2124.600000</ele>
        <time>2015-08-05T14:06:21Z</time>
        <speed>3.565000</speed>
      </trkpt>
      <trkpt lat="46.026970244" lon="7.228135377">
        <ele>2124.200000</ele>
        <time>2015-08-05T14:06:22Z</time>
        <speed>3.084000</speed>
      </trkpt>
      <trkpt lat="46.026996731" lon="7.228167479">
        <ele>2124.200000</ele>
        <time>2015-08-05T14:06:23Z</time>
        <speed>4.088000</speed>
      </trkpt>
      <trkpt lat="46.027163363" lon="7.228311984">
        <ele>2124.200000</ele>
        <time>2015-08-05T14:06:29Z</time>
        <speed>4.168000</speed>
      </trkpt>
      <trkpt lat="46.027184988" lon="7.228346936">
        <ele>2124.200000</ele>
        <time>2015-08-05T14:06:30Z</time>
        <speed>2.680000</speed>
      </trkpt>
      <trkpt lat="46.027242907" lon="7.228404855">
        <ele>2124.200000</ele>
        <time>2015-08-05T14:06:32Z</time>
        <speed>3.895000</speed>
      </trkpt>
      <trkpt lat="46.027369474" lon="7.228566207">
        <ele>2124.200000</ele>
        <time>2015-08-05T14:06:37Z</time>
        <speed>4.050000</speed>
      </trkpt>
      <trkpt lat="46.027452287" lon="7.228740718">
        <ele>2123.600000</ele>
        <time>2015-08-05T14:06:41Z</time>
        <speed>4.293000</speed>
      </trkpt>
      <trkpt lat="46.027467123" lon="7.228788914">
        <ele>2123.200000</ele>
        <time>2015-08-05T14:06:42Z</time>
        <speed>4.276000</speed>
      </trkpt>
      <trkpt lat="46.027486150" lon="7.228838116">
        <ele>2122.800000</ele>
        <time>2015-08-05T14:06:43Z</time>
        <speed>4.398000</speed>
      </trkpt>
      <trkpt lat="46.027502663" lon="7.228889329">
        <ele>2122.400000</ele>
        <time>2015-08-05T14:06:44Z</time>
        <speed>4.319000</speed>
      </trkpt>
      <trkpt lat="46.027522947" lon="7.228940710">
        <ele>2122.000000</ele>
        <time>2015-08-05T14:06:45Z</time>
        <speed>4.310000</speed>
      </trkpt>
      <trkpt lat="46.027534430" lon="7.228996450">
        <ele>2122.000000</ele>
        <time>2015-08-05T14:06:46Z</time>
        <speed>4.509000</speed>
      </trkpt>
      <trkpt lat="46.027598049" lon="7.229121927">
        <ele>2122.000000</ele>
        <time>2015-08-05T14:06:49Z</time>
        <speed>4.425000</speed>
      </trkpt>
      <trkpt lat="46.027608526" lon="7.229253523">
        <ele>2122.000000</ele>
        <time>2015-08-05T14:06:52Z</time>
        <speed>3.565000</speed>
      </trkpt>
      <trkpt lat="46.027655884" lon="7.229353184">
        <ele>2122.000000</ele>
        <time>2015-08-05T14:06:56Z</time>
        <speed>3.071000</speed>
      </trkpt>
      <trkpt lat="46.027672145" lon="7.229357291">
        <ele>2122.000000</ele>
        <time>2015-08-05T14:07:00Z</time>
        <speed>0.000000</speed>
      </trkpt>
      <trkpt lat="46.027697626" lon="7.229378162">
        <ele>2122.000000</ele>
        <time>2015-08-05T14:07:03Z</time>
        <speed>18.503000</speed>
      </trkpt>
      <trkpt lat="46.027698128" lon="7.229384783">
        <ele>2122.000000</ele>
        <time>2015-08-05T14:07:04Z</time>
        <speed>0.000000</speed>
      </trkpt>
      <trkpt lat="46.027733835" lon="7.229420490">
        <ele>2122.000000</ele>
        <time>2015-08-05T14:07:08Z</time>
        <speed>1.287000</speed>
      </trkpt>
      <trkpt lat="46.027756550" lon="7.229439433">
        <ele>2122.000000</ele>
        <time>2015-08-05T14:07:10Z</time>
        <speed>0.916000</speed>
      </trkpt>
      <trkpt lat="46.027791251" lon="7.229475643">
        <ele>2122.000000</ele>
        <time>2015-08-05T14:07:13Z</time>
        <speed>2.353000</speed>
      </trkpt>
      <trkpt lat="46.027826623" lon="7.229491233">
        <ele>2122.000000</ele>
        <time>2015-08-05T14:07:15Z</time>
        <speed>1.714000</speed>
      </trkpt>
      <trkpt lat="46.027851182" lon="7.229489389">
        <ele>2122.000000</ele>
        <time>2015-08-05T14:07:19Z</time>
        <speed>1.772000</speed>
      </trkpt>
      <trkpt lat="46.027881357" lon="7.229491904">
        <ele>2122.000000</ele>
        <time>2015-08-05T14:07:24Z</time>
        <speed>0.000000</speed>
      </trkpt>
      <trkpt lat="46.027902815" lon="7.229485534">
        <ele>2122.000000</ele>
        <time>2015-08-05T14:07:26Z</time>
        <speed>1.346000</speed>
      </trkpt>
      <trkpt lat="46.027905497" lon="7.229484025">
        <ele>2122.000000</ele>
        <time>2015-08-05T14:07:29Z</time>
        <speed>0.773000</speed>
      </trkpt>
      <trkpt lat="46.027907760" lon="7.229486372">
        <ele>2122.000000</ele>
        <time>2015-08-05T14:07:30Z</time>
        <speed>3.481000</speed>
      </trkpt>
      <trkpt lat="46.027926284" lon="7.229493916">
        <ele>2122.000000</ele>
        <time>2015-08-05T14:07:34Z</time>
        <speed>0.000000</speed>
      </trkpt>
      <trkpt lat="46.027955453" lon="7.229509003">
        <ele>2122.000000</ele>
        <time>2015-08-05T14:07:37Z</time>
        <speed>1.036000</speed>
      </trkpt>
      <trkpt lat="46.027968361" lon="7.229530628">
        <ele>2122.000000</ele>
        <time>2015-08-05T14:07:40Z</time>
        <speed>2.665000</speed>
      </trkpt>
      <trkpt lat="46.027996189" lon="7.229550326">
        <ele>2122.000000</ele>
        <time>2015-08-05T14:07:44Z</time>
        <speed>1.041000</speed>
      </trkpt>
      <trkpt lat="46.027999123" lon="7.229557283">
        <ele>2122.000000</ele>
        <time>2015-08-05T14:07:45Z</time>
        <speed>1.041000</speed>
      </trkpt>
      <trkpt lat="46.028030387" lon="7.229564240">
        <ele>2121.600000</ele>
        <time>2015-08-05T14:07:49Z</time>
        <speed>0.837000</speed>
      </trkpt>
      <trkpt lat="46.028037344" lon="7.229572454">
        <ele>2121.200000</ele>
        <time>2015-08-05T14:07:50Z</time>
        <speed>0.837000</speed>
      </trkpt>
      <trkpt lat="46.028049749" lon="7.229582848">
        <ele>2120.800000</ele>
        <time>2015-08-05T14:07:51Z</time>
        <speed>0.837000</speed>
      </trkpt>
      <trkpt lat="46.028054443" lon="7.229579746">
        <ele>2120.400000</ele>
        <time>2015-08-05T14:07:52Z</time>
        <speed>0.962000</speed>
      </trkpt>
      <trkpt lat="46.028055365" lon="7.229578405">
        <ele>2119.800000</ele>
        <time>2015-08-05T14:07:53Z</time>
        <speed>0.962000</speed>
      </trkpt>
      <trkpt lat="46.028063915" lon="7.229587709">
        <ele>2119.800000</ele>
        <time>2015-08-05T14:07:55Z</time>
        <speed>1.046000</speed>
      </trkpt>
      <trkpt lat="46.028108590" lon="7.229601707">
        <ele>2119.800000</ele>
        <time>2015-08-05T14:07:59Z</time>
        <speed>1.093000</speed>
      </trkpt>
      <trkpt lat="46.028159636" lon="7.229631966">
        <ele>2119.800000</ele>
        <time>2015-08-05T14:08:04Z</time>
        <speed>1.075000</speed>
      </trkpt>
      <trkpt lat="46.028174304" lon="7.229638587">
        <ele>2119.800000</ele>
        <time>2015-08-05T14:08:05Z</time>
        <speed>1.075000</speed>
      </trkpt>
      <trkpt lat="46.028223925" lon="7.229651412">
        <ele>2119.800000</ele>
        <time>2015-08-05T14:08:10Z</time>
        <speed>1.100000</speed>
      </trkpt>
      <trkpt lat="46.028229625" lon="7.229667756">
        <ele>2119.800000</ele>
        <time>2015-08-05T14:08:11Z</time>
        <speed>0.970000</speed>
      </trkpt>
      <trkpt lat="46.028264829" lon="7.229728693">
        <ele>2119.800000</ele>
        <time>2015-08-05T14:08:17Z</time>
        <speed>1.597000</speed>
      </trkpt>
      <trkpt lat="46.028332722" lon="7.229808991">
        <ele>2119.800000</ele>
        <time>2015-08-05T14:08:23Z</time>
        <speed>7.107000</speed>
      </trkpt>
      <trkpt lat="46.028409417" lon="7.229923991">
        <ele>2119.800000</ele>
        <time>2015-08-05T14:08:27Z</time>
        <speed>2.555000</speed>
      </trkpt>
      <trkpt lat="46.028475885" lon="7.230071094">
        <ele>2119.800000</ele>
        <time>2015-08-05T14:08:32Z</time>
        <speed>2.387000</speed>
      </trkpt>
      <trkpt lat="46.028488207" lon="7.230073776">
        <ele>2119.800000</ele>
        <time>2015-08-05T14:08:33Z</time>
        <speed>3.062000</speed>
      </trkpt>
      <trkpt lat="46.028505306" lon="7.230115015">
        <ele>2119.800000</ele>
        <time>2015-08-05T14:08:35Z</time>
        <speed>0.000000</speed>
      </trkpt>
      <trkpt lat="46.028542186" lon="7.230192044">
        <ele>2119.400000</ele>
        <time>2015-08-05T14:08:37Z</time>
        <speed>2.724000</speed>
      </trkpt>
      <trkpt lat="46.028550987" lon="7.230227667">
        <ele>2119.000000</ele>
        <time>2015-08-05T14:08:38Z</time>
        <speed>2.724000</speed>
      </trkpt>
      <trkpt lat="46.028555346" lon="7.230253568">
        <ele>2118.600000</ele>
        <time>2015-08-05T14:08:39Z</time>
        <speed>3.010000</speed>
      </trkpt>
      <trkpt lat="46.028566075" lon="7.230280725">
        <ele>2118.000000</ele>
        <time>2015-08-05T14:08:40Z</time>
        <speed>2.973000</speed>
      </trkpt>
      <trkpt lat="46.028596166" lon="7.230317270">
        <ele>2117.600000</ele>
        <time>2015-08-05T14:08:41Z</time>
        <speed>2.993000</speed>
      </trkpt>
      <trkpt lat="46.028605218" lon="7.230329256">
        <ele>2117.600000</ele>
        <time>2015-08-05T14:08:42Z</time>
        <speed>2.993000</speed>
      </trkpt>
      <trkpt lat="46.028645451" lon="7.230375860">
        <ele>2117.600000</ele>
        <time>2015-08-05T14:08:45Z</time>
        <speed>3.688000</speed>
      </trkpt>
      <trkpt lat="46.028649558" lon="7.230382230">
        <ele>2117.600000</ele>
        <time>2015-08-05T14:08:46Z</time>
        <speed>0.000000</speed>
      </trkpt>
      <trkpt lat="46.028668501" lon="7.230406537">
        <ele>2117.600000</ele>
        <time>2015-08-05T14:08:47Z</time>
        <speed>2.379000</speed>
      </trkpt>
      <trkpt lat="46.028738742" lon="7.230476526">
        <ele>2117.600000</ele>
        <time>2015-08-05T14:08:51Z</time>
        <speed>2.490000</speed>
      </trkpt>
      <trkpt lat="46.028784842" lon="7.230511060">
        <ele>2117.600000</ele>
        <time>2015-08-05T14:08:53Z</time>
        <speed>2.464000</speed>
      </trkpt>
      <trkpt lat="46.028834128" lon="7.230514999">
        <ele>2117.600000</ele>
        <time>2015-08-05T14:08:55Z</time>
        <speed>2.583000</speed>
      </trkpt>
      <trkpt lat="46.028905039" lon="7.230506198">
        <ele>2117.600000</ele>
        <time>2015-08-05T14:08:57Z</time>
        <speed>2.784000</speed>
      </trkpt>
      <trkpt lat="46.028967987" lon="7.230533858">
        <ele>2117.600000</ele>
        <time>2015-08-05T14:09:00Z</time>
        <speed>3.513000</speed>
      </trkpt>
      <trkpt lat="46.029045184" lon="7.230612397">
        <ele>2117.600000</ele>
        <time>2015-08-05T14:09:04Z</time>
        <speed>1.842000</speed>
      </trkpt>
      <trkpt lat="46.029122465" lon="7.230708202">
        <ele>2117.200000</ele>
        <time>2015-08-05T14:09:08Z</time>
        <speed>2.643000</speed>
      </trkpt>
      <trkpt lat="46.029145096" lon="7.230739215">
        <ele>2116.800000</ele>
        <time>2015-08-05T14:09:09Z</time>
        <speed>3.088000</speed>
      </trkpt>
      <trkpt lat="46.029164962" lon="7.230772659">
        <ele>2116.400000</ele>
        <time>2015-08-05T14:09:10Z</time>
        <speed>2.900000</speed>
      </trkpt>
      <trkpt lat="46.029180300" lon="7.230807192">
        <ele>2116.000000</ele>
        <time>2015-08-05T14:09:11Z</time>
        <speed>3.675000</speed>
      </trkpt>
      <trkpt lat="46.029197064" lon="7.230846084">
        <ele>2115.400000</ele>
        <time>2015-08-05T14:09:12Z</time>
        <speed>3.720000</speed>
      </trkpt>
      <trkpt lat="46.029244925" lon="7.230920180">
        <ele>2115.400000</ele>
        <time>2015-08-05T14:09:14Z</time>
        <speed>4.096000</speed>
      </trkpt>
      <trkpt lat="46.029374341" lon="7.231028894">
        <ele>2115.000000</ele>
        <time>2015-08-05T14:09:17Z</time>
        <speed>5.261000</speed>
      </trkpt>
      <trkpt lat="46.029407366" lon="7.231059152">
        <ele>2114.600000</ele>
        <time>2015-08-05T14:09:18Z</time>
        <speed>5.326000</speed>
      </trkpt>
      <trkpt lat="46.029437290" lon="7.231073318">
        <ele>2114.200000</ele>
        <time>2015-08-05T14:09:19Z</time>
        <speed>5.461000</speed>
      </trkpt>
      <trkpt lat="46.029458244" lon="7.231093686">
        <ele>2113.800000</ele>
        <time>2015-08-05T14:09:20Z</time>
        <speed>4.453000</speed>
      </trkpt>
      <trkpt lat="46.029473835" lon="7.231110114">
        <ele>2113.400000</ele>
        <time>2015-08-05T14:09:21Z</time>
        <speed>4.453000</speed>
      </trkpt>
      <trkpt lat="46.029479618" lon="7.231115060">
        <ele>2113.400000</ele>
        <time>2015-08-05T14:09:22Z</time>
        <speed>0.000000</speed>
      </trkpt>
      <trkpt lat="46.029597216" lon="7.231198543">
        <ele>2113.400000</ele>
        <time>2015-08-05T14:09:27Z</time>
        <speed>2.490000</speed>
      </trkpt>
      <trkpt lat="46.029620183" lon="7.231186976">
        <ele>2113.400000</ele>
        <time>2015-08-05T14:09:28Z</time>
        <speed>2.382000</speed>
      </trkpt>
      <trkpt lat="46.029689250" lon="7.231175745">
        <ele>2113.400000</ele>
        <time>2015-08-05T14:09:31Z</time>
        <speed>2.710000</speed>
      </trkpt>
      <trkpt lat="46.029704672" lon="7.231181528">
        <ele>2113.800000</ele>
        <time>2015-08-05T14:09:32Z</time>
        <speed>2.621000</speed>
      </trkpt>
      <trkpt lat="46.029721017" lon="7.231188150">
        <ele>2114.200000</ele>
        <time>2015-08-05T14:09:33Z</time>
        <speed>2.537000</speed>
      </trkpt>
      <trkpt lat="46.029738703" lon="7.231192425">
        <ele>2114.600000</ele>
        <time>2015-08-05T14:09:34Z</time>
        <speed>2.157000</speed>
      </trkpt>
      <trkpt lat="46.029759741" lon="7.231197537">
        <ele>2115.200000</ele>
        <time>2015-08-05T14:09:35Z</time>
        <speed>1.899000</speed>
      </trkpt>
      <trkpt lat="46.029781451" lon="7.231199046">
        <ele>2115.600000</ele>
        <time>2015-08-05T14:09:36Z</time>
        <speed>2.217000</speed>
      </trkpt>
      <trkpt lat="46.029805674" lon="7.231213295">
        <ele>2115.600000</ele>
        <time>2015-08-05T14:09:37Z</time>
        <speed>2.414000</speed>
      </trkpt>
      <trkpt lat="46.029885889" lon="7.231307843">
        <ele>2115.600000</ele>
        <time>2015-08-05T14:09:40Z</time>
        <speed>3.049000</speed>
      </trkpt>
      <trkpt lat="46.029901563" lon="7.231306754">
        <ele>2115.600000</ele>
        <time>2015-08-05T14:09:41Z</time>
        <speed>3.218000</speed>
      </trkpt>
      <trkpt lat="46.029913633" lon="7.231292421">
        <ele>2115.600000</ele>
        <time>2015-08-05T14:09:43Z</time>
        <speed>0.000000</speed>
      </trkpt>
      <trkpt lat="46.029927296" lon="7.231292672">
        <ele>2115.600000</ele>
        <time>2015-08-05T14:09:44Z</time>
        <speed>1.324000</speed>
      </trkpt>
      <trkpt lat="46.029953028" lon="7.231324188">
        <ele>2115.600000</ele>
        <time>2015-08-05T14:09:46Z</time>
        <speed>0.942000</speed>
      </trkpt>
      <trkpt lat="46.029976917" lon="7.231339108">
        <ele>2115.600000</ele>
        <time>2015-08-05T14:09:47Z</time>
        <speed>1.883000</speed>
      </trkpt>
      <trkpt lat="46.030046570" lon="7.231445893">
        <ele>2115.000000</ele>
        <time>2015-08-05T14:09:50Z</time>
        <speed>4.435000</speed>
      </trkpt>
      <trkpt lat="46.030067944" lon="7.231451425">
        <ele>2114.600000</ele>
        <time>2015-08-05T14:09:51Z</time>
        <speed>4.042000</speed>
      </trkpt>
      <trkpt lat="46.030094850" lon="7.231477577">
        <ele>2113.800000</ele>
        <time>2015-08-05T14:09:52Z</time>
        <speed>3.147000</speed>
      </trkpt>
      <trkpt lat="46.030112368" lon="7.231501465">
        <ele>2113.400000</ele>
        <time>2015-08-05T14:09:53Z</time>
        <speed>2.534000</speed>
      </trkpt>
      <trkpt lat="46.030188895" lon="7.231587380">
        <ele>2113.400000</ele>
        <time>2015-08-05T14:09:58Z</time>
        <speed>3.701000</speed>
      </trkpt>
      <trkpt lat="46.030234157" lon="7.231641275">
        <ele>2113.400000</ele>
        <time>2015-08-05T14:10:02Z</time>
        <speed>2.153000</speed>
      </trkpt>
      <trkpt lat="46.030265505" lon="7.231724256">
        <ele>2113.800000</ele>
        <time>2015-08-05T14:10:07Z</time>
        <speed>1.865000</speed>
      </trkpt>
      <trkpt lat="46.030274055" lon="7.231742110">
        <ele>2114.200000</ele>
        <time>2015-08-05T14:10:08Z</time>
        <speed>1.865000</speed>
      </trkpt>
      <trkpt lat="46.030282353" lon="7.231762142">
        <ele>2114.600000</ele>
        <time>2015-08-05T14:10:09Z</time>
        <speed>1.577000</speed>
      </trkpt>
      <trkpt lat="46.030292579" lon="7.231778990">
        <ele>2115.000000</ele>
        <time>2015-08-05T14:10:10Z</time>
        <speed>1.675000</speed>
      </trkpt>
      <trkpt lat="46.030298111" lon="7.231796508">
        <ele>2115.400000</ele>
        <time>2015-08-05T14:10:11Z</time>
        <speed>1.651000</speed>
      </trkpt>
      <trkpt lat="46.030311187" lon="7.231827270">
        <ele>2115.400000</ele>
        <time>2015-08-05T14:10:13Z</time>
        <speed>1.582000</speed>
      </trkpt>
      <trkpt lat="46.030316635" lon="7.231840765">
        <ele>2115.400000</ele>
        <time>2015-08-05T14:10:14Z</time>
        <speed>1.682000</speed>
      </trkpt>
      <trkpt lat="46.030354521" lon="7.231927517">
        <ele>2115.800000</ele>
        <time>2015-08-05T14:10:19Z</time>
        <speed>1.762000</speed>
      </trkpt>
      <trkpt lat="46.030368351" lon="7.231926595">
        <ele>2116.200000</ele>
        <time>2015-08-05T14:10:20Z</time>
        <speed>1.824000</speed>
      </trkpt>
      <trkpt lat="46.030383774" lon="7.231943862">
        <ele>2116.600000</ele>
        <time>2015-08-05T14:10:21Z</time>
        <speed>1.816000</speed>
      </trkpt>
      <trkpt lat="46.030398275" lon="7.231956267">
        <ele>2117.000000</ele>
        <time>2015-08-05T14:10:22Z</time>
        <speed>1.584000</speed>
      </trkpt>
      <trkpt lat="46.030409087" lon="7.231972780">
        <ele>2117.600000</ele>
        <time>2015-08-05T14:10:23Z</time>
        <speed>2.031000</speed>
      </trkpt>
      <trkpt lat="46.030419230" lon="7.232013683">
        <ele>2117.600000</ele>
        <time>2015-08-05T14:10:25Z</time>
        <speed>1.906000</speed>
      </trkpt>
      <trkpt lat="46.030466001" lon="7.232048971">
        <ele>2117.600000</ele>
        <time>2015-08-05T14:10:28Z</time>
        <speed>2.181000</speed>
      </trkpt>
      <trkpt lat="46.030520986" lon="7.232089707">
        <ele>2117.600000</ele>
        <time>2015-08-05T14:10:31Z</time>
        <speed>2.335000</speed>
      </trkpt>
      <trkpt lat="46.030538588" lon="7.232103286">
        <ele>2117.600000</ele>
        <time>2015-08-05T14:10:32Z</time>
        <speed>2.478000</speed>
      </trkpt>
      <trkpt lat="46.030583096" lon="7.232156260">
        <ele>2118.000000</ele>
        <time>2015-08-05T14:10:35Z</time>
        <speed>2.102000</speed>
      </trkpt>
      <trkpt lat="46.030597345" lon="7.232172269">
        <ele>2118.400000</ele>
        <time>2015-08-05T14:10:36Z</time>
        <speed>2.199000</speed>
      </trkpt>
      <trkpt lat="46.030615115" lon="7.232186518">
        <ele>2118.800000</ele>
        <time>2015-08-05T14:10:37Z</time>
        <speed>2.467000</speed>
      </trkpt>
      <trkpt lat="46.030642523" lon="7.232203869">
        <ele>2119.200000</ele>
        <time>2015-08-05T14:10:38Z</time>
        <speed>2.398000</speed>
      </trkpt>
      <trkpt lat="46.030665322" lon="7.232242426">
        <ele>2119.600000</ele>
        <time>2015-08-05T14:10:39Z</time>
        <speed>2.335000</speed>
      </trkpt>
      <trkpt lat="46.030696671" lon="7.232291711">
        <ele>2119.600000</ele>
        <time>2015-08-05T14:10:41Z</time>
        <speed>2.335000</speed>
      </trkpt>
      <trkpt lat="46.030798175" lon="7.232350468">
        <ele>2119.600000</ele>
        <time>2015-08-05T14:10:45Z</time>
        <speed>3.084000</speed>
      </trkpt>
      <trkpt lat="46.030818460" lon="7.232368070">
        <ele>2119.600000</ele>
        <time>2015-08-05T14:10:46Z</time>
        <speed>3.084000</speed>
      </trkpt>
      <trkpt lat="46.030866153" lon="7.232408890">
        <ele>2119.600000</ele>
        <time>2015-08-05T14:10:49Z</time>
        <speed>3.242000</speed>
      </trkpt>
      <trkpt lat="46.030879480" lon="7.232434958">
        <ele>2119.600000</ele>
        <time>2015-08-05T14:10:50Z</time>
        <speed>2.614000</speed>
      </trkpt>
      <trkpt lat="46.030932789" lon="7.232489859">
        <ele>2119.600000</ele>
        <time>2015-08-05T14:10:53Z</time>
        <speed>2.470000</speed>
      </trkpt>
      <trkpt lat="46.030943182" lon="7.232520789">
        <ele>2119.600000</ele>
        <time>2015-08-05T14:10:54Z</time>
        <speed>2.425000</speed>
      </trkpt>
      <trkpt lat="46.031013004" lon="7.232584742">
        <ele>2119.600000</ele>
        <time>2015-08-05T14:10:58Z</time>
        <speed>2.567000</speed>
      </trkpt>
      <trkpt lat="46.031093051" lon="7.232647104">
        <ele>2119.600000</ele>
        <time>2015-08-05T14:11:02Z</time>
        <speed>2.574000</speed>
      </trkpt>
      <trkpt lat="46.031118616" lon="7.232658000">
        <ele>2119.600000</ele>
        <time>2015-08-05T14:11:03Z</time>
        <speed>2.577000</speed>
      </trkpt>
      <trkpt lat="46.031214253" lon="7.232743580">
        <ele>2119.600000</ele>
        <time>2015-08-05T14:11:07Z</time>
        <speed>3.423000</speed>
      </trkpt>
      <trkpt lat="46.031224814" lon="7.232740059">
        <ele>2119.600000</ele>
        <time>2015-08-05T14:11:08Z</time>
        <speed>2.977000</speed>
      </trkpt>
      <trkpt lat="46.031284410" lon="7.232777359">
        <ele>2119.600000</ele>
        <time>2015-08-05T14:11:11Z</time>
        <speed>1.944000</speed>
      </trkpt>
      <trkpt lat="46.031372168" lon="7.232849359">
        <ele>2119.200000</ele>
        <time>2015-08-05T14:11:15Z</time>
        <speed>2.985000</speed>
      </trkpt>
      <trkpt lat="46.031380885" lon="7.232864698">
        <ele>2118.800000</ele>
        <time>2015-08-05T14:11:16Z</time>
        <speed>2.981000</speed>
      </trkpt>
      <trkpt lat="46.031391949" lon="7.232877271">
        <ele>2118.400000</ele>
        <time>2015-08-05T14:11:17Z</time>
        <speed>2.549000</speed>
      </trkpt>
      <trkpt lat="46.031406366" lon="7.232886491">
        <ele>2118.000000</ele>
        <time>2015-08-05T14:11:18Z</time>
        <speed>2.195000</speed>
      </trkpt>
      <trkpt lat="46.031425980" lon="7.232894119">
        <ele>2117.600000</ele>
        <time>2015-08-05T14:11:19Z</time>
        <speed>1.868000</speed>
      </trkpt>
      <trkpt lat="46.031452551" lon="7.232916833">
        <ele>2117.600000</ele>
        <time>2015-08-05T14:11:21Z</time>
        <speed>1.960000</speed>
      </trkpt>
      <trkpt lat="46.031457496" lon="7.232926724">
        <ele>2117.600000</ele>
        <time>2015-08-05T14:11:22Z</time>
        <speed>1.833000</speed>
      </trkpt>
      <trkpt lat="46.031493538" lon="7.232957318">
        <ele>2117.600000</ele>
        <time>2015-08-05T14:11:27Z</time>
        <speed>3.982000</speed>
      </trkpt>
      <trkpt lat="46.031502255" lon="7.232954552">
        <ele>2117.600000</ele>
        <time>2015-08-05T14:11:28Z</time>
        <speed>3.982000</speed>
      </trkpt>
      <trkpt lat="46.031575932" lon="7.232976345">
        <ele>2117.600000</ele>
        <time>2015-08-05T14:11:32Z</time>
        <speed>1.731000</speed>
      </trkpt>
      <trkpt lat="46.031621027" lon="7.233002832">
        <ele>2118.000000</ele>
        <time>2015-08-05T14:11:35Z</time>
        <speed>2.417000</speed>
      </trkpt>
      <trkpt lat="46.031631337" lon="7.233020769">
        <ele>2118.400000</ele>
        <time>2015-08-05T14:11:36Z</time>
        <speed>1.985000</speed>
      </trkpt>
      <trkpt lat="46.031646592" lon="7.233027391">
        <ele>2118.800000</ele>
        <time>2015-08-05T14:11:37Z</time>
        <speed>1.558000</speed>
      </trkpt>
      <trkpt lat="46.031649106" lon="7.233024122">
        <ele>2119.200000</ele>
        <time>2015-08-05T14:11:38Z</time>
        <speed>0.000000</speed>
      </trkpt>
      <trkpt lat="46.031664948" lon="7.233025714">
        <ele>2119.600000</ele>
        <time>2015-08-05T14:11:39Z</time>
        <speed>0.000000</speed>
      </trkpt>
      <trkpt lat="46.031709372" lon="7.233032839">
        <ele>2119.600000</ele>
        <time>2015-08-05T14:11:41Z</time>
        <speed>1.839000</speed>
      </trkpt>
      <trkpt lat="46.031762178" lon="7.233068881">
        <ele>2119.600000</ele>
        <time>2015-08-05T14:11:46Z</time>
        <speed>1.268000</speed>
      </trkpt>
      <trkpt lat="46.031772153" lon="7.233083885">
        <ele>2119.600000</ele>
        <time>2015-08-05T14:11:47Z</time>
        <speed>1.313000</speed>
      </trkpt>
      <trkpt lat="46.031808195" lon="7.233122274">
        <ele>2119.600000</ele>
        <time>2015-08-05T14:11:52Z</time>
        <speed>1.205000</speed>
      </trkpt>
      <trkpt lat="46.031821857" lon="7.233129734">
        <ele>2119.600000</ele>
        <time>2015-08-05T14:11:53Z</time>
        <speed>1.205000</speed>
      </trkpt>
      <trkpt lat="46.031878854" lon="7.233150269">
        <ele>2119.600000</ele>
        <time>2015-08-05T14:11:57Z</time>
        <speed>1.576000</speed>
      </trkpt>
      <trkpt lat="46.031916405" lon="7.233169464">
        <ele>2119.600000</ele>
        <time>2015-08-05T14:12:00Z</time>
        <speed>1.751000</speed>
      </trkpt>
      <trkpt lat="46.031968205" lon="7.233194777">
        <ele>2119.600000</ele>
        <time>2015-08-05T14:12:05Z</time>
        <speed>1.668000</speed>
      </trkpt>
      <trkpt lat="46.031977509" lon="7.233192263">
        <ele>2119.600000</ele>
        <time>2015-08-05T14:12:06Z</time>
        <speed>1.270000</speed>
      </trkpt>
      <trkpt lat="46.032024029" lon="7.233239034">
        <ele>2119.600000</ele>
        <time>2015-08-05T14:12:10Z</time>
        <speed>1.484000</speed>
      </trkpt>
      <trkpt lat="46.032037607" lon="7.233240710">
        <ele>2120.000000</ele>
        <time>2015-08-05T14:12:11Z</time>
        <speed>1.729000</speed>
      </trkpt>
      <trkpt lat="46.032053533" lon="7.233247835">
        <ele>2120.400000</ele>
        <time>2015-08-05T14:12:12Z</time>
        <speed>1.767000</speed>
      </trkpt>
      <trkpt lat="46.032066106" lon="7.233261581">
        <ele>2120.800000</ele>
        <time>2015-08-05T14:12:13Z</time>
        <speed>1.609000</speed>
      </trkpt>
      <trkpt lat="46.032065100" lon="7.233266275">
        <ele>2121.200000</ele>
        <time>2015-08-05T14:12:14Z</time>
        <speed>1.655000</speed>
      </trkpt>
      <trkpt lat="46.032075577" lon="7.233272981">
        <ele>2121.600000</ele>
        <time>2015-08-05T14:12:15Z</time>
        <speed>1.655000</speed>
      </trkpt>
      <trkpt lat="46.032132323" lon="7.233280440">
        <ele>2121.600000</ele>
        <time>2015-08-05T14:12:18Z</time>
        <speed>1.000000</speed>
      </trkpt>
      <trkpt lat="46.032158810" lon="7.233302233">
        <ele>2121.600000</ele>
        <time>2015-08-05T14:12:19Z</time>
        <speed>2.159000</speed>
      </trkpt>
      <trkpt lat="46.032247323" lon="7.233352944">
        <ele>2121.600000</ele>
        <time>2015-08-05T14:12:22Z</time>
        <speed>3.369000</speed>
      </trkpt>
      <trkpt lat="46.032390988" lon="7.233422430">
        <ele>2121.600000</ele>
        <time>2015-08-05T14:12:27Z</time>
        <speed>3.175000</speed>
      </trkpt>
      <trkpt lat="46.032475059" lon="7.233483785">
        <ele>2121.200000</ele>
        <time>2015-08-05T14:12:30Z</time>
        <speed>2.873000</speed>
      </trkpt>
      <trkpt lat="46.032495259" lon="7.233498705">
        <ele>2120.600000</ele>
        <time>2015-08-05T14:12:31Z</time>
        <speed>4.453000</speed>
      </trkpt>
      <trkpt lat="46.032500540" lon="7.233505243">
        <ele>2120.200000</ele>
        <time>2015-08-05T14:12:32Z</time>
        <speed>4.027000</speed>
      </trkpt>
      <trkpt lat="46.032495008" lon="7.233504824">
        <ele>2119.600000</ele>
        <time>2015-08-05T14:12:33Z</time>
        <speed>3.473000</speed>
      </trkpt>
      <trkpt lat="46.032501462" lon="7.233505327">
        <ele>2119.000000</ele>
        <time>2015-08-05T14:12:34Z</time>
        <speed>2.409000</speed>
      </trkpt>
      <trkpt lat="46.032525015" lon="7.233512200">
        <ele>2119.000000</ele>
        <time>2015-08-05T14:12:39Z</time>
        <speed>0.000000</speed>
      </trkpt>
      <trkpt lat="46.032539683" lon="7.233534999">
        <ele>2119.000000</ele>
        <time>2015-08-05T14:12:40Z</time>
        <speed>1.042000</speed>
      </trkpt>
      <trkpt lat="46.032563656" lon="7.233562156">
        <ele>2119.000000</ele>
        <time>2015-08-05T14:12:45Z</time>
        <speed>1.234000</speed>
      </trkpt>
      <trkpt lat="46.032580587" lon="7.233585626">
        <ele>2119.400000</ele>
        <time>2015-08-05T14:12:48Z</time>
        <speed>8.099000</speed>
      </trkpt>
      <trkpt lat="46.032587209" lon="7.233590068">
        <ele>2119.800000</ele>
        <time>2015-08-05T14:12:49Z</time>
        <speed>0.000000</speed>
      </trkpt>
      <trkpt lat="46.032603134" lon="7.233596773">
        <ele>2120.200000</ele>
        <time>2015-08-05T14:12:50Z</time>
        <speed>0.000000</speed>
      </trkpt>
      <trkpt lat="46.032629789" lon="7.233610101">
        <ele>2120.800000</ele>
        <time>2015-08-05T14:12:51Z</time>
        <speed>2.013000</speed>
      </trkpt>
      <trkpt lat="46.032635572" lon="7.233622254">
        <ele>2121.200000</ele>
        <time>2015-08-05T14:12:52Z</time>
        <speed>1.677000</speed>
      </trkpt>
      <trkpt lat="46.032649403" lon="7.233631558">
        <ele>2121.200000</ele>
        <time>2015-08-05T14:12:53Z</time>
        <speed>1.852000</speed>
      </trkpt>
      <trkpt lat="46.032661389" lon="7.233704397">
        <ele>2121.200000</ele>
        <time>2015-08-05T14:12:56Z</time>
        <speed>1.934000</speed>
      </trkpt>
      <trkpt lat="46.032727606" lon="7.233788132">
        <ele>2121.200000</ele>
        <time>2015-08-05T14:13:00Z</time>
        <speed>2.543000</speed>
      </trkpt>
      <trkpt lat="46.032747052" lon="7.233810847">
        <ele>2121.600000</ele>
        <time>2015-08-05T14:13:01Z</time>
        <speed>2.310000</speed>
      </trkpt>
      <trkpt lat="46.032762055" lon="7.233829623">
        <ele>2122.000000</ele>
        <time>2015-08-05T14:13:02Z</time>
        <speed>2.634000</speed>
      </trkpt>
      <trkpt lat="46.032775466" lon="7.233845213">
        <ele>2122.400000</ele>
        <time>2015-08-05T14:13:03Z</time>
        <speed>2.504000</speed>
      </trkpt>
      <trkpt lat="46.032785692" lon="7.233866587">
        <ele>2122.800000</ele>
        <time>2015-08-05T14:13:04Z</time>
        <speed>2.222000</speed>
      </trkpt>
      <trkpt lat="46.032795583" lon="7.233893493">
        <ele>2123.200000</ele>
        <time>2015-08-05T14:13:05Z</time>
        <speed>2.266000</speed>
      </trkpt>
      <trkpt lat="46.032804468" lon="7.233912436">
        <ele>2123.200000</ele>
        <time>2015-08-05T14:13:06Z</time>
        <speed>2.315000</speed>
      </trkpt>
      <trkpt lat="46.032854592" lon="7.234003799">
        <ele>2123.200000</ele>
        <time>2015-08-05T14:13:10Z</time>
        <speed>2.074000</speed>
      </trkpt>
      <trkpt lat="46.032870349" lon="7.234027687">
        <ele>2123.200000</ele>
        <time>2015-08-05T14:13:11Z</time>
        <speed>2.074000</speed>
      </trkpt>
      <trkpt lat="46.032879737" lon="7.234046630">
        <ele>2123.600000</ele>
        <time>2015-08-05T14:13:12Z</time>
        <speed>2.341000</speed>
      </trkpt>
      <trkpt lat="46.032884515" lon="7.234061466">
        <ele>2124.000000</ele>
        <time>2015-08-05T14:13:13Z</time>
        <speed>2.102000</speed>
      </trkpt>
      <trkpt lat="46.032887951" lon="7.234076470">
        <ele>2124.400000</ele>
        <time>2015-08-05T14:13:14Z</time>
        <speed>2.076000</speed>
      </trkpt>
      <trkpt lat="46.032894489" lon="7.234095748">
        <ele>2125.000000</ele>
        <time>2015-08-05T14:13:15Z</time>
        <speed>1.915000</speed>
      </trkpt>
      <trkpt lat="46.032898177" lon="7.234118128">
        <ele>2125.400000</ele>
        <time>2015-08-05T14:13:16Z</time>
        <speed>1.841000</speed>
      </trkpt>
      <trkpt lat="46.032897591" lon="7.234182836">
        <ele>2125.400000</ele>
        <time>2015-08-05T14:13:19Z</time>
        <speed>1.736000</speed>
      </trkpt>
      <trkpt lat="46.032912762" lon="7.234245952">
        <ele>2125.400000</ele>
        <time>2015-08-05T14:13:22Z</time>
        <speed>1.841000</speed>
      </trkpt>
      <trkpt lat="46.032948888" lon="7.234279647">
        <ele>2125.800000</ele>
        <time>2015-08-05T14:13:25Z</time>
        <speed>5.597000</speed>
      </trkpt>
      <trkpt lat="46.032950061" lon="7.234287023">
        <ele>2126.200000</ele>
        <time>2015-08-05T14:13:26Z</time>
        <speed>0.000000</speed>
      </trkpt>
      <trkpt lat="46.032964981" lon="7.234334465">
        <ele>2126.600000</ele>
        <time>2015-08-05T14:13:27Z</time>
        <speed>1.944000</speed>
      </trkpt>
      <trkpt lat="46.032966825" lon="7.234364388">
        <ele>2127.000000</ele>
        <time>2015-08-05T14:13:28Z</time>
        <speed>2.484000</speed>
      </trkpt>
      <trkpt lat="46.032964646" lon="7.234389534">
        <ele>2127.400000</ele>
        <time>2015-08-05T14:13:29Z</time>
        <speed>2.296000</speed>
      </trkpt>
      <trkpt lat="46.032984343" lon="7.234447034">
        <ele>2127.400000</ele>
        <time>2015-08-05T14:13:31Z</time>
        <speed>2.564000</speed>
      </trkpt>
      <trkpt lat="46.032996329" lon="7.234518699">
        <ele>2127.400000</ele>
        <time>2015-08-05T14:13:33Z</time>
        <speed>6.901000</speed>
      </trkpt>
      <trkpt lat="46.032993480" lon="7.234573265">
        <ele>2127.400000</ele>
        <time>2015-08-05T14:13:35Z</time>
        <speed>3.156000</speed>
      </trkpt>
      <trkpt lat="46.033010495" lon="7.234670663">
        <ele>2127.400000</ele>
        <time>2015-08-05T14:13:38Z</time>
        <speed>2.602000</speed>
      </trkpt>
      <trkpt lat="46.033006723" lon="7.234704945">
        <ele>2127.400000</ele>
        <time>2015-08-05T14:13:39Z</time>
        <speed>3.040000</speed>
      </trkpt>
      <trkpt lat="46.033004963" lon="7.234789770">
        <ele>2127.400000</ele>
        <time>2015-08-05T14:13:43Z</time>
        <speed>1.761000</speed>
      </trkpt>
      <trkpt lat="46.033003957" lon="7.234792787">
        <ele>2127.400000</ele>
        <time>2015-08-05T14:13:47Z</time>
        <speed>0.000000</speed>
      </trkpt>
      <trkpt lat="46.032993228" lon="7.234836960">
        <ele>2127.800000</ele>
        <time>2015-08-05T14:13:50Z</time>
        <speed>0.000000</speed>
      </trkpt>
      <trkpt lat="46.032977219" lon="7.234860262">
        <ele>2128.200000</ele>
        <time>2015-08-05T14:13:51Z</time>
        <speed>1.017000</speed>
      </trkpt>
      <trkpt lat="46.032974704" lon="7.234877193">
        <ele>2128.600000</ele>
        <time>2015-08-05T14:13:52Z</time>
        <speed>1.288000</speed>
      </trkpt>
      <trkpt lat="46.032965484" lon="7.234896555">
        <ele>2129.000000</ele>
        <time>2015-08-05T14:13:53Z</time>
        <speed>1.288000</speed>
      </trkpt>
      <trkpt lat="46.032955845" lon="7.234908793">
        <ele>2129.400000</ele>
        <time>2015-08-05T14:13:54Z</time>
        <speed>1.028000</speed>
      </trkpt>
      <trkpt lat="46.032961545" lon="7.234998647">
        <ele>2129.400000</ele>
        <time>2015-08-05T14:13:58Z</time>
        <speed>1.765000</speed>
      </trkpt>
      <trkpt lat="46.032988702" lon="7.235098811">
        <ele>2129.400000</ele>
        <time>2015-08-05T14:14:01Z</time>
        <speed>2.247000</speed>
      </trkpt>
      <trkpt lat="46.032982332" lon="7.235161423">
        <ele>2129.400000</ele>
        <time>2015-08-05T14:14:03Z</time>
        <speed>2.247000</speed>
      </trkpt>
      <trkpt lat="46.032977722" lon="7.235254462">
        <ele>2129.400000</ele>
        <time>2015-08-05T14:14:06Z</time>
        <speed>1.643000</speed>
      </trkpt>
      <trkpt lat="46.032964059" lon="7.235309280">
        <ele>2129.400000</ele>
        <time>2015-08-05T14:14:08Z</time>
        <speed>2.998000</speed>
      </trkpt>
      <trkpt lat="46.032976464" lon="7.235341718">
        <ele>2129.400000</ele>
        <time>2015-08-05T14:14:11Z</time>
        <speed>0.000000</speed>
      </trkpt>
      <trkpt lat="46.032978141" lon="7.235382286">
        <ele>2129.400000</ele>
        <time>2015-08-05T14:14:12Z</time>
        <speed>1.420000</speed>
      </trkpt>
      <trkpt lat="46.032942434" lon="7.235438026">
        <ele>2129.400000</ele>
        <time>2015-08-05T14:14:15Z</time>
        <speed>1.842000</speed>
      </trkpt>
      <trkpt lat="46.032934723" lon="7.235456466">
        <ele>2129.400000</ele>
        <time>2015-08-05T14:14:16Z</time>
        <speed>2.131000</speed>
      </trkpt>
      <trkpt lat="46.032938075" lon="7.235571550">
        <ele>2129.400000</ele>
        <time>2015-08-05T14:14:20Z</time>
        <speed>1.224000</speed>
      </trkpt>
      <trkpt lat="46.032941931" lon="7.235590912">
        <ele>2129.000000</ele>
        <time>2015-08-05T14:14:21Z</time>
        <speed>3.364000</speed>
      </trkpt>
      <trkpt lat="46.032939668" lon="7.235610861">
        <ele>2128.000000</ele>
        <time>2015-08-05T14:14:22Z</time>
        <speed>2.904000</speed>
      </trkpt>
      <trkpt lat="46.032941344" lon="7.235625529">
        <ele>2127.600000</ele>
        <time>2015-08-05T14:14:23Z</time>
        <speed>2.046000</speed>
      </trkpt>
      <trkpt lat="46.032935393" lon="7.235648663">
        <ele>2127.200000</ele>
        <time>2015-08-05T14:14:24Z</time>
        <speed>2.046000</speed>
      </trkpt>
      <trkpt lat="46.032920641" lon="7.235719993">
        <ele>2127.200000</ele>
        <time>2015-08-05T14:14:28Z</time>
        <speed>0.000000</speed>
      </trkpt>
      <trkpt lat="46.032925251" lon="7.235775062">
        <ele>2127.200000</ele>
        <time>2015-08-05T14:14:29Z</time>
        <speed>1.802000</speed>
      </trkpt>
      <trkpt lat="46.032884431" lon="7.235872376">
        <ele>2127.200000</ele>
        <time>2015-08-05T14:14:31Z</time>
        <speed>1.898000</speed>
      </trkpt>
      <trkpt lat="46.032845707" lon="7.235942533">
        <ele>2127.200000</ele>
        <time>2015-08-05T14:14:34Z</time>
        <speed>4.012000</speed>
      </trkpt>
      <trkpt lat="46.032845791" lon="7.235983185">
        <ele>2127.200000</ele>
        <time>2015-08-05T14:14:37Z</time>
        <speed>4.250000</speed>
      </trkpt>
      <trkpt lat="46.032835313" lon="7.236023502">
        <ele>2127.200000</ele>
        <time>2015-08-05T14:14:40Z</time>
        <speed>1.602000</speed>
      </trkpt>
      <trkpt lat="46.032828524" lon="7.236055353">
        <ele>2127.200000</ele>
        <time>2015-08-05T14:14:41Z</time>
        <speed>1.375000</speed>
      </trkpt>
      <trkpt lat="46.032787452" lon="7.236179322">
        <ele>2126.800000</ele>
        <time>2015-08-05T14:14:44Z</time>
        <speed>1.934000</speed>
      </trkpt>
      <trkpt lat="46.032784770" lon="7.236197929">
        <ele>2126.200000</ele>
        <time>2015-08-05T14:14:45Z</time>
        <speed>3.812000</speed>
      </trkpt>
      <trkpt lat="46.032792649" lon="7.236233217">
        <ele>2125.800000</ele>
        <time>2015-08-05T14:14:46Z</time>
        <speed>3.812000</speed>
      </trkpt>
      <trkpt lat="46.032791141" lon="7.236245203">
        <ele>2124.800000</ele>
        <time>2015-08-05T14:14:47Z</time>
        <speed>0.000000</speed>
      </trkpt>
      <trkpt lat="46.032773622" lon="7.236323155">
        <ele>2124.400000</ele>
        <time>2015-08-05T14:14:48Z</time>
        <speed>2.724000</speed>
      </trkpt>
      <trkpt lat="46.032772868" lon="7.236324245">
        <ele>2124.000000</ele>
        <time>2015-08-05T14:14:49Z</time>
        <speed>3.953000</speed>
      </trkpt>
      <trkpt lat="46.032768928" lon="7.236329525">
        <ele>2123.600000</ele>
        <time>2015-08-05T14:14:50Z</time>
        <speed>3.953000</speed>
      </trkpt>
      <trkpt lat="46.032765157" lon="7.236337907">
        <ele>2123.200000</ele>
        <time>2015-08-05T14:14:51Z</time>
        <speed>0.000000</speed>
      </trkpt>
      <trkpt lat="46.032759541" lon="7.236351151">
        <ele>2122.800000</ele>
        <time>2015-08-05T14:14:52Z</time>
        <speed>0.000000</speed>
      </trkpt>
      <trkpt lat="46.032762726" lon="7.236367328">
        <ele>2122.800000</ele>
        <time>2015-08-05T14:14:53Z</time>
        <speed>1.008000</speed>
      </trkpt>
      <trkpt lat="46.032762223" lon="7.236384762">
        <ele>2122.800000</ele>
        <time>2015-08-05T14:14:54Z</time>
        <speed>1.008000</speed>
      </trkpt>
      <trkpt lat="46.032735904" lon="7.236530775">
        <ele>2122.400000</ele>
        <time>2015-08-05T14:14:58Z</time>
        <speed>2.727000</speed>
      </trkpt>
      <trkpt lat="46.032735820" lon="7.236574864">
        <ele>2122.000000</ele>
        <time>2015-08-05T14:14:59Z</time>
        <speed>2.924000</speed>
      </trkpt>
      <trkpt lat="46.032720565" lon="7.236615348">
        <ele>2121.600000</ele>
        <time>2015-08-05T14:15:00Z</time>
        <speed>3.084000</speed>
      </trkpt>
      <trkpt lat="46.032705980" lon="7.236660359">
        <ele>2121.000000</ele>
        <time>2015-08-05T14:15:01Z</time>
        <speed>3.607000</speed>
      </trkpt>
      <trkpt lat="46.032691312" lon="7.236705035">
        <ele>2120.400000</ele>
        <time>2015-08-05T14:15:02Z</time>
        <speed>3.542000</speed>
      </trkpt>
      <trkpt lat="46.032664574" lon="7.236737305">
        <ele>2119.800000</ele>
        <time>2015-08-05T14:15:03Z</time>
        <speed>3.307000</speed>
      </trkpt>
      <trkpt lat="46.032652085" lon="7.236766977">
        <ele>2119.200000</ele>
        <time>2015-08-05T14:15:04Z</time>
        <speed>4.225000</speed>
      </trkpt>
      <trkpt lat="46.032631130" lon="7.236783657">
        <ele>2118.600000</ele>
        <time>2015-08-05T14:15:05Z</time>
        <speed>2.965000</speed>
      </trkpt>
      <trkpt lat="46.032624592" lon="7.236778209">
        <ele>2118.000000</ele>
        <time>2015-08-05T14:15:06Z</time>
        <speed>2.965000</speed>
      </trkpt>
      <trkpt lat="46.032613025" lon="7.236847862">
        <ele>2118.000000</ele>
        <time>2015-08-05T14:15:10Z</time>
        <speed>1.292000</speed>
      </trkpt>
      <trkpt lat="46.032566673" lon="7.236931681">
        <ele>2118.000000</ele>
        <time>2015-08-05T14:15:14Z</time>
        <speed>0.000000</speed>
      </trkpt>
      <trkpt lat="46.032544629" lon="7.236989181">
        <ele>2117.600000</ele>
        <time>2015-08-05T14:15:15Z</time>
        <speed>2.379000</speed>
      </trkpt>
      <trkpt lat="46.032532810" lon="7.237035365">
        <ele>2117.200000</ele>
        <time>2015-08-05T14:15:16Z</time>
        <speed>2.724000</speed>
      </trkpt>
      <trkpt lat="46.032515292" lon="7.237060595">
        <ele>2116.600000</ele>
        <time>2015-08-05T14:15:17Z</time>
        <speed>3.088000</speed>
      </trkpt>
      <trkpt lat="46.032512191" lon="7.237096469">
        <ele>2116.200000</ele>
        <time>2015-08-05T14:15:18Z</time>
        <speed>3.075000</speed>
      </trkpt>
      <trkpt lat="46.032499786" lon="7.237125136">
        <ele>2115.600000</ele>
        <time>2015-08-05T14:15:19Z</time>
        <speed>3.010000</speed>
      </trkpt>
      <trkpt lat="46.032483860" lon="7.237152544">
        <ele>2115.200000</ele>
        <time>2015-08-05T14:15:20Z</time>
        <speed>2.663000</speed>
      </trkpt>
      <trkpt lat="46.032473466" lon="7.237190095">
        <ele>2114.600000</ele>
        <time>2015-08-05T14:15:21Z</time>
        <speed>2.998000</speed>
      </trkpt>
      <trkpt lat="46.032449913" lon="7.237227898">
        <ele>2114.000000</ele>
        <time>2015-08-05T14:15:22Z</time>
        <speed>2.461000</speed>
      </trkpt>
      <trkpt lat="46.032427031" lon="7.237253714">
        <ele>2113.600000</ele>
        <time>2015-08-05T14:15:23Z</time>
        <speed>2.461000</speed>
      </trkpt>
      <trkpt lat="46.032408255" lon="7.237254217">
        <ele>2113.000000</ele>
        <time>2015-08-05T14:15:24Z</time>
        <speed>2.461000</speed>
      </trkpt>
      <trkpt lat="46.032403645" lon="7.237270645">
        <ele>2112.600000</ele>
        <time>2015-08-05T14:15:25Z</time>
        <speed>2.998000</speed>
      </trkpt>
      <trkpt lat="46.032406914" lon="7.237264862">
        <ele>2112.200000</ele>
        <time>2015-08-05T14:15:26Z</time>
        <speed>2.998000</speed>
      </trkpt>
      <trkpt lat="46.032407920" lon="7.237264108">
        <ele>2111.800000</ele>
        <time>2015-08-05T14:15:27Z</time>
        <speed>1.850000</speed>
      </trkpt>
      <trkpt lat="46.032401382" lon="7.237276010">
        <ele>2111.400000</ele>
        <time>2015-08-05T14:15:28Z</time>
        <speed>1.850000</speed>
      </trkpt>
      <trkpt lat="46.032392665" lon="7.237296378">
        <ele>2111.400000</ele>
        <time>2015-08-05T14:15:31Z</time>
        <speed>0.000000</speed>
      </trkpt>
      <trkpt lat="46.032362574" lon="7.237366954">
        <ele>2111.400000</ele>
        <time>2015-08-05T14:15:36Z</time>
        <speed>1.467000</speed>
      </trkpt>
      <trkpt lat="46.032361149" lon="7.237373827">
        <ele>2111.400000</ele>
        <time>2015-08-05T14:15:37Z</time>
        <speed>0.000000</speed>
      </trkpt>
      <trkpt lat="46.032358634" lon="7.237443480">
        <ele>2110.800000</ele>
        <time>2015-08-05T14:15:39Z</time>
        <speed>2.525000</speed>
      </trkpt>
      <trkpt lat="46.032355114" lon="7.237485977">
        <ele>2110.400000</ele>
        <time>2015-08-05T14:15:40Z</time>
        <speed>2.525000</speed>
      </trkpt>
      <trkpt lat="46.032343966" lon="7.237533586">
        <ele>2110.000000</ele>
        <time>2015-08-05T14:15:41Z</time>
        <speed>2.428000</speed>
      </trkpt>
      <trkpt lat="46.032332986" lon="7.237571472">
        <ele>2109.400000</ele>
        <time>2015-08-05T14:15:42Z</time>
        <speed>3.106000</speed>
      </trkpt>
      <trkpt lat="46.032324855" lon="7.237587984">
        <ele>2109.000000</ele>
        <time>2015-08-05T14:15:43Z</time>
        <speed>3.106000</speed>
      </trkpt>
      <trkpt lat="46.032331477" lon="7.237615645">
        <ele>2109.000000</ele>
        <time>2015-08-05T14:15:45Z</time>
        <speed>3.097000</speed>
      </trkpt>
      <trkpt lat="46.032335081" lon="7.237660739">
        <ele>2109.000000</ele>
        <time>2015-08-05T14:15:49Z</time>
        <speed>8.081000</speed>
      </trkpt>
      <trkpt lat="46.032335165" lon="7.237706421">
        <ele>2108.600000</ele>
        <time>2015-08-05T14:15:54Z</time>
        <speed>0.000000</speed>
      </trkpt>
      <trkpt lat="46.032327873" lon="7.237757131">
        <ele>2108.200000</ele>
        <time>2015-08-05T14:15:55Z</time>
        <speed>1.406000</speed>
      </trkpt>
      <trkpt lat="46.032316892" lon="7.237795604">
        <ele>2107.800000</ele>
        <time>2015-08-05T14:15:56Z</time>
        <speed>2.467000</speed>
      </trkpt>
      <trkpt lat="46.032325274" lon="7.237826114">
        <ele>2107.400000</ele>
        <time>2015-08-05T14:15:57Z</time>
        <speed>2.534000</speed>
      </trkpt>
      <trkpt lat="46.032329298" lon="7.237873220">
        <ele>2107.000000</ele>
        <time>2015-08-05T14:15:58Z</time>
        <speed>2.534000</speed>
      </trkpt>
      <trkpt lat="46.032337596" lon="7.237909514">
        <ele>2106.600000</ele>
        <time>2015-08-05T14:15:59Z</time>
        <speed>3.467000</speed>
      </trkpt>
      <trkpt lat="46.032363496" lon="7.237940024">
        <ele>2106.200000</ele>
        <time>2015-08-05T14:16:00Z</time>
        <speed>2.858000</speed>
      </trkpt>
      <trkpt lat="46.032377829" lon="7.237993668">
        <ele>2105.200000</ele>
        <time>2015-08-05T14:16:01Z</time>
        <speed>2.932000</speed>
      </trkpt>
      <trkpt lat="46.032371962" lon="7.238033482">
        <ele>2104.800000</ele>
        <time>2015-08-05T14:16:02Z</time>
        <speed>3.632000</speed>
      </trkpt>
      <trkpt lat="46.032339607" lon="7.238038512">
        <ele>2104.800000</ele>
        <time>2015-08-05T14:16:05Z</time>
        <speed>0.000000</speed>
      </trkpt>
      <trkpt lat="46.032317982" lon="7.238064328">
        <ele>2104.400000</ele>
        <time>2015-08-05T14:16:06Z</time>
        <speed>1.811000</speed>
      </trkpt>
      <trkpt lat="46.032317563" lon="7.238080589">
        <ele>2104.000000</ele>
        <time>2015-08-05T14:16:07Z</time>
        <speed>2.056000</speed>
      </trkpt>
      <trkpt lat="46.032317060" lon="7.238102717">
        <ele>2103.400000</ele>
        <time>2015-08-05T14:16:08Z</time>
        <speed>1.605000</speed>
      </trkpt>
      <trkpt lat="46.032332147" lon="7.238119816">
        <ele>2103.000000</ele>
        <time>2015-08-05T14:16:09Z</time>
        <speed>1.605000</speed>
      </trkpt>
      <trkpt lat="46.032346061" lon="7.238138424">
        <ele>2102.600000</ele>
        <time>2015-08-05T14:16:10Z</time>
        <speed>1.838000</speed>
      </trkpt>
      <trkpt lat="46.032366094" lon="7.238151667">
        <ele>2102.200000</ele>
        <time>2015-08-05T14:16:11Z</time>
        <speed>1.576000</speed>
      </trkpt>
      <trkpt lat="46.032385205" lon="7.238164324">
        <ele>2101.800000</ele>
        <time>2015-08-05T14:16:12Z</time>
        <speed>1.661000</speed>
      </trkpt>
      <trkpt lat="46.032394090" lon="7.238184441">
        <ele>2101.200000</ele>
        <time>2015-08-05T14:16:13Z</time>
        <speed>2.611000</speed>
      </trkpt>
      <trkpt lat="46.032385792" lon="7.238210676">
        <ele>2100.800000</ele>
        <time>2015-08-05T14:16:14Z</time>
        <speed>2.072000</speed>
      </trkpt>
      <trkpt lat="46.032361484" lon="7.238222830">
        <ele>2100.400000</ele>
        <time>2015-08-05T14:16:15Z</time>
        <speed>1.599000</speed>
      </trkpt>
      <trkpt lat="46.032339943" lon="7.238253507">
        <ele>2100.000000</ele>
        <time>2015-08-05T14:16:16Z</time>
        <speed>1.861000</speed>
      </trkpt>
      <trkpt lat="46.032323514" lon="7.238268511">
        <ele>2099.400000</ele>
        <time>2015-08-05T14:16:17Z</time>
        <speed>1.861000</speed>
      </trkpt>
      <trkpt lat="46.032324604" lon="7.238249987">
        <ele>2098.800000</ele>
        <time>2015-08-05T14:16:18Z</time>
        <speed>1.861000</speed>
      </trkpt>
      <trkpt lat="46.032319742" lon="7.238254681">
        <ele>2098.400000</ele>
        <time>2015-08-05T14:16:19Z</time>
        <speed>3.115000</speed>
      </trkpt>
      <trkpt lat="46.032321335" lon="7.238254765">
        <ele>2097.800000</ele>
        <time>2015-08-05T14:16:20Z</time>
        <speed>3.115000</speed>
      </trkpt>
      <trkpt lat="46.032321000" lon="7.238255351">
        <ele>2097.800000</ele>
        <time>2015-08-05T14:16:34Z</time>
        <speed>0.000000</speed>
      </trkpt>
      <trkpt lat="46.032321000" lon="7.238255351">
        <ele>2097.800000</ele>
        <time>2015-08-05T14:16:49Z</time>
        <speed>0.000000</speed>
      </trkpt>
      <trkpt lat="46.032323179" lon="7.238255603">
        <ele>2097.800000</ele>
        <time>2015-08-05T14:17:01Z</time>
        <speed>0.000000</speed>
      </trkpt>
      <trkpt lat="46.032302811" lon="7.238258704">
        <ele>2097.400000</ele>
        <time>2015-08-05T14:17:06Z</time>
        <speed>0.000000</speed>
      </trkpt>
      <trkpt lat="46.032291160" lon="7.238267589">
        <ele>2097.000000</ele>
        <time>2015-08-05T14:17:07Z</time>
        <speed>0.000000</speed>
      </trkpt>
      <trkpt lat="46.032275737" lon="7.238302458">
        <ele>2096.600000</ele>
        <time>2015-08-05T14:17:08Z</time>
        <speed>1.354000</speed>
      </trkpt>
      <trkpt lat="46.032260901" lon="7.238329699">
        <ele>2096.200000</ele>
        <time>2015-08-05T14:17:09Z</time>
        <speed>1.354000</speed>
      </trkpt>
      <trkpt lat="46.032235672" lon="7.238364065">
        <ele>2095.800000</ele>
        <time>2015-08-05T14:17:10Z</time>
        <speed>1.170000</speed>
      </trkpt>
      <trkpt lat="46.032208095" lon="7.238386444">
        <ele>2095.800000</ele>
        <time>2015-08-05T14:17:11Z</time>
        <speed>2.315000</speed>
      </trkpt>
      <trkpt lat="46.032199462" lon="7.238410249">
        <ele>2095.400000</ele>
        <time>2015-08-05T14:17:12Z</time>
        <speed>2.315000</speed>
      </trkpt>
      <trkpt lat="46.032190410" lon="7.238426342">
        <ele>2095.000000</ele>
        <time>2015-08-05T14:17:13Z</time>
        <speed>2.798000</speed>
      </trkpt>
      <trkpt lat="46.032176412" lon="7.238433215">
        <ele>2094.600000</ele>
        <time>2015-08-05T14:17:14Z</time>
        <speed>2.231000</speed>
      </trkpt>
      <trkpt lat="46.032174065" lon="7.238431707">
        <ele>2094.200000</ele>
        <time>2015-08-05T14:17:15Z</time>
        <speed>2.123000</speed>
      </trkpt>
      <trkpt lat="46.032168533" lon="7.238436903">
        <ele>2093.800000</ele>
        <time>2015-08-05T14:17:16Z</time>
        <speed>2.123000</speed>
      </trkpt>
      <trkpt lat="46.032150847" lon="7.238467246">
        <ele>2093.800000</ele>
        <time>2015-08-05T14:17:17Z</time>
        <speed>2.123000</speed>
      </trkpt>
      <trkpt lat="46.032131904" lon="7.238486943">
        <ele>2093.400000</ele>
        <time>2015-08-05T14:17:18Z</time>
        <speed>2.123000</speed>
      </trkpt>
      <trkpt lat="46.032111787" lon="7.238512592">
        <ele>2093.000000</ele>
        <time>2015-08-05T14:17:19Z</time>
        <speed>1.879000</speed>
      </trkpt>
      <trkpt lat="46.032087731" lon="7.238521980">
        <ele>2092.400000</ele>
        <time>2015-08-05T14:17:20Z</time>
        <speed>1.879000</speed>
      </trkpt>
      <trkpt lat="46.032064597" lon="7.238528601">
        <ele>2092.000000</ele>
        <time>2015-08-05T14:17:21Z</time>
        <speed>1.879000</speed>
      </trkpt>
      <trkpt lat="46.032042972" lon="7.238560369">
        <ele>2091.600000</ele>
        <time>2015-08-05T14:17:22Z</time>
        <speed>3.075000</speed>
      </trkpt>
      <trkpt lat="46.032012462" lon="7.238584509">
        <ele>2091.600000</ele>
        <time>2015-08-05T14:17:23Z</time>
        <speed>2.359000</speed>
      </trkpt>
      <trkpt lat="46.031995530" lon="7.238611666">
        <ele>2091.200000</ele>
        <time>2015-08-05T14:17:24Z</time>
        <speed>2.359000</speed>
      </trkpt>
      <trkpt lat="46.031962338" lon="7.238628011">
        <ele>2090.800000</ele>
        <time>2015-08-05T14:17:25Z</time>
        <speed>3.161000</speed>
      </trkpt>
      <trkpt lat="46.031919590" lon="7.238642847">
        <ele>2090.400000</ele>
        <time>2015-08-05T14:17:26Z</time>
        <speed>3.228000</speed>
      </trkpt>
      <trkpt lat="46.031888996" lon="7.238637734">
        <ele>2089.600000</ele>
        <time>2015-08-05T14:17:27Z</time>
        <speed>3.989000</speed>
      </trkpt>
      <trkpt lat="46.031883883" lon="7.238643769">
        <ele>2089.000000</ele>
        <time>2015-08-05T14:17:28Z</time>
        <speed>4.371000</speed>
      </trkpt>
      <trkpt lat="46.031888745" lon="7.238651648">
        <ele>2088.400000</ele>
        <time>2015-08-05T14:17:29Z</time>
        <speed>0.000000</speed>
      </trkpt>
      <trkpt lat="46.031876591" lon="7.238666484">
        <ele>2087.600000</ele>
        <time>2015-08-05T14:17:30Z</time>
        <speed>0.000000</speed>
      </trkpt>
      <trkpt lat="46.031863934" lon="7.238688863">
        <ele>2087.000000</ele>
        <time>2015-08-05T14:17:31Z</time>
        <speed>1.325000</speed>
      </trkpt>
      <trkpt lat="46.031815152" lon="7.238730773">
        <ele>2087.000000</ele>
        <time>2015-08-05T14:17:33Z</time>
        <speed>1.423000</speed>
      </trkpt>
      <trkpt lat="46.031791012" lon="7.238742089">
        <ele>2086.400000</ele>
        <time>2015-08-05T14:17:34Z</time>
        <speed>1.893000</speed>
      </trkpt>
      <trkpt lat="46.031770895" lon="7.238771677">
        <ele>2086.000000</ele>
        <time>2015-08-05T14:17:35Z</time>
        <speed>1.893000</speed>
      </trkpt>
      <trkpt lat="46.031738541" lon="7.238798750">
        <ele>2085.400000</ele>
        <time>2015-08-05T14:17:36Z</time>
        <speed>1.893000</speed>
      </trkpt>
      <trkpt lat="46.031712054" lon="7.238800427">
        <ele>2085.000000</ele>
        <time>2015-08-05T14:17:37Z</time>
        <speed>6.584000</speed>
      </trkpt>
      <trkpt lat="46.031707277" lon="7.238811658">
        <ele>2084.400000</ele>
        <time>2015-08-05T14:17:38Z</time>
        <speed>3.530000</speed>
      </trkpt>
      <trkpt lat="46.031682801" lon="7.238869410">
        <ele>2084.000000</ele>
        <time>2015-08-05T14:17:40Z</time>
        <speed>2.042000</speed>
      </trkpt>
      <trkpt lat="46.031678610" lon="7.238889107">
        <ele>2083.000000</ele>
        <time>2015-08-05T14:17:41Z</time>
        <speed>2.168000</speed>
      </trkpt>
      <trkpt lat="46.031671151" lon="7.238914253">
        <ele>2082.600000</ele>
        <time>2015-08-05T14:17:42Z</time>
        <speed>2.401000</speed>
      </trkpt>
      <trkpt lat="46.031655476" lon="7.238930514">
        <ele>2082.200000</ele>
        <time>2015-08-05T14:17:43Z</time>
        <speed>2.401000</speed>
      </trkpt>
      <trkpt lat="46.031646424" lon="7.238965382">
        <ele>2081.800000</ele>
        <time>2015-08-05T14:17:44Z</time>
        <speed>1.622000</speed>
      </trkpt>
      <trkpt lat="46.031648184" lon="7.238978961">
        <ele>2081.200000</ele>
        <time>2015-08-05T14:17:45Z</time>
        <speed>9.505000</speed>
      </trkpt>
      <trkpt lat="46.031651872" lon="7.238978793">
        <ele>2080.800000</ele>
        <time>2015-08-05T14:17:46Z</time>
        <speed>0.000000</speed>
      </trkpt>
      <trkpt lat="46.031664194" lon="7.239016344">
        <ele>2080.400000</ele>
        <time>2015-08-05T14:17:47Z</time>
        <speed>1.847000</speed>
      </trkpt>
      <trkpt lat="46.031682131" lon="7.239046435">
        <ele>2079.800000</ele>
        <time>2015-08-05T14:17:48Z</time>
        <speed>2.019000</speed>
      </trkpt>
      <trkpt lat="46.031692273" lon="7.239113826">
        <ele>2079.800000</ele>
        <time>2015-08-05T14:17:51Z</time>
        <speed>3.375000</speed>
      </trkpt>
      <trkpt lat="46.031684729" lon="7.239187838">
        <ele>2079.800000</ele>
        <time>2015-08-05T14:17:54Z</time>
        <speed>1.352000</speed>
      </trkpt>
      <trkpt lat="46.031645837" lon="7.239214828">
        <ele>2079.800000</ele>
        <time>2015-08-05T14:17:56Z</time>
        <speed>1.915000</speed>
      </trkpt>
      <trkpt lat="46.031615076" lon="7.239230837">
        <ele>2079.800000</ele>
        <time>2015-08-05T14:17:59Z</time>
        <speed>2.208000</speed>
      </trkpt>
      <trkpt lat="46.031608203" lon="7.239245254">
        <ele>2079.800000</ele>
        <time>2015-08-05T14:18:00Z</time>
        <speed>1.460000</speed>
      </trkpt>
      <trkpt lat="46.031589595" lon="7.239265790">
        <ele>2079.800000</ele>
        <time>2015-08-05T14:18:06Z</time>
        <speed>2.509000</speed>
      </trkpt>
      <trkpt lat="46.031587667" lon="7.239266125">
        <ele>2079.400000</ele>
        <time>2015-08-05T14:18:07Z</time>
        <speed>2.509000</speed>
      </trkpt>
      <trkpt lat="46.031588589" lon="7.239267885">
        <ele>2079.000000</ele>
        <time>2015-08-05T14:18:08Z</time>
        <speed>0.000000</speed>
      </trkpt>
      <trkpt lat="46.031588589" lon="7.239267885">
        <ele>2078.600000</ele>
        <time>2015-08-05T14:18:09Z</time>
        <speed>0.000000</speed>
      </trkpt>
      <trkpt lat="46.031588589" lon="7.239267885">
        <ele>2078.200000</ele>
        <time>2015-08-05T14:18:10Z</time>
        <speed>0.000000</speed>
      </trkpt>
      <trkpt lat="46.031588589" lon="7.239267885">
        <ele>2077.800000</ele>
        <time>2015-08-05T14:18:11Z</time>
        <speed>0.000000</speed>
      </trkpt>
      <trkpt lat="46.031588589" lon="7.239267885">
        <ele>2077.800000</ele>
        <time>2015-08-05T14:18:16Z</time>
        <speed>0.000000</speed>
      </trkpt>
      <trkpt lat="46.031588589" lon="7.239267885">
        <ele>2077.800000</ele>
        <time>2015-08-05T14:18:28Z</time>
        <speed>0.000000</speed>
      </trkpt>
      <trkpt lat="46.031588589" lon="7.239267885">
        <ele>2077.800000</ele>
        <time>2015-08-05T14:18:31Z</time>
        <speed>0.000000</speed>
      </trkpt>
      <trkpt lat="46.031588589" lon="7.239267885">
        <ele>2077.800000</ele>
        <time>2015-08-05T14:18:33Z</time>
        <speed>0.000000</speed>
      </trkpt>
      <trkpt lat="46.031588589" lon="7.239267885">
        <ele>2077.800000</ele>
        <time>2015-08-05T14:18:37Z</time>
        <speed>0.000000</speed>
      </trkpt>
      <trkpt lat="46.031588589" lon="7.239267885">
        <ele>2077.800000</ele>
        <time>2015-08-05T14:18:42Z</time>
        <speed>0.000000</speed>
      </trkpt>
      <trkpt lat="46.031587499" lon="7.239268304">
        <ele>2077.800000</ele>
        <time>2015-08-05T14:18:55Z</time>
        <speed>0.000000</speed>
      </trkpt>
      <trkpt lat="46.031587499" lon="7.239268304">
        <ele>2077.800000</ele>
        <time>2015-08-05T14:18:59Z</time>
        <speed>0.000000</speed>
      </trkpt>
      <trkpt lat="46.031592696" lon="7.239266963">
        <ele>2077.800000</ele>
        <time>2015-08-05T14:19:09Z</time>
        <speed>0.000000</speed>
      </trkpt>
      <trkpt lat="46.031653213" lon="7.239345502">
        <ele>2077.800000</ele>
        <time>2015-08-05T14:19:14Z</time>
        <speed>0.882000</speed>
      </trkpt>
      <trkpt lat="46.031673414" lon="7.239371569">
        <ele>2077.800000</ele>
        <time>2015-08-05T14:19:16Z</time>
        <speed>8.490000</speed>
      </trkpt>
      <trkpt lat="46.031696212" lon="7.239433596">
        <ele>2077.800000</ele>
        <time>2015-08-05T14:19:19Z</time>
        <speed>1.937000</speed>
      </trkpt>
      <trkpt lat="46.031691435" lon="7.239460250">
        <ele>2077.800000</ele>
        <time>2015-08-05T14:19:20Z</time>
        <speed>1.911000</speed>
      </trkpt>
      <trkpt lat="46.031661763" lon="7.239524874">
        <ele>2077.800000</ele>
        <time>2015-08-05T14:19:23Z</time>
        <speed>2.186000</speed>
      </trkpt>
      <trkpt lat="46.031634773" lon="7.239580698">
        <ele>2077.800000</ele>
        <time>2015-08-05T14:19:26Z</time>
        <speed>1.801000</speed>
      </trkpt>
      <trkpt lat="46.031625972" lon="7.239572903">
        <ele>2077.800000</ele>
        <time>2015-08-05T14:19:28Z</time>
        <speed>1.850000</speed>
      </trkpt>
      <trkpt lat="46.031624547" lon="7.239576675">
        <ele>2077.800000</ele>
        <time>2015-08-05T14:19:29Z</time>
        <speed>1.850000</speed>
      </trkpt>
      <trkpt lat="46.031595211" lon="7.239600898">
        <ele>2077.800000</ele>
        <time>2015-08-05T14:19:33Z</time>
        <speed>0.000000</speed>
      </trkpt>
      <trkpt lat="46.031589511" lon="7.239616405">
        <ele>2077.800000</ele>
        <time>2015-08-05T14:19:34Z</time>
        <speed>1.194000</speed>
      </trkpt>
      <trkpt lat="46.031581213" lon="7.239668205">
        <ele>2077.800000</ele>
        <time>2015-08-05T14:19:39Z</time>
        <speed>1.088000</speed>
      </trkpt>
      <trkpt lat="46.031567969" lon="7.239720424">
        <ele>2077.800000</ele>
        <time>2015-08-05T14:19:44Z</time>
        <speed>0.000000</speed>
      </trkpt>
      <trkpt lat="46.031539555" lon="7.239848332">
        <ele>2077.800000</ele>
        <time>2015-08-05T14:19:49Z</time>
        <speed>1.749000</speed>
      </trkpt>
      <trkpt lat="46.031541315" lon="7.239873226">
        <ele>2077.800000</ele>
        <time>2015-08-05T14:19:50Z</time>
        <speed>6.215000</speed>
      </trkpt>
      <trkpt lat="46.031528072" lon="7.239909185">
        <ele>2077.800000</ele>
        <time>2015-08-05T14:19:52Z</time>
        <speed>11.237000</speed>
      </trkpt>
      <trkpt lat="46.031521617" lon="7.239923099">
        <ele>2077.800000</ele>
        <time>2015-08-05T14:19:54Z</time>
        <speed>0.000000</speed>
      </trkpt>
      <trkpt lat="46.031514241" lon="7.239935504">
        <ele>2077.800000</ele>
        <time>2015-08-05T14:19:55Z</time>
        <speed>1.669000</speed>
      </trkpt>
      <trkpt lat="46.031513236" lon="7.239930140">
        <ele>2077.800000</ele>
        <time>2015-08-05T14:19:59Z</time>
        <speed>0.000000</speed>
      </trkpt>
      <trkpt lat="46.031460178" lon="7.239960314">
        <ele>2077.800000</ele>
        <time>2015-08-05T14:20:04Z</time>
        <speed>0.000000</speed>
      </trkpt>
      <trkpt lat="46.031438469" lon="7.239975989">
        <ele>2077.800000</ele>
        <time>2015-08-05T14:20:10Z</time>
        <speed>0.000000</speed>
      </trkpt>
      <trkpt lat="46.031401253" lon="7.240032315">
        <ele>2077.800000</ele>
        <time>2015-08-05T14:20:13Z</time>
        <speed>1.042000</speed>
      </trkpt>
      <trkpt lat="46.031393626" lon="7.240047319">
        <ele>2077.800000</ele>
        <time>2015-08-05T14:20:14Z</time>
        <speed>1.493000</speed>
      </trkpt>
      <trkpt lat="46.031350208" lon="7.240132395">
        <ele>2077.800000</ele>
        <time>2015-08-05T14:20:19Z</time>
        <speed>2.487000</speed>
      </trkpt>
      <trkpt lat="46.031297402" lon="7.240269104">
        <ele>2077.800000</ele>
        <time>2015-08-05T14:20:26Z</time>
        <speed>1.804000</speed>
      </trkpt>
      <trkpt lat="46.031260521" lon="7.240375721">
        <ele>2077.800000</ele>
        <time>2015-08-05T14:20:32Z</time>
        <speed>1.613000</speed>
      </trkpt>
      <trkpt lat="46.031262365" lon="7.240364490">
        <ele>2077.800000</ele>
        <time>2015-08-05T14:20:33Z</time>
        <speed>1.425000</speed>
      </trkpt>
      <trkpt lat="46.031261108" lon="7.240365076">
        <ele>2077.800000</ele>
        <time>2015-08-05T14:20:36Z</time>
        <speed>0.000000</speed>
      </trkpt>
      <trkpt lat="46.031271921" lon="7.240421235">
        <ele>2077.800000</ele>
        <time>2015-08-05T14:20:39Z</time>
        <speed>0.000000</speed>
      </trkpt>
      <trkpt lat="46.031277201" lon="7.240466581">
        <ele>2077.800000</ele>
        <time>2015-08-05T14:20:41Z</time>
        <speed>1.485000</speed>
      </trkpt>
      <trkpt lat="46.031278375" lon="7.240506982">
        <ele>2077.800000</ele>
        <time>2015-08-05T14:20:44Z</time>
        <speed>2.777000</speed>
      </trkpt>
      <trkpt lat="46.031313914" lon="7.240579234">
        <ele>2077.800000</ele>
        <time>2015-08-05T14:20:50Z</time>
        <speed>1.207000</speed>
      </trkpt>
      <trkpt lat="46.031335707" lon="7.240577055">
        <ele>2077.800000</ele>
        <time>2015-08-05T14:20:52Z</time>
        <speed>1.001000</speed>
      </trkpt>
      <trkpt lat="46.031355488" lon="7.240592058">
        <ele>2077.800000</ele>
        <time>2015-08-05T14:20:56Z</time>
        <speed>1.113000</speed>
      </trkpt>
      <trkpt lat="46.031394045" lon="7.240607062">
        <ele>2077.800000</ele>
        <time>2015-08-05T14:21:01Z</time>
        <speed>1.102000</speed>
      </trkpt>
      <trkpt lat="46.031401170" lon="7.240622652">
        <ele>2077.800000</ele>
        <time>2015-08-05T14:21:05Z</time>
        <speed>3.403000</speed>
      </trkpt>
      <trkpt lat="46.031407624" lon="7.240657773">
        <ele>2077.800000</ele>
        <time>2015-08-05T14:21:09Z</time>
        <speed>0.000000</speed>
      </trkpt>
      <trkpt lat="46.031408378" lon="7.240705633">
        <ele>2077.800000</ele>
        <time>2015-08-05T14:21:10Z</time>
        <speed>1.332000</speed>
      </trkpt>
      <trkpt lat="46.031404606" lon="7.240722816">
        <ele>2078.200000</ele>
        <time>2015-08-05T14:21:11Z</time>
        <speed>1.756000</speed>
      </trkpt>
      <trkpt lat="46.031407121" lon="7.240748716">
        <ele>2078.600000</ele>
        <time>2015-08-05T14:21:12Z</time>
        <speed>1.694000</speed>
      </trkpt>
      <trkpt lat="46.031404187" lon="7.240749554">
        <ele>2079.000000</ele>
        <time>2015-08-05T14:21:13Z</time>
        <speed>2.104000</speed>
      </trkpt>
      <trkpt lat="46.031404271" lon="7.240749890">
        <ele>2079.400000</ele>
        <time>2015-08-05T14:21:14Z</time>
        <speed>2.104000</speed>
      </trkpt>
      <trkpt lat="46.031406618" lon="7.240759780">
        <ele>2079.800000</ele>
        <time>2015-08-05T14:21:15Z</time>
        <speed>2.104000</speed>
      </trkpt>
      <trkpt lat="46.031421035" lon="7.240792554">
        <ele>2079.800000</ele>
        <time>2015-08-05T14:21:19Z</time>
        <speed>0.000000</speed>
      </trkpt>
      <trkpt lat="46.031450623" lon="7.240842174">
        <ele>2079.800000</ele>
        <time>2015-08-05T14:21:22Z</time>
        <speed>1.263000</speed>
      </trkpt>
      <trkpt lat="46.031450623" lon="7.240842174">
        <ele>2079.800000</ele>
        <time>2015-08-05T14:21:24Z</time>
        <speed>0.000000</speed>
      </trkpt>
      <trkpt lat="46.031460010" lon="7.240861201">
        <ele>2079.800000</ele>
        <time>2015-08-05T14:21:28Z</time>
        <speed>1.701000</speed>
      </trkpt>
      <trkpt lat="46.031468895" lon="7.240881821">
        <ele>2079.800000</ele>
        <time>2015-08-05T14:21:29Z</time>
        <speed>1.701000</speed>
      </trkpt>
      <trkpt lat="46.031521953" lon="7.240968993">
        <ele>2079.800000</ele>
        <time>2015-08-05T14:21:34Z</time>
        <speed>1.732000</speed>
      </trkpt>
      <trkpt lat="46.031527401" lon="7.240979805">
        <ele>2079.800000</ele>
        <time>2015-08-05T14:21:35Z</time>
        <speed>3.106000</speed>
      </trkpt>
      <trkpt lat="46.031544752" lon="7.241043005">
        <ele>2079.800000</ele>
        <time>2015-08-05T14:21:38Z</time>
        <speed>1.650000</speed>
      </trkpt>
      <trkpt lat="46.031558917" lon="7.241075107">
        <ele>2079.800000</ele>
        <time>2015-08-05T14:21:40Z</time>
        <speed>1.615000</speed>
      </trkpt>
      <trkpt lat="46.031561767" lon="7.241097822">
        <ele>2080.200000</ele>
        <time>2015-08-05T14:21:41Z</time>
        <speed>1.663000</speed>
      </trkpt>
      <trkpt lat="46.031567634" lon="7.241120789">
        <ele>2080.600000</ele>
        <time>2015-08-05T14:21:42Z</time>
        <speed>1.663000</speed>
      </trkpt>
      <trkpt lat="46.031574507" lon="7.241143001">
        <ele>2081.000000</ele>
        <time>2015-08-05T14:21:43Z</time>
        <speed>1.687000</speed>
      </trkpt>
      <trkpt lat="46.031577357" lon="7.241161776">
        <ele>2081.600000</ele>
        <time>2015-08-05T14:21:44Z</time>
        <speed>1.672000</speed>
      </trkpt>
      <trkpt lat="46.031577860" lon="7.241185749">
        <ele>2082.000000</ele>
        <time>2015-08-05T14:21:45Z</time>
        <speed>1.656000</speed>
      </trkpt>
      <trkpt lat="46.031582638" lon="7.241207961">
        <ele>2082.000000</ele>
        <time>2015-08-05T14:21:46Z</time>
        <speed>1.656000</speed>
      </trkpt>
      <trkpt lat="46.031598480" lon="7.241280464">
        <ele>2082.000000</ele>
        <time>2015-08-05T14:21:49Z</time>
        <speed>1.965000</speed>
      </trkpt>
      <trkpt lat="46.031590936" lon="7.241306113">
        <ele>2082.000000</ele>
        <time>2015-08-05T14:21:50Z</time>
        <speed>2.188000</speed>
      </trkpt>
      <trkpt lat="46.031590349" lon="7.241333102">
        <ele>2082.000000</ele>
        <time>2015-08-05T14:21:51Z</time>
        <speed>2.157000</speed>
      </trkpt>
      <trkpt lat="46.031573585" lon="7.241539297">
        <ele>2082.000000</ele>
        <time>2015-08-05T14:21:59Z</time>
        <speed>2.161000</speed>
      </trkpt>
      <trkpt lat="46.031560426" lon="7.241549858">
        <ele>2082.400000</ele>
        <time>2015-08-05T14:22:00Z</time>
        <speed>2.395000</speed>
      </trkpt>
      <trkpt lat="46.031553050" lon="7.241567712">
        <ele>2082.800000</ele>
        <time>2015-08-05T14:22:01Z</time>
        <speed>1.908000</speed>
      </trkpt>
      <trkpt lat="46.031553972" lon="7.241593025">
        <ele>2083.200000</ele>
        <time>2015-08-05T14:22:02Z</time>
        <speed>1.795000</speed>
      </trkpt>
      <trkpt lat="46.031562102" lon="7.241618674">
        <ele>2083.600000</ele>
        <time>2015-08-05T14:22:03Z</time>
        <speed>1.960000</speed>
      </trkpt>
      <trkpt lat="46.031574088" lon="7.241643987">
        <ele>2084.000000</ele>
        <time>2015-08-05T14:22:04Z</time>
        <speed>1.960000</speed>
      </trkpt>
      <trkpt lat="46.031587918" lon="7.241671899">
        <ele>2084.000000</ele>
        <time>2015-08-05T14:22:05Z</time>
        <speed>1.960000</speed>
      </trkpt>
      <trkpt lat="46.031615746" lon="7.241731830">
        <ele>2084.000000</ele>
        <time>2015-08-05T14:22:07Z</time>
        <speed>2.385000</speed>
      </trkpt>
      <trkpt lat="46.031632929" lon="7.241752952">
        <ele>2084.000000</ele>
        <time>2015-08-05T14:22:08Z</time>
        <speed>2.395000</speed>
      </trkpt>
      <trkpt lat="46.031645921" lon="7.241786899">
        <ele>2084.000000</ele>
        <time>2015-08-05T14:22:10Z</time>
        <speed>1.858000</speed>
      </trkpt>
      <trkpt lat="46.031686573" lon="7.241853786">
        <ele>2084.000000</ele>
        <time>2015-08-05T14:22:14Z</time>
        <speed>2.066000</speed>
      </trkpt>
      <trkpt lat="46.031704427" lon="7.241861581">
        <ele>2084.000000</ele>
        <time>2015-08-05T14:22:15Z</time>
        <speed>2.102000</speed>
      </trkpt>
      <trkpt lat="46.031782714" lon="7.241936013">
        <ele>2084.000000</ele>
        <time>2015-08-05T14:22:20Z</time>
        <speed>2.436000</speed>
      </trkpt>
      <trkpt lat="46.031797214" lon="7.241947412">
        <ele>2084.000000</ele>
        <time>2015-08-05T14:22:21Z</time>
        <speed>2.436000</speed>
      </trkpt>
      <trkpt lat="46.031874915" lon="7.242046402">
        <ele>2084.000000</ele>
        <time>2015-08-05T14:22:26Z</time>
        <speed>2.233000</speed>
      </trkpt>
      <trkpt lat="46.031885979" lon="7.242068447">
        <ele>2084.000000</ele>
        <time>2015-08-05T14:22:27Z</time>
        <speed>2.240000</speed>
      </trkpt>
      <trkpt lat="46.031986645" lon="7.242207083">
        <ele>2084.000000</ele>
        <time>2015-08-05T14:22:33Z</time>
        <speed>2.977000</speed>
      </trkpt>
      <trkpt lat="46.032081529" lon="7.242374302">
        <ele>2084.000000</ele>
        <time>2015-08-05T14:22:39Z</time>
        <speed>2.828000</speed>
      </trkpt>
      <trkpt lat="46.032161660" lon="7.242462815">
        <ele>2084.000000</ele>
        <time>2015-08-05T14:22:44Z</time>
        <speed>2.420000</speed>
      </trkpt>
      <trkpt lat="46.032195439" lon="7.242500282">
        <ele>2084.000000</ele>
        <time>2015-08-05T14:22:46Z</time>
        <speed>2.356000</speed>
      </trkpt>
      <trkpt lat="46.032245311" lon="7.242561554">
        <ele>2084.400000</ele>
        <time>2015-08-05T14:22:49Z</time>
        <speed>2.372000</speed>
      </trkpt>
      <trkpt lat="46.032260063" lon="7.242582257">
        <ele>2084.800000</ele>
        <time>2015-08-05T14:22:50Z</time>
        <speed>2.493000</speed>
      </trkpt>
      <trkpt lat="46.032273726" lon="7.242602626">
        <ele>2085.200000</ele>
        <time>2015-08-05T14:22:51Z</time>
        <speed>2.791000</speed>
      </trkpt>
      <trkpt lat="46.032287304" lon="7.242618216">
        <ele>2085.600000</ele>
        <time>2015-08-05T14:22:52Z</time>
        <speed>2.406000</speed>
      </trkpt>
      <trkpt lat="46.032299877" lon="7.242635063">
        <ele>2086.000000</ele>
        <time>2015-08-05T14:22:53Z</time>
        <speed>2.029000</speed>
      </trkpt>
      <trkpt lat="46.032320245" lon="7.242667837">
        <ele>2086.000000</ele>
        <time>2015-08-05T14:22:54Z</time>
        <speed>2.029000</speed>
      </trkpt>
      <trkpt lat="46.032350169" lon="7.242746543">
        <ele>2086.000000</ele>
        <time>2015-08-05T14:22:56Z</time>
        <speed>3.967000</speed>
      </trkpt>
      <trkpt lat="46.032359556" lon="7.242815526">
        <ele>2086.000000</ele>
        <time>2015-08-05T14:22:58Z</time>
        <speed>3.385000</speed>
      </trkpt>
      <trkpt lat="46.032379924" lon="7.243016608">
        <ele>2086.000000</ele>
        <time>2015-08-05T14:23:03Z</time>
        <speed>3.407000</speed>
      </trkpt>
      <trkpt lat="46.032377074" lon="7.243221042">
        <ele>2086.000000</ele>
        <time>2015-08-05T14:23:08Z</time>
        <speed>2.630000</speed>
      </trkpt>
      <trkpt lat="46.032396269" lon="7.243245098">
        <ele>2086.000000</ele>
        <time>2015-08-05T14:23:10Z</time>
        <speed>1.675000</speed>
      </trkpt>
      <trkpt lat="46.032414625" lon="7.243229508">
        <ele>2086.000000</ele>
        <time>2015-08-05T14:23:12Z</time>
        <speed>1.416000</speed>
      </trkpt>
      <trkpt lat="46.032461816" lon="7.243202099">
        <ele>2086.000000</ele>
        <time>2015-08-05T14:23:15Z</time>
        <speed>1.677000</speed>
      </trkpt>
      <trkpt lat="46.032477657" lon="7.243198663">
        <ele>2085.600000</ele>
        <time>2015-08-05T14:23:16Z</time>
        <speed>2.125000</speed>
      </trkpt>
      <trkpt lat="46.032495176" lon="7.243190616">
        <ele>2085.200000</ele>
        <time>2015-08-05T14:23:17Z</time>
        <speed>1.765000</speed>
      </trkpt>
      <trkpt lat="46.032514119" lon="7.243169745">
        <ele>2084.800000</ele>
        <time>2015-08-05T14:23:18Z</time>
        <speed>1.669000</speed>
      </trkpt>
      <trkpt lat="46.032534738" lon="7.243146443">
        <ele>2084.400000</ele>
        <time>2015-08-05T14:23:19Z</time>
        <speed>2.896000</speed>
      </trkpt>
      <trkpt lat="46.032564242" lon="7.243132949">
        <ele>2084.000000</ele>
        <time>2015-08-05T14:23:20Z</time>
        <speed>3.307000</speed>
      </trkpt>
      <trkpt lat="46.032596680" lon="7.243124231">
        <ele>2083.400000</ele>
        <time>2015-08-05T14:23:21Z</time>
        <speed>3.490000</speed>
      </trkpt>
      <trkpt lat="46.032623922" lon="7.243119202">
        <ele>2083.000000</ele>
        <time>2015-08-05T14:23:22Z</time>
        <speed>3.953000</speed>
      </trkpt>
      <trkpt lat="46.032641356" lon="7.243124148">
        <ele>2082.400000</ele>
        <time>2015-08-05T14:23:23Z</time>
        <speed>3.650000</speed>
      </trkpt>
      <trkpt lat="46.032654683" lon="7.243138229">
        <ele>2082.000000</ele>
        <time>2015-08-05T14:23:24Z</time>
        <speed>0.000000</speed>
      </trkpt>
      <trkpt lat="46.032670860" lon="7.243157759">
        <ele>2081.400000</ele>
        <time>2015-08-05T14:23:25Z</time>
        <speed>1.980000</speed>
      </trkpt>
      <trkpt lat="46.032715200" lon="7.243191287">
        <ele>2080.800000</ele>
        <time>2015-08-05T14:23:27Z</time>
        <speed>2.387000</speed>
      </trkpt>
      <trkpt lat="46.032739257" lon="7.243202602">
        <ele>2080.400000</ele>
        <time>2015-08-05T14:23:28Z</time>
        <speed>3.530000</speed>
      </trkpt>
      <trkpt lat="46.032761636" lon="7.243211571">
        <ele>2079.800000</ele>
        <time>2015-08-05T14:23:29Z</time>
        <speed>2.916000</speed>
      </trkpt>
      <trkpt lat="46.032773874" lon="7.243213750">
        <ele>2079.400000</ele>
        <time>2015-08-05T14:23:30Z</time>
        <speed>2.893000</speed>
      </trkpt>
      <trkpt lat="46.032783010" lon="7.243216013">
        <ele>2078.800000</ele>
        <time>2015-08-05T14:23:31Z</time>
        <speed>2.893000</speed>
      </trkpt>
      <trkpt lat="46.032790051" lon="7.243215259">
        <ele>2078.200000</ele>
        <time>2015-08-05T14:23:32Z</time>
        <speed>2.893000</speed>
      </trkpt>
      <trkpt lat="46.032792985" lon="7.243217690">
        <ele>2077.800000</ele>
        <time>2015-08-05T14:23:33Z</time>
        <speed>0.000000</speed>
      </trkpt>
      <trkpt lat="46.032792985" lon="7.243217690">
        <ele>2077.200000</ele>
        <time>2015-08-05T14:23:34Z</time>
        <speed>0.000000</speed>
      </trkpt>
      <trkpt lat="46.032792985" lon="7.243217690">
        <ele>2076.600000</ele>
        <time>2015-08-05T14:23:35Z</time>
        <speed>0.000000</speed>
      </trkpt>
      <trkpt lat="46.032802624" lon="7.243214002">
        <ele>2076.600000</ele>
        <time>2015-08-05T14:23:38Z</time>
        <speed>0.000000</speed>
      </trkpt>
      <trkpt lat="46.032807820" lon="7.243215091">
        <ele>2076.600000</ele>
        <time>2015-08-05T14:23:42Z</time>
        <speed>0.000000</speed>
      </trkpt>
      <trkpt lat="46.032836990" lon="7.243198495">
        <ele>2076.600000</ele>
        <time>2015-08-05T14:23:47Z</time>
        <speed>0.000000</speed>
      </trkpt>
      <trkpt lat="46.032885269" lon="7.243215510">
        <ele>2075.800000</ele>
        <time>2015-08-05T14:23:50Z</time>
        <speed>1.824000</speed>
      </trkpt>
      <trkpt lat="46.032901530" lon="7.243238812">
        <ele>2075.400000</ele>
        <time>2015-08-05T14:23:51Z</time>
        <speed>2.417000</speed>
      </trkpt>
      <trkpt lat="46.032922569" lon="7.243259851">
        <ele>2075.000000</ele>
        <time>2015-08-05T14:23:52Z</time>
        <speed>2.417000</speed>
      </trkpt>
      <trkpt lat="46.032948888" lon="7.243263539">
        <ele>2074.400000</ele>
        <time>2015-08-05T14:23:53Z</time>
        <speed>2.537000</speed>
      </trkpt>
      <trkpt lat="46.032973363" lon="7.243257504">
        <ele>2074.000000</ele>
        <time>2015-08-05T14:23:54Z</time>
        <speed>2.965000</speed>
      </trkpt>
      <trkpt lat="46.032991887" lon="7.243254570">
        <ele>2073.400000</ele>
        <time>2015-08-05T14:23:55Z</time>
        <speed>3.014000</speed>
      </trkpt>
      <trkpt lat="46.033005717" lon="7.243261862">
        <ele>2073.000000</ele>
        <time>2015-08-05T14:23:56Z</time>
        <speed>1.993000</speed>
      </trkpt>
      <trkpt lat="46.033015021" lon="7.243267143">
        <ele>2072.400000</ele>
        <time>2015-08-05T14:23:57Z</time>
        <speed>1.993000</speed>
      </trkpt>
      <trkpt lat="46.033027762" lon="7.243266891">
        <ele>2072.000000</ele>
        <time>2015-08-05T14:23:58Z</time>
        <speed>1.993000</speed>
      </trkpt>
      <trkpt lat="46.033040754" lon="7.243268316">
        <ele>2071.600000</ele>
        <time>2015-08-05T14:23:59Z</time>
        <speed>1.993000</speed>
      </trkpt>
      <trkpt lat="46.033059697" lon="7.243277453">
        <ele>2071.000000</ele>
        <time>2015-08-05T14:24:00Z</time>
        <speed>1.310000</speed>
      </trkpt>
      <trkpt lat="46.033075538" lon="7.243289858">
        <ele>2070.600000</ele>
        <time>2015-08-05T14:24:01Z</time>
        <speed>16.552000</speed>
      </trkpt>
      <trkpt lat="46.033089620" lon="7.243307963">
        <ele>2070.200000</ele>
        <time>2015-08-05T14:24:02Z</time>
        <speed>16.552000</speed>
      </trkpt>
      <trkpt lat="46.033118119" lon="7.243319697">
        <ele>2069.600000</ele>
        <time>2015-08-05T14:24:04Z</time>
        <speed>1.403000</speed>
      </trkpt>
      <trkpt lat="46.033135972" lon="7.243302766">
        <ele>2069.200000</ele>
        <time>2015-08-05T14:24:05Z</time>
        <speed>2.151000</speed>
      </trkpt>
      <trkpt lat="46.033149383" lon="7.243279632">
        <ele>2068.600000</ele>
        <time>2015-08-05T14:24:06Z</time>
        <speed>2.210000</speed>
      </trkpt>
      <trkpt lat="46.033165728" lon="7.243265634">
        <ele>2068.000000</ele>
        <time>2015-08-05T14:24:07Z</time>
        <speed>2.195000</speed>
      </trkpt>
      <trkpt lat="46.033182408" lon="7.243260186">
        <ele>2067.400000</ele>
        <time>2015-08-05T14:24:08Z</time>
        <speed>2.442000</speed>
      </trkpt>
      <trkpt lat="46.033188946" lon="7.243256917">
        <ele>2067.000000</ele>
        <time>2015-08-05T14:24:09Z</time>
        <speed>1.724000</speed>
      </trkpt>
      <trkpt lat="46.033188862" lon="7.243256917">
        <ele>2066.400000</ele>
        <time>2015-08-05T14:24:10Z</time>
        <speed>1.724000</speed>
      </trkpt>
      <trkpt lat="46.033188946" lon="7.243256917">
        <ele>2065.800000</ele>
        <time>2015-08-05T14:24:11Z</time>
        <speed>0.000000</speed>
      </trkpt>
      <trkpt lat="46.033192801" lon="7.243250044">
        <ele>2065.400000</ele>
        <time>2015-08-05T14:24:12Z</time>
        <speed>0.000000</speed>
      </trkpt>
      <trkpt lat="46.033223814" lon="7.243230682">
        <ele>2065.000000</ele>
        <time>2015-08-05T14:24:15Z</time>
        <speed>3.964000</speed>
      </trkpt>
      <trkpt lat="46.033245607" lon="7.243225569">
        <ele>2064.400000</ele>
        <time>2015-08-05T14:24:16Z</time>
        <speed>3.964000</speed>
      </trkpt>
      <trkpt lat="46.033265640" lon="7.243222300">
        <ele>2064.000000</ele>
        <time>2015-08-05T14:24:17Z</time>
        <speed>0.000000</speed>
      </trkpt>
      <trkpt lat="46.033290199" lon="7.243232945">
        <ele>2063.600000</ele>
        <time>2015-08-05T14:24:18Z</time>
        <speed>1.928000</speed>
      </trkpt>
      <trkpt lat="46.033307969" lon="7.243258090">
        <ele>2063.200000</ele>
        <time>2015-08-05T14:24:19Z</time>
        <speed>2.188000</speed>
      </trkpt>
      <trkpt lat="46.033327666" lon="7.243291702">
        <ele>2062.600000</ele>
        <time>2015-08-05T14:24:20Z</time>
        <speed>2.795000</speed>
      </trkpt>
      <trkpt lat="46.033345855" lon="7.243330929">
        <ele>2062.200000</ele>
        <time>2015-08-05T14:24:21Z</time>
        <speed>3.287000</speed>
      </trkpt>
      <trkpt lat="46.033355913" lon="7.243368899">
        <ele>2061.800000</ele>
        <time>2015-08-05T14:24:22Z</time>
        <speed>3.779000</speed>
      </trkpt>
      <trkpt lat="46.033362619" lon="7.243402930">
        <ele>2061.200000</ele>
        <time>2015-08-05T14:24:23Z</time>
        <speed>3.223000</speed>
      </trkpt>
      <trkpt lat="46.033368821" lon="7.243433104">
        <ele>2060.600000</ele>
        <time>2015-08-05T14:24:24Z</time>
        <speed>2.666000</speed>
      </trkpt>
      <trkpt lat="46.033376281" lon="7.243455233">
        <ele>2060.000000</ele>
        <time>2015-08-05T14:24:25Z</time>
        <speed>2.374000</speed>
      </trkpt>
      <trkpt lat="46.033380053" lon="7.243461603">
        <ele>2059.400000</ele>
        <time>2015-08-05T14:24:26Z</time>
        <speed>2.374000</speed>
      </trkpt>
      <trkpt lat="46.033380304" lon="7.243461268">
        <ele>2058.800000</ele>
        <time>2015-08-05T14:24:27Z</time>
        <speed>2.374000</speed>
      </trkpt>
      <trkpt lat="46.033372342" lon="7.243499070">
        <ele>2058.800000</ele>
        <time>2015-08-05T14:24:31Z</time>
        <speed>0.000000</speed>
      </trkpt>
      <trkpt lat="46.033395308" lon="7.243553385">
        <ele>2058.800000</ele>
        <time>2015-08-05T14:24:37Z</time>
        <speed>0.000000</speed>
      </trkpt>
      <trkpt lat="46.033424393" lon="7.243596049">
        <ele>2058.800000</ele>
        <time>2015-08-05T14:24:41Z</time>
        <speed>1.151000</speed>
      </trkpt>
      <trkpt lat="46.033428417" lon="7.243636114">
        <ele>2058.800000</ele>
        <time>2015-08-05T14:24:44Z</time>
        <speed>1.140000</speed>
      </trkpt>
      <trkpt lat="46.033443169" lon="7.243688501">
        <ele>2058.800000</ele>
        <time>2015-08-05T14:24:49Z</time>
        <speed>1.142000</speed>
      </trkpt>
      <trkpt lat="46.033455490" lon="7.243709037">
        <ele>2058.800000</ele>
        <time>2015-08-05T14:24:51Z</time>
        <speed>1.142000</speed>
      </trkpt>
      <trkpt lat="46.033472002" lon="7.243726220">
        <ele>2058.800000</ele>
        <time>2015-08-05T14:24:54Z</time>
        <speed>0.000000</speed>
      </trkpt>
      <trkpt lat="46.033491700" lon="7.243745666">
        <ele>2058.800000</ele>
        <time>2015-08-05T14:24:59Z</time>
        <speed>0.602000</speed>
      </trkpt>
      <trkpt lat="46.033528999" lon="7.243730997">
        <ele>2058.800000</ele>
        <time>2015-08-05T14:25:04Z</time>
        <speed>0.797000</speed>
      </trkpt>
      <trkpt lat="46.033569316" lon="7.243733931">
        <ele>2058.800000</ele>
        <time>2015-08-05T14:25:08Z</time>
        <speed>1.305000</speed>
      </trkpt>
      <trkpt lat="46.033575519" lon="7.243727142">
        <ele>2058.800000</ele>
        <time>2015-08-05T14:25:12Z</time>
        <speed>0.000000</speed>
      </trkpt>
      <trkpt lat="46.033630085" lon="7.243693949">
        <ele>2058.800000</ele>
        <time>2015-08-05T14:25:15Z</time>
        <speed>2.798000</speed>
      </trkpt>
      <trkpt lat="46.033651124" lon="7.243693530">
        <ele>2058.800000</ele>
        <time>2015-08-05T14:25:16Z</time>
        <speed>2.798000</speed>
      </trkpt>
      <trkpt lat="46.033669815" lon="7.243699230">
        <ele>2058.200000</ele>
        <time>2015-08-05T14:25:17Z</time>
        <speed>2.108000</speed>
      </trkpt>
      <trkpt lat="46.033681215" lon="7.243706941">
        <ele>2057.800000</ele>
        <time>2015-08-05T14:25:18Z</time>
        <speed>2.359000</speed>
      </trkpt>
      <trkpt lat="46.033693117" lon="7.243709623">
        <ele>2057.400000</ele>
        <time>2015-08-05T14:25:19Z</time>
        <speed>1.627000</speed>
      </trkpt>
      <trkpt lat="46.033705439" lon="7.243713228">
        <ele>2056.800000</ele>
        <time>2015-08-05T14:25:20Z</time>
        <speed>0.000000</speed>
      </trkpt>
      <trkpt lat="46.033720023" lon="7.243715658">
        <ele>2056.400000</ele>
        <time>2015-08-05T14:25:21Z</time>
        <speed>1.402000</speed>
      </trkpt>
      <trkpt lat="46.033735949" lon="7.243713311">
        <ele>2056.400000</ele>
        <time>2015-08-05T14:25:22Z</time>
        <speed>1.569000</speed>
      </trkpt>
      <trkpt lat="46.033784564" lon="7.243723621">
        <ele>2056.400000</ele>
        <time>2015-08-05T14:25:25Z</time>
        <speed>1.736000</speed>
      </trkpt>
      <trkpt lat="46.033836867" lon="7.243775421">
        <ele>2056.400000</ele>
        <time>2015-08-05T14:25:28Z</time>
        <speed>2.592000</speed>
      </trkpt>
      <trkpt lat="46.033854972" lon="7.243780618">
        <ele>2056.400000</ele>
        <time>2015-08-05T14:25:29Z</time>
        <speed>2.201000</speed>
      </trkpt>
      <trkpt lat="46.033878022" lon="7.243777265">
        <ele>2056.400000</ele>
        <time>2015-08-05T14:25:30Z</time>
        <speed>2.082000</speed>
      </trkpt>
      <trkpt lat="46.033954884" lon="7.243751952">
        <ele>2056.400000</ele>
        <time>2015-08-05T14:25:33Z</time>
        <speed>2.433000</speed>
      </trkpt>
      <trkpt lat="46.033981035" lon="7.243748767">
        <ele>2056.400000</ele>
        <time>2015-08-05T14:25:34Z</time>
        <speed>2.824000</speed>
      </trkpt>
      <trkpt lat="46.034007690" lon="7.243754802">
        <ele>2056.000000</ele>
        <time>2015-08-05T14:25:35Z</time>
        <speed>2.817000</speed>
      </trkpt>
      <trkpt lat="46.034031997" lon="7.243763519">
        <ele>2055.600000</ele>
        <time>2015-08-05T14:25:36Z</time>
        <speed>3.484000</speed>
      </trkpt>
      <trkpt lat="46.034048426" lon="7.243761507">
        <ele>2055.000000</ele>
        <time>2015-08-05T14:25:37Z</time>
        <speed>3.023000</speed>
      </trkpt>
      <trkpt lat="46.034059574" lon="7.243755724">
        <ele>2054.600000</ele>
        <time>2015-08-05T14:25:38Z</time>
        <speed>2.637000</speed>
      </trkpt>
      <trkpt lat="46.034066196" lon="7.243748264">
        <ele>2054.200000</ele>
        <time>2015-08-05T14:25:39Z</time>
        <speed>2.070000</speed>
      </trkpt>
      <trkpt lat="46.034123193" lon="7.243764944">
        <ele>2054.200000</ele>
        <time>2015-08-05T14:25:43Z</time>
        <speed>1.781000</speed>
      </trkpt>
      <trkpt lat="46.034192846" lon="7.243787910">
        <ele>2054.200000</ele>
        <time>2015-08-05T14:25:46Z</time>
        <speed>2.445000</speed>
      </trkpt>
      <trkpt lat="46.034234085" lon="7.243810961">
        <ele>2054.200000</ele>
        <time>2015-08-05T14:25:48Z</time>
        <speed>2.745000</speed>
      </trkpt>
      <trkpt lat="46.034348079" lon="7.243851361">
        <ele>2054.200000</ele>
        <time>2015-08-05T14:25:53Z</time>
        <speed>2.608000</speed>
      </trkpt>
      <trkpt lat="46.034413290" lon="7.243879608">
        <ele>2054.200000</ele>
        <time>2015-08-05T14:25:57Z</time>
        <speed>1.987000</speed>
      </trkpt>
      <trkpt lat="46.034413206" lon="7.243887823">
        <ele>2054.200000</ele>
        <time>2015-08-05T14:25:58Z</time>
        <speed>1.290000</speed>
      </trkpt>
      <trkpt lat="46.034443717" lon="7.243908945">
        <ele>2054.200000</ele>
        <time>2015-08-05T14:26:03Z</time>
        <speed>0.000000</speed>
      </trkpt>
      <trkpt lat="46.034468024" lon="7.243965104">
        <ele>2054.200000</ele>
        <time>2015-08-05T14:26:08Z</time>
        <speed>0.784000</speed>
      </trkpt>
      <trkpt lat="46.034490320" lon="7.243996033">
        <ele>2054.200000</ele>
        <time>2015-08-05T14:26:14Z</time>
        <speed>0.000000</speed>
      </trkpt>
      <trkpt lat="46.034505324" lon="7.244017575">
        <ele>2054.200000</ele>
        <time>2015-08-05T14:26:16Z</time>
        <speed>1.359000</speed>
      </trkpt>
      <trkpt lat="46.034528793" lon="7.244032159">
        <ele>2054.200000</ele>
        <time>2015-08-05T14:26:18Z</time>
        <speed>10.172000</speed>
      </trkpt>
      <trkpt lat="46.034595932" lon="7.244065938">
        <ele>2054.200000</ele>
        <time>2015-08-05T14:26:23Z</time>
        <speed>0.000000</speed>
      </trkpt>
      <trkpt lat="46.034605739" lon="7.244064262">
        <ele>2054.200000</ele>
        <time>2015-08-05T14:26:27Z</time>
        <speed>7.782000</speed>
      </trkpt>
      <trkpt lat="46.034616551" lon="7.244066525">
        <ele>2054.200000</ele>
        <time>2015-08-05T14:26:28Z</time>
        <speed>7.782000</speed>
      </trkpt>
      <trkpt lat="46.034696515" lon="7.244073314">
        <ele>2054.200000</ele>
        <time>2015-08-05T14:26:33Z</time>
        <speed>1.420000</speed>
      </trkpt>
      <trkpt lat="46.034733898" lon="7.244076667">
        <ele>2053.800000</ele>
        <time>2015-08-05T14:26:35Z</time>
        <speed>2.364000</speed>
      </trkpt>
      <trkpt lat="46.034750243" lon="7.244075242">
        <ele>2053.400000</ele>
        <time>2015-08-05T14:26:36Z</time>
        <speed>2.507000</speed>
      </trkpt>
      <trkpt lat="46.034764157" lon="7.244072225">
        <ele>2053.000000</ele>
        <time>2015-08-05T14:26:37Z</time>
        <speed>2.315000</speed>
      </trkpt>
      <trkpt lat="46.034777232" lon="7.244077924">
        <ele>2052.600000</ele>
        <time>2015-08-05T14:26:38Z</time>
        <speed>1.729000</speed>
      </trkpt>
      <trkpt lat="46.034783603" lon="7.244087815">
        <ele>2052.200000</ele>
        <time>2015-08-05T14:26:39Z</time>
        <speed>1.729000</speed>
      </trkpt>
      <trkpt lat="46.034803803" lon="7.244086977">
        <ele>2052.200000</ele>
        <time>2015-08-05T14:26:43Z</time>
        <speed>0.000000</speed>
      </trkpt>
      <trkpt lat="46.034832218" lon="7.244086055">
        <ele>2052.200000</ele>
        <time>2015-08-05T14:26:46Z</time>
        <speed>1.198000</speed>
      </trkpt>
      <trkpt lat="46.034843785" lon="7.244089827">
        <ele>2052.200000</ele>
        <time>2015-08-05T14:26:47Z</time>
        <speed>1.198000</speed>
      </trkpt>
      <trkpt lat="46.034871026" lon="7.244095023">
        <ele>2052.200000</ele>
        <time>2015-08-05T14:26:50Z</time>
        <speed>0.962000</speed>
      </trkpt>
      <trkpt lat="46.034891143" lon="7.244108434">
        <ele>2052.200000</ele>
        <time>2015-08-05T14:26:52Z</time>
        <speed>1.043000</speed>
      </trkpt>
      <trkpt lat="46.034911259" lon="7.244131652">
        <ele>2052.600000</ele>
        <time>2015-08-05T14:26:55Z</time>
        <speed>1.094000</speed>
      </trkpt>
      <trkpt lat="46.034913522" lon="7.244142968">
        <ele>2053.000000</ele>
        <time>2015-08-05T14:26:56Z</time>
        <speed>1.094000</speed>
      </trkpt>
      <trkpt lat="46.034916121" lon="7.244156882">
        <ele>2053.400000</ele>
        <time>2015-08-05T14:26:57Z</time>
        <speed>0.809000</speed>
      </trkpt>
      <trkpt lat="46.034925005" lon="7.244167694">
        <ele>2053.800000</ele>
        <time>2015-08-05T14:26:58Z</time>
        <speed>0.809000</speed>
      </trkpt>
      <trkpt lat="46.034937997" lon="7.244170963">
        <ele>2054.200000</ele>
        <time>2015-08-05T14:26:59Z</time>
        <speed>1.093000</speed>
      </trkpt>
      <trkpt lat="46.034967837" lon="7.244163336">
        <ele>2054.200000</ele>
        <time>2015-08-05T14:27:01Z</time>
        <speed>1.738000</speed>
      </trkpt>
      <trkpt lat="46.034983343" lon="7.244159732">
        <ele>2054.200000</ele>
        <time>2015-08-05T14:27:02Z</time>
        <speed>1.607000</speed>
      </trkpt>
      <trkpt lat="46.035067079" lon="7.244169287">
        <ele>2054.200000</ele>
        <time>2015-08-05T14:27:07Z</time>
        <speed>2.144000</speed>
      </trkpt>
      <trkpt lat="46.035099517" lon="7.244178339">
        <ele>2054.200000</ele>
        <time>2015-08-05T14:27:10Z</time>
        <speed>1.985000</speed>
      </trkpt>
      <trkpt lat="46.035134134" lon="7.244182866">
        <ele>2054.200000</ele>
        <time>2015-08-05T14:27:12Z</time>
        <speed>1.522000</speed>
      </trkpt>
      <trkpt lat="46.035206302" lon="7.244209604">
        <ele>2054.200000</ele>
        <time>2015-08-05T14:27:16Z</time>
        <speed>2.100000</speed>
      </trkpt>
      <trkpt lat="46.035237147" lon="7.244216477">
        <ele>2054.200000</ele>
        <time>2015-08-05T14:27:18Z</time>
        <speed>1.790000</speed>
      </trkpt>
      <trkpt lat="46.035346615" lon="7.244191080">
        <ele>2054.200000</ele>
        <time>2015-08-05T14:27:23Z</time>
        <speed>2.072000</speed>
      </trkpt>
      <trkpt lat="46.035400846" lon="7.244189320">
        <ele>2054.200000</ele>
        <time>2015-08-05T14:27:25Z</time>
        <speed>3.228000</speed>
      </trkpt>
      <trkpt lat="46.035426746" lon="7.244191415">
        <ele>2053.800000</ele>
        <time>2015-08-05T14:27:26Z</time>
        <speed>3.066000</speed>
      </trkpt>
      <trkpt lat="46.035450467" lon="7.244185799">
        <ele>2053.400000</ele>
        <time>2015-08-05T14:27:27Z</time>
        <speed>2.787000</speed>
      </trkpt>
      <trkpt lat="46.035473769" lon="7.244177417">
        <ele>2053.000000</ele>
        <time>2015-08-05T14:27:28Z</time>
        <speed>2.713000</speed>
      </trkpt>
      <trkpt lat="46.035496484" lon="7.244172640">
        <ele>2052.600000</ele>
        <time>2015-08-05T14:27:29Z</time>
        <speed>3.161000</speed>
      </trkpt>
      <trkpt lat="46.035523306" lon="7.244169455">
        <ele>2052.200000</ele>
        <time>2015-08-05T14:27:30Z</time>
        <speed>2.924000</speed>
      </trkpt>
      <trkpt lat="46.035626235" lon="7.244153361">
        <ele>2052.200000</ele>
        <time>2015-08-05T14:27:33Z</time>
        <speed>3.501000</speed>
      </trkpt>
      <trkpt lat="46.035823378" lon="7.244086055">
        <ele>2051.800000</ele>
        <time>2015-08-05T14:27:37Z</time>
        <speed>5.723000</speed>
      </trkpt>
      <trkpt lat="46.035859169" lon="7.244075326">
        <ele>2051.400000</ele>
        <time>2015-08-05T14:27:38Z</time>
        <speed>5.261000</speed>
      </trkpt>
      <trkpt lat="46.035882386" lon="7.244069459">
        <ele>2050.800000</ele>
        <time>2015-08-05T14:27:39Z</time>
        <speed>4.042000</speed>
      </trkpt>
      <trkpt lat="46.035900994" lon="7.244064849">
        <ele>2050.400000</ele>
        <time>2015-08-05T14:27:40Z</time>
        <speed>0.000000</speed>
      </trkpt>
      <trkpt lat="46.035929912" lon="7.244058394">
        <ele>2050.000000</ele>
        <time>2015-08-05T14:27:41Z</time>
        <speed>2.361000</speed>
      </trkpt>
      <trkpt lat="46.035982215" lon="7.244045989">
        <ele>2050.000000</ele>
        <time>2015-08-05T14:27:43Z</time>
        <speed>3.180000</speed>
      </trkpt>
      <trkpt lat="46.036126635" lon="7.244025705">
        <ele>2049.400000</ele>
        <time>2015-08-05T14:27:46Z</time>
        <speed>3.501000</speed>
      </trkpt>
      <trkpt lat="46.036171311" lon="7.244016485">
        <ele>2049.000000</ele>
        <time>2015-08-05T14:27:47Z</time>
        <speed>5.962000</speed>
      </trkpt>
      <trkpt lat="46.036210035" lon="7.244009612">
        <ele>2048.400000</ele>
        <time>2015-08-05T14:27:48Z</time>
        <speed>5.339000</speed>
      </trkpt>
      <trkpt lat="46.036237947" lon="7.244005672">
        <ele>2047.800000</ele>
        <time>2015-08-05T14:27:49Z</time>
        <speed>4.293000</speed>
      </trkpt>
      <trkpt lat="46.036265607" lon="7.243998464">
        <ele>2047.400000</ele>
        <time>2015-08-05T14:27:50Z</time>
        <speed>5.086000</speed>
      </trkpt>
      <trkpt lat="46.036410362" lon="7.243915315">
        <ele>2046.800000</ele>
        <time>2015-08-05T14:27:55Z</time>
        <speed>3.147000</speed>
      </trkpt>
      <trkpt lat="46.036452859" lon="7.243894696">
        <ele>2046.400000</ele>
        <time>2015-08-05T14:27:56Z</time>
        <speed>5.406000</speed>
      </trkpt>
      <trkpt lat="46.036499043" lon="7.243876759">
        <ele>2046.000000</ele>
        <time>2015-08-05T14:27:57Z</time>
        <speed>5.393000</speed>
      </trkpt>
      <trkpt lat="46.036533912" lon="7.243852116">
        <ele>2045.000000</ele>
        <time>2015-08-05T14:27:58Z</time>
        <speed>5.406000</speed>
      </trkpt>
      <trkpt lat="46.036566098" lon="7.243829568">
        <ele>2044.400000</ele>
        <time>2015-08-05T14:27:59Z</time>
        <speed>4.646000</speed>
      </trkpt>
      <trkpt lat="46.036594681" lon="7.243819259">
        <ele>2044.000000</ele>
        <time>2015-08-05T14:28:00Z</time>
        <speed>4.267000</speed>
      </trkpt>
      <trkpt lat="46.036622425" lon="7.243812469">
        <ele>2043.400000</ele>
        <time>2015-08-05T14:28:01Z</time>
        <speed>3.833000</speed>
      </trkpt>
      <trkpt lat="46.036656036" lon="7.243800651">
        <ele>2043.000000</ele>
        <time>2015-08-05T14:28:02Z</time>
        <speed>3.312000</speed>
      </trkpt>
      <trkpt lat="46.036738682" lon="7.243771901">
        <ele>2043.000000</ele>
        <time>2015-08-05T14:28:04Z</time>
        <speed>4.845000</speed>
      </trkpt>
      <trkpt lat="46.036822417" lon="7.243739044">
        <ele>2042.600000</ele>
        <time>2015-08-05T14:28:07Z</time>
        <speed>4.027000</speed>
      </trkpt>
      <trkpt lat="46.036835576" lon="7.243721945">
        <ele>2042.000000</ele>
        <time>2015-08-05T14:28:08Z</time>
        <speed>0.000000</speed>
      </trkpt>
      <trkpt lat="46.036850915" lon="7.243698056">
        <ele>2041.600000</ele>
        <time>2015-08-05T14:28:09Z</time>
        <speed>2.229000</speed>
      </trkpt>
      <trkpt lat="46.036860387" lon="7.243680371">
        <ele>2041.200000</ele>
        <time>2015-08-05T14:28:10Z</time>
        <speed>2.379000</speed>
      </trkpt>
      <trkpt lat="46.036872205" lon="7.243665116">
        <ele>2040.600000</ele>
        <time>2015-08-05T14:28:11Z</time>
        <speed>2.104000</speed>
      </trkpt>
      <trkpt lat="46.036892406" lon="7.243654890">
        <ele>2040.200000</ele>
        <time>2015-08-05T14:28:12Z</time>
        <speed>1.654000</speed>
      </trkpt>
      <trkpt lat="46.036911600" lon="7.243642484">
        <ele>2039.800000</ele>
        <time>2015-08-05T14:28:13Z</time>
        <speed>1.654000</speed>
      </trkpt>
      <trkpt lat="46.036931717" lon="7.243628654">
        <ele>2039.400000</ele>
        <time>2015-08-05T14:28:14Z</time>
        <speed>2.617000</speed>
      </trkpt>
      <trkpt lat="46.036948313" lon="7.243619602">
        <ele>2039.000000</ele>
        <time>2015-08-05T14:28:15Z</time>
        <speed>1.820000</speed>
      </trkpt>
      <trkpt lat="46.036962981" lon="7.243614489">
        <ele>2038.400000</ele>
        <time>2015-08-05T14:28:16Z</time>
        <speed>2.208000</speed>
      </trkpt>
      <trkpt lat="46.036982679" lon="7.243615411">
        <ele>2037.800000</ele>
        <time>2015-08-05T14:28:17Z</time>
        <speed>1.866000</speed>
      </trkpt>
      <trkpt lat="46.037004556" lon="7.243613734">
        <ele>2037.200000</ele>
        <time>2015-08-05T14:28:18Z</time>
        <speed>1.866000</speed>
      </trkpt>
      <trkpt lat="46.037023918" lon="7.243606778">
        <ele>2036.600000</ele>
        <time>2015-08-05T14:28:19Z</time>
        <speed>1.866000</speed>
      </trkpt>
      <trkpt lat="46.037038335" lon="7.243599401">
        <ele>2036.000000</ele>
        <time>2015-08-05T14:28:20Z</time>
        <speed>1.866000</speed>
      </trkpt>
      <trkpt lat="46.037054931" lon="7.243595881">
        <ele>2035.600000</ele>
        <time>2015-08-05T14:28:21Z</time>
        <speed>2.276000</speed>
      </trkpt>
      <trkpt lat="46.037062223" lon="7.243588840">
        <ele>2035.000000</ele>
        <time>2015-08-05T14:28:22Z</time>
        <speed>1.982000</speed>
      </trkpt>
      <trkpt lat="46.037066582" lon="7.243581380">
        <ele>2034.000000</ele>
        <time>2015-08-05T14:28:23Z</time>
        <speed>1.780000</speed>
      </trkpt>
      <trkpt lat="46.037090051" lon="7.243580123">
        <ele>2033.400000</ele>
        <time>2015-08-05T14:28:27Z</time>
        <speed>0.000000</speed>
      </trkpt>
      <trkpt lat="46.037101199" lon="7.243584314">
        <ele>2033.000000</ele>
        <time>2015-08-05T14:28:28Z</time>
        <speed>5.979000</speed>
      </trkpt>
      <trkpt lat="46.037109748" lon="7.243584398">
        <ele>2032.600000</ele>
        <time>2015-08-05T14:28:29Z</time>
        <speed>5.979000</speed>
      </trkpt>
      <trkpt lat="46.037110251" lon="7.243584733">
        <ele>2032.200000</ele>
        <time>2015-08-05T14:28:30Z</time>
        <speed>0.000000</speed>
      </trkpt>
      <trkpt lat="46.037108743" lon="7.243585320">
        <ele>2031.800000</ele>
        <time>2015-08-05T14:28:31Z</time>
        <speed>6.322000</speed>
      </trkpt>
      <trkpt lat="46.037137157" lon="7.243577860">
        <ele>2031.800000</ele>
        <time>2015-08-05T14:28:35Z</time>
        <speed>0.840000</speed>
      </trkpt>
      <trkpt lat="46.037157944" lon="7.243583895">
        <ele>2031.200000</ele>
        <time>2015-08-05T14:28:37Z</time>
        <speed>1.139000</speed>
      </trkpt>
      <trkpt lat="46.037167835" lon="7.243585068">
        <ele>2030.800000</ele>
        <time>2015-08-05T14:28:38Z</time>
        <speed>1.139000</speed>
      </trkpt>
      <trkpt lat="46.037177055" lon="7.243587080">
        <ele>2030.400000</ele>
        <time>2015-08-05T14:28:39Z</time>
        <speed>1.150000</speed>
      </trkpt>
      <trkpt lat="46.037185689" lon="7.243585907">
        <ele>2030.000000</ele>
        <time>2015-08-05T14:28:40Z</time>
        <speed>1.150000</speed>
      </trkpt>
      <trkpt lat="46.037192310" lon="7.243575932">
        <ele>2029.600000</ele>
        <time>2015-08-05T14:28:41Z</time>
        <speed>0.803000</speed>
      </trkpt>
      <trkpt lat="46.037196585" lon="7.243560928">
        <ele>2029.600000</ele>
        <time>2015-08-05T14:28:42Z</time>
        <speed>0.803000</speed>
      </trkpt>
      <trkpt lat="46.037202201" lon="7.243545590">
        <ele>2029.200000</ele>
        <time>2015-08-05T14:28:44Z</time>
        <speed>0.956000</speed>
      </trkpt>
      <trkpt lat="46.037208571" lon="7.243542488">
        <ele>2028.800000</ele>
        <time>2015-08-05T14:28:45Z</time>
        <speed>0.956000</speed>
      </trkpt>
      <trkpt lat="46.037215444" lon="7.243538214">
        <ele>2028.400000</ele>
        <time>2015-08-05T14:28:46Z</time>
        <speed>0.956000</speed>
      </trkpt>
      <trkpt lat="46.037222569" lon="7.243533939">
        <ele>2027.400000</ele>
        <time>2015-08-05T14:28:47Z</time>
        <speed>0.000000</speed>
      </trkpt>
      <trkpt lat="46.037302365" lon="7.243533939">
        <ele>2027.000000</ele>
        <time>2015-08-05T14:28:51Z</time>
        <speed>2.123000</speed>
      </trkpt>
      <trkpt lat="46.037322230" lon="7.243522539">
        <ele>2026.400000</ele>
        <time>2015-08-05T14:28:52Z</time>
        <speed>1.438000</speed>
      </trkpt>
      <trkpt lat="46.037347375" lon="7.243509128">
        <ele>2026.000000</ele>
        <time>2015-08-05T14:28:53Z</time>
        <speed>2.330000</speed>
      </trkpt>
      <trkpt lat="46.037369085" lon="7.243495550">
        <ele>2025.200000</ele>
        <time>2015-08-05T14:28:54Z</time>
        <speed>2.330000</speed>
      </trkpt>
      <trkpt lat="46.037382663" lon="7.243481217">
        <ele>2024.600000</ele>
        <time>2015-08-05T14:28:55Z</time>
        <speed>2.843000</speed>
      </trkpt>
      <trkpt lat="46.037385429" lon="7.243460262">
        <ele>2024.000000</ele>
        <time>2015-08-05T14:28:56Z</time>
        <speed>2.255000</speed>
      </trkpt>
      <trkpt lat="46.037374030" lon="7.243433859">
        <ele>2023.400000</ele>
        <time>2015-08-05T14:28:57Z</time>
        <speed>1.976000</speed>
      </trkpt>
      <trkpt lat="46.037356847" lon="7.243403935">
        <ele>2022.800000</ele>
        <time>2015-08-05T14:28:58Z</time>
        <speed>2.433000</speed>
      </trkpt>
      <trkpt lat="46.037337150" lon="7.243371078">
        <ele>2022.200000</ele>
        <time>2015-08-05T14:28:59Z</time>
        <speed>3.106000</speed>
      </trkpt>
      <trkpt lat="46.037314267" lon="7.243346436">
        <ele>2021.600000</ele>
        <time>2015-08-05T14:29:00Z</time>
        <speed>3.473000</speed>
      </trkpt>
      <trkpt lat="46.037290378" lon="7.243324894">
        <ele>2020.800000</ele>
        <time>2015-08-05T14:29:01Z</time>
        <speed>3.451000</speed>
      </trkpt>
      <trkpt lat="46.037269424" lon="7.243313495">
        <ele>2020.200000</ele>
        <time>2015-08-05T14:29:02Z</time>
        <speed>3.180000</speed>
      </trkpt>
      <trkpt lat="46.037250732" lon="7.243308466">
        <ele>2019.600000</ele>
        <time>2015-08-05T14:29:03Z</time>
        <speed>2.820000</speed>
      </trkpt>
      <trkpt lat="46.037238075" lon="7.243300838">
        <ele>2018.800000</ele>
        <time>2015-08-05T14:29:04Z</time>
        <speed>2.121000</speed>
      </trkpt>
      <trkpt lat="46.037230616" lon="7.243287427">
        <ele>2018.200000</ele>
        <time>2015-08-05T14:29:05Z</time>
        <speed>2.121000</speed>
      </trkpt>
      <trkpt lat="46.037227011" lon="7.243272675">
        <ele>2017.800000</ele>
        <time>2015-08-05T14:29:06Z</time>
        <speed>2.121000</speed>
      </trkpt>
      <trkpt lat="46.037227347" lon="7.243255240">
        <ele>2017.200000</ele>
        <time>2015-08-05T14:29:07Z</time>
        <speed>2.121000</speed>
      </trkpt>
      <trkpt lat="46.037228017" lon="7.243243087">
        <ele>2016.600000</ele>
        <time>2015-08-05T14:29:08Z</time>
        <speed>0.000000</speed>
      </trkpt>
      <trkpt lat="46.037226173" lon="7.243226491">
        <ele>2016.000000</ele>
        <time>2015-08-05T14:29:09Z</time>
        <speed>0.000000</speed>
      </trkpt>
      <trkpt lat="46.037227095" lon="7.243202015">
        <ele>2015.600000</ele>
        <time>2015-08-05T14:29:10Z</time>
        <speed>1.047000</speed>
      </trkpt>
      <trkpt lat="46.037234723" lon="7.243183659">
        <ele>2015.200000</ele>
        <time>2015-08-05T14:29:11Z</time>
        <speed>1.544000</speed>
      </trkpt>
      <trkpt lat="46.037247798" lon="7.243164129">
        <ele>2014.400000</ele>
        <time>2015-08-05T14:29:12Z</time>
        <speed>1.544000</speed>
      </trkpt>
      <trkpt lat="46.037267664" lon="7.243155747">
        <ele>2013.800000</ele>
        <time>2015-08-05T14:29:13Z</time>
        <speed>1.336000</speed>
      </trkpt>
      <trkpt lat="46.037286439" lon="7.243146276">
        <ele>2013.200000</ele>
        <time>2015-08-05T14:29:14Z</time>
        <speed>2.088000</speed>
      </trkpt>
      <trkpt lat="46.037300772" lon="7.243132529">
        <ele>2012.800000</ele>
        <time>2015-08-05T14:29:15Z</time>
        <speed>2.088000</speed>
      </trkpt>
      <trkpt lat="46.037311333" lon="7.243124399">
        <ele>2012.200000</ele>
        <time>2015-08-05T14:29:16Z</time>
        <speed>2.088000</speed>
      </trkpt>
      <trkpt lat="46.037318206" lon="7.243126662">
        <ele>2011.600000</ele>
        <time>2015-08-05T14:29:17Z</time>
        <speed>2.044000</speed>
      </trkpt>
      <trkpt lat="46.037321224" lon="7.243124483">
        <ele>2011.200000</ele>
        <time>2015-08-05T14:29:18Z</time>
        <speed>1.944000</speed>
      </trkpt>
      <trkpt lat="46.037320553" lon="7.243122974">
        <ele>2010.600000</ele>
        <time>2015-08-05T14:29:19Z</time>
        <speed>1.944000</speed>
      </trkpt>
      <trkpt lat="46.037320134" lon="7.243122136">
        <ele>2010.000000</ele>
        <time>2015-08-05T14:29:20Z</time>
        <speed>1.529000</speed>
      </trkpt>
      <trkpt lat="46.037321224" lon="7.243119705">
        <ele>2009.600000</ele>
        <time>2015-08-05T14:29:21Z</time>
        <speed>1.529000</speed>
      </trkpt>
      <trkpt lat="46.037334886" lon="7.243114173">
        <ele>2009.600000</ele>
        <time>2015-08-05T14:29:23Z</time>
        <speed>0.000000</speed>
      </trkpt>
      <trkpt lat="46.037370174" lon="7.243101013">
        <ele>2009.200000</ele>
        <time>2015-08-05T14:29:27Z</time>
        <speed>0.000000</speed>
      </trkpt>
      <trkpt lat="46.037381406" lon="7.243093051">
        <ele>2008.800000</ele>
        <time>2015-08-05T14:29:28Z</time>
        <speed>0.662000</speed>
      </trkpt>
      <trkpt lat="46.037392805" lon="7.243089027">
        <ele>2008.400000</ele>
        <time>2015-08-05T14:29:29Z</time>
        <speed>15.044000</speed>
      </trkpt>
      <trkpt lat="46.037399930" lon="7.243092296">
        <ele>2008.000000</ele>
        <time>2015-08-05T14:29:30Z</time>
        <speed>0.000000</speed>
      </trkpt>
      <trkpt lat="46.037407390" lon="7.243108222">
        <ele>2007.600000</ele>
        <time>2015-08-05T14:29:31Z</time>
        <speed>0.000000</speed>
      </trkpt>
      <trkpt lat="46.037420214" lon="7.243122052">
        <ele>2007.600000</ele>
        <time>2015-08-05T14:29:32Z</time>
        <speed>1.404000</speed>
      </trkpt>
      <trkpt lat="46.037436475" lon="7.243124399">
        <ele>2007.600000</ele>
        <time>2015-08-05T14:29:33Z</time>
        <speed>1.404000</speed>
      </trkpt>
      <trkpt lat="46.037455167" lon="7.243111156">
        <ele>2007.000000</ele>
        <time>2015-08-05T14:29:34Z</time>
        <speed>1.831000</speed>
      </trkpt>
      <trkpt lat="46.037466734" lon="7.243091123">
        <ele>2006.600000</ele>
        <time>2015-08-05T14:29:35Z</time>
        <speed>1.831000</speed>
      </trkpt>
      <trkpt lat="46.037474026" lon="7.243071593">
        <ele>2006.000000</ele>
        <time>2015-08-05T14:29:36Z</time>
        <speed>1.831000</speed>
      </trkpt>
      <trkpt lat="46.037488191" lon="7.243065139">
        <ele>2004.800000</ele>
        <time>2015-08-05T14:29:37Z</time>
        <speed>1.129000</speed>
      </trkpt>
      <trkpt lat="46.037504536" lon="7.243065223">
        <ele>2004.200000</ele>
        <time>2015-08-05T14:29:38Z</time>
        <speed>1.969000</speed>
      </trkpt>
      <trkpt lat="46.037518618" lon="7.243059272">
        <ele>2003.600000</ele>
        <time>2015-08-05T14:29:39Z</time>
        <speed>1.942000</speed>
      </trkpt>
      <trkpt lat="46.037525742" lon="7.243044687">
        <ele>2003.000000</ele>
        <time>2015-08-05T14:29:40Z</time>
        <speed>1.942000</speed>
      </trkpt>
      <trkpt lat="46.037531945" lon="7.243033791">
        <ele>2002.600000</ele>
        <time>2015-08-05T14:29:41Z</time>
        <speed>1.163000</speed>
      </trkpt>
      <trkpt lat="46.037528257" lon="7.243020966">
        <ele>2002.000000</ele>
        <time>2015-08-05T14:29:42Z</time>
        <speed>0.000000</speed>
      </trkpt>
      <trkpt lat="46.037512918" lon="7.243003951">
        <ele>2001.600000</ele>
        <time>2015-08-05T14:29:43Z</time>
        <speed>1.111000</speed>
      </trkpt>
      <trkpt lat="46.037503446" lon="7.242979644">
        <ele>2001.200000</ele>
        <time>2015-08-05T14:29:44Z</time>
        <speed>1.585000</speed>
      </trkpt>
      <trkpt lat="46.037503530" lon="7.242956677">
        <ele>2000.600000</ele>
        <time>2015-08-05T14:29:45Z</time>
        <speed>0.000000</speed>
      </trkpt>
      <trkpt lat="46.037505374" lon="7.242926502">
        <ele>2000.000000</ele>
        <time>2015-08-05T14:29:46Z</time>
        <speed>1.920000</speed>
      </trkpt>
      <trkpt lat="46.037497998" lon="7.242904458">
        <ele>1999.600000</ele>
        <time>2015-08-05T14:29:47Z</time>
        <speed>1.920000</speed>
      </trkpt>
      <trkpt lat="46.037497160" lon="7.242889706">
        <ele>1999.000000</ele>
        <time>2015-08-05T14:29:48Z</time>
        <speed>1.298000</speed>
      </trkpt>
      <trkpt lat="46.037506967" lon="7.242883335">
        <ele>1998.400000</ele>
        <time>2015-08-05T14:29:49Z</time>
        <speed>12.058000</speed>
      </trkpt>
      <trkpt lat="46.037511828" lon="7.242876211">
        <ele>1998.000000</ele>
        <time>2015-08-05T14:29:50Z</time>
        <speed>0.000000</speed>
      </trkpt>
      <trkpt lat="46.037514427" lon="7.242868667">
        <ele>1997.400000</ele>
        <time>2015-08-05T14:29:51Z</time>
        <speed>15.222000</speed>
      </trkpt>
      <trkpt lat="46.037513840" lon="7.242864141">
        <ele>1996.800000</ele>
        <time>2015-08-05T14:29:52Z</time>
        <speed>0.000000</speed>
      </trkpt>
      <trkpt lat="46.037509146" lon="7.242850395">
        <ele>1996.200000</ele>
        <time>2015-08-05T14:29:53Z</time>
        <speed>0.000000</speed>
      </trkpt>
      <trkpt lat="46.037513002" lon="7.242824746">
        <ele>1996.200000</ele>
        <time>2015-08-05T14:29:54Z</time>
        <speed>0.903000</speed>
      </trkpt>
      <trkpt lat="46.037542255" lon="7.242790799">
        <ele>1995.600000</ele>
        <time>2015-08-05T14:29:56Z</time>
        <speed>1.707000</speed>
      </trkpt>
      <trkpt lat="46.037551642" lon="7.242776131">
        <ele>1995.200000</ele>
        <time>2015-08-05T14:29:57Z</time>
        <speed>1.989000</speed>
      </trkpt>
      <trkpt lat="46.037561365" lon="7.242763558">
        <ele>1994.600000</ele>
        <time>2015-08-05T14:29:58Z</time>
        <speed>1.599000</speed>
      </trkpt>
      <trkpt lat="46.037564802" lon="7.242750398">
        <ele>1994.200000</ele>
        <time>2015-08-05T14:29:59Z</time>
        <speed>1.622000</speed>
      </trkpt>
      <trkpt lat="46.037563461" lon="7.242743609">
        <ele>1993.600000</ele>
        <time>2015-08-05T14:30:00Z</time>
        <speed>1.622000</speed>
      </trkpt>
      <trkpt lat="46.037564131" lon="7.242744112">
        <ele>1992.600000</ele>
        <time>2015-08-05T14:30:01Z</time>
        <speed>1.622000</speed>
      </trkpt>
      <trkpt lat="46.037566981" lon="7.242742519">
        <ele>1992.200000</ele>
        <time>2015-08-05T14:30:02Z</time>
        <speed>0.000000</speed>
      </trkpt>
      <trkpt lat="46.037572849" lon="7.242751572">
        <ele>1991.800000</ele>
        <time>2015-08-05T14:30:03Z</time>
        <speed>0.000000</speed>
      </trkpt>
      <trkpt lat="46.037579470" lon="7.242761379">
        <ele>1991.400000</ele>
        <time>2015-08-05T14:30:04Z</time>
        <speed>0.000000</speed>
      </trkpt>
      <trkpt lat="46.037614842" lon="7.242774538">
        <ele>1991.400000</ele>
        <time>2015-08-05T14:30:07Z</time>
        <speed>1.141000</speed>
      </trkpt>
      <trkpt lat="46.037650465" lon="7.242754003">
        <ele>1990.800000</ele>
        <time>2015-08-05T14:30:11Z</time>
        <speed>0.928000</speed>
      </trkpt>
      <trkpt lat="46.037654572" lon="7.242752578">
        <ele>1990.400000</ele>
        <time>2015-08-05T14:30:12Z</time>
        <speed>2.049000</speed>
      </trkpt>
      <trkpt lat="46.037662870" lon="7.242748303">
        <ele>1989.800000</ele>
        <time>2015-08-05T14:30:13Z</time>
        <speed>2.049000</speed>
      </trkpt>
      <trkpt lat="46.037670582" lon="7.242747716">
        <ele>1989.400000</ele>
        <time>2015-08-05T14:30:14Z</time>
        <speed>2.049000</speed>
      </trkpt>
      <trkpt lat="46.037676784" lon="7.242747549">
        <ele>1988.800000</ele>
        <time>2015-08-05T14:30:15Z</time>
        <speed>0.000000</speed>
      </trkpt>
      <trkpt lat="46.037696063" lon="7.242743022">
        <ele>1988.800000</ele>
        <time>2015-08-05T14:30:17Z</time>
        <speed>2.806000</speed>
      </trkpt>
      <trkpt lat="46.037699667" lon="7.242744699">
        <ele>1988.800000</ele>
        <time>2015-08-05T14:30:18Z</time>
        <speed>0.000000</speed>
      </trkpt>
      <trkpt lat="46.037707713" lon="7.242747381">
        <ele>1988.400000</ele>
        <time>2015-08-05T14:30:21Z</time>
        <speed>0.000000</speed>
      </trkpt>
      <trkpt lat="46.037717604" lon="7.242739921">
        <ele>1988.000000</ele>
        <time>2015-08-05T14:30:22Z</time>
        <speed>0.000000</speed>
      </trkpt>
      <trkpt lat="46.037732189" lon="7.242731455">
        <ele>1987.400000</ele>
        <time>2015-08-05T14:30:23Z</time>
        <speed>2.076000</speed>
      </trkpt>
      <trkpt lat="46.037744929" lon="7.242727264">
        <ele>1987.000000</ele>
        <time>2015-08-05T14:30:24Z</time>
        <speed>2.076000</speed>
      </trkpt>
      <trkpt lat="46.037759514" lon="7.242727013">
        <ele>1986.600000</ele>
        <time>2015-08-05T14:30:25Z</time>
        <speed>1.157000</speed>
      </trkpt>
      <trkpt lat="46.037777870" lon="7.242729108">
        <ele>1985.600000</ele>
        <time>2015-08-05T14:30:27Z</time>
        <speed>0.000000</speed>
      </trkpt>
      <trkpt lat="46.037777199" lon="7.242727600">
        <ele>1985.200000</ele>
        <time>2015-08-05T14:30:28Z</time>
        <speed>0.917000</speed>
      </trkpt>
      <trkpt lat="46.037782061" lon="7.242720894">
        <ele>1984.600000</ele>
        <time>2015-08-05T14:30:29Z</time>
        <speed>0.917000</speed>
      </trkpt>
      <trkpt lat="46.037793628" lon="7.242715278">
        <ele>1984.200000</ele>
        <time>2015-08-05T14:30:30Z</time>
        <speed>0.917000</speed>
      </trkpt>
      <trkpt lat="46.037833023" lon="7.242702203">
        <ele>1983.800000</ele>
        <time>2015-08-05T14:30:32Z</time>
        <speed>0.000000</speed>
      </trkpt>
      <trkpt lat="46.037860935" lon="7.242686696">
        <ele>1983.400000</ele>
        <time>2015-08-05T14:30:33Z</time>
        <speed>2.341000</speed>
      </trkpt>
      <trkpt lat="46.037878537" lon="7.242672614">
        <ele>1983.000000</ele>
        <time>2015-08-05T14:30:34Z</time>
        <speed>2.245000</speed>
      </trkpt>
      <trkpt lat="46.037889685" lon="7.242663646">
        <ele>1982.600000</ele>
        <time>2015-08-05T14:30:35Z</time>
        <speed>2.245000</speed>
      </trkpt>
      <trkpt lat="46.037901922" lon="7.242647804">
        <ele>1982.200000</ele>
        <time>2015-08-05T14:30:36Z</time>
        <speed>1.669000</speed>
      </trkpt>
      <trkpt lat="46.037917177" lon="7.242630621">
        <ele>1981.600000</ele>
        <time>2015-08-05T14:30:37Z</time>
        <speed>1.669000</speed>
      </trkpt>
      <trkpt lat="46.037934276" lon="7.242619725">
        <ele>1981.000000</ele>
        <time>2015-08-05T14:30:38Z</time>
        <speed>1.694000</speed>
      </trkpt>
      <trkpt lat="46.037956488" lon="7.242600614">
        <ele>1980.400000</ele>
        <time>2015-08-05T14:30:39Z</time>
        <speed>2.369000</speed>
      </trkpt>
      <trkpt lat="46.037978281" lon="7.242572954">
        <ele>1979.800000</ele>
        <time>2015-08-05T14:30:40Z</time>
        <speed>2.052000</speed>
      </trkpt>
      <trkpt lat="46.037997643" lon="7.242552502">
        <ele>1979.200000</ele>
        <time>2015-08-05T14:30:41Z</time>
        <speed>2.138000</speed>
      </trkpt>
      <trkpt lat="46.038018598" lon="7.242529284">
        <ele>1978.600000</ele>
        <time>2015-08-05T14:30:42Z</time>
        <speed>2.034000</speed>
      </trkpt>
      <trkpt lat="46.038037122" lon="7.242505982">
        <ele>1977.800000</ele>
        <time>2015-08-05T14:30:43Z</time>
        <speed>2.034000</speed>
      </trkpt>
      <trkpt lat="46.038054976" lon="7.242485698">
        <ele>1977.000000</ele>
        <time>2015-08-05T14:30:44Z</time>
        <speed>2.425000</speed>
      </trkpt>
      <trkpt lat="46.038066543" lon="7.242467174">
        <ele>1976.200000</ele>
        <time>2015-08-05T14:30:45Z</time>
        <speed>2.131000</speed>
      </trkpt>
      <trkpt lat="46.038064783" lon="7.242450913">
        <ele>1975.400000</ele>
        <time>2015-08-05T14:30:46Z</time>
        <speed>2.131000</speed>
      </trkpt>
      <trkpt lat="46.038052461" lon="7.242439178">
        <ele>1974.800000</ele>
        <time>2015-08-05T14:30:47Z</time>
        <speed>1.732000</speed>
      </trkpt>
      <trkpt lat="46.038039218" lon="7.242437837">
        <ele>1974.000000</ele>
        <time>2015-08-05T14:30:48Z</time>
        <speed>1.200000</speed>
      </trkpt>
      <trkpt lat="46.038027315" lon="7.242430210">
        <ele>1973.200000</ele>
        <time>2015-08-05T14:30:49Z</time>
        <speed>1.200000</speed>
      </trkpt>
      <trkpt lat="46.038024968" lon="7.242419816">
        <ele>1972.400000</ele>
        <time>2015-08-05T14:30:50Z</time>
        <speed>1.431000</speed>
      </trkpt>
      <trkpt lat="46.038034189" lon="7.242407830">
        <ele>1971.600000</ele>
        <time>2015-08-05T14:30:51Z</time>
        <speed>1.261000</speed>
      </trkpt>
      <trkpt lat="46.038048941" lon="7.242404980">
        <ele>1971.200000</ele>
        <time>2015-08-05T14:30:52Z</time>
        <speed>1.261000</speed>
      </trkpt>
      <trkpt lat="46.038065285" lon="7.242403555">
        <ele>1970.800000</ele>
        <time>2015-08-05T14:30:53Z</time>
        <speed>1.454000</speed>
      </trkpt>
      <trkpt lat="46.038080624" lon="7.242388719">
        <ele>1970.400000</ele>
        <time>2015-08-05T14:30:54Z</time>
        <speed>1.751000</speed>
      </trkpt>
      <trkpt lat="46.038086995" lon="7.242362987">
        <ele>1970.000000</ele>
        <time>2015-08-05T14:30:55Z</time>
        <speed>1.811000</speed>
      </trkpt>
      <trkpt lat="46.038094119" lon="7.242338596">
        <ele>1969.400000</ele>
        <time>2015-08-05T14:30:56Z</time>
        <speed>1.811000</speed>
      </trkpt>
      <trkpt lat="46.038107698" lon="7.242333064">
        <ele>1969.000000</ele>
        <time>2015-08-05T14:30:57Z</time>
        <speed>2.072000</speed>
      </trkpt>
      <trkpt lat="46.038124378" lon="7.242334740">
        <ele>1968.600000</ele>
        <time>2015-08-05T14:30:58Z</time>
        <speed>2.072000</speed>
      </trkpt>
      <trkpt lat="46.038144914" lon="7.242335327">
        <ele>1968.000000</ele>
        <time>2015-08-05T14:30:59Z</time>
        <speed>1.778000</speed>
      </trkpt>
      <trkpt lat="46.038159247" lon="7.242327951">
        <ele>1967.400000</ele>
        <time>2015-08-05T14:31:00Z</time>
        <speed>1.765000</speed>
      </trkpt>
      <trkpt lat="46.038172909" lon="7.242336919">
        <ele>1966.800000</ele>
        <time>2015-08-05T14:31:01Z</time>
        <speed>2.315000</speed>
      </trkpt>
      <trkpt lat="46.038187997" lon="7.242340440">
        <ele>1966.200000</ele>
        <time>2015-08-05T14:31:02Z</time>
        <speed>2.467000</speed>
      </trkpt>
      <trkpt lat="46.038199899" lon="7.242329962">
        <ele>1965.600000</ele>
        <time>2015-08-05T14:31:03Z</time>
        <speed>1.448000</speed>
      </trkpt>
      <trkpt lat="46.038207526" lon="7.242306074">
        <ele>1965.200000</ele>
        <time>2015-08-05T14:31:04Z</time>
        <speed>3.678000</speed>
      </trkpt>
      <trkpt lat="46.038209789" lon="7.242285203">
        <ele>1964.600000</ele>
        <time>2015-08-05T14:31:05Z</time>
        <speed>0.000000</speed>
      </trkpt>
      <trkpt lat="46.038201072" lon="7.242266260">
        <ele>1964.000000</ele>
        <time>2015-08-05T14:31:06Z</time>
        <speed>2.042000</speed>
      </trkpt>
      <trkpt lat="46.038202497" lon="7.242242790">
        <ele>1963.400000</ele>
        <time>2015-08-05T14:31:07Z</time>
        <speed>1.528000</speed>
      </trkpt>
      <trkpt lat="46.038208448" lon="7.242222590">
        <ele>1962.800000</ele>
        <time>2015-08-05T14:31:08Z</time>
        <speed>1.528000</speed>
      </trkpt>
      <trkpt lat="46.038217082" lon="7.242218483">
        <ele>1962.400000</ele>
        <time>2015-08-05T14:31:09Z</time>
        <speed>1.426000</speed>
      </trkpt>
      <trkpt lat="46.038225799" lon="7.242218818">
        <ele>1961.800000</ele>
        <time>2015-08-05T14:31:10Z</time>
        <speed>1.426000</speed>
      </trkpt>
      <trkpt lat="46.038241808" lon="7.242223931">
        <ele>1961.200000</ele>
        <time>2015-08-05T14:31:11Z</time>
        <speed>1.261000</speed>
      </trkpt>
      <trkpt lat="46.038289418" lon="7.242214124">
        <ele>1960.800000</ele>
        <time>2015-08-05T14:31:13Z</time>
        <speed>2.042000</speed>
      </trkpt>
      <trkpt lat="46.038314815" lon="7.242197528">
        <ele>1960.400000</ele>
        <time>2015-08-05T14:31:14Z</time>
        <speed>2.713000</speed>
      </trkpt>
      <trkpt lat="46.038337278" lon="7.242184788">
        <ele>1959.800000</ele>
        <time>2015-08-05T14:31:15Z</time>
        <speed>2.835000</speed>
      </trkpt>
      <trkpt lat="46.038366028" lon="7.242173053">
        <ele>1958.600000</ele>
        <time>2015-08-05T14:31:16Z</time>
        <speed>3.088000</speed>
      </trkpt>
      <trkpt lat="46.038399640" lon="7.242157546">
        <ele>1958.000000</ele>
        <time>2015-08-05T14:31:17Z</time>
        <speed>3.247000</speed>
      </trkpt>
      <trkpt lat="46.038430317" lon="7.242139525">
        <ele>1957.200000</ele>
        <time>2015-08-05T14:31:18Z</time>
        <speed>4.057000</speed>
      </trkpt>
      <trkpt lat="46.038464851" lon="7.242114715">
        <ele>1956.400000</ele>
        <time>2015-08-05T14:31:19Z</time>
        <speed>3.613000</speed>
      </trkpt>
      <trkpt lat="46.038498797" lon="7.242093509">
        <ele>1955.600000</ele>
        <time>2015-08-05T14:31:20Z</time>
        <speed>3.364000</speed>
      </trkpt>
      <trkpt lat="46.038526122" lon="7.242067441">
        <ele>1954.800000</ele>
        <time>2015-08-05T14:31:21Z</time>
        <speed>3.364000</speed>
      </trkpt>
      <trkpt lat="46.038544646" lon="7.242040954">
        <ele>1954.400000</ele>
        <time>2015-08-05T14:31:22Z</time>
        <speed>3.792000</speed>
      </trkpt>
      <trkpt lat="46.038562919" lon="7.242021927">
        <ele>1954.000000</ele>
        <time>2015-08-05T14:31:23Z</time>
        <speed>3.650000</speed>
      </trkpt>
      <trkpt lat="46.038587059" lon="7.242003487">
        <ele>1953.400000</ele>
        <time>2015-08-05T14:31:24Z</time>
        <speed>2.417000</speed>
      </trkpt>
      <trkpt lat="46.038610780" lon="7.241988651">
        <ele>1953.000000</ele>
        <time>2015-08-05T14:31:25Z</time>
        <speed>3.194000</speed>
      </trkpt>
      <trkpt lat="46.038630226" lon="7.241977000">
        <ele>1952.600000</ele>
        <time>2015-08-05T14:31:26Z</time>
        <speed>3.194000</speed>
      </trkpt>
      <trkpt lat="46.038650426" lon="7.241970965">
        <ele>1952.200000</ele>
        <time>2015-08-05T14:31:27Z</time>
        <speed>2.847000</speed>
      </trkpt>
      <trkpt lat="46.038671884" lon="7.241971468">
        <ele>1951.600000</ele>
        <time>2015-08-05T14:31:28Z</time>
        <speed>2.586000</speed>
      </trkpt>
      <trkpt lat="46.038694180" lon="7.241980018">
        <ele>1951.200000</ele>
        <time>2015-08-05T14:31:29Z</time>
        <speed>1.998000</speed>
      </trkpt>
      <trkpt lat="46.038715470" lon="7.241983454">
        <ele>1950.600000</ele>
        <time>2015-08-05T14:31:30Z</time>
        <speed>2.328000</speed>
      </trkpt>
      <trkpt lat="46.038734329" lon="7.241994602">
        <ele>1950.200000</ele>
        <time>2015-08-05T14:31:31Z</time>
        <speed>2.395000</speed>
      </trkpt>
      <trkpt lat="46.038749333" lon="7.242006672">
        <ele>1950.200000</ele>
        <time>2015-08-05T14:31:32Z</time>
        <speed>2.031000</speed>
      </trkpt>
      <trkpt lat="46.038755116" lon="7.242011366">
        <ele>1949.800000</ele>
        <time>2015-08-05T14:31:33Z</time>
        <speed>2.238000</speed>
      </trkpt>
      <trkpt lat="46.038755787" lon="7.242009187">
        <ele>1949.400000</ele>
        <time>2015-08-05T14:31:34Z</time>
        <speed>1.949000</speed>
      </trkpt>
      <trkpt lat="46.038755368" lon="7.242005415">
        <ele>1949.000000</ele>
        <time>2015-08-05T14:31:35Z</time>
        <speed>1.949000</speed>
      </trkpt>
      <trkpt lat="46.038755619" lon="7.242005583">
        <ele>1948.600000</ele>
        <time>2015-08-05T14:31:36Z</time>
        <speed>0.000000</speed>
      </trkpt>
      <trkpt lat="46.038755619" lon="7.242005583">
        <ele>1948.200000</ele>
        <time>2015-08-05T14:31:37Z</time>
        <speed>0.000000</speed>
      </trkpt>
      <trkpt lat="46.038755619" lon="7.242005583">
        <ele>1948.200000</ele>
        <time>2015-08-05T14:31:48Z</time>
        <speed>0.000000</speed>
      </trkpt>
      <trkpt lat="46.038757966" lon="7.242006672">
        <ele>1948.200000</ele>
        <time>2015-08-05T14:31:50Z</time>
        <speed>0.000000</speed>
      </trkpt>
      <trkpt lat="46.038785291" lon="7.242039613">
        <ele>1948.200000</ele>
        <time>2015-08-05T14:31:54Z</time>
        <speed>0.000000</speed>
      </trkpt>
      <trkpt lat="46.038800462" lon="7.242049168">
        <ele>1948.200000</ele>
        <time>2015-08-05T14:31:55Z</time>
        <speed>1.299000</speed>
      </trkpt>
      <trkpt lat="46.038810185" lon="7.242050929">
        <ele>1947.800000</ele>
        <time>2015-08-05T14:31:56Z</time>
        <speed>1.299000</speed>
      </trkpt>
      <trkpt lat="46.038824602" lon="7.242052773">
        <ele>1947.400000</ele>
        <time>2015-08-05T14:31:57Z</time>
        <speed>1.752000</speed>
      </trkpt>
      <trkpt lat="46.038834660" lon="7.242053527">
        <ele>1947.000000</ele>
        <time>2015-08-05T14:31:58Z</time>
        <speed>1.176000</speed>
      </trkpt>
      <trkpt lat="46.038840779" lon="7.242050342">
        <ele>1946.600000</ele>
        <time>2015-08-05T14:31:59Z</time>
        <speed>1.176000</speed>
      </trkpt>
      <trkpt lat="46.038853101" lon="7.242055203">
        <ele>1946.200000</ele>
        <time>2015-08-05T14:32:00Z</time>
        <speed>1.176000</speed>
      </trkpt>
      <trkpt lat="46.038869781" lon="7.242061574">
        <ele>1945.800000</ele>
        <time>2015-08-05T14:32:01Z</time>
        <speed>0.875000</speed>
      </trkpt>
      <trkpt lat="46.038891071" lon="7.242073141">
        <ele>1945.200000</ele>
        <time>2015-08-05T14:32:02Z</time>
        <speed>1.527000</speed>
      </trkpt>
      <trkpt lat="46.038910181" lon="7.242092922">
        <ele>1944.800000</ele>
        <time>2015-08-05T14:32:03Z</time>
        <speed>1.798000</speed>
      </trkpt>
      <trkpt lat="46.038926777" lon="7.242099292">
        <ele>1944.400000</ele>
        <time>2015-08-05T14:32:04Z</time>
        <speed>1.798000</speed>
      </trkpt>
      <trkpt lat="46.038935159" lon="7.242103567">
        <ele>1943.600000</ele>
        <time>2015-08-05T14:32:05Z</time>
        <speed>1.798000</speed>
      </trkpt>
      <trkpt lat="46.038933148" lon="7.242108428">
        <ele>1943.000000</ele>
        <time>2015-08-05T14:32:06Z</time>
        <speed>1.798000</speed>
      </trkpt>
      <trkpt lat="46.038933148" lon="7.242107423">
        <ele>1942.600000</ele>
        <time>2015-08-05T14:32:07Z</time>
        <speed>3.638000</speed>
      </trkpt>
      <trkpt lat="46.038932896" lon="7.242106836">
        <ele>1942.200000</ele>
        <time>2015-08-05T14:32:08Z</time>
        <speed>3.638000</speed>
      </trkpt>
      <trkpt lat="46.038930382" lon="7.242105662">
        <ele>1941.800000</ele>
        <time>2015-08-05T14:32:09Z</time>
        <speed>0.000000</speed>
      </trkpt>
      <trkpt lat="46.038930382" lon="7.242105662">
        <ele>1941.800000</ele>
        <time>2015-08-05T14:32:13Z</time>
        <speed>0.000000</speed>
      </trkpt>
      <trkpt lat="46.038927448" lon="7.242103651">
        <ele>1941.800000</ele>
        <time>2015-08-05T14:32:22Z</time>
        <speed>10.335000</speed>
      </trkpt>
      <trkpt lat="46.038927783" lon="7.242095856">
        <ele>1941.800000</ele>
        <time>2015-08-05T14:32:23Z</time>
        <speed>10.335000</speed>
      </trkpt>
      <trkpt lat="46.038929041" lon="7.242096191">
        <ele>1941.800000</ele>
        <time>2015-08-05T14:32:29Z</time>
        <speed>0.000000</speed>
      </trkpt>
      <trkpt lat="46.038926358" lon="7.242101891">
        <ele>1941.800000</ele>
        <time>2015-08-05T14:32:35Z</time>
        <speed>0.000000</speed>
      </trkpt>
      <trkpt lat="46.038922251" lon="7.242094682">
        <ele>1941.800000</ele>
        <time>2015-08-05T14:32:44Z</time>
        <speed>0.000000</speed>
      </trkpt>
      <trkpt lat="46.038931974" lon="7.242047324">
        <ele>1941.800000</ele>
        <time>2015-08-05T14:32:48Z</time>
        <speed>0.000000</speed>
      </trkpt>
      <trkpt lat="46.038937255" lon="7.242003403">
        <ele>1941.400000</ele>
        <time>2015-08-05T14:32:51Z</time>
        <speed>9.265000</speed>
      </trkpt>
      <trkpt lat="46.038938009" lon="7.241979934">
        <ele>1940.800000</ele>
        <time>2015-08-05T14:32:52Z</time>
        <speed>9.265000</speed>
      </trkpt>
      <trkpt lat="46.038939099" lon="7.241965098">
        <ele>1940.400000</ele>
        <time>2015-08-05T14:32:53Z</time>
        <speed>0.000000</speed>
      </trkpt>
      <trkpt lat="46.038941278" lon="7.241947328">
        <ele>1940.000000</ele>
        <time>2015-08-05T14:32:54Z</time>
        <speed>1.830000</speed>
      </trkpt>
      <trkpt lat="46.038936333" lon="7.241927212">
        <ele>1939.600000</ele>
        <time>2015-08-05T14:32:55Z</time>
        <speed>1.830000</speed>
      </trkpt>
      <trkpt lat="46.038921329" lon="7.241869209">
        <ele>1939.600000</ele>
        <time>2015-08-05T14:32:58Z</time>
        <speed>1.754000</speed>
      </trkpt>
      <trkpt lat="46.038916468" lon="7.241855044">
        <ele>1939.200000</ele>
        <time>2015-08-05T14:32:59Z</time>
        <speed>1.754000</speed>
      </trkpt>
      <trkpt lat="46.038906409" lon="7.241832077">
        <ele>1938.800000</ele>
        <time>2015-08-05T14:33:00Z</time>
        <speed>1.855000</speed>
      </trkpt>
      <trkpt lat="46.038902973" lon="7.241817912">
        <ele>1938.400000</ele>
        <time>2015-08-05T14:33:01Z</time>
        <speed>1.440000</speed>
      </trkpt>
      <trkpt lat="46.038904146" lon="7.241817325">
        <ele>1938.000000</ele>
        <time>2015-08-05T14:33:02Z</time>
        <speed>1.911000</speed>
      </trkpt>
      <trkpt lat="46.038904062" lon="7.241817074">
        <ele>1937.600000</ele>
        <time>2015-08-05T14:33:03Z</time>
        <speed>1.911000</speed>
      </trkpt>
      <trkpt lat="46.038904146" lon="7.241816990">
        <ele>1937.600000</ele>
        <time>2015-08-05T14:33:11Z</time>
        <speed>0.000000</speed>
      </trkpt>
      <trkpt lat="46.038904146" lon="7.241816990">
        <ele>1937.600000</ele>
        <time>2015-08-05T14:33:16Z</time>
        <speed>0.000000</speed>
      </trkpt>
      <trkpt lat="46.038858046" lon="7.241760160">
        <ele>1937.600000</ele>
        <time>2015-08-05T14:33:21Z</time>
        <speed>1.069000</speed>
      </trkpt>
      <trkpt lat="46.038810437" lon="7.241677934">
        <ele>1937.600000</ele>
        <time>2015-08-05T14:33:27Z</time>
        <speed>1.087000</speed>
      </trkpt>
      <trkpt lat="46.038765593" lon="7.241618758">
        <ele>1937.600000</ele>
        <time>2015-08-05T14:33:32Z</time>
        <speed>1.626000</speed>
      </trkpt>
      <trkpt lat="46.038766851" lon="7.241600066">
        <ele>1937.600000</ele>
        <time>2015-08-05T14:33:33Z</time>
        <speed>1.626000</speed>
      </trkpt>
      <trkpt lat="46.038778669" lon="7.241533346">
        <ele>1937.600000</ele>
        <time>2015-08-05T14:33:36Z</time>
        <speed>1.742000</speed>
      </trkpt>
      <trkpt lat="46.038794343" lon="7.241473583">
        <ele>1937.200000</ele>
        <time>2015-08-05T14:33:38Z</time>
        <speed>3.071000</speed>
      </trkpt>
      <trkpt lat="46.038809347" lon="7.241455897">
        <ele>1936.800000</ele>
        <time>2015-08-05T14:33:39Z</time>
        <speed>3.071000</speed>
      </trkpt>
      <trkpt lat="46.038824434" lon="7.241442319">
        <ele>1936.200000</ele>
        <time>2015-08-05T14:33:40Z</time>
        <speed>2.960000</speed>
      </trkpt>
      <trkpt lat="46.038844635" lon="7.241422286">
        <ele>1935.800000</ele>
        <time>2015-08-05T14:33:41Z</time>
        <speed>2.960000</speed>
      </trkpt>
      <trkpt lat="46.038866847" lon="7.241399990">
        <ele>1935.200000</ele>
        <time>2015-08-05T14:33:42Z</time>
        <speed>2.656000</speed>
      </trkpt>
      <trkpt lat="46.038890316" lon="7.241379287">
        <ele>1934.800000</ele>
        <time>2015-08-05T14:33:43Z</time>
        <speed>3.184000</speed>
      </trkpt>
      <trkpt lat="46.038914624" lon="7.241349196">
        <ele>1933.600000</ele>
        <time>2015-08-05T14:33:44Z</time>
        <speed>3.093000</speed>
      </trkpt>
      <trkpt lat="46.038937422" lon="7.241319943">
        <ele>1933.000000</ele>
        <time>2015-08-05T14:33:45Z</time>
        <speed>3.208000</speed>
      </trkpt>
      <trkpt lat="46.038959718" lon="7.241293456">
        <ele>1932.400000</ele>
        <time>2015-08-05T14:33:46Z</time>
        <speed>3.746000</speed>
      </trkpt>
      <trkpt lat="46.038968016" lon="7.241265041">
        <ele>1931.800000</ele>
        <time>2015-08-05T14:33:47Z</time>
        <speed>3.062000</speed>
      </trkpt>
      <trkpt lat="46.038966089" lon="7.241243332">
        <ele>1931.000000</ele>
        <time>2015-08-05T14:33:48Z</time>
        <speed>3.833000</speed>
      </trkpt>
      <trkpt lat="46.038965586" lon="7.241230424">
        <ele>1930.200000</ele>
        <time>2015-08-05T14:33:49Z</time>
        <speed>0.000000</speed>
      </trkpt>
      <trkpt lat="46.038974470" lon="7.241208128">
        <ele>1929.400000</ele>
        <time>2015-08-05T14:33:50Z</time>
        <speed>2.660000</speed>
      </trkpt>
      <trkpt lat="46.038991067" lon="7.241188431">
        <ele>1928.600000</ele>
        <time>2015-08-05T14:33:51Z</time>
        <speed>1.960000</speed>
      </trkpt>
      <trkpt lat="46.039010429" lon="7.241166722">
        <ele>1928.000000</ele>
        <time>2015-08-05T14:33:52Z</time>
        <speed>1.960000</speed>
      </trkpt>
      <trkpt lat="46.039024678" lon="7.241145096">
        <ele>1927.200000</ele>
        <time>2015-08-05T14:33:53Z</time>
        <speed>2.820000</speed>
      </trkpt>
      <trkpt lat="46.039038760" lon="7.241129087">
        <ele>1926.600000</ele>
        <time>2015-08-05T14:33:54Z</time>
        <speed>2.598000</speed>
      </trkpt>
      <trkpt lat="46.039053763" lon="7.241104779">
        <ele>1925.800000</ele>
        <time>2015-08-05T14:33:55Z</time>
        <speed>2.199000</speed>
      </trkpt>
      <trkpt lat="46.039068599" lon="7.241085250">
        <ele>1925.200000</ele>
        <time>2015-08-05T14:33:56Z</time>
        <speed>1.805000</speed>
      </trkpt>
      <trkpt lat="46.039079160" lon="7.241058008">
        <ele>1924.600000</ele>
        <time>2015-08-05T14:33:57Z</time>
        <speed>2.313000</speed>
      </trkpt>
      <trkpt lat="46.039097182" lon="7.241032024">
        <ele>1923.800000</ele>
        <time>2015-08-05T14:33:58Z</time>
        <speed>2.190000</speed>
      </trkpt>
      <trkpt lat="46.039116963" lon="7.241007130">
        <ele>1923.200000</ele>
        <time>2015-08-05T14:33:59Z</time>
        <speed>2.387000</speed>
      </trkpt>
      <trkpt lat="46.039136493" lon="7.240992965">
        <ele>1922.400000</ele>
        <time>2015-08-05T14:34:00Z</time>
        <speed>2.574000</speed>
      </trkpt>
      <trkpt lat="46.039151580" lon="7.240973267">
        <ele>1921.600000</ele>
        <time>2015-08-05T14:34:01Z</time>
        <speed>2.693000</speed>
      </trkpt>
      <trkpt lat="46.039164740" lon="7.240954492">
        <ele>1920.800000</ele>
        <time>2015-08-05T14:34:02Z</time>
        <speed>1.935000</speed>
      </trkpt>
      <trkpt lat="46.039179492" lon="7.240938399">
        <ele>1920.000000</ele>
        <time>2015-08-05T14:34:03Z</time>
        <speed>2.696000</speed>
      </trkpt>
      <trkpt lat="46.039190891" lon="7.240922641">
        <ele>1919.200000</ele>
        <time>2015-08-05T14:34:04Z</time>
        <speed>2.696000</speed>
      </trkpt>
      <trkpt lat="46.039205895" lon="7.240909733">
        <ele>1918.200000</ele>
        <time>2015-08-05T14:34:05Z</time>
        <speed>2.325000</speed>
      </trkpt>
      <trkpt lat="46.039227520" lon="7.240890370">
        <ele>1917.400000</ele>
        <time>2015-08-05T14:34:06Z</time>
        <speed>2.325000</speed>
      </trkpt>
      <trkpt lat="46.039244032" lon="7.240869751">
        <ele>1916.600000</ele>
        <time>2015-08-05T14:34:07Z</time>
        <speed>1.896000</speed>
      </trkpt>
      <trkpt lat="46.039254258" lon="7.240845276">
        <ele>1915.800000</ele>
        <time>2015-08-05T14:34:08Z</time>
        <speed>1.969000</speed>
      </trkpt>
      <trkpt lat="46.039260042" lon="7.240826836">
        <ele>1914.400000</ele>
        <time>2015-08-05T14:34:09Z</time>
        <speed>1.841000</speed>
      </trkpt>
      <trkpt lat="46.039268927" lon="7.240811497">
        <ele>1913.600000</ele>
        <time>2015-08-05T14:34:10Z</time>
        <speed>1.731000</speed>
      </trkpt>
      <trkpt lat="46.039282422" lon="7.240793895">
        <ele>1913.000000</ele>
        <time>2015-08-05T14:34:11Z</time>
        <speed>7.170000</speed>
      </trkpt>
      <trkpt lat="46.039294072" lon="7.240779394">
        <ele>1912.200000</ele>
        <time>2015-08-05T14:34:12Z</time>
        <speed>0.000000</speed>
      </trkpt>
      <trkpt lat="46.039307819" lon="7.240758691">
        <ele>1911.400000</ele>
        <time>2015-08-05T14:34:13Z</time>
        <speed>0.000000</speed>
      </trkpt>
      <trkpt lat="46.039320895" lon="7.240741759">
        <ele>1910.800000</ele>
        <time>2015-08-05T14:34:14Z</time>
        <speed>0.000000</speed>
      </trkpt>
      <trkpt lat="46.039345202" lon="7.240718374">
        <ele>1910.000000</ele>
        <time>2015-08-05T14:34:15Z</time>
        <speed>1.295000</speed>
      </trkpt>
      <trkpt lat="46.039370432" lon="7.240691216">
        <ele>1909.200000</ele>
        <time>2015-08-05T14:34:16Z</time>
        <speed>1.295000</speed>
      </trkpt>
      <trkpt lat="46.039390800" lon="7.240670681">
        <ele>1908.600000</ele>
        <time>2015-08-05T14:34:17Z</time>
        <speed>1.469000</speed>
      </trkpt>
      <trkpt lat="46.039406558" lon="7.240656683">
        <ele>1907.800000</ele>
        <time>2015-08-05T14:34:18Z</time>
        <speed>1.712000</speed>
      </trkpt>
      <trkpt lat="46.039426590" lon="7.240641679">
        <ele>1906.800000</ele>
        <time>2015-08-05T14:34:19Z</time>
        <speed>2.104000</speed>
      </trkpt>
      <trkpt lat="46.039449138" lon="7.240624748">
        <ele>1906.000000</ele>
        <time>2015-08-05T14:34:20Z</time>
        <speed>1.865000</speed>
      </trkpt>
      <trkpt lat="46.039467243" lon="7.240606308">
        <ele>1905.000000</ele>
        <time>2015-08-05T14:34:21Z</time>
        <speed>2.186000</speed>
      </trkpt>
      <trkpt lat="46.039479899" lon="7.240593735">
        <ele>1904.200000</ele>
        <time>2015-08-05T14:34:22Z</time>
        <speed>2.186000</speed>
      </trkpt>
      <trkpt lat="46.039489287" lon="7.240586610">
        <ele>1903.400000</ele>
        <time>2015-08-05T14:34:23Z</time>
        <speed>2.186000</speed>
      </trkpt>
      <trkpt lat="46.039499681" lon="7.240582503">
        <ele>1902.800000</ele>
        <time>2015-08-05T14:34:24Z</time>
        <speed>2.186000</speed>
      </trkpt>
      <trkpt lat="46.039510409" lon="7.240582084">
        <ele>1902.000000</ele>
        <time>2015-08-05T14:34:25Z</time>
        <speed>0.000000</speed>
      </trkpt>
      <trkpt lat="46.039535723" lon="7.240583341">
        <ele>1901.400000</ele>
        <time>2015-08-05T14:34:26Z</time>
        <speed>1.604000</speed>
      </trkpt>
      <trkpt lat="46.039561958" lon="7.240571020">
        <ele>1900.800000</ele>
        <time>2015-08-05T14:34:27Z</time>
        <speed>2.291000</speed>
      </trkpt>
      <trkpt lat="46.039597916" lon="7.240552412">
        <ele>1900.200000</ele>
        <time>2015-08-05T14:34:28Z</time>
        <speed>2.720000</speed>
      </trkpt>
      <trkpt lat="46.039635635" lon="7.240540342">
        <ele>1899.400000</ele>
        <time>2015-08-05T14:34:29Z</time>
        <speed>3.571000</speed>
      </trkpt>
      <trkpt lat="46.039674443" lon="7.240528356">
        <ele>1898.600000</ele>
        <time>2015-08-05T14:34:30Z</time>
        <speed>3.675000</speed>
      </trkpt>
      <trkpt lat="46.039714173" lon="7.240511173">
        <ele>1897.600000</ele>
        <time>2015-08-05T14:34:31Z</time>
        <speed>3.792000</speed>
      </trkpt>
      <trkpt lat="46.039746947" lon="7.240484267">
        <ele>1896.800000</ele>
        <time>2015-08-05T14:34:32Z</time>
        <speed>3.874000</speed>
      </trkpt>
      <trkpt lat="46.039787767" lon="7.240465575">
        <ele>1895.800000</ele>
        <time>2015-08-05T14:34:33Z</time>
        <speed>4.509000</speed>
      </trkpt>
      <trkpt lat="46.039838980" lon="7.240446884">
        <ele>1893.800000</ele>
        <time>2015-08-05T14:34:34Z</time>
        <speed>3.759000</speed>
      </trkpt>
      <trkpt lat="46.039901593" lon="7.240410758">
        <ele>1892.600000</ele>
        <time>2015-08-05T14:34:35Z</time>
        <speed>3.759000</speed>
      </trkpt>
      <trkpt lat="46.039970576" lon="7.240362227">
        <ele>1891.200000</ele>
        <time>2015-08-05T14:34:36Z</time>
        <speed>7.748000</speed>
      </trkpt>
      <trkpt lat="46.040036374" lon="7.240309169">
        <ele>1889.800000</ele>
        <time>2015-08-05T14:34:37Z</time>
        <speed>9.018000</speed>
      </trkpt>
      <trkpt lat="46.040088174" lon="7.240257034">
        <ele>1888.400000</ele>
        <time>2015-08-05T14:34:38Z</time>
        <speed>8.069000</speed>
      </trkpt>
      <trkpt lat="46.040130754" lon="7.240213280">
        <ele>1886.800000</ele>
        <time>2015-08-05T14:34:39Z</time>
        <speed>6.728000</speed>
      </trkpt>
      <trkpt lat="46.040170820" lon="7.240180088">
        <ele>1885.400000</ele>
        <time>2015-08-05T14:34:40Z</time>
        <speed>6.313000</speed>
      </trkpt>
      <trkpt lat="46.040213232" lon="7.240148823">
        <ele>1884.400000</ele>
        <time>2015-08-05T14:34:41Z</time>
        <speed>4.845000</speed>
      </trkpt>
      <trkpt lat="46.040257488" lon="7.240116050">
        <ele>1883.400000</ele>
        <time>2015-08-05T14:34:42Z</time>
        <speed>5.619000</speed>
      </trkpt>
      <trkpt lat="46.040294117" lon="7.240084534">
        <ele>1882.400000</ele>
        <time>2015-08-05T14:34:43Z</time>
        <speed>5.560000</speed>
      </trkpt>
      <trkpt lat="46.040321526" lon="7.240059640">
        <ele>1881.600000</ele>
        <time>2015-08-05T14:34:44Z</time>
        <speed>4.646000</speed>
      </trkpt>
      <trkpt lat="46.040349354" lon="7.240030639">
        <ele>1880.800000</ele>
        <time>2015-08-05T14:34:45Z</time>
        <speed>3.720000</speed>
      </trkpt>
      <trkpt lat="46.040370309" lon="7.240005660">
        <ele>1880.000000</ele>
        <time>2015-08-05T14:34:46Z</time>
        <speed>3.501000</speed>
      </trkpt>
      <trkpt lat="46.040391347" lon="7.239985041">
        <ele>1879.200000</ele>
        <time>2015-08-05T14:34:47Z</time>
        <speed>3.530000</speed>
      </trkpt>
      <trkpt lat="46.040416577" lon="7.239963080">
        <ele>1878.200000</ele>
        <time>2015-08-05T14:34:48Z</time>
        <speed>2.766000</speed>
      </trkpt>
      <trkpt lat="46.040442896" lon="7.239932235">
        <ele>1877.800000</ele>
        <time>2015-08-05T14:34:49Z</time>
        <speed>2.627000</speed>
      </trkpt>
      <trkpt lat="46.040468377" lon="7.239895355">
        <ele>1877.200000</ele>
        <time>2015-08-05T14:34:50Z</time>
        <speed>2.627000</speed>
      </trkpt>
      <trkpt lat="46.040492433" lon="7.239849589">
        <ele>1876.600000</ele>
        <time>2015-08-05T14:34:51Z</time>
        <speed>2.627000</speed>
      </trkpt>
      <trkpt lat="46.040516657" lon="7.239805249">
        <ele>1875.800000</ele>
        <time>2015-08-05T14:34:52Z</time>
        <speed>3.688000</speed>
      </trkpt>
      <trkpt lat="46.040547167" lon="7.239768285">
        <ele>1874.800000</ele>
        <time>2015-08-05T14:34:53Z</time>
        <speed>4.707000</speed>
      </trkpt>
      <trkpt lat="46.040578180" lon="7.239726292">
        <ele>1873.600000</ele>
        <time>2015-08-05T14:34:54Z</time>
        <speed>4.991000</speed>
      </trkpt>
      <trkpt lat="46.040609528" lon="7.239672899">
        <ele>1872.600000</ele>
        <time>2015-08-05T14:34:55Z</time>
        <speed>4.462000</speed>
      </trkpt>
      <trkpt lat="46.040644146" lon="7.239628726">
        <ele>1871.400000</ele>
        <time>2015-08-05T14:34:56Z</time>
        <speed>5.604000</speed>
      </trkpt>
      <trkpt lat="46.040674153" lon="7.239590505">
        <ele>1870.200000</ele>
        <time>2015-08-05T14:34:57Z</time>
        <speed>5.929000</speed>
      </trkpt>
      <trkpt lat="46.040705836" lon="7.239563180">
        <ele>1869.200000</ele>
        <time>2015-08-05T14:34:58Z</time>
        <speed>4.586000</speed>
      </trkpt>
      <trkpt lat="46.040734586" lon="7.239536442">
        <ele>1867.200000</ele>
        <time>2015-08-05T14:34:59Z</time>
        <speed>4.233000</speed>
      </trkpt>
      <trkpt lat="46.040765599" lon="7.239518420">
        <ele>1866.200000</ele>
        <time>2015-08-05T14:35:00Z</time>
        <speed>3.989000</speed>
      </trkpt>
      <trkpt lat="46.040790326" lon="7.239505093">
        <ele>1865.600000</ele>
        <time>2015-08-05T14:35:01Z</time>
        <speed>3.111000</speed>
      </trkpt>
      <trkpt lat="46.040812454" lon="7.239481289">
        <ele>1865.000000</ele>
        <time>2015-08-05T14:35:02Z</time>
        <speed>3.909000</speed>
      </trkpt>
      <trkpt lat="46.040827039" lon="7.239455975">
        <ele>1864.200000</ele>
        <time>2015-08-05T14:35:03Z</time>
        <speed>0.000000</speed>
      </trkpt>
      <trkpt lat="46.040852352" lon="7.239398811">
        <ele>1863.200000</ele>
        <time>2015-08-05T14:35:04Z</time>
        <speed>2.969000</speed>
      </trkpt>
      <trkpt lat="46.040875318" lon="7.239337790">
        <ele>1862.200000</ele>
        <time>2015-08-05T14:35:05Z</time>
        <speed>3.375000</speed>
      </trkpt>
      <trkpt lat="46.040907086" lon="7.239267550">
        <ele>1861.000000</ele>
        <time>2015-08-05T14:35:06Z</time>
        <speed>3.375000</speed>
      </trkpt>
      <trkpt lat="46.040945140" lon="7.239201249">
        <ele>1859.800000</ele>
        <time>2015-08-05T14:35:07Z</time>
        <speed>6.080000</speed>
      </trkpt>
      <trkpt lat="46.040988390" lon="7.239162106">
        <ele>1858.400000</ele>
        <time>2015-08-05T14:35:08Z</time>
        <speed>6.350000</speed>
      </trkpt>
      <trkpt lat="46.041023343" lon="7.239118771">
        <ele>1857.000000</ele>
        <time>2015-08-05T14:35:09Z</time>
        <speed>4.823000</speed>
      </trkpt>
      <trkpt lat="46.041040023" lon="7.239064373">
        <ele>1855.600000</ele>
        <time>2015-08-05T14:35:10Z</time>
        <speed>5.532000</speed>
      </trkpt>
      <trkpt lat="46.041041280" lon="7.239003352">
        <ele>1854.600000</ele>
        <time>2015-08-05T14:35:11Z</time>
        <speed>5.770000</speed>
      </trkpt>
      <trkpt lat="46.041041448" lon="7.238951133">
        <ele>1853.600000</ele>
        <time>2015-08-05T14:35:12Z</time>
        <speed>5.273000</speed>
      </trkpt>
      <trkpt lat="46.041047818" lon="7.238892125">
        <ele>1852.600000</ele>
        <time>2015-08-05T14:35:13Z</time>
        <speed>4.389000</speed>
      </trkpt>
      <trkpt lat="46.041055110" lon="7.238818867">
        <ele>1851.600000</ele>
        <time>2015-08-05T14:35:14Z</time>
        <speed>4.856000</speed>
      </trkpt>
      <trkpt lat="46.041068605" lon="7.238751309">
        <ele>1850.800000</ele>
        <time>2015-08-05T14:35:15Z</time>
        <speed>5.393000</speed>
      </trkpt>
      <trkpt lat="46.041080424" lon="7.238702191">
        <ele>1850.000000</ele>
        <time>2015-08-05T14:35:16Z</time>
        <speed>5.734000</speed>
      </trkpt>
      <trkpt lat="46.041084866" lon="7.238671429">
        <ele>1849.200000</ele>
        <time>2015-08-05T14:35:17Z</time>
        <speed>0.000000</speed>
      </trkpt>
      <trkpt lat="46.041092494" lon="7.238634213">
        <ele>1848.400000</ele>
        <time>2015-08-05T14:35:18Z</time>
        <speed>3.924000</speed>
      </trkpt>
      <trkpt lat="46.041095846" lon="7.238615354">
        <ele>1847.400000</ele>
        <time>2015-08-05T14:35:19Z</time>
        <speed>0.000000</speed>
      </trkpt>
      <trkpt lat="46.041094589" lon="7.238591298">
        <ele>1847.000000</ele>
        <time>2015-08-05T14:35:20Z</time>
        <speed>1.596000</speed>
      </trkpt>
      <trkpt lat="46.041092410" lon="7.238578725">
        <ele>1846.600000</ele>
        <time>2015-08-05T14:35:21Z</time>
        <speed>0.000000</speed>
      </trkpt>
      <trkpt lat="46.041084447" lon="7.238550227">
        <ele>1846.200000</ele>
        <time>2015-08-05T14:35:22Z</time>
        <speed>1.310000</speed>
      </trkpt>
      <trkpt lat="46.041078663" lon="7.238516448">
        <ele>1845.200000</ele>
        <time>2015-08-05T14:35:23Z</time>
        <speed>1.822000</speed>
      </trkpt>
      <trkpt lat="46.041072293" lon="7.238471772">
        <ele>1844.800000</ele>
        <time>2015-08-05T14:35:24Z</time>
        <speed>1.973000</speed>
      </trkpt>
      <trkpt lat="46.041074808" lon="7.238431958">
        <ele>1844.200000</ele>
        <time>2015-08-05T14:35:25Z</time>
        <speed>2.555000</speed>
      </trkpt>
      <trkpt lat="46.041073634" lon="7.238409327">
        <ele>1843.400000</ele>
        <time>2015-08-05T14:35:26Z</time>
        <speed>2.531000</speed>
      </trkpt>
      <trkpt lat="46.041081346" lon="7.238389797">
        <ele>1842.800000</ele>
        <time>2015-08-05T14:35:27Z</time>
        <speed>3.267000</speed>
      </trkpt>
      <trkpt lat="46.041097020" lon="7.238369261">
        <ele>1842.000000</ele>
        <time>2015-08-05T14:35:28Z</time>
        <speed>2.832000</speed>
      </trkpt>
      <trkpt lat="46.041117555" lon="7.238347385">
        <ele>1841.200000</ele>
        <time>2015-08-05T14:35:29Z</time>
        <speed>3.553000</speed>
      </trkpt>
      <trkpt lat="46.041144126" lon="7.238330537">
        <ele>1840.400000</ele>
        <time>2015-08-05T14:35:30Z</time>
        <speed>4.697000</speed>
      </trkpt>
      <trkpt lat="46.041165584" lon="7.238314192">
        <ele>1839.600000</ele>
        <time>2015-08-05T14:35:31Z</time>
        <speed>5.074000</speed>
      </trkpt>
      <trkpt lat="46.041186539" lon="7.238301536">
        <ele>1838.800000</ele>
        <time>2015-08-05T14:35:32Z</time>
        <speed>6.331000</speed>
      </trkpt>
      <trkpt lat="46.041216127" lon="7.238277815">
        <ele>1837.800000</ele>
        <time>2015-08-05T14:35:33Z</time>
        <speed>3.746000</speed>
      </trkpt>
      <trkpt lat="46.041247391" lon="7.238256609">
        <ele>1837.000000</ele>
        <time>2015-08-05T14:35:34Z</time>
        <speed>3.369000</speed>
      </trkpt>
      <trkpt lat="46.041275890" lon="7.238238504">
        <ele>1836.200000</ele>
        <time>2015-08-05T14:35:35Z</time>
        <speed>3.412000</speed>
      </trkpt>
      <trkpt lat="46.041301957" lon="7.238220902">
        <ele>1835.400000</ele>
        <time>2015-08-05T14:35:36Z</time>
        <speed>3.707000</speed>
      </trkpt>
      <trkpt lat="46.041325594" lon="7.238201540">
        <ele>1834.600000</ele>
        <time>2015-08-05T14:35:37Z</time>
        <speed>2.932000</speed>
      </trkpt>
      <trkpt lat="46.041350069" lon="7.238188129">
        <ele>1834.000000</ele>
        <time>2015-08-05T14:35:38Z</time>
        <speed>2.873000</speed>
      </trkpt>
      <trkpt lat="46.041370857" lon="7.238168850">
        <ele>1833.000000</ele>
        <time>2015-08-05T14:35:39Z</time>
        <speed>2.791000</speed>
      </trkpt>
      <trkpt lat="46.041388207" lon="7.238142615">
        <ele>1832.200000</ele>
        <time>2015-08-05T14:35:40Z</time>
        <speed>2.881000</speed>
      </trkpt>
      <trkpt lat="46.041410000" lon="7.238124091">
        <ele>1831.400000</ele>
        <time>2015-08-05T14:35:41Z</time>
        <speed>2.881000</speed>
      </trkpt>
      <trkpt lat="46.041433050" lon="7.238101208">
        <ele>1830.800000</ele>
        <time>2015-08-05T14:35:42Z</time>
        <speed>2.824000</speed>
      </trkpt>
      <trkpt lat="46.041441935" lon="7.238070866">
        <ele>1830.000000</ele>
        <time>2015-08-05T14:35:43Z</time>
        <speed>2.752000</speed>
      </trkpt>
      <trkpt lat="46.041445875" lon="7.238042786">
        <ele>1829.200000</ele>
        <time>2015-08-05T14:35:44Z</time>
        <speed>2.540000</speed>
      </trkpt>
      <trkpt lat="46.041457693" lon="7.238021832">
        <ele>1828.400000</ele>
        <time>2015-08-05T14:35:45Z</time>
        <speed>2.809000</speed>
      </trkpt>
      <trkpt lat="46.041466326" lon="7.238007079">
        <ele>1827.800000</ele>
        <time>2015-08-05T14:35:46Z</time>
        <speed>1.891000</speed>
      </trkpt>
      <trkpt lat="46.041481917" lon="7.237994171">
        <ele>1827.200000</ele>
        <time>2015-08-05T14:35:47Z</time>
        <speed>1.317000</speed>
      </trkpt>
      <trkpt lat="46.041497842" lon="7.237981515">
        <ele>1825.800000</ele>
        <time>2015-08-05T14:35:48Z</time>
        <speed>1.317000</speed>
      </trkpt>
      <trkpt lat="46.041511421" lon="7.237961985">
        <ele>1825.200000</ele>
        <time>2015-08-05T14:35:49Z</time>
        <speed>1.694000</speed>
      </trkpt>
      <trkpt lat="46.041528185" lon="7.237930888">
        <ele>1824.600000</ele>
        <time>2015-08-05T14:35:50Z</time>
        <speed>2.341000</speed>
      </trkpt>
      <trkpt lat="46.041548804" lon="7.237910855">
        <ele>1824.200000</ele>
        <time>2015-08-05T14:35:51Z</time>
        <speed>2.372000</speed>
      </trkpt>
      <trkpt lat="46.041563557" lon="7.237887051">
        <ele>1823.600000</ele>
        <time>2015-08-05T14:35:52Z</time>
        <speed>2.372000</speed>
      </trkpt>
      <trkpt lat="46.041580069" lon="7.237860899">
        <ele>1823.000000</ele>
        <time>2015-08-05T14:35:53Z</time>
        <speed>2.858000</speed>
      </trkpt>
      <trkpt lat="46.041591468" lon="7.237834077">
        <ele>1822.400000</ele>
        <time>2015-08-05T14:35:54Z</time>
        <speed>2.828000</speed>
      </trkpt>
      <trkpt lat="46.041597336" lon="7.237802226">
        <ele>1821.800000</ele>
        <time>2015-08-05T14:35:55Z</time>
        <speed>2.510000</speed>
      </trkpt>
      <trkpt lat="46.041614016" lon="7.237786132">
        <ele>1821.000000</ele>
        <time>2015-08-05T14:35:56Z</time>
        <speed>2.528000</speed>
      </trkpt>
      <trkpt lat="46.041634551" lon="7.237765429">
        <ele>1820.200000</ele>
        <time>2015-08-05T14:35:57Z</time>
        <speed>3.267000</speed>
      </trkpt>
      <trkpt lat="46.041648130" lon="7.237734835">
        <ele>1819.400000</ele>
        <time>2015-08-05T14:35:58Z</time>
        <speed>2.136000</speed>
      </trkpt>
      <trkpt lat="46.041671096" lon="7.237704157">
        <ele>1818.600000</ele>
        <time>2015-08-05T14:35:59Z</time>
        <speed>2.136000</speed>
      </trkpt>
      <trkpt lat="46.041696242" lon="7.237683706">
        <ele>1818.000000</ele>
        <time>2015-08-05T14:36:00Z</time>
        <speed>3.826000</speed>
      </trkpt>
      <trkpt lat="46.041720466" lon="7.237655207">
        <ele>1817.000000</ele>
        <time>2015-08-05T14:36:01Z</time>
        <speed>3.694000</speed>
      </trkpt>
      <trkpt lat="46.041751395" lon="7.237644897">
        <ele>1816.200000</ele>
        <time>2015-08-05T14:36:02Z</time>
        <speed>3.429000</speed>
      </trkpt>
      <trkpt lat="46.041773942" lon="7.237634671">
        <ele>1815.200000</ele>
        <time>2015-08-05T14:36:03Z</time>
        <speed>4.276000</speed>
      </trkpt>
      <trkpt lat="46.041794981" lon="7.237624781">
        <ele>1814.400000</ele>
        <time>2015-08-05T14:36:04Z</time>
        <speed>3.490000</speed>
      </trkpt>
      <trkpt lat="46.041813840" lon="7.237609861">
        <ele>1813.600000</ele>
        <time>2015-08-05T14:36:05Z</time>
        <speed>2.981000</speed>
      </trkpt>
      <trkpt lat="46.041832867" lon="7.237592930">
        <ele>1812.800000</ele>
        <time>2015-08-05T14:36:06Z</time>
        <speed>3.019000</speed>
      </trkpt>
      <trkpt lat="46.041840746" lon="7.237556887">
        <ele>1812.000000</ele>
        <time>2015-08-05T14:36:07Z</time>
        <speed>2.977000</speed>
      </trkpt>
      <trkpt lat="46.041859102" lon="7.237519169">
        <ele>1811.200000</ele>
        <time>2015-08-05T14:36:08Z</time>
        <speed>2.078000</speed>
      </trkpt>
      <trkpt lat="46.041875028" lon="7.237481618">
        <ele>1810.400000</ele>
        <time>2015-08-05T14:36:09Z</time>
        <speed>2.078000</speed>
      </trkpt>
      <trkpt lat="46.041897408" lon="7.237442307">
        <ele>1809.400000</ele>
        <time>2015-08-05T14:36:10Z</time>
        <speed>3.364000</speed>
      </trkpt>
      <trkpt lat="46.041916686" lon="7.237414479">
        <ele>1808.600000</ele>
        <time>2015-08-05T14:36:11Z</time>
        <speed>3.364000</speed>
      </trkpt>
      <trkpt lat="46.041936132" lon="7.237389668">
        <ele>1807.600000</ele>
        <time>2015-08-05T14:36:12Z</time>
        <speed>3.364000</speed>
      </trkpt>
      <trkpt lat="46.041950549" lon="7.237355219">
        <ele>1805.600000</ele>
        <time>2015-08-05T14:36:13Z</time>
        <speed>3.124000</speed>
      </trkpt>
      <trkpt lat="46.041955494" lon="7.237328481">
        <ele>1804.800000</ele>
        <time>2015-08-05T14:36:14Z</time>
        <speed>0.000000</speed>
      </trkpt>
      <trkpt lat="46.041955243" lon="7.237293779">
        <ele>1803.800000</ele>
        <time>2015-08-05T14:36:15Z</time>
        <speed>2.828000</speed>
      </trkpt>
      <trkpt lat="46.041954069" lon="7.237276764">
        <ele>1803.000000</ele>
        <time>2015-08-05T14:36:16Z</time>
        <speed>2.422000</speed>
      </trkpt>
      <trkpt lat="46.041951722" lon="7.237245919">
        <ele>1802.000000</ele>
        <time>2015-08-05T14:36:17Z</time>
        <speed>1.997000</speed>
      </trkpt>
      <trkpt lat="46.041947699" lon="7.237214906">
        <ele>1801.200000</ele>
        <time>2015-08-05T14:36:18Z</time>
        <speed>2.066000</speed>
      </trkpt>
      <trkpt lat="46.041947615" lon="7.237185066">
        <ele>1800.400000</ele>
        <time>2015-08-05T14:36:19Z</time>
        <speed>2.072000</speed>
      </trkpt>
      <trkpt lat="46.041949376" lon="7.237156400">
        <ele>1799.600000</ele>
        <time>2015-08-05T14:36:20Z</time>
        <speed>2.348000</speed>
      </trkpt>
      <trkpt lat="46.041961194" lon="7.237129410">
        <ele>1798.800000</ele>
        <time>2015-08-05T14:36:21Z</time>
        <speed>2.108000</speed>
      </trkpt>
      <trkpt lat="46.041966056" lon="7.237105690">
        <ele>1797.800000</ele>
        <time>2015-08-05T14:36:22Z</time>
        <speed>2.510000</speed>
      </trkpt>
      <trkpt lat="46.041972426" lon="7.237081466">
        <ele>1797.200000</ele>
        <time>2015-08-05T14:36:23Z</time>
        <speed>3.152000</speed>
      </trkpt>
      <trkpt lat="46.041981478" lon="7.237058835">
        <ele>1796.600000</ele>
        <time>2015-08-05T14:36:24Z</time>
        <speed>2.271000</speed>
      </trkpt>
      <trkpt lat="46.041977706" lon="7.237038886">
        <ele>1796.000000</ele>
        <time>2015-08-05T14:36:25Z</time>
        <speed>2.286000</speed>
      </trkpt>
      <trkpt lat="46.041975108" lon="7.237014746">
        <ele>1795.200000</ele>
        <time>2015-08-05T14:36:26Z</time>
        <speed>2.096000</speed>
      </trkpt>
      <trkpt lat="46.041977706" lon="7.236980715">
        <ele>1794.600000</ele>
        <time>2015-08-05T14:36:27Z</time>
        <speed>2.138000</speed>
      </trkpt>
      <trkpt lat="46.041987932" lon="7.236955486">
        <ele>1793.800000</ele>
        <time>2015-08-05T14:36:28Z</time>
        <speed>2.824000</speed>
      </trkpt>
      <trkpt lat="46.042004361" lon="7.236919025">
        <ele>1793.000000</ele>
        <time>2015-08-05T14:36:29Z</time>
        <speed>2.283000</speed>
      </trkpt>
      <trkpt lat="46.042029507" lon="7.236897651">
        <ele>1792.200000</ele>
        <time>2015-08-05T14:36:30Z</time>
        <speed>2.858000</speed>
      </trkpt>
      <trkpt lat="46.042047611" lon="7.236875439">
        <ele>1791.600000</ele>
        <time>2015-08-05T14:36:31Z</time>
        <speed>3.644000</speed>
      </trkpt>
      <trkpt lat="46.042052808" lon="7.236847695">
        <ele>1790.800000</ele>
        <time>2015-08-05T14:36:32Z</time>
        <speed>2.720000</speed>
      </trkpt>
      <trkpt lat="46.042057334" lon="7.236822381">
        <ele>1790.000000</ele>
        <time>2015-08-05T14:36:33Z</time>
        <speed>0.000000</speed>
      </trkpt>
      <trkpt lat="46.042060268" lon="7.236787680">
        <ele>1789.200000</ele>
        <time>2015-08-05T14:36:34Z</time>
        <speed>0.000000</speed>
      </trkpt>
      <trkpt lat="46.042062447" lon="7.236749040">
        <ele>1788.600000</ele>
        <time>2015-08-05T14:36:35Z</time>
        <speed>2.527000</speed>
      </trkpt>
      <trkpt lat="46.042067896" lon="7.236720290">
        <ele>1787.800000</ele>
        <time>2015-08-05T14:36:36Z</time>
        <speed>2.213000</speed>
      </trkpt>
      <trkpt lat="46.042071165" lon="7.236691624">
        <ele>1787.000000</ele>
        <time>2015-08-05T14:36:37Z</time>
        <speed>13.008000</speed>
      </trkpt>
      <trkpt lat="46.042078624" lon="7.236674105">
        <ele>1785.600000</ele>
        <time>2015-08-05T14:36:38Z</time>
        <speed>0.000000</speed>
      </trkpt>
      <trkpt lat="46.042081474" lon="7.236633369">
        <ele>1785.000000</ele>
        <time>2015-08-05T14:36:39Z</time>
        <speed>1.738000</speed>
      </trkpt>
      <trkpt lat="46.042087006" lon="7.236613672">
        <ele>1784.200000</ele>
        <time>2015-08-05T14:36:40Z</time>
        <speed>0.000000</speed>
      </trkpt>
      <trkpt lat="46.042096394" lon="7.236577043">
        <ele>1783.400000</ele>
        <time>2015-08-05T14:36:41Z</time>
        <speed>2.928000</speed>
      </trkpt>
      <trkpt lat="46.042100753" lon="7.236545359">
        <ele>1782.800000</ele>
        <time>2015-08-05T14:36:42Z</time>
        <speed>2.791000</speed>
      </trkpt>
      <trkpt lat="46.042110979" lon="7.236529853">
        <ele>1781.800000</ele>
        <time>2015-08-05T14:36:43Z</time>
        <speed>2.791000</speed>
      </trkpt>
      <trkpt lat="46.042119528" lon="7.236526668">
        <ele>1781.000000</ele>
        <time>2015-08-05T14:36:44Z</time>
        <speed>2.791000</speed>
      </trkpt>
      <trkpt lat="46.042123552" lon="7.236529685">
        <ele>1780.200000</ele>
        <time>2015-08-05T14:36:45Z</time>
        <speed>2.791000</speed>
      </trkpt>
      <trkpt lat="46.042124054" lon="7.236528847">
        <ele>1779.400000</ele>
        <time>2015-08-05T14:36:46Z</time>
        <speed>0.000000</speed>
      </trkpt>
      <trkpt lat="46.042117600" lon="7.236513005">
        <ele>1778.400000</ele>
        <time>2015-08-05T14:36:47Z</time>
        <speed>0.000000</speed>
      </trkpt>
      <trkpt lat="46.042096562" lon="7.236494062">
        <ele>1778.000000</ele>
        <time>2015-08-05T14:36:51Z</time>
        <speed>3.142000</speed>
      </trkpt>
      <trkpt lat="46.042092790" lon="7.236477885">
        <ele>1777.600000</ele>
        <time>2015-08-05T14:36:52Z</time>
        <speed>2.567000</speed>
      </trkpt>
      <trkpt lat="46.042092706" lon="7.236473946">
        <ele>1777.200000</ele>
        <time>2015-08-05T14:36:53Z</time>
        <speed>2.567000</speed>
      </trkpt>
      <trkpt lat="46.042093460" lon="7.236474365">
        <ele>1776.800000</ele>
        <time>2015-08-05T14:36:54Z</time>
        <speed>0.000000</speed>
      </trkpt>
      <trkpt lat="46.042093460" lon="7.236474365">
        <ele>1776.400000</ele>
        <time>2015-08-05T14:36:55Z</time>
        <speed>0.000000</speed>
      </trkpt>
      <trkpt lat="46.042098741" lon="7.236453242">
        <ele>1776.400000</ele>
        <time>2015-08-05T14:36:56Z</time>
        <speed>0.000000</speed>
      </trkpt>
      <trkpt lat="46.042089856" lon="7.236394569">
        <ele>1776.000000</ele>
        <time>2015-08-05T14:36:58Z</time>
        <speed>0.000000</speed>
      </trkpt>
      <trkpt lat="46.042085246" lon="7.236366490">
        <ele>1775.400000</ele>
        <time>2015-08-05T14:36:59Z</time>
        <speed>2.060000</speed>
      </trkpt>
      <trkpt lat="46.042093712" lon="7.236351570">
        <ele>1774.800000</ele>
        <time>2015-08-05T14:37:00Z</time>
        <speed>2.060000</speed>
      </trkpt>
      <trkpt lat="46.042103351" lon="7.236342769">
        <ele>1774.400000</ele>
        <time>2015-08-05T14:37:01Z</time>
        <speed>1.338000</speed>
      </trkpt>
      <trkpt lat="46.042109386" lon="7.236330364">
        <ele>1773.000000</ele>
        <time>2015-08-05T14:37:02Z</time>
        <speed>2.100000</speed>
      </trkpt>
      <trkpt lat="46.042129838" lon="7.236315360">
        <ele>1772.400000</ele>
        <time>2015-08-05T14:37:03Z</time>
        <speed>2.359000</speed>
      </trkpt>
      <trkpt lat="46.042148865" lon="7.236315528">
        <ele>1771.800000</ele>
        <time>2015-08-05T14:37:04Z</time>
        <speed>2.522000</speed>
      </trkpt>
      <trkpt lat="46.042158588" lon="7.236311337">
        <ele>1771.000000</ele>
        <time>2015-08-05T14:37:05Z</time>
        <speed>2.522000</speed>
      </trkpt>
      <trkpt lat="46.042173675" lon="7.236295830">
        <ele>1770.400000</ele>
        <time>2015-08-05T14:37:06Z</time>
        <speed>2.288000</speed>
      </trkpt>
      <trkpt lat="46.042187422" lon="7.236273702">
        <ele>1769.800000</ele>
        <time>2015-08-05T14:37:07Z</time>
        <speed>2.190000</speed>
      </trkpt>
      <trkpt lat="46.042215082" lon="7.236248891">
        <ele>1769.000000</ele>
        <time>2015-08-05T14:37:08Z</time>
        <speed>2.504000</speed>
      </trkpt>
      <trkpt lat="46.042245508" lon="7.236247299">
        <ele>1768.200000</ele>
        <time>2015-08-05T14:37:09Z</time>
        <speed>2.504000</speed>
      </trkpt>
      <trkpt lat="46.042276773" lon="7.236247550">
        <ele>1767.400000</ele>
        <time>2015-08-05T14:37:10Z</time>
        <speed>2.504000</speed>
      </trkpt>
      <trkpt lat="46.042302757" lon="7.236235732">
        <ele>1766.600000</ele>
        <time>2015-08-05T14:37:11Z</time>
        <speed>3.656000</speed>
      </trkpt>
      <trkpt lat="46.042325220" lon="7.236231038">
        <ele>1765.800000</ele>
        <time>2015-08-05T14:37:12Z</time>
        <speed>3.626000</speed>
      </trkpt>
      <trkpt lat="46.042344750" lon="7.236218968">
        <ele>1764.800000</ele>
        <time>2015-08-05T14:37:13Z</time>
        <speed>2.932000</speed>
      </trkpt>
      <trkpt lat="46.042366962" lon="7.236204216">
        <ele>1764.000000</ele>
        <time>2015-08-05T14:37:14Z</time>
        <speed>2.359000</speed>
      </trkpt>
      <trkpt lat="46.042386408" lon="7.236181585">
        <ele>1763.200000</ele>
        <time>2015-08-05T14:37:15Z</time>
        <speed>2.377000</speed>
      </trkpt>
      <trkpt lat="46.042395041" lon="7.236158115">
        <ele>1762.600000</ele>
        <time>2015-08-05T14:37:16Z</time>
        <speed>1.828000</speed>
      </trkpt>
      <trkpt lat="46.042411805" lon="7.236133389">
        <ele>1762.000000</ele>
        <time>2015-08-05T14:37:17Z</time>
        <speed>1.828000</speed>
      </trkpt>
      <trkpt lat="46.042428569" lon="7.236108662">
        <ele>1761.400000</ele>
        <time>2015-08-05T14:37:18Z</time>
        <speed>2.325000</speed>
      </trkpt>
      <trkpt lat="46.042444578" lon="7.236077984">
        <ele>1760.600000</ele>
        <time>2015-08-05T14:37:19Z</time>
        <speed>2.924000</speed>
      </trkpt>
      <trkpt lat="46.042456565" lon="7.236058706">
        <ele>1760.000000</ele>
        <time>2015-08-05T14:37:20Z</time>
        <speed>2.589000</speed>
      </trkpt>
      <trkpt lat="46.042475591" lon="7.236059209">
        <ele>1759.400000</ele>
        <time>2015-08-05T14:37:21Z</time>
        <speed>1.991000</speed>
      </trkpt>
      <trkpt lat="46.042489505" lon="7.236063148">
        <ele>1758.800000</ele>
        <time>2015-08-05T14:37:22Z</time>
        <speed>1.991000</speed>
      </trkpt>
      <trkpt lat="46.042504425" lon="7.236083097">
        <ele>1758.000000</ele>
        <time>2015-08-05T14:37:23Z</time>
        <speed>1.991000</speed>
      </trkpt>
      <trkpt lat="46.042521357" lon="7.236093994">
        <ele>1757.400000</ele>
        <time>2015-08-05T14:37:24Z</time>
        <speed>1.655000</speed>
      </trkpt>
      <trkpt lat="46.042536444" lon="7.236084271">
        <ele>1756.800000</ele>
        <time>2015-08-05T14:37:25Z</time>
        <speed>2.148000</speed>
      </trkpt>
      <trkpt lat="46.042546670" lon="7.236068178">
        <ele>1756.200000</ele>
        <time>2015-08-05T14:37:26Z</time>
        <speed>2.148000</speed>
      </trkpt>
      <trkpt lat="46.042561841" lon="7.236033057">
        <ele>1755.000000</ele>
        <time>2015-08-05T14:37:27Z</time>
        <speed>2.148000</speed>
      </trkpt>
      <trkpt lat="46.042585981" lon="7.236002128">
        <ele>1754.600000</ele>
        <time>2015-08-05T14:37:28Z</time>
        <speed>1.735000</speed>
      </trkpt>
      <trkpt lat="46.042607523" lon="7.235988047">
        <ele>1754.000000</ele>
        <time>2015-08-05T14:37:29Z</time>
        <speed>2.510000</speed>
      </trkpt>
      <trkpt lat="46.042627555" lon="7.235993830">
        <ele>1753.400000</ele>
        <time>2015-08-05T14:37:30Z</time>
        <speed>2.843000</speed>
      </trkpt>
      <trkpt lat="46.042637111" lon="7.236007157">
        <ele>1752.800000</ele>
        <time>2015-08-05T14:37:31Z</time>
        <speed>2.843000</speed>
      </trkpt>
      <trkpt lat="46.042642727" lon="7.236019730">
        <ele>1752.200000</ele>
        <time>2015-08-05T14:37:32Z</time>
        <speed>0.000000</speed>
      </trkpt>
      <trkpt lat="46.042653204" lon="7.236023586">
        <ele>1751.600000</ele>
        <time>2015-08-05T14:37:33Z</time>
        <speed>1.319000</speed>
      </trkpt>
      <trkpt lat="46.042664436" lon="7.236010259">
        <ele>1751.000000</ele>
        <time>2015-08-05T14:37:34Z</time>
        <speed>1.698000</speed>
      </trkpt>
      <trkpt lat="46.042674745" lon="7.235993998">
        <ele>1750.600000</ele>
        <time>2015-08-05T14:37:35Z</time>
        <speed>1.698000</speed>
      </trkpt>
      <trkpt lat="46.042684217" lon="7.235977485">
        <ele>1750.000000</ele>
        <time>2015-08-05T14:37:36Z</time>
        <speed>1.418000</speed>
      </trkpt>
      <trkpt lat="46.042694778" lon="7.235945131">
        <ele>1749.600000</ele>
        <time>2015-08-05T14:37:37Z</time>
        <speed>2.507000</speed>
      </trkpt>
      <trkpt lat="46.042707938" lon="7.235903892">
        <ele>1749.000000</ele>
        <time>2015-08-05T14:37:38Z</time>
        <speed>2.281000</speed>
      </trkpt>
      <trkpt lat="46.042714308" lon="7.235868102">
        <ele>1748.600000</ele>
        <time>2015-08-05T14:37:39Z</time>
        <speed>2.372000</speed>
      </trkpt>
      <trkpt lat="46.042724869" lon="7.235846309">
        <ele>1748.200000</ele>
        <time>2015-08-05T14:37:40Z</time>
        <speed>2.372000</speed>
      </trkpt>
      <trkpt lat="46.042742136" lon="7.235838513">
        <ele>1747.800000</ele>
        <time>2015-08-05T14:37:41Z</time>
        <speed>2.372000</speed>
      </trkpt>
      <trkpt lat="46.042758648" lon="7.235827952">
        <ele>1747.200000</ele>
        <time>2015-08-05T14:37:42Z</time>
        <speed>15.899000</speed>
      </trkpt>
      <trkpt lat="46.042764599" lon="7.235817559">
        <ele>1746.600000</ele>
        <time>2015-08-05T14:37:43Z</time>
        <speed>0.000000</speed>
      </trkpt>
      <trkpt lat="46.042763929" lon="7.235788725">
        <ele>1745.800000</ele>
        <time>2015-08-05T14:37:44Z</time>
        <speed>2.630000</speed>
      </trkpt>
      <trkpt lat="46.042763342" lon="7.235769866">
        <ele>1745.200000</ele>
        <time>2015-08-05T14:37:45Z</time>
        <speed>3.359000</speed>
      </trkpt>
      <trkpt lat="46.042750769" lon="7.235748408">
        <ele>1744.600000</ele>
        <time>2015-08-05T14:37:46Z</time>
        <speed>2.356000</speed>
      </trkpt>
      <trkpt lat="46.042743729" lon="7.235733656">
        <ele>1743.800000</ele>
        <time>2015-08-05T14:37:47Z</time>
        <speed>0.000000</speed>
      </trkpt>
      <trkpt lat="46.042736604" lon="7.235714042">
        <ele>1743.200000</ele>
        <time>2015-08-05T14:37:48Z</time>
        <speed>0.000000</speed>
      </trkpt>
      <trkpt lat="46.042732329" lon="7.235666098">
        <ele>1742.600000</ele>
        <time>2015-08-05T14:37:49Z</time>
        <speed>1.597000</speed>
      </trkpt>
      <trkpt lat="46.042733586" lon="7.235639443">
        <ele>1742.000000</ele>
        <time>2015-08-05T14:37:50Z</time>
        <speed>2.504000</speed>
      </trkpt>
      <trkpt lat="46.042719756" lon="7.235617231">
        <ele>1741.600000</ele>
        <time>2015-08-05T14:37:51Z</time>
        <speed>3.093000</speed>
      </trkpt>
      <trkpt lat="46.042708776" lon="7.235603066">
        <ele>1740.200000</ele>
        <time>2015-08-05T14:37:52Z</time>
        <speed>2.707000</speed>
      </trkpt>
      <trkpt lat="46.042693521" lon="7.235570544">
        <ele>1739.200000</ele>
        <time>2015-08-05T14:37:53Z</time>
        <speed>2.707000</speed>
      </trkpt>
      <trkpt lat="46.042671141" lon="7.235537100">
        <ele>1738.400000</ele>
        <time>2015-08-05T14:37:54Z</time>
        <speed>3.917000</speed>
      </trkpt>
      <trkpt lat="46.042654294" lon="7.235505165">
        <ele>1737.600000</ele>
        <time>2015-08-05T14:37:55Z</time>
        <speed>3.559000</speed>
      </trkpt>
      <trkpt lat="46.042649348" lon="7.235478092">
        <ele>1736.800000</ele>
        <time>2015-08-05T14:37:56Z</time>
        <speed>3.819000</speed>
      </trkpt>
      <trkpt lat="46.042653120" lon="7.235466944">
        <ele>1736.000000</ele>
        <time>2015-08-05T14:37:57Z</time>
        <speed>0.000000</speed>
      </trkpt>
      <trkpt lat="46.042654964" lon="7.235443810">
        <ele>1735.200000</ele>
        <time>2015-08-05T14:37:58Z</time>
        <speed>0.000000</speed>
      </trkpt>
      <trkpt lat="46.042637362" lon="7.235393267">
        <ele>1734.400000</ele>
        <time>2015-08-05T14:37:59Z</time>
        <speed>2.134000</speed>
      </trkpt>
      <trkpt lat="46.042613977" lon="7.235351106">
        <ele>1733.800000</ele>
        <time>2015-08-05T14:38:00Z</time>
        <speed>2.134000</speed>
      </trkpt>
      <trkpt lat="46.042607439" lon="7.235316991">
        <ele>1733.000000</ele>
        <time>2015-08-05T14:38:01Z</time>
        <speed>2.134000</speed>
      </trkpt>
      <trkpt lat="46.042615485" lon="7.235298216">
        <ele>1732.200000</ele>
        <time>2015-08-05T14:38:02Z</time>
        <speed>2.595000</speed>
      </trkpt>
      <trkpt lat="46.042641637" lon="7.235266113">
        <ele>1731.400000</ele>
        <time>2015-08-05T14:38:03Z</time>
        <speed>2.873000</speed>
      </trkpt>
      <trkpt lat="46.042669381" lon="7.235225377">
        <ele>1730.600000</ele>
        <time>2015-08-05T14:38:04Z</time>
        <speed>2.817000</speed>
      </trkpt>
      <trkpt lat="46.042692347" lon="7.235187910">
        <ele>1729.800000</ele>
        <time>2015-08-05T14:38:05Z</time>
        <speed>3.317000</speed>
      </trkpt>
      <trkpt lat="46.042711291" lon="7.235179025">
        <ele>1729.200000</ele>
        <time>2015-08-05T14:38:06Z</time>
        <speed>3.142000</speed>
      </trkpt>
      <trkpt lat="46.042731239" lon="7.235175840">
        <ele>1728.400000</ele>
        <time>2015-08-05T14:38:07Z</time>
        <speed>3.396000</speed>
      </trkpt>
      <trkpt lat="46.042756469" lon="7.235162681">
        <ele>1727.600000</ele>
        <time>2015-08-05T14:38:08Z</time>
        <speed>3.257000</speed>
      </trkpt>
      <trkpt lat="46.042780190" lon="7.235143067">
        <ele>1726.800000</ele>
        <time>2015-08-05T14:38:09Z</time>
        <speed>2.766000</speed>
      </trkpt>
      <trkpt lat="46.042803827" lon="7.235133512">
        <ele>1726.000000</ele>
        <time>2015-08-05T14:38:10Z</time>
        <speed>2.534000</speed>
      </trkpt>
      <trkpt lat="46.042821848" lon="7.235105516">
        <ele>1725.400000</ele>
        <time>2015-08-05T14:38:11Z</time>
        <speed>2.589000</speed>
      </trkpt>
      <trkpt lat="46.042834588" lon="7.235068887">
        <ele>1724.600000</ele>
        <time>2015-08-05T14:38:12Z</time>
        <speed>2.985000</speed>
      </trkpt>
      <trkpt lat="46.042833499" lon="7.235032677">
        <ele>1723.800000</ele>
        <time>2015-08-05T14:38:13Z</time>
        <speed>2.985000</speed>
      </trkpt>
      <trkpt lat="46.042828050" lon="7.235010381">
        <ele>1723.000000</ele>
        <time>2015-08-05T14:38:14Z</time>
        <speed>0.000000</speed>
      </trkpt>
      <trkpt lat="46.042832325" lon="7.234963778">
        <ele>1722.200000</ele>
        <time>2015-08-05T14:38:15Z</time>
        <speed>2.084000</speed>
      </trkpt>
      <trkpt lat="46.042851771" lon="7.234947517">
        <ele>1721.200000</ele>
        <time>2015-08-05T14:38:16Z</time>
        <speed>2.094000</speed>
      </trkpt>
      <trkpt lat="46.042871385" lon="7.234929999">
        <ele>1719.600000</ele>
        <time>2015-08-05T14:38:17Z</time>
        <speed>2.484000</speed>
      </trkpt>
      <trkpt lat="46.042881024" lon="7.234897812">
        <ele>1718.800000</ele>
        <time>2015-08-05T14:38:18Z</time>
        <speed>2.881000</speed>
      </trkpt>
      <trkpt lat="46.042875073" lon="7.234872164">
        <ele>1718.000000</ele>
        <time>2015-08-05T14:38:19Z</time>
        <speed>2.881000</speed>
      </trkpt>
      <trkpt lat="46.042863506" lon="7.234852969">
        <ele>1717.200000</ele>
        <time>2015-08-05T14:38:20Z</time>
        <speed>2.881000</speed>
      </trkpt>
      <trkpt lat="46.042849508" lon="7.234829835">
        <ele>1716.200000</ele>
        <time>2015-08-05T14:38:21Z</time>
        <speed>3.133000</speed>
      </trkpt>
      <trkpt lat="46.042837606" lon="7.234799157">
        <ele>1715.400000</ele>
        <time>2015-08-05T14:38:22Z</time>
        <speed>3.553000</speed>
      </trkpt>
      <trkpt lat="46.042842300" lon="7.234781891">
        <ele>1714.800000</ele>
        <time>2015-08-05T14:38:23Z</time>
        <speed>0.000000</speed>
      </trkpt>
      <trkpt lat="46.042865853" lon="7.234754482">
        <ele>1714.000000</ele>
        <time>2015-08-05T14:38:24Z</time>
        <speed>3.006000</speed>
      </trkpt>
      <trkpt lat="46.042877504" lon="7.234727408">
        <ele>1713.400000</ele>
        <time>2015-08-05T14:38:25Z</time>
        <speed>2.281000</speed>
      </trkpt>
      <trkpt lat="46.042884377" lon="7.234709639">
        <ele>1712.800000</ele>
        <time>2015-08-05T14:38:26Z</time>
        <speed>2.252000</speed>
      </trkpt>
      <trkpt lat="46.042893094" lon="7.234697066">
        <ele>1712.000000</ele>
        <time>2015-08-05T14:38:27Z</time>
        <speed>2.252000</speed>
      </trkpt>
      <trkpt lat="46.042911702" lon="7.234669154">
        <ele>1711.400000</ele>
        <time>2015-08-05T14:38:28Z</time>
        <speed>1.732000</speed>
      </trkpt>
      <trkpt lat="46.042926119" lon="7.234652893">
        <ele>1710.600000</ele>
        <time>2015-08-05T14:38:29Z</time>
        <speed>2.042000</speed>
      </trkpt>
      <trkpt lat="46.042939362" lon="7.234641997">
        <ele>1710.000000</ele>
        <time>2015-08-05T14:38:30Z</time>
        <speed>2.627000</speed>
      </trkpt>
      <trkpt lat="46.042937602" lon="7.234619366">
        <ele>1709.200000</ele>
        <time>2015-08-05T14:38:31Z</time>
        <speed>2.172000</speed>
      </trkpt>
      <trkpt lat="46.042936764" lon="7.234604362">
        <ele>1708.600000</ele>
        <time>2015-08-05T14:38:32Z</time>
        <speed>1.906000</speed>
      </trkpt>
      <trkpt lat="46.042936596" lon="7.234575864">
        <ele>1707.800000</ele>
        <time>2015-08-05T14:38:33Z</time>
        <speed>1.752000</speed>
      </trkpt>
      <trkpt lat="46.042934333" lon="7.234544180">
        <ele>1707.400000</ele>
        <time>2015-08-05T14:38:34Z</time>
        <speed>2.233000</speed>
      </trkpt>
      <trkpt lat="46.042931902" lon="7.234507132">
        <ele>1707.000000</ele>
        <time>2015-08-05T14:38:35Z</time>
        <speed>2.653000</speed>
      </trkpt>
      <trkpt lat="46.042928466" lon="7.234479807">
        <ele>1706.400000</ele>
        <time>2015-08-05T14:38:36Z</time>
        <speed>2.877000</speed>
      </trkpt>
      <trkpt lat="46.042938692" lon="7.234454242">
        <ele>1705.800000</ele>
        <time>2015-08-05T14:38:37Z</time>
        <speed>2.487000</speed>
      </trkpt>
      <trkpt lat="46.042956294" lon="7.234440077">
        <ele>1705.200000</ele>
        <time>2015-08-05T14:38:38Z</time>
        <speed>1.778000</speed>
      </trkpt>
      <trkpt lat="46.042965597" lon="7.234419960">
        <ele>1704.600000</ele>
        <time>2015-08-05T14:38:39Z</time>
        <speed>2.673000</speed>
      </trkpt>
      <trkpt lat="46.042976243" lon="7.234399341">
        <ele>1703.200000</ele>
        <time>2015-08-05T14:38:40Z</time>
        <speed>2.374000</speed>
      </trkpt>
      <trkpt lat="46.042983702" lon="7.234375620">
        <ele>1702.600000</ele>
        <time>2015-08-05T14:38:41Z</time>
        <speed>2.442000</speed>
      </trkpt>
      <trkpt lat="46.042983702" lon="7.234356844">
        <ele>1701.800000</ele>
        <time>2015-08-05T14:38:42Z</time>
        <speed>2.341000</speed>
      </trkpt>
      <trkpt lat="46.042971549" lon="7.234328095">
        <ele>1701.200000</ele>
        <time>2015-08-05T14:38:43Z</time>
        <speed>2.341000</speed>
      </trkpt>
      <trkpt lat="46.042971884" lon="7.234305296">
        <ele>1700.600000</ele>
        <time>2015-08-05T14:38:44Z</time>
        <speed>1.550000</speed>
      </trkpt>
      <trkpt lat="46.042969202" lon="7.234284844">
        <ele>1699.800000</ele>
        <time>2015-08-05T14:38:45Z</time>
        <speed>0.000000</speed>
      </trkpt>
      <trkpt lat="46.042979344" lon="7.234250059">
        <ele>1699.200000</ele>
        <time>2015-08-05T14:38:46Z</time>
        <speed>0.000000</speed>
      </trkpt>
      <trkpt lat="46.042997784" lon="7.234222818">
        <ele>1698.600000</ele>
        <time>2015-08-05T14:38:47Z</time>
        <speed>0.000000</speed>
      </trkpt>
      <trkpt lat="46.043020583" lon="7.234215274">
        <ele>1697.800000</ele>
        <time>2015-08-05T14:38:48Z</time>
        <speed>2.353000</speed>
      </trkpt>
      <trkpt lat="46.043038185" lon="7.234222231">
        <ele>1697.200000</ele>
        <time>2015-08-05T14:38:49Z</time>
        <speed>2.866000</speed>
      </trkpt>
      <trkpt lat="46.043065761" lon="7.234221393">
        <ele>1696.400000</ele>
        <time>2015-08-05T14:38:50Z</time>
        <speed>2.595000</speed>
      </trkpt>
      <trkpt lat="46.043098199" lon="7.234220806">
        <ele>1695.800000</ele>
        <time>2015-08-05T14:38:51Z</time>
        <speed>4.104000</speed>
      </trkpt>
      <trkpt lat="46.043130889" lon="7.234225081">
        <ele>1695.000000</ele>
        <time>2015-08-05T14:38:52Z</time>
        <speed>3.895000</speed>
      </trkpt>
      <trkpt lat="46.043163410" lon="7.234227595">
        <ele>1694.200000</ele>
        <time>2015-08-05T14:38:53Z</time>
        <speed>3.895000</speed>
      </trkpt>
      <trkpt lat="46.043201883" lon="7.234224578">
        <ele>1693.600000</ele>
        <time>2015-08-05T14:38:54Z</time>
        <speed>2.904000</speed>
      </trkpt>
      <trkpt lat="46.043237423" lon="7.234204378">
        <ele>1692.800000</ele>
        <time>2015-08-05T14:38:55Z</time>
        <speed>3.189000</speed>
      </trkpt>
      <trkpt lat="46.043259970" lon="7.234185183">
        <ele>1692.000000</ele>
        <time>2015-08-05T14:38:56Z</time>
        <speed>3.542000</speed>
      </trkpt>
      <trkpt lat="46.043286289" lon="7.234193314">
        <ele>1691.200000</ele>
        <time>2015-08-05T14:38:57Z</time>
        <speed>3.412000</speed>
      </trkpt>
      <trkpt lat="46.043305987" lon="7.234198426">
        <ele>1690.400000</ele>
        <time>2015-08-05T14:38:58Z</time>
        <speed>3.412000</speed>
      </trkpt>
      <trkpt lat="46.043318140" lon="7.234186776">
        <ele>1689.400000</ele>
        <time>2015-08-05T14:38:59Z</time>
        <speed>6.221000</speed>
      </trkpt>
      <trkpt lat="46.043324594" lon="7.234169844">
        <ele>1688.600000</ele>
        <time>2015-08-05T14:39:00Z</time>
        <speed>6.221000</speed>
      </trkpt>
      <trkpt lat="46.043329791" lon="7.234131120">
        <ele>1687.600000</ele>
        <time>2015-08-05T14:39:01Z</time>
        <speed>6.221000</speed>
      </trkpt>
      <trkpt lat="46.043321325" lon="7.234080577">
        <ele>1687.000000</ele>
        <time>2015-08-05T14:39:02Z</time>
        <speed>2.643000</speed>
      </trkpt>
      <trkpt lat="46.043314536" lon="7.234011007">
        <ele>1686.200000</ele>
        <time>2015-08-05T14:39:03Z</time>
        <speed>4.547000</speed>
      </trkpt>
      <trkpt lat="46.043316380" lon="7.233936073">
        <ele>1685.600000</ele>
        <time>2015-08-05T14:39:04Z</time>
        <speed>4.557000</speed>
      </trkpt>
      <trkpt lat="46.043318895" lon="7.233881591">
        <ele>1684.000000</ele>
        <time>2015-08-05T14:39:05Z</time>
        <speed>5.379000</speed>
      </trkpt>
      <trkpt lat="46.043316715" lon="7.233841609">
        <ele>1683.200000</ele>
        <time>2015-08-05T14:39:06Z</time>
        <speed>5.723000</speed>
      </trkpt>
      <trkpt lat="46.043318727" lon="7.233810847">
        <ele>1682.600000</ele>
        <time>2015-08-05T14:39:07Z</time>
        <speed>3.607000</speed>
      </trkpt>
      <trkpt lat="46.043329540" lon="7.233792072">
        <ele>1682.000000</ele>
        <time>2015-08-05T14:39:08Z</time>
        <speed>3.607000</speed>
      </trkpt>
      <trkpt lat="46.043335239" lon="7.233775057">
        <ele>1681.400000</ele>
        <time>2015-08-05T14:39:09Z</time>
        <speed>2.904000</speed>
      </trkpt>
      <trkpt lat="46.043346806" lon="7.233768435">
        <ele>1680.600000</ele>
        <time>2015-08-05T14:39:10Z</time>
        <speed>2.989000</speed>
      </trkpt>
      <trkpt lat="46.043365330" lon="7.233763741">
        <ele>1680.000000</ele>
        <time>2015-08-05T14:39:11Z</time>
        <speed>2.839000</speed>
      </trkpt>
      <trkpt lat="46.043386034" lon="7.233762232">
        <ele>1679.400000</ele>
        <time>2015-08-05T14:39:12Z</time>
        <speed>3.002000</speed>
      </trkpt>
      <trkpt lat="46.043407072" lon="7.233753012">
        <ele>1678.600000</ele>
        <time>2015-08-05T14:39:13Z</time>
        <speed>2.900000</speed>
      </trkpt>
      <trkpt lat="46.043427440" lon="7.233735494">
        <ele>1677.800000</ele>
        <time>2015-08-05T14:39:14Z</time>
        <speed>3.644000</speed>
      </trkpt>
      <trkpt lat="46.043452838" lon="7.233721580">
        <ele>1676.800000</ele>
        <time>2015-08-05T14:39:15Z</time>
        <speed>3.161000</speed>
      </trkpt>
      <trkpt lat="46.043478402" lon="7.233715964">
        <ele>1676.000000</ele>
        <time>2015-08-05T14:39:16Z</time>
        <speed>3.044000</speed>
      </trkpt>
      <trkpt lat="46.043502039" lon="7.233703559">
        <ele>1675.200000</ele>
        <time>2015-08-05T14:39:17Z</time>
        <speed>3.049000</speed>
      </trkpt>
      <trkpt lat="46.043527436" lon="7.233706157">
        <ele>1674.200000</ele>
        <time>2015-08-05T14:39:18Z</time>
        <speed>3.170000</speed>
      </trkpt>
      <trkpt lat="46.043556773" lon="7.233710935">
        <ele>1673.000000</ele>
        <time>2015-08-05T14:39:19Z</time>
        <speed>5.406000</speed>
      </trkpt>
      <trkpt lat="46.043598264" lon="7.233770279">
        <ele>1672.000000</ele>
        <time>2015-08-05T14:39:20Z</time>
        <speed>6.132000</speed>
      </trkpt>
      <trkpt lat="46.043627013" lon="7.233817218">
        <ele>1670.800000</ele>
        <time>2015-08-05T14:39:21Z</time>
        <speed>5.633000</speed>
      </trkpt>
      <trkpt lat="46.043654171" lon="7.233871197">
        <ele>1669.800000</ele>
        <time>2015-08-05T14:39:22Z</time>
        <speed>5.074000</speed>
      </trkpt>
      <trkpt lat="46.043687950" lon="7.233918806">
        <ele>1668.600000</ele>
        <time>2015-08-05T14:39:23Z</time>
        <speed>4.412000</speed>
      </trkpt>
      <trkpt lat="46.043707815" lon="7.233969936">
        <ele>1667.800000</ele>
        <time>2015-08-05T14:39:24Z</time>
        <speed>3.945000</speed>
      </trkpt>
      <trkpt lat="46.043730865" lon="7.234023664">
        <ele>1666.800000</ele>
        <time>2015-08-05T14:39:25Z</time>
        <speed>5.159000</speed>
      </trkpt>
      <trkpt lat="46.043741091" lon="7.234073117">
        <ele>1665.800000</ele>
        <time>2015-08-05T14:39:26Z</time>
        <speed>5.147000</speed>
      </trkpt>
      <trkpt lat="46.043757101" lon="7.234116032">
        <ele>1665.000000</ele>
        <time>2015-08-05T14:39:27Z</time>
        <speed>4.528000</speed>
      </trkpt>
      <trkpt lat="46.043778223" lon="7.234140508">
        <ele>1664.200000</ele>
        <time>2015-08-05T14:39:28Z</time>
        <speed>3.826000</speed>
      </trkpt>
      <trkpt lat="46.043795825" lon="7.234160121">
        <ele>1663.600000</ele>
        <time>2015-08-05T14:39:29Z</time>
        <speed>3.826000</speed>
      </trkpt>
      <trkpt lat="46.043810661" lon="7.234178729">
        <ele>1662.000000</ele>
        <time>2015-08-05T14:39:30Z</time>
        <speed>0.000000</speed>
      </trkpt>
      <trkpt lat="46.043833208" lon="7.234226003">
        <ele>1661.400000</ele>
        <time>2015-08-05T14:39:31Z</time>
        <speed>2.262000</speed>
      </trkpt>
      <trkpt lat="46.043866317" lon="7.234268751">
        <ele>1660.800000</ele>
        <time>2015-08-05T14:39:32Z</time>
        <speed>2.510000</speed>
      </trkpt>
      <trkpt lat="46.043894648" lon="7.234311331">
        <ele>1660.200000</ele>
        <time>2015-08-05T14:39:33Z</time>
        <speed>2.510000</speed>
      </trkpt>
      <trkpt lat="46.043905460" lon="7.234345110">
        <ele>1659.600000</ele>
        <time>2015-08-05T14:39:34Z</time>
        <speed>3.960000</speed>
      </trkpt>
      <trkpt lat="46.043904622" lon="7.234364556">
        <ele>1659.000000</ele>
        <time>2015-08-05T14:39:35Z</time>
        <speed>3.156000</speed>
      </trkpt>
      <trkpt lat="46.043899425" lon="7.234372183">
        <ele>1659.000000</ele>
        <time>2015-08-05T14:39:36Z</time>
        <speed>2.540000</speed>
      </trkpt>
      <trkpt lat="46.043900431" lon="7.234357934">
        <ele>1659.000000</ele>
        <time>2015-08-05T14:39:40Z</time>
        <speed>1.437000</speed>
      </trkpt>
      <trkpt lat="46.043956758" lon="7.234325580">
        <ele>1658.600000</ele>
        <time>2015-08-05T14:39:44Z</time>
        <speed>1.820000</speed>
      </trkpt>
      <trkpt lat="46.043971929" lon="7.234342260">
        <ele>1658.200000</ele>
        <time>2015-08-05T14:39:45Z</time>
        <speed>1.953000</speed>
      </trkpt>
      <trkpt lat="46.043983831" lon="7.234372602">
        <ele>1657.800000</ele>
        <time>2015-08-05T14:39:46Z</time>
        <speed>2.017000</speed>
      </trkpt>
      <trkpt lat="46.043998499" lon="7.234388696">
        <ele>1657.400000</ele>
        <time>2015-08-05T14:39:47Z</time>
        <speed>2.481000</speed>
      </trkpt>
      <trkpt lat="46.044010234" lon="7.234405627">
        <ele>1657.000000</ele>
        <time>2015-08-05T14:39:48Z</time>
        <speed>3.066000</speed>
      </trkpt>
      <trkpt lat="46.044041582" lon="7.234460445">
        <ele>1657.000000</ele>
        <time>2015-08-05T14:39:51Z</time>
        <speed>2.862000</speed>
      </trkpt>
      <trkpt lat="46.044050467" lon="7.234480394">
        <ele>1656.400000</ele>
        <time>2015-08-05T14:39:52Z</time>
        <speed>2.703000</speed>
      </trkpt>
      <trkpt lat="46.044058430" lon="7.234503863">
        <ele>1656.000000</ele>
        <time>2015-08-05T14:39:53Z</time>
        <speed>2.250000</speed>
      </trkpt>
      <trkpt lat="46.044062537" lon="7.234526829">
        <ele>1655.600000</ele>
        <time>2015-08-05T14:39:54Z</time>
        <speed>2.250000</speed>
      </trkpt>
      <trkpt lat="46.044065722" lon="7.234552981">
        <ele>1654.600000</ele>
        <time>2015-08-05T14:39:55Z</time>
        <speed>2.252000</speed>
      </trkpt>
      <trkpt lat="46.044074356" lon="7.234571589">
        <ele>1654.600000</ele>
        <time>2015-08-05T14:39:56Z</time>
        <speed>2.106000</speed>
      </trkpt>
      <trkpt lat="46.044081564" lon="7.234592795">
        <ele>1654.600000</ele>
        <time>2015-08-05T14:39:57Z</time>
        <speed>2.106000</speed>
      </trkpt>
      <trkpt lat="46.044086258" lon="7.234606625">
        <ele>1654.200000</ele>
        <time>2015-08-05T14:39:58Z</time>
        <speed>2.106000</speed>
      </trkpt>
      <trkpt lat="46.044086006" lon="7.234606625">
        <ele>1653.800000</ele>
        <time>2015-08-05T14:39:59Z</time>
        <speed>1.657000</speed>
      </trkpt>
      <trkpt lat="46.044085755" lon="7.234606374">
        <ele>1653.400000</ele>
        <time>2015-08-05T14:40:00Z</time>
        <speed>1.657000</speed>
      </trkpt>
      <trkpt lat="46.044085587" lon="7.234605787">
        <ele>1653.000000</ele>
        <time>2015-08-05T14:40:01Z</time>
        <speed>0.000000</speed>
      </trkpt>
      <trkpt lat="46.044085587" lon="7.234605787">
        <ele>1652.600000</ele>
        <time>2015-08-05T14:40:02Z</time>
        <speed>0.000000</speed>
      </trkpt>
      <trkpt lat="46.044085587" lon="7.234605787">
        <ele>1652.000000</ele>
        <time>2015-08-05T14:40:07Z</time>
        <speed>0.000000</speed>
      </trkpt>
      <trkpt lat="46.044085587" lon="7.234605787">
        <ele>1651.600000</ele>
        <time>2015-08-05T14:40:08Z</time>
        <speed>0.000000</speed>
      </trkpt>
      <trkpt lat="46.044085587" lon="7.234605787">
        <ele>1651.200000</ele>
        <time>2015-08-05T14:40:09Z</time>
        <speed>0.000000</speed>
      </trkpt>
      <trkpt lat="46.044085587" lon="7.234605787">
        <ele>1651.600000</ele>
        <time>2015-08-05T14:40:10Z</time>
        <speed>0.000000</speed>
      </trkpt>
      <trkpt lat="46.044091706" lon="7.234627915">
        <ele>1652.000000</ele>
        <time>2015-08-05T14:40:11Z</time>
        <speed>0.000000</speed>
      </trkpt>
      <trkpt lat="46.044103860" lon="7.234664125">
        <ele>1652.400000</ele>
        <time>2015-08-05T14:40:12Z</time>
        <speed>0.000000</speed>
      </trkpt>
      <trkpt lat="46.044125318" lon="7.234721122">
        <ele>1652.800000</ele>
        <time>2015-08-05T14:40:13Z</time>
        <speed>2.981000</speed>
      </trkpt>
      <trkpt lat="46.044148368" lon="7.234771078">
        <ele>1652.400000</ele>
        <time>2015-08-05T14:40:14Z</time>
        <speed>3.840000</speed>
      </trkpt>
      <trkpt lat="46.044177202" lon="7.234839810">
        <ele>1652.000000</ele>
        <time>2015-08-05T14:40:15Z</time>
        <speed>5.532000</speed>
      </trkpt>
      <trkpt lat="46.044199414" lon="7.234924299">
        <ele>1651.400000</ele>
        <time>2015-08-05T14:40:16Z</time>
        <speed>6.221000</speed>
      </trkpt>
      <trkpt lat="46.044240736" lon="7.235015411">
        <ele>1650.600000</ele>
        <time>2015-08-05T14:40:17Z</time>
        <speed>7.131000</speed>
      </trkpt>
      <trkpt lat="46.044278036" lon="7.235122950">
        <ele>1649.600000</ele>
        <time>2015-08-05T14:40:18Z</time>
        <speed>8.483000</speed>
      </trkpt>
      <trkpt lat="46.044324555" lon="7.235236693">
        <ele>1647.200000</ele>
        <time>2015-08-05T14:40:19Z</time>
        <speed>9.332000</speed>
      </trkpt>
      <trkpt lat="46.044369231" lon="7.235334593">
        <ele>1646.000000</ele>
        <time>2015-08-05T14:40:20Z</time>
        <speed>9.891000</speed>
      </trkpt>
      <trkpt lat="46.044414158" lon="7.235430985">
        <ele>1644.800000</ele>
        <time>2015-08-05T14:40:21Z</time>
        <speed>8.483000</speed>
      </trkpt>
      <trkpt lat="46.044446261" lon="7.235517822">
        <ele>1643.600000</ele>
        <time>2015-08-05T14:40:22Z</time>
        <speed>8.760000</speed>
      </trkpt>
      <trkpt lat="46.044475933" lon="7.235610945">
        <ele>1642.400000</ele>
        <time>2015-08-05T14:40:23Z</time>
        <speed>8.130000</speed>
      </trkpt>
      <trkpt lat="46.044508035" lon="7.235718568">
        <ele>1641.200000</ele>
        <time>2015-08-05T14:40:24Z</time>
        <speed>8.450000</speed>
      </trkpt>
      <trkpt lat="46.044546173" lon="7.235820660">
        <ele>1639.800000</ele>
        <time>2015-08-05T14:40:25Z</time>
        <speed>9.332000</speed>
      </trkpt>
      <trkpt lat="46.044577437" lon="7.235922249">
        <ele>1638.600000</ele>
        <time>2015-08-05T14:40:26Z</time>
        <speed>8.943000</speed>
      </trkpt>
      <trkpt lat="46.044601829" lon="7.236009756">
        <ele>1637.200000</ele>
        <time>2015-08-05T14:40:27Z</time>
        <speed>8.450000</speed>
      </trkpt>
      <trkpt lat="46.044629657" lon="7.236081756">
        <ele>1636.000000</ele>
        <time>2015-08-05T14:40:28Z</time>
        <speed>8.450000</speed>
      </trkpt>
      <trkpt lat="46.044663603" lon="7.236125510">
        <ele>1635.200000</ele>
        <time>2015-08-05T14:40:29Z</time>
        <speed>6.969000</speed>
      </trkpt>
      <trkpt lat="46.044698221" lon="7.236150488">
        <ele>1634.400000</ele>
        <time>2015-08-05T14:40:30Z</time>
        <speed>5.110000</speed>
      </trkpt>
      <trkpt lat="46.044723199" lon="7.236150907">
        <ele>1633.600000</ele>
        <time>2015-08-05T14:40:31Z</time>
        <speed>4.380000</speed>
      </trkpt>
      <trkpt lat="46.044747087" lon="7.236132048">
        <ele>1632.800000</ele>
        <time>2015-08-05T14:40:32Z</time>
        <speed>4.034000</speed>
      </trkpt>
      <trkpt lat="46.044776424" lon="7.236108746">
        <ele>1632.000000</ele>
        <time>2015-08-05T14:40:33Z</time>
        <speed>4.856000</speed>
      </trkpt>
      <trkpt lat="46.044802575" lon="7.236068764">
        <ele>1631.400000</ele>
        <time>2015-08-05T14:40:34Z</time>
        <speed>4.856000</speed>
      </trkpt>
      <trkpt lat="46.044835265" lon="7.236002547">
        <ele>1631.000000</ele>
        <time>2015-08-05T14:40:35Z</time>
        <speed>4.856000</speed>
      </trkpt>
      <trkpt lat="46.044853789" lon="7.235949238">
        <ele>1630.200000</ele>
        <time>2015-08-05T14:40:36Z</time>
        <speed>7.350000</speed>
      </trkpt>
      <trkpt lat="46.044866278" lon="7.235898193">
        <ele>1629.200000</ele>
        <time>2015-08-05T14:40:37Z</time>
        <speed>6.445000</speed>
      </trkpt>
      <trkpt lat="46.044872648" lon="7.235840944">
        <ele>1628.400000</ele>
        <time>2015-08-05T14:40:38Z</time>
        <speed>6.331000</speed>
      </trkpt>
      <trkpt lat="46.044878096" lon="7.235790988">
        <ele>1627.600000</ele>
        <time>2015-08-05T14:40:39Z</time>
        <speed>5.575000</speed>
      </trkpt>
      <trkpt lat="46.044882539" lon="7.235755281">
        <ele>1626.800000</ele>
        <time>2015-08-05T14:40:40Z</time>
        <speed>4.636000</speed>
      </trkpt>
      <trkpt lat="46.044885724" lon="7.235736757">
        <ele>1625.800000</ele>
        <time>2015-08-05T14:40:41Z</time>
        <speed>3.456000</speed>
      </trkpt>
      <trkpt lat="46.044890418" lon="7.235725274">
        <ele>1625.000000</ele>
        <time>2015-08-05T14:40:42Z</time>
        <speed>2.640000</speed>
      </trkpt>
      <trkpt lat="46.044889328" lon="7.235729130">
        <ele>1624.200000</ele>
        <time>2015-08-05T14:40:43Z</time>
        <speed>1.774000</speed>
      </trkpt>
      <trkpt lat="46.044894693" lon="7.235716976">
        <ele>1623.400000</ele>
        <time>2015-08-05T14:40:44Z</time>
        <speed>0.000000</speed>
      </trkpt>
      <trkpt lat="46.044901482" lon="7.235710606">
        <ele>1622.800000</ele>
        <time>2015-08-05T14:40:45Z</time>
        <speed>0.000000</speed>
      </trkpt>
      <trkpt lat="46.044901482" lon="7.235710606">
        <ele>1622.400000</ele>
        <time>2015-08-05T14:40:46Z</time>
        <speed>0.000000</speed>
      </trkpt>
      <trkpt lat="46.044901482" lon="7.235710606">
        <ele>1622.000000</ele>
        <time>2015-08-05T14:40:47Z</time>
        <speed>0.000000</speed>
      </trkpt>
      <trkpt lat="46.044901482" lon="7.235710606">
        <ele>1622.000000</ele>
        <time>2015-08-05T14:40:51Z</time>
        <speed>0.000000</speed>
      </trkpt>
      <trkpt lat="46.044901482" lon="7.235710606">
        <ele>1622.000000</ele>
        <time>2015-08-05T14:41:05Z</time>
        <speed>0.000000</speed>
      </trkpt>
      <trkpt lat="46.044894273" lon="7.235663835">
        <ele>1622.000000</ele>
        <time>2015-08-05T14:41:12Z</time>
        <speed>0.000000</speed>
      </trkpt>
      <trkpt lat="46.044903494" lon="7.235656542">
        <ele>1622.000000</ele>
        <time>2015-08-05T14:41:16Z</time>
        <speed>0.000000</speed>
      </trkpt>
      <trkpt lat="46.044901817" lon="7.235636007">
        <ele>1622.000000</ele>
        <time>2015-08-05T14:41:23Z</time>
        <speed>0.000000</speed>
      </trkpt>
      <trkpt lat="46.044902823" lon="7.235612873">
        <ele>1621.600000</ele>
        <time>2015-08-05T14:41:27Z</time>
        <speed>0.000000</speed>
      </trkpt>
      <trkpt lat="46.044901147" lon="7.235601892">
        <ele>1621.200000</ele>
        <time>2015-08-05T14:41:28Z</time>
        <speed>0.000000</speed>
      </trkpt>
      <trkpt lat="46.044901147" lon="7.235601892">
        <ele>1620.800000</ele>
        <time>2015-08-05T14:41:29Z</time>
        <speed>0.000000</speed>
      </trkpt>
      <trkpt lat="46.044901147" lon="7.235601892">
        <ele>1620.400000</ele>
        <time>2015-08-05T14:41:30Z</time>
        <speed>0.000000</speed>
      </trkpt>
      <trkpt lat="46.044901147" lon="7.235601892">
        <ele>1620.000000</ele>
        <time>2015-08-05T14:41:31Z</time>
        <speed>0.000000</speed>
      </trkpt>
      <trkpt lat="46.044894776" lon="7.235511452">
        <ele>1620.000000</ele>
        <time>2015-08-05T14:41:36Z</time>
        <speed>0.000000</speed>
      </trkpt>
      <trkpt lat="46.044891759" lon="7.235393937">
        <ele>1620.000000</ele>
        <time>2015-08-05T14:41:38Z</time>
        <speed>2.042000</speed>
      </trkpt>
      <trkpt lat="46.044897626" lon="7.235334510">
        <ele>1620.000000</ele>
        <time>2015-08-05T14:41:39Z</time>
        <speed>2.042000</speed>
      </trkpt>
      <trkpt lat="46.044897626" lon="7.235270807">
        <ele>1619.600000</ele>
        <time>2015-08-05T14:41:40Z</time>
        <speed>4.276000</speed>
      </trkpt>
      <trkpt lat="46.044883796" lon="7.235185898">
        <ele>1619.000000</ele>
        <time>2015-08-05T14:41:41Z</time>
        <speed>5.197000</speed>
      </trkpt>
      <trkpt lat="46.044869128" lon="7.235098894">
        <ele>1618.400000</ele>
        <time>2015-08-05T14:41:42Z</time>
        <speed>6.294000</speed>
      </trkpt>
      <trkpt lat="46.044860662" lon="7.235006274">
        <ele>1618.000000</ele>
        <time>2015-08-05T14:41:43Z</time>
        <speed>7.084000</speed>
      </trkpt>
      <trkpt lat="46.044850688" lon="7.234913235">
        <ele>1617.200000</ele>
        <time>2015-08-05T14:41:44Z</time>
        <speed>6.792000</speed>
      </trkpt>
      <trkpt lat="46.044836438" lon="7.234821705">
        <ele>1616.600000</ele>
        <time>2015-08-05T14:41:45Z</time>
        <speed>7.452000</speed>
      </trkpt>
      <trkpt lat="46.044816070" lon="7.234728917">
        <ele>1615.800000</ele>
        <time>2015-08-05T14:41:46Z</time>
        <speed>7.693000</speed>
      </trkpt>
      <trkpt lat="46.044794948" lon="7.234650295">
        <ele>1615.000000</ele>
        <time>2015-08-05T14:41:47Z</time>
        <speed>7.227000</speed>
      </trkpt>
      <trkpt lat="46.044780280" lon="7.234586341">
        <ele>1614.400000</ele>
        <time>2015-08-05T14:41:48Z</time>
        <speed>6.728000</speed>
      </trkpt>
      <trkpt lat="46.044786315" lon="7.234532781">
        <ele>1614.400000</ele>
        <time>2015-08-05T14:41:49Z</time>
        <speed>6.097000</speed>
      </trkpt>
      <trkpt lat="46.044837528" lon="7.234483244">
        <ele>1614.400000</ele>
        <time>2015-08-05T14:41:51Z</time>
        <speed>3.812000</speed>
      </trkpt>
      <trkpt lat="46.044860075" lon="7.234534206">
        <ele>1614.000000</ele>
        <time>2015-08-05T14:41:53Z</time>
        <speed>3.765000</speed>
      </trkpt>
      <trkpt lat="46.044869798" lon="7.234576366">
        <ele>1613.600000</ele>
        <time>2015-08-05T14:41:54Z</time>
        <speed>4.217000</speed>
      </trkpt>
      <trkpt lat="46.044887149" lon="7.234619701">
        <ele>1613.200000</ele>
        <time>2015-08-05T14:41:55Z</time>
        <speed>4.471000</speed>
      </trkpt>
      <trkpt lat="46.044912797" lon="7.234669657">
        <ele>1612.800000</ele>
        <time>2015-08-05T14:41:56Z</time>
        <speed>4.867000</speed>
      </trkpt>
      <trkpt lat="46.044939871" lon="7.234720535">
        <ele>1612.200000</ele>
        <time>2015-08-05T14:41:57Z</time>
        <speed>4.802000</speed>
      </trkpt>
      <trkpt lat="46.044967280" lon="7.234778789">
        <ele>1610.800000</ele>
        <time>2015-08-05T14:41:58Z</time>
        <speed>4.991000</speed>
      </trkpt>
      <trkpt lat="46.044986642" lon="7.234835032">
        <ele>1610.200000</ele>
        <time>2015-08-05T14:41:59Z</time>
        <speed>6.046000</speed>
      </trkpt>
      <trkpt lat="46.045004495" lon="7.234889850">
        <ele>1609.400000</ele>
        <time>2015-08-05T14:42:00Z</time>
        <speed>5.785000</speed>
      </trkpt>
      <trkpt lat="46.045025199" lon="7.234942823">
        <ele>1608.600000</ele>
        <time>2015-08-05T14:42:01Z</time>
        <speed>4.911000</speed>
      </trkpt>
      <trkpt lat="46.045054116" lon="7.234991606">
        <ele>1608.000000</ele>
        <time>2015-08-05T14:42:02Z</time>
        <speed>5.248000</speed>
      </trkpt>
      <trkpt lat="46.045082782" lon="7.235038461">
        <ele>1607.200000</ele>
        <time>2015-08-05T14:42:03Z</time>
        <speed>4.957000</speed>
      </trkpt>
      <trkpt lat="46.045111365" lon="7.235083388">
        <ele>1606.600000</ele>
        <time>2015-08-05T14:42:04Z</time>
        <speed>4.748000</speed>
      </trkpt>
      <trkpt lat="46.045145814" lon="7.235123621">
        <ele>1606.200000</ele>
        <time>2015-08-05T14:42:05Z</time>
        <speed>4.770000</speed>
      </trkpt>
      <trkpt lat="46.045180264" lon="7.235161004">
        <ele>1605.600000</ele>
        <time>2015-08-05T14:42:06Z</time>
        <speed>4.791000</speed>
      </trkpt>
      <trkpt lat="46.045217396" lon="7.235198974">
        <ele>1605.000000</ele>
        <time>2015-08-05T14:42:07Z</time>
        <speed>4.728000</speed>
      </trkpt>
      <trkpt lat="46.045241117" lon="7.235221354">
        <ele>1604.200000</ele>
        <time>2015-08-05T14:42:08Z</time>
        <speed>4.217000</speed>
      </trkpt>
      <trkpt lat="46.045254192" lon="7.235227808">
        <ele>1603.600000</ele>
        <time>2015-08-05T14:42:09Z</time>
        <speed>3.833000</speed>
      </trkpt>
      <trkpt lat="46.045262993" lon="7.235237782">
        <ele>1602.800000</ele>
        <time>2015-08-05T14:42:10Z</time>
        <speed>2.271000</speed>
      </trkpt>
      <trkpt lat="46.045266346" lon="7.235240716">
        <ele>1602.200000</ele>
        <time>2015-08-05T14:42:11Z</time>
        <speed>0.000000</speed>
      </trkpt>
      <trkpt lat="46.045328624" lon="7.235244237">
        <ele>1601.600000</ele>
        <time>2015-08-05T14:42:16Z</time>
        <speed>2.140000</speed>
      </trkpt>
      <trkpt lat="46.045366007" lon="7.235228562">
        <ele>1601.200000</ele>
        <time>2015-08-05T14:42:17Z</time>
        <speed>2.140000</speed>
      </trkpt>
      <trkpt lat="46.045405402" lon="7.235202830">
        <ele>1600.800000</ele>
        <time>2015-08-05T14:42:18Z</time>
        <speed>2.140000</speed>
      </trkpt>
      <trkpt lat="46.045437588" lon="7.235168380">
        <ele>1600.200000</ele>
        <time>2015-08-05T14:42:19Z</time>
        <speed>4.697000</speed>
      </trkpt>
      <trkpt lat="46.045462986" lon="7.235122699">
        <ele>1599.400000</ele>
        <time>2015-08-05T14:42:20Z</time>
        <speed>4.911000</speed>
      </trkpt>
      <trkpt lat="46.045473714" lon="7.235071821">
        <ele>1598.800000</ele>
        <time>2015-08-05T14:42:21Z</time>
        <speed>5.135000</speed>
      </trkpt>
      <trkpt lat="46.045473882" lon="7.235011639">
        <ele>1597.000000</ele>
        <time>2015-08-05T14:42:22Z</time>
        <speed>4.845000</speed>
      </trkpt>
      <trkpt lat="46.045468601" lon="7.234949194">
        <ele>1596.200000</ele>
        <time>2015-08-05T14:42:23Z</time>
        <speed>4.780000</speed>
      </trkpt>
      <trkpt lat="46.045461561" lon="7.234881132">
        <ele>1595.400000</ele>
        <time>2015-08-05T14:42:24Z</time>
        <speed>4.444000</speed>
      </trkpt>
      <trkpt lat="46.045458795" lon="7.234815502">
        <ele>1594.600000</ele>
        <time>2015-08-05T14:42:25Z</time>
        <speed>4.717000</speed>
      </trkpt>
      <trkpt lat="46.045462650" lon="7.234749620">
        <ele>1594.000000</ele>
        <time>2015-08-05T14:42:26Z</time>
        <speed>4.802000</speed>
      </trkpt>
      <trkpt lat="46.045468601" lon="7.234685499">
        <ele>1593.600000</ele>
        <time>2015-08-05T14:42:27Z</time>
        <speed>4.945000</speed>
      </trkpt>
      <trkpt lat="46.045480420" lon="7.234623640">
        <ele>1593.000000</ele>
        <time>2015-08-05T14:42:28Z</time>
        <speed>4.686000</speed>
      </trkpt>
      <trkpt lat="46.045491316" lon="7.234564548">
        <ele>1592.400000</ele>
        <time>2015-08-05T14:42:29Z</time>
        <speed>4.596000</speed>
      </trkpt>
      <trkpt lat="46.045505147" lon="7.234507048">
        <ele>1591.800000</ele>
        <time>2015-08-05T14:42:30Z</time>
        <speed>4.759000</speed>
      </trkpt>
      <trkpt lat="46.045515875" lon="7.234447453">
        <ele>1591.200000</ele>
        <time>2015-08-05T14:42:31Z</time>
        <speed>4.728000</speed>
      </trkpt>
      <trkpt lat="46.045526520" lon="7.234391462">
        <ele>1590.600000</ele>
        <time>2015-08-05T14:42:32Z</time>
        <speed>4.646000</speed>
      </trkpt>
      <trkpt lat="46.045537249" lon="7.234343014">
        <ele>1590.000000</ele>
        <time>2015-08-05T14:42:33Z</time>
        <speed>4.380000</speed>
      </trkpt>
      <trkpt lat="46.045545631" lon="7.234290711">
        <ele>1589.200000</ele>
        <time>2015-08-05T14:42:34Z</time>
        <speed>4.327000</speed>
      </trkpt>
      <trkpt lat="46.045553091" lon="7.234241677">
        <ele>1588.600000</ele>
        <time>2015-08-05T14:42:35Z</time>
        <speed>4.362000</speed>
      </trkpt>
      <trkpt lat="46.045559797" lon="7.234190967">
        <ele>1587.800000</ele>
        <time>2015-08-05T14:42:36Z</time>
        <speed>4.160000</speed>
      </trkpt>
      <trkpt lat="46.045558036" lon="7.234139083">
        <ele>1587.200000</ele>
        <time>2015-08-05T14:42:37Z</time>
        <speed>4.004000</speed>
      </trkpt>
      <trkpt lat="46.045551918" lon="7.234084768">
        <ele>1586.600000</ele>
        <time>2015-08-05T14:42:38Z</time>
        <speed>3.975000</speed>
      </trkpt>
      <trkpt lat="46.045542446" lon="7.234032884">
        <ele>1586.200000</ele>
        <time>2015-08-05T14:42:39Z</time>
        <speed>4.050000</speed>
      </trkpt>
      <trkpt lat="46.045536076" lon="7.233974378">
        <ele>1585.600000</ele>
        <time>2015-08-05T14:42:40Z</time>
        <speed>4.380000</speed>
      </trkpt>
      <trkpt lat="46.045536243" lon="7.233915621">
        <ele>1585.200000</ele>
        <time>2015-08-05T14:42:41Z</time>
        <speed>4.636000</speed>
      </trkpt>
      <trkpt lat="46.045543452" lon="7.233861642">
        <ele>1584.600000</ele>
        <time>2015-08-05T14:42:42Z</time>
        <speed>4.586000</speed>
      </trkpt>
      <trkpt lat="46.045550157" lon="7.233818894">
        <ele>1584.000000</ele>
        <time>2015-08-05T14:42:43Z</time>
        <speed>4.538000</speed>
      </trkpt>
      <trkpt lat="46.045559797" lon="7.233782097">
        <ele>1583.400000</ele>
        <time>2015-08-05T14:42:44Z</time>
        <speed>3.792000</speed>
      </trkpt>
      <trkpt lat="46.045567424" lon="7.233737841">
        <ele>1582.800000</ele>
        <time>2015-08-05T14:42:45Z</time>
        <speed>3.343000</speed>
      </trkpt>
      <trkpt lat="46.045573710" lon="7.233693920">
        <ele>1582.200000</ele>
        <time>2015-08-05T14:42:46Z</time>
        <speed>3.166000</speed>
      </trkpt>
      <trkpt lat="46.045579075" lon="7.233650753">
        <ele>1581.800000</ele>
        <time>2015-08-05T14:42:47Z</time>
        <speed>3.348000</speed>
      </trkpt>
      <trkpt lat="46.045587541" lon="7.233607167">
        <ele>1580.800000</ele>
        <time>2015-08-05T14:42:48Z</time>
        <speed>3.348000</speed>
      </trkpt>
      <trkpt lat="46.045599024" lon="7.233561402">
        <ele>1580.400000</ele>
        <time>2015-08-05T14:42:49Z</time>
        <speed>3.142000</speed>
      </trkpt>
      <trkpt lat="46.045613273" lon="7.233513038">
        <ele>1579.800000</ele>
        <time>2015-08-05T14:42:50Z</time>
        <speed>3.638000</speed>
      </trkpt>
      <trkpt lat="46.045628444" lon="7.233468698">
        <ele>1579.200000</ele>
        <time>2015-08-05T14:42:51Z</time>
        <speed>3.895000</speed>
      </trkpt>
      <trkpt lat="46.045643616" lon="7.233428046">
        <ele>1578.400000</ele>
        <time>2015-08-05T14:42:52Z</time>
        <speed>3.967000</speed>
      </trkpt>
      <trkpt lat="46.045659876" lon="7.233386136">
        <ele>1577.800000</ele>
        <time>2015-08-05T14:42:53Z</time>
        <speed>3.759000</speed>
      </trkpt>
      <trkpt lat="46.045677478" lon="7.233347663">
        <ele>1577.200000</ele>
        <time>2015-08-05T14:42:54Z</time>
        <speed>3.607000</speed>
      </trkpt>
      <trkpt lat="46.045694326" lon="7.233305670">
        <ele>1576.800000</ele>
        <time>2015-08-05T14:42:55Z</time>
        <speed>3.462000</speed>
      </trkpt>
      <trkpt lat="46.045709749" lon="7.233270131">
        <ele>1576.200000</ele>
        <time>2015-08-05T14:42:56Z</time>
        <speed>3.675000</speed>
      </trkpt>
      <trkpt lat="46.045725507" lon="7.233229730">
        <ele>1575.600000</ele>
        <time>2015-08-05T14:42:57Z</time>
        <speed>3.571000</speed>
      </trkpt>
      <trkpt lat="46.045740510" lon="7.233184551">
        <ele>1575.200000</ele>
        <time>2015-08-05T14:42:58Z</time>
        <speed>3.779000</speed>
      </trkpt>
      <trkpt lat="46.045757861" lon="7.233141888">
        <ele>1574.600000</ele>
        <time>2015-08-05T14:42:59Z</time>
        <speed>3.601000</speed>
      </trkpt>
      <trkpt lat="46.045772445" lon="7.233094027">
        <ele>1574.000000</ele>
        <time>2015-08-05T14:43:00Z</time>
        <speed>3.917000</speed>
      </trkpt>
      <trkpt lat="46.045779067" lon="7.233042730">
        <ele>1573.400000</ele>
        <time>2015-08-05T14:43:01Z</time>
        <speed>3.960000</speed>
      </trkpt>
      <trkpt lat="46.045774541" lon="7.232987074">
        <ele>1573.000000</ele>
        <time>2015-08-05T14:43:02Z</time>
        <speed>4.538000</speed>
      </trkpt>
      <trkpt lat="46.045774038" lon="7.232947930">
        <ele>1572.400000</ele>
        <time>2015-08-05T14:43:03Z</time>
        <speed>4.160000</speed>
      </trkpt>
      <trkpt lat="46.045784599" lon="7.232846928">
        <ele>1572.400000</ele>
        <time>2015-08-05T14:43:06Z</time>
        <speed>2.580000</speed>
      </trkpt>
      <trkpt lat="46.045842350" lon="7.232884479">
        <ele>1572.400000</ele>
        <time>2015-08-05T14:43:09Z</time>
        <speed>2.298000</speed>
      </trkpt>
      <trkpt lat="46.045855175" lon="7.232929742">
        <ele>1572.000000</ele>
        <time>2015-08-05T14:43:10Z</time>
        <speed>3.369000</speed>
      </trkpt>
      <trkpt lat="46.045871268" lon="7.232977016">
        <ele>1571.400000</ele>
        <time>2015-08-05T14:43:11Z</time>
        <speed>3.354000</speed>
      </trkpt>
      <trkpt lat="46.045882165" lon="7.233030073">
        <ele>1571.000000</ele>
        <time>2015-08-05T14:43:12Z</time>
        <speed>3.799000</speed>
      </trkpt>
      <trkpt lat="46.045891133" lon="7.233081035">
        <ele>1569.800000</ele>
        <time>2015-08-05T14:43:13Z</time>
        <speed>4.042000</speed>
      </trkpt>
      <trkpt lat="46.045905885" lon="7.233135434">
        <ele>1569.000000</ele>
        <time>2015-08-05T14:43:14Z</time>
        <speed>4.425000</speed>
      </trkpt>
      <trkpt lat="46.045925834" lon="7.233192766">
        <ele>1568.200000</ele>
        <time>2015-08-05T14:43:15Z</time>
        <speed>4.911000</speed>
      </trkpt>
      <trkpt lat="46.045943604" lon="7.233256971">
        <ele>1567.400000</ele>
        <time>2015-08-05T14:43:16Z</time>
        <speed>5.209000</speed>
      </trkpt>
      <trkpt lat="46.045969252" lon="7.233318578">
        <ele>1566.600000</ele>
        <time>2015-08-05T14:43:17Z</time>
        <speed>5.222000</speed>
      </trkpt>
      <trkpt lat="46.045997583" lon="7.233370546">
        <ele>1565.800000</ele>
        <time>2015-08-05T14:43:18Z</time>
        <speed>5.517000</speed>
      </trkpt>
      <trkpt lat="46.046024992" lon="7.233417987">
        <ele>1564.800000</ele>
        <time>2015-08-05T14:43:19Z</time>
        <speed>5.273000</speed>
      </trkpt>
      <trkpt lat="46.046051311" lon="7.233474817">
        <ele>1564.000000</ele>
        <time>2015-08-05T14:43:20Z</time>
        <speed>5.434000</speed>
      </trkpt>
      <trkpt lat="46.046071093" lon="7.233533742">
        <ele>1563.200000</ele>
        <time>2015-08-05T14:43:21Z</time>
        <speed>4.980000</speed>
      </trkpt>
      <trkpt lat="46.046093975" lon="7.233599372">
        <ele>1562.400000</ele>
        <time>2015-08-05T14:43:22Z</time>
        <speed>5.147000</speed>
      </trkpt>
      <trkpt lat="46.046112834" lon="7.233660644">
        <ele>1561.600000</ele>
        <time>2015-08-05T14:43:23Z</time>
        <speed>5.366000</speed>
      </trkpt>
      <trkpt lat="46.046129934" lon="7.233721329">
        <ele>1560.800000</ele>
        <time>2015-08-05T14:43:24Z</time>
        <speed>5.420000</speed>
      </trkpt>
      <trkpt lat="46.046144099" lon="7.233772458">
        <ele>1560.000000</ele>
        <time>2015-08-05T14:43:25Z</time>
        <speed>5.352000</speed>
      </trkpt>
      <trkpt lat="46.046162288" lon="7.233792826">
        <ele>1559.000000</ele>
        <time>2015-08-05T14:43:26Z</time>
        <speed>4.812000</speed>
      </trkpt>
      <trkpt lat="46.046183494" lon="7.233782349">
        <ele>1558.200000</ele>
        <time>2015-08-05T14:43:27Z</time>
        <speed>3.707000</speed>
      </trkpt>
      <trkpt lat="46.046206712" lon="7.233758796">
        <ele>1557.200000</ele>
        <time>2015-08-05T14:43:28Z</time>
        <speed>3.375000</speed>
      </trkpt>
      <trkpt lat="46.046225571" lon="7.233718311">
        <ele>1556.400000</ele>
        <time>2015-08-05T14:43:29Z</time>
        <speed>3.106000</speed>
      </trkpt>
      <trkpt lat="46.046244179" lon="7.233665924">
        <ele>1556.000000</ele>
        <time>2015-08-05T14:43:30Z</time>
        <speed>3.322000</speed>
      </trkpt>
      <trkpt lat="46.046269828" lon="7.233624937">
        <ele>1555.400000</ele>
        <time>2015-08-05T14:43:31Z</time>
        <speed>4.233000</speed>
      </trkpt>
      <trkpt lat="46.046287849" lon="7.233583865">
        <ele>1555.000000</ele>
        <time>2015-08-05T14:43:32Z</time>
        <speed>4.738000</speed>
      </trkpt>
      <trkpt lat="46.046305451" lon="7.233548745">
        <ele>1554.600000</ele>
        <time>2015-08-05T14:43:33Z</time>
        <speed>4.057000</speed>
      </trkpt>
      <trkpt lat="46.046322382" lon="7.233509937">
        <ele>1554.000000</ele>
        <time>2015-08-05T14:43:34Z</time>
        <speed>3.752000</speed>
      </trkpt>
      <trkpt lat="46.046336967" lon="7.233458556">
        <ele>1553.400000</ele>
        <time>2015-08-05T14:43:35Z</time>
        <speed>4.004000</speed>
      </trkpt>
      <trkpt lat="46.046358005" lon="7.233416311">
        <ele>1552.800000</ele>
        <time>2015-08-05T14:43:36Z</time>
        <speed>3.833000</speed>
      </trkpt>
      <trkpt lat="46.046383486" lon="7.233383035">
        <ele>1551.600000</ele>
        <time>2015-08-05T14:43:37Z</time>
        <speed>4.042000</speed>
      </trkpt>
      <trkpt lat="46.046400753" lon="7.233346155">
        <ele>1551.200000</ele>
        <time>2015-08-05T14:43:38Z</time>
        <speed>3.960000</speed>
      </trkpt>
      <trkpt lat="46.046418020" lon="7.233310280">
        <ele>1550.800000</ele>
        <time>2015-08-05T14:43:39Z</time>
        <speed>3.812000</speed>
      </trkpt>
      <trkpt lat="46.046435538" lon="7.233268538">
        <ele>1550.200000</ele>
        <time>2015-08-05T14:43:40Z</time>
        <speed>3.467000</speed>
      </trkpt>
      <trkpt lat="46.046450877" lon="7.233221767">
        <ele>1549.800000</ele>
        <time>2015-08-05T14:43:41Z</time>
        <speed>3.571000</speed>
      </trkpt>
      <trkpt lat="46.046465880" lon="7.233176086">
        <ele>1549.200000</ele>
        <time>2015-08-05T14:43:42Z</time>
        <speed>4.225000</speed>
      </trkpt>
      <trkpt lat="46.046476944" lon="7.233120262">
        <ele>1548.600000</ele>
        <time>2015-08-05T14:43:43Z</time>
        <speed>4.168000</speed>
      </trkpt>
      <trkpt lat="46.046490607" lon="7.233063852">
        <ele>1548.000000</ele>
        <time>2015-08-05T14:43:45Z</time>
        <speed>4.301000</speed>
      </trkpt>
      <trkpt lat="46.046503515" lon="7.233007526">
        <ele>1547.400000</ele>
        <time>2015-08-05T14:43:46Z</time>
        <speed>4.192000</speed>
      </trkpt>
      <trkpt lat="46.046520446" lon="7.232953881">
        <ele>1546.800000</ele>
        <time>2015-08-05T14:43:47Z</time>
        <speed>4.646000</speed>
      </trkpt>
      <trkpt lat="46.046532181" lon="7.232903003">
        <ele>1546.200000</ele>
        <time>2015-08-05T14:43:48Z</time>
        <speed>4.636000</speed>
      </trkpt>
      <trkpt lat="46.046546011" lon="7.232863860">
        <ele>1545.600000</ele>
        <time>2015-08-05T14:43:49Z</time>
        <speed>4.416000</speed>
      </trkpt>
      <trkpt lat="46.046561685" lon="7.232837876">
        <ele>1544.800000</ele>
        <time>2015-08-05T14:43:50Z</time>
        <speed>3.867000</speed>
      </trkpt>
      <trkpt lat="46.046570486" lon="7.232819520">
        <ele>1544.800000</ele>
        <time>2015-08-05T14:43:51Z</time>
        <speed>2.889000</speed>
      </trkpt>
      <trkpt lat="46.046584987" lon="7.232799571">
        <ele>1544.800000</ele>
        <time>2015-08-05T14:43:54Z</time>
        <speed>1.916000</speed>
      </trkpt>
      <trkpt lat="46.046587837" lon="7.232789764">
        <ele>1544.800000</ele>
        <time>2015-08-05T14:43:55Z</time>
        <speed>1.916000</speed>
      </trkpt>
      <trkpt lat="46.046591693" lon="7.232785070">
        <ele>1544.400000</ele>
        <time>2015-08-05T14:43:58Z</time>
        <speed>0.000000</speed>
      </trkpt>
      <trkpt lat="46.046591693" lon="7.232785070">
        <ele>1544.000000</ele>
        <time>2015-08-05T14:43:59Z</time>
        <speed>0.000000</speed>
      </trkpt>
      <trkpt lat="46.046591693" lon="7.232785070">
        <ele>1543.600000</ele>
        <time>2015-08-05T14:44:00Z</time>
        <speed>0.000000</speed>
      </trkpt>
      <trkpt lat="46.046591693" lon="7.232785070">
        <ele>1543.200000</ele>
        <time>2015-08-05T14:44:01Z</time>
        <speed>0.000000</speed>
      </trkpt>
      <trkpt lat="46.046591190" lon="7.232785573">
        <ele>1542.800000</ele>
        <time>2015-08-05T14:44:02Z</time>
        <speed>0.000000</speed>
      </trkpt>
      <trkpt lat="46.046590184" lon="7.232786998">
        <ele>1542.800000</ele>
        <time>2015-08-05T14:44:05Z</time>
        <speed>0.000000</speed>
      </trkpt>
      <trkpt lat="46.046590184" lon="7.232786998">
        <ele>1542.800000</ele>
        <time>2015-08-05T14:44:22Z</time>
        <speed>0.000000</speed>
      </trkpt>
      <trkpt lat="46.046598985" lon="7.232800660">
        <ele>1542.800000</ele>
        <time>2015-08-05T14:44:28Z</time>
        <speed>0.000000</speed>
      </trkpt>
      <trkpt lat="46.046598985" lon="7.232800660">
        <ele>1542.800000</ele>
        <time>2015-08-05T14:44:29Z</time>
        <speed>0.000000</speed>
      </trkpt>
      <trkpt lat="46.046601667" lon="7.232813149">
        <ele>1542.800000</ele>
        <time>2015-08-05T14:44:34Z</time>
        <speed>0.000000</speed>
      </trkpt>
      <trkpt lat="46.046610049" lon="7.232858915">
        <ele>1542.800000</ele>
        <time>2015-08-05T14:44:35Z</time>
        <speed>2.713000</speed>
      </trkpt>
      <trkpt lat="46.046607786" lon="7.232983386">
        <ele>1542.400000</ele>
        <time>2015-08-05T14:44:37Z</time>
        <speed>2.605000</speed>
      </trkpt>
      <trkpt lat="46.046626142" lon="7.233056560">
        <ele>1541.800000</ele>
        <time>2015-08-05T14:44:38Z</time>
        <speed>2.605000</speed>
      </trkpt>
      <trkpt lat="46.046663777" lon="7.233125375">
        <ele>1541.200000</ele>
        <time>2015-08-05T14:44:39Z</time>
        <speed>5.693000</speed>
      </trkpt>
      <trkpt lat="46.046706022" lon="7.233195113">
        <ele>1540.400000</ele>
        <time>2015-08-05T14:44:40Z</time>
        <speed>6.276000</speed>
      </trkpt>
      <trkpt lat="46.046737119" lon="7.233269460">
        <ele>1539.400000</ele>
        <time>2015-08-05T14:44:41Z</time>
        <speed>7.227000</speed>
      </trkpt>
      <trkpt lat="46.046749356" lon="7.233363840">
        <ele>1538.200000</ele>
        <time>2015-08-05T14:44:42Z</time>
        <speed>6.749000</speed>
      </trkpt>
      <trkpt lat="46.046766539" lon="7.233452689">
        <ele>1537.000000</ele>
        <time>2015-08-05T14:44:43Z</time>
        <speed>7.891000</speed>
      </trkpt>
      <trkpt lat="46.046794702" lon="7.233528461">
        <ele>1535.800000</ele>
        <time>2015-08-05T14:44:44Z</time>
        <speed>7.350000</speed>
      </trkpt>
      <trkpt lat="46.046826218" lon="7.233627116">
        <ele>1534.600000</ele>
        <time>2015-08-05T14:44:45Z</time>
        <speed>7.611000</speed>
      </trkpt>
      <trkpt lat="46.046847173" lon="7.233733063">
        <ele>1533.400000</ele>
        <time>2015-08-05T14:44:46Z</time>
        <speed>8.255000</speed>
      </trkpt>
      <trkpt lat="46.046875169" lon="7.233837586">
        <ele>1531.800000</ele>
        <time>2015-08-05T14:44:47Z</time>
        <speed>9.212000</speed>
      </trkpt>
      <trkpt lat="46.046900147" lon="7.233932888">
        <ele>1530.400000</ele>
        <time>2015-08-05T14:44:48Z</time>
        <speed>8.707000</speed>
      </trkpt>
      <trkpt lat="46.046916324" lon="7.234013354">
        <ele>1529.000000</ele>
        <time>2015-08-05T14:44:49Z</time>
        <speed>8.130000</speed>
      </trkpt>
      <trkpt lat="46.046933590" lon="7.234066244">
        <ele>1527.600000</ele>
        <time>2015-08-05T14:44:50Z</time>
        <speed>6.350000</speed>
      </trkpt>
      <trkpt lat="46.046953958" lon="7.234077727">
        <ele>1526.200000</ele>
        <time>2015-08-05T14:44:51Z</time>
        <speed>5.475000</speed>
      </trkpt>
      <trkpt lat="46.046977260" lon="7.234066160">
        <ele>1523.600000</ele>
        <time>2015-08-05T14:44:52Z</time>
        <speed>4.586000</speed>
      </trkpt>
      <trkpt lat="46.046997209" lon="7.234020395">
        <ele>1523.000000</ele>
        <time>2015-08-05T14:44:53Z</time>
        <speed>4.057000</speed>
      </trkpt>
      <trkpt lat="46.047007351" lon="7.233956776">
        <ele>1522.600000</ele>
        <time>2015-08-05T14:44:54Z</time>
        <speed>4.557000</speed>
      </trkpt>
      <trkpt lat="46.047030904" lon="7.233873795">
        <ele>1522.000000</ele>
        <time>2015-08-05T14:44:55Z</time>
        <speed>5.038000</speed>
      </trkpt>
      <trkpt lat="46.047051775" lon="7.233778242">
        <ele>1521.400000</ele>
        <time>2015-08-05T14:44:56Z</time>
        <speed>6.185000</speed>
      </trkpt>
      <trkpt lat="46.047077843" lon="7.233675312">
        <ele>1520.600000</ele>
        <time>2015-08-05T14:44:57Z</time>
        <speed>7.276000</speed>
      </trkpt>
      <trkpt lat="46.047115897" lon="7.233584620">
        <ele>1519.600000</ele>
        <time>2015-08-05T14:44:58Z</time>
        <speed>8.009000</speed>
      </trkpt>
      <trkpt lat="46.047148335" lon="7.233488898">
        <ele>1518.600000</ele>
        <time>2015-08-05T14:44:59Z</time>
        <speed>8.725000</speed>
      </trkpt>
      <trkpt lat="46.047183455" lon="7.233378676">
        <ele>1517.400000</ele>
        <time>2015-08-05T14:45:00Z</time>
        <speed>8.009000</speed>
      </trkpt>
      <trkpt lat="46.047224107" lon="7.233278596">
        <ele>1516.200000</ele>
        <time>2015-08-05T14:45:01Z</time>
        <speed>8.962000</speed>
      </trkpt>
      <trkpt lat="46.047272471" lon="7.233186144">
        <ele>1514.800000</ele>
        <time>2015-08-05T14:45:02Z</time>
        <speed>8.833000</speed>
      </trkpt>
      <trkpt lat="46.047327372" lon="7.233105175">
        <ele>1513.200000</ele>
        <time>2015-08-05T14:45:03Z</time>
        <speed>8.483000</speed>
      </trkpt>
      <trkpt lat="46.047388644" lon="7.233051279">
        <ele>1511.600000</ele>
        <time>2015-08-05T14:45:04Z</time>
        <speed>8.725000</speed>
      </trkpt>
      <trkpt lat="46.047452766" lon="7.233047424">
        <ele>1510.000000</ele>
        <time>2015-08-05T14:45:05Z</time>
        <speed>8.161000</speed>
      </trkpt>
      <trkpt lat="46.047502303" lon="7.233028145">
        <ele>1508.400000</ele>
        <time>2015-08-05T14:45:06Z</time>
        <speed>7.638000</speed>
      </trkpt>
      <trkpt lat="46.047539267" lon="7.232978189">
        <ele>1506.800000</ele>
        <time>2015-08-05T14:45:07Z</time>
        <speed>6.124000</speed>
      </trkpt>
      <trkpt lat="46.047563574" lon="7.232903842">
        <ele>1505.400000</ele>
        <time>2015-08-05T14:45:08Z</time>
        <speed>6.465000</speed>
      </trkpt>
      <trkpt lat="46.047595342" lon="7.232811221">
        <ele>1504.600000</ele>
        <time>2015-08-05T14:45:09Z</time>
        <speed>6.792000</speed>
      </trkpt>
      <trkpt lat="46.047629624" lon="7.232712566">
        <ele>1503.800000</ele>
        <time>2015-08-05T14:45:10Z</time>
        <speed>7.805000</speed>
      </trkpt>
      <trkpt lat="46.047652255" lon="7.232624557">
        <ele>1502.600000</ele>
        <time>2015-08-05T14:45:11Z</time>
        <speed>8.760000</speed>
      </trkpt>
      <trkpt lat="46.047662565" lon="7.232557920">
        <ele>1501.600000</ele>
        <time>2015-08-05T14:45:12Z</time>
        <speed>7.721000</speed>
      </trkpt>
      <trkpt lat="46.047678909" lon="7.232505701">
        <ele>1500.400000</ele>
        <time>2015-08-05T14:45:13Z</time>
        <speed>5.832000</speed>
      </trkpt>
      <trkpt lat="46.047703049" lon="7.232484411">
        <ele>1499.400000</ele>
        <time>2015-08-05T14:45:14Z</time>
        <speed>4.945000</speed>
      </trkpt>
      <trkpt lat="46.047720903" lon="7.232515005">
        <ele>1498.800000</ele>
        <time>2015-08-05T14:45:15Z</time>
        <speed>4.509000</speed>
      </trkpt>
      <trkpt lat="46.047741690" lon="7.232568901">
        <ele>1498.200000</ele>
        <time>2015-08-05T14:45:16Z</time>
        <speed>4.276000</speed>
      </trkpt>
      <trkpt lat="46.047770356" lon="7.232638554">
        <ele>1496.800000</ele>
        <time>2015-08-05T14:45:17Z</time>
        <speed>4.707000</speed>
      </trkpt>
      <trkpt lat="46.047804973" lon="7.232728157">
        <ele>1496.000000</ele>
        <time>2015-08-05T14:45:18Z</time>
        <speed>5.648000</speed>
      </trkpt>
      <trkpt lat="46.047838585" lon="7.232819268">
        <ele>1495.000000</ele>
        <time>2015-08-05T14:45:19Z</time>
        <speed>7.833000</speed>
      </trkpt>
      <trkpt lat="46.047870268" lon="7.232909541">
        <ele>1493.800000</ele>
        <time>2015-08-05T14:45:20Z</time>
        <speed>7.833000</speed>
      </trkpt>
      <trkpt lat="46.047889211" lon="7.232983302">
        <ele>1492.600000</ele>
        <time>2015-08-05T14:45:21Z</time>
        <speed>7.300000</speed>
      </trkpt>
      <trkpt lat="46.047908154" lon="7.233028480">
        <ele>1491.600000</ele>
        <time>2015-08-05T14:45:22Z</time>
        <speed>6.388000</speed>
      </trkpt>
      <trkpt lat="46.047920224" lon="7.233033761">
        <ele>1490.400000</ele>
        <time>2015-08-05T14:45:23Z</time>
        <speed>0.000000</speed>
      </trkpt>
      <trkpt lat="46.047952243" lon="7.233018674">
        <ele>1489.200000</ele>
        <time>2015-08-05T14:45:24Z</time>
        <speed>4.435000</speed>
      </trkpt>
      <trkpt lat="46.047964481" lon="7.232981626">
        <ele>1488.000000</ele>
        <time>2015-08-05T14:45:25Z</time>
        <speed>4.143000</speed>
      </trkpt>
      <trkpt lat="46.047990046" lon="7.232884479">
        <ele>1487.600000</ele>
        <time>2015-08-05T14:45:27Z</time>
        <speed>4.019000</speed>
      </trkpt>
      <trkpt lat="46.048003708" lon="7.232814239">
        <ele>1487.200000</ele>
        <time>2015-08-05T14:45:28Z</time>
        <speed>4.490000</speed>
      </trkpt>
      <trkpt lat="46.048017790" lon="7.232726229">
        <ele>1486.800000</ele>
        <time>2015-08-05T14:45:29Z</time>
        <speed>5.461000</speed>
      </trkpt>
      <trkpt lat="46.048030027" lon="7.232633777">
        <ele>1486.200000</ele>
        <time>2015-08-05T14:45:30Z</time>
        <speed>6.604000</speed>
      </trkpt>
      <trkpt lat="46.048031871" lon="7.232544342">
        <ele>1485.400000</ele>
        <time>2015-08-05T14:45:31Z</time>
        <speed>7.131000</speed>
      </trkpt>
      <trkpt lat="46.048035978" lon="7.232484411">
        <ele>1484.800000</ele>
        <time>2015-08-05T14:45:32Z</time>
        <speed>6.407000</speed>
      </trkpt>
      <trkpt lat="46.048053413" lon="7.232440238">
        <ele>1484.200000</ele>
        <time>2015-08-05T14:45:33Z</time>
        <speed>6.407000</speed>
      </trkpt>
      <trkpt lat="46.048064309" lon="7.232433784">
        <ele>1483.600000</ele>
        <time>2015-08-05T14:45:34Z</time>
        <speed>6.407000</speed>
      </trkpt>
      <trkpt lat="46.048074619" lon="7.232482735">
        <ele>1483.000000</ele>
        <time>2015-08-05T14:45:35Z</time>
        <speed>4.128000</speed>
      </trkpt>
      <trkpt lat="46.048091802" lon="7.232548281">
        <ele>1482.600000</ele>
        <time>2015-08-05T14:45:36Z</time>
        <speed>4.284000</speed>
      </trkpt>
      <trkpt lat="46.048120133" lon="7.232622126">
        <ele>1481.800000</ele>
        <time>2015-08-05T14:45:37Z</time>
        <speed>5.184000</speed>
      </trkpt>
      <trkpt lat="46.048163467" lon="7.232710303">
        <ele>1481.200000</ele>
        <time>2015-08-05T14:45:38Z</time>
        <speed>6.052000</speed>
      </trkpt>
      <trkpt lat="46.048203365" lon="7.232806025">
        <ele>1480.000000</ele>
        <time>2015-08-05T14:45:39Z</time>
        <speed>9.312000</speed>
      </trkpt>
      <trkpt lat="46.048233791" lon="7.232895627">
        <ele>1478.800000</ele>
        <time>2015-08-05T14:45:40Z</time>
        <speed>7.584000</speed>
      </trkpt>
      <trkpt lat="46.048263212" lon="7.232949104">
        <ele>1476.200000</ele>
        <time>2015-08-05T14:45:41Z</time>
        <speed>8.039000</speed>
      </trkpt>
      <trkpt lat="46.048302858" lon="7.232953798">
        <ele>1475.000000</ele>
        <time>2015-08-05T14:45:42Z</time>
        <speed>5.248000</speed>
      </trkpt>
      <trkpt lat="46.048323226" lon="7.232916750">
        <ele>1473.800000</ele>
        <time>2015-08-05T14:45:43Z</time>
        <speed>4.557000</speed>
      </trkpt>
      <trkpt lat="46.048338900" lon="7.232861010">
        <ele>1472.400000</ele>
        <time>2015-08-05T14:45:44Z</time>
        <speed>5.098000</speed>
      </trkpt>
      <trkpt lat="46.048353820" lon="7.232778364">
        <ele>1472.000000</ele>
        <time>2015-08-05T14:45:45Z</time>
        <speed>4.538000</speed>
      </trkpt>
      <trkpt lat="46.048364633" lon="7.232688762">
        <ele>1471.600000</ele>
        <time>2015-08-05T14:45:46Z</time>
        <speed>6.749000</speed>
      </trkpt>
      <trkpt lat="46.048379385" lon="7.232600417">
        <ele>1470.800000</ele>
        <time>2015-08-05T14:45:47Z</time>
        <speed>7.251000</speed>
      </trkpt>
      <trkpt lat="46.048398999" lon="7.232505366">
        <ele>1470.000000</ele>
        <time>2015-08-05T14:45:48Z</time>
        <speed>7.376000</speed>
      </trkpt>
      <trkpt lat="46.048399250" lon="7.232415763">
        <ele>1469.400000</ele>
        <time>2015-08-05T14:45:49Z</time>
        <speed>7.060000</speed>
      </trkpt>
      <trkpt lat="46.048408219" lon="7.232346277">
        <ele>1468.600000</ele>
        <time>2015-08-05T14:45:50Z</time>
        <speed>6.946000</speed>
      </trkpt>
      <trkpt lat="46.048439064" lon="7.232315516">
        <ele>1468.000000</ele>
        <time>2015-08-05T14:45:51Z</time>
        <speed>5.313000</speed>
      </trkpt>
      <trkpt lat="46.048468401" lon="7.232339404">
        <ele>1467.600000</ele>
        <time>2015-08-05T14:45:52Z</time>
        <speed>4.845000</speed>
      </trkpt>
      <trkpt lat="46.048491870" lon="7.232404196">
        <ele>1467.000000</ele>
        <time>2015-08-05T14:45:53Z</time>
        <speed>5.929000</speed>
      </trkpt>
      <trkpt lat="46.048511400" lon="7.232468653">
        <ele>1466.400000</ele>
        <time>2015-08-05T14:45:54Z</time>
        <speed>4.991000</speed>
      </trkpt>
      <trkpt lat="46.048541072" lon="7.232533278">
        <ele>1466.000000</ele>
        <time>2015-08-05T14:45:55Z</time>
        <speed>5.273000</speed>
      </trkpt>
      <trkpt lat="46.048574180" lon="7.232604440">
        <ele>1465.400000</ele>
        <time>2015-08-05T14:45:56Z</time>
        <speed>5.489000</speed>
      </trkpt>
      <trkpt lat="46.048610642" lon="7.232694881">
        <ele>1464.800000</ele>
        <time>2015-08-05T14:45:57Z</time>
        <speed>6.544000</speed>
      </trkpt>
      <trkpt lat="46.048646349" lon="7.232790183">
        <ele>1464.000000</ele>
        <time>2015-08-05T14:45:58Z</time>
        <speed>7.452000</speed>
      </trkpt>
      <trkpt lat="46.048673087" lon="7.232874253">
        <ele>1463.200000</ele>
        <time>2015-08-05T14:45:59Z</time>
        <speed>8.223000</speed>
      </trkpt>
      <trkpt lat="46.048695550" lon="7.232940806">
        <ele>1462.200000</ele>
        <time>2015-08-05T14:46:00Z</time>
        <speed>7.979000</speed>
      </trkpt>
      <trkpt lat="46.048695131" lon="7.233021440">
        <ele>1461.200000</ele>
        <time>2015-08-05T14:46:01Z</time>
        <speed>6.350000</speed>
      </trkpt>
      <trkpt lat="46.048676188" lon="7.233108276">
        <ele>1460.200000</ele>
        <time>2015-08-05T14:46:02Z</time>
        <speed>6.624000</speed>
      </trkpt>
      <trkpt lat="46.048640900" lon="7.233193520">
        <ele>1459.400000</ele>
        <time>2015-08-05T14:46:03Z</time>
        <speed>7.178000</speed>
      </trkpt>
      <trkpt lat="46.048620281" lon="7.233277758">
        <ele>1458.400000</ele>
        <time>2015-08-05T14:46:04Z</time>
        <speed>8.039000</speed>
      </trkpt>
      <trkpt lat="46.048614414" lon="7.233364092">
        <ele>1457.400000</ele>
        <time>2015-08-05T14:46:05Z</time>
        <speed>7.037000</speed>
      </trkpt>
      <trkpt lat="46.048615587" lon="7.233448414">
        <ele>1455.400000</ele>
        <time>2015-08-05T14:46:06Z</time>
        <speed>6.465000</speed>
      </trkpt>
      <trkpt lat="46.048611731" lon="7.233531059">
        <ele>1454.400000</ele>
        <time>2015-08-05T14:46:07Z</time>
        <speed>6.484000</speed>
      </trkpt>
      <trkpt lat="46.048603601" lon="7.233613789">
        <ele>1453.200000</ele>
        <time>2015-08-05T14:46:08Z</time>
        <speed>6.369000</speed>
      </trkpt>
      <trkpt lat="46.048596560" lon="7.233703475">
        <ele>1452.200000</ele>
        <time>2015-08-05T14:46:09Z</time>
        <speed>6.771000</speed>
      </trkpt>
      <trkpt lat="46.048591112" lon="7.233790647">
        <ele>1450.800000</ele>
        <time>2015-08-05T14:46:10Z</time>
        <speed>6.388000</speed>
      </trkpt>
      <trkpt lat="46.048579712" lon="7.233884943">
        <ele>1449.600000</ele>
        <time>2015-08-05T14:46:11Z</time>
        <speed>7.300000</speed>
      </trkpt>
      <trkpt lat="46.048558506" lon="7.233974630">
        <ele>1448.000000</ele>
        <time>2015-08-05T14:46:12Z</time>
        <speed>7.805000</speed>
      </trkpt>
      <trkpt lat="46.048528164" lon="7.234050905">
        <ele>1446.600000</ele>
        <time>2015-08-05T14:46:13Z</time>
        <speed>7.478000</speed>
      </trkpt>
      <trkpt lat="46.048503940" lon="7.234116954">
        <ele>1445.000000</ele>
        <time>2015-08-05T14:46:14Z</time>
        <speed>6.426000</speed>
      </trkpt>
      <trkpt lat="46.048499414" lon="7.234173197">
        <ele>1443.400000</ele>
        <time>2015-08-05T14:46:15Z</time>
        <speed>6.350000</speed>
      </trkpt>
      <trkpt lat="46.048526152" lon="7.234216783">
        <ele>1442.600000</ele>
        <time>2015-08-05T14:46:16Z</time>
        <speed>5.393000</speed>
      </trkpt>
      <trkpt lat="46.048554315" lon="7.234204042">
        <ele>1442.000000</ele>
        <time>2015-08-05T14:46:17Z</time>
        <speed>4.957000</speed>
      </trkpt>
      <trkpt lat="46.048572001" lon="7.234186021">
        <ele>1441.200000</ele>
        <time>2015-08-05T14:46:18Z</time>
        <speed>4.371000</speed>
      </trkpt>
      <trkpt lat="46.048590190" lon="7.234155595">
        <ele>1440.400000</ele>
        <time>2015-08-05T14:46:19Z</time>
        <speed>3.819000</speed>
      </trkpt>
      <trkpt lat="46.048604355" lon="7.234113183">
        <ele>1439.600000</ele>
        <time>2015-08-05T14:46:20Z</time>
        <speed>3.819000</speed>
      </trkpt>
      <trkpt lat="46.048624639" lon="7.234060125">
        <ele>1439.600000</ele>
        <time>2015-08-05T14:46:21Z</time>
        <speed>4.012000</speed>
      </trkpt>
      <trkpt lat="46.048652132" lon="7.234011678">
        <ele>1439.600000</ele>
        <time>2015-08-05T14:46:22Z</time>
        <speed>4.616000</speed>
      </trkpt>
      <trkpt lat="46.048714074" lon="7.233915789">
        <ele>1439.200000</ele>
        <time>2015-08-05T14:46:24Z</time>
        <speed>5.517000</speed>
      </trkpt>
      <trkpt lat="46.048745255" lon="7.233871784">
        <ele>1438.800000</ele>
        <time>2015-08-05T14:46:25Z</time>
        <speed>5.326000</speed>
      </trkpt>
      <trkpt lat="46.048773251" lon="7.233821744">
        <ele>1438.400000</ele>
        <time>2015-08-05T14:46:26Z</time>
        <speed>5.086000</speed>
      </trkpt>
      <trkpt lat="46.048801498" lon="7.233766675">
        <ele>1438.000000</ele>
        <time>2015-08-05T14:46:27Z</time>
        <speed>5.286000</speed>
      </trkpt>
      <trkpt lat="46.048832175" lon="7.233712779">
        <ele>1437.600000</ele>
        <time>2015-08-05T14:46:28Z</time>
        <speed>5.447000</speed>
      </trkpt>
      <trkpt lat="46.048866625" lon="7.233677994">
        <ele>1437.600000</ele>
        <time>2015-08-05T14:46:29Z</time>
        <speed>5.300000</speed>
      </trkpt>
      <trkpt lat="46.048934183" lon="7.233715880">
        <ele>1437.600000</ele>
        <time>2015-08-05T14:46:31Z</time>
        <speed>4.453000</speed>
      </trkpt>
      <trkpt lat="46.048894788" lon="7.233828114">
        <ele>1437.200000</ele>
        <time>2015-08-05T14:46:33Z</time>
        <speed>5.197000</speed>
      </trkpt>
      <trkpt lat="46.048865871" lon="7.233898271">
        <ele>1436.800000</ele>
        <time>2015-08-05T14:46:34Z</time>
        <speed>5.503000</speed>
      </trkpt>
      <trkpt lat="46.048837456" lon="7.233979575">
        <ele>1436.000000</ele>
        <time>2015-08-05T14:46:35Z</time>
        <speed>6.728000</speed>
      </trkpt>
      <trkpt lat="46.048827901" lon="7.234072782">
        <ele>1435.200000</ele>
        <time>2015-08-05T14:46:36Z</time>
        <speed>7.107000</speed>
      </trkpt>
      <trkpt lat="46.048826811" lon="7.234154589">
        <ele>1434.600000</ele>
        <time>2015-08-05T14:46:37Z</time>
        <speed>7.557000</speed>
      </trkpt>
      <trkpt lat="46.048826643" lon="7.234224494">
        <ele>1433.600000</ele>
        <time>2015-08-05T14:46:38Z</time>
        <speed>6.771000</speed>
      </trkpt>
      <trkpt lat="46.048855142" lon="7.234278725">
        <ele>1432.800000</ele>
        <time>2015-08-05T14:46:39Z</time>
        <speed>5.832000</speed>
      </trkpt>
      <trkpt lat="46.048897554" lon="7.234294986">
        <ele>1432.000000</ele>
        <time>2015-08-05T14:46:40Z</time>
        <speed>5.575000</speed>
      </trkpt>
      <trkpt lat="46.048952623" lon="7.234267829">
        <ele>1431.200000</ele>
        <time>2015-08-05T14:46:41Z</time>
        <speed>4.991000</speed>
      </trkpt>
      <trkpt lat="46.049008950" lon="7.234219130">
        <ele>1430.200000</ele>
        <time>2015-08-05T14:46:42Z</time>
        <speed>5.832000</speed>
      </trkpt>
      <trkpt lat="46.049064773" lon="7.234155930">
        <ele>1429.400000</ele>
        <time>2015-08-05T14:46:43Z</time>
        <speed>6.728000</speed>
      </trkpt>
      <trkpt lat="46.049125039" lon="7.234081080">
        <ele>1428.400000</ele>
        <time>2015-08-05T14:46:44Z</time>
        <speed>7.060000</speed>
      </trkpt>
      <trkpt lat="46.049192010" lon="7.234014192">
        <ele>1427.000000</ele>
        <time>2015-08-05T14:46:45Z</time>
        <speed>8.450000</speed>
      </trkpt>
      <trkpt lat="46.049259988" lon="7.233975133">
        <ele>1425.800000</ele>
        <time>2015-08-05T14:46:46Z</time>
        <speed>8.760000</speed>
      </trkpt>
      <trkpt lat="46.049321343" lon="7.233953759">
        <ele>1424.600000</ele>
        <time>2015-08-05T14:46:47Z</time>
        <speed>8.551000</speed>
      </trkpt>
      <trkpt lat="46.049379933" lon="7.233934061">
        <ele>1423.400000</ele>
        <time>2015-08-05T14:46:48Z</time>
        <speed>7.920000</speed>
      </trkpt>
      <trkpt lat="46.049441037" lon="7.233891397">
        <ele>1422.200000</ele>
        <time>2015-08-05T14:46:49Z</time>
        <speed>6.857000</speed>
      </trkpt>
      <trkpt lat="46.049493508" lon="7.233823085">
        <ele>1421.000000</ele>
        <time>2015-08-05T14:46:50Z</time>
        <speed>7.721000</speed>
      </trkpt>
      <trkpt lat="46.049537680" lon="7.233751252">
        <ele>1419.800000</ele>
        <time>2015-08-05T14:46:51Z</time>
        <speed>8.223000</speed>
      </trkpt>
      <trkpt lat="46.049569531" lon="7.233700961">
        <ele>1418.600000</ele>
        <time>2015-08-05T14:46:52Z</time>
        <speed>7.251000</speed>
      </trkpt>
      <trkpt lat="46.049597778" lon="7.233658716">
        <ele>1417.200000</ele>
        <time>2015-08-05T14:46:53Z</time>
        <speed>5.880000</speed>
      </trkpt>
      <trkpt lat="46.049611357" lon="7.233632313">
        <ele>1416.200000</ele>
        <time>2015-08-05T14:46:54Z</time>
        <speed>4.945000</speed>
      </trkpt>
      <trkpt lat="46.049612279" lon="7.233605407">
        <ele>1415.200000</ele>
        <time>2015-08-05T14:46:55Z</time>
        <speed>3.960000</speed>
      </trkpt>
      <trkpt lat="46.049604568" lon="7.233598869">
        <ele>1413.200000</ele>
        <time>2015-08-05T14:46:56Z</time>
        <speed>3.111000</speed>
      </trkpt>
      <trkpt lat="46.049605741" lon="7.233598953">
        <ele>1412.000000</ele>
        <time>2015-08-05T14:46:57Z</time>
        <speed>2.542000</speed>
      </trkpt>
      <trkpt lat="46.049606998" lon="7.233595516">
        <ele>1412.000000</ele>
        <time>2015-08-05T14:46:58Z</time>
        <speed>2.542000</speed>
      </trkpt>
      <trkpt lat="46.049610603" lon="7.233589230">
        <ele>1412.000000</ele>
        <time>2015-08-05T14:47:04Z</time>
        <speed>0.000000</speed>
      </trkpt>
      <trkpt lat="46.049610519" lon="7.233572801">
        <ele>1412.000000</ele>
        <time>2015-08-05T14:47:09Z</time>
        <speed>0.000000</speed>
      </trkpt>
      <trkpt lat="46.049622254" lon="7.233547069">
        <ele>1412.000000</ele>
        <time>2015-08-05T14:47:15Z</time>
        <speed>0.000000</speed>
      </trkpt>
      <trkpt lat="46.049627953" lon="7.233543045">
        <ele>1412.000000</ele>
        <time>2015-08-05T14:47:24Z</time>
        <speed>0.000000</speed>
      </trkpt>
      <trkpt lat="46.049633653" lon="7.233527958">
        <ele>1411.600000</ele>
        <time>2015-08-05T14:47:25Z</time>
        <speed>0.000000</speed>
      </trkpt>
      <trkpt lat="46.049646393" lon="7.233513876">
        <ele>1411.200000</ele>
        <time>2015-08-05T14:47:26Z</time>
        <speed>0.000000</speed>
      </trkpt>
      <trkpt lat="46.049677239" lon="7.233488647">
        <ele>1410.800000</ele>
        <time>2015-08-05T14:47:27Z</time>
        <speed>2.608000</speed>
      </trkpt>
      <trkpt lat="46.049695344" lon="7.233474314">
        <ele>1410.400000</ele>
        <time>2015-08-05T14:47:28Z</time>
        <speed>3.867000</speed>
      </trkpt>
      <trkpt lat="46.049710431" lon="7.233452689">
        <ele>1410.000000</ele>
        <time>2015-08-05T14:47:29Z</time>
        <speed>4.080000</speed>
      </trkpt>
      <trkpt lat="46.049711856" lon="7.233441122">
        <ele>1409.400000</ele>
        <time>2015-08-05T14:47:30Z</time>
        <speed>4.004000</speed>
      </trkpt>
      <trkpt lat="46.049716047" lon="7.233430309">
        <ele>1408.800000</ele>
        <time>2015-08-05T14:47:31Z</time>
        <speed>3.524000</speed>
      </trkpt>
      <trkpt lat="46.049723507" lon="7.233418993">
        <ele>1408.400000</ele>
        <time>2015-08-05T14:47:32Z</time>
        <speed>2.773000</speed>
      </trkpt>
      <trkpt lat="46.049722836" lon="7.233410108">
        <ele>1407.800000</ele>
        <time>2015-08-05T14:47:33Z</time>
        <speed>1.860000</speed>
      </trkpt>
      <trkpt lat="46.049720825" lon="7.233386472">
        <ele>1407.800000</ele>
        <time>2015-08-05T14:47:36Z</time>
        <speed>0.868000</speed>
      </trkpt>
      <trkpt lat="46.049721244" lon="7.233379766">
        <ele>1407.800000</ele>
        <time>2015-08-05T14:47:37Z</time>
        <speed>2.866000</speed>
      </trkpt>
      <trkpt lat="46.049721411" lon="7.233380017">
        <ele>1407.800000</ele>
        <time>2015-08-05T14:47:44Z</time>
        <speed>0.000000</speed>
      </trkpt>
      <trkpt lat="46.049721411" lon="7.233380017">
        <ele>1407.200000</ele>
        <time>2015-08-05T14:47:48Z</time>
        <speed>0.000000</speed>
      </trkpt>
      <trkpt lat="46.049721411" lon="7.233380017">
        <ele>1406.800000</ele>
        <time>2015-08-05T14:47:49Z</time>
        <speed>0.000000</speed>
      </trkpt>
      <trkpt lat="46.049721411" lon="7.233380017">
        <ele>1406.200000</ele>
        <time>2015-08-05T14:47:50Z</time>
        <speed>0.000000</speed>
      </trkpt>
      <trkpt lat="46.049721411" lon="7.233380017">
        <ele>1406.400000</ele>
        <time>2015-08-05T14:47:51Z</time>
        <speed>0.000000</speed>
      </trkpt>
      <trkpt lat="46.049721411" lon="7.233380017">
        <ele>1406.600000</ele>
        <time>2015-08-05T14:47:52Z</time>
        <speed>0.000000</speed>
      </trkpt>
      <trkpt lat="46.049721411" lon="7.233380017">
        <ele>1407.000000</ele>
        <time>2015-08-05T14:47:53Z</time>
        <speed>0.000000</speed>
      </trkpt>
      <trkpt lat="46.049721411" lon="7.233380017">
        <ele>1407.200000</ele>
        <time>2015-08-05T14:47:54Z</time>
        <speed>0.000000</speed>
      </trkpt>
      <trkpt lat="46.049721411" lon="7.233380017">
        <ele>1407.400000</ele>
        <time>2015-08-05T14:47:55Z</time>
        <speed>0.000000</speed>
      </trkpt>
      <trkpt lat="46.049721411" lon="7.233380017">
        <ele>1407.400000</ele>
        <time>2015-08-05T14:48:01Z</time>
        <speed>0.000000</speed>
      </trkpt>
      <trkpt lat="46.049721411" lon="7.233380017">
        <ele>1407.000000</ele>
        <time>2015-08-05T14:48:03Z</time>
        <speed>0.000000</speed>
      </trkpt>
      <trkpt lat="46.049721411" lon="7.233380017">
        <ele>1406.600000</ele>
        <time>2015-08-05T14:48:04Z</time>
        <speed>0.000000</speed>
      </trkpt>
      <trkpt lat="46.049721411" lon="7.233380017">
        <ele>1406.200000</ele>
        <time>2015-08-05T14:48:05Z</time>
        <speed>0.000000</speed>
      </trkpt>
      <trkpt lat="46.049721411" lon="7.233380017">
        <ele>1405.800000</ele>
        <time>2015-08-05T14:48:06Z</time>
        <speed>0.000000</speed>
      </trkpt>
      <trkpt lat="46.049721411" lon="7.233380017">
        <ele>1405.400000</ele>
        <time>2015-08-05T14:48:07Z</time>
        <speed>0.000000</speed>
      </trkpt>
      <trkpt lat="46.049722585" lon="7.233380269">
        <ele>1405.400000</ele>
        <time>2015-08-05T14:48:14Z</time>
        <speed>4.519000</speed>
      </trkpt>
      <trkpt lat="46.049721998" lon="7.233377503">
        <ele>1405.400000</ele>
        <time>2015-08-05T14:48:15Z</time>
        <speed>4.196000</speed>
      </trkpt>
      <trkpt lat="46.049742618" lon="7.233321260">
        <ele>1405.400000</ele>
        <time>2015-08-05T14:48:18Z</time>
        <speed>4.616000</speed>
      </trkpt>
      <trkpt lat="46.049742701" lon="7.233294857">
        <ele>1405.400000</ele>
        <time>2015-08-05T14:48:19Z</time>
        <speed>2.125000</speed>
      </trkpt>
      <trkpt lat="46.049747647" lon="7.233169715">
        <ele>1405.400000</ele>
        <time>2015-08-05T14:48:24Z</time>
        <speed>1.787000</speed>
      </trkpt>
      <trkpt lat="46.049754436" lon="7.233135266">
        <ele>1405.400000</ele>
        <time>2015-08-05T14:48:26Z</time>
        <speed>1.767000</speed>
      </trkpt>
      <trkpt lat="46.049759298" lon="7.233099056">
        <ele>1405.400000</ele>
        <time>2015-08-05T14:48:28Z</time>
        <speed>1.577000</speed>
      </trkpt>
      <trkpt lat="46.049761309" lon="7.233057063">
        <ele>1405.400000</ele>
        <time>2015-08-05T14:48:30Z</time>
        <speed>1.599000</speed>
      </trkpt>
      <trkpt lat="46.049759214" lon="7.233019009">
        <ele>1405.400000</ele>
        <time>2015-08-05T14:48:32Z</time>
        <speed>1.599000</speed>
      </trkpt>
      <trkpt lat="46.049760303" lon="7.232998892">
        <ele>1405.400000</ele>
        <time>2015-08-05T14:48:34Z</time>
        <speed>1.915000</speed>
      </trkpt>
      <trkpt lat="46.049760303" lon="7.232999060">
        <ele>1405.800000</ele>
        <time>2015-08-05T14:48:35Z</time>
        <speed>1.915000</speed>
      </trkpt>
      <trkpt lat="46.049760387" lon="7.232999647">
        <ele>1406.200000</ele>
        <time>2015-08-05T14:48:36Z</time>
        <speed>0.000000</speed>
      </trkpt>
      <trkpt lat="46.049760387" lon="7.232999647">
        <ele>1406.600000</ele>
        <time>2015-08-05T14:48:37Z</time>
        <speed>0.000000</speed>
      </trkpt>
      <trkpt lat="46.049760387" lon="7.232999647">
        <ele>1407.400000</ele>
        <time>2015-08-05T14:48:38Z</time>
        <speed>0.000000</speed>
      </trkpt>
      <trkpt lat="46.049760387" lon="7.232999647">
        <ele>1407.400000</ele>
        <time>2015-08-05T14:48:39Z</time>
        <speed>0.000000</speed>
      </trkpt>
      <trkpt lat="46.049757035" lon="7.232992690">
        <ele>1407.400000</ele>
        <time>2015-08-05T14:48:48Z</time>
        <speed>0.000000</speed>
      </trkpt>
      <trkpt lat="46.049757035" lon="7.232992690">
        <ele>1407.400000</ele>
        <time>2015-08-05T14:48:58Z</time>
        <speed>0.000000</speed>
      </trkpt>
      <trkpt lat="46.049757035" lon="7.232992690">
        <ele>1407.400000</ele>
        <time>2015-08-05T14:49:03Z</time>
        <speed>0.000000</speed>
      </trkpt>
      <trkpt lat="46.049759549" lon="7.232912894">
        <ele>1407.400000</ele>
        <time>2015-08-05T14:49:07Z</time>
        <speed>1.481000</speed>
      </trkpt>
      <trkpt lat="46.049755274" lon="7.232786579">
        <ele>1407.400000</ele>
        <time>2015-08-05T14:49:12Z</time>
        <speed>2.034000</speed>
      </trkpt>
      <trkpt lat="46.049761142" lon="7.232643835">
        <ele>1407.400000</ele>
        <time>2015-08-05T14:49:18Z</time>
        <speed>2.204000</speed>
      </trkpt>
      <trkpt lat="46.049784276" lon="7.232521208">
        <ele>1407.400000</ele>
        <time>2015-08-05T14:49:23Z</time>
        <speed>2.680000</speed>
      </trkpt>
      <trkpt lat="46.049766506" lon="7.232382571">
        <ele>1407.400000</ele>
        <time>2015-08-05T14:49:27Z</time>
        <speed>2.683000</speed>
      </trkpt>
      <trkpt lat="46.049755945" lon="7.232351306">
        <ele>1407.400000</ele>
        <time>2015-08-05T14:49:28Z</time>
        <speed>2.835000</speed>
      </trkpt>
      <trkpt lat="46.049746390" lon="7.232313253">
        <ele>1407.800000</ele>
        <time>2015-08-05T14:49:29Z</time>
        <speed>2.806000</speed>
      </trkpt>
      <trkpt lat="46.049728704" lon="7.232277630">
        <ele>1408.600000</ele>
        <time>2015-08-05T14:49:30Z</time>
        <speed>2.703000</speed>
      </trkpt>
      <trkpt lat="46.049711521" lon="7.232245443">
        <ele>1409.000000</ele>
        <time>2015-08-05T14:49:31Z</time>
        <speed>2.960000</speed>
      </trkpt>
      <trkpt lat="46.049691656" lon="7.232211329">
        <ele>1409.400000</ele>
        <time>2015-08-05T14:49:32Z</time>
        <speed>2.948000</speed>
      </trkpt>
      <trkpt lat="46.049672461" lon="7.232174784">
        <ele>1409.400000</ele>
        <time>2015-08-05T14:49:33Z</time>
        <speed>2.960000</speed>
      </trkpt>
      <trkpt lat="46.049571459" lon="7.232041092">
        <ele>1409.400000</ele>
        <time>2015-08-05T14:49:37Z</time>
        <speed>3.166000</speed>
      </trkpt>
      <trkpt lat="46.049527287" lon="7.231992729">
        <ele>1409.400000</ele>
        <time>2015-08-05T14:49:39Z</time>
        <speed>3.124000</speed>
      </trkpt>
      <trkpt lat="46.049460399" lon="7.231886614">
        <ele>1409.800000</ele>
        <time>2015-08-05T14:49:42Z</time>
        <speed>3.044000</speed>
      </trkpt>
      <trkpt lat="46.049437684" lon="7.231852416">
        <ele>1410.400000</ele>
        <time>2015-08-05T14:49:43Z</time>
        <speed>2.989000</speed>
      </trkpt>
      <trkpt lat="46.049415304" lon="7.231821738">
        <ele>1410.800000</ele>
        <time>2015-08-05T14:49:44Z</time>
        <speed>2.948000</speed>
      </trkpt>
      <trkpt lat="46.049396697" lon="7.231796005">
        <ele>1411.200000</ele>
        <time>2015-08-05T14:49:45Z</time>
        <speed>2.989000</speed>
      </trkpt>
      <trkpt lat="46.049380939" lon="7.231778152">
        <ele>1411.600000</ele>
        <time>2015-08-05T14:49:46Z</time>
        <speed>3.102000</speed>
      </trkpt>
      <trkpt lat="46.049338778" lon="7.231759293">
        <ele>1411.600000</ele>
        <time>2015-08-05T14:49:48Z</time>
        <speed>3.106000</speed>
      </trkpt>
      <trkpt lat="46.049227801" lon="7.231731465">
        <ele>1411.600000</ele>
        <time>2015-08-05T14:49:52Z</time>
        <speed>3.124000</speed>
      </trkpt>
      <trkpt lat="46.049204751" lon="7.231723334">
        <ele>1411.600000</ele>
        <time>2015-08-05T14:49:53Z</time>
        <speed>3.023000</speed>
      </trkpt>
      <trkpt lat="46.049153202" lon="7.231716880">
        <ele>1412.000000</ele>
        <time>2015-08-05T14:49:55Z</time>
        <speed>3.170000</speed>
      </trkpt>
      <trkpt lat="46.049129481" lon="7.231714952">
        <ele>1412.400000</ele>
        <time>2015-08-05T14:49:56Z</time>
        <speed>3.057000</speed>
      </trkpt>
      <trkpt lat="46.049103078" lon="7.231718808">
        <ele>1412.800000</ele>
        <time>2015-08-05T14:49:57Z</time>
        <speed>3.093000</speed>
      </trkpt>
      <trkpt lat="46.049077765" lon="7.231718389">
        <ele>1413.200000</ele>
        <time>2015-08-05T14:49:58Z</time>
        <speed>3.084000</speed>
      </trkpt>
      <trkpt lat="46.049055302" lon="7.231713611">
        <ele>1413.800000</ele>
        <time>2015-08-05T14:49:59Z</time>
        <speed>3.302000</speed>
      </trkpt>
      <trkpt lat="46.048920018" lon="7.231675977">
        <ele>1413.800000</ele>
        <time>2015-08-05T14:50:04Z</time>
        <speed>3.138000</speed>
      </trkpt>
      <trkpt lat="46.048889508" lon="7.231655692">
        <ele>1413.800000</ele>
        <time>2015-08-05T14:50:05Z</time>
        <speed>3.170000</speed>
      </trkpt>
      <trkpt lat="46.048760510" lon="7.231556618">
        <ele>1414.200000</ele>
        <time>2015-08-05T14:50:10Z</time>
        <speed>3.232000</speed>
      </trkpt>
      <trkpt lat="46.048728491" lon="7.231537256">
        <ele>1414.600000</ele>
        <time>2015-08-05T14:50:11Z</time>
        <speed>3.115000</speed>
      </trkpt>
      <trkpt lat="46.048696640" lon="7.231515128">
        <ele>1415.000000</ele>
        <time>2015-08-05T14:50:12Z</time>
        <speed>3.267000</speed>
      </trkpt>
      <trkpt lat="46.048666130" lon="7.231494257">
        <ele>1415.400000</ele>
        <time>2015-08-05T14:50:13Z</time>
        <speed>3.272000</speed>
      </trkpt>
      <trkpt lat="46.048637799" lon="7.231491072">
        <ele>1415.800000</ele>
        <time>2015-08-05T14:50:14Z</time>
        <speed>3.317000</speed>
      </trkpt>
      <trkpt lat="46.048610558" lon="7.231486965">
        <ele>1415.800000</ele>
        <time>2015-08-05T14:50:15Z</time>
        <speed>3.213000</speed>
      </trkpt>
      <trkpt lat="46.048524643" lon="7.231444301">
        <ele>1415.800000</ele>
        <time>2015-08-05T14:50:19Z</time>
        <speed>2.928000</speed>
      </trkpt>
      <trkpt lat="46.048500671" lon="7.231430554">
        <ele>1416.200000</ele>
        <time>2015-08-05T14:50:20Z</time>
        <speed>2.956000</speed>
      </trkpt>
      <trkpt lat="46.048478208" lon="7.231406666">
        <ele>1416.600000</ele>
        <time>2015-08-05T14:50:21Z</time>
        <speed>3.079000</speed>
      </trkpt>
      <trkpt lat="46.048457169" lon="7.231383783">
        <ele>1417.200000</ele>
        <time>2015-08-05T14:50:22Z</time>
        <speed>3.156000</speed>
      </trkpt>
      <trkpt lat="46.048427413" lon="7.231355369">
        <ele>1417.600000</ele>
        <time>2015-08-05T14:50:23Z</time>
        <speed>3.277000</speed>
      </trkpt>
      <trkpt lat="46.048416852" lon="7.231347741">
        <ele>1418.000000</ele>
        <time>2015-08-05T14:50:24Z</time>
        <speed>3.257000</speed>
      </trkpt>
      <trkpt lat="46.048338397" lon="7.231212625">
        <ele>1418.000000</ele>
        <time>2015-08-05T14:50:28Z</time>
        <speed>3.292000</speed>
      </trkpt>
      <trkpt lat="46.048260194" lon="7.231052363">
        <ele>1418.000000</ele>
        <time>2015-08-05T14:50:33Z</time>
        <speed>3.473000</speed>
      </trkpt>
      <trkpt lat="46.048249298" lon="7.231036856">
        <ele>1418.400000</ele>
        <time>2015-08-05T14:50:34Z</time>
        <speed>3.583000</speed>
      </trkpt>
      <trkpt lat="46.048233205" lon="7.231009531">
        <ele>1418.800000</ele>
        <time>2015-08-05T14:50:35Z</time>
        <speed>3.589000</speed>
      </trkpt>
      <trkpt lat="46.048213842" lon="7.230963515">
        <ele>1419.200000</ele>
        <time>2015-08-05T14:50:36Z</time>
        <speed>3.479000</speed>
      </trkpt>
      <trkpt lat="46.048197665" lon="7.230932502">
        <ele>1419.600000</ele>
        <time>2015-08-05T14:50:37Z</time>
        <speed>3.484000</speed>
      </trkpt>
      <trkpt lat="46.048183919" lon="7.230890425">
        <ele>1420.000000</ele>
        <time>2015-08-05T14:50:38Z</time>
        <speed>3.595000</speed>
      </trkpt>
      <trkpt lat="46.048109823" lon="7.230741059">
        <ele>1420.000000</ele>
        <time>2015-08-05T14:50:42Z</time>
        <speed>3.650000</speed>
      </trkpt>
      <trkpt lat="46.048078810" lon="7.230676937">
        <ele>1420.600000</ele>
        <time>2015-08-05T14:50:44Z</time>
        <speed>3.644000</speed>
      </trkpt>
      <trkpt lat="46.048055843" lon="7.230635028">
        <ele>1421.000000</ele>
        <time>2015-08-05T14:50:45Z</time>
        <speed>3.701000</speed>
      </trkpt>
      <trkpt lat="46.048034721" lon="7.230597812">
        <ele>1421.400000</ele>
        <time>2015-08-05T14:50:46Z</time>
        <speed>3.467000</speed>
      </trkpt>
      <trkpt lat="46.048018879" lon="7.230564536">
        <ele>1421.800000</ele>
        <time>2015-08-05T14:50:47Z</time>
        <speed>3.607000</speed>
      </trkpt>
      <trkpt lat="46.047994656" lon="7.230532098">
        <ele>1422.200000</ele>
        <time>2015-08-05T14:50:48Z</time>
        <speed>3.772000</speed>
      </trkpt>
      <trkpt lat="46.047950064" lon="7.230424139">
        <ele>1422.200000</ele>
        <time>2015-08-05T14:50:51Z</time>
        <speed>3.530000</speed>
      </trkpt>
      <trkpt lat="46.047892983" lon="7.230308469">
        <ele>1422.600000</ele>
        <time>2015-08-05T14:50:54Z</time>
        <speed>3.632000</speed>
      </trkpt>
      <trkpt lat="46.047871693" lon="7.230280138">
        <ele>1423.200000</ele>
        <time>2015-08-05T14:50:55Z</time>
        <speed>3.571000</speed>
      </trkpt>
      <trkpt lat="46.047851576" lon="7.230248790">
        <ele>1423.600000</ele>
        <time>2015-08-05T14:50:56Z</time>
        <speed>3.577000</speed>
      </trkpt>
      <trkpt lat="46.047822491" lon="7.230212329">
        <ele>1424.000000</ele>
        <time>2015-08-05T14:50:57Z</time>
        <speed>3.548000</speed>
      </trkpt>
      <trkpt lat="46.047793574" lon="7.230185171">
        <ele>1424.400000</ele>
        <time>2015-08-05T14:50:58Z</time>
        <speed>3.675000</speed>
      </trkpt>
      <trkpt lat="46.047702462" lon="7.230111578">
        <ele>1424.400000</ele>
        <time>2015-08-05T14:51:01Z</time>
        <speed>3.644000</speed>
      </trkpt>
      <trkpt lat="46.047546391" lon="7.230061706">
        <ele>1424.400000</ele>
        <time>2015-08-05T14:51:06Z</time>
        <speed>3.772000</speed>
      </trkpt>
      <trkpt lat="46.047311614" lon="7.230044523">
        <ele>1424.400000</ele>
        <time>2015-08-05T14:51:12Z</time>
        <speed>4.301000</speed>
      </trkpt>
      <trkpt lat="46.047166691" lon="7.230045361">
        <ele>1424.400000</ele>
        <time>2015-08-05T14:51:15Z</time>
        <speed>5.110000</speed>
      </trkpt>
      <trkpt lat="46.047036520" lon="7.230021892">
        <ele>1424.400000</ele>
        <time>2015-08-05T14:51:17Z</time>
        <speed>6.445000</speed>
      </trkpt>
      <trkpt lat="46.046974746" lon="7.229975456">
        <ele>1424.000000</ele>
        <time>2015-08-05T14:51:18Z</time>
        <speed>7.478000</speed>
      </trkpt>
      <trkpt lat="46.046912384" lon="7.229922315">
        <ele>1423.600000</ele>
        <time>2015-08-05T14:51:19Z</time>
        <speed>8.009000</speed>
      </trkpt>
      <trkpt lat="46.046853543" lon="7.229860540">
        <ele>1423.000000</ele>
        <time>2015-08-05T14:51:20Z</time>
        <speed>8.009000</speed>
      </trkpt>
      <trkpt lat="46.046788667" lon="7.229794994">
        <ele>1422.600000</ele>
        <time>2015-08-05T14:51:21Z</time>
        <speed>8.620000</speed>
      </trkpt>
      <trkpt lat="46.046722283" lon="7.229728860">
        <ele>1422.000000</ele>
        <time>2015-08-05T14:51:22Z</time>
        <speed>9.172000</speed>
      </trkpt>
      <trkpt lat="46.046645840" lon="7.229670439">
        <ele>1421.200000</ele>
        <time>2015-08-05T14:51:23Z</time>
        <speed>9.668000</speed>
      </trkpt>
      <trkpt lat="46.046570654" lon="7.229613106">
        <ele>1420.200000</ele>
        <time>2015-08-05T14:51:24Z</time>
        <speed>9.497000</speed>
      </trkpt>
      <trkpt lat="46.046494127" lon="7.229550074">
        <ele>1419.400000</ele>
        <time>2015-08-05T14:51:25Z</time>
        <speed>9.891000</speed>
      </trkpt>
      <trkpt lat="46.046424641" lon="7.229466591">
        <ele>1418.800000</ele>
        <time>2015-08-05T14:51:26Z</time>
        <speed>10.625000</speed>
      </trkpt>
      <trkpt lat="46.046364711" lon="7.229366343">
        <ele>1418.000000</ele>
        <time>2015-08-05T14:51:27Z</time>
        <speed>10.785000</speed>
      </trkpt>
      <trkpt lat="46.046295811" lon="7.229304904">
        <ele>1417.200000</ele>
        <time>2015-08-05T14:51:28Z</time>
        <speed>9.845000</speed>
      </trkpt>
      <trkpt lat="46.046209645" lon="7.229250924">
        <ele>1416.400000</ele>
        <time>2015-08-05T14:51:29Z</time>
        <speed>10.521000</speed>
      </trkpt>
      <trkpt lat="46.046119708" lon="7.229200884">
        <ele>1415.600000</ele>
        <time>2015-08-05T14:51:30Z</time>
        <speed>10.470000</speed>
      </trkpt>
      <trkpt lat="46.046034128" lon="7.229132823">
        <ele>1414.600000</ele>
        <time>2015-08-05T14:51:31Z</time>
        <speed>10.785000</speed>
      </trkpt>
      <trkpt lat="46.045970175" lon="7.229045065">
        <ele>1413.000000</ele>
        <time>2015-08-05T14:51:32Z</time>
        <speed>10.732000</speed>
      </trkpt>
      <trkpt lat="46.045919464" lon="7.228946158">
        <ele>1412.200000</ele>
        <time>2015-08-05T14:51:33Z</time>
        <speed>10.732000</speed>
      </trkpt>
      <trkpt lat="46.045864060" lon="7.228845995">
        <ele>1411.400000</ele>
        <time>2015-08-05T14:51:34Z</time>
        <speed>10.840000</speed>
      </trkpt>
      <trkpt lat="46.045811170" lon="7.228744071">
        <ele>1410.800000</ele>
        <time>2015-08-05T14:51:35Z</time>
        <speed>10.521000</speed>
      </trkpt>
      <trkpt lat="46.045763393" lon="7.228632172">
        <ele>1410.200000</ele>
        <time>2015-08-05T14:51:36Z</time>
        <speed>10.172000</speed>
      </trkpt>
      <trkpt lat="46.045734643" lon="7.228503845">
        <ele>1409.600000</ele>
        <time>2015-08-05T14:51:37Z</time>
        <speed>10.269000</speed>
      </trkpt>
      <trkpt lat="46.045706731" lon="7.228369316">
        <ele>1408.800000</ele>
        <time>2015-08-05T14:51:38Z</time>
        <speed>10.867000</speed>
      </trkpt>
      <trkpt lat="46.045681502" lon="7.228235876">
        <ele>1408.000000</ele>
        <time>2015-08-05T14:51:39Z</time>
        <speed>11.478000</speed>
      </trkpt>
      <trkpt lat="46.045659122" lon="7.228118864">
        <ele>1407.200000</ele>
        <time>2015-08-05T14:51:40Z</time>
        <speed>11.237000</speed>
      </trkpt>
      <trkpt lat="46.045637916" lon="7.228027586">
        <ele>1406.400000</ele>
        <time>2015-08-05T14:51:41Z</time>
        <speed>9.625000</speed>
      </trkpt>
      <trkpt lat="46.045607741" lon="7.227966398">
        <ele>1405.600000</ele>
        <time>2015-08-05T14:51:42Z</time>
        <speed>7.949000</speed>
      </trkpt>
      <trkpt lat="46.045468937" lon="7.227936642">
        <ele>1405.600000</ele>
        <time>2015-08-05T14:51:45Z</time>
        <speed>5.400000</speed>
      </trkpt>
      <trkpt lat="46.045407581" lon="7.227946197">
        <ele>1405.600000</ele>
        <time>2015-08-05T14:51:46Z</time>
        <speed>5.913000</speed>
      </trkpt>
      <trkpt lat="46.045338682" lon="7.227967906">
        <ele>1405.200000</ele>
        <time>2015-08-05T14:51:47Z</time>
        <speed>6.350000</speed>
      </trkpt>
      <trkpt lat="46.045276572" lon="7.227993890">
        <ele>1404.800000</ele>
        <time>2015-08-05T14:51:48Z</time>
        <speed>7.427000</speed>
      </trkpt>
      <trkpt lat="46.045211026" lon="7.228031022">
        <ele>1404.400000</ele>
        <time>2015-08-05T14:51:49Z</time>
        <speed>7.638000</speed>
      </trkpt>
      <trkpt lat="46.045152771" lon="7.228071758">
        <ele>1403.800000</ele>
        <time>2015-08-05T14:51:50Z</time>
        <speed>7.920000</speed>
      </trkpt>
      <trkpt lat="46.045097032" lon="7.228129426">
        <ele>1403.200000</ele>
        <time>2015-08-05T14:51:51Z</time>
        <speed>7.805000</speed>
      </trkpt>
      <trkpt lat="46.045033748" lon="7.228179885">
        <ele>1402.400000</ele>
        <time>2015-08-05T14:51:52Z</time>
        <speed>7.833000</speed>
      </trkpt>
      <trkpt lat="46.044966693" lon="7.228220453">
        <ele>1401.800000</ele>
        <time>2015-08-05T14:51:53Z</time>
        <speed>8.039000</speed>
      </trkpt>
      <trkpt lat="46.044900308" lon="7.228233529">
        <ele>1401.000000</ele>
        <time>2015-08-05T14:51:54Z</time>
        <speed>8.654000</speed>
      </trkpt>
      <trkpt lat="46.044834678" lon="7.228220453">
        <ele>1400.400000</ele>
        <time>2015-08-05T14:51:55Z</time>
        <speed>7.862000</speed>
      </trkpt>
      <trkpt lat="46.044773490" lon="7.228163959">
        <ele>1399.600000</ele>
        <time>2015-08-05T14:51:56Z</time>
        <speed>7.891000</speed>
      </trkpt>
      <trkpt lat="46.044735017" lon="7.228091456">
        <ele>1397.800000</ele>
        <time>2015-08-05T14:51:57Z</time>
        <speed>8.039000</speed>
      </trkpt>
      <trkpt lat="46.044709620" lon="7.228008140">
        <ele>1397.000000</ele>
        <time>2015-08-05T14:51:58Z</time>
        <speed>7.891000</speed>
      </trkpt>
      <trkpt lat="46.044697718" lon="7.227914011">
        <ele>1396.000000</ele>
        <time>2015-08-05T14:51:59Z</time>
        <speed>7.748000</speed>
      </trkpt>
      <trkpt lat="46.044710458" lon="7.227847458">
        <ele>1396.000000</ele>
        <time>2015-08-05T14:52:01Z</time>
        <speed>5.110000</speed>
      </trkpt>
      <trkpt lat="46.044744573" lon="7.227899929">
        <ele>1396.000000</ele>
        <time>2015-08-05T14:52:04Z</time>
        <speed>2.204000</speed>
      </trkpt>
      <trkpt lat="46.044743399" lon="7.227960279">
        <ele>1396.000000</ele>
        <time>2015-08-05T14:52:08Z</time>
        <speed>1.891000</speed>
      </trkpt>
      <trkpt lat="46.044752284" lon="7.227969164">
        <ele>1396.000000</ele>
        <time>2015-08-05T14:52:14Z</time>
        <speed>0.000000</speed>
      </trkpt>
      <trkpt lat="46.044812550" lon="7.227944353">
        <ele>1396.000000</ele>
        <time>2015-08-05T14:52:23Z</time>
        <speed>10.573000</speed>
      </trkpt>
      <trkpt lat="46.044856387" lon="7.227917950">
        <ele>1396.000000</ele>
        <time>2015-08-05T14:52:25Z</time>
        <speed>3.746000</speed>
      </trkpt>
      <trkpt lat="46.044865691" lon="7.227907473">
        <ele>1395.600000</ele>
        <time>2015-08-05T14:52:26Z</time>
        <speed>2.748000</speed>
      </trkpt>
      <trkpt lat="46.044867116" lon="7.227921219">
        <ele>1395.000000</ele>
        <time>2015-08-05T14:52:27Z</time>
        <speed>1.701000</speed>
      </trkpt>
      <trkpt lat="46.044865272" lon="7.227917615">
        <ele>1394.600000</ele>
        <time>2015-08-05T14:52:28Z</time>
        <speed>14.884000</speed>
      </trkpt>
      <trkpt lat="46.044867787" lon="7.227915184">
        <ele>1394.000000</ele>
        <time>2015-08-05T14:52:29Z</time>
        <speed>0.000000</speed>
      </trkpt>
      <trkpt lat="46.044867787" lon="7.227915184">
        <ele>1393.600000</ele>
        <time>2015-08-05T14:52:30Z</time>
        <speed>0.000000</speed>
      </trkpt>
      <trkpt lat="46.044889831" lon="7.227892888">
        <ele>1393.600000</ele>
        <time>2015-08-05T14:52:32Z</time>
        <speed>0.000000</speed>
      </trkpt>
      <trkpt lat="46.044930819" lon="7.227839496">
        <ele>1393.600000</ele>
        <time>2015-08-05T14:52:33Z</time>
        <speed>3.407000</speed>
      </trkpt>
      <trkpt lat="46.044957305" lon="7.227785181">
        <ele>1393.000000</ele>
        <time>2015-08-05T14:52:34Z</time>
        <speed>3.257000</speed>
      </trkpt>
      <trkpt lat="46.044976500" lon="7.227712929">
        <ele>1392.400000</ele>
        <time>2015-08-05T14:52:35Z</time>
        <speed>3.257000</speed>
      </trkpt>
      <trkpt lat="46.045008603" lon="7.227663476">
        <ele>1391.600000</ele>
        <time>2015-08-05T14:52:36Z</time>
        <speed>4.354000</speed>
      </trkpt>
      <trkpt lat="46.045048081" lon="7.227647299">
        <ele>1390.600000</ele>
        <time>2015-08-05T14:52:37Z</time>
        <speed>5.785000</speed>
      </trkpt>
      <trkpt lat="46.045076747" lon="7.227621566">
        <ele>1389.600000</ele>
        <time>2015-08-05T14:52:38Z</time>
        <speed>4.490000</speed>
      </trkpt>
      <trkpt lat="46.045112790" lon="7.227608490">
        <ele>1388.600000</ele>
        <time>2015-08-05T14:52:39Z</time>
        <speed>4.217000</speed>
      </trkpt>
      <trkpt lat="46.045141540" lon="7.227591643">
        <ele>1387.600000</ele>
        <time>2015-08-05T14:52:40Z</time>
        <speed>4.812000</speed>
      </trkpt>
      <trkpt lat="46.045151095" lon="7.227571107">
        <ele>1386.400000</ele>
        <time>2015-08-05T14:52:41Z</time>
        <speed>4.200000</speed>
      </trkpt>
      <trkpt lat="46.045168865" lon="7.227554679">
        <ele>1385.800000</ele>
        <time>2015-08-05T14:52:42Z</time>
        <speed>4.200000</speed>
      </trkpt>
      <trkpt lat="46.045184203" lon="7.227545458">
        <ele>1385.000000</ele>
        <time>2015-08-05T14:52:43Z</time>
        <speed>3.484000</speed>
      </trkpt>
      <trkpt lat="46.045194178" lon="7.227526851">
        <ele>1384.200000</ele>
        <time>2015-08-05T14:52:44Z</time>
        <speed>3.338000</speed>
      </trkpt>
      <trkpt lat="46.045200632" lon="7.227486785">
        <ele>1383.200000</ele>
        <time>2015-08-05T14:52:45Z</time>
        <speed>2.920000</speed>
      </trkpt>
      <trkpt lat="46.045211864" lon="7.227442696">
        <ele>1381.400000</ele>
        <time>2015-08-05T14:52:46Z</time>
        <speed>2.528000</speed>
      </trkpt>
      <trkpt lat="46.045231729" lon="7.227424340">
        <ele>1380.600000</ele>
        <time>2015-08-05T14:52:47Z</time>
        <speed>3.002000</speed>
      </trkpt>
      <trkpt lat="46.045239273" lon="7.227418976">
        <ele>1379.600000</ele>
        <time>2015-08-05T14:52:48Z</time>
        <speed>3.124000</speed>
      </trkpt>
      <trkpt lat="46.045249666" lon="7.227407911">
        <ele>1378.600000</ele>
        <time>2015-08-05T14:52:49Z</time>
        <speed>3.124000</speed>
      </trkpt>
      <trkpt lat="46.045262658" lon="7.227408247">
        <ele>1377.800000</ele>
        <time>2015-08-05T14:52:50Z</time>
        <speed>2.403000</speed>
      </trkpt>
      <trkpt lat="46.045271375" lon="7.227429285">
        <ele>1376.800000</ele>
        <time>2015-08-05T14:52:51Z</time>
        <speed>2.403000</speed>
      </trkpt>
      <trkpt lat="46.045273052" lon="7.227422747">
        <ele>1376.000000</ele>
        <time>2015-08-05T14:52:52Z</time>
        <speed>2.403000</speed>
      </trkpt>
      <trkpt lat="46.045272549" lon="7.227419311">
        <ele>1375.000000</ele>
        <time>2015-08-05T14:52:53Z</time>
        <speed>4.416000</speed>
      </trkpt>
      <trkpt lat="46.045272130" lon="7.227390645">
        <ele>1374.000000</ele>
        <time>2015-08-05T14:52:54Z</time>
        <speed>4.416000</speed>
      </trkpt>
      <trkpt lat="46.045282439" lon="7.227388968">
        <ele>1373.000000</ele>
        <time>2015-08-05T14:52:55Z</time>
        <speed>0.000000</speed>
      </trkpt>
      <trkpt lat="46.045290570" lon="7.227383017">
        <ele>1372.000000</ele>
        <time>2015-08-05T14:52:56Z</time>
        <speed>2.138000</speed>
      </trkpt>
      <trkpt lat="46.045290318" lon="7.227378156">
        <ele>1371.000000</ele>
        <time>2015-08-05T14:52:57Z</time>
        <speed>2.724000</speed>
      </trkpt>
      <trkpt lat="46.045287049" lon="7.227369606">
        <ele>1370.000000</ele>
        <time>2015-08-05T14:52:58Z</time>
        <speed>2.724000</speed>
      </trkpt>
      <trkpt lat="46.045282858" lon="7.227353932">
        <ele>1369.600000</ele>
        <time>2015-08-05T14:52:59Z</time>
        <speed>2.724000</speed>
      </trkpt>
      <trkpt lat="46.045277662" lon="7.227352842">
        <ele>1369.200000</ele>
        <time>2015-08-05T14:53:00Z</time>
        <speed>2.387000</speed>
      </trkpt>
      <trkpt lat="46.045303562" lon="7.227337252">
        <ele>1368.800000</ele>
        <time>2015-08-05T14:53:01Z</time>
        <speed>2.993000</speed>
      </trkpt>
      <trkpt lat="46.045358379" lon="7.227308921">
        <ele>1368.400000</ele>
        <time>2015-08-05T14:53:02Z</time>
        <speed>2.993000</speed>
      </trkpt>
      <trkpt lat="46.045417053" lon="7.227302886">
        <ele>1368.000000</ele>
        <time>2015-08-05T14:53:03Z</time>
        <speed>3.953000</speed>
      </trkpt>
      <trkpt lat="46.045466254" lon="7.227293666">
        <ele>1367.400000</ele>
        <time>2015-08-05T14:53:04Z</time>
        <speed>3.953000</speed>
      </trkpt>
      <trkpt lat="46.045506907" lon="7.227288721">
        <ele>1367.000000</ele>
        <time>2015-08-05T14:53:05Z</time>
        <speed>3.953000</speed>
      </trkpt>
      <trkpt lat="46.045534902" lon="7.227279249">
        <ele>1366.600000</ele>
        <time>2015-08-05T14:53:06Z</time>
        <speed>2.720000</speed>
      </trkpt>
      <trkpt lat="46.045559880" lon="7.227280674">
        <ele>1366.000000</ele>
        <time>2015-08-05T14:53:07Z</time>
        <speed>1.995000</speed>
      </trkpt>
      <trkpt lat="46.045582847" lon="7.227261396">
        <ele>1365.400000</ele>
        <time>2015-08-05T14:53:08Z</time>
        <speed>1.995000</speed>
      </trkpt>
      <trkpt lat="46.045612267" lon="7.227230131">
        <ele>1364.800000</ele>
        <time>2015-08-05T14:53:09Z</time>
        <speed>1.861000</speed>
      </trkpt>
      <trkpt lat="46.045626097" lon="7.227203058">
        <ele>1364.200000</ele>
        <time>2015-08-05T14:53:10Z</time>
        <speed>1.857000</speed>
      </trkpt>
      <trkpt lat="46.045666750" lon="7.227171626">
        <ele>1362.800000</ele>
        <time>2015-08-05T14:53:11Z</time>
        <speed>1.857000</speed>
      </trkpt>
      <trkpt lat="46.045710838" lon="7.227151090">
        <ele>1362.000000</ele>
        <time>2015-08-05T14:53:12Z</time>
        <speed>1.857000</speed>
      </trkpt>
      <trkpt lat="46.045738666" lon="7.227116976">
        <ele>1361.200000</ele>
        <time>2015-08-05T14:53:13Z</time>
        <speed>2.908000</speed>
      </trkpt>
      <trkpt lat="46.045760124" lon="7.227092417">
        <ele>1360.200000</ele>
        <time>2015-08-05T14:53:14Z</time>
        <speed>2.175000</speed>
      </trkpt>
      <trkpt lat="46.045787617" lon="7.227091746">
        <ele>1359.400000</ele>
        <time>2015-08-05T14:53:15Z</time>
        <speed>2.064000</speed>
      </trkpt>
      <trkpt lat="46.045810164" lon="7.227094428">
        <ele>1358.800000</ele>
        <time>2015-08-05T14:53:16Z</time>
        <speed>2.064000</speed>
      </trkpt>
      <trkpt lat="46.045817456" lon="7.227103565">
        <ele>1358.200000</ele>
        <time>2015-08-05T14:53:17Z</time>
        <speed>2.064000</speed>
      </trkpt>
      <trkpt lat="46.045821563" lon="7.227117395">
        <ele>1357.600000</ele>
        <time>2015-08-05T14:53:18Z</time>
        <speed>2.064000</speed>
      </trkpt>
      <trkpt lat="46.045826341" lon="7.227103900">
        <ele>1356.800000</ele>
        <time>2015-08-05T14:53:19Z</time>
        <speed>0.000000</speed>
      </trkpt>
      <trkpt lat="46.045832460" lon="7.227097278">
        <ele>1356.200000</ele>
        <time>2015-08-05T14:53:20Z</time>
        <speed>0.000000</speed>
      </trkpt>
      <trkpt lat="46.045847547" lon="7.227077162">
        <ele>1356.200000</ele>
        <time>2015-08-05T14:53:22Z</time>
        <speed>0.000000</speed>
      </trkpt>
      <trkpt lat="46.045883338" lon="7.227075066">
        <ele>1356.200000</ele>
        <time>2015-08-05T14:53:23Z</time>
        <speed>2.717000</speed>
      </trkpt>
      <trkpt lat="46.045894905" lon="7.227082358">
        <ele>1355.800000</ele>
        <time>2015-08-05T14:53:24Z</time>
        <speed>2.717000</speed>
      </trkpt>
      <trkpt lat="46.045899599" lon="7.227080514">
        <ele>1355.400000</ele>
        <time>2015-08-05T14:53:25Z</time>
        <speed>2.717000</speed>
      </trkpt>
      <trkpt lat="46.045904963" lon="7.227061571">
        <ele>1355.000000</ele>
        <time>2015-08-05T14:53:26Z</time>
        <speed>1.915000</speed>
      </trkpt>
      <trkpt lat="46.045908651" lon="7.227049082">
        <ele>1354.200000</ele>
        <time>2015-08-05T14:53:27Z</time>
        <speed>1.915000</speed>
      </trkpt>
      <trkpt lat="46.045913680" lon="7.227043131">
        <ele>1353.600000</ele>
        <time>2015-08-05T14:53:28Z</time>
        <speed>1.915000</speed>
      </trkpt>
      <trkpt lat="46.045920889" lon="7.227026367">
        <ele>1352.600000</ele>
        <time>2015-08-05T14:53:29Z</time>
        <speed>4.073000</speed>
      </trkpt>
      <trkpt lat="46.045918542" lon="7.227018488">
        <ele>1351.800000</ele>
        <time>2015-08-05T14:53:30Z</time>
        <speed>0.000000</speed>
      </trkpt>
      <trkpt lat="46.045930109" lon="7.226995187">
        <ele>1351.000000</ele>
        <time>2015-08-05T14:53:31Z</time>
        <speed>3.333000</speed>
      </trkpt>
      <trkpt lat="46.045964475" lon="7.226961659">
        <ele>1350.000000</ele>
        <time>2015-08-05T14:53:32Z</time>
        <speed>3.194000</speed>
      </trkpt>
      <trkpt lat="46.045996578" lon="7.226935926">
        <ele>1349.200000</ele>
        <time>2015-08-05T14:53:33Z</time>
        <speed>4.112000</speed>
      </trkpt>
      <trkpt lat="46.046023986" lon="7.226910362">
        <ele>1348.400000</ele>
        <time>2015-08-05T14:53:34Z</time>
        <speed>3.088000</speed>
      </trkpt>
      <trkpt lat="46.046033123" lon="7.226881947">
        <ele>1347.600000</ele>
        <time>2015-08-05T14:53:35Z</time>
        <speed>3.434000</speed>
      </trkpt>
      <trkpt lat="46.046047456" lon="7.226859148">
        <ele>1345.800000</ele>
        <time>2015-08-05T14:53:36Z</time>
        <speed>3.675000</speed>
      </trkpt>
      <trkpt lat="46.046043432" lon="7.226832410">
        <ele>1345.000000</ele>
        <time>2015-08-05T14:53:37Z</time>
        <speed>3.675000</speed>
      </trkpt>
      <trkpt lat="46.046035050" lon="7.226789159">
        <ele>1344.200000</ele>
        <time>2015-08-05T14:53:38Z</time>
        <speed>2.854000</speed>
      </trkpt>
      <trkpt lat="46.046025663" lon="7.226761918">
        <ele>1343.400000</ele>
        <time>2015-08-05T14:53:39Z</time>
        <speed>3.407000</speed>
      </trkpt>
      <trkpt lat="46.046029435" lon="7.226763595">
        <ele>1342.600000</ele>
        <time>2015-08-05T14:53:40Z</time>
        <speed>4.371000</speed>
      </trkpt>
      <trkpt lat="46.046032368" lon="7.226767702">
        <ele>1341.800000</ele>
        <time>2015-08-05T14:53:41Z</time>
        <speed>2.461000</speed>
      </trkpt>
      <trkpt lat="46.046051144" lon="7.226773234">
        <ele>1340.800000</ele>
        <time>2015-08-05T14:53:42Z</time>
        <speed>2.461000</speed>
      </trkpt>
      <trkpt lat="46.046062962" lon="7.226777928">
        <ele>1340.000000</ele>
        <time>2015-08-05T14:53:43Z</time>
        <speed>3.312000</speed>
      </trkpt>
      <trkpt lat="46.046085174" lon="7.226771306">
        <ele>1339.000000</ele>
        <time>2015-08-05T14:53:44Z</time>
        <speed>3.467000</speed>
      </trkpt>
      <trkpt lat="46.046108727" lon="7.226753369">
        <ele>1338.200000</ele>
        <time>2015-08-05T14:53:45Z</time>
        <speed>3.328000</speed>
      </trkpt>
      <trkpt lat="46.046129850" lon="7.226739371">
        <ele>1337.400000</ele>
        <time>2015-08-05T14:53:46Z</time>
        <speed>3.638000</speed>
      </trkpt>
      <trkpt lat="46.046144015" lon="7.226712046">
        <ele>1336.600000</ele>
        <time>2015-08-05T14:53:47Z</time>
        <speed>3.638000</speed>
      </trkpt>
      <trkpt lat="46.046145356" lon="7.226691426">
        <ele>1335.800000</ele>
        <time>2015-08-05T14:53:48Z</time>
        <speed>2.720000</speed>
      </trkpt>
      <trkpt lat="46.046230349" lon="7.226683128">
        <ele>1335.000000</ele>
        <time>2015-08-05T14:53:49Z</time>
        <speed>3.057000</speed>
      </trkpt>
      <trkpt lat="46.046230014" lon="7.226684134">
        <ele>1334.200000</ele>
        <time>2015-08-05T14:53:50Z</time>
        <speed>3.583000</speed>
      </trkpt>
      <trkpt lat="46.046229259" lon="7.226683464">
        <ele>1333.400000</ele>
        <time>2015-08-05T14:53:51Z</time>
        <speed>3.429000</speed>
      </trkpt>
      <trkpt lat="46.046231271" lon="7.226681368">
        <ele>1332.600000</ele>
        <time>2015-08-05T14:53:52Z</time>
        <speed>2.470000</speed>
      </trkpt>
      <trkpt lat="46.046234204" lon="7.226659491">
        <ele>1331.800000</ele>
        <time>2015-08-05T14:53:53Z</time>
        <speed>2.080000</speed>
      </trkpt>
      <trkpt lat="46.046228421" lon="7.226660832">
        <ele>1331.200000</ele>
        <time>2015-08-05T14:53:54Z</time>
        <speed>1.865000</speed>
      </trkpt>
      <trkpt lat="46.046223811" lon="7.226676339">
        <ele>1330.400000</ele>
        <time>2015-08-05T14:53:55Z</time>
        <speed>2.372000</speed>
      </trkpt>
      <trkpt lat="46.046231606" lon="7.226688912">
        <ele>1329.600000</ele>
        <time>2015-08-05T14:53:56Z</time>
        <speed>2.828000</speed>
      </trkpt>
      <trkpt lat="46.046237809" lon="7.226715315">
        <ele>1329.000000</ele>
        <time>2015-08-05T14:53:57Z</time>
        <speed>2.828000</speed>
      </trkpt>
      <trkpt lat="46.046266810" lon="7.226726798">
        <ele>1328.200000</ele>
        <time>2015-08-05T14:53:58Z</time>
        <speed>2.916000</speed>
      </trkpt>
      <trkpt lat="46.046297739" lon="7.226745573">
        <ele>1327.200000</ele>
        <time>2015-08-05T14:53:59Z</time>
        <speed>4.096000</speed>
      </trkpt>
      <trkpt lat="46.046337302" lon="7.226748759">
        <ele>1325.400000</ele>
        <time>2015-08-05T14:54:00Z</time>
        <speed>3.307000</speed>
      </trkpt>
      <trkpt lat="46.046378541" lon="7.226763678">
        <ele>1324.400000</ele>
        <time>2015-08-05T14:54:01Z</time>
        <speed>3.307000</speed>
      </trkpt>
      <trkpt lat="46.046422462" lon="7.226790333">
        <ele>1323.400000</ele>
        <time>2015-08-05T14:54:02Z</time>
        <speed>4.208000</speed>
      </trkpt>
      <trkpt lat="46.046442495" lon="7.226803911">
        <ele>1322.600000</ele>
        <time>2015-08-05T14:54:03Z</time>
        <speed>4.900000</speed>
      </trkpt>
      <trkpt lat="46.046457666" lon="7.226808019">
        <ele>1321.400000</ele>
        <time>2015-08-05T14:54:04Z</time>
        <speed>0.000000</speed>
      </trkpt>
      <trkpt lat="46.046499827" lon="7.226838529">
        <ele>1320.400000</ele>
        <time>2015-08-05T14:54:05Z</time>
        <speed>2.470000</speed>
      </trkpt>
      <trkpt lat="46.046530756" lon="7.226847414">
        <ele>1319.400000</ele>
        <time>2015-08-05T14:54:06Z</time>
        <speed>2.985000</speed>
      </trkpt>
      <trkpt lat="46.046535702" lon="7.226861495">
        <ele>1318.400000</ele>
        <time>2015-08-05T14:54:07Z</time>
        <speed>2.188000</speed>
      </trkpt>
      <trkpt lat="46.046551459" lon="7.226876499">
        <ele>1317.400000</ele>
        <time>2015-08-05T14:54:08Z</time>
        <speed>2.188000</speed>
      </trkpt>
      <trkpt lat="46.046578784" lon="7.226898543">
        <ele>1316.400000</ele>
        <time>2015-08-05T14:54:09Z</time>
        <speed>1.372000</speed>
      </trkpt>
      <trkpt lat="46.046603763" lon="7.226910948">
        <ele>1315.400000</ele>
        <time>2015-08-05T14:54:10Z</time>
        <speed>2.131000</speed>
      </trkpt>
      <trkpt lat="46.046624801" lon="7.226923186">
        <ele>1314.200000</ele>
        <time>2015-08-05T14:54:11Z</time>
        <speed>2.456000</speed>
      </trkpt>
      <trkpt lat="46.046664196" lon="7.226930562">
        <ele>1313.000000</ele>
        <time>2015-08-05T14:54:12Z</time>
        <speed>3.739000</speed>
      </trkpt>
      <trkpt lat="46.046695964" lon="7.226934082">
        <ele>1311.800000</ele>
        <time>2015-08-05T14:54:13Z</time>
        <speed>4.250000</speed>
      </trkpt>
      <trkpt lat="46.046729826" lon="7.226938357">
        <ele>1310.600000</ele>
        <time>2015-08-05T14:54:14Z</time>
        <speed>3.553000</speed>
      </trkpt>
      <trkpt lat="46.046757403" lon="7.226948248">
        <ele>1309.400000</ele>
        <time>2015-08-05T14:54:15Z</time>
        <speed>2.900000</speed>
      </trkpt>
      <trkpt lat="46.046786823" lon="7.226947242">
        <ele>1308.400000</ele>
        <time>2015-08-05T14:54:16Z</time>
        <speed>3.079000</speed>
      </trkpt>
      <trkpt lat="46.046802917" lon="7.226948332">
        <ele>1307.400000</ele>
        <time>2015-08-05T14:54:17Z</time>
        <speed>3.445000</speed>
      </trkpt>
      <trkpt lat="46.046806102" lon="7.226951684">
        <ele>1306.200000</ele>
        <time>2015-08-05T14:54:18Z</time>
        <speed>2.442000</speed>
      </trkpt>
      <trkpt lat="46.046834684" lon="7.226957552">
        <ele>1305.400000</ele>
        <time>2015-08-05T14:54:19Z</time>
        <speed>2.592000</speed>
      </trkpt>
      <trkpt lat="46.046892854" lon="7.226964090">
        <ele>1304.600000</ele>
        <time>2015-08-05T14:54:20Z</time>
        <speed>2.592000</speed>
      </trkpt>
      <trkpt lat="46.046925209" lon="7.226958725">
        <ele>1303.800000</ele>
        <time>2015-08-05T14:54:21Z</time>
        <speed>5.832000</speed>
      </trkpt>
      <trkpt lat="46.046946079" lon="7.226961659">
        <ele>1302.800000</ele>
        <time>2015-08-05T14:54:22Z</time>
        <speed>0.000000</speed>
      </trkpt>
      <trkpt lat="46.046956138" lon="7.226967610">
        <ele>1302.000000</ele>
        <time>2015-08-05T14:54:23Z</time>
        <speed>0.000000</speed>
      </trkpt>
      <trkpt lat="46.046971980" lon="7.226966017">
        <ele>1302.000000</ele>
        <time>2015-08-05T14:54:24Z</time>
        <speed>3.242000</speed>
      </trkpt>
      <trkpt lat="46.046991174" lon="7.226959396">
        <ele>1301.400000</ele>
        <time>2015-08-05T14:54:25Z</time>
        <speed>3.242000</speed>
      </trkpt>
      <trkpt lat="46.046991761" lon="7.226960821">
        <ele>1300.800000</ele>
        <time>2015-08-05T14:54:26Z</time>
        <speed>0.000000</speed>
      </trkpt>
      <trkpt lat="46.047046579" lon="7.226949086">
        <ele>1300.200000</ele>
        <time>2015-08-05T14:54:27Z</time>
        <speed>2.217000</speed>
      </trkpt>
      <trkpt lat="46.047095613" lon="7.226953026">
        <ele>1299.400000</ele>
        <time>2015-08-05T14:54:28Z</time>
        <speed>3.380000</speed>
      </trkpt>
      <trkpt lat="46.047138025" lon="7.226965766">
        <ele>1298.400000</ele>
        <time>2015-08-05T14:54:29Z</time>
        <speed>2.806000</speed>
      </trkpt>
      <trkpt lat="46.047188149" lon="7.226999629">
        <ele>1297.200000</ele>
        <time>2015-08-05T14:54:30Z</time>
        <speed>2.806000</speed>
      </trkpt>
      <trkpt lat="46.047332653" lon="7.227046651">
        <ele>1296.200000</ele>
        <time>2015-08-05T14:54:31Z</time>
        <speed>4.780000</speed>
      </trkpt>
      <trkpt lat="46.047397110" lon="7.227078000">
        <ele>1295.200000</ele>
        <time>2015-08-05T14:54:32Z</time>
        <speed>4.389000</speed>
      </trkpt>
      <trkpt lat="46.047420830" lon="7.227093003">
        <ele>1294.200000</ele>
        <time>2015-08-05T14:54:33Z</time>
        <speed>0.000000</speed>
      </trkpt>
      <trkpt lat="46.047500459" lon="7.227173051">
        <ele>1294.200000</ele>
        <time>2015-08-05T14:54:35Z</time>
        <speed>2.502000</speed>
      </trkpt>
      <trkpt lat="46.047550499" lon="7.227233568">
        <ele>1293.800000</ele>
        <time>2015-08-05T14:54:37Z</time>
        <speed>3.513000</speed>
      </trkpt>
      <trkpt lat="46.047581260" lon="7.227254271">
        <ele>1293.400000</ele>
        <time>2015-08-05T14:54:38Z</time>
        <speed>4.310000</speed>
      </trkpt>
      <trkpt lat="46.047616045" lon="7.227253684">
        <ele>1293.000000</ele>
        <time>2015-08-05T14:54:39Z</time>
        <speed>3.792000</speed>
      </trkpt>
      <trkpt lat="46.047646890" lon="7.227251254">
        <ele>1292.600000</ele>
        <time>2015-08-05T14:54:40Z</time>
        <speed>3.147000</speed>
      </trkpt>
      <trkpt lat="46.047684944" lon="7.227253601">
        <ele>1292.200000</ele>
        <time>2015-08-05T14:54:41Z</time>
        <speed>3.490000</speed>
      </trkpt>
      <trkpt lat="46.047811930" lon="7.227275645">
        <ele>1291.600000</ele>
        <time>2015-08-05T14:54:44Z</time>
        <speed>3.267000</speed>
      </trkpt>
      <trkpt lat="46.047849230" lon="7.227281009">
        <ele>1291.000000</ele>
        <time>2015-08-05T14:54:45Z</time>
        <speed>3.267000</speed>
      </trkpt>
      <trkpt lat="46.047884266" lon="7.227271035">
        <ele>1290.400000</ele>
        <time>2015-08-05T14:54:46Z</time>
        <speed>4.233000</speed>
      </trkpt>
      <trkpt lat="46.047903628" lon="7.227268017">
        <ele>1289.800000</ele>
        <time>2015-08-05T14:54:47Z</time>
        <speed>4.538000</speed>
      </trkpt>
      <trkpt lat="46.047933803" lon="7.227236585">
        <ele>1289.200000</ele>
        <time>2015-08-05T14:54:48Z</time>
        <speed>3.669000</speed>
      </trkpt>
      <trkpt lat="46.047957021" lon="7.227227030">
        <ele>1287.800000</ele>
        <time>2015-08-05T14:54:49Z</time>
        <speed>0.000000</speed>
      </trkpt>
      <trkpt lat="46.047982418" lon="7.227202974">
        <ele>1287.200000</ele>
        <time>2015-08-05T14:54:50Z</time>
        <speed>0.000000</speed>
      </trkpt>
      <trkpt lat="46.047994069" lon="7.227171626">
        <ele>1286.800000</ele>
        <time>2015-08-05T14:54:51Z</time>
        <speed>1.935000</speed>
      </trkpt>
      <trkpt lat="46.048012425" lon="7.227155113">
        <ele>1286.200000</ele>
        <time>2015-08-05T14:54:52Z</time>
        <speed>1.935000</speed>
      </trkpt>
      <trkpt lat="46.048025669" lon="7.227139523">
        <ele>1285.600000</ele>
        <time>2015-08-05T14:54:53Z</time>
        <speed>1.935000</speed>
      </trkpt>
      <trkpt lat="46.048036062" lon="7.227120161">
        <ele>1284.800000</ele>
        <time>2015-08-05T14:54:54Z</time>
        <speed>5.098000</speed>
      </trkpt>
      <trkpt lat="46.048039163" lon="7.227099625">
        <ele>1284.000000</ele>
        <time>2015-08-05T14:54:55Z</time>
        <speed>6.185000</speed>
      </trkpt>
      <trkpt lat="46.048056263" lon="7.227090070">
        <ele>1283.000000</ele>
        <time>2015-08-05T14:54:56Z</time>
        <speed>6.901000</speed>
      </trkpt>
      <trkpt lat="46.048069422" lon="7.227084538">
        <ele>1282.000000</ele>
        <time>2015-08-05T14:54:57Z</time>
        <speed>4.728000</speed>
      </trkpt>
      <trkpt lat="46.048087024" lon="7.227082358">
        <ele>1281.000000</ele>
        <time>2015-08-05T14:54:58Z</time>
        <speed>0.000000</speed>
      </trkpt>
      <trkpt lat="46.048107644" lon="7.227061404">
        <ele>1280.000000</ele>
        <time>2015-08-05T14:54:59Z</time>
        <speed>3.354000</speed>
      </trkpt>
      <trkpt lat="46.048123402" lon="7.227022512">
        <ele>1279.400000</ele>
        <time>2015-08-05T14:55:00Z</time>
        <speed>2.795000</speed>
      </trkpt>
      <trkpt lat="46.048146117" lon="7.227004239">
        <ele>1279.000000</ele>
        <time>2015-08-05T14:55:01Z</time>
        <speed>2.835000</speed>
      </trkpt>
      <trkpt lat="46.048153744" lon="7.226974651">
        <ele>1278.400000</ele>
        <time>2015-08-05T14:55:02Z</time>
        <speed>2.877000</speed>
      </trkpt>
      <trkpt lat="46.048249382" lon="7.227014297">
        <ele>1277.600000</ele>
        <time>2015-08-05T14:55:03Z</time>
        <speed>2.998000</speed>
      </trkpt>
      <trkpt lat="46.048258686" lon="7.227008514">
        <ele>1277.000000</ele>
        <time>2015-08-05T14:55:04Z</time>
        <speed>4.012000</speed>
      </trkpt>
      <trkpt lat="46.048263044" lon="7.226998204">
        <ele>1276.200000</ele>
        <time>2015-08-05T14:55:05Z</time>
        <speed>4.596000</speed>
      </trkpt>
      <trkpt lat="46.048243682" lon="7.226981356">
        <ele>1275.200000</ele>
        <time>2015-08-05T14:55:06Z</time>
        <speed>4.957000</speed>
      </trkpt>
      <trkpt lat="46.048220129" lon="7.226960485">
        <ele>1274.200000</ele>
        <time>2015-08-05T14:55:07Z</time>
        <speed>3.619000</speed>
      </trkpt>
      <trkpt lat="46.048224739" lon="7.226927461">
        <ele>1273.200000</ele>
        <time>2015-08-05T14:55:08Z</time>
        <speed>4.327000</speed>
      </trkpt>
      <trkpt lat="46.048215854" lon="7.226894688">
        <ele>1272.000000</ele>
        <time>2015-08-05T14:55:09Z</time>
        <speed>2.924000</speed>
      </trkpt>
      <trkpt lat="46.048212501" lon="7.226876666">
        <ele>1271.000000</ele>
        <time>2015-08-05T14:55:10Z</time>
        <speed>3.401000</speed>
      </trkpt>
      <trkpt lat="46.048214094" lon="7.226845318">
        <ele>1270.400000</ele>
        <time>2015-08-05T14:55:11Z</time>
        <speed>3.989000</speed>
      </trkpt>
      <trkpt lat="46.048215686" lon="7.226817742">
        <ele>1269.600000</ele>
        <time>2015-08-05T14:55:12Z</time>
        <speed>5.393000</speed>
      </trkpt>
      <trkpt lat="46.048218285" lon="7.226794105">
        <ele>1267.400000</ele>
        <time>2015-08-05T14:55:13Z</time>
        <speed>5.979000</speed>
      </trkpt>
      <trkpt lat="46.048230774" lon="7.226776167">
        <ele>1266.200000</ele>
        <time>2015-08-05T14:55:14Z</time>
        <speed>5.754000</speed>
      </trkpt>
      <trkpt lat="46.048254075" lon="7.226765439">
        <ele>1265.000000</ele>
        <time>2015-08-05T14:55:15Z</time>
        <speed>5.461000</speed>
      </trkpt>
      <trkpt lat="46.048273857" lon="7.226762589">
        <ele>1263.800000</ele>
        <time>2015-08-05T14:55:16Z</time>
        <speed>4.407000</speed>
      </trkpt>
      <trkpt lat="46.048296069" lon="7.226772815">
        <ele>1263.000000</ele>
        <time>2015-08-05T14:55:17Z</time>
        <speed>4.770000</speed>
      </trkpt>
      <trkpt lat="46.048315682" lon="7.226769210">
        <ele>1262.000000</ele>
        <time>2015-08-05T14:55:18Z</time>
        <speed>4.586000</speed>
      </trkpt>
      <trkpt lat="46.048331860" lon="7.226780777">
        <ele>1261.000000</ele>
        <time>2015-08-05T14:55:19Z</time>
        <speed>4.284000</speed>
      </trkpt>
      <trkpt lat="46.048344516" lon="7.226787064">
        <ele>1260.200000</ele>
        <time>2015-08-05T14:55:20Z</time>
        <speed>4.184000</speed>
      </trkpt>
      <trkpt lat="46.048352647" lon="7.226779269">
        <ele>1259.400000</ele>
        <time>2015-08-05T14:55:21Z</time>
        <speed>4.968000</speed>
      </trkpt>
      <trkpt lat="46.048358933" lon="7.226789495">
        <ele>1258.200000</ele>
        <time>2015-08-05T14:55:22Z</time>
        <speed>5.929000</speed>
      </trkpt>
      <trkpt lat="46.048381229" lon="7.226804079">
        <ele>1257.200000</ele>
        <time>2015-08-05T14:55:23Z</time>
        <speed>5.896000</speed>
      </trkpt>
      <trkpt lat="46.048387348" lon="7.226839451">
        <ele>1256.000000</ele>
        <time>2015-08-05T14:55:24Z</time>
        <speed>5.339000</speed>
      </trkpt>
      <trkpt lat="46.048406542" lon="7.226927628">
        <ele>1255.200000</ele>
        <time>2015-08-05T14:55:25Z</time>
        <speed>4.143000</speed>
      </trkpt>
      <trkpt lat="46.048410649" lon="7.226955624">
        <ele>1254.400000</ele>
        <time>2015-08-05T14:55:26Z</time>
        <speed>4.444000</speed>
      </trkpt>
      <trkpt lat="46.048432694" lon="7.227003904">
        <ele>1253.400000</ele>
        <time>2015-08-05T14:55:27Z</time>
        <speed>5.817000</speed>
      </trkpt>
      <trkpt lat="46.048452559" lon="7.227027289">
        <ele>1252.400000</ele>
        <time>2015-08-05T14:55:28Z</time>
        <speed>6.350000</speed>
      </trkpt>
      <trkpt lat="46.048470077" lon="7.227054782">
        <ele>1251.200000</ele>
        <time>2015-08-05T14:55:29Z</time>
        <speed>4.957000</speed>
      </trkpt>
      <trkpt lat="46.048484745" lon="7.227093506">
        <ele>1250.000000</ele>
        <time>2015-08-05T14:55:30Z</time>
        <speed>5.560000</speed>
      </trkpt>
      <trkpt lat="46.048496145" lon="7.227087723">
        <ele>1248.800000</ele>
        <time>2015-08-05T14:55:31Z</time>
        <speed>5.184000</speed>
      </trkpt>
      <trkpt lat="46.048509472" lon="7.227074479">
        <ele>1248.000000</ele>
        <time>2015-08-05T14:55:32Z</time>
        <speed>5.913000</speed>
      </trkpt>
      <trkpt lat="46.048511568" lon="7.227046819">
        <ele>1247.000000</ele>
        <time>2015-08-05T14:55:33Z</time>
        <speed>5.517000</speed>
      </trkpt>
      <trkpt lat="46.048519027" lon="7.227023014">
        <ele>1246.000000</ele>
        <time>2015-08-05T14:55:34Z</time>
        <speed>5.546000</speed>
      </trkpt>
      <trkpt lat="46.048535205" lon="7.227004407">
        <ele>1245.200000</ele>
        <time>2015-08-05T14:55:35Z</time>
        <speed>6.350000</speed>
      </trkpt>
      <trkpt lat="46.048560183" lon="7.226989319">
        <ele>1244.200000</ele>
        <time>2015-08-05T14:55:36Z</time>
        <speed>6.686000</speed>
      </trkpt>
      <trkpt lat="46.048587508" lon="7.226974064">
        <ele>1243.000000</ele>
        <time>2015-08-05T14:55:37Z</time>
        <speed>6.029000</speed>
      </trkpt>
      <trkpt lat="46.048671578" lon="7.226953361">
        <ele>1240.800000</ele>
        <time>2015-08-05T14:55:38Z</time>
        <speed>6.029000</speed>
      </trkpt>
      <trkpt lat="46.048760762" lon="7.226952271">
        <ele>1239.800000</ele>
        <time>2015-08-05T14:55:39Z</time>
        <speed>5.929000</speed>
      </trkpt>
      <trkpt lat="46.048871151" lon="7.227030055">
        <ele>1238.600000</ele>
        <time>2015-08-05T14:55:40Z</time>
        <speed>4.923000</speed>
      </trkpt>
      <trkpt lat="46.048972488" lon="7.227092081">
        <ele>1237.600000</ele>
        <time>2015-08-05T14:55:41Z</time>
        <speed>4.362000</speed>
      </trkpt>
      <trkpt lat="46.049072317" lon="7.227165172">
        <ele>1236.800000</ele>
        <time>2015-08-05T14:55:42Z</time>
        <speed>3.902000</speed>
      </trkpt>
      <trkpt lat="46.049149095" lon="7.227222755">
        <ele>1236.200000</ele>
        <time>2015-08-05T14:55:43Z</time>
        <speed>4.354000</speed>
      </trkpt>
      <trkpt lat="46.049198129" lon="7.227274807">
        <ele>1235.600000</ele>
        <time>2015-08-05T14:55:44Z</time>
        <speed>4.923000</speed>
      </trkpt>
      <trkpt lat="46.049257389" lon="7.227322584">
        <ele>1234.800000</ele>
        <time>2015-08-05T14:55:45Z</time>
        <speed>4.923000</speed>
      </trkpt>
      <trkpt lat="46.049307094" lon="7.227354267">
        <ele>1234.000000</ele>
        <time>2015-08-05T14:55:46Z</time>
        <speed>4.027000</speed>
      </trkpt>
      <trkpt lat="46.049348501" lon="7.227371702">
        <ele>1233.200000</ele>
        <time>2015-08-05T14:55:47Z</time>
        <speed>3.931000</speed>
      </trkpt>
      <trkpt lat="46.049386219" lon="7.227386957">
        <ele>1232.400000</ele>
        <time>2015-08-05T14:55:48Z</time>
        <speed>4.453000</speed>
      </trkpt>
      <trkpt lat="46.049424357" lon="7.227399865">
        <ele>1231.400000</ele>
        <time>2015-08-05T14:55:49Z</time>
        <speed>5.326000</speed>
      </trkpt>
      <trkpt lat="46.049405917" lon="7.227630116">
        <ele>1230.400000</ele>
        <time>2015-08-05T14:55:50Z</time>
        <speed>5.026000</speed>
      </trkpt>
      <trkpt lat="46.049420585" lon="7.227775458">
        <ele>1229.200000</ele>
        <time>2015-08-05T14:55:51Z</time>
        <speed>6.331000</speed>
      </trkpt>
      <trkpt lat="46.049468949" lon="7.227864725">
        <ele>1228.000000</ele>
        <time>2015-08-05T14:55:52Z</time>
        <speed>6.574000</speed>
      </trkpt>
      <trkpt lat="46.049509517" lon="7.227958100">
        <ele>1226.800000</ele>
        <time>2015-08-05T14:55:53Z</time>
        <speed>5.832000</speed>
      </trkpt>
      <trkpt lat="46.049540362" lon="7.228034878">
        <ele>1225.600000</ele>
        <time>2015-08-05T14:55:54Z</time>
        <speed>6.407000</speed>
      </trkpt>
      <trkpt lat="46.049573387" lon="7.228084247">
        <ele>1224.400000</ele>
        <time>2015-08-05T14:55:55Z</time>
        <speed>5.693000</speed>
      </trkpt>
      <trkpt lat="46.049610687" lon="7.228127833">
        <ele>1223.400000</ele>
        <time>2015-08-05T14:55:56Z</time>
        <speed>5.817000</speed>
      </trkpt>
      <trkpt lat="46.049663409" lon="7.228152057">
        <ele>1222.400000</ele>
        <time>2015-08-05T14:55:57Z</time>
        <speed>6.388000</speed>
      </trkpt>
      <trkpt lat="46.049704899" lon="7.228160858">
        <ele>1221.600000</ele>
        <time>2015-08-05T14:55:58Z</time>
        <speed>4.957000</speed>
      </trkpt>
      <trkpt lat="46.049746892" lon="7.228170581">
        <ele>1220.600000</ele>
        <time>2015-08-05T14:55:59Z</time>
        <speed>3.785000</speed>
      </trkpt>
      <trkpt lat="46.049845547" lon="7.228194302">
        <ele>1219.800000</ele>
        <time>2015-08-05T14:56:00Z</time>
        <speed>3.175000</speed>
      </trkpt>
      <trkpt lat="46.049914698" lon="7.228194302">
        <ele>1219.000000</ele>
        <time>2015-08-05T14:56:01Z</time>
        <speed>3.354000</speed>
      </trkpt>
      <trkpt lat="46.050022489" lon="7.228220453">
        <ele>1218.400000</ele>
        <time>2015-08-05T14:56:03Z</time>
        <speed>4.878000</speed>
      </trkpt>
      <trkpt lat="46.050053586" lon="7.228231098">
        <ele>1218.000000</ele>
        <time>2015-08-05T14:56:04Z</time>
        <speed>5.222000</speed>
      </trkpt>
      <trkpt lat="46.050080660" lon="7.228216095">
        <ele>1217.400000</ele>
        <time>2015-08-05T14:56:05Z</time>
        <speed>5.098000</speed>
      </trkpt>
      <trkpt lat="46.050119971" lon="7.228206036">
        <ele>1217.000000</ele>
        <time>2015-08-05T14:56:06Z</time>
        <speed>6.221000</speed>
      </trkpt>
      <trkpt lat="46.050166910" lon="7.228199163">
        <ele>1216.400000</ele>
        <time>2015-08-05T14:56:07Z</time>
        <speed>5.300000</speed>
      </trkpt>
      <trkpt lat="46.050226673" lon="7.228196732">
        <ele>1215.800000</ele>
        <time>2015-08-05T14:56:08Z</time>
        <speed>4.567000</speed>
      </trkpt>
      <trkpt lat="46.050285514" lon="7.228191368">
        <ele>1215.200000</ele>
        <time>2015-08-05T14:56:09Z</time>
        <speed>6.029000</speed>
      </trkpt>
      <trkpt lat="46.050333877" lon="7.228205030">
        <ele>1214.400000</ele>
        <time>2015-08-05T14:56:10Z</time>
        <speed>5.447000</speed>
      </trkpt>
      <trkpt lat="46.050376206" lon="7.228210479">
        <ele>1213.400000</ele>
        <time>2015-08-05T14:56:11Z</time>
        <speed>4.759000</speed>
      </trkpt>
      <trkpt lat="46.050395316" lon="7.228216430">
        <ele>1212.600000</ele>
        <time>2015-08-05T14:56:12Z</time>
        <speed>4.073000</speed>
      </trkpt>
      <trkpt lat="46.050407386" lon="7.228221207">
        <ele>1211.800000</ele>
        <time>2015-08-05T14:56:13Z</time>
        <speed>4.416000</speed>
      </trkpt>
      <trkpt lat="46.050421133" lon="7.228217939">
        <ele>1211.000000</ele>
        <time>2015-08-05T14:56:14Z</time>
        <speed>5.326000</speed>
      </trkpt>
      <trkpt lat="46.050442926" lon="7.228207210">
        <ele>1210.000000</ele>
        <time>2015-08-05T14:56:15Z</time>
        <speed>6.707000</speed>
      </trkpt>
      <trkpt lat="46.050473939" lon="7.228202516">
        <ele>1209.000000</ele>
        <time>2015-08-05T14:56:16Z</time>
        <speed>4.217000</speed>
      </trkpt>
      <trkpt lat="46.050482488" lon="7.228172676">
        <ele>1208.000000</ele>
        <time>2015-08-05T14:56:17Z</time>
        <speed>6.792000</speed>
      </trkpt>
      <trkpt lat="46.050500258" lon="7.228157840">
        <ele>1206.800000</ele>
        <time>2015-08-05T14:56:18Z</time>
        <speed>7.178000</speed>
      </trkpt>
      <trkpt lat="46.050498414" lon="7.228144513">
        <ele>1205.600000</ele>
        <time>2015-08-05T14:56:19Z</time>
        <speed>5.962000</speed>
      </trkpt>
      <trkpt lat="46.050503611" lon="7.228124732">
        <ele>1204.400000</ele>
        <time>2015-08-05T14:56:20Z</time>
        <speed>5.880000</speed>
      </trkpt>
      <trkpt lat="46.050510149" lon="7.228111907">
        <ele>1203.200000</ele>
        <time>2015-08-05T14:56:21Z</time>
        <speed>5.945000</speed>
      </trkpt>
      <trkpt lat="46.050513920" lon="7.228096150">
        <ele>1202.000000</ele>
        <time>2015-08-05T14:56:22Z</time>
        <speed>5.633000</speed>
      </trkpt>
      <trkpt lat="46.050510987" lon="7.228075781">
        <ele>1200.800000</ele>
        <time>2015-08-05T14:56:23Z</time>
        <speed>5.770000</speed>
      </trkpt>
      <trkpt lat="46.050503359" lon="7.228059101">
        <ele>1199.600000</ele>
        <time>2015-08-05T14:56:24Z</time>
        <speed>5.708000</speed>
      </trkpt>
      <trkpt lat="46.050512244" lon="7.228056252">
        <ele>1198.600000</ele>
        <time>2015-08-05T14:56:25Z</time>
        <speed>6.150000</speed>
      </trkpt>
      <trkpt lat="46.050526661" lon="7.228060443">
        <ele>1197.400000</ele>
        <time>2015-08-05T14:56:26Z</time>
        <speed>4.717000</speed>
      </trkpt>
      <trkpt lat="46.050537474" lon="7.228057174">
        <ele>1196.400000</ele>
        <time>2015-08-05T14:56:27Z</time>
        <speed>3.369000</speed>
      </trkpt>
      <trkpt lat="46.050530349" lon="7.228050217">
        <ele>1194.800000</ele>
        <time>2015-08-05T14:56:28Z</time>
        <speed>3.189000</speed>
      </trkpt>
      <trkpt lat="46.050539820" lon="7.228032866">
        <ele>1193.800000</ele>
        <time>2015-08-05T14:56:29Z</time>
        <speed>3.161000</speed>
      </trkpt>
      <trkpt lat="46.050544514" lon="7.227982156">
        <ele>1193.200000</ele>
        <time>2015-08-05T14:56:30Z</time>
        <speed>3.385000</speed>
      </trkpt>
      <trkpt lat="46.050542754" lon="7.227908060">
        <ele>1192.400000</ele>
        <time>2015-08-05T14:56:31Z</time>
        <speed>2.944000</speed>
      </trkpt>
      <trkpt lat="46.050538815" lon="7.227860367">
        <ele>1191.600000</ele>
        <time>2015-08-05T14:56:32Z</time>
        <speed>3.953000</speed>
      </trkpt>
      <trkpt lat="46.050567900" lon="7.227838909">
        <ele>1190.600000</ele>
        <time>2015-08-05T14:56:33Z</time>
        <speed>3.513000</speed>
      </trkpt>
      <trkpt lat="46.050577874" lon="7.227798760">
        <ele>1189.600000</ele>
        <time>2015-08-05T14:56:34Z</time>
        <speed>3.513000</speed>
      </trkpt>
      <trkpt lat="46.050559266" lon="7.227730615">
        <ele>1188.600000</ele>
        <time>2015-08-05T14:56:35Z</time>
        <speed>5.489000</speed>
      </trkpt>
      <trkpt lat="46.050567900" lon="7.227662470">
        <ele>1187.600000</ele>
        <time>2015-08-05T14:56:36Z</time>
        <speed>5.062000</speed>
      </trkpt>
      <trkpt lat="46.051670372" lon="7.228185752">
        <ele>1186.400000</ele>
        <time>2015-08-05T14:56:37Z</time>
        <speed>5.517000</speed>
      </trkpt>
      <trkpt lat="46.051658385" lon="7.228148201">
        <ele>1185.400000</ele>
        <time>2015-08-05T14:56:38Z</time>
        <speed>5.286000</speed>
      </trkpt>
      <trkpt lat="46.051677077" lon="7.228111740">
        <ele>1184.400000</ele>
        <time>2015-08-05T14:56:39Z</time>
        <speed>4.791000</speed>
      </trkpt>
      <trkpt lat="46.051688309" lon="7.228066226">
        <ele>1183.200000</ele>
        <time>2015-08-05T14:56:40Z</time>
        <speed>3.938000</speed>
      </trkpt>
      <trkpt lat="46.051753772" lon="7.228056671">
        <ele>1182.200000</ele>
        <time>2015-08-05T14:56:41Z</time>
        <speed>4.057000</speed>
      </trkpt>
      <trkpt lat="46.051808338" lon="7.228058263">
        <ele>1181.400000</ele>
        <time>2015-08-05T14:56:42Z</time>
        <speed>4.576000</speed>
      </trkpt>
      <trkpt lat="46.051853851" lon="7.228056671">
        <ele>1180.400000</ele>
        <time>2015-08-05T14:56:43Z</time>
        <speed>4.717000</speed>
      </trkpt>
      <trkpt lat="46.051893330" lon="7.228069244">
        <ele>1179.400000</ele>
        <time>2015-08-05T14:56:44Z</time>
        <speed>3.223000</speed>
      </trkpt>
      <trkpt lat="46.051932055" lon="7.228068405">
        <ele>1178.600000</ele>
        <time>2015-08-05T14:56:45Z</time>
        <speed>3.223000</speed>
      </trkpt>
      <trkpt lat="46.051969438" lon="7.228054240">
        <ele>1177.800000</ele>
        <time>2015-08-05T14:56:46Z</time>
        <speed>4.490000</speed>
      </trkpt>
      <trkpt lat="46.052020987" lon="7.228057257">
        <ele>1176.600000</ele>
        <time>2015-08-05T14:56:47Z</time>
        <speed>4.490000</speed>
      </trkpt>
      <trkpt lat="46.052067925" lon="7.228036219">
        <ele>1175.600000</ele>
        <time>2015-08-05T14:56:48Z</time>
        <speed>4.490000</speed>
      </trkpt>
      <trkpt lat="46.052109416" lon="7.228047786">
        <ele>1174.400000</ele>
        <time>2015-08-05T14:56:49Z</time>
        <speed>3.799000</speed>
      </trkpt>
      <trkpt lat="46.052148811" lon="7.228052731">
        <ele>1173.200000</ele>
        <time>2015-08-05T14:56:50Z</time>
        <speed>4.945000</speed>
      </trkpt>
      <trkpt lat="46.052191139" lon="7.228043008">
        <ele>1172.000000</ele>
        <time>2015-08-05T14:56:51Z</time>
        <speed>5.848000</speed>
      </trkpt>
      <trkpt lat="46.052223493" lon="7.228029178">
        <ele>1169.800000</ele>
        <time>2015-08-05T14:56:52Z</time>
        <speed>6.407000</speed>
      </trkpt>
      <trkpt lat="46.052257021" lon="7.228002607">
        <ele>1168.600000</ele>
        <time>2015-08-05T14:56:53Z</time>
        <speed>6.407000</speed>
      </trkpt>
      <trkpt lat="46.052305804" lon="7.227997997">
        <ele>1167.200000</ele>
        <time>2015-08-05T14:56:54Z</time>
        <speed>5.693000</speed>
      </trkpt>
      <trkpt lat="46.052357855" lon="7.227990873">
        <ele>1165.800000</ele>
        <time>2015-08-05T14:56:55Z</time>
        <speed>6.749000</speed>
      </trkpt>
      <trkpt lat="46.052422061" lon="7.228039320">
        <ele>1164.600000</ele>
        <time>2015-08-05T14:56:56Z</time>
        <speed>5.546000</speed>
      </trkpt>
      <trkpt lat="46.052475621" lon="7.228045690">
        <ele>1163.600000</ele>
        <time>2015-08-05T14:56:57Z</time>
        <speed>5.062000</speed>
      </trkpt>
      <trkpt lat="46.052521889" lon="7.228070920">
        <ele>1162.600000</ele>
        <time>2015-08-05T14:56:58Z</time>
        <speed>4.802000</speed>
      </trkpt>
      <trkpt lat="46.052559692" lon="7.228112494">
        <ele>1161.400000</ele>
        <time>2015-08-05T14:56:59Z</time>
        <speed>4.791000</speed>
      </trkpt>
      <trkpt lat="46.052585508" lon="7.228162031">
        <ele>1160.400000</ele>
        <time>2015-08-05T14:57:00Z</time>
        <speed>4.168000</speed>
      </trkpt>
      <trkpt lat="46.052615515" lon="7.228193882">
        <ele>1159.400000</ele>
        <time>2015-08-05T14:57:01Z</time>
        <speed>4.934000</speed>
      </trkpt>
      <trkpt lat="46.052657592" lon="7.228242498">
        <ele>1158.400000</ele>
        <time>2015-08-05T14:57:02Z</time>
        <speed>5.038000</speed>
      </trkpt>
      <trkpt lat="46.052691539" lon="7.228265548">
        <ele>1157.200000</ele>
        <time>2015-08-05T14:57:03Z</time>
        <speed>6.294000</speed>
      </trkpt>
      <trkpt lat="46.052721211" lon="7.228286838">
        <ele>1155.800000</ele>
        <time>2015-08-05T14:57:04Z</time>
        <speed>5.864000</speed>
      </trkpt>
      <trkpt lat="46.052759265" lon="7.228272589">
        <ele>1154.600000</ele>
        <time>2015-08-05T14:57:05Z</time>
        <speed>5.619000</speed>
      </trkpt>
      <trkpt lat="46.052787847" lon="7.228262782">
        <ele>1153.200000</ele>
        <time>2015-08-05T14:57:06Z</time>
        <speed>6.185000</speed>
      </trkpt>
      <trkpt lat="46.052833947" lon="7.228246269">
        <ele>1152.000000</ele>
        <time>2015-08-05T14:57:07Z</time>
        <speed>6.080000</speed>
      </trkpt>
      <trkpt lat="46.052885831" lon="7.228226823">
        <ele>1150.600000</ele>
        <time>2015-08-05T14:57:08Z</time>
        <speed>5.945000</speed>
      </trkpt>
      <trkpt lat="46.052939476" lon="7.228224896">
        <ele>1149.200000</ele>
        <time>2015-08-05T14:57:09Z</time>
        <speed>5.560000</speed>
      </trkpt>
      <trkpt lat="46.052983397" lon="7.228247443">
        <ele>1147.800000</ele>
        <time>2015-08-05T14:57:10Z</time>
        <speed>5.708000</speed>
      </trkpt>
      <trkpt lat="46.053036873" lon="7.228248700">
        <ele>1146.600000</ele>
        <time>2015-08-05T14:57:11Z</time>
        <speed>3.536000</speed>
      </trkpt>
      <trkpt lat="46.053082555" lon="7.228272840">
        <ele>1145.600000</ele>
        <time>2015-08-05T14:57:12Z</time>
        <speed>3.536000</speed>
      </trkpt>
      <trkpt lat="46.053131421" lon="7.228286419">
        <ele>1144.600000</ele>
        <time>2015-08-05T14:57:13Z</time>
        <speed>6.909000</speed>
      </trkpt>
      <trkpt lat="46.053180455" lon="7.228289604">
        <ele>1143.600000</ele>
        <time>2015-08-05T14:57:14Z</time>
        <speed>5.286000</speed>
      </trkpt>
      <trkpt lat="46.053219012" lon="7.228305446">
        <ele>1142.600000</ele>
        <time>2015-08-05T14:57:15Z</time>
        <speed>4.759000</speed>
      </trkpt>
      <trkpt lat="46.053258575" lon="7.228312822">
        <ele>1141.600000</ele>
        <time>2015-08-05T14:57:16Z</time>
        <speed>4.616000</speed>
      </trkpt>
      <trkpt lat="46.053308447" lon="7.228324808">
        <ele>1139.600000</ele>
        <time>2015-08-05T14:57:17Z</time>
        <speed>5.475000</speed>
      </trkpt>
      <trkpt lat="46.053346417" lon="7.228307960">
        <ele>1138.600000</ele>
        <time>2015-08-05T14:57:18Z</time>
        <speed>3.989000</speed>
      </trkpt>
      <trkpt lat="46.053375586" lon="7.228284407">
        <ele>1137.600000</ele>
        <time>2015-08-05T14:57:19Z</time>
        <speed>4.856000</speed>
      </trkpt>
      <trkpt lat="46.053421184" lon="7.228257501">
        <ele>1136.600000</ele>
        <time>2015-08-05T14:57:20Z</time>
        <speed>5.503000</speed>
      </trkpt>
      <trkpt lat="46.053452197" lon="7.228251885">
        <ele>1135.800000</ele>
        <time>2015-08-05T14:57:21Z</time>
        <speed>4.707000</speed>
      </trkpt>
      <trkpt lat="46.053475750" lon="7.228266302">
        <ele>1134.800000</ele>
        <time>2015-08-05T14:57:22Z</time>
        <speed>3.720000</speed>
      </trkpt>
      <trkpt lat="46.053489496" lon="7.228277366">
        <ele>1133.800000</ele>
        <time>2015-08-05T14:57:23Z</time>
        <speed>3.975000</speed>
      </trkpt>
      <trkpt lat="46.053503242" lon="7.228272840">
        <ele>1133.000000</ele>
        <time>2015-08-05T14:57:24Z</time>
        <speed>4.626000</speed>
      </trkpt>
      <trkpt lat="46.053536183" lon="7.228301338">
        <ele>1131.800000</ele>
        <time>2015-08-05T14:57:25Z</time>
        <speed>6.097000</speed>
      </trkpt>
      <trkpt lat="46.053556216" lon="7.228333441">
        <ele>1130.600000</ele>
        <time>2015-08-05T14:57:26Z</time>
        <speed>6.221000</speed>
      </trkpt>
      <trkpt lat="46.053582619" lon="7.228355737">
        <ele>1129.400000</ele>
        <time>2015-08-05T14:57:27Z</time>
        <speed>6.484000</speed>
      </trkpt>
      <trkpt lat="46.053595946" lon="7.228331849">
        <ele>1128.400000</ele>
        <time>2015-08-05T14:57:28Z</time>
        <speed>4.538000</speed>
      </trkpt>
      <trkpt lat="46.053600724" lon="7.228306954">
        <ele>1127.400000</ele>
        <time>2015-08-05T14:57:29Z</time>
        <speed>3.997000</speed>
      </trkpt>
      <trkpt lat="46.053656883" lon="7.228300752">
        <ele>1126.400000</ele>
        <time>2015-08-05T14:57:30Z</time>
        <speed>3.066000</speed>
      </trkpt>
      <trkpt lat="46.053707426" lon="7.228279965">
        <ele>1125.400000</ele>
        <time>2015-08-05T14:57:31Z</time>
        <speed>3.120000</speed>
      </trkpt>
      <trkpt lat="46.053712371" lon="7.228256328">
        <ele>1124.600000</ele>
        <time>2015-08-05T14:57:32Z</time>
        <speed>3.746000</speed>
      </trkpt>
      <trkpt lat="46.053702313" lon="7.228206036">
        <ele>1124.000000</ele>
        <time>2015-08-05T14:57:33Z</time>
        <speed>4.968000</speed>
      </trkpt>
      <trkpt lat="46.053690746" lon="7.228159684">
        <ele>1122.800000</ele>
        <time>2015-08-05T14:57:34Z</time>
        <speed>5.434000</speed>
      </trkpt>
      <trkpt lat="46.053700301" lon="7.228125402">
        <ele>1121.800000</ele>
        <time>2015-08-05T14:57:35Z</time>
        <speed>5.110000</speed>
      </trkpt>
      <trkpt lat="46.053748245" lon="7.228125067">
        <ele>1120.800000</ele>
        <time>2015-08-05T14:57:36Z</time>
        <speed>4.027000</speed>
      </trkpt>
      <trkpt lat="46.053743719" lon="7.228102771">
        <ele>1120.000000</ele>
        <time>2015-08-05T14:57:37Z</time>
        <speed>4.012000</speed>
      </trkpt>
      <trkpt lat="46.053730392" lon="7.228074105">
        <ele>1119.200000</ele>
        <time>2015-08-05T14:57:38Z</time>
        <speed>4.250000</speed>
      </trkpt>
      <trkpt lat="46.053695942" lon="7.228035967">
        <ele>1118.400000</ele>
        <time>2015-08-05T14:57:39Z</time>
        <speed>5.222000</speed>
      </trkpt>
      <trkpt lat="46.053678843" lon="7.228012079">
        <ele>1117.400000</ele>
        <time>2015-08-05T14:57:40Z</time>
        <speed>5.589000</speed>
      </trkpt>
      <trkpt lat="46.053653698" lon="7.227974696">
        <ele>1116.600000</ele>
        <time>2015-08-05T14:57:41Z</time>
        <speed>5.110000</speed>
      </trkpt>
      <trkpt lat="46.053632910" lon="7.227927589">
        <ele>1114.400000</ele>
        <time>2015-08-05T14:57:42Z</time>
        <speed>5.517000</speed>
      </trkpt>
      <trkpt lat="46.053620589" lon="7.227879645">
        <ele>1113.400000</ele>
        <time>2015-08-05T14:57:43Z</time>
        <speed>4.759000</speed>
      </trkpt>
      <trkpt lat="46.053637185" lon="7.227852990">
        <ele>1112.200000</ele>
        <time>2015-08-05T14:57:44Z</time>
        <speed>3.434000</speed>
      </trkpt>
      <trkpt lat="46.053643555" lon="7.227830276">
        <ele>1111.200000</ele>
        <time>2015-08-05T14:57:45Z</time>
        <speed>3.559000</speed>
      </trkpt>
      <trkpt lat="46.053641963" lon="7.227802951">
        <ele>1110.200000</ele>
        <time>2015-08-05T14:57:46Z</time>
        <speed>4.481000</speed>
      </trkpt>
      <trkpt lat="46.053638945" lon="7.227763891">
        <ele>1109.400000</ele>
        <time>2015-08-05T14:57:47Z</time>
        <speed>6.203000</speed>
      </trkpt>
      <trkpt lat="46.053632575" lon="7.227730196">
        <ele>1108.200000</ele>
        <time>2015-08-05T14:57:48Z</time>
        <speed>6.063000</speed>
      </trkpt>
      <trkpt lat="46.053622852" lon="7.227681329">
        <ele>1107.200000</ele>
        <time>2015-08-05T14:57:49Z</time>
        <speed>5.393000</speed>
      </trkpt>
      <trkpt lat="46.053641376" lon="7.227666661">
        <ele>1106.200000</ele>
        <time>2015-08-05T14:57:50Z</time>
        <speed>5.420000</speed>
      </trkpt>
      <trkpt lat="46.053654284" lon="7.227633636">
        <ele>1105.400000</ele>
        <time>2015-08-05T14:57:51Z</time>
        <speed>4.354000</speed>
      </trkpt>
      <trkpt lat="46.053724441" lon="7.227595163">
        <ele>1104.400000</ele>
        <time>2015-08-05T14:57:52Z</time>
        <speed>4.759000</speed>
      </trkpt>
      <trkpt lat="46.053726369" lon="7.227595750">
        <ele>1103.400000</ele>
        <time>2015-08-05T14:57:53Z</time>
        <speed>0.000000</speed>
      </trkpt>
      <trkpt lat="46.053789987" lon="7.227605138">
        <ele>1102.400000</ele>
        <time>2015-08-05T14:57:54Z</time>
        <speed>3.124000</speed>
      </trkpt>
      <trkpt lat="46.053832986" lon="7.227618381">
        <ele>1101.400000</ele>
        <time>2015-08-05T14:57:55Z</time>
        <speed>4.646000</speed>
      </trkpt>
      <trkpt lat="46.053861150" lon="7.227623159">
        <ele>1100.400000</ele>
        <time>2015-08-05T14:57:56Z</time>
        <speed>6.624000</speed>
      </trkpt>
      <trkpt lat="46.053884703" lon="7.227616956">
        <ele>1099.600000</ele>
        <time>2015-08-05T14:57:57Z</time>
        <speed>6.350000</speed>
      </trkpt>
      <trkpt lat="46.053914291" lon="7.227609077">
        <ele>1098.600000</ele>
        <time>2015-08-05T14:57:58Z</time>
        <speed>6.168000</speed>
      </trkpt>
      <trkpt lat="46.053967097" lon="7.227589715">
        <ele>1097.800000</ele>
        <time>2015-08-05T14:57:59Z</time>
        <speed>6.728000</speed>
      </trkpt>
      <trkpt lat="46.054013616" lon="7.227571526">
        <ele>1097.200000</ele>
        <time>2015-08-05T14:58:00Z</time>
        <speed>6.564000</speed>
      </trkpt>
      <trkpt lat="46.054194749" lon="7.227589380">
        <ele>1096.600000</ele>
        <time>2015-08-05T14:58:01Z</time>
        <speed>7.084000</speed>
      </trkpt>
      <trkpt lat="46.054297595" lon="7.227586530">
        <ele>1096.000000</ele>
        <time>2015-08-05T14:58:02Z</time>
        <speed>7.276000</speed>
      </trkpt>
      <trkpt lat="46.054389545" lon="7.227583764">
        <ele>1095.200000</ele>
        <time>2015-08-05T14:58:03Z</time>
        <speed>8.099000</speed>
      </trkpt>
      <trkpt lat="46.054477722" lon="7.227589966">
        <ele>1094.600000</ele>
        <time>2015-08-05T14:58:04Z</time>
        <speed>8.099000</speed>
      </trkpt>
      <trkpt lat="46.054556261" lon="7.227632211">
        <ele>1094.000000</ele>
        <time>2015-08-05T14:58:05Z</time>
        <speed>7.862000</speed>
      </trkpt>
      <trkpt lat="46.054643768" lon="7.227668505">
        <ele>1092.600000</ele>
        <time>2015-08-05T14:58:06Z</time>
        <speed>8.450000</speed>
      </trkpt>
      <trkpt lat="46.054717361" lon="7.227679317">
        <ele>1091.800000</ele>
        <time>2015-08-05T14:58:07Z</time>
        <speed>8.869000</speed>
      </trkpt>
      <trkpt lat="46.054784332" lon="7.227696919">
        <ele>1090.800000</ele>
        <time>2015-08-05T14:58:08Z</time>
        <speed>7.776000</speed>
      </trkpt>
      <trkpt lat="46.054855662" lon="7.227742852">
        <ele>1089.800000</ele>
        <time>2015-08-05T14:58:09Z</time>
        <speed>6.924000</speed>
      </trkpt>
      <trkpt lat="46.054917269" lon="7.227825414">
        <ele>1088.800000</ele>
        <time>2015-08-05T14:58:10Z</time>
        <speed>7.776000</speed>
      </trkpt>
      <trkpt lat="46.054967309" lon="7.227925075">
        <ele>1088.000000</ele>
        <time>2015-08-05T14:58:11Z</time>
        <speed>8.725000</speed>
      </trkpt>
      <trkpt lat="46.055022546" lon="7.228034040">
        <ele>1087.200000</ele>
        <time>2015-08-05T14:58:12Z</time>
        <speed>8.943000</speed>
      </trkpt>
      <trkpt lat="46.055062947" lon="7.228106878">
        <ele>1086.200000</ele>
        <time>2015-08-05T14:58:13Z</time>
        <speed>8.796000</speed>
      </trkpt>
      <trkpt lat="46.055105862" lon="7.228171670">
        <ele>1085.400000</ele>
        <time>2015-08-05T14:58:14Z</time>
        <speed>8.796000</speed>
      </trkpt>
      <trkpt lat="46.055157830" lon="7.228232439">
        <ele>1084.600000</ele>
        <time>2015-08-05T14:58:15Z</time>
        <speed>9.172000</speed>
      </trkpt>
      <trkpt lat="46.055222538" lon="7.228283988">
        <ele>1083.600000</ele>
        <time>2015-08-05T14:58:16Z</time>
        <speed>9.539000</speed>
      </trkpt>
      <trkpt lat="46.055300658" lon="7.228358671">
        <ele>1082.800000</ele>
        <time>2015-08-05T14:58:17Z</time>
        <speed>10.029000</speed>
      </trkpt>
      <trkpt lat="46.055378274" lon="7.228423882">
        <ele>1081.600000</ele>
        <time>2015-08-05T14:58:18Z</time>
        <speed>10.625000</speed>
      </trkpt>
      <trkpt lat="46.055460752" lon="7.228514155">
        <ele>1080.600000</ele>
        <time>2015-08-05T14:58:19Z</time>
        <speed>9.914000</speed>
      </trkpt>
      <trkpt lat="46.055551193" lon="7.228621443">
        <ele>1079.600000</ele>
        <time>2015-08-05T14:58:20Z</time>
        <speed>10.705000</speed>
      </trkpt>
      <trkpt lat="46.055641633" lon="7.228719176">
        <ele>1078.400000</ele>
        <time>2015-08-05T14:58:21Z</time>
        <speed>11.478000</speed>
      </trkpt>
      <trkpt lat="46.055724195" lon="7.228805845">
        <ele>1077.200000</ele>
        <time>2015-08-05T14:58:22Z</time>
        <speed>10.785000</speed>
      </trkpt>
      <trkpt lat="46.055796615" lon="7.228887569">
        <ele>1076.000000</ele>
        <time>2015-08-05T14:58:23Z</time>
        <speed>10.521000</speed>
      </trkpt>
      <trkpt lat="46.055859563" lon="7.228958564">
        <ele>1074.600000</ele>
        <time>2015-08-05T14:58:24Z</time>
        <speed>9.153000</speed>
      </trkpt>
      <trkpt lat="46.055914297" lon="7.229060320">
        <ele>1073.600000</ele>
        <time>2015-08-05T14:58:25Z</time>
        <speed>9.172000</speed>
      </trkpt>
      <trkpt lat="46.055975233" lon="7.229174398">
        <ele>1072.600000</ele>
        <time>2015-08-05T14:58:26Z</time>
        <speed>9.891000</speed>
      </trkpt>
      <trkpt lat="46.056042456" lon="7.229279507">
        <ele>1071.400000</ele>
        <time>2015-08-05T14:58:27Z</time>
        <speed>10.895000</speed>
      </trkpt>
      <trkpt lat="46.056090065" lon="7.229369864">
        <ele>1070.200000</ele>
        <time>2015-08-05T14:58:28Z</time>
        <speed>10.625000</speed>
      </trkpt>
      <trkpt lat="46.056131137" lon="7.229462819">
        <ele>1069.000000</ele>
        <time>2015-08-05T14:58:29Z</time>
        <speed>9.291000</speed>
      </trkpt>
      <trkpt lat="46.056169526" lon="7.229576980">
        <ele>1068.000000</ele>
        <time>2015-08-05T14:58:30Z</time>
        <speed>8.585000</speed>
      </trkpt>
      <trkpt lat="46.056219147" lon="7.229687538">
        <ele>1065.600000</ele>
        <time>2015-08-05T14:58:31Z</time>
        <speed>9.172000</speed>
      </trkpt>
      <trkpt lat="46.056268265" lon="7.229792731">
        <ele>1064.400000</ele>
        <time>2015-08-05T14:58:32Z</time>
        <speed>9.202000</speed>
      </trkpt>
      <trkpt lat="46.056321322" lon="7.229886524">
        <ele>1063.200000</ele>
        <time>2015-08-05T14:58:33Z</time>
        <speed>9.668000</speed>
      </trkpt>
      <trkpt lat="46.056369937" lon="7.229974199">
        <ele>1061.800000</ele>
        <time>2015-08-05T14:58:34Z</time>
        <speed>9.625000</speed>
      </trkpt>
      <trkpt lat="46.056406985" lon="7.230051899">
        <ele>1060.600000</ele>
        <time>2015-08-05T14:58:35Z</time>
        <speed>9.373000</speed>
      </trkpt>
      <trkpt lat="46.056440680" lon="7.230108812">
        <ele>1059.200000</ele>
        <time>2015-08-05T14:58:36Z</time>
        <speed>7.862000</speed>
      </trkpt>
      <trkpt lat="46.056487619" lon="7.230162205">
        <ele>1058.000000</ele>
        <time>2015-08-05T14:58:37Z</time>
        <speed>6.969000</speed>
      </trkpt>
      <trkpt lat="46.056547633" lon="7.230202857">
        <ele>1057.200000</ele>
        <time>2015-08-05T14:58:38Z</time>
        <speed>6.946000</speed>
      </trkpt>
      <trkpt lat="46.056621478" lon="7.230244431">
        <ele>1056.200000</ele>
        <time>2015-08-05T14:58:39Z</time>
        <speed>7.979000</speed>
      </trkpt>
      <trkpt lat="46.056703621" lon="7.230319868">
        <ele>1055.200000</ele>
        <time>2015-08-05T14:58:40Z</time>
        <speed>9.251000</speed>
      </trkpt>
      <trkpt lat="46.056779561" lon="7.230394970">
        <ele>1054.000000</ele>
        <time>2015-08-05T14:58:41Z</time>
        <speed>10.470000</speed>
      </trkpt>
      <trkpt lat="46.056857009" lon="7.230457080">
        <ele>1052.600000</ele>
        <time>2015-08-05T14:58:42Z</time>
        <speed>10.470000</speed>
      </trkpt>
      <trkpt lat="46.056939404" lon="7.230523130">
        <ele>1051.400000</ele>
        <time>2015-08-05T14:58:43Z</time>
        <speed>9.690000</speed>
      </trkpt>
      <trkpt lat="46.057014422" lon="7.230588760">
        <ele>1050.200000</ele>
        <time>2015-08-05T14:58:44Z</time>
        <speed>10.319000</speed>
      </trkpt>
      <trkpt lat="46.057082986" lon="7.230646092">
        <ele>1048.800000</ele>
        <time>2015-08-05T14:58:45Z</time>
        <speed>10.269000</speed>
      </trkpt>
      <trkpt lat="46.057140066" lon="7.230702502">
        <ele>1047.600000</ele>
        <time>2015-08-05T14:58:46Z</time>
        <speed>9.251000</speed>
      </trkpt>
      <trkpt lat="46.057200919" lon="7.230742400">
        <ele>1046.200000</ele>
        <time>2015-08-05T14:58:47Z</time>
        <speed>8.130000</speed>
      </trkpt>
      <trkpt lat="46.057255653" lon="7.230758326">
        <ele>1045.000000</ele>
        <time>2015-08-05T14:58:48Z</time>
        <speed>7.427000</speed>
      </trkpt>
      <trkpt lat="46.057478528" lon="7.230804091">
        <ele>1044.400000</ele>
        <time>2015-08-05T14:58:51Z</time>
        <speed>7.949000</speed>
      </trkpt>
      <trkpt lat="46.057568046" lon="7.230832087">
        <ele>1044.000000</ele>
        <time>2015-08-05T14:58:52Z</time>
        <speed>8.980000</speed>
      </trkpt>
      <trkpt lat="46.057659577" lon="7.230855304">
        <ele>1043.200000</ele>
        <time>2015-08-05T14:58:53Z</time>
        <speed>9.756000</speed>
      </trkpt>
      <trkpt lat="46.057753370" lon="7.230883551">
        <ele>1042.200000</ele>
        <time>2015-08-05T14:58:54Z</time>
        <speed>10.220000</speed>
      </trkpt>
      <trkpt lat="46.057855126" lon="7.230907859">
        <ele>1041.200000</ele>
        <time>2015-08-05T14:58:55Z</time>
        <speed>10.785000</speed>
      </trkpt>
      <trkpt lat="46.057961660" lon="7.230936693">
        <ele>1039.000000</ele>
        <time>2015-08-05T14:58:56Z</time>
        <speed>11.386000</speed>
      </trkpt>
      <trkpt lat="46.058066099" lon="7.230967538">
        <ele>1037.800000</ele>
        <time>2015-08-05T14:58:57Z</time>
        <speed>12.126000</speed>
      </trkpt>
      <trkpt lat="46.058162994" lon="7.231029732">
        <ele>1036.800000</ele>
        <time>2015-08-05T14:58:58Z</time>
        <speed>12.058000</speed>
      </trkpt>
      <trkpt lat="46.058258212" lon="7.231095530">
        <ele>1035.800000</ele>
        <time>2015-08-05T14:58:59Z</time>
        <speed>12.058000</speed>
      </trkpt>
      <trkpt lat="46.058355107" lon="7.231186725">
        <ele>1034.600000</ele>
        <time>2015-08-05T14:59:00Z</time>
        <speed>12.160000</speed>
      </trkpt>
      <trkpt lat="46.058374385" lon="7.231203153">
        <ele>1033.400000</ele>
        <time>2015-08-05T14:59:01Z</time>
        <speed>0.000000</speed>
      </trkpt>
      <trkpt lat="46.058562140" lon="7.231354866">
        <ele>1032.000000</ele>
        <time>2015-08-05T14:59:02Z</time>
        <speed>13.008000</speed>
      </trkpt>
      <trkpt lat="46.058663310" lon="7.231424771">
        <ele>1030.600000</ele>
        <time>2015-08-05T14:59:03Z</time>
        <speed>13.584000</speed>
      </trkpt>
      <trkpt lat="46.058755175" lon="7.231477493">
        <ele>1029.200000</ele>
        <time>2015-08-05T14:59:04Z</time>
        <speed>13.168000</speed>
      </trkpt>
      <trkpt lat="46.058837402" lon="7.231510685">
        <ele>1027.800000</ele>
        <time>2015-08-05T14:59:05Z</time>
        <speed>11.696000</speed>
      </trkpt>
      <trkpt lat="46.058914431" lon="7.231517642">
        <ele>1026.400000</ele>
        <time>2015-08-05T14:59:06Z</time>
        <speed>10.470000</speed>
      </trkpt>
      <trkpt lat="46.058983414" lon="7.231522169">
        <ele>1024.800000</ele>
        <time>2015-08-05T14:59:07Z</time>
        <speed>9.332000</speed>
      </trkpt>
      <trkpt lat="46.058990371" lon="7.231520241">
        <ele>1023.400000</ele>
        <time>2015-08-05T14:59:08Z</time>
        <speed>0.000000</speed>
      </trkpt>
      <trkpt lat="46.059088691" lon="7.231514876">
        <ele>1023.400000</ele>
        <time>2015-08-05T14:59:09Z</time>
        <speed>6.991000</speed>
      </trkpt>
      <trkpt lat="46.059128757" lon="7.231494508">
        <ele>1023.400000</ele>
        <time>2015-08-05T14:59:10Z</time>
        <speed>6.132000</speed>
      </trkpt>
      <trkpt lat="46.059161195" lon="7.231470536">
        <ele>1023.400000</ele>
        <time>2015-08-05T14:59:13Z</time>
        <speed>2.499000</speed>
      </trkpt>
      <trkpt lat="46.059160021" lon="7.231470117">
        <ele>1023.000000</ele>
        <time>2015-08-05T14:59:14Z</time>
        <speed>0.000000</speed>
      </trkpt>
      <trkpt lat="46.059160608" lon="7.231473805">
        <ele>1022.600000</ele>
        <time>2015-08-05T14:59:15Z</time>
        <speed>0.000000</speed>
      </trkpt>
      <trkpt lat="46.059160608" lon="7.231473805">
        <ele>1022.200000</ele>
        <time>2015-08-05T14:59:16Z</time>
        <speed>0.000000</speed>
      </trkpt>
      <trkpt lat="46.059160608" lon="7.231473805">
        <ele>1021.800000</ele>
        <time>2015-08-05T14:59:17Z</time>
        <speed>0.000000</speed>
      </trkpt>
      <trkpt lat="46.059160608" lon="7.231473805">
        <ele>1021.400000</ele>
        <time>2015-08-05T14:59:18Z</time>
        <speed>0.000000</speed>
      </trkpt>
      <trkpt lat="46.059160608" lon="7.231473805">
        <ele>1021.400000</ele>
        <time>2015-08-05T14:59:20Z</time>
        <speed>0.000000</speed>
      </trkpt>
      <trkpt lat="46.059160608" lon="7.231473805">
        <ele>1021.400000</ele>
        <time>2015-08-05T14:59:30Z</time>
        <speed>0.000000</speed>
      </trkpt>
      <trkpt lat="46.059155914" lon="7.231468776">
        <ele>1021.400000</ele>
        <time>2015-08-05T14:59:36Z</time>
        <speed>0.000000</speed>
      </trkpt>
      <trkpt lat="46.059155914" lon="7.231468776">
        <ele>1021.400000</ele>
        <time>2015-08-05T14:59:50Z</time>
        <speed>0.000000</speed>
      </trkpt>
      <trkpt lat="46.059155914" lon="7.231468776">
        <ele>1021.400000</ele>
        <time>2015-08-05T15:00:02Z</time>
        <speed>0.000000</speed>
      </trkpt>
      <trkpt lat="46.059155914" lon="7.231468776">
        <ele>1021.000000</ele>
        <time>2015-08-05T15:00:06Z</time>
        <speed>0.000000</speed>
      </trkpt>
      <trkpt lat="46.059155914" lon="7.231468776">
        <ele>1020.600000</ele>
        <time>2015-08-05T15:00:07Z</time>
        <speed>0.000000</speed>
      </trkpt>
      <trkpt lat="46.059155914" lon="7.231468776">
        <ele>1020.200000</ele>
        <time>2015-08-05T15:00:08Z</time>
        <speed>0.000000</speed>
      </trkpt>
      <trkpt lat="46.059155914" lon="7.231468776">
        <ele>1019.800000</ele>
        <time>2015-08-05T15:00:09Z</time>
        <speed>0.000000</speed>
      </trkpt>
      <trkpt lat="46.059155914" lon="7.231468776">
        <ele>1019.200000</ele>
        <time>2015-08-05T15:00:10Z</time>
        <speed>0.000000</speed>
      </trkpt>
      <trkpt lat="46.059159937" lon="7.231449833">
        <ele>1019.200000</ele>
        <time>2015-08-05T15:00:12Z</time>
        <speed>0.000000</speed>
      </trkpt>
      <trkpt lat="46.059147700" lon="7.231395937">
        <ele>1019.200000</ele>
        <time>2015-08-05T15:00:14Z</time>
        <speed>32.717999</speed>
      </trkpt>
      <trkpt lat="46.059148622" lon="7.231364086">
        <ele>1019.200000</ele>
        <time>2015-08-05T15:00:16Z</time>
        <speed>0.000000</speed>
      </trkpt>
      <trkpt lat="46.059158429" lon="7.231263587">
        <ele>1019.200000</ele>
        <time>2015-08-05T15:00:18Z</time>
        <speed>1.937000</speed>
      </trkpt>
      <trkpt lat="46.059185586" lon="7.231155963">
        <ele>1019.200000</ele>
        <time>2015-08-05T15:00:20Z</time>
        <speed>3.369000</speed>
      </trkpt>
      <trkpt lat="46.059248366" lon="7.230974830">
        <ele>1019.200000</ele>
        <time>2015-08-05T15:00:24Z</time>
        <speed>4.462000</speed>
      </trkpt>
      <trkpt lat="46.059259598" lon="7.230934681">
        <ele>1019.200000</ele>
        <time>2015-08-05T15:00:25Z</time>
        <speed>4.416000</speed>
      </trkpt>
      <trkpt lat="46.059381220" lon="7.230821944">
        <ele>1019.200000</ele>
        <time>2015-08-05T15:00:30Z</time>
        <speed>3.223000</speed>
      </trkpt>
      <trkpt lat="46.059546678" lon="7.230778945">
        <ele>1019.200000</ele>
        <time>2015-08-05T15:00:35Z</time>
        <speed>4.151000</speed>
      </trkpt>
      <trkpt lat="46.059590516" lon="7.230765786">
        <ele>1019.200000</ele>
        <time>2015-08-05T15:00:36Z</time>
        <speed>4.738000</speed>
      </trkpt>
      <trkpt lat="46.059798638" lon="7.230678027">
        <ele>1019.200000</ele>
        <time>2015-08-05T15:00:40Z</time>
        <speed>6.257000</speed>
      </trkpt>
      <trkpt lat="46.059926043" lon="7.230593286">
        <ele>1018.800000</ele>
        <time>2015-08-05T15:00:42Z</time>
        <speed>7.427000</speed>
      </trkpt>
      <trkpt lat="46.059998882" lon="7.230548694">
        <ele>1018.400000</ele>
        <time>2015-08-05T15:00:43Z</time>
        <speed>7.862000</speed>
      </trkpt>
      <trkpt lat="46.060079516" lon="7.230498151">
        <ele>1017.600000</ele>
        <time>2015-08-05T15:00:44Z</time>
        <speed>8.725000</speed>
      </trkpt>
      <trkpt lat="46.060159731" lon="7.230443585">
        <ele>1017.000000</ele>
        <time>2015-08-05T15:00:45Z</time>
        <speed>9.018000</speed>
      </trkpt>
      <trkpt lat="46.060237515" lon="7.230376530">
        <ele>1016.000000</ele>
        <time>2015-08-05T15:00:46Z</time>
        <speed>10.029000</speed>
      </trkpt>
      <trkpt lat="46.060315634" lon="7.230306960">
        <ele>1015.200000</ele>
        <time>2015-08-05T15:00:47Z</time>
        <speed>10.124000</speed>
      </trkpt>
      <trkpt lat="46.060400291" lon="7.230247784">
        <ele>1014.200000</ele>
        <time>2015-08-05T15:00:48Z</time>
        <speed>10.495000</speed>
      </trkpt>
      <trkpt lat="46.060489140" lon="7.230195732">
        <ele>1013.000000</ele>
        <time>2015-08-05T15:00:49Z</time>
        <speed>11.035000</speed>
      </trkpt>
      <trkpt lat="46.060581340" lon="7.230139993">
        <ele>1012.000000</ele>
        <time>2015-08-05T15:00:50Z</time>
        <speed>11.665000</speed>
      </trkpt>
      <trkpt lat="46.060672871" lon="7.230083666">
        <ele>1010.800000</ele>
        <time>2015-08-05T15:00:51Z</time>
        <speed>12.035000</speed>
      </trkpt>
      <trkpt lat="46.060772616" lon="7.230026921">
        <ele>1009.600000</ele>
        <time>2015-08-05T15:00:52Z</time>
        <speed>12.406000</speed>
      </trkpt>
      <trkpt lat="46.060874204" lon="7.229957519">
        <ele>1008.400000</ele>
        <time>2015-08-05T15:00:53Z</time>
        <speed>12.551000</speed>
      </trkpt>
      <trkpt lat="46.060972692" lon="7.229881243">
        <ele>1007.200000</ele>
        <time>2015-08-05T15:00:54Z</time>
        <speed>12.700000</speed>
      </trkpt>
      <trkpt lat="46.061068832" lon="7.229807147">
        <ele>1006.200000</ele>
        <time>2015-08-05T15:00:55Z</time>
        <speed>12.663000</speed>
      </trkpt>
      <trkpt lat="46.061164721" lon="7.229739505">
        <ele>1005.200000</ele>
        <time>2015-08-05T15:00:56Z</time>
        <speed>12.663000</speed>
      </trkpt>
      <trkpt lat="46.061266310" lon="7.229684688">
        <ele>1004.200000</ele>
        <time>2015-08-05T15:00:57Z</time>
        <speed>12.852000</speed>
      </trkpt>
      <trkpt lat="46.061367144" lon="7.229636911">
        <ele>1003.200000</ele>
        <time>2015-08-05T15:00:58Z</time>
        <speed>12.969000</speed>
      </trkpt>
      <trkpt lat="46.061472840" lon="7.229594582">
        <ele>1002.000000</ele>
        <time>2015-08-05T15:00:59Z</time>
        <speed>13.168000</speed>
      </trkpt>
      <trkpt lat="46.061591360" lon="7.229537418">
        <ele>1000.600000</ele>
        <time>2015-08-05T15:01:00Z</time>
        <speed>13.168000</speed>
      </trkpt>
      <trkpt lat="46.061698732" lon="7.229479834">
        <ele>998.200000</ele>
        <time>2015-08-05T15:01:01Z</time>
        <speed>13.499000</speed>
      </trkpt>
      <trkpt lat="46.061812810" lon="7.229410264">
        <ele>997.200000</ele>
        <time>2015-08-05T15:01:02Z</time>
        <speed>15.958000</speed>
      </trkpt>
      <trkpt lat="46.061921942" lon="7.229343125">
        <ele>996.000000</ele>
        <time>2015-08-05T15:01:03Z</time>
        <speed>21.146000</speed>
      </trkpt>
      <trkpt lat="46.062036271" lon="7.229277160">
        <ele>994.800000</ele>
        <time>2015-08-05T15:01:04Z</time>
        <speed>21.146000</speed>
      </trkpt>
      <trkpt lat="46.062142889" lon="7.229211446">
        <ele>994.000000</ele>
        <time>2015-08-05T15:01:05Z</time>
        <speed>27.965000</speed>
      </trkpt>
      <trkpt lat="46.062167951" lon="7.229202058">
        <ele>993.000000</ele>
        <time>2015-08-05T15:01:06Z</time>
        <speed>0.000000</speed>
      </trkpt>
      <trkpt lat="46.062370542" lon="7.229093680">
        <ele>992.200000</ele>
        <time>2015-08-05T15:01:07Z</time>
        <speed>13.671000</speed>
      </trkpt>
      <trkpt lat="46.062469029" lon="7.229017404">
        <ele>991.200000</ele>
        <time>2015-08-05T15:01:08Z</time>
        <speed>13.456000</speed>
      </trkpt>
      <trkpt lat="46.062567013" lon="7.228944063">
        <ele>990.400000</ele>
        <time>2015-08-05T15:01:09Z</time>
        <speed>12.700000</speed>
      </trkpt>
      <trkpt lat="46.062919808" lon="7.228650780">
        <ele>990.400000</ele>
        <time>2015-08-05T15:01:13Z</time>
        <speed>11.267000</speed>
      </trkpt>
      <trkpt lat="46.063235386" lon="7.228293040">
        <ele>990.000000</ele>
        <time>2015-08-05T15:01:17Z</time>
        <speed>11.121000</speed>
      </trkpt>
      <trkpt lat="46.063307638" lon="7.228207545">
        <ele>989.400000</ele>
        <time>2015-08-05T15:01:18Z</time>
        <speed>11.063000</speed>
      </trkpt>
      <trkpt lat="46.063377376" lon="7.228122469">
        <ele>989.000000</ele>
        <time>2015-08-05T15:01:19Z</time>
        <speed>10.840000</speed>
      </trkpt>
      <trkpt lat="46.063447365" lon="7.228037560">
        <ele>988.400000</ele>
        <time>2015-08-05T15:01:20Z</time>
        <speed>10.419000</speed>
      </trkpt>
      <trkpt lat="46.063518695" lon="7.227949634">
        <ele>988.000000</ele>
        <time>2015-08-05T15:01:21Z</time>
        <speed>10.077000</speed>
      </trkpt>
      <trkpt lat="46.063734193" lon="7.227671858">
        <ele>987.600000</ele>
        <time>2015-08-05T15:01:24Z</time>
        <speed>10.678000</speed>
      </trkpt>
      <trkpt lat="46.063808038" lon="7.227555181">
        <ele>986.200000</ele>
        <time>2015-08-05T15:01:25Z</time>
        <speed>10.895000</speed>
      </trkpt>
      <trkpt lat="46.063894372" lon="7.227442026">
        <ele>985.400000</ele>
        <time>2015-08-05T15:01:26Z</time>
        <speed>12.058000</speed>
      </trkpt>
      <trkpt lat="46.063990177" lon="7.227337587">
        <ele>984.400000</ele>
        <time>2015-08-05T15:01:27Z</time>
        <speed>12.700000</speed>
      </trkpt>
      <trkpt lat="46.064096878" lon="7.227254104">
        <ele>983.200000</ele>
        <time>2015-08-05T15:01:28Z</time>
        <speed>22.672001</speed>
      </trkpt>
      <trkpt lat="46.064209615" lon="7.227198112">
        <ele>982.000000</ele>
        <time>2015-08-05T15:01:29Z</time>
        <speed>13.758000</speed>
      </trkpt>
      <trkpt lat="46.064307348" lon="7.227127118">
        <ele>980.800000</ele>
        <time>2015-08-05T15:01:30Z</time>
        <speed>13.373000</speed>
      </trkpt>
      <trkpt lat="46.064385970" lon="7.227035839">
        <ele>979.600000</ele>
        <time>2015-08-05T15:01:31Z</time>
        <speed>12.852000</speed>
      </trkpt>
      <trkpt lat="46.064458977" lon="7.226952942">
        <ele>978.200000</ele>
        <time>2015-08-05T15:01:32Z</time>
        <speed>11.728000</speed>
      </trkpt>
      <trkpt lat="46.064516141" lon="7.226881109">
        <ele>977.000000</ele>
        <time>2015-08-05T15:01:33Z</time>
        <speed>11.063000</speed>
      </trkpt>
      <trkpt lat="46.064551094" lon="7.226812964">
        <ele>977.000000</ele>
        <time>2015-08-05T15:01:34Z</time>
        <speed>9.291000</speed>
      </trkpt>
      <trkpt lat="46.064618819" lon="7.226795530">
        <ele>977.000000</ele>
        <time>2015-08-05T15:01:37Z</time>
        <speed>5.026000</speed>
      </trkpt>
      <trkpt lat="46.064585124" lon="7.226872643">
        <ele>977.000000</ele>
        <time>2015-08-05T15:01:39Z</time>
        <speed>4.192000</speed>
      </trkpt>
      <trkpt lat="46.064569953" lon="7.226914636">
        <ele>977.000000</ele>
        <time>2015-08-05T15:01:40Z</time>
        <speed>3.888000</speed>
      </trkpt>
      <trkpt lat="46.064499880" lon="7.227051178">
        <ele>977.000000</ele>
        <time>2015-08-05T15:01:43Z</time>
        <speed>4.759000</speed>
      </trkpt>
      <trkpt lat="46.064470711" lon="7.227102810">
        <ele>976.600000</ele>
        <time>2015-08-05T15:01:44Z</time>
        <speed>5.122000</speed>
      </trkpt>
      <trkpt lat="46.064436513" lon="7.227166345">
        <ele>976.200000</ele>
        <time>2015-08-05T15:01:45Z</time>
        <speed>5.489000</speed>
      </trkpt>
      <trkpt lat="46.064394436" lon="7.227227868">
        <ele>975.800000</ele>
        <time>2015-08-05T15:01:46Z</time>
        <speed>5.962000</speed>
      </trkpt>
      <trkpt lat="46.064350682" lon="7.227296851">
        <ele>975.400000</ele>
        <time>2015-08-05T15:01:47Z</time>
        <speed>6.388000</speed>
      </trkpt>
      <trkpt lat="46.064306594" lon="7.227374300">
        <ele>974.800000</ele>
        <time>2015-08-05T15:01:48Z</time>
        <speed>6.857000</speed>
      </trkpt>
      <trkpt lat="46.064254207" lon="7.227449402">
        <ele>974.400000</ele>
        <time>2015-08-05T15:01:49Z</time>
        <speed>7.505000</speed>
      </trkpt>
      <trkpt lat="46.064189666" lon="7.227505058">
        <ele>973.200000</ele>
        <time>2015-08-05T15:01:50Z</time>
        <speed>7.862000</speed>
      </trkpt>
      <trkpt lat="46.064127472" lon="7.227578148">
        <ele>972.400000</ele>
        <time>2015-08-05T15:01:51Z</time>
        <speed>8.384000</speed>
      </trkpt>
      <trkpt lat="46.064066536" lon="7.227660039">
        <ele>971.800000</ele>
        <time>2015-08-05T15:01:52Z</time>
        <speed>8.906000</speed>
      </trkpt>
      <trkpt lat="46.064002414" lon="7.227750899">
        <ele>971.000000</ele>
        <time>2015-08-05T15:01:53Z</time>
        <speed>9.455000</speed>
      </trkpt>
      <trkpt lat="46.063938377" lon="7.227845698">
        <ele>970.200000</ele>
        <time>2015-08-05T15:01:54Z</time>
        <speed>9.800000</speed>
      </trkpt>
      <trkpt lat="46.063878781" lon="7.227948879">
        <ele>969.200000</ele>
        <time>2015-08-05T15:01:55Z</time>
        <speed>10.124000</speed>
      </trkpt>
      <trkpt lat="46.063812899" lon="7.228061532">
        <ele>968.200000</ele>
        <time>2015-08-05T15:01:56Z</time>
        <speed>10.678000</speed>
      </trkpt>
      <trkpt lat="46.063758585" lon="7.228189272">
        <ele>967.000000</ele>
        <time>2015-08-05T15:01:57Z</time>
        <speed>11.121000</speed>
      </trkpt>
      <trkpt lat="46.063692703" lon="7.228319695">
        <ele>966.000000</ele>
        <time>2015-08-05T15:01:58Z</time>
        <speed>11.728000</speed>
      </trkpt>
      <trkpt lat="46.063641406" lon="7.228438802">
        <ele>964.800000</ele>
        <time>2015-08-05T15:01:59Z</time>
        <speed>12.195000</speed>
      </trkpt>
      <trkpt lat="46.063605950" lon="7.228553382">
        <ele>963.800000</ele>
        <time>2015-08-05T15:02:00Z</time>
        <speed>11.686000</speed>
      </trkpt>
      <trkpt lat="46.063610393" lon="7.228660503">
        <ele>962.600000</ele>
        <time>2015-08-05T15:02:01Z</time>
        <speed>10.638000</speed>
      </trkpt>
      <trkpt lat="46.063623133" lon="7.228752872">
        <ele>961.400000</ele>
        <time>2015-08-05T15:02:02Z</time>
        <speed>9.018000</speed>
      </trkpt>
      <trkpt lat="46.063660181" lon="7.228805007">
        <ele>960.400000</ele>
        <time>2015-08-05T15:02:03Z</time>
        <speed>8.287000</speed>
      </trkpt>
      <trkpt lat="46.063698570" lon="7.228801403">
        <ele>960.400000</ele>
        <time>2015-08-05T15:02:04Z</time>
        <speed>7.805000</speed>
      </trkpt>
      <trkpt lat="46.063786329" lon="7.228773659">
        <ele>960.000000</ele>
        <time>2015-08-05T15:02:05Z</time>
        <speed>8.417000</speed>
      </trkpt>
      <trkpt lat="46.063862856" lon="7.228685565">
        <ele>959.600000</ele>
        <time>2015-08-05T15:02:06Z</time>
        <speed>9.095000</speed>
      </trkpt>
      <trkpt lat="46.063946675" lon="7.228616666">
        <ele>958.600000</ele>
        <time>2015-08-05T15:02:07Z</time>
        <speed>9.625000</speed>
      </trkpt>
      <trkpt lat="46.064038540" lon="7.228545252">
        <ele>957.800000</ele>
        <time>2015-08-05T15:02:08Z</time>
        <speed>10.369000</speed>
      </trkpt>
      <trkpt lat="46.064134010" lon="7.228474844">
        <ele>956.600000</ele>
        <time>2015-08-05T15:02:09Z</time>
        <speed>11.007000</speed>
      </trkpt>
      <trkpt lat="46.064232749" lon="7.228393875">
        <ele>955.600000</ele>
        <time>2015-08-05T15:02:10Z</time>
        <speed>11.793000</speed>
      </trkpt>
      <trkpt lat="46.064334673" lon="7.228313828">
        <ele>954.200000</ele>
        <time>2015-08-05T15:02:11Z</time>
        <speed>12.300000</speed>
      </trkpt>
      <trkpt lat="46.064444895" lon="7.228237301">
        <ele>952.800000</ele>
        <time>2015-08-05T15:02:12Z</time>
        <speed>12.852000</speed>
      </trkpt>
      <trkpt lat="46.064552602" lon="7.228149375">
        <ele>951.200000</ele>
        <time>2015-08-05T15:02:13Z</time>
        <speed>13.331000</speed>
      </trkpt>
      <trkpt lat="46.064667602" lon="7.228054240">
        <ele>949.400000</ele>
        <time>2015-08-05T15:02:14Z</time>
        <speed>13.584000</speed>
      </trkpt>
      <trkpt lat="46.064783608" lon="7.227965476">
        <ele>945.600000</ele>
        <time>2015-08-05T15:02:15Z</time>
        <speed>13.982000</speed>
      </trkpt>
      <trkpt lat="46.064898356" lon="7.227870341">
        <ele>943.800000</ele>
        <time>2015-08-05T15:02:16Z</time>
        <speed>16.768000</speed>
      </trkpt>
      <trkpt lat="46.065012517" lon="7.227772692">
        <ele>941.800000</ele>
        <time>2015-08-05T15:02:17Z</time>
        <speed>14.601000</speed>
      </trkpt>
      <trkpt lat="46.065130618" lon="7.227670936">
        <ele>940.000000</ele>
        <time>2015-08-05T15:02:18Z</time>
        <speed>14.601000</speed>
      </trkpt>
      <trkpt lat="46.065248217" lon="7.227566246">
        <ele>938.200000</ele>
        <time>2015-08-05T15:02:19Z</time>
        <speed>16.834000</speed>
      </trkpt>
      <trkpt lat="46.065371263" lon="7.227467339">
        <ele>937.000000</ele>
        <time>2015-08-05T15:02:20Z</time>
        <speed>35.921001</speed>
      </trkpt>
      <trkpt lat="46.065492549" lon="7.227365750">
        <ele>935.600000</ele>
        <time>2015-08-05T15:02:21Z</time>
        <speed>54.592999</speed>
      </trkpt>
      <trkpt lat="46.065612662" lon="7.227261815">
        <ele>934.400000</ele>
        <time>2015-08-05T15:02:22Z</time>
        <speed>63.081001</speed>
      </trkpt>
      <trkpt lat="46.065743922" lon="7.227153856">
        <ele>933.000000</ele>
        <time>2015-08-05T15:02:23Z</time>
        <speed>48.051998</speed>
      </trkpt>
      <trkpt lat="46.065864622" lon="7.227055871">
        <ele>931.600000</ele>
        <time>2015-08-05T15:02:24Z</time>
        <speed>34.805000</speed>
      </trkpt>
      <trkpt lat="46.065975430" lon="7.226959061">
        <ele>930.400000</ele>
        <time>2015-08-05T15:02:25Z</time>
        <speed>51.806999</speed>
      </trkpt>
      <trkpt lat="46.065985824" lon="7.226953109">
        <ele>929.000000</ele>
        <time>2015-08-05T15:02:26Z</time>
        <speed>0.000000</speed>
      </trkpt>
      <trkpt lat="46.066167292" lon="7.226809779">
        <ele>927.600000</ele>
        <time>2015-08-05T15:02:27Z</time>
        <speed>14.120000</speed>
      </trkpt>
      <trkpt lat="46.066239628" lon="7.226754039">
        <ele>926.400000</ele>
        <time>2015-08-05T15:02:28Z</time>
        <speed>12.551000</speed>
      </trkpt>
      <trkpt lat="46.066355717" lon="7.226659994">
        <ele>926.400000</ele>
        <time>2015-08-05T15:02:30Z</time>
        <speed>8.833000</speed>
      </trkpt>
      <trkpt lat="46.066403662" lon="7.226637028">
        <ele>926.400000</ele>
        <time>2015-08-05T15:02:31Z</time>
        <speed>7.427000</speed>
      </trkpt>
      <trkpt lat="46.066456216" lon="7.226603668">
        <ele>926.400000</ele>
        <time>2015-08-05T15:02:33Z</time>
        <speed>5.172000</speed>
      </trkpt>
      <trkpt lat="46.066473902" lon="7.226581875">
        <ele>926.400000</ele>
        <time>2015-08-05T15:02:36Z</time>
        <speed>2.445000</speed>
      </trkpt>
      <trkpt lat="46.066473818" lon="7.226584557">
        <ele>926.400000</ele>
        <time>2015-08-05T15:02:37Z</time>
        <speed>0.000000</speed>
      </trkpt>
      <trkpt lat="46.066471555" lon="7.226591095">
        <ele>926.400000</ele>
        <time>2015-08-05T15:02:41Z</time>
        <speed>0.000000</speed>
      </trkpt>
      <trkpt lat="46.066471555" lon="7.226591095">
        <ele>926.400000</ele>
        <time>2015-08-05T15:02:42Z</time>
        <speed>0.000000</speed>
      </trkpt>
      <trkpt lat="46.066532492" lon="7.226523704">
        <ele>926.400000</ele>
        <time>2015-08-05T15:02:48Z</time>
        <speed>3.032000</speed>
      </trkpt>
      <trkpt lat="46.066601391" lon="7.226459834">
        <ele>926.000000</ele>
        <time>2015-08-05T15:02:50Z</time>
        <speed>3.595000</speed>
      </trkpt>
      <trkpt lat="46.066646402" lon="7.226426810">
        <ele>925.600000</ele>
        <time>2015-08-05T15:02:51Z</time>
        <speed>4.471000</speed>
      </trkpt>
      <trkpt lat="46.066699292" lon="7.226392276">
        <ele>925.200000</ele>
        <time>2015-08-05T15:02:52Z</time>
        <speed>5.461000</speed>
      </trkpt>
      <trkpt lat="46.066753355" lon="7.226344667">
        <ele>924.800000</ele>
        <time>2015-08-05T15:02:53Z</time>
        <speed>6.012000</speed>
      </trkpt>
      <trkpt lat="46.066810268" lon="7.226289095">
        <ele>924.200000</ele>
        <time>2015-08-05T15:02:54Z</time>
        <speed>6.686000</speed>
      </trkpt>
      <trkpt lat="46.066871372" lon="7.226233188">
        <ele>923.800000</ele>
        <time>2015-08-05T15:02:55Z</time>
        <speed>7.452000</speed>
      </trkpt>
      <trkpt lat="46.066940104" lon="7.226175520">
        <ele>923.200000</ele>
        <time>2015-08-05T15:02:56Z</time>
        <speed>8.009000</speed>
      </trkpt>
      <trkpt lat="46.067005566" lon="7.226117937">
        <ele>922.400000</ele>
        <time>2015-08-05T15:02:57Z</time>
        <speed>8.760000</speed>
      </trkpt>
      <trkpt lat="46.067081087" lon="7.226055743">
        <ele>921.800000</ele>
        <time>2015-08-05T15:02:58Z</time>
        <speed>9.212000</speed>
      </trkpt>
      <trkpt lat="46.067161302" lon="7.225989526">
        <ele>920.800000</ele>
        <time>2015-08-05T15:02:59Z</time>
        <speed>9.668000</speed>
      </trkpt>
      <trkpt lat="46.067247636" lon="7.225911826">
        <ele>920.000000</ele>
        <time>2015-08-05T15:03:00Z</time>
        <speed>10.269000</speed>
      </trkpt>
      <trkpt lat="46.067330533" lon="7.225828426">
        <ele>919.000000</ele>
        <time>2015-08-05T15:03:01Z</time>
        <speed>10.732000</speed>
      </trkpt>
      <trkpt lat="46.067417537" lon="7.225755084">
        <ele>918.000000</ele>
        <time>2015-08-05T15:03:02Z</time>
        <speed>11.007000</speed>
      </trkpt>
      <trkpt lat="46.067507056" lon="7.225683083">
        <ele>917.000000</ele>
        <time>2015-08-05T15:03:03Z</time>
        <speed>11.356000</speed>
      </trkpt>
      <trkpt lat="46.067594395" lon="7.225607982">
        <ele>914.800000</ele>
        <time>2015-08-05T15:03:04Z</time>
        <speed>11.539000</speed>
      </trkpt>
      <trkpt lat="46.067683411" lon="7.225531539">
        <ele>914.000000</ele>
        <time>2015-08-05T15:03:05Z</time>
        <speed>11.665000</speed>
      </trkpt>
      <trkpt lat="46.067773181" lon="7.225452330">
        <ele>913.000000</ele>
        <time>2015-08-05T15:03:06Z</time>
        <speed>11.793000</speed>
      </trkpt>
      <trkpt lat="46.067862029" lon="7.225378736">
        <ele>912.200000</ele>
        <time>2015-08-05T15:03:07Z</time>
        <speed>11.793000</speed>
      </trkpt>
      <trkpt lat="46.067950039" lon="7.225297516">
        <ele>911.400000</ele>
        <time>2015-08-05T15:03:08Z</time>
        <speed>11.665000</speed>
      </trkpt>
      <trkpt lat="46.068033104" lon="7.225220235">
        <ele>910.400000</ele>
        <time>2015-08-05T15:03:09Z</time>
        <speed>11.539000</speed>
      </trkpt>
      <trkpt lat="46.068186828" lon="7.225062739">
        <ele>910.400000</ele>
        <time>2015-08-05T15:03:11Z</time>
        <speed>11.121000</speed>
      </trkpt>
      <trkpt lat="46.068337535" lon="7.224903902">
        <ele>910.400000</ele>
        <time>2015-08-05T15:03:13Z</time>
        <speed>10.625000</speed>
      </trkpt>
      <trkpt lat="46.068484134" lon="7.224744394">
        <ele>910.000000</ele>
        <time>2015-08-05T15:03:15Z</time>
        <speed>10.470000</speed>
      </trkpt>
      <trkpt lat="46.068564433" lon="7.224663090">
        <ele>909.400000</ele>
        <time>2015-08-05T15:03:16Z</time>
        <speed>10.495000</speed>
      </trkpt>
      <trkpt lat="46.068640037" lon="7.224583797">
        <ele>909.000000</ele>
        <time>2015-08-05T15:03:17Z</time>
        <speed>10.590000</speed>
      </trkpt>
      <trkpt lat="46.068713714" lon="7.224500984">
        <ele>908.200000</ele>
        <time>2015-08-05T15:03:18Z</time>
        <speed>10.732000</speed>
      </trkpt>
      <trkpt lat="46.068787224" lon="7.224413979">
        <ele>907.600000</ele>
        <time>2015-08-05T15:03:19Z</time>
        <speed>10.732000</speed>
      </trkpt>
      <trkpt lat="46.068871965" lon="7.224339297">
        <ele>906.800000</ele>
        <time>2015-08-05T15:03:20Z</time>
        <speed>10.785000</speed>
      </trkpt>
      <trkpt lat="46.068951844" lon="7.224253885">
        <ele>906.200000</ele>
        <time>2015-08-05T15:03:21Z</time>
        <speed>11.296000</speed>
      </trkpt>
      <trkpt lat="46.069029712" lon="7.224163780">
        <ele>905.600000</ele>
        <time>2015-08-05T15:03:22Z</time>
        <speed>11.356000</speed>
      </trkpt>
      <trkpt lat="46.069285360" lon="7.223904024">
        <ele>905.000000</ele>
        <time>2015-08-05T15:03:25Z</time>
        <speed>11.825000</speed>
      </trkpt>
      <trkpt lat="46.069363480" lon="7.223817691">
        <ele>904.400000</ele>
        <time>2015-08-05T15:03:26Z</time>
        <speed>11.728000</speed>
      </trkpt>
      <trkpt lat="46.069445035" lon="7.223734794">
        <ele>903.800000</ele>
        <time>2015-08-05T15:03:27Z</time>
        <speed>11.665000</speed>
      </trkpt>
      <trkpt lat="46.069526591" lon="7.223654160">
        <ele>902.800000</ele>
        <time>2015-08-05T15:03:28Z</time>
        <speed>11.447000</speed>
      </trkpt>
      <trkpt lat="46.069686267" lon="7.223483421">
        <ele>902.400000</ele>
        <time>2015-08-05T15:03:30Z</time>
        <speed>11.179000</speed>
      </trkpt>
      <trkpt lat="46.069763380" lon="7.223401446">
        <ele>901.800000</ele>
        <time>2015-08-05T15:03:31Z</time>
        <speed>11.063000</speed>
      </trkpt>
      <trkpt lat="46.069839739" lon="7.223324164">
        <ele>902.000000</ele>
        <time>2015-08-05T15:03:32Z</time>
        <speed>10.923000</speed>
      </trkpt>
      <trkpt lat="46.069918110" lon="7.223252248">
        <ele>902.200000</ele>
        <time>2015-08-05T15:03:33Z</time>
        <speed>10.923000</speed>
      </trkpt>
      <trkpt lat="46.069992038" lon="7.223174967">
        <ele>902.400000</ele>
        <time>2015-08-05T15:03:34Z</time>
        <speed>10.732000</speed>
      </trkpt>
      <trkpt lat="46.070066134" lon="7.223099362">
        <ele>902.600000</ele>
        <time>2015-08-05T15:03:35Z</time>
        <speed>10.573000</speed>
      </trkpt>
      <trkpt lat="46.070137967" lon="7.223023422">
        <ele>902.800000</ele>
        <time>2015-08-05T15:03:36Z</time>
        <speed>10.470000</speed>
      </trkpt>
      <trkpt lat="46.070286243" lon="7.222890904">
        <ele>902.800000</ele>
        <time>2015-08-05T15:03:38Z</time>
        <speed>10.220000</speed>
      </trkpt>
      <trkpt lat="46.070754456" lon="7.222590245">
        <ele>902.800000</ele>
        <time>2015-08-05T15:03:44Z</time>
        <speed>9.668000</speed>
      </trkpt>
      <trkpt lat="46.071079758" lon="7.222439957">
        <ele>902.400000</ele>
        <time>2015-08-05T15:03:48Z</time>
        <speed>9.603000</speed>
      </trkpt>
      <trkpt lat="46.071163745" lon="7.222404334">
        <ele>901.800000</ele>
        <time>2015-08-05T15:03:49Z</time>
        <speed>9.891000</speed>
      </trkpt>
      <trkpt lat="46.071249743" lon="7.222370304">
        <ele>900.800000</ele>
        <time>2015-08-05T15:03:50Z</time>
        <speed>10.124000</speed>
      </trkpt>
      <trkpt lat="46.071333311" lon="7.222342895">
        <ele>900.000000</ele>
        <time>2015-08-05T15:03:51Z</time>
        <speed>10.269000</speed>
      </trkpt>
      <trkpt lat="46.071409334" lon="7.222307272">
        <ele>898.800000</ele>
        <time>2015-08-05T15:03:52Z</time>
        <speed>9.690000</speed>
      </trkpt>
      <trkpt lat="46.071472450" lon="7.222276678">
        <ele>896.400000</ele>
        <time>2015-08-05T15:03:53Z</time>
        <speed>8.760000</speed>
      </trkpt>
      <trkpt lat="46.071534309" lon="7.222252538">
        <ele>895.200000</ele>
        <time>2015-08-05T15:03:54Z</time>
        <speed>7.920000</speed>
      </trkpt>
      <trkpt lat="46.071586528" lon="7.222230242">
        <ele>894.000000</ele>
        <time>2015-08-05T15:03:55Z</time>
        <speed>7.227000</speed>
      </trkpt>
      <trkpt lat="46.071669341" lon="7.222198307">
        <ele>894.000000</ele>
        <time>2015-08-05T15:03:58Z</time>
        <speed>4.128000</speed>
      </trkpt>
      <trkpt lat="46.071695409" lon="7.222212221">
        <ele>894.000000</ele>
        <time>2015-08-05T15:03:59Z</time>
        <speed>3.607000</speed>
      </trkpt>
      <trkpt lat="46.071806553" lon="7.222192356">
        <ele>894.000000</ele>
        <time>2015-08-05T15:04:02Z</time>
        <speed>3.953000</speed>
      </trkpt>
      <trkpt lat="46.071926917" lon="7.222120858">
        <ele>894.000000</ele>
        <time>2015-08-05T15:04:05Z</time>
        <speed>4.748000</speed>
      </trkpt>
      <trkpt lat="46.072016687" lon="7.222068807">
        <ele>894.000000</ele>
        <time>2015-08-05T15:04:07Z</time>
        <speed>5.475000</speed>
      </trkpt>
      <trkpt lat="46.072063793" lon="7.222049277">
        <ele>894.000000</ele>
        <time>2015-08-05T15:04:08Z</time>
        <speed>5.739000</speed>
      </trkpt>
      <trkpt lat="46.072224391" lon="7.221973337">
        <ele>894.000000</ele>
        <time>2015-08-05T15:04:11Z</time>
        <speed>6.388000</speed>
      </trkpt>
      <trkpt lat="46.072400327" lon="7.221891362">
        <ele>894.000000</ele>
        <time>2015-08-05T15:04:14Z</time>
        <speed>7.227000</speed>
      </trkpt>
      <trkpt lat="46.072524463" lon="7.221831683">
        <ele>893.600000</ele>
        <time>2015-08-05T15:04:16Z</time>
        <speed>7.584000</speed>
      </trkpt>
      <trkpt lat="46.072593278" lon="7.221804190">
        <ele>893.000000</ele>
        <time>2015-08-05T15:04:17Z</time>
        <speed>7.665000</speed>
      </trkpt>
      <trkpt lat="46.072655975" lon="7.221771501">
        <ele>892.000000</ele>
        <time>2015-08-05T15:04:18Z</time>
        <speed>7.693000</speed>
      </trkpt>
      <trkpt lat="46.072721102" lon="7.221748115">
        <ele>891.600000</ele>
        <time>2015-08-05T15:04:19Z</time>
        <speed>7.721000</speed>
      </trkpt>
      <trkpt lat="46.072787990" lon="7.221720455">
        <ele>891.600000</ele>
        <time>2015-08-05T15:04:20Z</time>
        <speed>7.805000</speed>
      </trkpt>
      <trkpt lat="46.072923609" lon="7.221667817">
        <ele>891.600000</ele>
        <time>2015-08-05T15:04:22Z</time>
        <speed>7.862000</speed>
      </trkpt>
      <trkpt lat="46.073063755" lon="7.221603527">
        <ele>892.200000</ele>
        <time>2015-08-05T15:04:24Z</time>
        <speed>8.039000</speed>
      </trkpt>
      <trkpt lat="46.073129385" lon="7.221565893">
        <ele>892.600000</ele>
        <time>2015-08-05T15:04:25Z</time>
        <speed>8.130000</speed>
      </trkpt>
      <trkpt lat="46.073198703" lon="7.221524151">
        <ele>893.200000</ele>
        <time>2015-08-05T15:04:26Z</time>
        <speed>8.255000</speed>
      </trkpt>
      <trkpt lat="46.073268357" lon="7.221476793">
        <ele>893.600000</ele>
        <time>2015-08-05T15:04:27Z</time>
        <speed>8.417000</speed>
      </trkpt>
      <trkpt lat="46.073339100" lon="7.221421053">
        <ele>894.200000</ele>
        <time>2015-08-05T15:04:28Z</time>
        <speed>8.483000</speed>
      </trkpt>
      <trkpt lat="46.073404814" lon="7.221355339">
        <ele>894.200000</ele>
        <time>2015-08-05T15:04:29Z</time>
        <speed>8.689000</speed>
      </trkpt>
      <trkpt lat="46.073522412" lon="7.221211590">
        <ele>894.200000</ele>
        <time>2015-08-05T15:04:31Z</time>
        <speed>8.760000</speed>
      </trkpt>
      <trkpt lat="46.073628695" lon="7.221037078">
        <ele>894.200000</ele>
        <time>2015-08-05T15:04:33Z</time>
        <speed>8.906000</speed>
      </trkpt>
      <trkpt lat="46.073749227" lon="7.220869189">
        <ele>894.200000</ele>
        <time>2015-08-05T15:04:35Z</time>
        <speed>9.332000</speed>
      </trkpt>
      <trkpt lat="46.073811756" lon="7.220788890">
        <ele>893.800000</ele>
        <time>2015-08-05T15:04:36Z</time>
        <speed>9.414000</speed>
      </trkpt>
      <trkpt lat="46.073877218" lon="7.220709430">
        <ele>893.400000</ele>
        <time>2015-08-05T15:04:37Z</time>
        <speed>9.625000</speed>
      </trkpt>
      <trkpt lat="46.073943938" lon="7.220633490">
        <ele>892.800000</ele>
        <time>2015-08-05T15:04:38Z</time>
        <speed>9.756000</speed>
      </trkpt>
      <trkpt lat="46.074013005" lon="7.220549168">
        <ele>892.400000</ele>
        <time>2015-08-05T15:04:39Z</time>
        <speed>9.756000</speed>
      </trkpt>
      <trkpt lat="46.074078635" lon="7.220473060">
        <ele>892.000000</ele>
        <time>2015-08-05T15:04:40Z</time>
        <speed>9.734000</speed>
      </trkpt>
      <trkpt lat="46.074144852" lon="7.220394522">
        <ele>892.000000</ele>
        <time>2015-08-05T15:04:41Z</time>
        <speed>9.712000</speed>
      </trkpt>
      <trkpt lat="46.074212075" lon="7.220323024">
        <ele>891.600000</ele>
        <time>2015-08-05T15:04:42Z</time>
        <speed>9.625000</speed>
      </trkpt>
      <trkpt lat="46.074284243" lon="7.220256639">
        <ele>890.600000</ele>
        <time>2015-08-05T15:04:43Z</time>
        <speed>9.455000</speed>
      </trkpt>
      <trkpt lat="46.074347611" lon="7.220174078">
        <ele>890.200000</ele>
        <time>2015-08-05T15:04:44Z</time>
        <speed>9.582000</speed>
      </trkpt>
      <trkpt lat="46.074410391" lon="7.220094282">
        <ele>889.800000</ele>
        <time>2015-08-05T15:04:45Z</time>
        <speed>9.539000</speed>
      </trkpt>
      <trkpt lat="46.074478201" lon="7.220019348">
        <ele>889.800000</ele>
        <time>2015-08-05T15:04:46Z</time>
        <speed>9.582000</speed>
      </trkpt>
      <trkpt lat="46.074951611" lon="7.219488689">
        <ele>889.800000</ele>
        <time>2015-08-05T15:04:53Z</time>
        <speed>9.800000</speed>
      </trkpt>
      <trkpt lat="46.075089744" lon="7.219332786">
        <ele>889.400000</ele>
        <time>2015-08-05T15:04:55Z</time>
        <speed>9.937000</speed>
      </trkpt>
      <trkpt lat="46.075161577" lon="7.219254415">
        <ele>889.000000</ele>
        <time>2015-08-05T15:04:56Z</time>
        <speed>10.124000</speed>
      </trkpt>
      <trkpt lat="46.075228297" lon="7.219169674">
        <ele>888.400000</ele>
        <time>2015-08-05T15:04:57Z</time>
        <speed>10.172000</speed>
      </trkpt>
      <trkpt lat="46.075292419" lon="7.219082167">
        <ele>888.800000</ele>
        <time>2015-08-05T15:04:58Z</time>
        <speed>10.124000</speed>
      </trkpt>
      <trkpt lat="46.075359055" lon="7.218995247">
        <ele>889.200000</ele>
        <time>2015-08-05T15:04:59Z</time>
        <speed>10.077000</speed>
      </trkpt>
      <trkpt lat="46.075427451" lon="7.218912601">
        <ele>888.800000</ele>
        <time>2015-08-05T15:05:00Z</time>
        <speed>10.124000</speed>
      </trkpt>
      <trkpt lat="46.075498446" lon="7.218834063">
        <ele>888.400000</ele>
        <time>2015-08-05T15:05:01Z</time>
        <speed>10.077000</speed>
      </trkpt>
      <trkpt lat="46.075572207" lon="7.218760218">
        <ele>887.800000</ele>
        <time>2015-08-05T15:05:02Z</time>
        <speed>10.029000</speed>
      </trkpt>
      <trkpt lat="46.075643956" lon="7.218690732">
        <ele>887.400000</ele>
        <time>2015-08-05T15:05:03Z</time>
        <speed>10.077000</speed>
      </trkpt>
      <trkpt lat="46.075712352" lon="7.218617893">
        <ele>887.000000</ele>
        <time>2015-08-05T15:05:04Z</time>
        <speed>9.983000</speed>
      </trkpt>
      <trkpt lat="46.075785191" lon="7.218559220">
        <ele>887.000000</ele>
        <time>2015-08-05T15:05:05Z</time>
        <speed>9.845000</speed>
      </trkpt>
      <trkpt lat="46.076148546" lon="7.218250347">
        <ele>886.400000</ele>
        <time>2015-08-05T15:05:10Z</time>
        <speed>9.455000</speed>
      </trkpt>
      <trkpt lat="46.076212584" lon="7.218162756">
        <ele>886.000000</ele>
        <time>2015-08-05T15:05:11Z</time>
        <speed>9.497000</speed>
      </trkpt>
      <trkpt lat="46.076272599" lon="7.218069298">
        <ele>885.200000</ele>
        <time>2015-08-05T15:05:12Z</time>
        <speed>9.603000</speed>
      </trkpt>
      <trkpt lat="46.076326662" lon="7.217976175">
        <ele>884.400000</ele>
        <time>2015-08-05T15:05:13Z</time>
        <speed>9.668000</speed>
      </trkpt>
      <trkpt lat="46.076375277" lon="7.217875760">
        <ele>883.600000</ele>
        <time>2015-08-05T15:05:14Z</time>
        <speed>9.756000</speed>
      </trkpt>
      <trkpt lat="46.076420120" lon="7.217767214">
        <ele>882.800000</ele>
        <time>2015-08-05T15:05:15Z</time>
        <speed>9.891000</speed>
      </trkpt>
      <trkpt lat="46.076466891" lon="7.217659339">
        <ele>882.000000</ele>
        <time>2015-08-05T15:05:16Z</time>
        <speed>9.937000</speed>
      </trkpt>
      <trkpt lat="46.076609970" lon="7.217329260">
        <ele>881.200000</ele>
        <time>2015-08-05T15:05:19Z</time>
        <speed>10.269000</speed>
      </trkpt>
      <trkpt lat="46.076657412" lon="7.217219289">
        <ele>880.600000</ele>
        <time>2015-08-05T15:05:20Z</time>
        <speed>10.269000</speed>
      </trkpt>
      <trkpt lat="46.076699992" lon="7.217102445">
        <ele>880.000000</ele>
        <time>2015-08-05T15:05:21Z</time>
        <speed>10.419000</speed>
      </trkpt>
      <trkpt lat="46.076748020" lon="7.216988954">
        <ele>879.400000</ele>
        <time>2015-08-05T15:05:22Z</time>
        <speed>10.419000</speed>
      </trkpt>
      <trkpt lat="46.076795462" lon="7.216873284">
        <ele>878.800000</ele>
        <time>2015-08-05T15:05:23Z</time>
        <speed>10.521000</speed>
      </trkpt>
      <trkpt lat="46.076899900" lon="7.216638255">
        <ele>878.400000</ele>
        <time>2015-08-05T15:05:25Z</time>
        <speed>10.678000</speed>
      </trkpt>
      <trkpt lat="46.076949270" lon="7.216519065">
        <ele>878.000000</ele>
        <time>2015-08-05T15:05:26Z</time>
        <speed>10.732000</speed>
      </trkpt>
      <trkpt lat="46.077004506" lon="7.216402556">
        <ele>877.600000</ele>
        <time>2015-08-05T15:05:27Z</time>
        <speed>10.895000</speed>
      </trkpt>
      <trkpt lat="46.077058486" lon="7.216282863">
        <ele>877.200000</ele>
        <time>2015-08-05T15:05:28Z</time>
        <speed>11.063000</speed>
      </trkpt>
      <trkpt lat="46.077106849" lon="7.216156128">
        <ele>876.800000</ele>
        <time>2015-08-05T15:05:29Z</time>
        <speed>11.121000</speed>
      </trkpt>
      <trkpt lat="46.077157895" lon="7.216033417">
        <ele>876.400000</ele>
        <time>2015-08-05T15:05:30Z</time>
        <speed>11.179000</speed>
      </trkpt>
      <trkpt lat="46.077212797" lon="7.215915149">
        <ele>875.800000</ele>
        <time>2015-08-05T15:05:31Z</time>
        <speed>11.296000</speed>
      </trkpt>
      <trkpt lat="46.077261663" lon="7.215788247">
        <ele>875.400000</ele>
        <time>2015-08-05T15:05:32Z</time>
        <speed>11.296000</speed>
      </trkpt>
      <trkpt lat="46.077315559" lon="7.215657321">
        <ele>874.400000</ele>
        <time>2015-08-05T15:05:33Z</time>
        <speed>11.356000</speed>
      </trkpt>
      <trkpt lat="46.077360821" lon="7.215528911">
        <ele>874.000000</ele>
        <time>2015-08-05T15:05:34Z</time>
        <speed>11.478000</speed>
      </trkpt>
      <trkpt lat="46.077404994" lon="7.215405278">
        <ele>873.600000</ele>
        <time>2015-08-05T15:05:35Z</time>
        <speed>11.356000</speed>
      </trkpt>
      <trkpt lat="46.077452268" lon="7.215285835">
        <ele>873.200000</ele>
        <time>2015-08-05T15:05:36Z</time>
        <speed>11.296000</speed>
      </trkpt>
      <trkpt lat="46.077497278" lon="7.215165052">
        <ele>872.600000</ele>
        <time>2015-08-05T15:05:37Z</time>
        <speed>11.063000</speed>
      </trkpt>
      <trkpt lat="46.077543463" lon="7.215046448">
        <ele>872.000000</ele>
        <time>2015-08-05T15:05:38Z</time>
        <speed>11.007000</speed>
      </trkpt>
      <trkpt lat="46.077588390" lon="7.214928431">
        <ele>871.400000</ele>
        <time>2015-08-05T15:05:39Z</time>
        <speed>11.007000</speed>
      </trkpt>
      <trkpt lat="46.077630802" lon="7.214814940">
        <ele>870.800000</ele>
        <time>2015-08-05T15:05:40Z</time>
        <speed>10.840000</speed>
      </trkpt>
      <trkpt lat="46.077678998" lon="7.214695582">
        <ele>870.200000</ele>
        <time>2015-08-05T15:05:41Z</time>
        <speed>10.599000</speed>
      </trkpt>
      <trkpt lat="46.077769858" lon="7.214479413">
        <ele>870.200000</ele>
        <time>2015-08-05T15:05:43Z</time>
        <speed>10.573000</speed>
      </trkpt>
      <trkpt lat="46.078026512" lon="7.214010026">
        <ele>870.200000</ele>
        <time>2015-08-05T15:05:48Z</time>
        <speed>9.582000</speed>
      </trkpt>
      <trkpt lat="46.078086023" lon="7.213938780">
        <ele>870.200000</ele>
        <time>2015-08-05T15:05:49Z</time>
        <speed>9.056000</speed>
      </trkpt>
      <trkpt lat="46.078187025" lon="7.213813470">
        <ele>870.200000</ele>
        <time>2015-08-05T15:05:51Z</time>
        <speed>8.384000</speed>
      </trkpt>
      <trkpt lat="46.078237065" lon="7.213770974">
        <ele>870.200000</ele>
        <time>2015-08-05T15:05:52Z</time>
        <speed>7.862000</speed>
      </trkpt>
      <trkpt lat="46.078413923" lon="7.213557068">
        <ele>870.200000</ele>
        <time>2015-08-05T15:05:56Z</time>
        <speed>6.924000</speed>
      </trkpt>
      <trkpt lat="46.078456839" lon="7.213508704">
        <ele>870.200000</ele>
        <time>2015-08-05T15:05:57Z</time>
        <speed>6.686000</speed>
      </trkpt>
      <trkpt lat="46.078540406" lon="7.213438715">
        <ele>870.600000</ele>
        <time>2015-08-05T15:05:59Z</time>
        <speed>6.331000</speed>
      </trkpt>
      <trkpt lat="46.078584830" lon="7.213410301">
        <ele>871.000000</ele>
        <time>2015-08-05T15:06:00Z</time>
        <speed>5.962000</speed>
      </trkpt>
      <trkpt lat="46.078630428" lon="7.213387670">
        <ele>871.400000</ele>
        <time>2015-08-05T15:06:01Z</time>
        <speed>5.817000</speed>
      </trkpt>
      <trkpt lat="46.078674936" lon="7.213369313">
        <ele>872.000000</ele>
        <time>2015-08-05T15:06:02Z</time>
        <speed>5.619000</speed>
      </trkpt>
      <trkpt lat="46.078721707" lon="7.213347604">
        <ele>872.400000</ele>
        <time>2015-08-05T15:06:03Z</time>
        <speed>5.434000</speed>
      </trkpt>
      <trkpt lat="46.078806280" lon="7.213329248">
        <ele>872.400000</ele>
        <time>2015-08-05T15:06:05Z</time>
        <speed>5.026000</speed>
      </trkpt>
      <trkpt lat="46.078970817" lon="7.213317681">
        <ele>872.400000</ele>
        <time>2015-08-05T15:06:09Z</time>
        <speed>4.444000</speed>
      </trkpt>
      <trkpt lat="46.079082380" lon="7.213310808">
        <ele>872.800000</ele>
        <time>2015-08-05T15:06:13Z</time>
        <speed>3.343000</speed>
      </trkpt>
      <trkpt lat="46.079100485" lon="7.213308377">
        <ele>873.200000</ele>
        <time>2015-08-05T15:06:14Z</time>
        <speed>3.129000</speed>
      </trkpt>
      <trkpt lat="46.079119177" lon="7.213308042">
        <ele>873.600000</ele>
        <time>2015-08-05T15:06:15Z</time>
        <speed>2.653000</speed>
      </trkpt>
      <trkpt lat="46.079132755" lon="7.213312233">
        <ele>874.000000</ele>
        <time>2015-08-05T15:06:16Z</time>
        <speed>2.346000</speed>
      </trkpt>
      <trkpt lat="46.079143903" lon="7.213313657">
        <ele>874.400000</ele>
        <time>2015-08-05T15:06:17Z</time>
        <speed>2.346000</speed>
      </trkpt>
    </trkseg>
  </trk>
</gpx>
